<?xml version="1.0" encoding="UTF-8" standalone="no" ?>
<gpx xmlns="http://www.topografix.com/GPX/1/1" xmlns:xsi="http://www.w3.org/2001/XMLSchema-instance" xsi:schemaLocation="http://www.topografix.com/GPX/1/1 http://www.topografix.com/GPX/1/1/gpx.xsd" version="1.1" creator="VisuGPX - https://www.visugpx.com">
  <metadata>
    <name>CCC 2 Cuiseaux Vouglans 115 2030</name>
    <desc><![CDATA[Randonnée au départ de Cuiseaux France]]></desc>
  </metadata>
  <trk>
    <name><![CDATA[7550992-vouglans]]></name>
    <trkseg>
      <trkpt lat="46.49561" lon="5.38796">
        <ele>278.5</ele>
        <time>2019-02-09T21:33:02Z</time>
      </trkpt>
      <trkpt lat="46.49561" lon="5.38796">
        <ele>278.5</ele>
        <time>2019-02-09T21:33:02Z</time>
      </trkpt>
      <trkpt lat="46.49476" lon="5.3878">
        <ele>280</ele>
        <time>2019-02-09T21:34:02Z</time>
      </trkpt>
      <trkpt lat="46.49391" lon="5.38763">
        <ele>281</ele>
        <time>2019-02-09T21:35:02Z</time>
      </trkpt>
      <trkpt lat="46.49313" lon="5.38738">
        <ele>280</ele>
        <time>2019-02-09T21:36:02Z</time>
      </trkpt>
      <trkpt lat="46.49249" lon="5.3871">
        <ele>277</ele>
        <time>2019-02-09T21:37:02Z</time>
      </trkpt>
      <trkpt lat="46.49228" lon="5.38696">
        <ele>277</ele>
        <time>2019-02-09T21:38:02Z</time>
      </trkpt>
      <trkpt lat="46.49218" lon="5.38685">
        <ele>277</ele>
        <time>2019-02-09T21:39:02Z</time>
      </trkpt>
      <trkpt lat="46.49211" lon="5.38665">
        <ele>275</ele>
        <time>2019-02-09T21:40:02Z</time>
      </trkpt>
      <trkpt lat="46.49202" lon="5.38675">
        <ele>276</ele>
        <time>2019-02-09T21:41:02Z</time>
      </trkpt>
      <trkpt lat="46.49194" lon="5.38697">
        <ele>276</ele>
        <time>2019-02-09T21:42:02Z</time>
      </trkpt>
      <trkpt lat="46.49193" lon="5.38708">
        <ele>276</ele>
        <time>2019-02-09T21:43:02Z</time>
      </trkpt>
      <trkpt lat="46.49193" lon="5.38731">
        <ele>277</ele>
        <time>2019-02-09T21:44:02Z</time>
      </trkpt>
      <trkpt lat="46.49195" lon="5.38789">
        <ele>279</ele>
        <time>2019-02-09T21:45:02Z</time>
      </trkpt>
      <trkpt lat="46.49196" lon="5.38809">
        <ele>279</ele>
        <time>2019-02-09T21:46:02Z</time>
      </trkpt>
      <trkpt lat="46.49199" lon="5.38821">
        <ele>280</ele>
        <time>2019-02-09T21:47:02Z</time>
      </trkpt>
      <trkpt lat="46.49202" lon="5.38838">
        <ele>280</ele>
        <time>2019-02-09T21:48:02Z</time>
      </trkpt>
      <trkpt lat="46.49207" lon="5.38849">
        <ele>280</ele>
        <time>2019-02-09T21:49:02Z</time>
      </trkpt>
      <trkpt lat="46.4921" lon="5.38856">
        <ele>281</ele>
        <time>2019-02-09T21:50:02Z</time>
      </trkpt>
      <trkpt lat="46.49213" lon="5.38861">
        <ele>281</ele>
        <time>2019-02-09T21:51:02Z</time>
      </trkpt>
      <trkpt lat="46.49224" lon="5.38881">
        <ele>281</ele>
        <time>2019-02-09T21:52:02Z</time>
      </trkpt>
      <trkpt lat="46.49253" lon="5.38926">
        <ele>282</ele>
        <time>2019-02-09T21:53:02Z</time>
      </trkpt>
      <trkpt lat="46.49275" lon="5.38962">
        <ele>285</ele>
        <time>2019-02-09T21:54:02Z</time>
      </trkpt>
      <trkpt lat="46.49284" lon="5.3898">
        <ele>286</ele>
        <time>2019-02-09T21:55:02Z</time>
      </trkpt>
      <trkpt lat="46.49285" lon="5.38987">
        <ele>286</ele>
        <time>2019-02-09T21:56:02Z</time>
      </trkpt>
      <trkpt lat="46.49285" lon="5.38996">
        <ele>287</ele>
        <time>2019-02-09T21:57:02Z</time>
      </trkpt>
      <trkpt lat="46.49284" lon="5.39007">
        <ele>287</ele>
        <time>2019-02-09T21:58:02Z</time>
      </trkpt>
      <trkpt lat="46.49281" lon="5.39017">
        <ele>287</ele>
        <time>2019-02-09T21:59:02Z</time>
      </trkpt>
      <trkpt lat="46.49276" lon="5.39027">
        <ele>287</ele>
        <time>2019-02-09T22:00:02Z</time>
      </trkpt>
      <trkpt lat="46.49271" lon="5.39037">
        <ele>287</ele>
        <time>2019-02-09T22:01:02Z</time>
      </trkpt>
      <trkpt lat="46.49262" lon="5.39045">
        <ele>287</ele>
        <time>2019-02-09T22:02:02Z</time>
      </trkpt>
      <trkpt lat="46.49252" lon="5.39048">
        <ele>287</ele>
        <time>2019-02-09T22:03:02Z</time>
      </trkpt>
      <trkpt lat="46.49239" lon="5.39053">
        <ele>287</ele>
        <time>2019-02-09T22:04:02Z</time>
      </trkpt>
      <trkpt lat="46.49229" lon="5.39059">
        <ele>287</ele>
        <time>2019-02-09T22:05:02Z</time>
      </trkpt>
      <trkpt lat="46.49224" lon="5.39065">
        <ele>287</ele>
        <time>2019-02-09T22:06:02Z</time>
      </trkpt>
      <trkpt lat="46.4922" lon="5.39069">
        <ele>287</ele>
        <time>2019-02-09T22:07:02Z</time>
      </trkpt>
      <trkpt lat="46.49213" lon="5.3908">
        <ele>288</ele>
        <time>2019-02-09T22:08:02Z</time>
      </trkpt>
      <trkpt lat="46.49209" lon="5.39088">
        <ele>288</ele>
        <time>2019-02-09T22:09:02Z</time>
      </trkpt>
      <trkpt lat="46.49205" lon="5.39105">
        <ele>289</ele>
        <time>2019-02-09T22:10:02Z</time>
      </trkpt>
      <trkpt lat="46.49197" lon="5.39127">
        <ele>291</ele>
        <time>2019-02-09T22:11:02Z</time>
      </trkpt>
      <trkpt lat="46.49193" lon="5.39134">
        <ele>291</ele>
        <time>2019-02-09T22:12:02Z</time>
      </trkpt>
      <trkpt lat="46.49187" lon="5.3914">
        <ele>292</ele>
        <time>2019-02-09T22:13:02Z</time>
      </trkpt>
      <trkpt lat="46.49176" lon="5.3915">
        <ele>294</ele>
        <time>2019-02-09T22:14:02Z</time>
      </trkpt>
      <trkpt lat="46.49168" lon="5.39155">
        <ele>295</ele>
        <time>2019-02-09T22:16:02Z</time>
      </trkpt>
      <trkpt lat="46.49162" lon="5.39155">
        <ele>296</ele>
        <time>2019-02-09T22:17:02Z</time>
      </trkpt>
      <trkpt lat="46.49145" lon="5.39153">
        <ele>298</ele>
        <time>2019-02-09T22:18:02Z</time>
      </trkpt>
      <trkpt lat="46.49114" lon="5.3915">
        <ele>303</ele>
        <time>2019-02-09T22:19:02Z</time>
      </trkpt>
      <trkpt lat="46.49071" lon="5.39148">
        <ele>310</ele>
        <time>2019-02-09T22:20:02Z</time>
      </trkpt>
      <trkpt lat="46.49038" lon="5.39139">
        <ele>314</ele>
        <time>2019-02-09T22:21:02Z</time>
      </trkpt>
      <trkpt lat="46.49006" lon="5.39122">
        <ele>315</ele>
        <time>2019-02-09T22:22:02Z</time>
      </trkpt>
      <trkpt lat="46.4897" lon="5.39098">
        <ele>318</ele>
        <time>2019-02-09T22:23:02Z</time>
      </trkpt>
      <trkpt lat="46.48948" lon="5.3908">
        <ele>320</ele>
        <time>2019-02-09T22:24:02Z</time>
      </trkpt>
      <trkpt lat="46.48939" lon="5.39075">
        <ele>318</ele>
        <time>2019-02-09T22:25:02Z</time>
      </trkpt>
      <trkpt lat="46.48931" lon="5.39079">
        <ele>324</ele>
        <time>2019-02-09T22:26:02Z</time>
      </trkpt>
      <trkpt lat="46.4892" lon="5.3909">
        <ele>328</ele>
        <time>2019-02-09T22:27:02Z</time>
      </trkpt>
      <trkpt lat="46.48911" lon="5.39095">
        <ele>332</ele>
        <time>2019-02-09T22:28:02Z</time>
      </trkpt>
      <trkpt lat="46.489" lon="5.39094">
        <ele>335</ele>
        <time>2019-02-09T22:29:02Z</time>
      </trkpt>
      <trkpt lat="46.48893" lon="5.39083">
        <ele>335</ele>
        <time>2019-02-09T22:30:02Z</time>
      </trkpt>
      <trkpt lat="46.4888" lon="5.39055">
        <ele>335</ele>
        <time>2019-02-09T22:31:02Z</time>
      </trkpt>
      <trkpt lat="46.48865" lon="5.39035">
        <ele>336</ele>
        <time>2019-02-09T22:32:02Z</time>
      </trkpt>
      <trkpt lat="46.48842" lon="5.39001">
        <ele>338</ele>
        <time>2019-02-09T22:33:02Z</time>
      </trkpt>
      <trkpt lat="46.48826" lon="5.38975">
        <ele>338</ele>
        <time>2019-02-09T22:34:02Z</time>
      </trkpt>
      <trkpt lat="46.48811" lon="5.38955">
        <ele>339</ele>
        <time>2019-02-09T22:35:02Z</time>
      </trkpt>
      <trkpt lat="46.48799" lon="5.38944">
        <ele>339</ele>
        <time>2019-02-09T22:36:02Z</time>
      </trkpt>
      <trkpt lat="46.48792" lon="5.38936">
        <ele>339</ele>
        <time>2019-02-09T22:37:02Z</time>
      </trkpt>
      <trkpt lat="46.48776" lon="5.38924">
        <ele>341</ele>
        <time>2019-02-09T22:38:02Z</time>
      </trkpt>
      <trkpt lat="46.48756" lon="5.38915">
        <ele>343</ele>
        <time>2019-02-09T22:39:02Z</time>
      </trkpt>
      <trkpt lat="46.48729" lon="5.389">
        <ele>345</ele>
        <time>2019-02-09T22:40:02Z</time>
      </trkpt>
      <trkpt lat="46.48702" lon="5.38879">
        <ele>347</ele>
        <time>2019-02-09T22:41:02Z</time>
      </trkpt>
      <trkpt lat="46.48675" lon="5.38858">
        <ele>349</ele>
        <time>2019-02-09T22:42:02Z</time>
      </trkpt>
      <trkpt lat="46.48665" lon="5.38853">
        <ele>350</ele>
        <time>2019-02-09T22:43:02Z</time>
      </trkpt>
      <trkpt lat="46.48655" lon="5.38851">
        <ele>351</ele>
        <time>2019-02-09T22:44:02Z</time>
      </trkpt>
      <trkpt lat="46.48636" lon="5.38849">
        <ele>352</ele>
        <time>2019-02-09T22:45:02Z</time>
      </trkpt>
      <trkpt lat="46.48626" lon="5.38846">
        <ele>353</ele>
        <time>2019-02-09T22:46:02Z</time>
      </trkpt>
      <trkpt lat="46.48621" lon="5.38841">
        <ele>353</ele>
        <time>2019-02-09T22:47:02Z</time>
      </trkpt>
      <trkpt lat="46.48618" lon="5.38835">
        <ele>353</ele>
        <time>2019-02-09T22:48:02Z</time>
      </trkpt>
      <trkpt lat="46.48613" lon="5.3882">
        <ele>353</ele>
        <time>2019-02-09T22:49:02Z</time>
      </trkpt>
      <trkpt lat="46.48609" lon="5.388">
        <ele>353</ele>
        <time>2019-02-09T22:50:02Z</time>
      </trkpt>
      <trkpt lat="46.48606" lon="5.38787">
        <ele>353</ele>
        <time>2019-02-09T22:51:02Z</time>
      </trkpt>
      <trkpt lat="46.48602" lon="5.3878">
        <ele>353</ele>
        <time>2019-02-09T22:52:02Z</time>
      </trkpt>
      <trkpt lat="46.48599" lon="5.38776">
        <ele>354</ele>
        <time>2019-02-09T22:53:02Z</time>
      </trkpt>
      <trkpt lat="46.4859" lon="5.38774">
        <ele>355</ele>
        <time>2019-02-09T22:54:02Z</time>
      </trkpt>
      <trkpt lat="46.48582" lon="5.38776">
        <ele>355</ele>
        <time>2019-02-09T22:55:02Z</time>
      </trkpt>
      <trkpt lat="46.48562" lon="5.38788">
        <ele>357</ele>
        <time>2019-02-09T22:56:02Z</time>
      </trkpt>
      <trkpt lat="46.48531" lon="5.3881">
        <ele>359</ele>
        <time>2019-02-09T22:57:02Z</time>
      </trkpt>
      <trkpt lat="46.48486" lon="5.3884">
        <ele>363</ele>
        <time>2019-02-09T22:58:02Z</time>
      </trkpt>
      <trkpt lat="46.48471" lon="5.38851">
        <ele>364</ele>
        <time>2019-02-09T22:59:02Z</time>
      </trkpt>
      <trkpt lat="46.4846" lon="5.38862">
        <ele>364</ele>
        <time>2019-02-09T23:00:02Z</time>
      </trkpt>
      <trkpt lat="46.48455" lon="5.38874">
        <ele>365</ele>
        <time>2019-02-09T23:01:02Z</time>
      </trkpt>
      <trkpt lat="46.48453" lon="5.38883">
        <ele>365</ele>
        <time>2019-02-09T23:02:02Z</time>
      </trkpt>
      <trkpt lat="46.48452" lon="5.38891">
        <ele>365</ele>
        <time>2019-02-09T23:03:02Z</time>
      </trkpt>
      <trkpt lat="46.48452" lon="5.38897">
        <ele>365</ele>
        <time>2019-02-09T23:04:02Z</time>
      </trkpt>
      <trkpt lat="46.48453" lon="5.38907">
        <ele>366</ele>
        <time>2019-02-09T23:05:02Z</time>
      </trkpt>
      <trkpt lat="46.48457" lon="5.38918">
        <ele>366</ele>
        <time>2019-02-09T23:06:02Z</time>
      </trkpt>
      <trkpt lat="46.48468" lon="5.3894">
        <ele>368</ele>
        <time>2019-02-09T23:07:02Z</time>
      </trkpt>
      <trkpt lat="46.48478" lon="5.38955">
        <ele>369</ele>
        <time>2019-02-09T23:08:02Z</time>
      </trkpt>
      <trkpt lat="46.48484" lon="5.38971">
        <ele>370</ele>
        <time>2019-02-09T23:09:02Z</time>
      </trkpt>
      <trkpt lat="46.48485" lon="5.38974">
        <ele>371</ele>
        <time>2019-02-09T23:10:02Z</time>
      </trkpt>
      <trkpt lat="46.48487" lon="5.3898">
        <ele>371</ele>
        <time>2019-02-09T23:11:02Z</time>
      </trkpt>
      <trkpt lat="46.48491" lon="5.38994">
        <ele>372</ele>
        <time>2019-02-09T23:12:02Z</time>
      </trkpt>
      <trkpt lat="46.48495" lon="5.39013">
        <ele>375</ele>
        <time>2019-02-09T23:13:02Z</time>
      </trkpt>
      <trkpt lat="46.485" lon="5.39032">
        <ele>377</ele>
        <time>2019-02-09T23:14:02Z</time>
      </trkpt>
      <trkpt lat="46.48502" lon="5.39037">
        <ele>378</ele>
        <time>2019-02-09T23:15:02Z</time>
      </trkpt>
      <trkpt lat="46.48505" lon="5.39044">
        <ele>379</ele>
        <time>2019-02-09T23:16:02Z</time>
      </trkpt>
      <trkpt lat="46.48513" lon="5.39055">
        <ele>380</ele>
        <time>2019-02-09T23:17:02Z</time>
      </trkpt>
      <trkpt lat="46.48539" lon="5.39072">
        <ele>382</ele>
        <time>2019-02-09T23:18:02Z</time>
      </trkpt>
      <trkpt lat="46.48571" lon="5.39092">
        <ele>384</ele>
        <time>2019-02-09T23:19:02Z</time>
      </trkpt>
      <trkpt lat="46.486" lon="5.39112">
        <ele>387</ele>
        <time>2019-02-09T23:20:02Z</time>
      </trkpt>
      <trkpt lat="46.48629" lon="5.39134">
        <ele>389</ele>
        <time>2019-02-09T23:21:02Z</time>
      </trkpt>
      <trkpt lat="46.48644" lon="5.3915">
        <ele>391</ele>
        <time>2019-02-09T23:22:02Z</time>
      </trkpt>
      <trkpt lat="46.48677" lon="5.392">
        <ele>397</ele>
        <time>2019-02-09T23:23:02Z</time>
      </trkpt>
      <trkpt lat="46.48708" lon="5.39244">
        <ele>400</ele>
        <time>2019-02-09T23:24:02Z</time>
      </trkpt>
      <trkpt lat="46.48723" lon="5.39264">
        <ele>401</ele>
        <time>2019-02-09T23:25:02Z</time>
      </trkpt>
      <trkpt lat="46.48729" lon="5.39276">
        <ele>401</ele>
        <time>2019-02-09T23:26:02Z</time>
      </trkpt>
      <trkpt lat="46.48732" lon="5.39284">
        <ele>402</ele>
        <time>2019-02-09T23:27:02Z</time>
      </trkpt>
      <trkpt lat="46.48732" lon="5.39293">
        <ele>403</ele>
        <time>2019-02-09T23:28:02Z</time>
      </trkpt>
      <trkpt lat="46.4873" lon="5.393">
        <ele>404</ele>
        <time>2019-02-09T23:29:02Z</time>
      </trkpt>
      <trkpt lat="46.48725" lon="5.39305">
        <ele>405</ele>
        <time>2019-02-09T23:30:02Z</time>
      </trkpt>
      <trkpt lat="46.48719" lon="5.39306">
        <ele>406</ele>
        <time>2019-02-09T23:31:02Z</time>
      </trkpt>
      <trkpt lat="46.48712" lon="5.39303">
        <ele>407</ele>
        <time>2019-02-09T23:32:02Z</time>
      </trkpt>
      <trkpt lat="46.487" lon="5.39295">
        <ele>408</ele>
        <time>2019-02-09T23:33:02Z</time>
      </trkpt>
      <trkpt lat="46.48685" lon="5.39284">
        <ele>409</ele>
        <time>2019-02-09T23:38:02Z</time>
      </trkpt>
      <trkpt lat="46.48671" lon="5.39279">
        <ele>410</ele>
        <time>2019-02-09T23:39:02Z</time>
      </trkpt>
      <trkpt lat="46.48656" lon="5.39275">
        <ele>410</ele>
        <time>2019-02-09T23:40:02Z</time>
      </trkpt>
      <trkpt lat="46.4864" lon="5.39274">
        <ele>412</ele>
        <time>2019-02-09T23:41:02Z</time>
      </trkpt>
      <trkpt lat="46.48617" lon="5.39276">
        <ele>414</ele>
        <time>2019-02-09T23:42:02Z</time>
      </trkpt>
      <trkpt lat="46.48588" lon="5.39282">
        <ele>418</ele>
        <time>2019-02-09T23:43:02Z</time>
      </trkpt>
      <trkpt lat="46.48557" lon="5.39288">
        <ele>422</ele>
        <time>2019-02-09T23:44:02Z</time>
      </trkpt>
      <trkpt lat="46.48526" lon="5.39295">
        <ele>426</ele>
        <time>2019-02-09T23:45:02Z</time>
      </trkpt>
      <trkpt lat="46.48473" lon="5.39307">
        <ele>431</ele>
        <time>2019-02-09T23:46:02Z</time>
      </trkpt>
      <trkpt lat="46.48442" lon="5.39315">
        <ele>434</ele>
        <time>2019-02-09T23:47:02Z</time>
      </trkpt>
      <trkpt lat="46.48428" lon="5.39323">
        <ele>433.8</ele>
        <time>2019-02-09T23:48:02Z</time>
      </trkpt>
      <trkpt lat="46.48412" lon="5.39322">
        <ele>434.5</ele>
        <time>2019-02-09T23:49:02Z</time>
      </trkpt>
      <trkpt lat="46.48399" lon="5.3932">
        <ele>432.5</ele>
        <time>2019-02-09T23:50:02Z</time>
      </trkpt>
      <trkpt lat="46.48392" lon="5.39317">
        <ele>431.5</ele>
        <time>2019-02-09T23:51:02Z</time>
      </trkpt>
      <trkpt lat="46.48375" lon="5.39315">
        <ele>433</ele>
        <time>2019-02-09T23:52:02Z</time>
      </trkpt>
      <trkpt lat="46.48368" lon="5.39315">
        <ele>433</ele>
        <time>2019-02-09T23:53:02Z</time>
      </trkpt>
      <trkpt lat="46.48361" lon="5.39316">
        <ele>433</ele>
        <time>2019-02-09T23:54:02Z</time>
      </trkpt>
      <trkpt lat="46.4835" lon="5.39323">
        <ele>434</ele>
        <time>2019-02-09T23:55:02Z</time>
      </trkpt>
      <trkpt lat="46.4833" lon="5.39349">
        <ele>438</ele>
        <time>2019-02-09T23:56:02Z</time>
      </trkpt>
      <trkpt lat="46.48329" lon="5.39351">
        <ele>438</ele>
        <time>2019-02-09T23:57:02Z</time>
      </trkpt>
      <trkpt lat="46.48311" lon="5.39382">
        <ele>440</ele>
        <time>2019-02-09T23:58:02Z</time>
      </trkpt>
      <trkpt lat="46.48299" lon="5.39429">
        <ele>448</ele>
        <time>2019-02-09T23:59:02Z</time>
      </trkpt>
      <trkpt lat="46.48292" lon="5.39451">
        <ele>451</ele>
        <time>2019-02-10T00:00:02Z</time>
      </trkpt>
      <trkpt lat="46.48289" lon="5.39457">
        <ele>451</ele>
        <time>2019-02-10T00:01:02Z</time>
      </trkpt>
      <trkpt lat="46.48285" lon="5.39462">
        <ele>452</ele>
        <time>2019-02-10T00:02:02Z</time>
      </trkpt>
      <trkpt lat="46.48283" lon="5.39463">
        <ele>451</ele>
        <time>2019-02-10T00:03:02Z</time>
      </trkpt>
      <trkpt lat="46.48275" lon="5.39463">
        <ele>451</ele>
        <time>2019-02-10T00:04:02Z</time>
      </trkpt>
      <trkpt lat="46.48268" lon="5.39463">
        <ele>450</ele>
        <time>2019-02-10T00:05:02Z</time>
      </trkpt>
      <trkpt lat="46.48261" lon="5.39462">
        <ele>449</ele>
        <time>2019-02-10T00:06:02Z</time>
      </trkpt>
      <trkpt lat="46.48254" lon="5.39463">
        <ele>448</ele>
        <time>2019-02-10T00:07:02Z</time>
      </trkpt>
      <trkpt lat="46.48252" lon="5.39465">
        <ele>448</ele>
        <time>2019-02-10T00:08:02Z</time>
      </trkpt>
      <trkpt lat="46.48249" lon="5.39466">
        <ele>448</ele>
        <time>2019-02-10T00:09:02Z</time>
      </trkpt>
      <trkpt lat="46.4824" lon="5.39475">
        <ele>448</ele>
        <time>2019-02-10T00:10:02Z</time>
      </trkpt>
      <trkpt lat="46.48233" lon="5.39484">
        <ele>449</ele>
        <time>2019-02-10T00:11:02Z</time>
      </trkpt>
      <trkpt lat="46.48229" lon="5.39488">
        <ele>449</ele>
        <time>2019-02-10T00:12:02Z</time>
      </trkpt>
      <trkpt lat="46.48223" lon="5.39503">
        <ele>451</ele>
        <time>2019-02-10T00:13:02Z</time>
      </trkpt>
      <trkpt lat="46.48217" lon="5.39521">
        <ele>452</ele>
        <time>2019-02-10T00:14:02Z</time>
      </trkpt>
      <trkpt lat="46.48212" lon="5.39555">
        <ele>455</ele>
        <time>2019-02-10T00:15:02Z</time>
      </trkpt>
      <trkpt lat="46.48206" lon="5.39581">
        <ele>457</ele>
        <time>2019-02-10T00:16:02Z</time>
      </trkpt>
      <trkpt lat="46.48197" lon="5.39604">
        <ele>458</ele>
        <time>2019-02-10T00:17:02Z</time>
      </trkpt>
      <trkpt lat="46.48184" lon="5.39631">
        <ele>459</ele>
        <time>2019-02-10T00:18:02Z</time>
      </trkpt>
      <trkpt lat="46.48178" lon="5.39653">
        <ele>461</ele>
        <time>2019-02-10T00:19:02Z</time>
      </trkpt>
      <trkpt lat="46.48175" lon="5.39672">
        <ele>462</ele>
        <time>2019-02-10T00:20:02Z</time>
      </trkpt>
      <trkpt lat="46.48175" lon="5.39693">
        <ele>462</ele>
        <time>2019-02-10T00:21:02Z</time>
      </trkpt>
      <trkpt lat="46.48178" lon="5.39724">
        <ele>463</ele>
        <time>2019-02-10T00:22:02Z</time>
      </trkpt>
      <trkpt lat="46.48188" lon="5.39787">
        <ele>465</ele>
        <time>2019-02-10T00:23:02Z</time>
      </trkpt>
      <trkpt lat="46.48196" lon="5.39831">
        <ele>466</ele>
        <time>2019-02-10T00:24:02Z</time>
      </trkpt>
      <trkpt lat="46.48196" lon="5.3984">
        <ele>467</ele>
        <time>2019-02-10T00:25:02Z</time>
      </trkpt>
      <trkpt lat="46.48196" lon="5.39848">
        <ele>468</ele>
        <time>2019-02-10T00:26:02Z</time>
      </trkpt>
      <trkpt lat="46.48194" lon="5.39852">
        <ele>468</ele>
        <time>2019-02-10T00:27:02Z</time>
      </trkpt>
      <trkpt lat="46.48191" lon="5.39859">
        <ele>468</ele>
        <time>2019-02-10T00:28:02Z</time>
      </trkpt>
      <trkpt lat="46.48186" lon="5.39865">
        <ele>468</ele>
        <time>2019-02-10T00:29:02Z</time>
      </trkpt>
      <trkpt lat="46.4818" lon="5.3987">
        <ele>468</ele>
        <time>2019-02-10T00:30:02Z</time>
      </trkpt>
      <trkpt lat="46.48164" lon="5.39882">
        <ele>468</ele>
        <time>2019-02-10T00:31:02Z</time>
      </trkpt>
      <trkpt lat="46.48155" lon="5.39887">
        <ele>468</ele>
        <time>2019-02-10T00:32:02Z</time>
      </trkpt>
      <trkpt lat="46.48145" lon="5.39893">
        <ele>468</ele>
        <time>2019-02-10T00:33:02Z</time>
      </trkpt>
      <trkpt lat="46.48134" lon="5.39898">
        <ele>468</ele>
        <time>2019-02-10T00:34:02Z</time>
      </trkpt>
      <trkpt lat="46.48121" lon="5.39905">
        <ele>468</ele>
        <time>2019-02-10T00:35:02Z</time>
      </trkpt>
      <trkpt lat="46.48102" lon="5.39908">
        <ele>467</ele>
        <time>2019-02-10T00:36:02Z</time>
      </trkpt>
      <trkpt lat="46.48093" lon="5.39909">
        <ele>467</ele>
        <time>2019-02-10T00:37:02Z</time>
      </trkpt>
      <trkpt lat="46.48078" lon="5.39909">
        <ele>466</ele>
        <time>2019-02-10T00:38:02Z</time>
      </trkpt>
      <trkpt lat="46.48069" lon="5.39908">
        <ele>466</ele>
        <time>2019-02-10T00:39:02Z</time>
      </trkpt>
      <trkpt lat="46.48062" lon="5.39906">
        <ele>466</ele>
        <time>2019-02-10T00:40:02Z</time>
      </trkpt>
      <trkpt lat="46.48055" lon="5.39902">
        <ele>466</ele>
        <time>2019-02-10T00:41:02Z</time>
      </trkpt>
      <trkpt lat="46.4804" lon="5.39893">
        <ele>465</ele>
        <time>2019-02-10T00:42:02Z</time>
      </trkpt>
      <trkpt lat="46.48021" lon="5.39881">
        <ele>464</ele>
        <time>2019-02-10T00:43:02Z</time>
      </trkpt>
      <trkpt lat="46.48007" lon="5.39883">
        <ele>465</ele>
        <time>2019-02-10T00:44:02Z</time>
      </trkpt>
      <trkpt lat="46.47997" lon="5.39885">
        <ele>465</ele>
        <time>2019-02-10T00:45:02Z</time>
      </trkpt>
      <trkpt lat="46.47988" lon="5.39889">
        <ele>465</ele>
        <time>2019-02-10T00:46:02Z</time>
      </trkpt>
      <trkpt lat="46.47981" lon="5.39892">
        <ele>465</ele>
        <time>2019-02-10T00:47:02Z</time>
      </trkpt>
      <trkpt lat="46.47942" lon="5.39913">
        <ele>466</ele>
        <time>2019-02-10T00:48:02Z</time>
      </trkpt>
      <trkpt lat="46.47834" lon="5.39972">
        <ele>471</ele>
        <time>2019-02-10T00:49:02Z</time>
      </trkpt>
      <trkpt lat="46.47777" lon="5.4">
        <ele>474</ele>
        <time>2019-02-10T00:50:02Z</time>
      </trkpt>
      <trkpt lat="46.47769" lon="5.40007">
        <ele>474</ele>
        <time>2019-02-10T00:51:02Z</time>
      </trkpt>
      <trkpt lat="46.47765" lon="5.40013">
        <ele>475</ele>
        <time>2019-02-10T00:52:02Z</time>
      </trkpt>
      <trkpt lat="46.47762" lon="5.40022">
        <ele>475</ele>
        <time>2019-02-10T00:53:02Z</time>
      </trkpt>
      <trkpt lat="46.47761" lon="5.40036">
        <ele>477</ele>
        <time>2019-02-10T00:54:02Z</time>
      </trkpt>
      <trkpt lat="46.47761" lon="5.40044">
        <ele>478</ele>
        <time>2019-02-10T00:55:02Z</time>
      </trkpt>
      <trkpt lat="46.47761" lon="5.40051">
        <ele>478</ele>
        <time>2019-02-10T00:56:02Z</time>
      </trkpt>
      <trkpt lat="46.47762" lon="5.40058">
        <ele>479</ele>
        <time>2019-02-10T00:57:02Z</time>
      </trkpt>
      <trkpt lat="46.47763" lon="5.40068">
        <ele>480</ele>
        <time>2019-02-10T00:58:02Z</time>
      </trkpt>
      <trkpt lat="46.47763" lon="5.40073">
        <ele>481</ele>
        <time>2019-02-10T00:59:02Z</time>
      </trkpt>
      <trkpt lat="46.47763" lon="5.40084">
        <ele>482</ele>
        <time>2019-02-10T01:00:02Z</time>
      </trkpt>
      <trkpt lat="46.47761" lon="5.40095">
        <ele>483</ele>
        <time>2019-02-10T01:01:02Z</time>
      </trkpt>
      <trkpt lat="46.47757" lon="5.40113">
        <ele>485</ele>
        <time>2019-02-10T01:02:02Z</time>
      </trkpt>
      <trkpt lat="46.47751" lon="5.4013">
        <ele>486</ele>
        <time>2019-02-10T01:03:02Z</time>
      </trkpt>
      <trkpt lat="46.47746" lon="5.40141">
        <ele>487</ele>
        <time>2019-02-10T01:04:02Z</time>
      </trkpt>
      <trkpt lat="46.47742" lon="5.40148">
        <ele>487</ele>
        <time>2019-02-10T01:05:02Z</time>
      </trkpt>
      <trkpt lat="46.47739" lon="5.40151">
        <ele>487</ele>
        <time>2019-02-10T01:06:02Z</time>
      </trkpt>
      <trkpt lat="46.47732" lon="5.40156">
        <ele>486</ele>
        <time>2019-02-10T01:07:02Z</time>
      </trkpt>
      <trkpt lat="46.47727" lon="5.40161">
        <ele>486</ele>
        <time>2019-02-10T01:08:02Z</time>
      </trkpt>
      <trkpt lat="46.47722" lon="5.40166">
        <ele>486</ele>
        <time>2019-02-10T01:09:02Z</time>
      </trkpt>
      <trkpt lat="46.47721" lon="5.40168">
        <ele>486</ele>
        <time>2019-02-10T01:10:02Z</time>
      </trkpt>
      <trkpt lat="46.47717" lon="5.40176">
        <ele>486</ele>
        <time>2019-02-10T01:11:02Z</time>
      </trkpt>
      <trkpt lat="46.47714" lon="5.40185">
        <ele>487</ele>
        <time>2019-02-10T01:12:02Z</time>
      </trkpt>
      <trkpt lat="46.47711" lon="5.40195">
        <ele>488</ele>
        <time>2019-02-10T01:13:02Z</time>
      </trkpt>
      <trkpt lat="46.47707" lon="5.4021">
        <ele>490</ele>
        <time>2019-02-10T01:14:02Z</time>
      </trkpt>
      <trkpt lat="46.47704" lon="5.4022">
        <ele>492</ele>
        <time>2019-02-10T01:15:02Z</time>
      </trkpt>
      <trkpt lat="46.477" lon="5.40227">
        <ele>492</ele>
        <time>2019-02-10T01:16:02Z</time>
      </trkpt>
      <trkpt lat="46.47695" lon="5.40233">
        <ele>493</ele>
        <time>2019-02-10T01:17:02Z</time>
      </trkpt>
      <trkpt lat="46.47691" lon="5.40238">
        <ele>493</ele>
        <time>2019-02-10T01:18:02Z</time>
      </trkpt>
      <trkpt lat="46.47684" lon="5.40242">
        <ele>493</ele>
        <time>2019-02-10T01:19:02Z</time>
      </trkpt>
      <trkpt lat="46.47678" lon="5.40245">
        <ele>493</ele>
        <time>2019-02-10T01:20:02Z</time>
      </trkpt>
      <trkpt lat="46.47673" lon="5.40245">
        <ele>493</ele>
        <time>2019-02-10T01:21:02Z</time>
      </trkpt>
      <trkpt lat="46.47666" lon="5.40245">
        <ele>492</ele>
        <time>2019-02-10T01:22:02Z</time>
      </trkpt>
      <trkpt lat="46.47661" lon="5.40245">
        <ele>492</ele>
        <time>2019-02-10T01:23:02Z</time>
      </trkpt>
      <trkpt lat="46.47654" lon="5.40244">
        <ele>492</ele>
        <time>2019-02-10T01:24:02Z</time>
      </trkpt>
      <trkpt lat="46.47647" lon="5.40244">
        <ele>492</ele>
        <time>2019-02-10T01:25:02Z</time>
      </trkpt>
      <trkpt lat="46.47634" lon="5.40245">
        <ele>492</ele>
        <time>2019-02-10T01:26:02Z</time>
      </trkpt>
      <trkpt lat="46.4762" lon="5.40248">
        <ele>493</ele>
        <time>2019-02-10T01:27:02Z</time>
      </trkpt>
      <trkpt lat="46.47608" lon="5.40251">
        <ele>493</ele>
        <time>2019-02-10T01:28:02Z</time>
      </trkpt>
      <trkpt lat="46.4757" lon="5.40261">
        <ele>494</ele>
        <time>2019-02-10T01:29:02Z</time>
      </trkpt>
      <trkpt lat="46.47564" lon="5.40264">
        <ele>494</ele>
        <time>2019-02-10T01:30:02Z</time>
      </trkpt>
      <trkpt lat="46.47558" lon="5.40269">
        <ele>495</ele>
        <time>2019-02-10T01:31:02Z</time>
      </trkpt>
      <trkpt lat="46.47545" lon="5.40284">
        <ele>496</ele>
        <time>2019-02-10T01:32:02Z</time>
      </trkpt>
      <trkpt lat="46.47533" lon="5.40303">
        <ele>498</ele>
        <time>2019-02-10T01:33:02Z</time>
      </trkpt>
      <trkpt lat="46.47525" lon="5.40321">
        <ele>499</ele>
        <time>2019-02-10T01:34:02Z</time>
      </trkpt>
      <trkpt lat="46.47521" lon="5.40335">
        <ele>501</ele>
        <time>2019-02-10T01:35:02Z</time>
      </trkpt>
      <trkpt lat="46.47521" lon="5.40344">
        <ele>501</ele>
        <time>2019-02-10T01:36:02Z</time>
      </trkpt>
      <trkpt lat="46.47521" lon="5.40354">
        <ele>502</ele>
        <time>2019-02-10T01:37:02Z</time>
      </trkpt>
      <trkpt lat="46.47523" lon="5.40363">
        <ele>503</ele>
        <time>2019-02-10T01:38:02Z</time>
      </trkpt>
      <trkpt lat="46.47537" lon="5.40399">
        <ele>508</ele>
        <time>2019-02-10T01:39:02Z</time>
      </trkpt>
      <trkpt lat="46.4754" lon="5.40414">
        <ele>510</ele>
        <time>2019-02-10T01:40:02Z</time>
      </trkpt>
      <trkpt lat="46.47541" lon="5.40426">
        <ele>511</ele>
        <time>2019-02-10T01:41:02Z</time>
      </trkpt>
      <trkpt lat="46.47541" lon="5.40443">
        <ele>512</ele>
        <time>2019-02-10T01:42:02Z</time>
      </trkpt>
      <trkpt lat="46.47537" lon="5.40467">
        <ele>513</ele>
        <time>2019-02-10T01:43:02Z</time>
      </trkpt>
      <trkpt lat="46.47533" lon="5.40477">
        <ele>513</ele>
        <time>2019-02-10T01:44:02Z</time>
      </trkpt>
      <trkpt lat="46.4753" lon="5.40481">
        <ele>513</ele>
        <time>2019-02-10T01:45:02Z</time>
      </trkpt>
      <trkpt lat="46.47527" lon="5.40483">
        <ele>513</ele>
        <time>2019-02-10T01:46:02Z</time>
      </trkpt>
      <trkpt lat="46.47522" lon="5.40485">
        <ele>513</ele>
        <time>2019-02-10T01:47:02Z</time>
      </trkpt>
      <trkpt lat="46.47517" lon="5.40484">
        <ele>513</ele>
        <time>2019-02-10T01:48:02Z</time>
      </trkpt>
      <trkpt lat="46.4751" lon="5.40477">
        <ele>512</ele>
        <time>2019-02-10T01:49:02Z</time>
      </trkpt>
      <trkpt lat="46.47504" lon="5.40469">
        <ele>510</ele>
        <time>2019-02-10T01:50:02Z</time>
      </trkpt>
      <trkpt lat="46.47498" lon="5.40462">
        <ele>510</ele>
        <time>2019-02-10T01:51:02Z</time>
      </trkpt>
      <trkpt lat="46.47492" lon="5.40457">
        <ele>510</ele>
        <time>2019-02-10T01:52:02Z</time>
      </trkpt>
      <trkpt lat="46.47483" lon="5.40453">
        <ele>510</ele>
        <time>2019-02-10T01:53:02Z</time>
      </trkpt>
      <trkpt lat="46.47476" lon="5.4045">
        <ele>510</ele>
        <time>2019-02-10T01:54:02Z</time>
      </trkpt>
      <trkpt lat="46.47472" lon="5.40449">
        <ele>510</ele>
        <time>2019-02-10T01:55:02Z</time>
      </trkpt>
      <trkpt lat="46.47462" lon="5.40449">
        <ele>511</ele>
        <time>2019-02-10T01:56:02Z</time>
      </trkpt>
      <trkpt lat="46.47449" lon="5.40448">
        <ele>512</ele>
        <time>2019-02-10T01:57:02Z</time>
      </trkpt>
      <trkpt lat="46.47433" lon="5.40448">
        <ele>514</ele>
        <time>2019-02-10T01:58:02Z</time>
      </trkpt>
      <trkpt lat="46.47414" lon="5.40449">
        <ele>515</ele>
        <time>2019-02-10T01:59:02Z</time>
      </trkpt>
      <trkpt lat="46.47385" lon="5.40451">
        <ele>517</ele>
        <time>2019-02-10T02:00:02Z</time>
      </trkpt>
      <trkpt lat="46.47371" lon="5.4045">
        <ele>517</ele>
        <time>2019-02-10T02:01:02Z</time>
      </trkpt>
      <trkpt lat="46.4733" lon="5.40446">
        <ele>518</ele>
        <time>2019-02-10T02:02:02Z</time>
      </trkpt>
      <trkpt lat="46.47296" lon="5.4044">
        <ele>523</ele>
        <time>2019-02-10T02:03:02Z</time>
      </trkpt>
      <trkpt lat="46.47293" lon="5.40439">
        <ele>523</ele>
        <time>2019-02-10T02:04:02Z</time>
      </trkpt>
      <trkpt lat="46.47282" lon="5.40434">
        <ele>524</ele>
        <time>2019-02-10T02:05:02Z</time>
      </trkpt>
      <trkpt lat="46.4727" lon="5.4043">
        <ele>525</ele>
        <time>2019-02-10T02:06:02Z</time>
      </trkpt>
      <trkpt lat="46.47256" lon="5.40423">
        <ele>526</ele>
        <time>2019-02-10T02:07:02Z</time>
      </trkpt>
      <trkpt lat="46.47243" lon="5.40414">
        <ele>527</ele>
        <time>2019-02-10T02:08:02Z</time>
      </trkpt>
      <trkpt lat="46.47232" lon="5.40404">
        <ele>528</ele>
        <time>2019-02-10T02:09:02Z</time>
      </trkpt>
      <trkpt lat="46.47224" lon="5.40394">
        <ele>528</ele>
        <time>2019-02-10T02:10:02Z</time>
      </trkpt>
      <trkpt lat="46.47219" lon="5.40387">
        <ele>527</ele>
        <time>2019-02-10T02:11:02Z</time>
      </trkpt>
      <trkpt lat="46.4721" lon="5.40374">
        <ele>527</ele>
        <time>2019-02-10T02:12:02Z</time>
      </trkpt>
      <trkpt lat="46.47205" lon="5.40367">
        <ele>526</ele>
        <time>2019-02-10T02:13:02Z</time>
      </trkpt>
      <trkpt lat="46.47194" lon="5.40358">
        <ele>527</ele>
        <time>2019-02-10T02:14:02Z</time>
      </trkpt>
      <trkpt lat="46.4719" lon="5.40354">
        <ele>526</ele>
        <time>2019-02-10T02:15:02Z</time>
      </trkpt>
      <trkpt lat="46.47177" lon="5.40348">
        <ele>527</ele>
        <time>2019-02-10T02:16:02Z</time>
      </trkpt>
      <trkpt lat="46.4716" lon="5.40341">
        <ele>528</ele>
        <time>2019-02-10T02:17:02Z</time>
      </trkpt>
      <trkpt lat="46.47145" lon="5.40337">
        <ele>528</ele>
        <time>2019-02-10T02:18:02Z</time>
      </trkpt>
      <trkpt lat="46.47117" lon="5.4033">
        <ele>528</ele>
        <time>2019-02-10T02:19:02Z</time>
      </trkpt>
      <trkpt lat="46.47083" lon="5.40326">
        <ele>529</ele>
        <time>2019-02-10T02:20:02Z</time>
      </trkpt>
      <trkpt lat="46.47044" lon="5.40324">
        <ele>529</ele>
        <time>2019-02-10T02:21:02Z</time>
      </trkpt>
      <trkpt lat="46.47021" lon="5.40322">
        <ele>530</ele>
        <time>2019-02-10T02:22:02Z</time>
      </trkpt>
      <trkpt lat="46.47008" lon="5.40319">
        <ele>530</ele>
        <time>2019-02-10T02:23:02Z</time>
      </trkpt>
      <trkpt lat="46.46994" lon="5.40315">
        <ele>529</ele>
        <time>2019-02-10T02:24:02Z</time>
      </trkpt>
      <trkpt lat="46.46976" lon="5.40309">
        <ele>528</ele>
        <time>2019-02-10T02:25:02Z</time>
      </trkpt>
      <trkpt lat="46.46971" lon="5.40307">
        <ele>527</ele>
        <time>2019-02-10T02:26:02Z</time>
      </trkpt>
      <trkpt lat="46.46964" lon="5.40304">
        <ele>527</ele>
        <time>2019-02-10T02:27:02Z</time>
      </trkpt>
      <trkpt lat="46.46915" lon="5.40279">
        <ele>527</ele>
        <time>2019-02-10T02:28:02Z</time>
      </trkpt>
      <trkpt lat="46.46915" lon="5.40279">
        <ele>527</ele>
        <time>2019-02-10T02:29:02Z</time>
      </trkpt>
      <trkpt lat="46.46914" lon="5.40279">
        <ele>527</ele>
        <time>2019-02-10T02:30:02Z</time>
      </trkpt>
      <trkpt lat="46.46904" lon="5.40274">
        <ele>526</ele>
        <time>2019-02-10T02:31:02Z</time>
      </trkpt>
      <trkpt lat="46.46891" lon="5.40266">
        <ele>526</ele>
        <time>2019-02-10T02:32:02Z</time>
      </trkpt>
      <trkpt lat="46.46841" lon="5.40242">
        <ele>524</ele>
        <time>2019-02-10T02:33:02Z</time>
      </trkpt>
      <trkpt lat="46.46816" lon="5.40229">
        <ele>523</ele>
        <time>2019-02-10T02:34:02Z</time>
      </trkpt>
      <trkpt lat="46.46773" lon="5.40206">
        <ele>519</ele>
        <time>2019-02-10T02:35:02Z</time>
      </trkpt>
      <trkpt lat="46.46731" lon="5.40184">
        <ele>517</ele>
        <time>2019-02-10T02:36:02Z</time>
      </trkpt>
      <trkpt lat="46.46704" lon="5.40171">
        <ele>515</ele>
        <time>2019-02-10T02:37:02Z</time>
      </trkpt>
      <trkpt lat="46.46673" lon="5.40157">
        <ele>512</ele>
        <time>2019-02-10T02:38:02Z</time>
      </trkpt>
      <trkpt lat="46.46647" lon="5.40142">
        <ele>510</ele>
        <time>2019-02-10T02:39:02Z</time>
      </trkpt>
      <trkpt lat="46.4663" lon="5.40133">
        <ele>508</ele>
        <time>2019-02-10T02:40:02Z</time>
      </trkpt>
      <trkpt lat="46.46605" lon="5.40121">
        <ele>506</ele>
        <time>2019-02-10T02:41:02Z</time>
      </trkpt>
      <trkpt lat="46.46568" lon="5.40102">
        <ele>504</ele>
        <time>2019-02-10T02:42:02Z</time>
      </trkpt>
      <trkpt lat="46.46538" lon="5.40086">
        <ele>504</ele>
        <time>2019-02-10T02:43:02Z</time>
      </trkpt>
      <trkpt lat="46.46522" lon="5.40078">
        <ele>504</ele>
        <time>2019-02-10T02:44:02Z</time>
      </trkpt>
      <trkpt lat="46.46503" lon="5.40068">
        <ele>504</ele>
        <time>2019-02-10T02:45:02Z</time>
      </trkpt>
      <trkpt lat="46.46492" lon="5.40068">
        <ele>504</ele>
        <time>2019-02-10T02:46:02Z</time>
      </trkpt>
      <trkpt lat="46.4648" lon="5.40068">
        <ele>504</ele>
        <time>2019-02-10T02:47:02Z</time>
      </trkpt>
      <trkpt lat="46.4646" lon="5.4007">
        <ele>504</ele>
        <time>2019-02-10T02:48:02Z</time>
      </trkpt>
      <trkpt lat="46.46442" lon="5.40073">
        <ele>503</ele>
        <time>2019-02-10T02:49:02Z</time>
      </trkpt>
      <trkpt lat="46.46415" lon="5.40079">
        <ele>503</ele>
        <time>2019-02-10T02:50:02Z</time>
      </trkpt>
      <trkpt lat="46.46383" lon="5.40084">
        <ele>501</ele>
        <time>2019-02-10T02:51:02Z</time>
      </trkpt>
      <trkpt lat="46.46357" lon="5.40088">
        <ele>499</ele>
        <time>2019-02-10T02:52:02Z</time>
      </trkpt>
      <trkpt lat="46.46339" lon="5.40091">
        <ele>498</ele>
        <time>2019-02-10T02:53:02Z</time>
      </trkpt>
      <trkpt lat="46.46328" lon="5.40093">
        <ele>497</ele>
        <time>2019-02-10T02:54:02Z</time>
      </trkpt>
      <trkpt lat="46.46311" lon="5.40093">
        <ele>496</ele>
        <time>2019-02-10T02:55:02Z</time>
      </trkpt>
      <trkpt lat="46.46289" lon="5.4009">
        <ele>495</ele>
        <time>2019-02-10T02:56:02Z</time>
      </trkpt>
      <trkpt lat="46.46268" lon="5.40089">
        <ele>494</ele>
        <time>2019-02-10T02:57:02Z</time>
      </trkpt>
      <trkpt lat="46.46259" lon="5.4009">
        <ele>493</ele>
        <time>2019-02-10T02:58:02Z</time>
      </trkpt>
      <trkpt lat="46.46251" lon="5.40094">
        <ele>493</ele>
        <time>2019-02-10T02:59:02Z</time>
      </trkpt>
      <trkpt lat="46.46245" lon="5.40098">
        <ele>492</ele>
        <time>2019-02-10T03:00:02Z</time>
      </trkpt>
      <trkpt lat="46.46227" lon="5.40115">
        <ele>492</ele>
        <time>2019-02-10T03:01:02Z</time>
      </trkpt>
      <trkpt lat="46.46212" lon="5.40131">
        <ele>493</ele>
        <time>2019-02-10T03:02:02Z</time>
      </trkpt>
      <trkpt lat="46.46206" lon="5.40136">
        <ele>493</ele>
        <time>2019-02-10T03:08:02Z</time>
      </trkpt>
      <trkpt lat="46.462" lon="5.40138">
        <ele>493</ele>
        <time>2019-02-10T03:09:02Z</time>
      </trkpt>
      <trkpt lat="46.46192" lon="5.40137">
        <ele>494</ele>
        <time>2019-02-10T03:10:02Z</time>
      </trkpt>
      <trkpt lat="46.46192" lon="5.40137">
        <ele>494</ele>
        <time>2019-02-10T03:11:02Z</time>
      </trkpt>
      <trkpt lat="46.46194" lon="5.40125">
        <ele>493</ele>
        <time>2019-02-10T03:12:02Z</time>
      </trkpt>
      <trkpt lat="46.46194" lon="5.4011">
        <ele>493</ele>
        <time>2019-02-10T03:13:02Z</time>
      </trkpt>
      <trkpt lat="46.46194" lon="5.40098">
        <ele>493</ele>
        <time>2019-02-10T03:14:02Z</time>
      </trkpt>
      <trkpt lat="46.46192" lon="5.40084">
        <ele>492</ele>
        <time>2019-02-10T03:15:02Z</time>
      </trkpt>
      <trkpt lat="46.46189" lon="5.40068">
        <ele>492</ele>
        <time>2019-02-10T03:16:02Z</time>
      </trkpt>
      <trkpt lat="46.46185" lon="5.40055">
        <ele>492</ele>
        <time>2019-02-10T03:17:02Z</time>
      </trkpt>
      <trkpt lat="46.4618" lon="5.40042">
        <ele>492</ele>
        <time>2019-02-10T03:18:02Z</time>
      </trkpt>
      <trkpt lat="46.46175" lon="5.40032">
        <ele>492</ele>
        <time>2019-02-10T03:19:02Z</time>
      </trkpt>
      <trkpt lat="46.46169" lon="5.40023">
        <ele>492</ele>
        <time>2019-02-10T03:20:02Z</time>
      </trkpt>
      <trkpt lat="46.46163" lon="5.40016">
        <ele>492</ele>
        <time>2019-02-10T03:21:02Z</time>
      </trkpt>
      <trkpt lat="46.46149" lon="5.4">
        <ele>491.6</ele>
        <time>2019-02-10T03:22:02Z</time>
      </trkpt>
      <trkpt lat="46.46134" lon="5.39987">
        <ele>491.7</ele>
        <time>2019-02-10T03:23:02Z</time>
      </trkpt>
      <trkpt lat="46.46112" lon="5.39968">
        <ele>491.6</ele>
        <time>2019-02-10T03:24:02Z</time>
      </trkpt>
      <trkpt lat="46.46083" lon="5.39943">
        <ele>490.9</ele>
        <time>2019-02-10T03:25:02Z</time>
      </trkpt>
      <trkpt lat="46.46059" lon="5.39925">
        <ele>490.9</ele>
        <time>2019-02-10T03:26:02Z</time>
      </trkpt>
      <trkpt lat="46.46042" lon="5.39911">
        <ele>491</ele>
        <time>2019-02-10T03:27:02Z</time>
      </trkpt>
      <trkpt lat="46.46012" lon="5.39886">
        <ele>491</ele>
        <time>2019-02-10T03:28:02Z</time>
      </trkpt>
      <trkpt lat="46.4597" lon="5.3985">
        <ele>490</ele>
        <time>2019-02-10T03:29:02Z</time>
      </trkpt>
      <trkpt lat="46.4594" lon="5.39826">
        <ele>489</ele>
        <time>2019-02-10T03:30:02Z</time>
      </trkpt>
      <trkpt lat="46.45913" lon="5.39804">
        <ele>489</ele>
        <time>2019-02-10T03:31:02Z</time>
      </trkpt>
      <trkpt lat="46.45883" lon="5.39778">
        <ele>488</ele>
        <time>2019-02-10T03:32:02Z</time>
      </trkpt>
      <trkpt lat="46.45847" lon="5.39744">
        <ele>486</ele>
        <time>2019-02-10T03:33:02Z</time>
      </trkpt>
      <trkpt lat="46.45828" lon="5.3973">
        <ele>485</ele>
        <time>2019-02-10T03:34:02Z</time>
      </trkpt>
      <trkpt lat="46.45813" lon="5.39717">
        <ele>484</ele>
        <time>2019-02-10T03:35:02Z</time>
      </trkpt>
      <trkpt lat="46.458" lon="5.39703">
        <ele>484</ele>
        <time>2019-02-10T03:36:02Z</time>
      </trkpt>
      <trkpt lat="46.45792" lon="5.39693">
        <ele>484</ele>
        <time>2019-02-10T03:37:02Z</time>
      </trkpt>
      <trkpt lat="46.45782" lon="5.39678">
        <ele>485</ele>
        <time>2019-02-10T03:38:02Z</time>
      </trkpt>
      <trkpt lat="46.45773" lon="5.39658">
        <ele>485</ele>
        <time>2019-02-10T03:39:02Z</time>
      </trkpt>
      <trkpt lat="46.4577" lon="5.39647">
        <ele>484</ele>
        <time>2019-02-10T03:40:02Z</time>
      </trkpt>
      <trkpt lat="46.45766" lon="5.3963">
        <ele>484</ele>
        <time>2019-02-10T03:41:02Z</time>
      </trkpt>
      <trkpt lat="46.45763" lon="5.39615">
        <ele>484</ele>
        <time>2019-02-10T03:42:02Z</time>
      </trkpt>
      <trkpt lat="46.45762" lon="5.39601">
        <ele>484</ele>
        <time>2019-02-10T03:43:02Z</time>
      </trkpt>
      <trkpt lat="46.45762" lon="5.39588">
        <ele>484</ele>
        <time>2019-02-10T03:44:02Z</time>
      </trkpt>
      <trkpt lat="46.45762" lon="5.39576">
        <ele>483</ele>
        <time>2019-02-10T03:45:02Z</time>
      </trkpt>
      <trkpt lat="46.45762" lon="5.39567">
        <ele>483</ele>
        <time>2019-02-10T03:46:02Z</time>
      </trkpt>
      <trkpt lat="46.45764" lon="5.39555">
        <ele>482</ele>
        <time>2019-02-10T03:47:02Z</time>
      </trkpt>
      <trkpt lat="46.45766" lon="5.39537">
        <ele>481</ele>
        <time>2019-02-10T03:48:02Z</time>
      </trkpt>
      <trkpt lat="46.4577" lon="5.39516">
        <ele>480</ele>
        <time>2019-02-10T03:49:02Z</time>
      </trkpt>
      <trkpt lat="46.45772" lon="5.39498">
        <ele>480</ele>
        <time>2019-02-10T03:50:02Z</time>
      </trkpt>
      <trkpt lat="46.45773" lon="5.39479">
        <ele>479</ele>
        <time>2019-02-10T03:51:02Z</time>
      </trkpt>
      <trkpt lat="46.45773" lon="5.39468">
        <ele>479</ele>
        <time>2019-02-10T03:52:02Z</time>
      </trkpt>
      <trkpt lat="46.45773" lon="5.39455">
        <ele>478</ele>
        <time>2019-02-10T03:53:02Z</time>
      </trkpt>
      <trkpt lat="46.45772" lon="5.39441">
        <ele>478</ele>
        <time>2019-02-10T03:54:02Z</time>
      </trkpt>
      <trkpt lat="46.45769" lon="5.39427">
        <ele>477</ele>
        <time>2019-02-10T03:55:02Z</time>
      </trkpt>
      <trkpt lat="46.45766" lon="5.39413">
        <ele>477</ele>
        <time>2019-02-10T03:56:02Z</time>
      </trkpt>
      <trkpt lat="46.45762" lon="5.39401">
        <ele>476</ele>
        <time>2019-02-10T03:57:02Z</time>
      </trkpt>
      <trkpt lat="46.45758" lon="5.39391">
        <ele>475</ele>
        <time>2019-02-10T03:58:02Z</time>
      </trkpt>
      <trkpt lat="46.45753" lon="5.39383">
        <ele>475</ele>
        <time>2019-02-10T03:59:02Z</time>
      </trkpt>
      <trkpt lat="46.45746" lon="5.39371">
        <ele>473</ele>
        <time>2019-02-10T04:00:02Z</time>
      </trkpt>
      <trkpt lat="46.45739" lon="5.39361">
        <ele>472</ele>
        <time>2019-02-10T04:01:02Z</time>
      </trkpt>
      <trkpt lat="46.45731" lon="5.39352">
        <ele>471</ele>
        <time>2019-02-10T04:02:02Z</time>
      </trkpt>
      <trkpt lat="46.45723" lon="5.39343">
        <ele>470</ele>
        <time>2019-02-10T04:03:02Z</time>
      </trkpt>
      <trkpt lat="46.45701" lon="5.39319">
        <ele>466</ele>
        <time>2019-02-10T04:04:02Z</time>
      </trkpt>
      <trkpt lat="46.45675" lon="5.39292">
        <ele>463</ele>
        <time>2019-02-10T04:05:02Z</time>
      </trkpt>
      <trkpt lat="46.45652" lon="5.39268">
        <ele>462</ele>
        <time>2019-02-10T04:06:02Z</time>
      </trkpt>
      <trkpt lat="46.45598" lon="5.39211">
        <ele>459</ele>
        <time>2019-02-10T04:07:02Z</time>
      </trkpt>
      <trkpt lat="46.45581" lon="5.39193">
        <ele>460</ele>
        <time>2019-02-10T04:08:02Z</time>
      </trkpt>
      <trkpt lat="46.45558" lon="5.39171">
        <ele>459</ele>
        <time>2019-02-10T04:09:02Z</time>
      </trkpt>
      <trkpt lat="46.45528" lon="5.39143">
        <ele>459</ele>
        <time>2019-02-10T04:10:02Z</time>
      </trkpt>
      <trkpt lat="46.45496" lon="5.39112">
        <ele>460</ele>
        <time>2019-02-10T04:11:02Z</time>
      </trkpt>
      <trkpt lat="46.45485" lon="5.39101">
        <ele>459</ele>
        <time>2019-02-10T04:12:02Z</time>
      </trkpt>
      <trkpt lat="46.45477" lon="5.39091">
        <ele>459</ele>
        <time>2019-02-10T04:13:02Z</time>
      </trkpt>
      <trkpt lat="46.45471" lon="5.3908">
        <ele>458</ele>
        <time>2019-02-10T04:14:02Z</time>
      </trkpt>
      <trkpt lat="46.45471" lon="5.3908">
        <ele>458</ele>
        <time>2019-02-10T04:15:02Z</time>
      </trkpt>
      <trkpt lat="46.45468" lon="5.39084">
        <ele>458</ele>
        <time>2019-02-10T04:16:02Z</time>
      </trkpt>
      <trkpt lat="46.45455" lon="5.39098">
        <ele>458</ele>
        <time>2019-02-10T04:17:02Z</time>
      </trkpt>
      <trkpt lat="46.45449" lon="5.39104">
        <ele>458</ele>
        <time>2019-02-10T04:18:02Z</time>
      </trkpt>
      <trkpt lat="46.45442" lon="5.39115">
        <ele>458</ele>
        <time>2019-02-10T04:19:02Z</time>
      </trkpt>
      <trkpt lat="46.45436" lon="5.39129">
        <ele>458</ele>
        <time>2019-02-10T04:20:02Z</time>
      </trkpt>
      <trkpt lat="46.4543" lon="5.39149">
        <ele>459</ele>
        <time>2019-02-10T04:21:02Z</time>
      </trkpt>
      <trkpt lat="46.45403" lon="5.39223">
        <ele>462</ele>
        <time>2019-02-10T04:22:02Z</time>
      </trkpt>
      <trkpt lat="46.4539" lon="5.39255">
        <ele>463</ele>
        <time>2019-02-10T04:23:02Z</time>
      </trkpt>
      <trkpt lat="46.45382" lon="5.39282">
        <ele>464</ele>
        <time>2019-02-10T04:24:02Z</time>
      </trkpt>
      <trkpt lat="46.45371" lon="5.3931">
        <ele>465</ele>
        <time>2019-02-10T04:25:02Z</time>
      </trkpt>
      <trkpt lat="46.45363" lon="5.39334">
        <ele>466</ele>
        <time>2019-02-10T04:26:02Z</time>
      </trkpt>
      <trkpt lat="46.45352" lon="5.39363">
        <ele>466</ele>
        <time>2019-02-10T04:27:02Z</time>
      </trkpt>
      <trkpt lat="46.45343" lon="5.39389">
        <ele>466</ele>
        <time>2019-02-10T04:28:02Z</time>
      </trkpt>
      <trkpt lat="46.45332" lon="5.39419">
        <ele>466</ele>
        <time>2019-02-10T04:29:02Z</time>
      </trkpt>
      <trkpt lat="46.45322" lon="5.39448">
        <ele>465</ele>
        <time>2019-02-10T04:30:02Z</time>
      </trkpt>
      <trkpt lat="46.45311" lon="5.3947">
        <ele>466</ele>
        <time>2019-02-10T04:31:02Z</time>
      </trkpt>
      <trkpt lat="46.453" lon="5.39489">
        <ele>466</ele>
        <time>2019-02-10T04:32:02Z</time>
      </trkpt>
      <trkpt lat="46.45282" lon="5.39512">
        <ele>467</ele>
        <time>2019-02-10T04:33:02Z</time>
      </trkpt>
      <trkpt lat="46.45271" lon="5.39525">
        <ele>468</ele>
        <time>2019-02-10T04:34:02Z</time>
      </trkpt>
      <trkpt lat="46.45258" lon="5.39537">
        <ele>469</ele>
        <time>2019-02-10T04:35:02Z</time>
      </trkpt>
      <trkpt lat="46.45247" lon="5.39545">
        <ele>470</ele>
        <time>2019-02-10T04:36:02Z</time>
      </trkpt>
      <trkpt lat="46.45236" lon="5.39553">
        <ele>470</ele>
        <time>2019-02-10T04:37:02Z</time>
      </trkpt>
      <trkpt lat="46.45223" lon="5.39559">
        <ele>470</ele>
        <time>2019-02-10T04:38:02Z</time>
      </trkpt>
      <trkpt lat="46.45208" lon="5.39565">
        <ele>471</ele>
        <time>2019-02-10T04:39:02Z</time>
      </trkpt>
      <trkpt lat="46.45201" lon="5.39569">
        <ele>472</ele>
        <time>2019-02-10T04:40:02Z</time>
      </trkpt>
      <trkpt lat="46.45178" lon="5.39578">
        <ele>473</ele>
        <time>2019-02-10T04:41:02Z</time>
      </trkpt>
      <trkpt lat="46.45154" lon="5.3959">
        <ele>474</ele>
        <time>2019-02-10T04:42:02Z</time>
      </trkpt>
      <trkpt lat="46.45121" lon="5.39605">
        <ele>474</ele>
        <time>2019-02-10T04:43:02Z</time>
      </trkpt>
      <trkpt lat="46.45106" lon="5.39614">
        <ele>474</ele>
        <time>2019-02-10T04:44:02Z</time>
      </trkpt>
      <trkpt lat="46.45092" lon="5.39622">
        <ele>474</ele>
        <time>2019-02-10T04:45:02Z</time>
      </trkpt>
      <trkpt lat="46.45079" lon="5.39631">
        <ele>473</ele>
        <time>2019-02-10T04:46:02Z</time>
      </trkpt>
      <trkpt lat="46.45058" lon="5.39648">
        <ele>472</ele>
        <time>2019-02-10T04:47:02Z</time>
      </trkpt>
      <trkpt lat="46.45039" lon="5.39661">
        <ele>471</ele>
        <time>2019-02-10T04:48:02Z</time>
      </trkpt>
      <trkpt lat="46.45028" lon="5.39671">
        <ele>470</ele>
        <time>2019-02-10T04:49:02Z</time>
      </trkpt>
      <trkpt lat="46.45015" lon="5.39685">
        <ele>470</ele>
        <time>2019-02-10T04:50:02Z</time>
      </trkpt>
      <trkpt lat="46.44995" lon="5.39706">
        <ele>469</ele>
        <time>2019-02-10T04:51:02Z</time>
      </trkpt>
      <trkpt lat="46.44982" lon="5.3972">
        <ele>469</ele>
        <time>2019-02-10T04:52:02Z</time>
      </trkpt>
      <trkpt lat="46.44978" lon="5.39725">
        <ele>469</ele>
        <time>2019-02-10T04:53:02Z</time>
      </trkpt>
      <trkpt lat="46.44967" lon="5.3973">
        <ele>469</ele>
        <time>2019-02-10T04:54:02Z</time>
      </trkpt>
      <trkpt lat="46.44952" lon="5.39732">
        <ele>469</ele>
        <time>2019-02-10T04:55:02Z</time>
      </trkpt>
      <trkpt lat="46.44933" lon="5.39737">
        <ele>470</ele>
        <time>2019-02-10T04:56:02Z</time>
      </trkpt>
      <trkpt lat="46.4492" lon="5.39742">
        <ele>470</ele>
        <time>2019-02-10T04:57:02Z</time>
      </trkpt>
      <trkpt lat="46.44913" lon="5.39746">
        <ele>470</ele>
        <time>2019-02-10T04:58:02Z</time>
      </trkpt>
      <trkpt lat="46.44902" lon="5.39747">
        <ele>470</ele>
        <time>2019-02-10T04:59:02Z</time>
      </trkpt>
      <trkpt lat="46.44886" lon="5.39749">
        <ele>470</ele>
        <time>2019-02-10T05:00:02Z</time>
      </trkpt>
      <trkpt lat="46.44868" lon="5.39753">
        <ele>470</ele>
        <time>2019-02-10T05:01:02Z</time>
      </trkpt>
      <trkpt lat="46.44853" lon="5.3976">
        <ele>470</ele>
        <time>2019-02-10T05:02:02Z</time>
      </trkpt>
      <trkpt lat="46.44841" lon="5.39767">
        <ele>470</ele>
        <time>2019-02-10T05:03:02Z</time>
      </trkpt>
      <trkpt lat="46.44826" lon="5.3978">
        <ele>470</ele>
        <time>2019-02-10T05:04:02Z</time>
      </trkpt>
      <trkpt lat="46.44816" lon="5.39787">
        <ele>470</ele>
        <time>2019-02-10T05:05:02Z</time>
      </trkpt>
      <trkpt lat="46.44806" lon="5.39792">
        <ele>469</ele>
        <time>2019-02-10T05:06:02Z</time>
      </trkpt>
      <trkpt lat="46.44795" lon="5.39797">
        <ele>469</ele>
        <time>2019-02-10T05:07:02Z</time>
      </trkpt>
      <trkpt lat="46.44782" lon="5.398">
        <ele>469</ele>
        <time>2019-02-10T05:08:02Z</time>
      </trkpt>
      <trkpt lat="46.44766" lon="5.398">
        <ele>469</ele>
        <time>2019-02-10T05:09:02Z</time>
      </trkpt>
      <trkpt lat="46.44745" lon="5.39798">
        <ele>469</ele>
        <time>2019-02-10T05:10:02Z</time>
      </trkpt>
      <trkpt lat="46.44717" lon="5.39797">
        <ele>468</ele>
        <time>2019-02-10T05:11:02Z</time>
      </trkpt>
      <trkpt lat="46.44695" lon="5.39796">
        <ele>468</ele>
        <time>2019-02-10T05:12:02Z</time>
      </trkpt>
      <trkpt lat="46.44684" lon="5.39795">
        <ele>468</ele>
        <time>2019-02-10T05:13:02Z</time>
      </trkpt>
      <trkpt lat="46.4467" lon="5.39797">
        <ele>467</ele>
        <time>2019-02-10T05:14:02Z</time>
      </trkpt>
      <trkpt lat="46.44658" lon="5.398">
        <ele>467</ele>
        <time>2019-02-10T05:15:02Z</time>
      </trkpt>
      <trkpt lat="46.44647" lon="5.39805">
        <ele>467</ele>
        <time>2019-02-10T05:16:02Z</time>
      </trkpt>
      <trkpt lat="46.44643" lon="5.39808">
        <ele>467</ele>
        <time>2019-02-10T05:17:02Z</time>
      </trkpt>
      <trkpt lat="46.44635" lon="5.39814">
        <ele>467</ele>
        <time>2019-02-10T05:18:02Z</time>
      </trkpt>
      <trkpt lat="46.44623" lon="5.39827">
        <ele>466</ele>
        <time>2019-02-10T05:19:02Z</time>
      </trkpt>
      <trkpt lat="46.44611" lon="5.39843">
        <ele>466</ele>
        <time>2019-02-10T05:20:02Z</time>
      </trkpt>
      <trkpt lat="46.44599" lon="5.39857">
        <ele>466</ele>
        <time>2019-02-10T05:21:02Z</time>
      </trkpt>
      <trkpt lat="46.44591" lon="5.39865">
        <ele>466</ele>
        <time>2019-02-10T05:22:02Z</time>
      </trkpt>
      <trkpt lat="46.44581" lon="5.39873">
        <ele>467</ele>
        <time>2019-02-10T05:23:02Z</time>
      </trkpt>
      <trkpt lat="46.44571" lon="5.39879">
        <ele>466</ele>
        <time>2019-02-10T05:24:02Z</time>
      </trkpt>
      <trkpt lat="46.44555" lon="5.39887">
        <ele>466</ele>
        <time>2019-02-10T05:25:02Z</time>
      </trkpt>
      <trkpt lat="46.4453" lon="5.39898">
        <ele>465</ele>
        <time>2019-02-10T05:26:02Z</time>
      </trkpt>
      <trkpt lat="46.44494" lon="5.39915">
        <ele>464</ele>
        <time>2019-02-10T05:27:02Z</time>
      </trkpt>
      <trkpt lat="46.44455" lon="5.39935">
        <ele>464</ele>
        <time>2019-02-10T05:28:02Z</time>
      </trkpt>
      <trkpt lat="46.44436" lon="5.39943">
        <ele>465</ele>
        <time>2019-02-10T05:29:02Z</time>
      </trkpt>
      <trkpt lat="46.44425" lon="5.39946">
        <ele>465</ele>
        <time>2019-02-10T05:30:02Z</time>
      </trkpt>
      <trkpt lat="46.44411" lon="5.39949">
        <ele>465</ele>
        <time>2019-02-10T05:31:02Z</time>
      </trkpt>
      <trkpt lat="46.4438" lon="5.3995">
        <ele>465</ele>
        <time>2019-02-10T05:32:02Z</time>
      </trkpt>
      <trkpt lat="46.44337" lon="5.39952">
        <ele>465</ele>
        <time>2019-02-10T05:33:02Z</time>
      </trkpt>
      <trkpt lat="46.4432" lon="5.39951">
        <ele>465</ele>
        <time>2019-02-10T05:34:02Z</time>
      </trkpt>
      <trkpt lat="46.44302" lon="5.39952">
        <ele>465</ele>
        <time>2019-02-10T05:35:02Z</time>
      </trkpt>
      <trkpt lat="46.44271" lon="5.39953">
        <ele>464</ele>
        <time>2019-02-10T05:36:02Z</time>
      </trkpt>
      <trkpt lat="46.44258" lon="5.39952">
        <ele>464</ele>
        <time>2019-02-10T05:37:02Z</time>
      </trkpt>
      <trkpt lat="46.44248" lon="5.39953">
        <ele>464</ele>
        <time>2019-02-10T05:38:02Z</time>
      </trkpt>
      <trkpt lat="46.44239" lon="5.39956">
        <ele>464</ele>
        <time>2019-02-10T05:39:02Z</time>
      </trkpt>
      <trkpt lat="46.44222" lon="5.39966">
        <ele>464</ele>
        <time>2019-02-10T05:40:02Z</time>
      </trkpt>
      <trkpt lat="46.44207" lon="5.39979">
        <ele>464</ele>
        <time>2019-02-10T05:41:02Z</time>
      </trkpt>
      <trkpt lat="46.44182" lon="5.40001">
        <ele>463</ele>
        <time>2019-02-10T05:42:02Z</time>
      </trkpt>
      <trkpt lat="46.44151" lon="5.4003">
        <ele>462</ele>
        <time>2019-02-10T05:43:02Z</time>
      </trkpt>
      <trkpt lat="46.44137" lon="5.40041">
        <ele>462</ele>
        <time>2019-02-10T05:44:02Z</time>
      </trkpt>
      <trkpt lat="46.44127" lon="5.40047">
        <ele>461</ele>
        <time>2019-02-10T05:45:02Z</time>
      </trkpt>
      <trkpt lat="46.44115" lon="5.40052">
        <ele>461</ele>
        <time>2019-02-10T05:46:02Z</time>
      </trkpt>
      <trkpt lat="46.44097" lon="5.40058">
        <ele>460</ele>
        <time>2019-02-10T05:47:02Z</time>
      </trkpt>
      <trkpt lat="46.44072" lon="5.40063">
        <ele>460</ele>
        <time>2019-02-10T05:48:02Z</time>
      </trkpt>
      <trkpt lat="46.44054" lon="5.40068">
        <ele>460</ele>
        <time>2019-02-10T05:49:02Z</time>
      </trkpt>
      <trkpt lat="46.44032" lon="5.40073">
        <ele>460</ele>
        <time>2019-02-10T05:50:02Z</time>
      </trkpt>
      <trkpt lat="46.44013" lon="5.40078">
        <ele>461</ele>
        <time>2019-02-10T05:51:02Z</time>
      </trkpt>
      <trkpt lat="46.4401" lon="5.40079">
        <ele>461</ele>
        <time>2019-02-10T05:52:02Z</time>
      </trkpt>
      <trkpt lat="46.43996" lon="5.40082">
        <ele>461</ele>
        <time>2019-02-10T05:53:02Z</time>
      </trkpt>
      <trkpt lat="46.43984" lon="5.40084">
        <ele>461</ele>
        <time>2019-02-10T05:54:02Z</time>
      </trkpt>
      <trkpt lat="46.4397" lon="5.40084">
        <ele>461</ele>
        <time>2019-02-10T05:55:02Z</time>
      </trkpt>
      <trkpt lat="46.43956" lon="5.40084">
        <ele>460</ele>
        <time>2019-02-10T05:56:02Z</time>
      </trkpt>
      <trkpt lat="46.43939" lon="5.40084">
        <ele>460</ele>
        <time>2019-02-10T05:57:02Z</time>
      </trkpt>
      <trkpt lat="46.43923" lon="5.40087">
        <ele>460</ele>
        <time>2019-02-10T05:58:02Z</time>
      </trkpt>
      <trkpt lat="46.43912" lon="5.40093">
        <ele>460</ele>
        <time>2019-02-10T05:59:02Z</time>
      </trkpt>
      <trkpt lat="46.43899" lon="5.40104">
        <ele>460</ele>
        <time>2019-02-10T06:00:02Z</time>
      </trkpt>
      <trkpt lat="46.43889" lon="5.40114">
        <ele>461</ele>
        <time>2019-02-10T06:01:02Z</time>
      </trkpt>
      <trkpt lat="46.43872" lon="5.40127">
        <ele>461</ele>
        <time>2019-02-10T06:02:02Z</time>
      </trkpt>
      <trkpt lat="46.43861" lon="5.40134">
        <ele>461</ele>
        <time>2019-02-10T06:03:02Z</time>
      </trkpt>
      <trkpt lat="46.43846" lon="5.40139">
        <ele>461</ele>
        <time>2019-02-10T06:04:02Z</time>
      </trkpt>
      <trkpt lat="46.43828" lon="5.40144">
        <ele>462</ele>
        <time>2019-02-10T06:05:02Z</time>
      </trkpt>
      <trkpt lat="46.43813" lon="5.40149">
        <ele>461</ele>
        <time>2019-02-10T06:06:02Z</time>
      </trkpt>
      <trkpt lat="46.43798" lon="5.40154">
        <ele>461</ele>
        <time>2019-02-10T06:07:02Z</time>
      </trkpt>
      <trkpt lat="46.43777" lon="5.40161">
        <ele>461</ele>
        <time>2019-02-10T06:08:02Z</time>
      </trkpt>
      <trkpt lat="46.43758" lon="5.40167">
        <ele>461</ele>
        <time>2019-02-10T06:09:02Z</time>
      </trkpt>
      <trkpt lat="46.43743" lon="5.4017">
        <ele>461</ele>
        <time>2019-02-10T06:10:02Z</time>
      </trkpt>
      <trkpt lat="46.43724" lon="5.40173">
        <ele>461</ele>
        <time>2019-02-10T06:11:02Z</time>
      </trkpt>
      <trkpt lat="46.43704" lon="5.40175">
        <ele>460</ele>
        <time>2019-02-10T06:12:02Z</time>
      </trkpt>
      <trkpt lat="46.43681" lon="5.40179">
        <ele>460</ele>
        <time>2019-02-10T06:13:02Z</time>
      </trkpt>
      <trkpt lat="46.43658" lon="5.40182">
        <ele>460</ele>
        <time>2019-02-10T06:14:02Z</time>
      </trkpt>
      <trkpt lat="46.43634" lon="5.40186">
        <ele>460</ele>
        <time>2019-02-10T06:15:02Z</time>
      </trkpt>
      <trkpt lat="46.43617" lon="5.40187">
        <ele>460</ele>
        <time>2019-02-10T06:16:02Z</time>
      </trkpt>
      <trkpt lat="46.43604" lon="5.40186">
        <ele>461</ele>
        <time>2019-02-10T06:17:02Z</time>
      </trkpt>
      <trkpt lat="46.43588" lon="5.40182">
        <ele>461</ele>
        <time>2019-02-10T06:18:02Z</time>
      </trkpt>
      <trkpt lat="46.4357" lon="5.40178">
        <ele>461</ele>
        <time>2019-02-10T06:19:02Z</time>
      </trkpt>
      <trkpt lat="46.43542" lon="5.40173">
        <ele>461</ele>
        <time>2019-02-10T06:20:02Z</time>
      </trkpt>
      <trkpt lat="46.43525" lon="5.40172">
        <ele>461</ele>
        <time>2019-02-10T06:21:02Z</time>
      </trkpt>
      <trkpt lat="46.4351" lon="5.40171">
        <ele>461</ele>
        <time>2019-02-10T06:22:02Z</time>
      </trkpt>
      <trkpt lat="46.43498" lon="5.4017">
        <ele>461</ele>
        <time>2019-02-10T06:23:02Z</time>
      </trkpt>
      <trkpt lat="46.43485" lon="5.40166">
        <ele>461</ele>
        <time>2019-02-10T06:24:02Z</time>
      </trkpt>
      <trkpt lat="46.43469" lon="5.40158">
        <ele>461</ele>
        <time>2019-02-10T06:25:02Z</time>
      </trkpt>
      <trkpt lat="46.43454" lon="5.40149">
        <ele>460</ele>
        <time>2019-02-10T06:26:02Z</time>
      </trkpt>
      <trkpt lat="46.43427" lon="5.40137">
        <ele>460</ele>
        <time>2019-02-10T06:27:02Z</time>
      </trkpt>
      <trkpt lat="46.43405" lon="5.40129">
        <ele>459</ele>
        <time>2019-02-10T06:28:02Z</time>
      </trkpt>
      <trkpt lat="46.43382" lon="5.40121">
        <ele>459</ele>
        <time>2019-02-10T06:29:02Z</time>
      </trkpt>
      <trkpt lat="46.4336" lon="5.40116">
        <ele>459</ele>
        <time>2019-02-10T06:30:02Z</time>
      </trkpt>
      <trkpt lat="46.4334" lon="5.40115">
        <ele>459</ele>
        <time>2019-02-10T06:31:02Z</time>
      </trkpt>
      <trkpt lat="46.43315" lon="5.40115">
        <ele>459</ele>
        <time>2019-02-10T06:32:02Z</time>
      </trkpt>
      <trkpt lat="46.43292" lon="5.40115">
        <ele>459</ele>
        <time>2019-02-10T06:33:02Z</time>
      </trkpt>
      <trkpt lat="46.43267" lon="5.40119">
        <ele>460</ele>
        <time>2019-02-10T06:34:02Z</time>
      </trkpt>
      <trkpt lat="46.43251" lon="5.40121">
        <ele>460</ele>
        <time>2019-02-10T06:35:02Z</time>
      </trkpt>
      <trkpt lat="46.43233" lon="5.40119">
        <ele>461</ele>
        <time>2019-02-10T06:36:02Z</time>
      </trkpt>
      <trkpt lat="46.43223" lon="5.40118">
        <ele>461</ele>
        <time>2019-02-10T06:37:02Z</time>
      </trkpt>
      <trkpt lat="46.4321" lon="5.4011">
        <ele>461</ele>
        <time>2019-02-10T06:38:02Z</time>
      </trkpt>
      <trkpt lat="46.43196" lon="5.40102">
        <ele>460</ele>
        <time>2019-02-10T06:39:02Z</time>
      </trkpt>
      <trkpt lat="46.43183" lon="5.40094">
        <ele>460</ele>
        <time>2019-02-10T06:40:02Z</time>
      </trkpt>
      <trkpt lat="46.43167" lon="5.4009">
        <ele>461</ele>
        <time>2019-02-10T06:41:02Z</time>
      </trkpt>
      <trkpt lat="46.43143" lon="5.40088">
        <ele>461</ele>
        <time>2019-02-10T06:42:02Z</time>
      </trkpt>
      <trkpt lat="46.43124" lon="5.40086">
        <ele>461</ele>
        <time>2019-02-10T06:43:02Z</time>
      </trkpt>
      <trkpt lat="46.43105" lon="5.40081">
        <ele>461</ele>
        <time>2019-02-10T06:44:02Z</time>
      </trkpt>
      <trkpt lat="46.43089" lon="5.40077">
        <ele>462</ele>
        <time>2019-02-10T06:45:02Z</time>
      </trkpt>
      <trkpt lat="46.43075" lon="5.40074">
        <ele>462</ele>
        <time>2019-02-10T06:46:02Z</time>
      </trkpt>
      <trkpt lat="46.43065" lon="5.40073">
        <ele>462</ele>
        <time>2019-02-10T06:47:02Z</time>
      </trkpt>
      <trkpt lat="46.43054" lon="5.40074">
        <ele>462</ele>
        <time>2019-02-10T06:48:02Z</time>
      </trkpt>
      <trkpt lat="46.43044" lon="5.40074">
        <ele>462</ele>
        <time>2019-02-10T06:49:02Z</time>
      </trkpt>
      <trkpt lat="46.43024" lon="5.40072">
        <ele>462</ele>
        <time>2019-02-10T06:50:02Z</time>
      </trkpt>
      <trkpt lat="46.43001" lon="5.40067">
        <ele>462</ele>
        <time>2019-02-10T06:51:02Z</time>
      </trkpt>
      <trkpt lat="46.42977" lon="5.40063">
        <ele>462</ele>
        <time>2019-02-10T06:52:02Z</time>
      </trkpt>
      <trkpt lat="46.42958" lon="5.4006">
        <ele>461</ele>
        <time>2019-02-10T06:53:02Z</time>
      </trkpt>
      <trkpt lat="46.42934" lon="5.40056">
        <ele>461</ele>
        <time>2019-02-10T06:54:02Z</time>
      </trkpt>
      <trkpt lat="46.4291" lon="5.40054">
        <ele>460</ele>
        <time>2019-02-10T06:55:02Z</time>
      </trkpt>
      <trkpt lat="46.4289" lon="5.40053">
        <ele>460</ele>
        <time>2019-02-10T06:56:02Z</time>
      </trkpt>
      <trkpt lat="46.42872" lon="5.40051">
        <ele>459</ele>
        <time>2019-02-10T06:57:02Z</time>
      </trkpt>
      <trkpt lat="46.42854" lon="5.40047">
        <ele>459</ele>
        <time>2019-02-10T06:58:02Z</time>
      </trkpt>
      <trkpt lat="46.42837" lon="5.40041">
        <ele>458</ele>
        <time>2019-02-10T06:59:02Z</time>
      </trkpt>
      <trkpt lat="46.42822" lon="5.40036">
        <ele>458</ele>
        <time>2019-02-10T07:00:02Z</time>
      </trkpt>
      <trkpt lat="46.42786" lon="5.40023">
        <ele>459</ele>
        <time>2019-02-10T07:01:02Z</time>
      </trkpt>
      <trkpt lat="46.42774" lon="5.40018">
        <ele>459</ele>
        <time>2019-02-10T07:02:02Z</time>
      </trkpt>
      <trkpt lat="46.42759" lon="5.40011">
        <ele>460</ele>
        <time>2019-02-10T07:03:02Z</time>
      </trkpt>
      <trkpt lat="46.4274" lon="5.40004">
        <ele>460</ele>
        <time>2019-02-10T07:04:02Z</time>
      </trkpt>
      <trkpt lat="46.42714" lon="5.39993">
        <ele>460</ele>
        <time>2019-02-10T07:05:02Z</time>
      </trkpt>
      <trkpt lat="46.427" lon="5.39987">
        <ele>460</ele>
        <time>2019-02-10T07:06:02Z</time>
      </trkpt>
      <trkpt lat="46.42675" lon="5.39976">
        <ele>459</ele>
        <time>2019-02-10T07:07:02Z</time>
      </trkpt>
      <trkpt lat="46.4265" lon="5.39963">
        <ele>458</ele>
        <time>2019-02-10T07:08:02Z</time>
      </trkpt>
      <trkpt lat="46.42634" lon="5.39956">
        <ele>458</ele>
        <time>2019-02-10T07:09:02Z</time>
      </trkpt>
      <trkpt lat="46.42612" lon="5.39947">
        <ele>457</ele>
        <time>2019-02-10T07:10:02Z</time>
      </trkpt>
      <trkpt lat="46.42595" lon="5.39939">
        <ele>457</ele>
        <time>2019-02-10T07:11:02Z</time>
      </trkpt>
      <trkpt lat="46.42586" lon="5.39933">
        <ele>456</ele>
        <time>2019-02-10T07:12:02Z</time>
      </trkpt>
      <trkpt lat="46.42573" lon="5.39922">
        <ele>456</ele>
        <time>2019-02-10T07:13:02Z</time>
      </trkpt>
      <trkpt lat="46.42552" lon="5.39906">
        <ele>456</ele>
        <time>2019-02-10T07:14:02Z</time>
      </trkpt>
      <trkpt lat="46.4253" lon="5.3989">
        <ele>456</ele>
        <time>2019-02-10T07:15:02Z</time>
      </trkpt>
      <trkpt lat="46.42511" lon="5.39874">
        <ele>456</ele>
        <time>2019-02-10T07:16:02Z</time>
      </trkpt>
      <trkpt lat="46.42503" lon="5.39866">
        <ele>456</ele>
        <time>2019-02-10T07:17:02Z</time>
      </trkpt>
      <trkpt lat="46.42493" lon="5.39853">
        <ele>456</ele>
        <time>2019-02-10T07:18:02Z</time>
      </trkpt>
      <trkpt lat="46.42478" lon="5.39832">
        <ele>456</ele>
        <time>2019-02-10T07:19:02Z</time>
      </trkpt>
      <trkpt lat="46.4247" lon="5.3982">
        <ele>457</ele>
        <time>2019-02-10T07:20:02Z</time>
      </trkpt>
      <trkpt lat="46.42458" lon="5.39805">
        <ele>457</ele>
        <time>2019-02-10T07:21:02Z</time>
      </trkpt>
      <trkpt lat="46.42452" lon="5.39796">
        <ele>457</ele>
        <time>2019-02-10T07:22:02Z</time>
      </trkpt>
      <trkpt lat="46.4244" lon="5.3978">
        <ele>457</ele>
        <time>2019-02-10T07:23:02Z</time>
      </trkpt>
      <trkpt lat="46.42416" lon="5.39744">
        <ele>459</ele>
        <time>2019-02-10T07:24:02Z</time>
      </trkpt>
      <trkpt lat="46.42406" lon="5.3973">
        <ele>460</ele>
        <time>2019-02-10T07:25:02Z</time>
      </trkpt>
      <trkpt lat="46.42399" lon="5.39721">
        <ele>461</ele>
        <time>2019-02-10T07:26:02Z</time>
      </trkpt>
      <trkpt lat="46.42399" lon="5.39721">
        <ele>461</ele>
        <time>2019-02-10T07:27:02Z</time>
      </trkpt>
      <trkpt lat="46.42399" lon="5.39732">
        <ele>460</ele>
        <time>2019-02-10T07:28:02Z</time>
      </trkpt>
      <trkpt lat="46.42398" lon="5.39744">
        <ele>459</ele>
        <time>2019-02-10T07:29:02Z</time>
      </trkpt>
      <trkpt lat="46.42397" lon="5.39769">
        <ele>458</ele>
        <time>2019-02-10T07:30:02Z</time>
      </trkpt>
      <trkpt lat="46.42396" lon="5.39796">
        <ele>457</ele>
        <time>2019-02-10T07:31:02Z</time>
      </trkpt>
      <trkpt lat="46.42396" lon="5.39803">
        <ele>456</ele>
        <time>2019-02-10T07:32:02Z</time>
      </trkpt>
      <trkpt lat="46.42396" lon="5.39814">
        <ele>456</ele>
        <time>2019-02-10T07:33:02Z</time>
      </trkpt>
      <trkpt lat="46.42395" lon="5.39831">
        <ele>455</ele>
        <time>2019-02-10T07:34:02Z</time>
      </trkpt>
      <trkpt lat="46.42394" lon="5.39862">
        <ele>454</ele>
        <time>2019-02-10T07:35:02Z</time>
      </trkpt>
      <trkpt lat="46.42393" lon="5.39896">
        <ele>454</ele>
        <time>2019-02-10T07:36:02Z</time>
      </trkpt>
      <trkpt lat="46.42392" lon="5.39935">
        <ele>453</ele>
        <time>2019-02-10T07:37:02Z</time>
      </trkpt>
      <trkpt lat="46.42392" lon="5.3997">
        <ele>453</ele>
        <time>2019-02-10T07:38:02Z</time>
      </trkpt>
      <trkpt lat="46.42391" lon="5.39998">
        <ele>453</ele>
        <time>2019-02-10T07:39:02Z</time>
      </trkpt>
      <trkpt lat="46.4239" lon="5.40037">
        <ele>455</ele>
        <time>2019-02-10T07:40:02Z</time>
      </trkpt>
      <trkpt lat="46.42388" lon="5.4007">
        <ele>456</ele>
        <time>2019-02-10T07:41:02Z</time>
      </trkpt>
      <trkpt lat="46.42387" lon="5.40102">
        <ele>457</ele>
        <time>2019-02-10T07:42:02Z</time>
      </trkpt>
      <trkpt lat="46.42387" lon="5.40122">
        <ele>458</ele>
        <time>2019-02-10T07:43:02Z</time>
      </trkpt>
      <trkpt lat="46.42386" lon="5.4015">
        <ele>458</ele>
        <time>2019-02-10T07:44:02Z</time>
      </trkpt>
      <trkpt lat="46.42386" lon="5.40181">
        <ele>459</ele>
        <time>2019-02-10T07:45:02Z</time>
      </trkpt>
      <trkpt lat="46.42384" lon="5.40221">
        <ele>460</ele>
        <time>2019-02-10T07:46:02Z</time>
      </trkpt>
      <trkpt lat="46.42384" lon="5.40238">
        <ele>461</ele>
        <time>2019-02-10T07:47:02Z</time>
      </trkpt>
      <trkpt lat="46.42385" lon="5.40254">
        <ele>461</ele>
        <time>2019-02-10T07:48:02Z</time>
      </trkpt>
      <trkpt lat="46.42387" lon="5.40265">
        <ele>462</ele>
        <time>2019-02-10T07:49:02Z</time>
      </trkpt>
      <trkpt lat="46.42389" lon="5.40276">
        <ele>463</ele>
        <time>2019-02-10T07:50:02Z</time>
      </trkpt>
      <trkpt lat="46.42393" lon="5.40289">
        <ele>464</ele>
        <time>2019-02-10T07:51:02Z</time>
      </trkpt>
      <trkpt lat="46.42398" lon="5.403">
        <ele>465</ele>
        <time>2019-02-10T07:52:02Z</time>
      </trkpt>
      <trkpt lat="46.42405" lon="5.40311">
        <ele>466</ele>
        <time>2019-02-10T07:53:02Z</time>
      </trkpt>
      <trkpt lat="46.42415" lon="5.40317">
        <ele>467</ele>
        <time>2019-02-10T07:54:02Z</time>
      </trkpt>
      <trkpt lat="46.42421" lon="5.40322">
        <ele>467</ele>
        <time>2019-02-10T07:55:02Z</time>
      </trkpt>
      <trkpt lat="46.42433" lon="5.40335">
        <ele>469</ele>
        <time>2019-02-10T07:56:02Z</time>
      </trkpt>
      <trkpt lat="46.42448" lon="5.40346">
        <ele>470</ele>
        <time>2019-02-10T07:57:02Z</time>
      </trkpt>
      <trkpt lat="46.4246" lon="5.40355">
        <ele>471</ele>
        <time>2019-02-10T07:58:02Z</time>
      </trkpt>
      <trkpt lat="46.42469" lon="5.40363">
        <ele>473</ele>
        <time>2019-02-10T07:59:02Z</time>
      </trkpt>
      <trkpt lat="46.42479" lon="5.40373">
        <ele>474</ele>
        <time>2019-02-10T08:00:02Z</time>
      </trkpt>
      <trkpt lat="46.42484" lon="5.40383">
        <ele>475</ele>
        <time>2019-02-10T08:01:02Z</time>
      </trkpt>
      <trkpt lat="46.42487" lon="5.40389">
        <ele>476</ele>
        <time>2019-02-10T08:02:02Z</time>
      </trkpt>
      <trkpt lat="46.4249" lon="5.404">
        <ele>477</ele>
        <time>2019-02-10T08:03:02Z</time>
      </trkpt>
      <trkpt lat="46.42491" lon="5.40411">
        <ele>478</ele>
        <time>2019-02-10T08:04:02Z</time>
      </trkpt>
      <trkpt lat="46.42491" lon="5.40421">
        <ele>480</ele>
        <time>2019-02-10T08:05:02Z</time>
      </trkpt>
      <trkpt lat="46.42491" lon="5.40434">
        <ele>482</ele>
        <time>2019-02-10T08:06:02Z</time>
      </trkpt>
      <trkpt lat="46.42488" lon="5.40449">
        <ele>485</ele>
        <time>2019-02-10T08:07:02Z</time>
      </trkpt>
      <trkpt lat="46.42482" lon="5.40467">
        <ele>487</ele>
        <time>2019-02-10T08:08:02Z</time>
      </trkpt>
      <trkpt lat="46.42469" lon="5.4049">
        <ele>488</ele>
        <time>2019-02-10T08:12:02Z</time>
      </trkpt>
      <trkpt lat="46.42458" lon="5.40505">
        <ele>489</ele>
        <time>2019-02-10T08:14:02Z</time>
      </trkpt>
      <trkpt lat="46.42443" lon="5.40521">
        <ele>490</ele>
        <time>2019-02-10T08:15:02Z</time>
      </trkpt>
      <trkpt lat="46.4242" lon="5.40544">
        <ele>491</ele>
        <time>2019-02-10T08:16:02Z</time>
      </trkpt>
      <trkpt lat="46.424" lon="5.40564">
        <ele>493</ele>
        <time>2019-02-10T08:17:02Z</time>
      </trkpt>
      <trkpt lat="46.42377" lon="5.40584">
        <ele>493</ele>
        <time>2019-02-10T08:18:02Z</time>
      </trkpt>
      <trkpt lat="46.42358" lon="5.40599">
        <ele>494</ele>
        <time>2019-02-10T08:19:02Z</time>
      </trkpt>
      <trkpt lat="46.42337" lon="5.40616">
        <ele>494</ele>
        <time>2019-02-10T08:20:02Z</time>
      </trkpt>
      <trkpt lat="46.42321" lon="5.40629">
        <ele>495</ele>
        <time>2019-02-10T08:21:02Z</time>
      </trkpt>
      <trkpt lat="46.4231" lon="5.40639">
        <ele>495</ele>
        <time>2019-02-10T08:22:02Z</time>
      </trkpt>
      <trkpt lat="46.42303" lon="5.40647">
        <ele>496</ele>
        <time>2019-02-10T08:23:02Z</time>
      </trkpt>
      <trkpt lat="46.42288" lon="5.40666">
        <ele>499</ele>
        <time>2019-02-10T08:24:02Z</time>
      </trkpt>
      <trkpt lat="46.42277" lon="5.40678">
        <ele>499</ele>
        <time>2019-02-10T08:25:02Z</time>
      </trkpt>
      <trkpt lat="46.42258" lon="5.40693">
        <ele>499</ele>
        <time>2019-02-10T08:26:02Z</time>
      </trkpt>
      <trkpt lat="46.42237" lon="5.4071">
        <ele>500</ele>
        <time>2019-02-10T08:27:02Z</time>
      </trkpt>
      <trkpt lat="46.4221" lon="5.4073">
        <ele>502</ele>
        <time>2019-02-10T08:28:02Z</time>
      </trkpt>
      <trkpt lat="46.42197" lon="5.40744">
        <ele>504</ele>
        <time>2019-02-10T08:29:02Z</time>
      </trkpt>
      <trkpt lat="46.42183" lon="5.40761">
        <ele>506</ele>
        <time>2019-02-10T08:30:02Z</time>
      </trkpt>
      <trkpt lat="46.42168" lon="5.40777">
        <ele>507</ele>
        <time>2019-02-10T08:31:02Z</time>
      </trkpt>
      <trkpt lat="46.42152" lon="5.4079">
        <ele>508.7</ele>
        <time>2019-02-10T08:32:02Z</time>
      </trkpt>
      <trkpt lat="46.42132" lon="5.40793">
        <ele>508.7</ele>
        <time>2019-02-10T08:33:02Z</time>
      </trkpt>
      <trkpt lat="46.42119" lon="5.40793">
        <ele>508.5</ele>
        <time>2019-02-10T08:34:02Z</time>
      </trkpt>
      <trkpt lat="46.42087" lon="5.40791">
        <ele>507</ele>
        <time>2019-02-10T08:35:02Z</time>
      </trkpt>
      <trkpt lat="46.42059" lon="5.40806">
        <ele>508.1</ele>
        <time>2019-02-10T08:36:02Z</time>
      </trkpt>
      <trkpt lat="46.42035" lon="5.40833">
        <ele>511</ele>
        <time>2019-02-10T08:37:02Z</time>
      </trkpt>
      <trkpt lat="46.42027" lon="5.40851">
        <ele>511</ele>
        <time>2019-02-10T08:38:02Z</time>
      </trkpt>
      <trkpt lat="46.42022" lon="5.40874">
        <ele>511</ele>
        <time>2019-02-10T08:39:02Z</time>
      </trkpt>
      <trkpt lat="46.4202" lon="5.40898">
        <ele>512</ele>
        <time>2019-02-10T08:40:02Z</time>
      </trkpt>
      <trkpt lat="46.4202" lon="5.40919">
        <ele>512</ele>
        <time>2019-02-10T08:41:02Z</time>
      </trkpt>
      <trkpt lat="46.42018" lon="5.40936">
        <ele>512</ele>
        <time>2019-02-10T08:42:02Z</time>
      </trkpt>
      <trkpt lat="46.42016" lon="5.40944">
        <ele>512</ele>
        <time>2019-02-10T08:43:02Z</time>
      </trkpt>
      <trkpt lat="46.42013" lon="5.40954">
        <ele>511</ele>
        <time>2019-02-10T08:44:02Z</time>
      </trkpt>
      <trkpt lat="46.42008" lon="5.40965">
        <ele>511</ele>
        <time>2019-02-10T08:45:02Z</time>
      </trkpt>
      <trkpt lat="46.42005" lon="5.40973">
        <ele>511</ele>
        <time>2019-02-10T08:46:02Z</time>
      </trkpt>
      <trkpt lat="46.41988" lon="5.40993">
        <ele>510</ele>
        <time>2019-02-10T08:47:02Z</time>
      </trkpt>
      <trkpt lat="46.41975" lon="5.41006">
        <ele>509</ele>
        <time>2019-02-10T08:48:02Z</time>
      </trkpt>
      <trkpt lat="46.41964" lon="5.41021">
        <ele>509</ele>
        <time>2019-02-10T08:49:02Z</time>
      </trkpt>
      <trkpt lat="46.41956" lon="5.41033">
        <ele>509</ele>
        <time>2019-02-10T08:50:02Z</time>
      </trkpt>
      <trkpt lat="46.4195" lon="5.41049">
        <ele>509</ele>
        <time>2019-02-10T08:51:02Z</time>
      </trkpt>
      <trkpt lat="46.41946" lon="5.41064">
        <ele>509</ele>
        <time>2019-02-10T08:52:02Z</time>
      </trkpt>
      <trkpt lat="46.41945" lon="5.41079">
        <ele>509</ele>
        <time>2019-02-10T08:53:02Z</time>
      </trkpt>
      <trkpt lat="46.41945" lon="5.41102">
        <ele>509</ele>
        <time>2019-02-10T08:54:02Z</time>
      </trkpt>
      <trkpt lat="46.41948" lon="5.41169">
        <ele>507</ele>
        <time>2019-02-10T08:55:02Z</time>
      </trkpt>
      <trkpt lat="46.41951" lon="5.41232">
        <ele>506</ele>
        <time>2019-02-10T08:56:02Z</time>
      </trkpt>
      <trkpt lat="46.41959" lon="5.41296">
        <ele>504</ele>
        <time>2019-02-10T08:57:02Z</time>
      </trkpt>
      <trkpt lat="46.41962" lon="5.41328">
        <ele>504</ele>
        <time>2019-02-10T08:58:02Z</time>
      </trkpt>
      <trkpt lat="46.41966" lon="5.41348">
        <ele>502</ele>
        <time>2019-02-10T08:59:02Z</time>
      </trkpt>
      <trkpt lat="46.41969" lon="5.41361">
        <ele>500</ele>
        <time>2019-02-10T09:00:02Z</time>
      </trkpt>
      <trkpt lat="46.4198" lon="5.41378">
        <ele>497</ele>
        <time>2019-02-10T09:01:02Z</time>
      </trkpt>
      <trkpt lat="46.41993" lon="5.41389">
        <ele>494</ele>
        <time>2019-02-10T09:02:02Z</time>
      </trkpt>
      <trkpt lat="46.42013" lon="5.414">
        <ele>494</ele>
        <time>2019-02-10T09:03:02Z</time>
      </trkpt>
      <trkpt lat="46.42041" lon="5.4141">
        <ele>495</ele>
        <time>2019-02-10T09:04:02Z</time>
      </trkpt>
      <trkpt lat="46.42065" lon="5.41421">
        <ele>495</ele>
        <time>2019-02-10T09:05:02Z</time>
      </trkpt>
      <trkpt lat="46.4211" lon="5.41441">
        <ele>494</ele>
        <time>2019-02-10T09:06:02Z</time>
      </trkpt>
      <trkpt lat="46.4215" lon="5.41459">
        <ele>493</ele>
        <time>2019-02-10T09:07:02Z</time>
      </trkpt>
      <trkpt lat="46.42174" lon="5.4147">
        <ele>491</ele>
        <time>2019-02-10T09:08:02Z</time>
      </trkpt>
      <trkpt lat="46.4219" lon="5.41475">
        <ele>490</ele>
        <time>2019-02-10T09:09:02Z</time>
      </trkpt>
      <trkpt lat="46.42209" lon="5.41477">
        <ele>490</ele>
        <time>2019-02-10T09:10:02Z</time>
      </trkpt>
      <trkpt lat="46.42222" lon="5.41477">
        <ele>491</ele>
        <time>2019-02-10T09:11:02Z</time>
      </trkpt>
      <trkpt lat="46.42243" lon="5.41479">
        <ele>491</ele>
        <time>2019-02-10T09:12:02Z</time>
      </trkpt>
      <trkpt lat="46.4227" lon="5.41485">
        <ele>489</ele>
        <time>2019-02-10T09:13:02Z</time>
      </trkpt>
      <trkpt lat="46.42289" lon="5.4149">
        <ele>488</ele>
        <time>2019-02-10T09:14:02Z</time>
      </trkpt>
      <trkpt lat="46.42308" lon="5.41499">
        <ele>485</ele>
        <time>2019-02-10T09:15:02Z</time>
      </trkpt>
      <trkpt lat="46.42328" lon="5.41507">
        <ele>483</ele>
        <time>2019-02-10T09:16:02Z</time>
      </trkpt>
      <trkpt lat="46.42344" lon="5.41516">
        <ele>482</ele>
        <time>2019-02-10T09:17:02Z</time>
      </trkpt>
      <trkpt lat="46.42362" lon="5.41525">
        <ele>482</ele>
        <time>2019-02-10T09:18:02Z</time>
      </trkpt>
      <trkpt lat="46.42377" lon="5.41532">
        <ele>481</ele>
        <time>2019-02-10T09:19:02Z</time>
      </trkpt>
      <trkpt lat="46.42387" lon="5.41537">
        <ele>481</ele>
        <time>2019-02-10T09:20:02Z</time>
      </trkpt>
      <trkpt lat="46.42403" lon="5.41542">
        <ele>480</ele>
        <time>2019-02-10T09:21:02Z</time>
      </trkpt>
      <trkpt lat="46.42417" lon="5.41546">
        <ele>480</ele>
        <time>2019-02-10T09:22:02Z</time>
      </trkpt>
      <trkpt lat="46.42436" lon="5.41553">
        <ele>479</ele>
        <time>2019-02-10T09:23:02Z</time>
      </trkpt>
      <trkpt lat="46.42454" lon="5.41561">
        <ele>478</ele>
        <time>2019-02-10T09:24:02Z</time>
      </trkpt>
      <trkpt lat="46.42471" lon="5.41571">
        <ele>477</ele>
        <time>2019-02-10T09:25:02Z</time>
      </trkpt>
      <trkpt lat="46.42478" lon="5.41575">
        <ele>476</ele>
        <time>2019-02-10T09:26:02Z</time>
      </trkpt>
      <trkpt lat="46.42492" lon="5.41577">
        <ele>477</ele>
        <time>2019-02-10T09:27:02Z</time>
      </trkpt>
      <trkpt lat="46.42502" lon="5.41578">
        <ele>477</ele>
        <time>2019-02-10T09:28:02Z</time>
      </trkpt>
      <trkpt lat="46.42516" lon="5.41579">
        <ele>477</ele>
        <time>2019-02-10T09:29:02Z</time>
      </trkpt>
      <trkpt lat="46.42529" lon="5.41581">
        <ele>477</ele>
        <time>2019-02-10T09:30:02Z</time>
      </trkpt>
      <trkpt lat="46.42542" lon="5.41583">
        <ele>477</ele>
        <time>2019-02-10T09:31:02Z</time>
      </trkpt>
      <trkpt lat="46.42554" lon="5.41586">
        <ele>477</ele>
        <time>2019-02-10T09:32:02Z</time>
      </trkpt>
      <trkpt lat="46.42568" lon="5.4159">
        <ele>477</ele>
        <time>2019-02-10T09:33:02Z</time>
      </trkpt>
      <trkpt lat="46.42586" lon="5.41595">
        <ele>476</ele>
        <time>2019-02-10T09:34:02Z</time>
      </trkpt>
      <trkpt lat="46.42598" lon="5.41599">
        <ele>475</ele>
        <time>2019-02-10T09:35:02Z</time>
      </trkpt>
      <trkpt lat="46.42615" lon="5.41603">
        <ele>474</ele>
        <time>2019-02-10T09:36:02Z</time>
      </trkpt>
      <trkpt lat="46.42624" lon="5.41606">
        <ele>473</ele>
        <time>2019-02-10T09:37:02Z</time>
      </trkpt>
      <trkpt lat="46.42627" lon="5.41606">
        <ele>473</ele>
        <time>2019-02-10T09:38:02Z</time>
      </trkpt>
      <trkpt lat="46.4264" lon="5.4161">
        <ele>472</ele>
        <time>2019-02-10T09:39:02Z</time>
      </trkpt>
      <trkpt lat="46.4265" lon="5.41613">
        <ele>471</ele>
        <time>2019-02-10T09:40:02Z</time>
      </trkpt>
      <trkpt lat="46.42655" lon="5.41617">
        <ele>471</ele>
        <time>2019-02-10T09:41:02Z</time>
      </trkpt>
      <trkpt lat="46.42658" lon="5.41621">
        <ele>470</ele>
        <time>2019-02-10T09:42:02Z</time>
      </trkpt>
      <trkpt lat="46.42667" lon="5.4163">
        <ele>469</ele>
        <time>2019-02-10T09:43:02Z</time>
      </trkpt>
      <trkpt lat="46.42678" lon="5.41635">
        <ele>469</ele>
        <time>2019-02-10T09:44:02Z</time>
      </trkpt>
      <trkpt lat="46.42686" lon="5.41637">
        <ele>468</ele>
        <time>2019-02-10T09:45:02Z</time>
      </trkpt>
      <trkpt lat="46.42695" lon="5.41638">
        <ele>468</ele>
        <time>2019-02-10T09:46:02Z</time>
      </trkpt>
      <trkpt lat="46.42705" lon="5.4164">
        <ele>468</ele>
        <time>2019-02-10T09:47:02Z</time>
      </trkpt>
      <trkpt lat="46.42708" lon="5.41642">
        <ele>468</ele>
        <time>2019-02-10T09:48:02Z</time>
      </trkpt>
      <trkpt lat="46.42711" lon="5.41645">
        <ele>468</ele>
        <time>2019-02-10T09:49:02Z</time>
      </trkpt>
      <trkpt lat="46.42713" lon="5.41648">
        <ele>468</ele>
        <time>2019-02-10T09:50:02Z</time>
      </trkpt>
      <trkpt lat="46.42715" lon="5.41653">
        <ele>467</ele>
        <time>2019-02-10T09:51:02Z</time>
      </trkpt>
      <trkpt lat="46.42715" lon="5.41657">
        <ele>467</ele>
        <time>2019-02-10T09:52:02Z</time>
      </trkpt>
      <trkpt lat="46.42714" lon="5.41668">
        <ele>465</ele>
        <time>2019-02-10T09:53:02Z</time>
      </trkpt>
      <trkpt lat="46.42713" lon="5.4167">
        <ele>465</ele>
        <time>2019-02-10T09:54:02Z</time>
      </trkpt>
      <trkpt lat="46.42711" lon="5.41673">
        <ele>465</ele>
        <time>2019-02-10T09:55:02Z</time>
      </trkpt>
      <trkpt lat="46.427" lon="5.41684">
        <ele>464</ele>
        <time>2019-02-10T09:56:02Z</time>
      </trkpt>
      <trkpt lat="46.42692" lon="5.41693">
        <ele>464</ele>
        <time>2019-02-10T09:57:02Z</time>
      </trkpt>
      <trkpt lat="46.42684" lon="5.41702">
        <ele>463</ele>
        <time>2019-02-10T09:58:02Z</time>
      </trkpt>
      <trkpt lat="46.42654" lon="5.41736">
        <ele>460</ele>
        <time>2019-02-10T09:59:02Z</time>
      </trkpt>
      <trkpt lat="46.4264" lon="5.4175">
        <ele>460</ele>
        <time>2019-02-10T10:00:02Z</time>
      </trkpt>
      <trkpt lat="46.42621" lon="5.41773">
        <ele>457</ele>
        <time>2019-02-10T10:01:02Z</time>
      </trkpt>
      <trkpt lat="46.42611" lon="5.41782">
        <ele>456</ele>
        <time>2019-02-10T10:02:02Z</time>
      </trkpt>
      <trkpt lat="46.42607" lon="5.41786">
        <ele>456</ele>
        <time>2019-02-10T10:03:02Z</time>
      </trkpt>
      <trkpt lat="46.42597" lon="5.41792">
        <ele>455</ele>
        <time>2019-02-10T10:04:02Z</time>
      </trkpt>
      <trkpt lat="46.42588" lon="5.41794">
        <ele>455</ele>
        <time>2019-02-10T10:05:02Z</time>
      </trkpt>
      <trkpt lat="46.4258" lon="5.41794">
        <ele>454</ele>
        <time>2019-02-10T10:06:02Z</time>
      </trkpt>
      <trkpt lat="46.42572" lon="5.41791">
        <ele>454</ele>
        <time>2019-02-10T10:07:02Z</time>
      </trkpt>
      <trkpt lat="46.42548" lon="5.41778">
        <ele>455</ele>
        <time>2019-02-10T10:08:02Z</time>
      </trkpt>
      <trkpt lat="46.42538" lon="5.41773">
        <ele>455</ele>
        <time>2019-02-10T10:09:02Z</time>
      </trkpt>
      <trkpt lat="46.4253" lon="5.4177">
        <ele>455</ele>
        <time>2019-02-10T10:10:02Z</time>
      </trkpt>
      <trkpt lat="46.42519" lon="5.41768">
        <ele>454</ele>
        <time>2019-02-10T10:11:02Z</time>
      </trkpt>
      <trkpt lat="46.4251" lon="5.41769">
        <ele>453</ele>
        <time>2019-02-10T10:12:02Z</time>
      </trkpt>
      <trkpt lat="46.4249" lon="5.41774">
        <ele>452</ele>
        <time>2019-02-10T10:13:02Z</time>
      </trkpt>
      <trkpt lat="46.42467" lon="5.41784">
        <ele>450</ele>
        <time>2019-02-10T10:14:02Z</time>
      </trkpt>
      <trkpt lat="46.42443" lon="5.41795">
        <ele>448</ele>
        <time>2019-02-10T10:15:02Z</time>
      </trkpt>
      <trkpt lat="46.42425" lon="5.41799">
        <ele>447</ele>
        <time>2019-02-10T10:16:02Z</time>
      </trkpt>
      <trkpt lat="46.42406" lon="5.41799">
        <ele>446</ele>
        <time>2019-02-10T10:17:02Z</time>
      </trkpt>
      <trkpt lat="46.42391" lon="5.41798">
        <ele>445</ele>
        <time>2019-02-10T10:18:02Z</time>
      </trkpt>
      <trkpt lat="46.42375" lon="5.41795">
        <ele>444</ele>
        <time>2019-02-10T10:19:02Z</time>
      </trkpt>
      <trkpt lat="46.4234" lon="5.41786">
        <ele>444</ele>
        <time>2019-02-10T10:20:02Z</time>
      </trkpt>
      <trkpt lat="46.4232" lon="5.41778">
        <ele>443</ele>
        <time>2019-02-10T10:21:02Z</time>
      </trkpt>
      <trkpt lat="46.423" lon="5.4177">
        <ele>442</ele>
        <time>2019-02-10T10:22:02Z</time>
      </trkpt>
      <trkpt lat="46.42273" lon="5.41756">
        <ele>441</ele>
        <time>2019-02-10T10:23:02Z</time>
      </trkpt>
      <trkpt lat="46.42252" lon="5.41742">
        <ele>441</ele>
        <time>2019-02-10T10:24:02Z</time>
      </trkpt>
      <trkpt lat="46.42226" lon="5.41726">
        <ele>440</ele>
        <time>2019-02-10T10:25:02Z</time>
      </trkpt>
      <trkpt lat="46.42193" lon="5.41705">
        <ele>438</ele>
        <time>2019-02-10T10:26:02Z</time>
      </trkpt>
      <trkpt lat="46.42161" lon="5.41683">
        <ele>436</ele>
        <time>2019-02-10T10:32:02Z</time>
      </trkpt>
      <trkpt lat="46.42135" lon="5.41668">
        <ele>435</ele>
        <time>2019-02-10T10:33:02Z</time>
      </trkpt>
      <trkpt lat="46.42124" lon="5.41664">
        <ele>434</ele>
        <time>2019-02-10T10:34:02Z</time>
      </trkpt>
      <trkpt lat="46.42112" lon="5.41663">
        <ele>433</ele>
        <time>2019-02-10T10:35:02Z</time>
      </trkpt>
      <trkpt lat="46.42099" lon="5.41663">
        <ele>432</ele>
        <time>2019-02-10T10:36:02Z</time>
      </trkpt>
      <trkpt lat="46.42086" lon="5.41663">
        <ele>430</ele>
        <time>2019-02-10T10:37:02Z</time>
      </trkpt>
      <trkpt lat="46.42072" lon="5.41661">
        <ele>430</ele>
        <time>2019-02-10T10:38:02Z</time>
      </trkpt>
      <trkpt lat="46.42059" lon="5.41657">
        <ele>431</ele>
        <time>2019-02-10T10:39:02Z</time>
      </trkpt>
      <trkpt lat="46.42036" lon="5.4165">
        <ele>432</ele>
        <time>2019-02-10T10:40:02Z</time>
      </trkpt>
      <trkpt lat="46.42023" lon="5.41648">
        <ele>432</ele>
        <time>2019-02-10T10:41:02Z</time>
      </trkpt>
      <trkpt lat="46.42012" lon="5.41652">
        <ele>431</ele>
        <time>2019-02-10T10:42:02Z</time>
      </trkpt>
      <trkpt lat="46.42004" lon="5.4166">
        <ele>429</ele>
        <time>2019-02-10T10:43:02Z</time>
      </trkpt>
      <trkpt lat="46.41998" lon="5.41672">
        <ele>428</ele>
        <time>2019-02-10T10:44:02Z</time>
      </trkpt>
      <trkpt lat="46.41996" lon="5.41684">
        <ele>428</ele>
        <time>2019-02-10T10:45:02Z</time>
      </trkpt>
      <trkpt lat="46.41996" lon="5.41695">
        <ele>428</ele>
        <time>2019-02-10T10:46:02Z</time>
      </trkpt>
      <trkpt lat="46.41999" lon="5.41704">
        <ele>428</ele>
        <time>2019-02-10T10:47:02Z</time>
      </trkpt>
      <trkpt lat="46.42006" lon="5.41717">
        <ele>427</ele>
        <time>2019-02-10T10:48:02Z</time>
      </trkpt>
      <trkpt lat="46.42031" lon="5.41758">
        <ele>425</ele>
        <time>2019-02-10T10:49:02Z</time>
      </trkpt>
      <trkpt lat="46.42042" lon="5.41786">
        <ele>424</ele>
        <time>2019-02-10T10:50:02Z</time>
      </trkpt>
      <trkpt lat="46.4205" lon="5.41806">
        <ele>423</ele>
        <time>2019-02-10T10:51:02Z</time>
      </trkpt>
      <trkpt lat="46.42057" lon="5.41832">
        <ele>422</ele>
        <time>2019-02-10T10:52:02Z</time>
      </trkpt>
      <trkpt lat="46.42062" lon="5.41857">
        <ele>420</ele>
        <time>2019-02-10T10:53:02Z</time>
      </trkpt>
      <trkpt lat="46.42066" lon="5.41886">
        <ele>419</ele>
        <time>2019-02-10T10:54:02Z</time>
      </trkpt>
      <trkpt lat="46.42066" lon="5.41908">
        <ele>419</ele>
        <time>2019-02-10T10:55:02Z</time>
      </trkpt>
      <trkpt lat="46.42066" lon="5.41935">
        <ele>417.5</ele>
        <time>2019-02-10T10:56:02Z</time>
      </trkpt>
      <trkpt lat="46.42065" lon="5.41962">
        <ele>417.3</ele>
        <time>2019-02-10T10:57:02Z</time>
      </trkpt>
      <trkpt lat="46.42065" lon="5.41981">
        <ele>416.7</ele>
        <time>2019-02-10T10:58:02Z</time>
      </trkpt>
      <trkpt lat="46.42067" lon="5.41994">
        <ele>415</ele>
        <time>2019-02-10T10:59:02Z</time>
      </trkpt>
      <trkpt lat="46.42073" lon="5.42008">
        <ele>415</ele>
        <time>2019-02-10T11:00:02Z</time>
      </trkpt>
      <trkpt lat="46.42086" lon="5.42036">
        <ele>414</ele>
        <time>2019-02-10T11:01:02Z</time>
      </trkpt>
      <trkpt lat="46.42102" lon="5.42065">
        <ele>413</ele>
        <time>2019-02-10T11:02:02Z</time>
      </trkpt>
      <trkpt lat="46.42124" lon="5.42106">
        <ele>411</ele>
        <time>2019-02-10T11:03:02Z</time>
      </trkpt>
      <trkpt lat="46.42149" lon="5.4215">
        <ele>408</ele>
        <time>2019-02-10T11:04:02Z</time>
      </trkpt>
      <trkpt lat="46.42166" lon="5.42177">
        <ele>407</ele>
        <time>2019-02-10T11:05:02Z</time>
      </trkpt>
      <trkpt lat="46.42179" lon="5.42204">
        <ele>406</ele>
        <time>2019-02-10T11:06:02Z</time>
      </trkpt>
      <trkpt lat="46.42195" lon="5.42236">
        <ele>404</ele>
        <time>2019-02-10T11:07:02Z</time>
      </trkpt>
      <trkpt lat="46.42204" lon="5.42262">
        <ele>403</ele>
        <time>2019-02-10T11:08:02Z</time>
      </trkpt>
      <trkpt lat="46.42207" lon="5.42282">
        <ele>402</ele>
        <time>2019-02-10T11:11:02Z</time>
      </trkpt>
      <trkpt lat="46.42206" lon="5.42298">
        <ele>402</ele>
        <time>2019-02-10T11:12:02Z</time>
      </trkpt>
      <trkpt lat="46.42199" lon="5.42322">
        <ele>402</ele>
        <time>2019-02-10T11:13:02Z</time>
      </trkpt>
      <trkpt lat="46.4219" lon="5.42346">
        <ele>402</ele>
        <time>2019-02-10T11:15:02Z</time>
      </trkpt>
      <trkpt lat="46.42173" lon="5.42383">
        <ele>402</ele>
        <time>2019-02-10T11:16:02Z</time>
      </trkpt>
      <trkpt lat="46.4216" lon="5.42411">
        <ele>401</ele>
        <time>2019-02-10T11:17:02Z</time>
      </trkpt>
      <trkpt lat="46.42148" lon="5.4243">
        <ele>400</ele>
        <time>2019-02-10T11:18:02Z</time>
      </trkpt>
      <trkpt lat="46.42131" lon="5.42453">
        <ele>399</ele>
        <time>2019-02-10T11:19:02Z</time>
      </trkpt>
      <trkpt lat="46.42115" lon="5.42474">
        <ele>397</ele>
        <time>2019-02-10T11:20:02Z</time>
      </trkpt>
      <trkpt lat="46.42103" lon="5.42494">
        <ele>396</ele>
        <time>2019-02-10T11:21:02Z</time>
      </trkpt>
      <trkpt lat="46.42087" lon="5.42521">
        <ele>394</ele>
        <time>2019-02-10T11:22:02Z</time>
      </trkpt>
      <trkpt lat="46.42071" lon="5.42551">
        <ele>394</ele>
        <time>2019-02-10T11:23:02Z</time>
      </trkpt>
      <trkpt lat="46.42046" lon="5.42601">
        <ele>394</ele>
        <time>2019-02-10T11:24:02Z</time>
      </trkpt>
      <trkpt lat="46.42015" lon="5.42662">
        <ele>392</ele>
        <time>2019-02-10T11:25:02Z</time>
      </trkpt>
      <trkpt lat="46.41995" lon="5.42697">
        <ele>391</ele>
        <time>2019-02-10T11:26:02Z</time>
      </trkpt>
      <trkpt lat="46.4198" lon="5.42726">
        <ele>391</ele>
        <time>2019-02-10T11:27:02Z</time>
      </trkpt>
      <trkpt lat="46.41979" lon="5.42729">
        <ele>391</ele>
        <time>2019-02-10T11:28:02Z</time>
      </trkpt>
      <trkpt lat="46.41954" lon="5.42773">
        <ele>389</ele>
        <time>2019-02-10T11:29:02Z</time>
      </trkpt>
      <trkpt lat="46.41937" lon="5.42797">
        <ele>389</ele>
        <time>2019-02-10T11:30:02Z</time>
      </trkpt>
      <trkpt lat="46.4192" lon="5.4282">
        <ele>388</ele>
        <time>2019-02-10T11:31:02Z</time>
      </trkpt>
      <trkpt lat="46.41885" lon="5.42867">
        <ele>384</ele>
        <time>2019-02-10T11:32:02Z</time>
      </trkpt>
      <trkpt lat="46.41862" lon="5.42898">
        <ele>381</ele>
        <time>2019-02-10T11:33:02Z</time>
      </trkpt>
      <trkpt lat="46.41838" lon="5.42929">
        <ele>379</ele>
        <time>2019-02-10T11:34:02Z</time>
      </trkpt>
      <trkpt lat="46.4181" lon="5.4297">
        <ele>378</ele>
        <time>2019-02-10T11:35:02Z</time>
      </trkpt>
      <trkpt lat="46.41779" lon="5.43014">
        <ele>375</ele>
        <time>2019-02-10T11:36:02Z</time>
      </trkpt>
      <trkpt lat="46.41743" lon="5.43066">
        <ele>372</ele>
        <time>2019-02-10T11:37:02Z</time>
      </trkpt>
      <trkpt lat="46.41715" lon="5.43106">
        <ele>372</ele>
        <time>2019-02-10T11:38:02Z</time>
      </trkpt>
      <trkpt lat="46.417" lon="5.43126">
        <ele>373</ele>
        <time>2019-02-10T11:39:02Z</time>
      </trkpt>
      <trkpt lat="46.41685" lon="5.43146">
        <ele>373</ele>
        <time>2019-02-10T11:40:02Z</time>
      </trkpt>
      <trkpt lat="46.41677" lon="5.43154">
        <ele>373</ele>
        <time>2019-02-10T11:41:02Z</time>
      </trkpt>
      <trkpt lat="46.41665" lon="5.43163">
        <ele>373</ele>
        <time>2019-02-10T11:42:02Z</time>
      </trkpt>
      <trkpt lat="46.41655" lon="5.43169">
        <ele>374.9</ele>
        <time>2019-02-10T11:43:02Z</time>
      </trkpt>
      <trkpt lat="46.41631" lon="5.43177">
        <ele>375</ele>
        <time>2019-02-10T11:44:02Z</time>
      </trkpt>
      <trkpt lat="46.41606" lon="5.43184">
        <ele>376</ele>
        <time>2019-02-10T11:45:02Z</time>
      </trkpt>
      <trkpt lat="46.41575" lon="5.43191">
        <ele>377</ele>
        <time>2019-02-10T11:46:02Z</time>
      </trkpt>
      <trkpt lat="46.41535" lon="5.432">
        <ele>379</ele>
        <time>2019-02-10T11:47:02Z</time>
      </trkpt>
      <trkpt lat="46.41508" lon="5.43206">
        <ele>380</ele>
        <time>2019-02-10T11:48:02Z</time>
      </trkpt>
      <trkpt lat="46.41482" lon="5.4321">
        <ele>380</ele>
        <time>2019-02-10T11:49:02Z</time>
      </trkpt>
      <trkpt lat="46.41458" lon="5.43213">
        <ele>380</ele>
        <time>2019-02-10T11:50:02Z</time>
      </trkpt>
      <trkpt lat="46.41416" lon="5.43217">
        <ele>380</ele>
        <time>2019-02-10T11:51:02Z</time>
      </trkpt>
      <trkpt lat="46.41387" lon="5.43221">
        <ele>380</ele>
        <time>2019-02-10T11:52:02Z</time>
      </trkpt>
      <trkpt lat="46.41363" lon="5.43225">
        <ele>379</ele>
        <time>2019-02-10T11:53:02Z</time>
      </trkpt>
      <trkpt lat="46.41342" lon="5.4323">
        <ele>378</ele>
        <time>2019-02-10T11:54:02Z</time>
      </trkpt>
      <trkpt lat="46.41331" lon="5.43235">
        <ele>378</ele>
        <time>2019-02-10T11:56:02Z</time>
      </trkpt>
      <trkpt lat="46.41318" lon="5.43244">
        <ele>378</ele>
        <time>2019-02-10T11:57:02Z</time>
      </trkpt>
      <trkpt lat="46.41305" lon="5.43258">
        <ele>378</ele>
        <time>2019-02-10T11:58:02Z</time>
      </trkpt>
      <trkpt lat="46.41295" lon="5.43274">
        <ele>378</ele>
        <time>2019-02-10T11:59:02Z</time>
      </trkpt>
      <trkpt lat="46.41284" lon="5.43298">
        <ele>379</ele>
        <time>2019-02-10T12:00:02Z</time>
      </trkpt>
      <trkpt lat="46.41272" lon="5.43331">
        <ele>379</ele>
        <time>2019-02-10T12:01:02Z</time>
      </trkpt>
      <trkpt lat="46.41259" lon="5.43371">
        <ele>376</ele>
        <time>2019-02-10T12:02:02Z</time>
      </trkpt>
      <trkpt lat="46.4125" lon="5.4339">
        <ele>374</ele>
        <time>2019-02-10T12:03:02Z</time>
      </trkpt>
      <trkpt lat="46.41242" lon="5.43405">
        <ele>374</ele>
        <time>2019-02-10T12:04:02Z</time>
      </trkpt>
      <trkpt lat="46.41232" lon="5.43421">
        <ele>373</ele>
        <time>2019-02-10T12:05:02Z</time>
      </trkpt>
      <trkpt lat="46.41225" lon="5.4343">
        <ele>373</ele>
        <time>2019-02-10T12:06:02Z</time>
      </trkpt>
      <trkpt lat="46.41218" lon="5.4344">
        <ele>373</ele>
        <time>2019-02-10T12:07:02Z</time>
      </trkpt>
      <trkpt lat="46.41202" lon="5.43456">
        <ele>373</ele>
        <time>2019-02-10T12:08:02Z</time>
      </trkpt>
      <trkpt lat="46.41152" lon="5.4349">
        <ele>373</ele>
        <time>2019-02-10T12:09:02Z</time>
      </trkpt>
      <trkpt lat="46.41035" lon="5.43569">
        <ele>376</ele>
        <time>2019-02-10T12:10:02Z</time>
      </trkpt>
      <trkpt lat="46.4099" lon="5.43601">
        <ele>379</ele>
        <time>2019-02-10T12:11:02Z</time>
      </trkpt>
      <trkpt lat="46.40967" lon="5.43618">
        <ele>381</ele>
        <time>2019-02-10T12:12:02Z</time>
      </trkpt>
      <trkpt lat="46.40949" lon="5.43628">
        <ele>381</ele>
        <time>2019-02-10T12:13:02Z</time>
      </trkpt>
      <trkpt lat="46.4093" lon="5.43638">
        <ele>380</ele>
        <time>2019-02-10T12:14:02Z</time>
      </trkpt>
      <trkpt lat="46.40915" lon="5.43645">
        <ele>379</ele>
        <time>2019-02-10T12:15:02Z</time>
      </trkpt>
      <trkpt lat="46.40862" lon="5.43662">
        <ele>379</ele>
        <time>2019-02-10T12:16:02Z</time>
      </trkpt>
      <trkpt lat="46.40848" lon="5.43667">
        <ele>378</ele>
        <time>2019-02-10T12:17:02Z</time>
      </trkpt>
      <trkpt lat="46.40822" lon="5.43677">
        <ele>381</ele>
        <time>2019-02-10T12:18:02Z</time>
      </trkpt>
      <trkpt lat="46.40792" lon="5.43684">
        <ele>383</ele>
        <time>2019-02-10T12:19:02Z</time>
      </trkpt>
      <trkpt lat="46.40771" lon="5.43685">
        <ele>382</ele>
        <time>2019-02-10T12:20:02Z</time>
      </trkpt>
      <trkpt lat="46.40757" lon="5.43685">
        <ele>382</ele>
        <time>2019-02-10T12:21:02Z</time>
      </trkpt>
      <trkpt lat="46.40738" lon="5.43683">
        <ele>382</ele>
        <time>2019-02-10T12:22:02Z</time>
      </trkpt>
      <trkpt lat="46.40696" lon="5.43676">
        <ele>380</ele>
        <time>2019-02-10T12:23:02Z</time>
      </trkpt>
      <trkpt lat="46.40677" lon="5.43673">
        <ele>379</ele>
        <time>2019-02-10T12:24:02Z</time>
      </trkpt>
      <trkpt lat="46.40662" lon="5.43674">
        <ele>380.3</ele>
        <time>2019-02-10T12:25:02Z</time>
      </trkpt>
      <trkpt lat="46.4058" lon="5.43679">
        <ele>377</ele>
        <time>2019-02-10T12:26:02Z</time>
      </trkpt>
      <trkpt lat="46.40559" lon="5.43681">
        <ele>377</ele>
        <time>2019-02-10T12:27:02Z</time>
      </trkpt>
      <trkpt lat="46.40537" lon="5.43687">
        <ele>378</ele>
        <time>2019-02-10T12:28:02Z</time>
      </trkpt>
      <trkpt lat="46.40517" lon="5.43697">
        <ele>379</ele>
        <time>2019-02-10T12:29:02Z</time>
      </trkpt>
      <trkpt lat="46.40505" lon="5.43705">
        <ele>380</ele>
        <time>2019-02-10T12:30:02Z</time>
      </trkpt>
      <trkpt lat="46.4049" lon="5.43719">
        <ele>381</ele>
        <time>2019-02-10T12:31:02Z</time>
      </trkpt>
      <trkpt lat="46.40401" lon="5.43834">
        <ele>382</ele>
        <time>2019-02-10T12:32:02Z</time>
      </trkpt>
      <trkpt lat="46.40347" lon="5.43907">
        <ele>377</ele>
        <time>2019-02-10T12:33:02Z</time>
      </trkpt>
      <trkpt lat="46.40332" lon="5.43927">
        <ele>374</ele>
        <time>2019-02-10T12:34:02Z</time>
      </trkpt>
      <trkpt lat="46.40305" lon="5.43964">
        <ele>376</ele>
        <time>2019-02-10T12:35:02Z</time>
      </trkpt>
      <trkpt lat="46.40283" lon="5.43994">
        <ele>374</ele>
        <time>2019-02-10T12:36:02Z</time>
      </trkpt>
      <trkpt lat="46.4025" lon="5.44033">
        <ele>372</ele>
        <time>2019-02-10T12:37:02Z</time>
      </trkpt>
      <trkpt lat="46.40235" lon="5.44052">
        <ele>374</ele>
        <time>2019-02-10T12:38:02Z</time>
      </trkpt>
      <trkpt lat="46.40229" lon="5.44064">
        <ele>374</ele>
        <time>2019-02-10T12:39:02Z</time>
      </trkpt>
      <trkpt lat="46.40226" lon="5.44078">
        <ele>374</ele>
        <time>2019-02-10T12:40:02Z</time>
      </trkpt>
      <trkpt lat="46.40224" lon="5.44094">
        <ele>374</ele>
        <time>2019-02-10T12:41:02Z</time>
      </trkpt>
      <trkpt lat="46.40221" lon="5.44114">
        <ele>373</ele>
        <time>2019-02-10T12:42:02Z</time>
      </trkpt>
      <trkpt lat="46.40221" lon="5.44138">
        <ele>372</ele>
        <time>2019-02-10T12:43:02Z</time>
      </trkpt>
      <trkpt lat="46.40222" lon="5.44164">
        <ele>371</ele>
        <time>2019-02-10T12:44:02Z</time>
      </trkpt>
      <trkpt lat="46.40226" lon="5.44188">
        <ele>370</ele>
        <time>2019-02-10T12:45:02Z</time>
      </trkpt>
      <trkpt lat="46.40231" lon="5.4422">
        <ele>367</ele>
        <time>2019-02-10T12:46:02Z</time>
      </trkpt>
      <trkpt lat="46.40236" lon="5.44254">
        <ele>365</ele>
        <time>2019-02-10T12:47:02Z</time>
      </trkpt>
      <trkpt lat="46.40238" lon="5.44281">
        <ele>365</ele>
        <time>2019-02-10T12:48:02Z</time>
      </trkpt>
      <trkpt lat="46.40239" lon="5.44302">
        <ele>364</ele>
        <time>2019-02-10T12:49:02Z</time>
      </trkpt>
      <trkpt lat="46.40238" lon="5.44324">
        <ele>364</ele>
        <time>2019-02-10T12:50:02Z</time>
      </trkpt>
      <trkpt lat="46.40236" lon="5.4434">
        <ele>363</ele>
        <time>2019-02-10T12:51:02Z</time>
      </trkpt>
      <trkpt lat="46.40233" lon="5.4435">
        <ele>363</ele>
        <time>2019-02-10T12:52:02Z</time>
      </trkpt>
      <trkpt lat="46.40225" lon="5.44367">
        <ele>362</ele>
        <time>2019-02-10T12:53:02Z</time>
      </trkpt>
      <trkpt lat="46.4021" lon="5.44388">
        <ele>361</ele>
        <time>2019-02-10T12:54:02Z</time>
      </trkpt>
      <trkpt lat="46.40192" lon="5.44414">
        <ele>360</ele>
        <time>2019-02-10T13:09:02Z</time>
      </trkpt>
      <trkpt lat="46.40173" lon="5.44434">
        <ele>360</ele>
        <time>2019-02-10T13:10:02Z</time>
      </trkpt>
      <trkpt lat="46.40155" lon="5.44451">
        <ele>359</ele>
        <time>2019-02-10T13:11:02Z</time>
      </trkpt>
      <trkpt lat="46.40137" lon="5.44469">
        <ele>359</ele>
        <time>2019-02-10T13:12:02Z</time>
      </trkpt>
      <trkpt lat="46.40117" lon="5.44488">
        <ele>359</ele>
        <time>2019-02-10T13:13:02Z</time>
      </trkpt>
      <trkpt lat="46.40098" lon="5.44503">
        <ele>359</ele>
        <time>2019-02-10T13:14:02Z</time>
      </trkpt>
      <trkpt lat="46.40084" lon="5.44514">
        <ele>359</ele>
        <time>2019-02-10T13:15:02Z</time>
      </trkpt>
      <trkpt lat="46.40063" lon="5.44528">
        <ele>359</ele>
        <time>2019-02-10T13:16:02Z</time>
      </trkpt>
      <trkpt lat="46.40042" lon="5.44542">
        <ele>359</ele>
        <time>2019-02-10T13:17:02Z</time>
      </trkpt>
      <trkpt lat="46.40015" lon="5.44557">
        <ele>359</ele>
        <time>2019-02-10T13:20:02Z</time>
      </trkpt>
      <trkpt lat="46.3999" lon="5.44572">
        <ele>359</ele>
        <time>2019-02-10T13:21:02Z</time>
      </trkpt>
      <trkpt lat="46.39964" lon="5.44588">
        <ele>359</ele>
        <time>2019-02-10T13:22:02Z</time>
      </trkpt>
      <trkpt lat="46.39946" lon="5.44598">
        <ele>358</ele>
        <time>2019-02-10T13:23:02Z</time>
      </trkpt>
      <trkpt lat="46.39937" lon="5.44605">
        <ele>358</ele>
        <time>2019-02-10T13:24:02Z</time>
      </trkpt>
      <trkpt lat="46.39923" lon="5.44617">
        <ele>358</ele>
        <time>2019-02-10T13:25:02Z</time>
      </trkpt>
      <trkpt lat="46.39908" lon="5.44635">
        <ele>358</ele>
        <time>2019-02-10T13:26:02Z</time>
      </trkpt>
      <trkpt lat="46.39903" lon="5.44643">
        <ele>358</ele>
        <time>2019-02-10T13:27:02Z</time>
      </trkpt>
      <trkpt lat="46.39895" lon="5.44658">
        <ele>358</ele>
        <time>2019-02-10T13:28:02Z</time>
      </trkpt>
      <trkpt lat="46.39886" lon="5.44675">
        <ele>358</ele>
        <time>2019-02-10T13:29:02Z</time>
      </trkpt>
      <trkpt lat="46.39867" lon="5.44706">
        <ele>357</ele>
        <time>2019-02-10T13:30:02Z</time>
      </trkpt>
      <trkpt lat="46.39843" lon="5.44748">
        <ele>357</ele>
        <time>2019-02-10T13:31:02Z</time>
      </trkpt>
      <trkpt lat="46.39819" lon="5.44786">
        <ele>358</ele>
        <time>2019-02-10T13:32:02Z</time>
      </trkpt>
      <trkpt lat="46.39798" lon="5.44819">
        <ele>358</ele>
        <time>2019-02-10T13:37:02Z</time>
      </trkpt>
      <trkpt lat="46.39786" lon="5.44837">
        <ele>358</ele>
        <time>2019-02-10T13:38:02Z</time>
      </trkpt>
      <trkpt lat="46.39772" lon="5.44861">
        <ele>357</ele>
        <time>2019-02-10T13:39:02Z</time>
      </trkpt>
      <trkpt lat="46.39741" lon="5.44905">
        <ele>354</ele>
        <time>2019-02-10T13:40:02Z</time>
      </trkpt>
      <trkpt lat="46.39725" lon="5.44929">
        <ele>353</ele>
        <time>2019-02-10T13:41:02Z</time>
      </trkpt>
      <trkpt lat="46.39714" lon="5.44946">
        <ele>353</ele>
        <time>2019-02-10T13:42:02Z</time>
      </trkpt>
      <trkpt lat="46.39709" lon="5.44957">
        <ele>353</ele>
        <time>2019-02-10T13:43:02Z</time>
      </trkpt>
      <trkpt lat="46.39709" lon="5.44957">
        <ele>353</ele>
        <time>2019-02-10T13:44:02Z</time>
      </trkpt>
      <trkpt lat="46.39709" lon="5.44957">
        <ele>353</ele>
        <time>2019-02-10T13:45:02Z</time>
      </trkpt>
      <trkpt lat="46.39709" lon="5.44957">
        <ele>353</ele>
        <time>2019-02-10T13:46:02Z</time>
      </trkpt>
      <trkpt lat="46.39702" lon="5.44977">
        <ele>352</ele>
        <time>2019-02-10T13:47:02Z</time>
      </trkpt>
      <trkpt lat="46.39694" lon="5.45">
        <ele>352</ele>
        <time>2019-02-10T13:48:02Z</time>
      </trkpt>
      <trkpt lat="46.3967" lon="5.4507">
        <ele>352</ele>
        <time>2019-02-10T13:49:02Z</time>
      </trkpt>
      <trkpt lat="46.39664" lon="5.45089">
        <ele>352</ele>
        <time>2019-02-10T13:50:02Z</time>
      </trkpt>
      <trkpt lat="46.39657" lon="5.45105">
        <ele>354</ele>
        <time>2019-02-10T13:53:02Z</time>
      </trkpt>
      <trkpt lat="46.39653" lon="5.45117">
        <ele>354</ele>
        <time>2019-02-10T13:54:02Z</time>
      </trkpt>
      <trkpt lat="46.39648" lon="5.45128">
        <ele>355</ele>
        <time>2019-02-10T13:55:02Z</time>
      </trkpt>
      <trkpt lat="46.39631" lon="5.45171">
        <ele>367</ele>
        <time>2019-02-10T13:56:02Z</time>
      </trkpt>
      <trkpt lat="46.39625" lon="5.45171">
        <ele>361</ele>
        <time>2019-02-10T13:57:02Z</time>
      </trkpt>
      <trkpt lat="46.3962" lon="5.4517">
        <ele>361</ele>
        <time>2019-02-10T13:58:02Z</time>
      </trkpt>
      <trkpt lat="46.39606" lon="5.45169">
        <ele>361</ele>
        <time>2019-02-10T13:59:02Z</time>
      </trkpt>
      <trkpt lat="46.39588" lon="5.45166">
        <ele>362</ele>
        <time>2019-02-10T14:00:02Z</time>
      </trkpt>
      <trkpt lat="46.39569" lon="5.45165">
        <ele>362</ele>
        <time>2019-02-10T14:01:02Z</time>
      </trkpt>
      <trkpt lat="46.3956" lon="5.45167">
        <ele>362</ele>
        <time>2019-02-10T14:02:02Z</time>
      </trkpt>
      <trkpt lat="46.39553" lon="5.45169">
        <ele>363</ele>
        <time>2019-02-10T14:03:02Z</time>
      </trkpt>
      <trkpt lat="46.3954" lon="5.45177">
        <ele>365</ele>
        <time>2019-02-10T14:04:02Z</time>
      </trkpt>
      <trkpt lat="46.39529" lon="5.45184">
        <ele>367</ele>
        <time>2019-02-10T14:05:02Z</time>
      </trkpt>
      <trkpt lat="46.39489" lon="5.45202">
        <ele>370</ele>
        <time>2019-02-10T14:06:02Z</time>
      </trkpt>
      <trkpt lat="46.39453" lon="5.45218">
        <ele>373</ele>
        <time>2019-02-10T14:07:02Z</time>
      </trkpt>
      <trkpt lat="46.39417" lon="5.45235">
        <ele>376</ele>
        <time>2019-02-10T14:08:02Z</time>
      </trkpt>
      <trkpt lat="46.394" lon="5.45246">
        <ele>378</ele>
        <time>2019-02-10T14:09:02Z</time>
      </trkpt>
      <trkpt lat="46.39391" lon="5.45259">
        <ele>382.5</ele>
        <time>2019-02-10T14:10:02Z</time>
      </trkpt>
      <trkpt lat="46.39384" lon="5.45261">
        <ele>380</ele>
        <time>2019-02-10T14:11:02Z</time>
      </trkpt>
      <trkpt lat="46.39374" lon="5.45266">
        <ele>381</ele>
        <time>2019-02-10T14:12:02Z</time>
      </trkpt>
      <trkpt lat="46.3936" lon="5.45272">
        <ele>382</ele>
        <time>2019-02-10T14:13:02Z</time>
      </trkpt>
      <trkpt lat="46.39338" lon="5.45284">
        <ele>383</ele>
        <time>2019-02-10T14:14:02Z</time>
      </trkpt>
      <trkpt lat="46.3933" lon="5.45286">
        <ele>383</ele>
        <time>2019-02-10T14:15:02Z</time>
      </trkpt>
      <trkpt lat="46.39326" lon="5.45288">
        <ele>383</ele>
        <time>2019-02-10T14:16:02Z</time>
      </trkpt>
      <trkpt lat="46.39316" lon="5.45291">
        <ele>384</ele>
        <time>2019-02-10T14:17:02Z</time>
      </trkpt>
      <trkpt lat="46.39295" lon="5.45297">
        <ele>385</ele>
        <time>2019-02-10T14:18:02Z</time>
      </trkpt>
      <trkpt lat="46.39295" lon="5.45297">
        <ele>385</ele>
        <time>2019-02-10T14:19:02Z</time>
      </trkpt>
      <trkpt lat="46.393" lon="5.45304">
        <ele>386</ele>
        <time>2019-02-10T14:20:02Z</time>
      </trkpt>
      <trkpt lat="46.39315" lon="5.45318">
        <ele>388</ele>
        <time>2019-02-10T14:21:02Z</time>
      </trkpt>
      <trkpt lat="46.39341" lon="5.4534">
        <ele>390</ele>
        <time>2019-02-10T14:22:02Z</time>
      </trkpt>
      <trkpt lat="46.39367" lon="5.45358">
        <ele>392</ele>
        <time>2019-02-10T14:23:02Z</time>
      </trkpt>
      <trkpt lat="46.39374" lon="5.45363">
        <ele>392</ele>
        <time>2019-02-10T14:24:02Z</time>
      </trkpt>
      <trkpt lat="46.39378" lon="5.45369">
        <ele>392.2</ele>
        <time>2019-02-10T14:25:02Z</time>
      </trkpt>
      <trkpt lat="46.39382" lon="5.4538">
        <ele>392.3</ele>
        <time>2019-02-10T14:26:02Z</time>
      </trkpt>
      <trkpt lat="46.39386" lon="5.45386">
        <ele>393</ele>
        <time>2019-02-10T14:27:02Z</time>
      </trkpt>
      <trkpt lat="46.39388" lon="5.454">
        <ele>393</ele>
        <time>2019-02-10T14:28:02Z</time>
      </trkpt>
      <trkpt lat="46.39389" lon="5.45409">
        <ele>393</ele>
        <time>2019-02-10T14:29:02Z</time>
      </trkpt>
      <trkpt lat="46.3939" lon="5.45417">
        <ele>393</ele>
        <time>2019-02-10T14:30:02Z</time>
      </trkpt>
      <trkpt lat="46.39389" lon="5.45431">
        <ele>392</ele>
        <time>2019-02-10T14:31:02Z</time>
      </trkpt>
      <trkpt lat="46.39387" lon="5.45444">
        <ele>392</ele>
        <time>2019-02-10T14:32:02Z</time>
      </trkpt>
      <trkpt lat="46.3938" lon="5.45454">
        <ele>391</ele>
        <time>2019-02-10T14:33:02Z</time>
      </trkpt>
      <trkpt lat="46.39372" lon="5.45462">
        <ele>391</ele>
        <time>2019-02-10T14:34:02Z</time>
      </trkpt>
      <trkpt lat="46.39362" lon="5.45476">
        <ele>391</ele>
        <time>2019-02-10T14:35:02Z</time>
      </trkpt>
      <trkpt lat="46.39353" lon="5.45489">
        <ele>391</ele>
        <time>2019-02-10T14:36:02Z</time>
      </trkpt>
      <trkpt lat="46.39345" lon="5.45504">
        <ele>390</ele>
        <time>2019-02-10T14:37:02Z</time>
      </trkpt>
      <trkpt lat="46.39338" lon="5.45523">
        <ele>389</ele>
        <time>2019-02-10T14:38:02Z</time>
      </trkpt>
      <trkpt lat="46.39332" lon="5.45547">
        <ele>387</ele>
        <time>2019-02-10T14:39:02Z</time>
      </trkpt>
      <trkpt lat="46.39331" lon="5.45563">
        <ele>385</ele>
        <time>2019-02-10T14:40:02Z</time>
      </trkpt>
      <trkpt lat="46.39329" lon="5.45589">
        <ele>383</ele>
        <time>2019-02-10T14:41:02Z</time>
      </trkpt>
      <trkpt lat="46.39326" lon="5.45629">
        <ele>380</ele>
        <time>2019-02-10T14:42:02Z</time>
      </trkpt>
      <trkpt lat="46.39324" lon="5.45672">
        <ele>378</ele>
        <time>2019-02-10T14:43:02Z</time>
      </trkpt>
      <trkpt lat="46.39324" lon="5.45697">
        <ele>378</ele>
        <time>2019-02-10T14:44:02Z</time>
      </trkpt>
      <trkpt lat="46.39328" lon="5.45717">
        <ele>379</ele>
        <time>2019-02-10T14:45:02Z</time>
      </trkpt>
      <trkpt lat="46.3933" lon="5.45725">
        <ele>379</ele>
        <time>2019-02-10T14:46:02Z</time>
      </trkpt>
      <trkpt lat="46.39335" lon="5.45734">
        <ele>379</ele>
        <time>2019-02-10T14:47:02Z</time>
      </trkpt>
      <trkpt lat="46.3934" lon="5.45744">
        <ele>379</ele>
        <time>2019-02-10T14:48:02Z</time>
      </trkpt>
      <trkpt lat="46.39352" lon="5.45761">
        <ele>380</ele>
        <time>2019-02-10T14:49:02Z</time>
      </trkpt>
      <trkpt lat="46.39367" lon="5.45782">
        <ele>382</ele>
        <time>2019-02-10T14:50:02Z</time>
      </trkpt>
      <trkpt lat="46.39385" lon="5.45805">
        <ele>384</ele>
        <time>2019-02-10T14:51:02Z</time>
      </trkpt>
      <trkpt lat="46.39405" lon="5.45831">
        <ele>386</ele>
        <time>2019-02-10T14:52:02Z</time>
      </trkpt>
      <trkpt lat="46.39422" lon="5.45856">
        <ele>388</ele>
        <time>2019-02-10T14:53:02Z</time>
      </trkpt>
      <trkpt lat="46.39434" lon="5.45874">
        <ele>391</ele>
        <time>2019-02-10T14:54:02Z</time>
      </trkpt>
      <trkpt lat="46.3944" lon="5.45885">
        <ele>392</ele>
        <time>2019-02-10T14:55:02Z</time>
      </trkpt>
      <trkpt lat="46.39444" lon="5.45892">
        <ele>393</ele>
        <time>2019-02-10T14:56:02Z</time>
      </trkpt>
      <trkpt lat="46.39454" lon="5.45919">
        <ele>396</ele>
        <time>2019-02-10T14:57:02Z</time>
      </trkpt>
      <trkpt lat="46.3946" lon="5.45942">
        <ele>397</ele>
        <time>2019-02-10T14:58:02Z</time>
      </trkpt>
      <trkpt lat="46.39463" lon="5.45966">
        <ele>399</ele>
        <time>2019-02-10T14:59:02Z</time>
      </trkpt>
      <trkpt lat="46.39466" lon="5.45993">
        <ele>400</ele>
        <time>2019-02-10T15:00:02Z</time>
      </trkpt>
      <trkpt lat="46.39467" lon="5.46025">
        <ele>400</ele>
        <time>2019-02-10T15:01:02Z</time>
      </trkpt>
      <trkpt lat="46.39466" lon="5.46055">
        <ele>400</ele>
        <time>2019-02-10T15:02:02Z</time>
      </trkpt>
      <trkpt lat="46.39464" lon="5.46078">
        <ele>400</ele>
        <time>2019-02-10T15:03:02Z</time>
      </trkpt>
      <trkpt lat="46.3946" lon="5.46109">
        <ele>401</ele>
        <time>2019-02-10T15:04:02Z</time>
      </trkpt>
      <trkpt lat="46.39454" lon="5.4614">
        <ele>401</ele>
        <time>2019-02-10T15:05:02Z</time>
      </trkpt>
      <trkpt lat="46.3945" lon="5.46172">
        <ele>402</ele>
        <time>2019-02-10T15:06:02Z</time>
      </trkpt>
      <trkpt lat="46.39444" lon="5.46214">
        <ele>403</ele>
        <time>2019-02-10T15:07:02Z</time>
      </trkpt>
      <trkpt lat="46.3944" lon="5.46248">
        <ele>403</ele>
        <time>2019-02-10T15:08:02Z</time>
      </trkpt>
      <trkpt lat="46.39438" lon="5.46272">
        <ele>403</ele>
        <time>2019-02-10T15:09:02Z</time>
      </trkpt>
      <trkpt lat="46.39438" lon="5.46293">
        <ele>403</ele>
        <time>2019-02-10T15:10:02Z</time>
      </trkpt>
      <trkpt lat="46.39439" lon="5.46306">
        <ele>403</ele>
        <time>2019-02-10T15:11:02Z</time>
      </trkpt>
      <trkpt lat="46.39442" lon="5.46325">
        <ele>403</ele>
        <time>2019-02-10T15:12:02Z</time>
      </trkpt>
      <trkpt lat="46.39449" lon="5.46343">
        <ele>404</ele>
        <time>2019-02-10T15:13:02Z</time>
      </trkpt>
      <trkpt lat="46.39455" lon="5.46359">
        <ele>404</ele>
        <time>2019-02-10T15:14:02Z</time>
      </trkpt>
      <trkpt lat="46.39466" lon="5.46381">
        <ele>404</ele>
        <time>2019-02-10T15:15:02Z</time>
      </trkpt>
      <trkpt lat="46.39482" lon="5.46413">
        <ele>405</ele>
        <time>2019-02-10T15:16:02Z</time>
      </trkpt>
      <trkpt lat="46.3949" lon="5.46428">
        <ele>406</ele>
        <time>2019-02-10T15:17:02Z</time>
      </trkpt>
      <trkpt lat="46.39507" lon="5.46453">
        <ele>407</ele>
        <time>2019-02-10T15:18:02Z</time>
      </trkpt>
      <trkpt lat="46.39516" lon="5.46464">
        <ele>407</ele>
        <time>2019-02-10T15:19:02Z</time>
      </trkpt>
      <trkpt lat="46.39532" lon="5.46484">
        <ele>409</ele>
        <time>2019-02-10T15:20:02Z</time>
      </trkpt>
      <trkpt lat="46.39546" lon="5.465">
        <ele>410</ele>
        <time>2019-02-10T15:21:02Z</time>
      </trkpt>
      <trkpt lat="46.39559" lon="5.46513">
        <ele>411</ele>
        <time>2019-02-10T15:22:02Z</time>
      </trkpt>
      <trkpt lat="46.39564" lon="5.4652">
        <ele>412</ele>
        <time>2019-02-10T15:24:02Z</time>
      </trkpt>
      <trkpt lat="46.39576" lon="5.46533">
        <ele>414</ele>
        <time>2019-02-10T15:25:02Z</time>
      </trkpt>
      <trkpt lat="46.39579" lon="5.46536">
        <ele>414</ele>
        <time>2019-02-10T15:26:02Z</time>
      </trkpt>
      <trkpt lat="46.39591" lon="5.4655">
        <ele>415</ele>
        <time>2019-02-10T15:27:02Z</time>
      </trkpt>
      <trkpt lat="46.39613" lon="5.46573">
        <ele>416</ele>
        <time>2019-02-10T15:28:02Z</time>
      </trkpt>
      <trkpt lat="46.39629" lon="5.46591">
        <ele>418</ele>
        <time>2019-02-10T15:29:02Z</time>
      </trkpt>
      <trkpt lat="46.39643" lon="5.46608">
        <ele>419</ele>
        <time>2019-02-10T15:30:02Z</time>
      </trkpt>
      <trkpt lat="46.39651" lon="5.4662">
        <ele>421</ele>
        <time>2019-02-10T15:31:02Z</time>
      </trkpt>
      <trkpt lat="46.39658" lon="5.46634">
        <ele>422</ele>
        <time>2019-02-10T15:32:02Z</time>
      </trkpt>
      <trkpt lat="46.39665" lon="5.46649">
        <ele>423</ele>
        <time>2019-02-10T15:33:02Z</time>
      </trkpt>
      <trkpt lat="46.39683" lon="5.46693">
        <ele>426</ele>
        <time>2019-02-10T15:34:02Z</time>
      </trkpt>
      <trkpt lat="46.39692" lon="5.46716">
        <ele>428</ele>
        <time>2019-02-10T15:35:02Z</time>
      </trkpt>
      <trkpt lat="46.39701" lon="5.46743">
        <ele>429</ele>
        <time>2019-02-10T15:36:02Z</time>
      </trkpt>
      <trkpt lat="46.39707" lon="5.46765">
        <ele>430</ele>
        <time>2019-02-10T15:37:02Z</time>
      </trkpt>
      <trkpt lat="46.39713" lon="5.46792">
        <ele>430</ele>
        <time>2019-02-10T15:38:02Z</time>
      </trkpt>
      <trkpt lat="46.39719" lon="5.46819">
        <ele>430</ele>
        <time>2019-02-10T15:39:02Z</time>
      </trkpt>
      <trkpt lat="46.39725" lon="5.46849">
        <ele>430</ele>
        <time>2019-02-10T15:40:02Z</time>
      </trkpt>
      <trkpt lat="46.39732" lon="5.46877">
        <ele>430</ele>
        <time>2019-02-10T15:41:02Z</time>
      </trkpt>
      <trkpt lat="46.3974" lon="5.46908">
        <ele>430</ele>
        <time>2019-02-10T15:42:02Z</time>
      </trkpt>
      <trkpt lat="46.39748" lon="5.46946">
        <ele>431</ele>
        <time>2019-02-10T15:43:02Z</time>
      </trkpt>
      <trkpt lat="46.39762" lon="5.47002">
        <ele>433</ele>
        <time>2019-02-10T15:44:02Z</time>
      </trkpt>
      <trkpt lat="46.39781" lon="5.47074">
        <ele>435</ele>
        <time>2019-02-10T15:45:02Z</time>
      </trkpt>
      <trkpt lat="46.39799" lon="5.47143">
        <ele>438</ele>
        <time>2019-02-10T15:46:02Z</time>
      </trkpt>
      <trkpt lat="46.39809" lon="5.47181">
        <ele>440</ele>
        <time>2019-02-10T15:47:02Z</time>
      </trkpt>
      <trkpt lat="46.39815" lon="5.47204">
        <ele>442</ele>
        <time>2019-02-10T15:48:02Z</time>
      </trkpt>
      <trkpt lat="46.39836" lon="5.47274">
        <ele>446</ele>
        <time>2019-02-10T15:49:02Z</time>
      </trkpt>
      <trkpt lat="46.39849" lon="5.47309">
        <ele>447</ele>
        <time>2019-02-10T15:50:02Z</time>
      </trkpt>
      <trkpt lat="46.39857" lon="5.47334">
        <ele>448</ele>
        <time>2019-02-10T15:51:02Z</time>
      </trkpt>
      <trkpt lat="46.39866" lon="5.47358">
        <ele>449</ele>
        <time>2019-02-10T15:52:02Z</time>
      </trkpt>
      <trkpt lat="46.39876" lon="5.47386">
        <ele>450</ele>
        <time>2019-02-10T15:53:02Z</time>
      </trkpt>
      <trkpt lat="46.39887" lon="5.47414">
        <ele>451</ele>
        <time>2019-02-10T15:54:02Z</time>
      </trkpt>
      <trkpt lat="46.39894" lon="5.47435">
        <ele>452</ele>
        <time>2019-02-10T15:55:02Z</time>
      </trkpt>
      <trkpt lat="46.39907" lon="5.47468">
        <ele>454</ele>
        <time>2019-02-10T15:56:02Z</time>
      </trkpt>
      <trkpt lat="46.39916" lon="5.47493">
        <ele>456</ele>
        <time>2019-02-10T15:57:02Z</time>
      </trkpt>
      <trkpt lat="46.39927" lon="5.47522">
        <ele>458</ele>
        <time>2019-02-10T15:58:02Z</time>
      </trkpt>
      <trkpt lat="46.39931" lon="5.47531">
        <ele>458</ele>
        <time>2019-02-10T16:02:02Z</time>
      </trkpt>
      <trkpt lat="46.39937" lon="5.47547">
        <ele>459</ele>
        <time>2019-02-10T16:03:02Z</time>
      </trkpt>
      <trkpt lat="46.39944" lon="5.47557">
        <ele>460</ele>
        <time>2019-02-10T16:04:02Z</time>
      </trkpt>
      <trkpt lat="46.3995" lon="5.47565">
        <ele>460</ele>
        <time>2019-02-10T16:05:02Z</time>
      </trkpt>
      <trkpt lat="46.39958" lon="5.47573">
        <ele>460</ele>
        <time>2019-02-10T16:06:02Z</time>
      </trkpt>
      <trkpt lat="46.3998" lon="5.47598">
        <ele>461</ele>
        <time>2019-02-10T16:07:02Z</time>
      </trkpt>
      <trkpt lat="46.39997" lon="5.47617">
        <ele>462</ele>
        <time>2019-02-10T16:08:02Z</time>
      </trkpt>
      <trkpt lat="46.40008" lon="5.4763">
        <ele>462</ele>
        <time>2019-02-10T16:09:02Z</time>
      </trkpt>
      <trkpt lat="46.40018" lon="5.47646">
        <ele>463</ele>
        <time>2019-02-10T16:10:02Z</time>
      </trkpt>
      <trkpt lat="46.40023" lon="5.4766">
        <ele>464</ele>
        <time>2019-02-10T16:11:02Z</time>
      </trkpt>
      <trkpt lat="46.40027" lon="5.47672">
        <ele>464</ele>
        <time>2019-02-10T16:12:02Z</time>
      </trkpt>
      <trkpt lat="46.40028" lon="5.47686">
        <ele>465</ele>
        <time>2019-02-10T16:13:02Z</time>
      </trkpt>
      <trkpt lat="46.40026" lon="5.47697">
        <ele>467</ele>
        <time>2019-02-10T16:14:02Z</time>
      </trkpt>
      <trkpt lat="46.40023" lon="5.47705">
        <ele>468</ele>
        <time>2019-02-10T16:15:02Z</time>
      </trkpt>
      <trkpt lat="46.40018" lon="5.4771">
        <ele>469</ele>
        <time>2019-02-10T16:16:02Z</time>
      </trkpt>
      <trkpt lat="46.40011" lon="5.47714">
        <ele>470</ele>
        <time>2019-02-10T16:17:02Z</time>
      </trkpt>
      <trkpt lat="46.39998" lon="5.47712">
        <ele>472</ele>
        <time>2019-02-10T16:18:02Z</time>
      </trkpt>
      <trkpt lat="46.39976" lon="5.47707">
        <ele>472</ele>
        <time>2019-02-10T16:19:02Z</time>
      </trkpt>
      <trkpt lat="46.39956" lon="5.47703">
        <ele>473</ele>
        <time>2019-02-10T16:20:02Z</time>
      </trkpt>
      <trkpt lat="46.39941" lon="5.47699">
        <ele>474</ele>
        <time>2019-02-10T16:21:02Z</time>
      </trkpt>
      <trkpt lat="46.39921" lon="5.47696">
        <ele>475</ele>
        <time>2019-02-10T16:22:02Z</time>
      </trkpt>
      <trkpt lat="46.39908" lon="5.47698">
        <ele>475</ele>
        <time>2019-02-10T16:23:02Z</time>
      </trkpt>
      <trkpt lat="46.39895" lon="5.47704">
        <ele>475</ele>
        <time>2019-02-10T16:24:02Z</time>
      </trkpt>
      <trkpt lat="46.39885" lon="5.47712">
        <ele>475</ele>
        <time>2019-02-10T16:25:02Z</time>
      </trkpt>
      <trkpt lat="46.39874" lon="5.47724">
        <ele>476</ele>
        <time>2019-02-10T16:26:02Z</time>
      </trkpt>
      <trkpt lat="46.39853" lon="5.47751">
        <ele>478</ele>
        <time>2019-02-10T16:27:02Z</time>
      </trkpt>
      <trkpt lat="46.39824" lon="5.47788">
        <ele>480</ele>
        <time>2019-02-10T16:28:02Z</time>
      </trkpt>
      <trkpt lat="46.39799" lon="5.47821">
        <ele>484</ele>
        <time>2019-02-10T16:29:02Z</time>
      </trkpt>
      <trkpt lat="46.39784" lon="5.47841">
        <ele>485</ele>
        <time>2019-02-10T16:30:02Z</time>
      </trkpt>
      <trkpt lat="46.39777" lon="5.4785">
        <ele>485</ele>
        <time>2019-02-10T16:31:02Z</time>
      </trkpt>
      <trkpt lat="46.39771" lon="5.47857">
        <ele>485</ele>
        <time>2019-02-10T16:32:02Z</time>
      </trkpt>
      <trkpt lat="46.39764" lon="5.47861">
        <ele>486</ele>
        <time>2019-02-10T16:33:02Z</time>
      </trkpt>
      <trkpt lat="46.39759" lon="5.47863">
        <ele>486</ele>
        <time>2019-02-10T16:34:02Z</time>
      </trkpt>
      <trkpt lat="46.39752" lon="5.47866">
        <ele>486</ele>
        <time>2019-02-10T16:35:02Z</time>
      </trkpt>
      <trkpt lat="46.39743" lon="5.4787">
        <ele>486.5</ele>
        <time>2019-02-10T16:36:02Z</time>
      </trkpt>
      <trkpt lat="46.3972" lon="5.47872">
        <ele>486.5</ele>
        <time>2019-02-10T16:37:02Z</time>
      </trkpt>
      <trkpt lat="46.39695" lon="5.47872">
        <ele>486.7</ele>
        <time>2019-02-10T16:38:02Z</time>
      </trkpt>
      <trkpt lat="46.39664" lon="5.47871">
        <ele>487</ele>
        <time>2019-02-10T16:39:02Z</time>
      </trkpt>
      <trkpt lat="46.3963" lon="5.47873">
        <ele>487</ele>
        <time>2019-02-10T16:41:02Z</time>
      </trkpt>
      <trkpt lat="46.39614" lon="5.47876">
        <ele>486</ele>
        <time>2019-02-10T16:42:02Z</time>
      </trkpt>
      <trkpt lat="46.39598" lon="5.47879">
        <ele>486</ele>
        <time>2019-02-10T16:43:02Z</time>
      </trkpt>
      <trkpt lat="46.3959" lon="5.47882">
        <ele>486</ele>
        <time>2019-02-10T16:44:02Z</time>
      </trkpt>
      <trkpt lat="46.39581" lon="5.47891">
        <ele>486</ele>
        <time>2019-02-10T16:45:02Z</time>
      </trkpt>
      <trkpt lat="46.39577" lon="5.479">
        <ele>486</ele>
        <time>2019-02-10T16:46:02Z</time>
      </trkpt>
      <trkpt lat="46.39573" lon="5.47908">
        <ele>486</ele>
        <time>2019-02-10T16:47:02Z</time>
      </trkpt>
      <trkpt lat="46.39571" lon="5.47927">
        <ele>486</ele>
        <time>2019-02-10T16:48:02Z</time>
      </trkpt>
      <trkpt lat="46.3957" lon="5.47968">
        <ele>484</ele>
        <time>2019-02-10T16:49:02Z</time>
      </trkpt>
      <trkpt lat="46.39567" lon="5.47992">
        <ele>483</ele>
        <time>2019-02-10T16:50:02Z</time>
      </trkpt>
      <trkpt lat="46.39562" lon="5.48025">
        <ele>481</ele>
        <time>2019-02-10T16:51:02Z</time>
      </trkpt>
      <trkpt lat="46.39557" lon="5.48058">
        <ele>479</ele>
        <time>2019-02-10T16:52:02Z</time>
      </trkpt>
      <trkpt lat="46.39547" lon="5.48117">
        <ele>476</ele>
        <time>2019-02-10T16:53:02Z</time>
      </trkpt>
      <trkpt lat="46.39536" lon="5.48157">
        <ele>474</ele>
        <time>2019-02-10T16:54:02Z</time>
      </trkpt>
      <trkpt lat="46.39527" lon="5.48181">
        <ele>473</ele>
        <time>2019-02-10T16:55:02Z</time>
      </trkpt>
      <trkpt lat="46.39519" lon="5.48195">
        <ele>473</ele>
        <time>2019-02-10T16:56:02Z</time>
      </trkpt>
      <trkpt lat="46.39508" lon="5.48206">
        <ele>473</ele>
        <time>2019-02-10T16:57:02Z</time>
      </trkpt>
      <trkpt lat="46.39501" lon="5.48213">
        <ele>474</ele>
        <time>2019-02-10T16:58:02Z</time>
      </trkpt>
      <trkpt lat="46.39475" lon="5.48236">
        <ele>473</ele>
        <time>2019-02-10T16:59:02Z</time>
      </trkpt>
      <trkpt lat="46.39465" lon="5.48244">
        <ele>472</ele>
        <time>2019-02-10T17:00:02Z</time>
      </trkpt>
      <trkpt lat="46.39454" lon="5.48253">
        <ele>472</ele>
        <time>2019-02-10T17:01:02Z</time>
      </trkpt>
      <trkpt lat="46.39418" lon="5.48286">
        <ele>470</ele>
        <time>2019-02-10T17:02:02Z</time>
      </trkpt>
      <trkpt lat="46.39402" lon="5.483">
        <ele>469</ele>
        <time>2019-02-10T17:03:02Z</time>
      </trkpt>
      <trkpt lat="46.39392" lon="5.48308">
        <ele>468</ele>
        <time>2019-02-10T17:04:02Z</time>
      </trkpt>
      <trkpt lat="46.39356" lon="5.4834">
        <ele>464</ele>
        <time>2019-02-10T17:05:02Z</time>
      </trkpt>
      <trkpt lat="46.39333" lon="5.4836">
        <ele>462</ele>
        <time>2019-02-10T17:06:02Z</time>
      </trkpt>
      <trkpt lat="46.39323" lon="5.48369">
        <ele>462</ele>
        <time>2019-02-10T17:07:02Z</time>
      </trkpt>
      <trkpt lat="46.39312" lon="5.48382">
        <ele>461</ele>
        <time>2019-02-10T17:08:02Z</time>
      </trkpt>
      <trkpt lat="46.39298" lon="5.48402">
        <ele>460</ele>
        <time>2019-02-10T17:09:02Z</time>
      </trkpt>
      <trkpt lat="46.39284" lon="5.48425">
        <ele>459</ele>
        <time>2019-02-10T17:10:02Z</time>
      </trkpt>
      <trkpt lat="46.39274" lon="5.48443">
        <ele>459</ele>
        <time>2019-02-10T17:11:02Z</time>
      </trkpt>
      <trkpt lat="46.39251" lon="5.48489">
        <ele>461</ele>
        <time>2019-02-10T17:12:02Z</time>
      </trkpt>
      <trkpt lat="46.39227" lon="5.48537">
        <ele>462</ele>
        <time>2019-02-10T17:13:02Z</time>
      </trkpt>
      <trkpt lat="46.3921" lon="5.48571">
        <ele>463</ele>
        <time>2019-02-10T17:14:02Z</time>
      </trkpt>
      <trkpt lat="46.392" lon="5.4859">
        <ele>464</ele>
        <time>2019-02-10T17:15:02Z</time>
      </trkpt>
      <trkpt lat="46.39175" lon="5.48637">
        <ele>467</ele>
        <time>2019-02-10T17:16:02Z</time>
      </trkpt>
      <trkpt lat="46.39161" lon="5.48668">
        <ele>468</ele>
        <time>2019-02-10T17:17:02Z</time>
      </trkpt>
      <trkpt lat="46.3915" lon="5.48687">
        <ele>469.9</ele>
        <time>2019-02-10T17:18:02Z</time>
      </trkpt>
      <trkpt lat="46.39141" lon="5.48704">
        <ele>470</ele>
        <time>2019-02-10T17:19:02Z</time>
      </trkpt>
      <trkpt lat="46.39138" lon="5.48707">
        <ele>470</ele>
        <time>2019-02-10T17:20:02Z</time>
      </trkpt>
      <trkpt lat="46.39133" lon="5.48712">
        <ele>471</ele>
        <time>2019-02-10T17:21:02Z</time>
      </trkpt>
      <trkpt lat="46.39123" lon="5.48718">
        <ele>471</ele>
        <time>2019-02-10T17:22:02Z</time>
      </trkpt>
      <trkpt lat="46.39109" lon="5.48722">
        <ele>472</ele>
        <time>2019-02-10T17:23:02Z</time>
      </trkpt>
      <trkpt lat="46.3908" lon="5.48726">
        <ele>474</ele>
        <time>2019-02-10T17:24:02Z</time>
      </trkpt>
      <trkpt lat="46.39067" lon="5.48728">
        <ele>475</ele>
        <time>2019-02-10T17:25:02Z</time>
      </trkpt>
      <trkpt lat="46.39058" lon="5.4873">
        <ele>475</ele>
        <time>2019-02-10T17:26:02Z</time>
      </trkpt>
      <trkpt lat="46.3905" lon="5.48734">
        <ele>476</ele>
        <time>2019-02-10T17:27:02Z</time>
      </trkpt>
      <trkpt lat="46.3904" lon="5.48742">
        <ele>477</ele>
        <time>2019-02-10T17:28:02Z</time>
      </trkpt>
      <trkpt lat="46.3903" lon="5.4875">
        <ele>477</ele>
        <time>2019-02-10T17:29:02Z</time>
      </trkpt>
      <trkpt lat="46.39011" lon="5.48764">
        <ele>478</ele>
        <time>2019-02-10T17:30:02Z</time>
      </trkpt>
      <trkpt lat="46.38997" lon="5.48777">
        <ele>478</ele>
        <time>2019-02-10T17:31:02Z</time>
      </trkpt>
      <trkpt lat="46.38981" lon="5.48797">
        <ele>478</ele>
        <time>2019-02-10T17:32:02Z</time>
      </trkpt>
      <trkpt lat="46.38975" lon="5.48804">
        <ele>478</ele>
        <time>2019-02-10T17:33:02Z</time>
      </trkpt>
      <trkpt lat="46.38958" lon="5.48827">
        <ele>478</ele>
        <time>2019-02-10T17:34:02Z</time>
      </trkpt>
      <trkpt lat="46.38948" lon="5.48839">
        <ele>478</ele>
        <time>2019-02-10T17:35:02Z</time>
      </trkpt>
      <trkpt lat="46.38933" lon="5.48856">
        <ele>477</ele>
        <time>2019-02-10T17:36:02Z</time>
      </trkpt>
      <trkpt lat="46.38911" lon="5.48876">
        <ele>477</ele>
        <time>2019-02-10T17:37:02Z</time>
      </trkpt>
      <trkpt lat="46.38892" lon="5.48891">
        <ele>476</ele>
        <time>2019-02-10T17:38:02Z</time>
      </trkpt>
      <trkpt lat="46.38869" lon="5.48911">
        <ele>474</ele>
        <time>2019-02-10T17:39:02Z</time>
      </trkpt>
      <trkpt lat="46.38848" lon="5.48929">
        <ele>474</ele>
        <time>2019-02-10T17:40:02Z</time>
      </trkpt>
      <trkpt lat="46.38827" lon="5.48947">
        <ele>475</ele>
        <time>2019-02-10T17:41:02Z</time>
      </trkpt>
      <trkpt lat="46.38821" lon="5.48953">
        <ele>475</ele>
        <time>2019-02-10T17:42:02Z</time>
      </trkpt>
      <trkpt lat="46.38783" lon="5.48984">
        <ele>478</ele>
        <time>2019-02-10T17:43:02Z</time>
      </trkpt>
      <trkpt lat="46.38749" lon="5.4901">
        <ele>480</ele>
        <time>2019-02-10T17:44:02Z</time>
      </trkpt>
      <trkpt lat="46.38737" lon="5.49019">
        <ele>481</ele>
        <time>2019-02-10T17:45:02Z</time>
      </trkpt>
      <trkpt lat="46.38725" lon="5.49028">
        <ele>482</ele>
        <time>2019-02-10T17:46:02Z</time>
      </trkpt>
      <trkpt lat="46.38712" lon="5.49037">
        <ele>483</ele>
        <time>2019-02-10T17:47:02Z</time>
      </trkpt>
      <trkpt lat="46.38691" lon="5.49052">
        <ele>485</ele>
        <time>2019-02-10T17:48:02Z</time>
      </trkpt>
      <trkpt lat="46.38679" lon="5.49062">
        <ele>486</ele>
        <time>2019-02-10T17:49:02Z</time>
      </trkpt>
      <trkpt lat="46.38671" lon="5.49068">
        <ele>486</ele>
        <time>2019-02-10T17:50:02Z</time>
      </trkpt>
      <trkpt lat="46.3866" lon="5.49078">
        <ele>487</ele>
        <time>2019-02-10T17:51:02Z</time>
      </trkpt>
      <trkpt lat="46.38638" lon="5.49102">
        <ele>489</ele>
        <time>2019-02-10T17:52:02Z</time>
      </trkpt>
      <trkpt lat="46.3862" lon="5.49122">
        <ele>491</ele>
        <time>2019-02-10T17:53:02Z</time>
      </trkpt>
      <trkpt lat="46.386" lon="5.49145">
        <ele>494</ele>
        <time>2019-02-10T17:54:02Z</time>
      </trkpt>
      <trkpt lat="46.38588" lon="5.49157">
        <ele>495</ele>
        <time>2019-02-10T17:55:02Z</time>
      </trkpt>
      <trkpt lat="46.38576" lon="5.49165">
        <ele>496</ele>
        <time>2019-02-10T17:56:02Z</time>
      </trkpt>
      <trkpt lat="46.38562" lon="5.49175">
        <ele>496</ele>
        <time>2019-02-10T17:57:02Z</time>
      </trkpt>
      <trkpt lat="46.38546" lon="5.49184">
        <ele>497</ele>
        <time>2019-02-10T17:58:02Z</time>
      </trkpt>
      <trkpt lat="46.38529" lon="5.49194">
        <ele>498</ele>
        <time>2019-02-10T17:59:02Z</time>
      </trkpt>
      <trkpt lat="46.3852" lon="5.49199">
        <ele>498</ele>
        <time>2019-02-10T18:00:02Z</time>
      </trkpt>
      <trkpt lat="46.38511" lon="5.49208">
        <ele>499</ele>
        <time>2019-02-10T18:01:02Z</time>
      </trkpt>
      <trkpt lat="46.38501" lon="5.49218">
        <ele>500</ele>
        <time>2019-02-10T18:02:02Z</time>
      </trkpt>
      <trkpt lat="46.38481" lon="5.49236">
        <ele>502</ele>
        <time>2019-02-10T18:03:02Z</time>
      </trkpt>
      <trkpt lat="46.38463" lon="5.49249">
        <ele>503</ele>
        <time>2019-02-10T18:04:02Z</time>
      </trkpt>
      <trkpt lat="46.38439" lon="5.4926">
        <ele>505</ele>
        <time>2019-02-10T18:05:02Z</time>
      </trkpt>
      <trkpt lat="46.38395" lon="5.49269">
        <ele>506</ele>
        <time>2019-02-10T18:06:02Z</time>
      </trkpt>
      <trkpt lat="46.38374" lon="5.49272">
        <ele>507</ele>
        <time>2019-02-10T18:07:02Z</time>
      </trkpt>
      <trkpt lat="46.38366" lon="5.49273">
        <ele>507</ele>
        <time>2019-02-10T18:08:02Z</time>
      </trkpt>
      <trkpt lat="46.38359" lon="5.49276">
        <ele>508</ele>
        <time>2019-02-10T18:09:02Z</time>
      </trkpt>
      <trkpt lat="46.38355" lon="5.49279">
        <ele>509</ele>
        <time>2019-02-10T18:10:02Z</time>
      </trkpt>
      <trkpt lat="46.38353" lon="5.49281">
        <ele>509</ele>
        <time>2019-02-10T18:11:02Z</time>
      </trkpt>
      <trkpt lat="46.38352" lon="5.49283">
        <ele>510</ele>
        <time>2019-02-10T18:12:02Z</time>
      </trkpt>
      <trkpt lat="46.38351" lon="5.49286">
        <ele>511</ele>
        <time>2019-02-10T18:13:02Z</time>
      </trkpt>
      <trkpt lat="46.38351" lon="5.49289">
        <ele>512</ele>
        <time>2019-02-10T18:14:02Z</time>
      </trkpt>
      <trkpt lat="46.38351" lon="5.49293">
        <ele>513</ele>
        <time>2019-02-10T18:15:02Z</time>
      </trkpt>
      <trkpt lat="46.38351" lon="5.49296">
        <ele>514</ele>
        <time>2019-02-10T18:16:02Z</time>
      </trkpt>
      <trkpt lat="46.38352" lon="5.49299">
        <ele>515</ele>
        <time>2019-02-10T18:17:02Z</time>
      </trkpt>
      <trkpt lat="46.38355" lon="5.49303">
        <ele>517</ele>
        <time>2019-02-10T18:21:02Z</time>
      </trkpt>
      <trkpt lat="46.38357" lon="5.49305">
        <ele>517</ele>
        <time>2019-02-10T18:22:02Z</time>
      </trkpt>
      <trkpt lat="46.3836" lon="5.49307">
        <ele>518</ele>
        <time>2019-02-10T18:23:02Z</time>
      </trkpt>
      <trkpt lat="46.38362" lon="5.49307">
        <ele>518</ele>
        <time>2019-02-10T18:24:02Z</time>
      </trkpt>
      <trkpt lat="46.38365" lon="5.49308">
        <ele>518</ele>
        <time>2019-02-10T18:25:02Z</time>
      </trkpt>
      <trkpt lat="46.3837" lon="5.49307">
        <ele>518</ele>
        <time>2019-02-10T18:26:02Z</time>
      </trkpt>
      <trkpt lat="46.38381" lon="5.49306">
        <ele>517</ele>
        <time>2019-02-10T18:27:02Z</time>
      </trkpt>
      <trkpt lat="46.38395" lon="5.49303">
        <ele>516</ele>
        <time>2019-02-10T18:28:02Z</time>
      </trkpt>
      <trkpt lat="46.38418" lon="5.493">
        <ele>515</ele>
        <time>2019-02-10T18:29:02Z</time>
      </trkpt>
      <trkpt lat="46.38441" lon="5.49299">
        <ele>515</ele>
        <time>2019-02-10T18:30:02Z</time>
      </trkpt>
      <trkpt lat="46.38456" lon="5.49298">
        <ele>515</ele>
        <time>2019-02-10T18:31:02Z</time>
      </trkpt>
      <trkpt lat="46.38476" lon="5.49296">
        <ele>515</ele>
        <time>2019-02-10T18:32:02Z</time>
      </trkpt>
      <trkpt lat="46.385" lon="5.49294">
        <ele>515</ele>
        <time>2019-02-10T18:33:02Z</time>
      </trkpt>
      <trkpt lat="46.38524" lon="5.49293">
        <ele>514</ele>
        <time>2019-02-10T18:34:02Z</time>
      </trkpt>
      <trkpt lat="46.38535" lon="5.49293">
        <ele>514</ele>
        <time>2019-02-10T18:35:02Z</time>
      </trkpt>
      <trkpt lat="46.3855" lon="5.49294">
        <ele>514</ele>
        <time>2019-02-10T18:36:02Z</time>
      </trkpt>
      <trkpt lat="46.38562" lon="5.49297">
        <ele>515</ele>
        <time>2019-02-10T18:37:02Z</time>
      </trkpt>
      <trkpt lat="46.38575" lon="5.49301">
        <ele>515</ele>
        <time>2019-02-10T18:38:02Z</time>
      </trkpt>
      <trkpt lat="46.38586" lon="5.49306">
        <ele>516</ele>
        <time>2019-02-10T18:39:02Z</time>
      </trkpt>
      <trkpt lat="46.38599" lon="5.49314">
        <ele>516</ele>
        <time>2019-02-10T18:40:02Z</time>
      </trkpt>
      <trkpt lat="46.38613" lon="5.49326">
        <ele>517</ele>
        <time>2019-02-10T18:41:02Z</time>
      </trkpt>
      <trkpt lat="46.38628" lon="5.49339">
        <ele>519</ele>
        <time>2019-02-10T18:42:02Z</time>
      </trkpt>
      <trkpt lat="46.38648" lon="5.49356">
        <ele>521</ele>
        <time>2019-02-10T18:43:02Z</time>
      </trkpt>
      <trkpt lat="46.38661" lon="5.49366">
        <ele>523</ele>
        <time>2019-02-10T18:44:02Z</time>
      </trkpt>
      <trkpt lat="46.38681" lon="5.4938">
        <ele>524</ele>
        <time>2019-02-10T18:45:02Z</time>
      </trkpt>
      <trkpt lat="46.38704" lon="5.49396">
        <ele>524</ele>
        <time>2019-02-10T18:47:02Z</time>
      </trkpt>
      <trkpt lat="46.38713" lon="5.49401">
        <ele>524</ele>
        <time>2019-02-10T18:48:02Z</time>
      </trkpt>
      <trkpt lat="46.38721" lon="5.49407">
        <ele>524</ele>
        <time>2019-02-10T18:49:02Z</time>
      </trkpt>
      <trkpt lat="46.38728" lon="5.49412">
        <ele>524</ele>
        <time>2019-02-10T18:50:02Z</time>
      </trkpt>
      <trkpt lat="46.38739" lon="5.49421">
        <ele>525</ele>
        <time>2019-02-10T18:51:02Z</time>
      </trkpt>
      <trkpt lat="46.38747" lon="5.49428">
        <ele>526</ele>
        <time>2019-02-10T18:52:02Z</time>
      </trkpt>
      <trkpt lat="46.38755" lon="5.49437">
        <ele>527</ele>
        <time>2019-02-10T18:53:02Z</time>
      </trkpt>
      <trkpt lat="46.38778" lon="5.49465">
        <ele>534</ele>
        <time>2019-02-10T18:54:02Z</time>
      </trkpt>
      <trkpt lat="46.38784" lon="5.49473">
        <ele>536</ele>
        <time>2019-02-10T18:55:02Z</time>
      </trkpt>
      <trkpt lat="46.38791" lon="5.4948">
        <ele>537</ele>
        <time>2019-02-10T18:56:02Z</time>
      </trkpt>
      <trkpt lat="46.38798" lon="5.49485">
        <ele>538</ele>
        <time>2019-02-10T18:57:02Z</time>
      </trkpt>
      <trkpt lat="46.38807" lon="5.49489">
        <ele>539</ele>
        <time>2019-02-10T18:58:02Z</time>
      </trkpt>
      <trkpt lat="46.38813" lon="5.49491">
        <ele>539</ele>
        <time>2019-02-10T18:59:02Z</time>
      </trkpt>
      <trkpt lat="46.38828" lon="5.49493">
        <ele>538</ele>
        <time>2019-02-10T19:01:02Z</time>
      </trkpt>
      <trkpt lat="46.38849" lon="5.49494">
        <ele>535.6</ele>
        <time>2019-02-10T19:02:02Z</time>
      </trkpt>
      <trkpt lat="46.38883" lon="5.49497">
        <ele>534</ele>
        <time>2019-02-10T19:03:02Z</time>
      </trkpt>
      <trkpt lat="46.38909" lon="5.495">
        <ele>542</ele>
        <time>2019-02-10T19:04:02Z</time>
      </trkpt>
      <trkpt lat="46.38937" lon="5.49502">
        <ele>549</ele>
        <time>2019-02-10T19:05:02Z</time>
      </trkpt>
      <trkpt lat="46.38966" lon="5.49509">
        <ele>545</ele>
        <time>2019-02-10T19:06:02Z</time>
      </trkpt>
      <trkpt lat="46.39008" lon="5.4952">
        <ele>548</ele>
        <time>2019-02-10T19:07:02Z</time>
      </trkpt>
      <trkpt lat="46.39038" lon="5.49531">
        <ele>550</ele>
        <time>2019-02-10T19:08:02Z</time>
      </trkpt>
      <trkpt lat="46.39069" lon="5.49545">
        <ele>552</ele>
        <time>2019-02-10T19:09:02Z</time>
      </trkpt>
      <trkpt lat="46.39085" lon="5.49554">
        <ele>554</ele>
        <time>2019-02-10T19:10:02Z</time>
      </trkpt>
      <trkpt lat="46.39103" lon="5.49565">
        <ele>554</ele>
        <time>2019-02-10T19:11:02Z</time>
      </trkpt>
      <trkpt lat="46.39115" lon="5.49573">
        <ele>554</ele>
        <time>2019-02-10T19:12:02Z</time>
      </trkpt>
      <trkpt lat="46.39128" lon="5.49582">
        <ele>555</ele>
        <time>2019-02-10T19:13:02Z</time>
      </trkpt>
      <trkpt lat="46.39145" lon="5.49598">
        <ele>557</ele>
        <time>2019-02-10T19:14:02Z</time>
      </trkpt>
      <trkpt lat="46.39166" lon="5.4962">
        <ele>559</ele>
        <time>2019-02-10T19:15:02Z</time>
      </trkpt>
      <trkpt lat="46.39176" lon="5.49632">
        <ele>559</ele>
        <time>2019-02-10T19:16:02Z</time>
      </trkpt>
      <trkpt lat="46.39184" lon="5.49643">
        <ele>559</ele>
        <time>2019-02-10T19:17:02Z</time>
      </trkpt>
      <trkpt lat="46.39191" lon="5.49654">
        <ele>559</ele>
        <time>2019-02-10T19:18:02Z</time>
      </trkpt>
      <trkpt lat="46.39196" lon="5.49663">
        <ele>559</ele>
        <time>2019-02-10T19:19:02Z</time>
      </trkpt>
      <trkpt lat="46.39199" lon="5.49673">
        <ele>560</ele>
        <time>2019-02-10T19:20:02Z</time>
      </trkpt>
      <trkpt lat="46.39205" lon="5.497">
        <ele>561</ele>
        <time>2019-02-10T19:21:02Z</time>
      </trkpt>
      <trkpt lat="46.39208" lon="5.49726">
        <ele>563</ele>
        <time>2019-02-10T19:22:02Z</time>
      </trkpt>
      <trkpt lat="46.3921" lon="5.49738">
        <ele>564</ele>
        <time>2019-02-10T19:23:02Z</time>
      </trkpt>
      <trkpt lat="46.39211" lon="5.49757">
        <ele>565</ele>
        <time>2019-02-10T19:24:02Z</time>
      </trkpt>
      <trkpt lat="46.3921" lon="5.49788">
        <ele>568</ele>
        <time>2019-02-10T19:25:02Z</time>
      </trkpt>
      <trkpt lat="46.3921" lon="5.49818">
        <ele>570</ele>
        <time>2019-02-10T19:26:02Z</time>
      </trkpt>
      <trkpt lat="46.3921" lon="5.4985">
        <ele>572</ele>
        <time>2019-02-10T19:27:02Z</time>
      </trkpt>
      <trkpt lat="46.39209" lon="5.49873">
        <ele>574</ele>
        <time>2019-02-10T19:28:02Z</time>
      </trkpt>
      <trkpt lat="46.39208" lon="5.49897">
        <ele>576</ele>
        <time>2019-02-10T19:29:02Z</time>
      </trkpt>
      <trkpt lat="46.39206" lon="5.49925">
        <ele>579.3</ele>
        <time>2019-02-10T19:30:02Z</time>
      </trkpt>
      <trkpt lat="46.39205" lon="5.49951">
        <ele>580</ele>
        <time>2019-02-10T19:31:02Z</time>
      </trkpt>
      <trkpt lat="46.39204" lon="5.49969">
        <ele>581</ele>
        <time>2019-02-10T19:32:02Z</time>
      </trkpt>
      <trkpt lat="46.39205" lon="5.49985">
        <ele>581</ele>
        <time>2019-02-10T19:33:02Z</time>
      </trkpt>
      <trkpt lat="46.39207" lon="5.50002">
        <ele>581</ele>
        <time>2019-02-10T19:34:02Z</time>
      </trkpt>
      <trkpt lat="46.3921" lon="5.50018">
        <ele>580</ele>
        <time>2019-02-10T19:35:02Z</time>
      </trkpt>
      <trkpt lat="46.39212" lon="5.50031">
        <ele>579</ele>
        <time>2019-02-10T19:36:02Z</time>
      </trkpt>
      <trkpt lat="46.39213" lon="5.50047">
        <ele>579</ele>
        <time>2019-02-10T19:37:02Z</time>
      </trkpt>
      <trkpt lat="46.39213" lon="5.50063">
        <ele>579</ele>
        <time>2019-02-10T19:38:02Z</time>
      </trkpt>
      <trkpt lat="46.39213" lon="5.50066">
        <ele>579</ele>
        <time>2019-02-10T19:39:02Z</time>
      </trkpt>
      <trkpt lat="46.39212" lon="5.50102">
        <ele>580</ele>
        <time>2019-02-10T19:40:02Z</time>
      </trkpt>
      <trkpt lat="46.39212" lon="5.50135">
        <ele>582</ele>
        <time>2019-02-10T19:41:02Z</time>
      </trkpt>
      <trkpt lat="46.39215" lon="5.5016">
        <ele>582</ele>
        <time>2019-02-10T19:42:02Z</time>
      </trkpt>
      <trkpt lat="46.3922" lon="5.50185">
        <ele>583</ele>
        <time>2019-02-10T19:43:02Z</time>
      </trkpt>
      <trkpt lat="46.39227" lon="5.50203">
        <ele>586.7</ele>
        <time>2019-02-10T19:44:02Z</time>
      </trkpt>
      <trkpt lat="46.39237" lon="5.50221">
        <ele>585</ele>
        <time>2019-02-10T19:45:02Z</time>
      </trkpt>
      <trkpt lat="46.39247" lon="5.50234">
        <ele>586</ele>
        <time>2019-02-10T19:46:02Z</time>
      </trkpt>
      <trkpt lat="46.39255" lon="5.50241">
        <ele>586</ele>
        <time>2019-02-10T19:47:02Z</time>
      </trkpt>
      <trkpt lat="46.39268" lon="5.50254">
        <ele>587</ele>
        <time>2019-02-10T19:48:02Z</time>
      </trkpt>
      <trkpt lat="46.39283" lon="5.50268">
        <ele>586</ele>
        <time>2019-02-10T19:49:02Z</time>
      </trkpt>
      <trkpt lat="46.39296" lon="5.50279">
        <ele>586</ele>
        <time>2019-02-10T19:50:02Z</time>
      </trkpt>
      <trkpt lat="46.39309" lon="5.5029">
        <ele>585</ele>
        <time>2019-02-10T19:51:02Z</time>
      </trkpt>
      <trkpt lat="46.39321" lon="5.50301">
        <ele>586</ele>
        <time>2019-02-10T19:52:02Z</time>
      </trkpt>
      <trkpt lat="46.39327" lon="5.50308">
        <ele>586</ele>
        <time>2019-02-10T19:54:02Z</time>
      </trkpt>
      <trkpt lat="46.39331" lon="5.50316">
        <ele>587</ele>
        <time>2019-02-10T19:55:02Z</time>
      </trkpt>
      <trkpt lat="46.39332" lon="5.50325">
        <ele>588</ele>
        <time>2019-02-10T19:56:02Z</time>
      </trkpt>
      <trkpt lat="46.39333" lon="5.5034">
        <ele>589</ele>
        <time>2019-02-10T19:57:02Z</time>
      </trkpt>
      <trkpt lat="46.39329" lon="5.50366">
        <ele>590</ele>
        <time>2019-02-10T19:58:02Z</time>
      </trkpt>
      <trkpt lat="46.39325" lon="5.50377">
        <ele>590</ele>
        <time>2019-02-10T19:59:02Z</time>
      </trkpt>
      <trkpt lat="46.39316" lon="5.50402">
        <ele>591</ele>
        <time>2019-02-10T20:00:02Z</time>
      </trkpt>
      <trkpt lat="46.39306" lon="5.50425">
        <ele>591</ele>
        <time>2019-02-10T20:01:02Z</time>
      </trkpt>
      <trkpt lat="46.39299" lon="5.50442">
        <ele>590</ele>
        <time>2019-02-10T20:02:02Z</time>
      </trkpt>
      <trkpt lat="46.39294" lon="5.50451">
        <ele>590</ele>
        <time>2019-02-10T20:03:02Z</time>
      </trkpt>
      <trkpt lat="46.3929" lon="5.50457">
        <ele>590</ele>
        <time>2019-02-10T20:04:02Z</time>
      </trkpt>
      <trkpt lat="46.39286" lon="5.50462">
        <ele>590</ele>
        <time>2019-02-10T20:05:02Z</time>
      </trkpt>
      <trkpt lat="46.39282" lon="5.50466">
        <ele>590</ele>
        <time>2019-02-10T20:06:02Z</time>
      </trkpt>
      <trkpt lat="46.39276" lon="5.5047">
        <ele>590</ele>
        <time>2019-02-10T20:07:02Z</time>
      </trkpt>
      <trkpt lat="46.39272" lon="5.50471">
        <ele>590</ele>
        <time>2019-02-10T20:08:02Z</time>
      </trkpt>
      <trkpt lat="46.39268" lon="5.50472">
        <ele>590</ele>
        <time>2019-02-10T20:09:02Z</time>
      </trkpt>
      <trkpt lat="46.39264" lon="5.50473">
        <ele>590</ele>
        <time>2019-02-10T20:10:02Z</time>
      </trkpt>
      <trkpt lat="46.39259" lon="5.50473">
        <ele>590</ele>
        <time>2019-02-10T20:11:02Z</time>
      </trkpt>
      <trkpt lat="46.3925" lon="5.50474">
        <ele>590</ele>
        <time>2019-02-10T20:12:02Z</time>
      </trkpt>
      <trkpt lat="46.39246" lon="5.50475">
        <ele>590</ele>
        <time>2019-02-10T20:13:02Z</time>
      </trkpt>
      <trkpt lat="46.39229" lon="5.50474">
        <ele>590</ele>
        <time>2019-02-10T20:14:02Z</time>
      </trkpt>
      <trkpt lat="46.39217" lon="5.50472">
        <ele>589</ele>
        <time>2019-02-10T20:15:02Z</time>
      </trkpt>
      <trkpt lat="46.39208" lon="5.50468">
        <ele>589</ele>
        <time>2019-02-10T20:16:02Z</time>
      </trkpt>
      <trkpt lat="46.39206" lon="5.50467">
        <ele>589</ele>
        <time>2019-02-10T20:17:02Z</time>
      </trkpt>
      <trkpt lat="46.39187" lon="5.50452">
        <ele>589</ele>
        <time>2019-02-10T20:18:02Z</time>
      </trkpt>
      <trkpt lat="46.39178" lon="5.50446">
        <ele>590</ele>
        <time>2019-02-10T20:19:02Z</time>
      </trkpt>
      <trkpt lat="46.39173" lon="5.50444">
        <ele>590</ele>
        <time>2019-02-10T20:20:02Z</time>
      </trkpt>
      <trkpt lat="46.39168" lon="5.50442">
        <ele>590</ele>
        <time>2019-02-10T20:21:02Z</time>
      </trkpt>
      <trkpt lat="46.39163" lon="5.50441">
        <ele>589</ele>
        <time>2019-02-10T20:22:02Z</time>
      </trkpt>
      <trkpt lat="46.39157" lon="5.50441">
        <ele>589</ele>
        <time>2019-02-10T20:23:02Z</time>
      </trkpt>
      <trkpt lat="46.39145" lon="5.50444">
        <ele>589</ele>
        <time>2019-02-10T20:24:02Z</time>
      </trkpt>
      <trkpt lat="46.39142" lon="5.50445">
        <ele>588</ele>
        <time>2019-02-10T20:25:02Z</time>
      </trkpt>
      <trkpt lat="46.39135" lon="5.5045">
        <ele>588</ele>
        <time>2019-02-10T20:26:02Z</time>
      </trkpt>
      <trkpt lat="46.39118" lon="5.50464">
        <ele>587</ele>
        <time>2019-02-10T20:27:02Z</time>
      </trkpt>
      <trkpt lat="46.39104" lon="5.50478">
        <ele>586</ele>
        <time>2019-02-10T20:28:02Z</time>
      </trkpt>
      <trkpt lat="46.39098" lon="5.50485">
        <ele>586</ele>
        <time>2019-02-10T20:29:02Z</time>
      </trkpt>
      <trkpt lat="46.39087" lon="5.50501">
        <ele>585</ele>
        <time>2019-02-10T20:30:02Z</time>
      </trkpt>
      <trkpt lat="46.39075" lon="5.50526">
        <ele>585</ele>
        <time>2019-02-10T20:31:02Z</time>
      </trkpt>
      <trkpt lat="46.39065" lon="5.50547">
        <ele>584</ele>
        <time>2019-02-10T20:32:02Z</time>
      </trkpt>
      <trkpt lat="46.39057" lon="5.50572">
        <ele>584</ele>
        <time>2019-02-10T20:33:02Z</time>
      </trkpt>
      <trkpt lat="46.39049" lon="5.50597">
        <ele>584</ele>
        <time>2019-02-10T20:34:02Z</time>
      </trkpt>
      <trkpt lat="46.39042" lon="5.50619">
        <ele>584</ele>
        <time>2019-02-10T20:35:02Z</time>
      </trkpt>
      <trkpt lat="46.39035" lon="5.50637">
        <ele>584</ele>
        <time>2019-02-10T20:36:02Z</time>
      </trkpt>
      <trkpt lat="46.39021" lon="5.50665">
        <ele>585</ele>
        <time>2019-02-10T20:37:02Z</time>
      </trkpt>
      <trkpt lat="46.39008" lon="5.50686">
        <ele>583.6</ele>
        <time>2019-02-10T20:38:02Z</time>
      </trkpt>
      <trkpt lat="46.3899" lon="5.50712">
        <ele>586</ele>
        <time>2019-02-10T20:39:02Z</time>
      </trkpt>
      <trkpt lat="46.3898" lon="5.50727">
        <ele>586</ele>
        <time>2019-02-10T20:40:02Z</time>
      </trkpt>
      <trkpt lat="46.3897" lon="5.50742">
        <ele>586</ele>
        <time>2019-02-10T20:41:02Z</time>
      </trkpt>
      <trkpt lat="46.38963" lon="5.50757">
        <ele>586</ele>
        <time>2019-02-10T20:42:02Z</time>
      </trkpt>
      <trkpt lat="46.38955" lon="5.50775">
        <ele>586</ele>
        <time>2019-02-10T20:43:02Z</time>
      </trkpt>
      <trkpt lat="46.38949" lon="5.5079">
        <ele>586</ele>
        <time>2019-02-10T20:44:02Z</time>
      </trkpt>
      <trkpt lat="46.38945" lon="5.5081">
        <ele>586</ele>
        <time>2019-02-10T20:45:02Z</time>
      </trkpt>
      <trkpt lat="46.38942" lon="5.50825">
        <ele>587</ele>
        <time>2019-02-10T20:46:02Z</time>
      </trkpt>
      <trkpt lat="46.38937" lon="5.50849">
        <ele>587</ele>
        <time>2019-02-10T20:47:02Z</time>
      </trkpt>
      <trkpt lat="46.3893" lon="5.50887">
        <ele>589</ele>
        <time>2019-02-10T20:48:02Z</time>
      </trkpt>
      <trkpt lat="46.38923" lon="5.50928">
        <ele>590</ele>
        <time>2019-02-10T20:49:02Z</time>
      </trkpt>
      <trkpt lat="46.38919" lon="5.50956">
        <ele>590</ele>
        <time>2019-02-10T20:50:02Z</time>
      </trkpt>
      <trkpt lat="46.38916" lon="5.50982">
        <ele>589</ele>
        <time>2019-02-10T20:51:02Z</time>
      </trkpt>
      <trkpt lat="46.38914" lon="5.51">
        <ele>589</ele>
        <time>2019-02-10T20:52:02Z</time>
      </trkpt>
      <trkpt lat="46.38912" lon="5.51019">
        <ele>588</ele>
        <time>2019-02-10T20:53:02Z</time>
      </trkpt>
      <trkpt lat="46.38908" lon="5.51052">
        <ele>587</ele>
        <time>2019-02-10T20:54:02Z</time>
      </trkpt>
      <trkpt lat="46.38905" lon="5.51074">
        <ele>586</ele>
        <time>2019-02-10T20:55:02Z</time>
      </trkpt>
      <trkpt lat="46.38901" lon="5.51114">
        <ele>585</ele>
        <time>2019-02-10T20:56:02Z</time>
      </trkpt>
      <trkpt lat="46.38898" lon="5.5115">
        <ele>583</ele>
        <time>2019-02-10T20:57:02Z</time>
      </trkpt>
      <trkpt lat="46.38896" lon="5.51178">
        <ele>583</ele>
        <time>2019-02-10T20:58:02Z</time>
      </trkpt>
      <trkpt lat="46.38893" lon="5.51209">
        <ele>584</ele>
        <time>2019-02-10T20:59:02Z</time>
      </trkpt>
      <trkpt lat="46.3889" lon="5.51237">
        <ele>585</ele>
        <time>2019-02-10T21:00:02Z</time>
      </trkpt>
      <trkpt lat="46.38886" lon="5.51263">
        <ele>586</ele>
        <time>2019-02-10T21:01:02Z</time>
      </trkpt>
      <trkpt lat="46.38881" lon="5.51288">
        <ele>586</ele>
        <time>2019-02-10T21:02:02Z</time>
      </trkpt>
      <trkpt lat="46.38873" lon="5.51305">
        <ele>586</ele>
        <time>2019-02-10T21:03:02Z</time>
      </trkpt>
      <trkpt lat="46.38865" lon="5.51316">
        <ele>587</ele>
        <time>2019-02-10T21:04:02Z</time>
      </trkpt>
      <trkpt lat="46.38852" lon="5.51327">
        <ele>587</ele>
        <time>2019-02-10T21:05:02Z</time>
      </trkpt>
      <trkpt lat="46.3884" lon="5.5133">
        <ele>587</ele>
        <time>2019-02-10T21:06:02Z</time>
      </trkpt>
      <trkpt lat="46.38834" lon="5.51332">
        <ele>587</ele>
        <time>2019-02-10T21:07:02Z</time>
      </trkpt>
      <trkpt lat="46.38824" lon="5.51333">
        <ele>587</ele>
        <time>2019-02-10T21:08:02Z</time>
      </trkpt>
      <trkpt lat="46.38812" lon="5.51334">
        <ele>587</ele>
        <time>2019-02-10T21:09:02Z</time>
      </trkpt>
      <trkpt lat="46.38796" lon="5.5134">
        <ele>587</ele>
        <time>2019-02-10T21:10:02Z</time>
      </trkpt>
      <trkpt lat="46.38793" lon="5.51341">
        <ele>587</ele>
        <time>2019-02-10T21:11:02Z</time>
      </trkpt>
      <trkpt lat="46.38785" lon="5.51347">
        <ele>587</ele>
        <time>2019-02-10T21:12:02Z</time>
      </trkpt>
      <trkpt lat="46.3878" lon="5.51352">
        <ele>587</ele>
        <time>2019-02-10T21:13:02Z</time>
      </trkpt>
      <trkpt lat="46.38767" lon="5.5137">
        <ele>586</ele>
        <time>2019-02-10T21:14:02Z</time>
      </trkpt>
      <trkpt lat="46.38756" lon="5.51389">
        <ele>585</ele>
        <time>2019-02-10T21:15:02Z</time>
      </trkpt>
      <trkpt lat="46.3875" lon="5.51404">
        <ele>584</ele>
        <time>2019-02-10T21:16:02Z</time>
      </trkpt>
      <trkpt lat="46.38744" lon="5.51415">
        <ele>584</ele>
        <time>2019-02-10T21:17:02Z</time>
      </trkpt>
      <trkpt lat="46.38737" lon="5.51426">
        <ele>583</ele>
        <time>2019-02-10T21:18:02Z</time>
      </trkpt>
      <trkpt lat="46.38726" lon="5.51439">
        <ele>582</ele>
        <time>2019-02-10T21:19:02Z</time>
      </trkpt>
      <trkpt lat="46.38712" lon="5.51451">
        <ele>581</ele>
        <time>2019-02-10T21:20:02Z</time>
      </trkpt>
      <trkpt lat="46.38706" lon="5.51454">
        <ele>581</ele>
        <time>2019-02-10T21:21:02Z</time>
      </trkpt>
      <trkpt lat="46.38697" lon="5.51459">
        <ele>581</ele>
        <time>2019-02-10T21:22:02Z</time>
      </trkpt>
      <trkpt lat="46.38682" lon="5.51468">
        <ele>580</ele>
        <time>2019-02-10T21:23:02Z</time>
      </trkpt>
      <trkpt lat="46.38669" lon="5.51474">
        <ele>580</ele>
        <time>2019-02-10T21:24:02Z</time>
      </trkpt>
      <trkpt lat="46.38654" lon="5.51483">
        <ele>579</ele>
        <time>2019-02-10T21:25:02Z</time>
      </trkpt>
      <trkpt lat="46.38636" lon="5.51494">
        <ele>577</ele>
        <time>2019-02-10T21:26:02Z</time>
      </trkpt>
      <trkpt lat="46.38597" lon="5.5152">
        <ele>575</ele>
        <time>2019-02-10T21:27:02Z</time>
      </trkpt>
      <trkpt lat="46.38587" lon="5.51527">
        <ele>575</ele>
        <time>2019-02-10T21:28:02Z</time>
      </trkpt>
      <trkpt lat="46.38579" lon="5.51533">
        <ele>575</ele>
        <time>2019-02-10T21:29:02Z</time>
      </trkpt>
      <trkpt lat="46.38574" lon="5.51538">
        <ele>575</ele>
        <time>2019-02-10T21:30:02Z</time>
      </trkpt>
      <trkpt lat="46.38572" lon="5.51542">
        <ele>575</ele>
        <time>2019-02-10T21:31:02Z</time>
      </trkpt>
      <trkpt lat="46.38569" lon="5.51546">
        <ele>575</ele>
        <time>2019-02-10T21:32:02Z</time>
      </trkpt>
      <trkpt lat="46.38567" lon="5.51555">
        <ele>574</ele>
        <time>2019-02-10T21:33:02Z</time>
      </trkpt>
      <trkpt lat="46.38566" lon="5.51567">
        <ele>574</ele>
        <time>2019-02-10T21:34:02Z</time>
      </trkpt>
      <trkpt lat="46.38568" lon="5.51576">
        <ele>574</ele>
        <time>2019-02-10T21:35:02Z</time>
      </trkpt>
      <trkpt lat="46.38572" lon="5.51589">
        <ele>573</ele>
        <time>2019-02-10T21:36:02Z</time>
      </trkpt>
      <trkpt lat="46.38578" lon="5.51598">
        <ele>573</ele>
        <time>2019-02-10T21:37:02Z</time>
      </trkpt>
      <trkpt lat="46.38587" lon="5.51609">
        <ele>573</ele>
        <time>2019-02-10T21:38:02Z</time>
      </trkpt>
      <trkpt lat="46.38593" lon="5.51617">
        <ele>572</ele>
        <time>2019-02-10T21:39:02Z</time>
      </trkpt>
      <trkpt lat="46.38616" lon="5.51644">
        <ele>571</ele>
        <time>2019-02-10T21:40:02Z</time>
      </trkpt>
      <trkpt lat="46.3863" lon="5.51659">
        <ele>570</ele>
        <time>2019-02-10T21:41:02Z</time>
      </trkpt>
      <trkpt lat="46.3864" lon="5.51672">
        <ele>570</ele>
        <time>2019-02-10T21:42:02Z</time>
      </trkpt>
      <trkpt lat="46.38648" lon="5.51687">
        <ele>569</ele>
        <time>2019-02-10T21:43:02Z</time>
      </trkpt>
      <trkpt lat="46.38654" lon="5.51704">
        <ele>569</ele>
        <time>2019-02-10T21:44:02Z</time>
      </trkpt>
      <trkpt lat="46.3866" lon="5.51732">
        <ele>569</ele>
        <time>2019-02-10T21:45:02Z</time>
      </trkpt>
      <trkpt lat="46.38666" lon="5.51766">
        <ele>568</ele>
        <time>2019-02-10T21:46:02Z</time>
      </trkpt>
      <trkpt lat="46.38668" lon="5.51792">
        <ele>567</ele>
        <time>2019-02-10T21:47:02Z</time>
      </trkpt>
      <trkpt lat="46.38669" lon="5.51822">
        <ele>566</ele>
        <time>2019-02-10T21:48:02Z</time>
      </trkpt>
      <trkpt lat="46.38668" lon="5.51851">
        <ele>565</ele>
        <time>2019-02-10T21:49:02Z</time>
      </trkpt>
      <trkpt lat="46.38666" lon="5.51877">
        <ele>566</ele>
        <time>2019-02-10T21:50:02Z</time>
      </trkpt>
      <trkpt lat="46.38661" lon="5.51904">
        <ele>566</ele>
        <time>2019-02-10T21:51:02Z</time>
      </trkpt>
      <trkpt lat="46.38654" lon="5.51926">
        <ele>566</ele>
        <time>2019-02-10T21:52:02Z</time>
      </trkpt>
      <trkpt lat="46.38652" lon="5.51932">
        <ele>566</ele>
        <time>2019-02-10T21:53:02Z</time>
      </trkpt>
      <trkpt lat="46.38649" lon="5.51939">
        <ele>566</ele>
        <time>2019-02-10T21:54:02Z</time>
      </trkpt>
      <trkpt lat="46.38644" lon="5.5195">
        <ele>566</ele>
        <time>2019-02-10T21:55:02Z</time>
      </trkpt>
      <trkpt lat="46.38634" lon="5.51971">
        <ele>566</ele>
        <time>2019-02-10T21:56:02Z</time>
      </trkpt>
      <trkpt lat="46.3862" lon="5.51993">
        <ele>566</ele>
        <time>2019-02-10T21:57:02Z</time>
      </trkpt>
      <trkpt lat="46.38605" lon="5.52016">
        <ele>566</ele>
        <time>2019-02-10T21:58:02Z</time>
      </trkpt>
      <trkpt lat="46.3859" lon="5.52037">
        <ele>566</ele>
        <time>2019-02-10T21:59:02Z</time>
      </trkpt>
      <trkpt lat="46.38584" lon="5.52046">
        <ele>566</ele>
        <time>2019-02-10T22:00:02Z</time>
      </trkpt>
      <trkpt lat="46.38573" lon="5.52062">
        <ele>566</ele>
        <time>2019-02-10T22:01:02Z</time>
      </trkpt>
      <trkpt lat="46.38567" lon="5.52073">
        <ele>567</ele>
        <time>2019-02-10T22:02:02Z</time>
      </trkpt>
      <trkpt lat="46.38565" lon="5.52075">
        <ele>567</ele>
        <time>2019-02-10T22:03:02Z</time>
      </trkpt>
      <trkpt lat="46.38545" lon="5.52099">
        <ele>565</ele>
        <time>2019-02-10T22:04:02Z</time>
      </trkpt>
      <trkpt lat="46.38537" lon="5.52104">
        <ele>564</ele>
        <time>2019-02-10T22:05:02Z</time>
      </trkpt>
      <trkpt lat="46.38523" lon="5.5211">
        <ele>563</ele>
        <time>2019-02-10T22:06:02Z</time>
      </trkpt>
      <trkpt lat="46.38508" lon="5.52112">
        <ele>563</ele>
        <time>2019-02-10T22:07:02Z</time>
      </trkpt>
      <trkpt lat="46.38479" lon="5.52113">
        <ele>564</ele>
        <time>2019-02-10T22:08:02Z</time>
      </trkpt>
      <trkpt lat="46.38468" lon="5.52114">
        <ele>563</ele>
        <time>2019-02-10T22:09:02Z</time>
      </trkpt>
      <trkpt lat="46.38439" lon="5.52114">
        <ele>564</ele>
        <time>2019-02-10T22:10:02Z</time>
      </trkpt>
      <trkpt lat="46.38417" lon="5.52114">
        <ele>564</ele>
        <time>2019-02-10T22:11:02Z</time>
      </trkpt>
      <trkpt lat="46.38391" lon="5.52115">
        <ele>562</ele>
        <time>2019-02-10T22:12:02Z</time>
      </trkpt>
      <trkpt lat="46.38369" lon="5.52116">
        <ele>561</ele>
        <time>2019-02-10T22:13:02Z</time>
      </trkpt>
      <trkpt lat="46.38348" lon="5.5212">
        <ele>559</ele>
        <time>2019-02-10T22:14:02Z</time>
      </trkpt>
      <trkpt lat="46.38335" lon="5.52122">
        <ele>557</ele>
        <time>2019-02-10T22:16:02Z</time>
      </trkpt>
      <trkpt lat="46.38311" lon="5.52127">
        <ele>556</ele>
        <time>2019-02-10T22:17:02Z</time>
      </trkpt>
      <trkpt lat="46.38178" lon="5.52151">
        <ele>547</ele>
        <time>2019-02-10T22:18:02Z</time>
      </trkpt>
      <trkpt lat="46.38157" lon="5.52155">
        <ele>545</ele>
        <time>2019-02-10T22:19:02Z</time>
      </trkpt>
      <trkpt lat="46.38123" lon="5.52161">
        <ele>543</ele>
        <time>2019-02-10T22:20:02Z</time>
      </trkpt>
      <trkpt lat="46.38097" lon="5.52165">
        <ele>542</ele>
        <time>2019-02-10T22:21:02Z</time>
      </trkpt>
      <trkpt lat="46.38077" lon="5.52169">
        <ele>541</ele>
        <time>2019-02-10T22:22:02Z</time>
      </trkpt>
      <trkpt lat="46.38065" lon="5.52173">
        <ele>541</ele>
        <time>2019-02-10T22:23:02Z</time>
      </trkpt>
      <trkpt lat="46.38059" lon="5.52175">
        <ele>541</ele>
        <time>2019-02-10T22:25:02Z</time>
      </trkpt>
      <trkpt lat="46.38051" lon="5.52179">
        <ele>541</ele>
        <time>2019-02-10T22:26:02Z</time>
      </trkpt>
      <trkpt lat="46.38044" lon="5.52184">
        <ele>540</ele>
        <time>2019-02-10T22:27:02Z</time>
      </trkpt>
      <trkpt lat="46.38039" lon="5.52188">
        <ele>540</ele>
        <time>2019-02-10T22:28:02Z</time>
      </trkpt>
      <trkpt lat="46.38036" lon="5.52193">
        <ele>540</ele>
        <time>2019-02-10T22:29:02Z</time>
      </trkpt>
      <trkpt lat="46.38033" lon="5.52198">
        <ele>539</ele>
        <time>2019-02-10T22:30:02Z</time>
      </trkpt>
      <trkpt lat="46.3803" lon="5.52205">
        <ele>539</ele>
        <time>2019-02-10T22:31:02Z</time>
      </trkpt>
      <trkpt lat="46.38029" lon="5.52211">
        <ele>538</ele>
        <time>2019-02-10T22:32:02Z</time>
      </trkpt>
      <trkpt lat="46.38029" lon="5.52218">
        <ele>538</ele>
        <time>2019-02-10T22:33:02Z</time>
      </trkpt>
      <trkpt lat="46.38029" lon="5.52225">
        <ele>537</ele>
        <time>2019-02-10T22:34:02Z</time>
      </trkpt>
      <trkpt lat="46.3803" lon="5.52233">
        <ele>536</ele>
        <time>2019-02-10T22:35:02Z</time>
      </trkpt>
      <trkpt lat="46.38032" lon="5.52241">
        <ele>535</ele>
        <time>2019-02-10T22:36:02Z</time>
      </trkpt>
      <trkpt lat="46.38035" lon="5.52249">
        <ele>534</ele>
        <time>2019-02-10T22:37:02Z</time>
      </trkpt>
      <trkpt lat="46.38037" lon="5.52254">
        <ele>535</ele>
        <time>2019-02-10T22:38:02Z</time>
      </trkpt>
      <trkpt lat="46.38042" lon="5.52262">
        <ele>535</ele>
        <time>2019-02-10T22:39:02Z</time>
      </trkpt>
      <trkpt lat="46.38049" lon="5.52272">
        <ele>536</ele>
        <time>2019-02-10T22:40:02Z</time>
      </trkpt>
      <trkpt lat="46.38056" lon="5.52281">
        <ele>536</ele>
        <time>2019-02-10T22:41:02Z</time>
      </trkpt>
      <trkpt lat="46.38062" lon="5.52286">
        <ele>536</ele>
        <time>2019-02-10T22:42:02Z</time>
      </trkpt>
      <trkpt lat="46.38068" lon="5.52291">
        <ele>536</ele>
        <time>2019-02-10T22:43:02Z</time>
      </trkpt>
      <trkpt lat="46.38082" lon="5.523">
        <ele>536</ele>
        <time>2019-02-10T22:44:02Z</time>
      </trkpt>
      <trkpt lat="46.38092" lon="5.52305">
        <ele>535</ele>
        <time>2019-02-10T22:45:02Z</time>
      </trkpt>
      <trkpt lat="46.38103" lon="5.52309">
        <ele>535</ele>
        <time>2019-02-10T22:46:02Z</time>
      </trkpt>
      <trkpt lat="46.38124" lon="5.52317">
        <ele>533</ele>
        <time>2019-02-10T22:47:02Z</time>
      </trkpt>
      <trkpt lat="46.38136" lon="5.52321">
        <ele>532</ele>
        <time>2019-02-10T22:48:02Z</time>
      </trkpt>
      <trkpt lat="46.38148" lon="5.52327">
        <ele>532</ele>
        <time>2019-02-10T22:49:02Z</time>
      </trkpt>
      <trkpt lat="46.38159" lon="5.52332">
        <ele>531</ele>
        <time>2019-02-10T22:50:02Z</time>
      </trkpt>
      <trkpt lat="46.38179" lon="5.5234">
        <ele>530</ele>
        <time>2019-02-10T22:51:02Z</time>
      </trkpt>
      <trkpt lat="46.38201" lon="5.52349">
        <ele>530</ele>
        <time>2019-02-10T22:52:02Z</time>
      </trkpt>
      <trkpt lat="46.38216" lon="5.52355">
        <ele>529</ele>
        <time>2019-02-10T22:53:02Z</time>
      </trkpt>
      <trkpt lat="46.38247" lon="5.52364">
        <ele>528</ele>
        <time>2019-02-10T22:54:02Z</time>
      </trkpt>
      <trkpt lat="46.38261" lon="5.52368">
        <ele>527</ele>
        <time>2019-02-10T22:55:02Z</time>
      </trkpt>
      <trkpt lat="46.38305" lon="5.52377">
        <ele>525</ele>
        <time>2019-02-10T22:56:02Z</time>
      </trkpt>
      <trkpt lat="46.38328" lon="5.52382">
        <ele>523</ele>
        <time>2019-02-10T22:57:02Z</time>
      </trkpt>
      <trkpt lat="46.38352" lon="5.52389">
        <ele>522</ele>
        <time>2019-02-10T22:58:02Z</time>
      </trkpt>
      <trkpt lat="46.3836" lon="5.52391">
        <ele>521</ele>
        <time>2019-02-10T22:59:02Z</time>
      </trkpt>
      <trkpt lat="46.38378" lon="5.52394">
        <ele>520</ele>
        <time>2019-02-10T23:00:02Z</time>
      </trkpt>
      <trkpt lat="46.38396" lon="5.52398">
        <ele>519</ele>
        <time>2019-02-10T23:01:02Z</time>
      </trkpt>
      <trkpt lat="46.38408" lon="5.52401">
        <ele>518</ele>
        <time>2019-02-10T23:02:02Z</time>
      </trkpt>
      <trkpt lat="46.38432" lon="5.52409">
        <ele>517</ele>
        <time>2019-02-10T23:03:02Z</time>
      </trkpt>
      <trkpt lat="46.38457" lon="5.52416">
        <ele>515</ele>
        <time>2019-02-10T23:04:02Z</time>
      </trkpt>
      <trkpt lat="46.38485" lon="5.52425">
        <ele>513</ele>
        <time>2019-02-10T23:05:02Z</time>
      </trkpt>
      <trkpt lat="46.38518" lon="5.52436">
        <ele>512</ele>
        <time>2019-02-10T23:06:02Z</time>
      </trkpt>
      <trkpt lat="46.38546" lon="5.52446">
        <ele>511</ele>
        <time>2019-02-10T23:07:02Z</time>
      </trkpt>
      <trkpt lat="46.38558" lon="5.5245">
        <ele>510</ele>
        <time>2019-02-10T23:08:02Z</time>
      </trkpt>
      <trkpt lat="46.38574" lon="5.52455">
        <ele>510</ele>
        <time>2019-02-10T23:09:02Z</time>
      </trkpt>
      <trkpt lat="46.38588" lon="5.52461">
        <ele>507.3</ele>
        <time>2019-02-10T23:10:02Z</time>
      </trkpt>
      <trkpt lat="46.38618" lon="5.52476">
        <ele>508</ele>
        <time>2019-02-10T23:11:02Z</time>
      </trkpt>
      <trkpt lat="46.38649" lon="5.52492">
        <ele>506</ele>
        <time>2019-02-10T23:12:02Z</time>
      </trkpt>
      <trkpt lat="46.38681" lon="5.52509">
        <ele>505</ele>
        <time>2019-02-10T23:13:02Z</time>
      </trkpt>
      <trkpt lat="46.38712" lon="5.52527">
        <ele>505</ele>
        <time>2019-02-10T23:14:02Z</time>
      </trkpt>
      <trkpt lat="46.3874" lon="5.52545">
        <ele>504</ele>
        <time>2019-02-10T23:15:02Z</time>
      </trkpt>
      <trkpt lat="46.38764" lon="5.52561">
        <ele>504</ele>
        <time>2019-02-10T23:16:02Z</time>
      </trkpt>
      <trkpt lat="46.38787" lon="5.52576">
        <ele>503</ele>
        <time>2019-02-10T23:17:02Z</time>
      </trkpt>
      <trkpt lat="46.38809" lon="5.52592">
        <ele>503</ele>
        <time>2019-02-10T23:18:02Z</time>
      </trkpt>
      <trkpt lat="46.38832" lon="5.52607">
        <ele>502</ele>
        <time>2019-02-10T23:19:02Z</time>
      </trkpt>
      <trkpt lat="46.38854" lon="5.52622">
        <ele>502</ele>
        <time>2019-02-10T23:20:02Z</time>
      </trkpt>
      <trkpt lat="46.38872" lon="5.52637">
        <ele>501</ele>
        <time>2019-02-10T23:21:02Z</time>
      </trkpt>
      <trkpt lat="46.3889" lon="5.52655">
        <ele>501</ele>
        <time>2019-02-10T23:22:02Z</time>
      </trkpt>
      <trkpt lat="46.38902" lon="5.5267">
        <ele>501</ele>
        <time>2019-02-10T23:23:02Z</time>
      </trkpt>
      <trkpt lat="46.38917" lon="5.52689">
        <ele>500</ele>
        <time>2019-02-10T23:24:02Z</time>
      </trkpt>
      <trkpt lat="46.38939" lon="5.52715">
        <ele>499</ele>
        <time>2019-02-10T23:25:02Z</time>
      </trkpt>
      <trkpt lat="46.38956" lon="5.52735">
        <ele>499</ele>
        <time>2019-02-10T23:26:02Z</time>
      </trkpt>
      <trkpt lat="46.38975" lon="5.52756">
        <ele>497</ele>
        <time>2019-02-10T23:28:02Z</time>
      </trkpt>
      <trkpt lat="46.38976" lon="5.52758">
        <ele>497</ele>
        <time>2019-02-10T23:29:02Z</time>
      </trkpt>
      <trkpt lat="46.38993" lon="5.52775">
        <ele>496</ele>
        <time>2019-02-10T23:30:02Z</time>
      </trkpt>
      <trkpt lat="46.39007" lon="5.52791">
        <ele>495</ele>
        <time>2019-02-10T23:31:02Z</time>
      </trkpt>
      <trkpt lat="46.39027" lon="5.52815">
        <ele>495</ele>
        <time>2019-02-10T23:32:02Z</time>
      </trkpt>
      <trkpt lat="46.3905" lon="5.5284">
        <ele>494</ele>
        <time>2019-02-10T23:33:02Z</time>
      </trkpt>
      <trkpt lat="46.39058" lon="5.52848">
        <ele>493</ele>
        <time>2019-02-10T23:34:02Z</time>
      </trkpt>
      <trkpt lat="46.39081" lon="5.52877">
        <ele>493</ele>
        <time>2019-02-10T23:35:02Z</time>
      </trkpt>
      <trkpt lat="46.39091" lon="5.52893">
        <ele>492</ele>
        <time>2019-02-10T23:36:02Z</time>
      </trkpt>
      <trkpt lat="46.39113" lon="5.52943">
        <ele>491</ele>
        <time>2019-02-10T23:37:02Z</time>
      </trkpt>
      <trkpt lat="46.3913" lon="5.52987">
        <ele>490</ele>
        <time>2019-02-10T23:38:02Z</time>
      </trkpt>
      <trkpt lat="46.39134" lon="5.53">
        <ele>490</ele>
        <time>2019-02-10T23:39:02Z</time>
      </trkpt>
      <trkpt lat="46.39138" lon="5.53016">
        <ele>490</ele>
        <time>2019-02-10T23:40:02Z</time>
      </trkpt>
      <trkpt lat="46.39139" lon="5.53031">
        <ele>490</ele>
        <time>2019-02-10T23:41:02Z</time>
      </trkpt>
      <trkpt lat="46.39139" lon="5.53044">
        <ele>490</ele>
        <time>2019-02-10T23:42:02Z</time>
      </trkpt>
      <trkpt lat="46.39138" lon="5.53051">
        <ele>490</ele>
        <time>2019-02-10T23:43:02Z</time>
      </trkpt>
      <trkpt lat="46.39137" lon="5.53056">
        <ele>490</ele>
        <time>2019-02-10T23:44:02Z</time>
      </trkpt>
      <trkpt lat="46.39134" lon="5.53066">
        <ele>490</ele>
        <time>2019-02-10T23:45:02Z</time>
      </trkpt>
      <trkpt lat="46.39129" lon="5.53081">
        <ele>489</ele>
        <time>2019-02-10T23:46:02Z</time>
      </trkpt>
      <trkpt lat="46.39124" lon="5.5309">
        <ele>489</ele>
        <time>2019-02-10T23:47:02Z</time>
      </trkpt>
      <trkpt lat="46.39115" lon="5.53104">
        <ele>489</ele>
        <time>2019-02-10T23:48:02Z</time>
      </trkpt>
      <trkpt lat="46.39099" lon="5.53125">
        <ele>488</ele>
        <time>2019-02-10T23:49:02Z</time>
      </trkpt>
      <trkpt lat="46.39067" lon="5.53171">
        <ele>486</ele>
        <time>2019-02-10T23:50:02Z</time>
      </trkpt>
      <trkpt lat="46.39051" lon="5.53194">
        <ele>486</ele>
        <time>2019-02-10T23:51:02Z</time>
      </trkpt>
      <trkpt lat="46.39038" lon="5.53213">
        <ele>485</ele>
        <time>2019-02-10T23:52:02Z</time>
      </trkpt>
      <trkpt lat="46.3902" lon="5.53237">
        <ele>485</ele>
        <time>2019-02-10T23:53:02Z</time>
      </trkpt>
      <trkpt lat="46.39008" lon="5.53254">
        <ele>484</ele>
        <time>2019-02-10T23:54:02Z</time>
      </trkpt>
      <trkpt lat="46.38997" lon="5.53268">
        <ele>483</ele>
        <time>2019-02-10T23:55:02Z</time>
      </trkpt>
      <trkpt lat="46.38984" lon="5.53281">
        <ele>483</ele>
        <time>2019-02-10T23:56:02Z</time>
      </trkpt>
      <trkpt lat="46.38974" lon="5.5329">
        <ele>482</ele>
        <time>2019-02-10T23:57:02Z</time>
      </trkpt>
      <trkpt lat="46.38966" lon="5.53297">
        <ele>482</ele>
        <time>2019-02-10T23:58:02Z</time>
      </trkpt>
      <trkpt lat="46.38956" lon="5.53304">
        <ele>482</ele>
        <time>2019-02-10T23:59:02Z</time>
      </trkpt>
      <trkpt lat="46.38936" lon="5.53317">
        <ele>481</ele>
        <time>2019-02-11T00:00:02Z</time>
      </trkpt>
      <trkpt lat="46.38921" lon="5.53327">
        <ele>480</ele>
        <time>2019-02-11T00:01:02Z</time>
      </trkpt>
      <trkpt lat="46.38893" lon="5.53343">
        <ele>478</ele>
        <time>2019-02-11T00:02:02Z</time>
      </trkpt>
      <trkpt lat="46.38874" lon="5.53356">
        <ele>477</ele>
        <time>2019-02-11T00:03:02Z</time>
      </trkpt>
      <trkpt lat="46.38863" lon="5.53364">
        <ele>476</ele>
        <time>2019-02-11T00:04:02Z</time>
      </trkpt>
      <trkpt lat="46.38856" lon="5.53371">
        <ele>475</ele>
        <time>2019-02-11T00:05:02Z</time>
      </trkpt>
      <trkpt lat="46.38849" lon="5.53384">
        <ele>474</ele>
        <time>2019-02-11T00:06:02Z</time>
      </trkpt>
      <trkpt lat="46.38846" lon="5.53399">
        <ele>473</ele>
        <time>2019-02-11T00:07:02Z</time>
      </trkpt>
      <trkpt lat="46.38846" lon="5.53411">
        <ele>473</ele>
        <time>2019-02-11T00:08:02Z</time>
      </trkpt>
      <trkpt lat="46.38847" lon="5.53421">
        <ele>472</ele>
        <time>2019-02-11T00:09:02Z</time>
      </trkpt>
      <trkpt lat="46.3885" lon="5.53427">
        <ele>472</ele>
        <time>2019-02-11T00:10:02Z</time>
      </trkpt>
      <trkpt lat="46.38853" lon="5.53433">
        <ele>471</ele>
        <time>2019-02-11T00:11:02Z</time>
      </trkpt>
      <trkpt lat="46.38866" lon="5.53445">
        <ele>471</ele>
        <time>2019-02-11T00:12:02Z</time>
      </trkpt>
      <trkpt lat="46.38872" lon="5.53452">
        <ele>471</ele>
        <time>2019-02-11T00:13:02Z</time>
      </trkpt>
      <trkpt lat="46.3889" lon="5.53468">
        <ele>470.1</ele>
        <time>2019-02-11T00:14:02Z</time>
      </trkpt>
      <trkpt lat="46.38905" lon="5.53479">
        <ele>470</ele>
        <time>2019-02-11T00:16:02Z</time>
      </trkpt>
      <trkpt lat="46.38917" lon="5.53483">
        <ele>469</ele>
        <time>2019-02-11T00:18:02Z</time>
      </trkpt>
      <trkpt lat="46.38922" lon="5.53484">
        <ele>470</ele>
        <time>2019-02-11T00:19:02Z</time>
      </trkpt>
      <trkpt lat="46.38943" lon="5.53489">
        <ele>470</ele>
        <time>2019-02-11T00:20:02Z</time>
      </trkpt>
      <trkpt lat="46.38951" lon="5.53492">
        <ele>470</ele>
        <time>2019-02-11T00:21:02Z</time>
      </trkpt>
      <trkpt lat="46.38961" lon="5.53496">
        <ele>470</ele>
        <time>2019-02-11T00:22:02Z</time>
      </trkpt>
      <trkpt lat="46.3897" lon="5.53501">
        <ele>470</ele>
        <time>2019-02-11T00:23:02Z</time>
      </trkpt>
      <trkpt lat="46.38991" lon="5.53512">
        <ele>469</ele>
        <time>2019-02-11T00:24:02Z</time>
      </trkpt>
      <trkpt lat="46.39014" lon="5.53522">
        <ele>468</ele>
        <time>2019-02-11T00:25:02Z</time>
      </trkpt>
      <trkpt lat="46.39039" lon="5.53531">
        <ele>469</ele>
        <time>2019-02-11T00:26:02Z</time>
      </trkpt>
      <trkpt lat="46.39057" lon="5.53541">
        <ele>468</ele>
        <time>2019-02-11T00:27:02Z</time>
      </trkpt>
      <trkpt lat="46.39075" lon="5.53552">
        <ele>467</ele>
        <time>2019-02-11T00:28:02Z</time>
      </trkpt>
      <trkpt lat="46.3909" lon="5.53563">
        <ele>467</ele>
        <time>2019-02-11T00:29:02Z</time>
      </trkpt>
      <trkpt lat="46.39107" lon="5.53574">
        <ele>466</ele>
        <time>2019-02-11T00:30:02Z</time>
      </trkpt>
      <trkpt lat="46.39123" lon="5.53587">
        <ele>465</ele>
        <time>2019-02-11T00:31:02Z</time>
      </trkpt>
      <trkpt lat="46.39135" lon="5.53597">
        <ele>464</ele>
        <time>2019-02-11T00:32:02Z</time>
      </trkpt>
      <trkpt lat="46.3915" lon="5.53606">
        <ele>463</ele>
        <time>2019-02-11T00:33:02Z</time>
      </trkpt>
      <trkpt lat="46.39158" lon="5.53608">
        <ele>463</ele>
        <time>2019-02-11T00:34:02Z</time>
      </trkpt>
      <trkpt lat="46.39176" lon="5.53615">
        <ele>462</ele>
        <time>2019-02-11T00:35:02Z</time>
      </trkpt>
      <trkpt lat="46.39185" lon="5.53618">
        <ele>462</ele>
        <time>2019-02-11T00:36:02Z</time>
      </trkpt>
      <trkpt lat="46.39207" lon="5.53627">
        <ele>460</ele>
        <time>2019-02-11T00:37:02Z</time>
      </trkpt>
      <trkpt lat="46.39225" lon="5.53635">
        <ele>459</ele>
        <time>2019-02-11T00:38:02Z</time>
      </trkpt>
      <trkpt lat="46.39248" lon="5.53647">
        <ele>457</ele>
        <time>2019-02-11T00:39:02Z</time>
      </trkpt>
      <trkpt lat="46.39272" lon="5.5366">
        <ele>455</ele>
        <time>2019-02-11T00:40:02Z</time>
      </trkpt>
      <trkpt lat="46.39292" lon="5.53672">
        <ele>453</ele>
        <time>2019-02-11T00:41:02Z</time>
      </trkpt>
      <trkpt lat="46.39309" lon="5.53682">
        <ele>452</ele>
        <time>2019-02-11T00:42:02Z</time>
      </trkpt>
      <trkpt lat="46.39334" lon="5.53701">
        <ele>450</ele>
        <time>2019-02-11T00:43:02Z</time>
      </trkpt>
      <trkpt lat="46.3935" lon="5.53715">
        <ele>448</ele>
        <time>2019-02-11T00:44:02Z</time>
      </trkpt>
      <trkpt lat="46.39381" lon="5.53737">
        <ele>444</ele>
        <time>2019-02-11T00:45:02Z</time>
      </trkpt>
      <trkpt lat="46.394" lon="5.5375">
        <ele>441</ele>
        <time>2019-02-11T00:46:02Z</time>
      </trkpt>
      <trkpt lat="46.39418" lon="5.5376">
        <ele>440</ele>
        <time>2019-02-11T00:47:02Z</time>
      </trkpt>
      <trkpt lat="46.39444" lon="5.53776">
        <ele>440</ele>
        <time>2019-02-11T00:48:02Z</time>
      </trkpt>
      <trkpt lat="46.39452" lon="5.53782">
        <ele>439</ele>
        <time>2019-02-11T00:49:02Z</time>
      </trkpt>
      <trkpt lat="46.39464" lon="5.5379">
        <ele>439</ele>
        <time>2019-02-11T00:50:02Z</time>
      </trkpt>
      <trkpt lat="46.39476" lon="5.53803">
        <ele>439</ele>
        <time>2019-02-11T00:51:02Z</time>
      </trkpt>
      <trkpt lat="46.39478" lon="5.53805">
        <ele>439</ele>
        <time>2019-02-11T00:52:02Z</time>
      </trkpt>
      <trkpt lat="46.39492" lon="5.53825">
        <ele>437</ele>
        <time>2019-02-11T00:53:02Z</time>
      </trkpt>
      <trkpt lat="46.39499" lon="5.53839">
        <ele>437</ele>
        <time>2019-02-11T00:54:02Z</time>
      </trkpt>
      <trkpt lat="46.39506" lon="5.53858">
        <ele>436</ele>
        <time>2019-02-11T00:55:02Z</time>
      </trkpt>
      <trkpt lat="46.3951" lon="5.53875">
        <ele>436</ele>
        <time>2019-02-11T00:56:02Z</time>
      </trkpt>
      <trkpt lat="46.39513" lon="5.53889">
        <ele>436</ele>
        <time>2019-02-11T00:57:02Z</time>
      </trkpt>
      <trkpt lat="46.39514" lon="5.53906">
        <ele>435</ele>
        <time>2019-02-11T00:58:02Z</time>
      </trkpt>
      <trkpt lat="46.39515" lon="5.53918">
        <ele>435</ele>
        <time>2019-02-11T00:59:02Z</time>
      </trkpt>
      <trkpt lat="46.39514" lon="5.53928">
        <ele>434</ele>
        <time>2019-02-11T01:00:02Z</time>
      </trkpt>
      <trkpt lat="46.39512" lon="5.53948">
        <ele>433</ele>
        <time>2019-02-11T01:01:02Z</time>
      </trkpt>
      <trkpt lat="46.39511" lon="5.53963">
        <ele>433</ele>
        <time>2019-02-11T01:02:02Z</time>
      </trkpt>
      <trkpt lat="46.3951" lon="5.53966">
        <ele>432</ele>
        <time>2019-02-11T01:03:02Z</time>
      </trkpt>
      <trkpt lat="46.3951" lon="5.53977">
        <ele>432</ele>
        <time>2019-02-11T01:04:02Z</time>
      </trkpt>
      <trkpt lat="46.39513" lon="5.53996">
        <ele>433</ele>
        <time>2019-02-11T01:05:02Z</time>
      </trkpt>
      <trkpt lat="46.39524" lon="5.54028">
        <ele>429</ele>
        <time>2019-02-11T01:06:02Z</time>
      </trkpt>
      <trkpt lat="46.39534" lon="5.54057">
        <ele>427</ele>
        <time>2019-02-11T01:07:02Z</time>
      </trkpt>
      <trkpt lat="46.39547" lon="5.54089">
        <ele>425</ele>
        <time>2019-02-11T01:08:02Z</time>
      </trkpt>
      <trkpt lat="46.39561" lon="5.54127">
        <ele>423</ele>
        <time>2019-02-11T01:09:02Z</time>
      </trkpt>
      <trkpt lat="46.39577" lon="5.54172">
        <ele>421</ele>
        <time>2019-02-11T01:10:02Z</time>
      </trkpt>
      <trkpt lat="46.39585" lon="5.54194">
        <ele>419</ele>
        <time>2019-02-11T01:11:02Z</time>
      </trkpt>
      <trkpt lat="46.39594" lon="5.54217">
        <ele>418</ele>
        <time>2019-02-11T01:12:02Z</time>
      </trkpt>
      <trkpt lat="46.39604" lon="5.54238">
        <ele>417</ele>
        <time>2019-02-11T01:13:02Z</time>
      </trkpt>
      <trkpt lat="46.39611" lon="5.5425">
        <ele>416</ele>
        <time>2019-02-11T01:14:02Z</time>
      </trkpt>
      <trkpt lat="46.39621" lon="5.54262">
        <ele>417</ele>
        <time>2019-02-11T01:15:02Z</time>
      </trkpt>
      <trkpt lat="46.39632" lon="5.54276">
        <ele>417</ele>
        <time>2019-02-11T01:16:02Z</time>
      </trkpt>
      <trkpt lat="46.39648" lon="5.54293">
        <ele>417</ele>
        <time>2019-02-11T01:17:02Z</time>
      </trkpt>
      <trkpt lat="46.39655" lon="5.54304">
        <ele>417</ele>
        <time>2019-02-11T01:18:02Z</time>
      </trkpt>
      <trkpt lat="46.39657" lon="5.54312">
        <ele>416</ele>
        <time>2019-02-11T01:19:02Z</time>
      </trkpt>
      <trkpt lat="46.39658" lon="5.5432">
        <ele>416</ele>
        <time>2019-02-11T01:20:02Z</time>
      </trkpt>
      <trkpt lat="46.39656" lon="5.54326">
        <ele>415</ele>
        <time>2019-02-11T01:21:02Z</time>
      </trkpt>
      <trkpt lat="46.39652" lon="5.54335">
        <ele>414</ele>
        <time>2019-02-11T01:22:02Z</time>
      </trkpt>
      <trkpt lat="46.39646" lon="5.54341">
        <ele>413</ele>
        <time>2019-02-11T01:23:02Z</time>
      </trkpt>
      <trkpt lat="46.39636" lon="5.54343">
        <ele>412</ele>
        <time>2019-02-11T01:24:02Z</time>
      </trkpt>
      <trkpt lat="46.39624" lon="5.54343">
        <ele>411</ele>
        <time>2019-02-11T01:25:02Z</time>
      </trkpt>
      <trkpt lat="46.39601" lon="5.5434">
        <ele>409</ele>
        <time>2019-02-11T01:26:02Z</time>
      </trkpt>
      <trkpt lat="46.39584" lon="5.54337">
        <ele>408</ele>
        <time>2019-02-11T01:27:02Z</time>
      </trkpt>
      <trkpt lat="46.39563" lon="5.54332">
        <ele>407</ele>
        <time>2019-02-11T01:28:02Z</time>
      </trkpt>
      <trkpt lat="46.39546" lon="5.54327">
        <ele>407</ele>
        <time>2019-02-11T01:29:02Z</time>
      </trkpt>
      <trkpt lat="46.39531" lon="5.54322">
        <ele>407</ele>
        <time>2019-02-11T01:30:02Z</time>
      </trkpt>
      <trkpt lat="46.39507" lon="5.54313">
        <ele>406</ele>
        <time>2019-02-11T01:31:02Z</time>
      </trkpt>
      <trkpt lat="46.39482" lon="5.543">
        <ele>405</ele>
        <time>2019-02-11T01:32:02Z</time>
      </trkpt>
      <trkpt lat="46.39457" lon="5.54287">
        <ele>404</ele>
        <time>2019-02-11T01:33:02Z</time>
      </trkpt>
      <trkpt lat="46.39446" lon="5.54281">
        <ele>404</ele>
        <time>2019-02-11T01:34:02Z</time>
      </trkpt>
      <trkpt lat="46.39428" lon="5.54271">
        <ele>403</ele>
        <time>2019-02-11T01:35:02Z</time>
      </trkpt>
      <trkpt lat="46.39426" lon="5.5427">
        <ele>403</ele>
        <time>2019-02-11T01:36:02Z</time>
      </trkpt>
      <trkpt lat="46.3941" lon="5.54262">
        <ele>402</ele>
        <time>2019-02-11T01:37:02Z</time>
      </trkpt>
      <trkpt lat="46.39394" lon="5.54253">
        <ele>403</ele>
        <time>2019-02-11T01:38:02Z</time>
      </trkpt>
      <trkpt lat="46.39388" lon="5.54251">
        <ele>403</ele>
        <time>2019-02-11T01:39:02Z</time>
      </trkpt>
      <trkpt lat="46.39384" lon="5.5425">
        <ele>402</ele>
        <time>2019-02-11T01:40:02Z</time>
      </trkpt>
      <trkpt lat="46.3938" lon="5.54252">
        <ele>402</ele>
        <time>2019-02-11T01:41:02Z</time>
      </trkpt>
      <trkpt lat="46.39377" lon="5.54254">
        <ele>402</ele>
        <time>2019-02-11T01:42:02Z</time>
      </trkpt>
      <trkpt lat="46.39369" lon="5.54263">
        <ele>400</ele>
        <time>2019-02-11T01:43:02Z</time>
      </trkpt>
      <trkpt lat="46.39367" lon="5.5427">
        <ele>399</ele>
        <time>2019-02-11T01:44:02Z</time>
      </trkpt>
      <trkpt lat="46.39366" lon="5.54272">
        <ele>398</ele>
        <time>2019-02-11T01:45:02Z</time>
      </trkpt>
      <trkpt lat="46.39366" lon="5.54281">
        <ele>397</ele>
        <time>2019-02-11T01:46:02Z</time>
      </trkpt>
      <trkpt lat="46.39371" lon="5.54295">
        <ele>396</ele>
        <time>2019-02-11T01:47:02Z</time>
      </trkpt>
      <trkpt lat="46.39379" lon="5.54308">
        <ele>395</ele>
        <time>2019-02-11T01:48:02Z</time>
      </trkpt>
      <trkpt lat="46.39388" lon="5.54319">
        <ele>394</ele>
        <time>2019-02-11T01:49:02Z</time>
      </trkpt>
      <trkpt lat="46.39406" lon="5.54344">
        <ele>393</ele>
        <time>2019-02-11T01:50:02Z</time>
      </trkpt>
      <trkpt lat="46.39422" lon="5.54368">
        <ele>391</ele>
        <time>2019-02-11T01:51:02Z</time>
      </trkpt>
      <trkpt lat="46.39444" lon="5.54399">
        <ele>389</ele>
        <time>2019-02-11T01:52:02Z</time>
      </trkpt>
      <trkpt lat="46.39465" lon="5.54431">
        <ele>389</ele>
        <time>2019-02-11T01:53:02Z</time>
      </trkpt>
      <trkpt lat="46.3947" lon="5.54439">
        <ele>389</ele>
        <time>2019-02-11T01:54:02Z</time>
      </trkpt>
      <trkpt lat="46.39484" lon="5.54462">
        <ele>389</ele>
        <time>2019-02-11T01:55:02Z</time>
      </trkpt>
      <trkpt lat="46.39498" lon="5.54485">
        <ele>389</ele>
        <time>2019-02-11T01:56:02Z</time>
      </trkpt>
      <trkpt lat="46.39512" lon="5.54511">
        <ele>388</ele>
        <time>2019-02-11T01:57:02Z</time>
      </trkpt>
      <trkpt lat="46.39522" lon="5.54537">
        <ele>386</ele>
        <time>2019-02-11T01:58:02Z</time>
      </trkpt>
      <trkpt lat="46.39528" lon="5.54557">
        <ele>385</ele>
        <time>2019-02-11T01:59:02Z</time>
      </trkpt>
      <trkpt lat="46.39535" lon="5.54586">
        <ele>383</ele>
        <time>2019-02-11T02:00:02Z</time>
      </trkpt>
      <trkpt lat="46.39541" lon="5.54611">
        <ele>381</ele>
        <time>2019-02-11T02:01:02Z</time>
      </trkpt>
      <trkpt lat="46.39545" lon="5.54626">
        <ele>379</ele>
        <time>2019-02-11T02:02:02Z</time>
      </trkpt>
      <trkpt lat="46.39555" lon="5.54648">
        <ele>378</ele>
        <time>2019-02-11T02:03:02Z</time>
      </trkpt>
      <trkpt lat="46.39564" lon="5.54664">
        <ele>378</ele>
        <time>2019-02-11T02:04:02Z</time>
      </trkpt>
      <trkpt lat="46.39573" lon="5.54678">
        <ele>378</ele>
        <time>2019-02-11T02:05:02Z</time>
      </trkpt>
      <trkpt lat="46.39586" lon="5.54693">
        <ele>378</ele>
        <time>2019-02-11T02:06:02Z</time>
      </trkpt>
      <trkpt lat="46.39596" lon="5.54701">
        <ele>377</ele>
        <time>2019-02-11T02:07:02Z</time>
      </trkpt>
      <trkpt lat="46.39615" lon="5.54715">
        <ele>377</ele>
        <time>2019-02-11T02:08:02Z</time>
      </trkpt>
      <trkpt lat="46.39632" lon="5.54726">
        <ele>377</ele>
        <time>2019-02-11T02:09:02Z</time>
      </trkpt>
      <trkpt lat="46.39643" lon="5.54732">
        <ele>377</ele>
        <time>2019-02-11T02:10:02Z</time>
      </trkpt>
      <trkpt lat="46.39667" lon="5.54739">
        <ele>379</ele>
        <time>2019-02-11T02:11:02Z</time>
      </trkpt>
      <trkpt lat="46.39679" lon="5.54742">
        <ele>379</ele>
        <time>2019-02-11T02:12:02Z</time>
      </trkpt>
      <trkpt lat="46.39695" lon="5.54747">
        <ele>379</ele>
        <time>2019-02-11T02:13:02Z</time>
      </trkpt>
      <trkpt lat="46.39705" lon="5.5475">
        <ele>379</ele>
        <time>2019-02-11T02:14:02Z</time>
      </trkpt>
      <trkpt lat="46.39719" lon="5.54754">
        <ele>379</ele>
        <time>2019-02-11T02:15:02Z</time>
      </trkpt>
      <trkpt lat="46.39734" lon="5.54755">
        <ele>380</ele>
        <time>2019-02-11T02:16:02Z</time>
      </trkpt>
      <trkpt lat="46.39739" lon="5.54754">
        <ele>380</ele>
        <time>2019-02-11T02:17:02Z</time>
      </trkpt>
      <trkpt lat="46.39749" lon="5.54753">
        <ele>381</ele>
        <time>2019-02-11T02:18:02Z</time>
      </trkpt>
      <trkpt lat="46.39752" lon="5.54754">
        <ele>381</ele>
        <time>2019-02-11T02:19:02Z</time>
      </trkpt>
      <trkpt lat="46.39756" lon="5.54755">
        <ele>381</ele>
        <time>2019-02-11T02:20:02Z</time>
      </trkpt>
      <trkpt lat="46.39758" lon="5.54757">
        <ele>380</ele>
        <time>2019-02-11T02:21:02Z</time>
      </trkpt>
      <trkpt lat="46.39759" lon="5.5476">
        <ele>380</ele>
        <time>2019-02-11T02:22:02Z</time>
      </trkpt>
      <trkpt lat="46.39761" lon="5.54763">
        <ele>379</ele>
        <time>2019-02-11T02:23:02Z</time>
      </trkpt>
      <trkpt lat="46.39763" lon="5.54766">
        <ele>378</ele>
        <time>2019-02-11T02:24:02Z</time>
      </trkpt>
      <trkpt lat="46.39763" lon="5.54771">
        <ele>377</ele>
        <time>2019-02-11T02:25:02Z</time>
      </trkpt>
      <trkpt lat="46.39763" lon="5.54775">
        <ele>375</ele>
        <time>2019-02-11T02:26:02Z</time>
      </trkpt>
      <trkpt lat="46.39762" lon="5.54778">
        <ele>375</ele>
        <time>2019-02-11T02:27:02Z</time>
      </trkpt>
      <trkpt lat="46.39761" lon="5.5478">
        <ele>374</ele>
        <time>2019-02-11T02:28:02Z</time>
      </trkpt>
      <trkpt lat="46.39759" lon="5.54784">
        <ele>373</ele>
        <time>2019-02-11T02:29:02Z</time>
      </trkpt>
      <trkpt lat="46.39754" lon="5.54787">
        <ele>372</ele>
        <time>2019-02-11T02:30:02Z</time>
      </trkpt>
      <trkpt lat="46.3975" lon="5.54788">
        <ele>372</ele>
        <time>2019-02-11T02:31:02Z</time>
      </trkpt>
      <trkpt lat="46.39745" lon="5.54789">
        <ele>371</ele>
        <time>2019-02-11T02:32:02Z</time>
      </trkpt>
      <trkpt lat="46.39729" lon="5.54787">
        <ele>371</ele>
        <time>2019-02-11T02:33:02Z</time>
      </trkpt>
      <trkpt lat="46.39703" lon="5.54784">
        <ele>371</ele>
        <time>2019-02-11T02:34:02Z</time>
      </trkpt>
      <trkpt lat="46.39687" lon="5.54782">
        <ele>371</ele>
        <time>2019-02-11T02:35:02Z</time>
      </trkpt>
      <trkpt lat="46.39677" lon="5.54783">
        <ele>370</ele>
        <time>2019-02-11T02:36:02Z</time>
      </trkpt>
      <trkpt lat="46.39672" lon="5.54783">
        <ele>370</ele>
        <time>2019-02-11T02:37:02Z</time>
      </trkpt>
      <trkpt lat="46.3965" lon="5.54786">
        <ele>367</ele>
        <time>2019-02-11T02:38:02Z</time>
      </trkpt>
      <trkpt lat="46.3963" lon="5.5479">
        <ele>364</ele>
        <time>2019-02-11T02:39:02Z</time>
      </trkpt>
      <trkpt lat="46.39609" lon="5.54793">
        <ele>362</ele>
        <time>2019-02-11T02:40:02Z</time>
      </trkpt>
      <trkpt lat="46.39593" lon="5.54796">
        <ele>360</ele>
        <time>2019-02-11T02:41:02Z</time>
      </trkpt>
      <trkpt lat="46.39579" lon="5.548">
        <ele>358</ele>
        <time>2019-02-11T02:42:02Z</time>
      </trkpt>
      <trkpt lat="46.39566" lon="5.54802">
        <ele>356</ele>
        <time>2019-02-11T02:43:02Z</time>
      </trkpt>
      <trkpt lat="46.39552" lon="5.54802">
        <ele>355</ele>
        <time>2019-02-11T02:44:02Z</time>
      </trkpt>
      <trkpt lat="46.39537" lon="5.548">
        <ele>354</ele>
        <time>2019-02-11T02:45:02Z</time>
      </trkpt>
      <trkpt lat="46.39526" lon="5.54795">
        <ele>354</ele>
        <time>2019-02-11T02:46:02Z</time>
      </trkpt>
      <trkpt lat="46.39516" lon="5.54787">
        <ele>354</ele>
        <time>2019-02-11T02:47:02Z</time>
      </trkpt>
      <trkpt lat="46.395" lon="5.54775">
        <ele>354</ele>
        <time>2019-02-11T02:48:02Z</time>
      </trkpt>
      <trkpt lat="46.39487" lon="5.54762">
        <ele>354</ele>
        <time>2019-02-11T02:49:02Z</time>
      </trkpt>
      <trkpt lat="46.39476" lon="5.54748">
        <ele>353</ele>
        <time>2019-02-11T02:50:02Z</time>
      </trkpt>
      <trkpt lat="46.39463" lon="5.54732">
        <ele>352</ele>
        <time>2019-02-11T02:51:02Z</time>
      </trkpt>
      <trkpt lat="46.39451" lon="5.54719">
        <ele>351</ele>
        <time>2019-02-11T02:52:02Z</time>
      </trkpt>
      <trkpt lat="46.39438" lon="5.54705">
        <ele>350</ele>
        <time>2019-02-11T02:53:02Z</time>
      </trkpt>
      <trkpt lat="46.39429" lon="5.54696">
        <ele>349</ele>
        <time>2019-02-11T02:54:02Z</time>
      </trkpt>
      <trkpt lat="46.39419" lon="5.54695">
        <ele>347</ele>
        <time>2019-02-11T02:55:02Z</time>
      </trkpt>
      <trkpt lat="46.39416" lon="5.54697">
        <ele>347</ele>
        <time>2019-02-11T02:56:02Z</time>
      </trkpt>
      <trkpt lat="46.39413" lon="5.54698">
        <ele>346</ele>
        <time>2019-02-11T02:57:02Z</time>
      </trkpt>
      <trkpt lat="46.39409" lon="5.547">
        <ele>346</ele>
        <time>2019-02-11T02:58:02Z</time>
      </trkpt>
      <trkpt lat="46.39408" lon="5.54703">
        <ele>346</ele>
        <time>2019-02-11T02:59:02Z</time>
      </trkpt>
      <trkpt lat="46.39404" lon="5.54711">
        <ele>345</ele>
        <time>2019-02-11T03:00:02Z</time>
      </trkpt>
      <trkpt lat="46.39401" lon="5.54722">
        <ele>345</ele>
        <time>2019-02-11T03:01:02Z</time>
      </trkpt>
      <trkpt lat="46.39399" lon="5.5474">
        <ele>344</ele>
        <time>2019-02-11T03:02:02Z</time>
      </trkpt>
      <trkpt lat="46.39396" lon="5.54758">
        <ele>344</ele>
        <time>2019-02-11T03:03:02Z</time>
      </trkpt>
      <trkpt lat="46.39393" lon="5.54779">
        <ele>343</ele>
        <time>2019-02-11T03:04:02Z</time>
      </trkpt>
      <trkpt lat="46.39388" lon="5.54798">
        <ele>343</ele>
        <time>2019-02-11T03:05:02Z</time>
      </trkpt>
      <trkpt lat="46.39379" lon="5.54816">
        <ele>343</ele>
        <time>2019-02-11T03:06:02Z</time>
      </trkpt>
      <trkpt lat="46.39369" lon="5.54833">
        <ele>344</ele>
        <time>2019-02-11T03:07:02Z</time>
      </trkpt>
      <trkpt lat="46.39362" lon="5.54844">
        <ele>345</ele>
        <time>2019-02-11T03:08:02Z</time>
      </trkpt>
      <trkpt lat="46.39353" lon="5.54859">
        <ele>348</ele>
        <time>2019-02-11T03:09:02Z</time>
      </trkpt>
      <trkpt lat="46.39341" lon="5.54878">
        <ele>351</ele>
        <time>2019-02-11T03:10:02Z</time>
      </trkpt>
      <trkpt lat="46.39339" lon="5.54884">
        <ele>353</ele>
        <time>2019-02-11T03:11:02Z</time>
      </trkpt>
      <trkpt lat="46.39338" lon="5.54888">
        <ele>353</ele>
        <time>2019-02-11T03:12:02Z</time>
      </trkpt>
      <trkpt lat="46.39338" lon="5.54894">
        <ele>354</ele>
        <time>2019-02-11T03:13:02Z</time>
      </trkpt>
      <trkpt lat="46.39338" lon="5.54898">
        <ele>355</ele>
        <time>2019-02-11T03:14:02Z</time>
      </trkpt>
      <trkpt lat="46.39346" lon="5.54915">
        <ele>355</ele>
        <time>2019-02-11T03:15:02Z</time>
      </trkpt>
      <trkpt lat="46.39362" lon="5.54943">
        <ele>358</ele>
        <time>2019-02-11T03:16:02Z</time>
      </trkpt>
      <trkpt lat="46.39381" lon="5.54971">
        <ele>358</ele>
        <time>2019-02-11T03:17:02Z</time>
      </trkpt>
      <trkpt lat="46.39402" lon="5.54995">
        <ele>354</ele>
        <time>2019-02-11T03:18:02Z</time>
      </trkpt>
      <trkpt lat="46.39408" lon="5.55005">
        <ele>354</ele>
        <time>2019-02-11T03:19:02Z</time>
      </trkpt>
      <trkpt lat="46.39423" lon="5.55025">
        <ele>357</ele>
        <time>2019-02-11T03:20:02Z</time>
      </trkpt>
      <trkpt lat="46.39432" lon="5.55034">
        <ele>358</ele>
        <time>2019-02-11T03:21:02Z</time>
      </trkpt>
      <trkpt lat="46.39453" lon="5.55054">
        <ele>360</ele>
        <time>2019-02-11T03:22:02Z</time>
      </trkpt>
      <trkpt lat="46.39477" lon="5.55077">
        <ele>361</ele>
        <time>2019-02-11T03:23:02Z</time>
      </trkpt>
      <trkpt lat="46.39494" lon="5.55091">
        <ele>361</ele>
        <time>2019-02-11T03:24:02Z</time>
      </trkpt>
      <trkpt lat="46.39509" lon="5.55102">
        <ele>362</ele>
        <time>2019-02-11T03:25:02Z</time>
      </trkpt>
      <trkpt lat="46.39526" lon="5.55114">
        <ele>363</ele>
        <time>2019-02-11T03:26:02Z</time>
      </trkpt>
      <trkpt lat="46.39545" lon="5.55129">
        <ele>365</ele>
        <time>2019-02-11T03:27:02Z</time>
      </trkpt>
      <trkpt lat="46.39561" lon="5.55146">
        <ele>366</ele>
        <time>2019-02-11T03:28:02Z</time>
      </trkpt>
      <trkpt lat="46.39576" lon="5.55164">
        <ele>367</ele>
        <time>2019-02-11T03:29:02Z</time>
      </trkpt>
      <trkpt lat="46.39599" lon="5.5519">
        <ele>370</ele>
        <time>2019-02-11T03:30:02Z</time>
      </trkpt>
      <trkpt lat="46.39606" lon="5.55198">
        <ele>371</ele>
        <time>2019-02-11T03:31:02Z</time>
      </trkpt>
      <trkpt lat="46.39615" lon="5.55205">
        <ele>372</ele>
        <time>2019-02-11T03:32:02Z</time>
      </trkpt>
      <trkpt lat="46.39623" lon="5.5521">
        <ele>373</ele>
        <time>2019-02-11T03:33:02Z</time>
      </trkpt>
      <trkpt lat="46.39642" lon="5.55217">
        <ele>373</ele>
        <time>2019-02-11T03:34:02Z</time>
      </trkpt>
      <trkpt lat="46.39665" lon="5.55223">
        <ele>373</ele>
        <time>2019-02-11T03:35:02Z</time>
      </trkpt>
      <trkpt lat="46.39683" lon="5.55228">
        <ele>376</ele>
        <time>2019-02-11T03:36:02Z</time>
      </trkpt>
      <trkpt lat="46.39695" lon="5.55232">
        <ele>378</ele>
        <time>2019-02-11T03:37:02Z</time>
      </trkpt>
      <trkpt lat="46.39707" lon="5.55233">
        <ele>379</ele>
        <time>2019-02-11T03:38:02Z</time>
      </trkpt>
      <trkpt lat="46.39714" lon="5.55231">
        <ele>380</ele>
        <time>2019-02-11T03:39:02Z</time>
      </trkpt>
      <trkpt lat="46.39722" lon="5.55228">
        <ele>380</ele>
        <time>2019-02-11T03:40:02Z</time>
      </trkpt>
      <trkpt lat="46.39729" lon="5.55221">
        <ele>380</ele>
        <time>2019-02-11T03:41:02Z</time>
      </trkpt>
      <trkpt lat="46.39737" lon="5.55211">
        <ele>379</ele>
        <time>2019-02-11T03:42:02Z</time>
      </trkpt>
      <trkpt lat="46.39744" lon="5.55201">
        <ele>377</ele>
        <time>2019-02-11T03:43:02Z</time>
      </trkpt>
      <trkpt lat="46.39753" lon="5.55189">
        <ele>376</ele>
        <time>2019-02-11T03:44:02Z</time>
      </trkpt>
      <trkpt lat="46.39762" lon="5.55181">
        <ele>375</ele>
        <time>2019-02-11T03:45:02Z</time>
      </trkpt>
      <trkpt lat="46.39771" lon="5.55176">
        <ele>375</ele>
        <time>2019-02-11T03:46:02Z</time>
      </trkpt>
      <trkpt lat="46.39778" lon="5.55175">
        <ele>375</ele>
        <time>2019-02-11T03:47:02Z</time>
      </trkpt>
      <trkpt lat="46.39788" lon="5.55176">
        <ele>376</ele>
        <time>2019-02-11T03:48:02Z</time>
      </trkpt>
      <trkpt lat="46.39797" lon="5.55175">
        <ele>377</ele>
        <time>2019-02-11T03:49:02Z</time>
      </trkpt>
      <trkpt lat="46.39804" lon="5.55176">
        <ele>377</ele>
        <time>2019-02-11T03:50:02Z</time>
      </trkpt>
      <trkpt lat="46.39814" lon="5.55178">
        <ele>378</ele>
        <time>2019-02-11T03:51:02Z</time>
      </trkpt>
      <trkpt lat="46.39822" lon="5.55176">
        <ele>379</ele>
        <time>2019-02-11T03:52:02Z</time>
      </trkpt>
      <trkpt lat="46.39833" lon="5.55173">
        <ele>379</ele>
        <time>2019-02-11T03:53:02Z</time>
      </trkpt>
      <trkpt lat="46.39849" lon="5.55171">
        <ele>379</ele>
        <time>2019-02-11T03:54:02Z</time>
      </trkpt>
      <trkpt lat="46.39868" lon="5.55169">
        <ele>379</ele>
        <time>2019-02-11T03:55:02Z</time>
      </trkpt>
      <trkpt lat="46.39888" lon="5.55169">
        <ele>380</ele>
        <time>2019-02-11T03:56:02Z</time>
      </trkpt>
      <trkpt lat="46.39912" lon="5.55171">
        <ele>381</ele>
        <time>2019-02-11T03:57:02Z</time>
      </trkpt>
      <trkpt lat="46.3993" lon="5.55173">
        <ele>380</ele>
        <time>2019-02-11T03:58:02Z</time>
      </trkpt>
      <trkpt lat="46.3994" lon="5.55177">
        <ele>379</ele>
        <time>2019-02-11T03:59:02Z</time>
      </trkpt>
      <trkpt lat="46.39956" lon="5.55185">
        <ele>379</ele>
        <time>2019-02-11T04:00:02Z</time>
      </trkpt>
      <trkpt lat="46.39972" lon="5.55196">
        <ele>380</ele>
        <time>2019-02-11T04:01:02Z</time>
      </trkpt>
      <trkpt lat="46.39988" lon="5.55209">
        <ele>381</ele>
        <time>2019-02-11T04:02:02Z</time>
      </trkpt>
      <trkpt lat="46.39989" lon="5.55212">
        <ele>382</ele>
        <time>2019-02-11T04:03:02Z</time>
      </trkpt>
      <trkpt lat="46.39992" lon="5.55217">
        <ele>382</ele>
        <time>2019-02-11T04:04:02Z</time>
      </trkpt>
      <trkpt lat="46.39993" lon="5.55221">
        <ele>383</ele>
        <time>2019-02-11T04:05:02Z</time>
      </trkpt>
      <trkpt lat="46.39993" lon="5.55226">
        <ele>384</ele>
        <time>2019-02-11T04:06:02Z</time>
      </trkpt>
      <trkpt lat="46.39993" lon="5.55229">
        <ele>384</ele>
        <time>2019-02-11T04:07:02Z</time>
      </trkpt>
      <trkpt lat="46.39992" lon="5.55232">
        <ele>385</ele>
        <time>2019-02-11T04:08:02Z</time>
      </trkpt>
      <trkpt lat="46.39987" lon="5.55235">
        <ele>386</ele>
        <time>2019-02-11T04:09:02Z</time>
      </trkpt>
      <trkpt lat="46.39985" lon="5.55235">
        <ele>386</ele>
        <time>2019-02-11T04:10:02Z</time>
      </trkpt>
      <trkpt lat="46.39981" lon="5.55234">
        <ele>386</ele>
        <time>2019-02-11T04:11:02Z</time>
      </trkpt>
      <trkpt lat="46.39975" lon="5.55232">
        <ele>386</ele>
        <time>2019-02-11T04:14:02Z</time>
      </trkpt>
      <trkpt lat="46.3997" lon="5.55228">
        <ele>386</ele>
        <time>2019-02-11T04:15:02Z</time>
      </trkpt>
      <trkpt lat="46.39961" lon="5.55223">
        <ele>386</ele>
        <time>2019-02-11T04:16:02Z</time>
      </trkpt>
      <trkpt lat="46.39949" lon="5.5522">
        <ele>386</ele>
        <time>2019-02-11T04:17:02Z</time>
      </trkpt>
      <trkpt lat="46.39937" lon="5.55219">
        <ele>387</ele>
        <time>2019-02-11T04:18:02Z</time>
      </trkpt>
      <trkpt lat="46.39925" lon="5.55221">
        <ele>388</ele>
        <time>2019-02-11T04:19:02Z</time>
      </trkpt>
      <trkpt lat="46.39913" lon="5.55229">
        <ele>390</ele>
        <time>2019-02-11T04:20:02Z</time>
      </trkpt>
      <trkpt lat="46.39904" lon="5.5524">
        <ele>391</ele>
        <time>2019-02-11T04:21:02Z</time>
      </trkpt>
      <trkpt lat="46.39895" lon="5.55252">
        <ele>393</ele>
        <time>2019-02-11T04:22:02Z</time>
      </trkpt>
      <trkpt lat="46.39885" lon="5.55271">
        <ele>393</ele>
        <time>2019-02-11T04:23:02Z</time>
      </trkpt>
      <trkpt lat="46.39873" lon="5.5529">
        <ele>393</ele>
        <time>2019-02-11T04:24:02Z</time>
      </trkpt>
      <trkpt lat="46.39856" lon="5.55319">
        <ele>394</ele>
        <time>2019-02-11T04:25:02Z</time>
      </trkpt>
      <trkpt lat="46.39837" lon="5.55351">
        <ele>394</ele>
        <time>2019-02-11T04:26:02Z</time>
      </trkpt>
      <trkpt lat="46.39814" lon="5.55388">
        <ele>395</ele>
        <time>2019-02-11T04:27:02Z</time>
      </trkpt>
      <trkpt lat="46.39798" lon="5.55415">
        <ele>396</ele>
        <time>2019-02-11T04:28:02Z</time>
      </trkpt>
      <trkpt lat="46.39776" lon="5.5545">
        <ele>397</ele>
        <time>2019-02-11T04:29:02Z</time>
      </trkpt>
      <trkpt lat="46.39752" lon="5.55489">
        <ele>399</ele>
        <time>2019-02-11T04:30:02Z</time>
      </trkpt>
      <trkpt lat="46.3973" lon="5.55525">
        <ele>402</ele>
        <time>2019-02-11T04:31:02Z</time>
      </trkpt>
      <trkpt lat="46.39712" lon="5.55555">
        <ele>403</ele>
        <time>2019-02-11T04:32:02Z</time>
      </trkpt>
      <trkpt lat="46.39695" lon="5.55584">
        <ele>406</ele>
        <time>2019-02-11T04:33:02Z</time>
      </trkpt>
      <trkpt lat="46.39685" lon="5.55604">
        <ele>406</ele>
        <time>2019-02-11T04:34:02Z</time>
      </trkpt>
      <trkpt lat="46.39667" lon="5.55639">
        <ele>408</ele>
        <time>2019-02-11T04:35:02Z</time>
      </trkpt>
      <trkpt lat="46.39662" lon="5.55654">
        <ele>408</ele>
        <time>2019-02-11T04:36:02Z</time>
      </trkpt>
      <trkpt lat="46.39653" lon="5.55684">
        <ele>408</ele>
        <time>2019-02-11T04:37:02Z</time>
      </trkpt>
      <trkpt lat="46.39641" lon="5.55725">
        <ele>409</ele>
        <time>2019-02-11T04:38:02Z</time>
      </trkpt>
      <trkpt lat="46.39632" lon="5.55754">
        <ele>410</ele>
        <time>2019-02-11T04:39:02Z</time>
      </trkpt>
      <trkpt lat="46.39626" lon="5.55774">
        <ele>411</ele>
        <time>2019-02-11T04:40:02Z</time>
      </trkpt>
      <trkpt lat="46.39619" lon="5.55791">
        <ele>412</ele>
        <time>2019-02-11T04:41:02Z</time>
      </trkpt>
      <trkpt lat="46.39612" lon="5.55806">
        <ele>412</ele>
        <time>2019-02-11T04:42:02Z</time>
      </trkpt>
      <trkpt lat="46.396" lon="5.55822">
        <ele>413</ele>
        <time>2019-02-11T04:43:02Z</time>
      </trkpt>
      <trkpt lat="46.39589" lon="5.55836">
        <ele>414</ele>
        <time>2019-02-11T04:44:02Z</time>
      </trkpt>
      <trkpt lat="46.39569" lon="5.5586">
        <ele>414</ele>
        <time>2019-02-11T04:45:02Z</time>
      </trkpt>
      <trkpt lat="46.39545" lon="5.55889">
        <ele>415</ele>
        <time>2019-02-11T04:46:02Z</time>
      </trkpt>
      <trkpt lat="46.39526" lon="5.55911">
        <ele>415</ele>
        <time>2019-02-11T04:47:02Z</time>
      </trkpt>
      <trkpt lat="46.39508" lon="5.55934">
        <ele>415</ele>
        <time>2019-02-11T04:48:02Z</time>
      </trkpt>
      <trkpt lat="46.39489" lon="5.55959">
        <ele>416</ele>
        <time>2019-02-11T04:50:02Z</time>
      </trkpt>
      <trkpt lat="46.39471" lon="5.5599">
        <ele>417</ele>
        <time>2019-02-11T04:51:02Z</time>
      </trkpt>
      <trkpt lat="46.39452" lon="5.56027">
        <ele>420</ele>
        <time>2019-02-11T04:52:02Z</time>
      </trkpt>
      <trkpt lat="46.39436" lon="5.56059">
        <ele>422</ele>
        <time>2019-02-11T04:53:02Z</time>
      </trkpt>
      <trkpt lat="46.39365" lon="5.56206">
        <ele>433</ele>
        <time>2019-02-11T04:54:02Z</time>
      </trkpt>
      <trkpt lat="46.39348" lon="5.56237">
        <ele>434</ele>
        <time>2019-02-11T04:55:02Z</time>
      </trkpt>
      <trkpt lat="46.39339" lon="5.56252">
        <ele>435</ele>
        <time>2019-02-11T04:56:02Z</time>
      </trkpt>
      <trkpt lat="46.39318" lon="5.56283">
        <ele>437</ele>
        <time>2019-02-11T04:57:02Z</time>
      </trkpt>
      <trkpt lat="46.39311" lon="5.56301">
        <ele>437</ele>
        <time>2019-02-11T04:58:02Z</time>
      </trkpt>
      <trkpt lat="46.39307" lon="5.5632">
        <ele>438</ele>
        <time>2019-02-11T04:59:02Z</time>
      </trkpt>
      <trkpt lat="46.39305" lon="5.56341">
        <ele>438</ele>
        <time>2019-02-11T05:00:02Z</time>
      </trkpt>
      <trkpt lat="46.39304" lon="5.56378">
        <ele>440</ele>
        <time>2019-02-11T05:01:02Z</time>
      </trkpt>
      <trkpt lat="46.39304" lon="5.5641">
        <ele>441</ele>
        <time>2019-02-11T05:02:02Z</time>
      </trkpt>
      <trkpt lat="46.39304" lon="5.5641">
        <ele>441</ele>
        <time>2019-02-11T05:03:02Z</time>
      </trkpt>
      <trkpt lat="46.39304" lon="5.5641">
        <ele>441</ele>
        <time>2019-02-11T05:04:02Z</time>
      </trkpt>
      <trkpt lat="46.39304" lon="5.5641">
        <ele>441</ele>
        <time>2019-02-11T05:05:02Z</time>
      </trkpt>
      <trkpt lat="46.39303" lon="5.56421">
        <ele>442</ele>
        <time>2019-02-11T05:06:02Z</time>
      </trkpt>
      <trkpt lat="46.39303" lon="5.56431">
        <ele>442</ele>
        <time>2019-02-11T05:07:02Z</time>
      </trkpt>
      <trkpt lat="46.39303" lon="5.56431">
        <ele>442</ele>
        <time>2019-02-11T05:08:02Z</time>
      </trkpt>
      <trkpt lat="46.39294" lon="5.56429">
        <ele>442</ele>
        <time>2019-02-11T05:09:02Z</time>
      </trkpt>
      <trkpt lat="46.39277" lon="5.56432">
        <ele>442</ele>
        <time>2019-02-11T05:10:02Z</time>
      </trkpt>
      <trkpt lat="46.39261" lon="5.56436">
        <ele>442</ele>
        <time>2019-02-11T05:11:02Z</time>
      </trkpt>
      <trkpt lat="46.39239" lon="5.56442">
        <ele>443</ele>
        <time>2019-02-11T05:15:02Z</time>
      </trkpt>
      <trkpt lat="46.3922" lon="5.56447">
        <ele>444</ele>
        <time>2019-02-11T05:16:02Z</time>
      </trkpt>
      <trkpt lat="46.39211" lon="5.56449">
        <ele>445</ele>
        <time>2019-02-11T05:17:02Z</time>
      </trkpt>
      <trkpt lat="46.39197" lon="5.56451">
        <ele>445</ele>
        <time>2019-02-11T05:18:02Z</time>
      </trkpt>
      <trkpt lat="46.39188" lon="5.56451">
        <ele>446</ele>
        <time>2019-02-11T05:19:02Z</time>
      </trkpt>
      <trkpt lat="46.3918" lon="5.56452">
        <ele>446</ele>
        <time>2019-02-11T05:20:02Z</time>
      </trkpt>
      <trkpt lat="46.39172" lon="5.56451">
        <ele>447</ele>
        <time>2019-02-11T05:21:02Z</time>
      </trkpt>
      <trkpt lat="46.39159" lon="5.56449">
        <ele>447</ele>
        <time>2019-02-11T05:22:02Z</time>
      </trkpt>
      <trkpt lat="46.39141" lon="5.56442">
        <ele>447</ele>
        <time>2019-02-11T05:23:02Z</time>
      </trkpt>
      <trkpt lat="46.39125" lon="5.56437">
        <ele>448</ele>
        <time>2019-02-11T05:24:02Z</time>
      </trkpt>
      <trkpt lat="46.39107" lon="5.56434">
        <ele>448</ele>
        <time>2019-02-11T05:25:02Z</time>
      </trkpt>
      <trkpt lat="46.39093" lon="5.56432">
        <ele>448</ele>
        <time>2019-02-11T05:26:02Z</time>
      </trkpt>
      <trkpt lat="46.39079" lon="5.56432">
        <ele>448</ele>
        <time>2019-02-11T05:27:02Z</time>
      </trkpt>
      <trkpt lat="46.39064" lon="5.56432">
        <ele>448</ele>
        <time>2019-02-11T05:28:02Z</time>
      </trkpt>
      <trkpt lat="46.39035" lon="5.56433">
        <ele>447</ele>
        <time>2019-02-11T05:29:02Z</time>
      </trkpt>
      <trkpt lat="46.39035" lon="5.56433">
        <ele>447</ele>
        <time>2019-02-11T05:30:02Z</time>
      </trkpt>
      <trkpt lat="46.39036" lon="5.56444">
        <ele>447</ele>
        <time>2019-02-11T05:31:02Z</time>
      </trkpt>
      <trkpt lat="46.39042" lon="5.56457">
        <ele>448</ele>
        <time>2019-02-11T05:32:02Z</time>
      </trkpt>
      <trkpt lat="46.39063" lon="5.56501">
        <ele>451</ele>
        <time>2019-02-11T05:33:02Z</time>
      </trkpt>
      <trkpt lat="46.39079" lon="5.56536">
        <ele>451</ele>
        <time>2019-02-11T05:34:02Z</time>
      </trkpt>
      <trkpt lat="46.39082" lon="5.5655">
        <ele>452</ele>
        <time>2019-02-11T05:35:02Z</time>
      </trkpt>
      <trkpt lat="46.39088" lon="5.56576">
        <ele>452</ele>
        <time>2019-02-11T05:36:02Z</time>
      </trkpt>
      <trkpt lat="46.39094" lon="5.56595">
        <ele>452</ele>
        <time>2019-02-11T05:37:02Z</time>
      </trkpt>
      <trkpt lat="46.391" lon="5.56611">
        <ele>452</ele>
        <time>2019-02-11T05:38:02Z</time>
      </trkpt>
      <trkpt lat="46.39107" lon="5.56625">
        <ele>452</ele>
        <time>2019-02-11T05:39:02Z</time>
      </trkpt>
      <trkpt lat="46.39114" lon="5.56637">
        <ele>452</ele>
        <time>2019-02-11T05:40:02Z</time>
      </trkpt>
      <trkpt lat="46.39122" lon="5.56652">
        <ele>453</ele>
        <time>2019-02-11T05:41:02Z</time>
      </trkpt>
      <trkpt lat="46.39131" lon="5.56685">
        <ele>453.5</ele>
        <time>2019-02-11T05:42:02Z</time>
      </trkpt>
      <trkpt lat="46.39128" lon="5.56708">
        <ele>454</ele>
        <time>2019-02-11T05:43:02Z</time>
      </trkpt>
      <trkpt lat="46.39114" lon="5.56758">
        <ele>455</ele>
        <time>2019-02-11T05:44:02Z</time>
      </trkpt>
      <trkpt lat="46.39107" lon="5.56786">
        <ele>456</ele>
        <time>2019-02-11T05:45:02Z</time>
      </trkpt>
      <trkpt lat="46.39103" lon="5.56805">
        <ele>456</ele>
        <time>2019-02-11T05:46:02Z</time>
      </trkpt>
      <trkpt lat="46.39095" lon="5.5685">
        <ele>457</ele>
        <time>2019-02-11T05:47:02Z</time>
      </trkpt>
      <trkpt lat="46.39091" lon="5.56872">
        <ele>458</ele>
        <time>2019-02-11T05:48:02Z</time>
      </trkpt>
      <trkpt lat="46.3909" lon="5.56886">
        <ele>458</ele>
        <time>2019-02-11T05:49:02Z</time>
      </trkpt>
      <trkpt lat="46.39092" lon="5.56898">
        <ele>458</ele>
        <time>2019-02-11T05:50:02Z</time>
      </trkpt>
      <trkpt lat="46.39096" lon="5.5691">
        <ele>459</ele>
        <time>2019-02-11T05:51:02Z</time>
      </trkpt>
      <trkpt lat="46.391" lon="5.56918">
        <ele>459</ele>
        <time>2019-02-11T05:52:02Z</time>
      </trkpt>
      <trkpt lat="46.39105" lon="5.56923">
        <ele>459</ele>
        <time>2019-02-11T05:53:02Z</time>
      </trkpt>
      <trkpt lat="46.3911" lon="5.56925">
        <ele>459</ele>
        <time>2019-02-11T05:54:02Z</time>
      </trkpt>
      <trkpt lat="46.39115" lon="5.56924">
        <ele>459</ele>
        <time>2019-02-11T05:55:02Z</time>
      </trkpt>
      <trkpt lat="46.39121" lon="5.56922">
        <ele>458</ele>
        <time>2019-02-11T05:56:02Z</time>
      </trkpt>
      <trkpt lat="46.39128" lon="5.5692">
        <ele>458</ele>
        <time>2019-02-11T05:57:02Z</time>
      </trkpt>
      <trkpt lat="46.39144" lon="5.56917">
        <ele>458</ele>
        <time>2019-02-11T05:58:02Z</time>
      </trkpt>
      <trkpt lat="46.39165" lon="5.56917">
        <ele>457</ele>
        <time>2019-02-11T05:59:02Z</time>
      </trkpt>
      <trkpt lat="46.39165" lon="5.56917">
        <ele>457</ele>
        <time>2019-02-11T06:00:02Z</time>
      </trkpt>
      <trkpt lat="46.39167" lon="5.56924">
        <ele>457</ele>
        <time>2019-02-11T06:01:02Z</time>
      </trkpt>
      <trkpt lat="46.39175" lon="5.56951">
        <ele>459</ele>
        <time>2019-02-11T06:02:02Z</time>
      </trkpt>
      <trkpt lat="46.39178" lon="5.56966">
        <ele>459</ele>
        <time>2019-02-11T06:03:02Z</time>
      </trkpt>
      <trkpt lat="46.39182" lon="5.56981">
        <ele>460</ele>
        <time>2019-02-11T06:04:02Z</time>
      </trkpt>
      <trkpt lat="46.39184" lon="5.56989">
        <ele>459.5</ele>
        <time>2019-02-11T06:05:02Z</time>
      </trkpt>
      <trkpt lat="46.39181" lon="5.57007">
        <ele>461.5</ele>
        <time>2019-02-11T06:06:02Z</time>
      </trkpt>
      <trkpt lat="46.39177" lon="5.57039">
        <ele>463</ele>
        <time>2019-02-11T06:07:02Z</time>
      </trkpt>
      <trkpt lat="46.39175" lon="5.5705">
        <ele>463</ele>
        <time>2019-02-11T06:08:02Z</time>
      </trkpt>
      <trkpt lat="46.39168" lon="5.57071">
        <ele>464</ele>
        <time>2019-02-11T06:09:02Z</time>
      </trkpt>
      <trkpt lat="46.39163" lon="5.57082">
        <ele>465</ele>
        <time>2019-02-11T06:10:02Z</time>
      </trkpt>
      <trkpt lat="46.39156" lon="5.57098">
        <ele>466</ele>
        <time>2019-02-11T06:11:02Z</time>
      </trkpt>
      <trkpt lat="46.39147" lon="5.57115">
        <ele>468</ele>
        <time>2019-02-11T06:12:02Z</time>
      </trkpt>
      <trkpt lat="46.39132" lon="5.57148">
        <ele>470</ele>
        <time>2019-02-11T06:13:02Z</time>
      </trkpt>
      <trkpt lat="46.39119" lon="5.57179">
        <ele>471</ele>
        <time>2019-02-11T06:14:02Z</time>
      </trkpt>
      <trkpt lat="46.39114" lon="5.57193">
        <ele>472</ele>
        <time>2019-02-11T06:15:02Z</time>
      </trkpt>
      <trkpt lat="46.39107" lon="5.57205">
        <ele>473</ele>
        <time>2019-02-11T06:16:02Z</time>
      </trkpt>
      <trkpt lat="46.39101" lon="5.57229">
        <ele>474</ele>
        <time>2019-02-11T06:17:02Z</time>
      </trkpt>
      <trkpt lat="46.39091" lon="5.57261">
        <ele>475</ele>
        <time>2019-02-11T06:18:02Z</time>
      </trkpt>
      <trkpt lat="46.39083" lon="5.57294">
        <ele>476</ele>
        <time>2019-02-11T06:19:02Z</time>
      </trkpt>
      <trkpt lat="46.39078" lon="5.57316">
        <ele>477</ele>
        <time>2019-02-11T06:20:02Z</time>
      </trkpt>
      <trkpt lat="46.39074" lon="5.57337">
        <ele>478</ele>
        <time>2019-02-11T06:21:02Z</time>
      </trkpt>
      <trkpt lat="46.39068" lon="5.57366">
        <ele>480</ele>
        <time>2019-02-11T06:22:02Z</time>
      </trkpt>
      <trkpt lat="46.39065" lon="5.57384">
        <ele>482</ele>
        <time>2019-02-11T06:23:02Z</time>
      </trkpt>
      <trkpt lat="46.39063" lon="5.57396">
        <ele>483</ele>
        <time>2019-02-11T06:24:02Z</time>
      </trkpt>
      <trkpt lat="46.39061" lon="5.57415">
        <ele>485</ele>
        <time>2019-02-11T06:25:02Z</time>
      </trkpt>
      <trkpt lat="46.39062" lon="5.57426">
        <ele>486</ele>
        <time>2019-02-11T06:26:02Z</time>
      </trkpt>
      <trkpt lat="46.39066" lon="5.57439">
        <ele>486</ele>
        <time>2019-02-11T06:27:02Z</time>
      </trkpt>
      <trkpt lat="46.39075" lon="5.57452">
        <ele>487</ele>
        <time>2019-02-11T06:28:02Z</time>
      </trkpt>
      <trkpt lat="46.39088" lon="5.57462">
        <ele>487</ele>
        <time>2019-02-11T06:29:02Z</time>
      </trkpt>
      <trkpt lat="46.39105" lon="5.57476">
        <ele>487</ele>
        <time>2019-02-11T06:30:02Z</time>
      </trkpt>
      <trkpt lat="46.39119" lon="5.57486">
        <ele>487</ele>
        <time>2019-02-11T06:31:02Z</time>
      </trkpt>
      <trkpt lat="46.39134" lon="5.57499">
        <ele>486</ele>
        <time>2019-02-11T06:32:02Z</time>
      </trkpt>
      <trkpt lat="46.39149" lon="5.57512">
        <ele>487</ele>
        <time>2019-02-11T06:33:02Z</time>
      </trkpt>
      <trkpt lat="46.39195" lon="5.57558">
        <ele>491</ele>
        <time>2019-02-11T06:34:02Z</time>
      </trkpt>
      <trkpt lat="46.39214" lon="5.57573">
        <ele>492</ele>
        <time>2019-02-11T06:35:02Z</time>
      </trkpt>
      <trkpt lat="46.39223" lon="5.5758">
        <ele>493</ele>
        <time>2019-02-11T06:36:02Z</time>
      </trkpt>
      <trkpt lat="46.39232" lon="5.57586">
        <ele>493</ele>
        <time>2019-02-11T06:37:02Z</time>
      </trkpt>
      <trkpt lat="46.39242" lon="5.57594">
        <ele>494</ele>
        <time>2019-02-11T06:38:02Z</time>
      </trkpt>
      <trkpt lat="46.3926" lon="5.57614">
        <ele>496</ele>
        <time>2019-02-11T06:39:02Z</time>
      </trkpt>
      <trkpt lat="46.39262" lon="5.57616">
        <ele>496</ele>
        <time>2019-02-11T06:40:02Z</time>
      </trkpt>
      <trkpt lat="46.3927" lon="5.57628">
        <ele>497</ele>
        <time>2019-02-11T06:41:02Z</time>
      </trkpt>
      <trkpt lat="46.39279" lon="5.57643">
        <ele>498</ele>
        <time>2019-02-11T06:42:02Z</time>
      </trkpt>
      <trkpt lat="46.39282" lon="5.57656">
        <ele>499</ele>
        <time>2019-02-11T06:43:02Z</time>
      </trkpt>
      <trkpt lat="46.39284" lon="5.5767">
        <ele>501</ele>
        <time>2019-02-11T06:44:02Z</time>
      </trkpt>
      <trkpt lat="46.39282" lon="5.57682">
        <ele>502</ele>
        <time>2019-02-11T06:45:02Z</time>
      </trkpt>
      <trkpt lat="46.3928" lon="5.57689">
        <ele>503</ele>
        <time>2019-02-11T06:46:02Z</time>
      </trkpt>
      <trkpt lat="46.39276" lon="5.57695">
        <ele>503</ele>
        <time>2019-02-11T06:47:02Z</time>
      </trkpt>
      <trkpt lat="46.39267" lon="5.57701">
        <ele>505</ele>
        <time>2019-02-11T06:48:02Z</time>
      </trkpt>
      <trkpt lat="46.39255" lon="5.57702">
        <ele>506</ele>
        <time>2019-02-11T06:49:02Z</time>
      </trkpt>
      <trkpt lat="46.39245" lon="5.57703">
        <ele>507</ele>
        <time>2019-02-11T06:50:02Z</time>
      </trkpt>
      <trkpt lat="46.39238" lon="5.57704">
        <ele>507</ele>
        <time>2019-02-11T06:51:02Z</time>
      </trkpt>
      <trkpt lat="46.39232" lon="5.57704">
        <ele>507</ele>
        <time>2019-02-11T06:52:02Z</time>
      </trkpt>
      <trkpt lat="46.39228" lon="5.57705">
        <ele>507</ele>
        <time>2019-02-11T06:53:02Z</time>
      </trkpt>
      <trkpt lat="46.39214" lon="5.57709">
        <ele>508</ele>
        <time>2019-02-11T06:54:02Z</time>
      </trkpt>
      <trkpt lat="46.39207" lon="5.57714">
        <ele>509</ele>
        <time>2019-02-11T06:55:02Z</time>
      </trkpt>
      <trkpt lat="46.39195" lon="5.57722">
        <ele>510</ele>
        <time>2019-02-11T06:56:02Z</time>
      </trkpt>
      <trkpt lat="46.39183" lon="5.57731">
        <ele>511</ele>
        <time>2019-02-11T06:57:02Z</time>
      </trkpt>
      <trkpt lat="46.39169" lon="5.57741">
        <ele>512</ele>
        <time>2019-02-11T06:58:02Z</time>
      </trkpt>
      <trkpt lat="46.39154" lon="5.57749">
        <ele>513</ele>
        <time>2019-02-11T06:59:02Z</time>
      </trkpt>
      <trkpt lat="46.39136" lon="5.57755">
        <ele>513</ele>
        <time>2019-02-11T07:00:02Z</time>
      </trkpt>
      <trkpt lat="46.39117" lon="5.57763">
        <ele>514</ele>
        <time>2019-02-11T07:01:02Z</time>
      </trkpt>
      <trkpt lat="46.3909" lon="5.57772">
        <ele>516</ele>
        <time>2019-02-11T07:02:02Z</time>
      </trkpt>
      <trkpt lat="46.39057" lon="5.57781">
        <ele>516</ele>
        <time>2019-02-11T07:03:02Z</time>
      </trkpt>
      <trkpt lat="46.39044" lon="5.57784">
        <ele>516</ele>
        <time>2019-02-11T07:04:02Z</time>
      </trkpt>
      <trkpt lat="46.39037" lon="5.57788">
        <ele>517</ele>
        <time>2019-02-11T07:05:02Z</time>
      </trkpt>
      <trkpt lat="46.39036" lon="5.5779">
        <ele>517</ele>
        <time>2019-02-11T07:06:02Z</time>
      </trkpt>
      <trkpt lat="46.39035" lon="5.57792">
        <ele>517</ele>
        <time>2019-02-11T07:07:02Z</time>
      </trkpt>
      <trkpt lat="46.39034" lon="5.57794">
        <ele>517</ele>
        <time>2019-02-11T07:08:02Z</time>
      </trkpt>
      <trkpt lat="46.39033" lon="5.57795">
        <ele>518</ele>
        <time>2019-02-11T07:09:02Z</time>
      </trkpt>
      <trkpt lat="46.39033" lon="5.57798">
        <ele>518</ele>
        <time>2019-02-11T07:10:02Z</time>
      </trkpt>
      <trkpt lat="46.39033" lon="5.57803">
        <ele>519</ele>
        <time>2019-02-11T07:11:02Z</time>
      </trkpt>
      <trkpt lat="46.39035" lon="5.57807">
        <ele>520</ele>
        <time>2019-02-11T07:12:02Z</time>
      </trkpt>
      <trkpt lat="46.39037" lon="5.57809">
        <ele>520</ele>
        <time>2019-02-11T07:13:02Z</time>
      </trkpt>
      <trkpt lat="46.39039" lon="5.5781">
        <ele>520</ele>
        <time>2019-02-11T07:14:02Z</time>
      </trkpt>
      <trkpt lat="46.39041" lon="5.57811">
        <ele>520</ele>
        <time>2019-02-11T07:15:02Z</time>
      </trkpt>
      <trkpt lat="46.39042" lon="5.57811">
        <ele>520</ele>
        <time>2019-02-11T07:16:02Z</time>
      </trkpt>
      <trkpt lat="46.3906" lon="5.57805">
        <ele>520</ele>
        <time>2019-02-11T07:17:02Z</time>
      </trkpt>
      <trkpt lat="46.39069" lon="5.57805">
        <ele>520</ele>
        <time>2019-02-11T07:18:02Z</time>
      </trkpt>
      <trkpt lat="46.39076" lon="5.57806">
        <ele>521</ele>
        <time>2019-02-11T07:19:02Z</time>
      </trkpt>
      <trkpt lat="46.39088" lon="5.57809">
        <ele>521</ele>
        <time>2019-02-11T07:20:02Z</time>
      </trkpt>
      <trkpt lat="46.39117" lon="5.57822">
        <ele>524</ele>
        <time>2019-02-11T07:21:02Z</time>
      </trkpt>
      <trkpt lat="46.39127" lon="5.57827">
        <ele>525</ele>
        <time>2019-02-11T07:22:02Z</time>
      </trkpt>
      <trkpt lat="46.39166" lon="5.57847">
        <ele>529</ele>
        <time>2019-02-11T07:23:02Z</time>
      </trkpt>
      <trkpt lat="46.39182" lon="5.57857">
        <ele>529</ele>
        <time>2019-02-11T07:24:02Z</time>
      </trkpt>
      <trkpt lat="46.39202" lon="5.57875">
        <ele>531</ele>
        <time>2019-02-11T07:25:02Z</time>
      </trkpt>
      <trkpt lat="46.39221" lon="5.57894">
        <ele>533</ele>
        <time>2019-02-11T07:26:02Z</time>
      </trkpt>
      <trkpt lat="46.39235" lon="5.5791">
        <ele>534</ele>
        <time>2019-02-11T07:27:02Z</time>
      </trkpt>
      <trkpt lat="46.39239" lon="5.57915">
        <ele>535</ele>
        <time>2019-02-11T07:28:02Z</time>
      </trkpt>
      <trkpt lat="46.39244" lon="5.57921">
        <ele>535</ele>
        <time>2019-02-11T07:29:02Z</time>
      </trkpt>
      <trkpt lat="46.39248" lon="5.57929">
        <ele>535</ele>
        <time>2019-02-11T07:30:02Z</time>
      </trkpt>
      <trkpt lat="46.39251" lon="5.57939">
        <ele>536</ele>
        <time>2019-02-11T07:31:02Z</time>
      </trkpt>
      <trkpt lat="46.39251" lon="5.57951">
        <ele>537</ele>
        <time>2019-02-11T07:32:02Z</time>
      </trkpt>
      <trkpt lat="46.39249" lon="5.57975">
        <ele>539</ele>
        <time>2019-02-11T07:33:02Z</time>
      </trkpt>
      <trkpt lat="46.39247" lon="5.58002">
        <ele>542</ele>
        <time>2019-02-11T07:34:02Z</time>
      </trkpt>
      <trkpt lat="46.39245" lon="5.58017">
        <ele>543</ele>
        <time>2019-02-11T07:35:02Z</time>
      </trkpt>
      <trkpt lat="46.39243" lon="5.58041">
        <ele>546</ele>
        <time>2019-02-11T07:36:02Z</time>
      </trkpt>
      <trkpt lat="46.39243" lon="5.58062">
        <ele>547</ele>
        <time>2019-02-11T07:37:02Z</time>
      </trkpt>
      <trkpt lat="46.39245" lon="5.58074">
        <ele>548</ele>
        <time>2019-02-11T07:38:02Z</time>
      </trkpt>
      <trkpt lat="46.39248" lon="5.58082">
        <ele>548</ele>
        <time>2019-02-11T07:39:02Z</time>
      </trkpt>
      <trkpt lat="46.39253" lon="5.58089">
        <ele>548</ele>
        <time>2019-02-11T07:40:02Z</time>
      </trkpt>
      <trkpt lat="46.39264" lon="5.58096">
        <ele>548</ele>
        <time>2019-02-11T07:41:02Z</time>
      </trkpt>
      <trkpt lat="46.39273" lon="5.58099">
        <ele>547</ele>
        <time>2019-02-11T07:42:02Z</time>
      </trkpt>
      <trkpt lat="46.39284" lon="5.58105">
        <ele>547</ele>
        <time>2019-02-11T07:43:02Z</time>
      </trkpt>
      <trkpt lat="46.3929" lon="5.58113">
        <ele>547</ele>
        <time>2019-02-11T07:44:02Z</time>
      </trkpt>
      <trkpt lat="46.39297" lon="5.58126">
        <ele>547</ele>
        <time>2019-02-11T07:45:02Z</time>
      </trkpt>
      <trkpt lat="46.39304" lon="5.58144">
        <ele>548</ele>
        <time>2019-02-11T07:46:02Z</time>
      </trkpt>
      <trkpt lat="46.39314" lon="5.58166">
        <ele>549</ele>
        <time>2019-02-11T07:47:02Z</time>
      </trkpt>
      <trkpt lat="46.39327" lon="5.5819">
        <ele>551</ele>
        <time>2019-02-11T07:48:02Z</time>
      </trkpt>
      <trkpt lat="46.39343" lon="5.58214">
        <ele>553</ele>
        <time>2019-02-11T07:49:02Z</time>
      </trkpt>
      <trkpt lat="46.39357" lon="5.58233">
        <ele>554</ele>
        <time>2019-02-11T07:51:02Z</time>
      </trkpt>
      <trkpt lat="46.39382" lon="5.58265">
        <ele>556</ele>
        <time>2019-02-11T07:52:02Z</time>
      </trkpt>
      <trkpt lat="46.39418" lon="5.58307">
        <ele>559</ele>
        <time>2019-02-11T07:53:02Z</time>
      </trkpt>
      <trkpt lat="46.39433" lon="5.58324">
        <ele>560</ele>
        <time>2019-02-11T07:54:02Z</time>
      </trkpt>
      <trkpt lat="46.39456" lon="5.58351">
        <ele>563</ele>
        <time>2019-02-11T07:55:02Z</time>
      </trkpt>
      <trkpt lat="46.39473" lon="5.58368">
        <ele>564</ele>
        <time>2019-02-11T07:56:02Z</time>
      </trkpt>
      <trkpt lat="46.39484" lon="5.58376">
        <ele>564</ele>
        <time>2019-02-11T07:57:02Z</time>
      </trkpt>
      <trkpt lat="46.39493" lon="5.5838">
        <ele>564</ele>
        <time>2019-02-11T07:58:02Z</time>
      </trkpt>
      <trkpt lat="46.39502" lon="5.58387">
        <ele>565</ele>
        <time>2019-02-11T07:59:02Z</time>
      </trkpt>
      <trkpt lat="46.39509" lon="5.58396">
        <ele>566</ele>
        <time>2019-02-11T08:00:02Z</time>
      </trkpt>
      <trkpt lat="46.39511" lon="5.58404">
        <ele>567</ele>
        <time>2019-02-11T08:01:02Z</time>
      </trkpt>
      <trkpt lat="46.39511" lon="5.58412">
        <ele>568</ele>
        <time>2019-02-11T08:02:02Z</time>
      </trkpt>
      <trkpt lat="46.39509" lon="5.58426">
        <ele>571</ele>
        <time>2019-02-11T08:03:02Z</time>
      </trkpt>
      <trkpt lat="46.39508" lon="5.5843">
        <ele>571</ele>
        <time>2019-02-11T08:04:02Z</time>
      </trkpt>
      <trkpt lat="46.39505" lon="5.58437">
        <ele>573</ele>
        <time>2019-02-11T08:05:02Z</time>
      </trkpt>
      <trkpt lat="46.39495" lon="5.58449">
        <ele>575</ele>
        <time>2019-02-11T08:06:02Z</time>
      </trkpt>
      <trkpt lat="46.39486" lon="5.58456">
        <ele>577</ele>
        <time>2019-02-11T08:07:02Z</time>
      </trkpt>
      <trkpt lat="46.39478" lon="5.58459">
        <ele>577</ele>
        <time>2019-02-11T08:08:02Z</time>
      </trkpt>
      <trkpt lat="46.39471" lon="5.58459">
        <ele>578</ele>
        <time>2019-02-11T08:09:02Z</time>
      </trkpt>
      <trkpt lat="46.39464" lon="5.58457">
        <ele>578</ele>
        <time>2019-02-11T08:10:02Z</time>
      </trkpt>
      <trkpt lat="46.39458" lon="5.58453">
        <ele>578</ele>
        <time>2019-02-11T08:11:02Z</time>
      </trkpt>
      <trkpt lat="46.39452" lon="5.58449">
        <ele>578</ele>
        <time>2019-02-11T08:12:02Z</time>
      </trkpt>
      <trkpt lat="46.39426" lon="5.58427">
        <ele>577</ele>
        <time>2019-02-11T08:13:02Z</time>
      </trkpt>
      <trkpt lat="46.39417" lon="5.58418">
        <ele>577</ele>
        <time>2019-02-11T08:14:02Z</time>
      </trkpt>
      <trkpt lat="46.39411" lon="5.5841">
        <ele>576</ele>
        <time>2019-02-11T08:15:02Z</time>
      </trkpt>
      <trkpt lat="46.39406" lon="5.584">
        <ele>575</ele>
        <time>2019-02-11T08:16:02Z</time>
      </trkpt>
      <trkpt lat="46.39403" lon="5.58392">
        <ele>574</ele>
        <time>2019-02-11T08:17:02Z</time>
      </trkpt>
      <trkpt lat="46.394" lon="5.58386">
        <ele>573</ele>
        <time>2019-02-11T08:18:02Z</time>
      </trkpt>
      <trkpt lat="46.39397" lon="5.58382">
        <ele>573</ele>
        <time>2019-02-11T08:19:02Z</time>
      </trkpt>
      <trkpt lat="46.39394" lon="5.58379">
        <ele>573</ele>
        <time>2019-02-11T08:20:02Z</time>
      </trkpt>
      <trkpt lat="46.3939" lon="5.58377">
        <ele>573</ele>
        <time>2019-02-11T08:21:02Z</time>
      </trkpt>
      <trkpt lat="46.39386" lon="5.58375">
        <ele>573</ele>
        <time>2019-02-11T08:22:02Z</time>
      </trkpt>
      <trkpt lat="46.39381" lon="5.58375">
        <ele>573</ele>
        <time>2019-02-11T08:23:02Z</time>
      </trkpt>
      <trkpt lat="46.39377" lon="5.58376">
        <ele>574</ele>
        <time>2019-02-11T08:24:02Z</time>
      </trkpt>
      <trkpt lat="46.39373" lon="5.58379">
        <ele>574</ele>
        <time>2019-02-11T08:25:02Z</time>
      </trkpt>
      <trkpt lat="46.39369" lon="5.58383">
        <ele>575</ele>
        <time>2019-02-11T08:26:02Z</time>
      </trkpt>
      <trkpt lat="46.39367" lon="5.58387">
        <ele>576</ele>
        <time>2019-02-11T08:27:02Z</time>
      </trkpt>
      <trkpt lat="46.39366" lon="5.58392">
        <ele>577</ele>
        <time>2019-02-11T08:28:02Z</time>
      </trkpt>
      <trkpt lat="46.39365" lon="5.58397">
        <ele>577</ele>
        <time>2019-02-11T08:29:02Z</time>
      </trkpt>
      <trkpt lat="46.39365" lon="5.58403">
        <ele>578</ele>
        <time>2019-02-11T08:30:02Z</time>
      </trkpt>
      <trkpt lat="46.39366" lon="5.58409">
        <ele>579</ele>
        <time>2019-02-11T08:31:02Z</time>
      </trkpt>
      <trkpt lat="46.39368" lon="5.58415">
        <ele>580</ele>
        <time>2019-02-11T08:32:02Z</time>
      </trkpt>
      <trkpt lat="46.39371" lon="5.58422">
        <ele>580</ele>
        <time>2019-02-11T08:33:02Z</time>
      </trkpt>
      <trkpt lat="46.39379" lon="5.58438">
        <ele>581</ele>
        <time>2019-02-11T08:34:02Z</time>
      </trkpt>
      <trkpt lat="46.39386" lon="5.58457">
        <ele>583</ele>
        <time>2019-02-11T08:35:02Z</time>
      </trkpt>
      <trkpt lat="46.39391" lon="5.58469">
        <ele>583</ele>
        <time>2019-02-11T08:36:02Z</time>
      </trkpt>
      <trkpt lat="46.39393" lon="5.58485">
        <ele>585</ele>
        <time>2019-02-11T08:37:02Z</time>
      </trkpt>
      <trkpt lat="46.39394" lon="5.58493">
        <ele>585</ele>
        <time>2019-02-11T08:38:02Z</time>
      </trkpt>
      <trkpt lat="46.39395" lon="5.58567">
        <ele>592</ele>
        <time>2019-02-11T08:39:02Z</time>
      </trkpt>
      <trkpt lat="46.39397" lon="5.58609">
        <ele>595</ele>
        <time>2019-02-11T08:40:02Z</time>
      </trkpt>
      <trkpt lat="46.39399" lon="5.58641">
        <ele>596</ele>
        <time>2019-02-11T08:41:02Z</time>
      </trkpt>
      <trkpt lat="46.39399" lon="5.58653">
        <ele>596</ele>
        <time>2019-02-11T08:42:02Z</time>
      </trkpt>
      <trkpt lat="46.394" lon="5.58692">
        <ele>598</ele>
        <time>2019-02-11T08:43:02Z</time>
      </trkpt>
      <trkpt lat="46.39399" lon="5.58719">
        <ele>598.2</ele>
        <time>2019-02-11T08:44:02Z</time>
      </trkpt>
      <trkpt lat="46.39402" lon="5.58736">
        <ele>599</ele>
        <time>2019-02-11T08:45:02Z</time>
      </trkpt>
      <trkpt lat="46.39402" lon="5.58753">
        <ele>600</ele>
        <time>2019-02-11T08:46:02Z</time>
      </trkpt>
      <trkpt lat="46.39401" lon="5.58768">
        <ele>602</ele>
        <time>2019-02-11T08:47:02Z</time>
      </trkpt>
      <trkpt lat="46.39399" lon="5.58774">
        <ele>603</ele>
        <time>2019-02-11T08:48:02Z</time>
      </trkpt>
      <trkpt lat="46.39397" lon="5.58781">
        <ele>603</ele>
        <time>2019-02-11T08:49:02Z</time>
      </trkpt>
      <trkpt lat="46.39393" lon="5.58789">
        <ele>604</ele>
        <time>2019-02-11T08:50:02Z</time>
      </trkpt>
      <trkpt lat="46.39387" lon="5.58798">
        <ele>605</ele>
        <time>2019-02-11T08:51:02Z</time>
      </trkpt>
      <trkpt lat="46.39378" lon="5.58809">
        <ele>606</ele>
        <time>2019-02-11T08:52:02Z</time>
      </trkpt>
      <trkpt lat="46.39366" lon="5.58821">
        <ele>606</ele>
        <time>2019-02-11T08:53:02Z</time>
      </trkpt>
      <trkpt lat="46.39349" lon="5.58836">
        <ele>606</ele>
        <time>2019-02-11T08:54:02Z</time>
      </trkpt>
      <trkpt lat="46.39326" lon="5.58855">
        <ele>606</ele>
        <time>2019-02-11T08:55:02Z</time>
      </trkpt>
      <trkpt lat="46.39294" lon="5.58883">
        <ele>607</ele>
        <time>2019-02-11T08:56:02Z</time>
      </trkpt>
      <trkpt lat="46.39288" lon="5.58888">
        <ele>607</ele>
        <time>2019-02-11T08:57:02Z</time>
      </trkpt>
      <trkpt lat="46.39282" lon="5.58894">
        <ele>607</ele>
        <time>2019-02-11T08:58:02Z</time>
      </trkpt>
      <trkpt lat="46.39277" lon="5.58902">
        <ele>608</ele>
        <time>2019-02-11T08:59:02Z</time>
      </trkpt>
      <trkpt lat="46.39273" lon="5.58912">
        <ele>608</ele>
        <time>2019-02-11T09:00:02Z</time>
      </trkpt>
      <trkpt lat="46.39269" lon="5.58925">
        <ele>608</ele>
        <time>2019-02-11T09:01:02Z</time>
      </trkpt>
      <trkpt lat="46.39267" lon="5.58938">
        <ele>609</ele>
        <time>2019-02-11T09:02:02Z</time>
      </trkpt>
      <trkpt lat="46.39266" lon="5.58952">
        <ele>609</ele>
        <time>2019-02-11T09:03:02Z</time>
      </trkpt>
      <trkpt lat="46.39264" lon="5.5897">
        <ele>610</ele>
        <time>2019-02-11T09:04:02Z</time>
      </trkpt>
      <trkpt lat="46.39262" lon="5.5899">
        <ele>611</ele>
        <time>2019-02-11T09:05:02Z</time>
      </trkpt>
      <trkpt lat="46.3926" lon="5.58999">
        <ele>611</ele>
        <time>2019-02-11T09:06:02Z</time>
      </trkpt>
      <trkpt lat="46.39257" lon="5.59008">
        <ele>612</ele>
        <time>2019-02-11T09:07:02Z</time>
      </trkpt>
      <trkpt lat="46.39255" lon="5.59015">
        <ele>613</ele>
        <time>2019-02-11T09:08:02Z</time>
      </trkpt>
      <trkpt lat="46.39252" lon="5.5902">
        <ele>613</ele>
        <time>2019-02-11T09:09:02Z</time>
      </trkpt>
      <trkpt lat="46.39246" lon="5.59026">
        <ele>614</ele>
        <time>2019-02-11T09:10:02Z</time>
      </trkpt>
      <trkpt lat="46.39236" lon="5.59033">
        <ele>616</ele>
        <time>2019-02-11T09:11:02Z</time>
      </trkpt>
      <trkpt lat="46.39227" lon="5.59038">
        <ele>616</ele>
        <time>2019-02-11T09:12:02Z</time>
      </trkpt>
      <trkpt lat="46.39221" lon="5.59045">
        <ele>617</ele>
        <time>2019-02-11T09:13:02Z</time>
      </trkpt>
      <trkpt lat="46.39211" lon="5.59058">
        <ele>619</ele>
        <time>2019-02-11T09:14:02Z</time>
      </trkpt>
      <trkpt lat="46.39205" lon="5.59069">
        <ele>620</ele>
        <time>2019-02-11T09:15:02Z</time>
      </trkpt>
      <trkpt lat="46.39198" lon="5.59078">
        <ele>621</ele>
        <time>2019-02-11T09:16:02Z</time>
      </trkpt>
      <trkpt lat="46.39191" lon="5.59083">
        <ele>621</ele>
        <time>2019-02-11T09:17:02Z</time>
      </trkpt>
      <trkpt lat="46.39185" lon="5.59085">
        <ele>621</ele>
        <time>2019-02-11T09:18:02Z</time>
      </trkpt>
      <trkpt lat="46.39177" lon="5.59086">
        <ele>621</ele>
        <time>2019-02-11T09:19:02Z</time>
      </trkpt>
      <trkpt lat="46.39159" lon="5.59087">
        <ele>621</ele>
        <time>2019-02-11T09:20:02Z</time>
      </trkpt>
      <trkpt lat="46.39142" lon="5.59087">
        <ele>621</ele>
        <time>2019-02-11T09:21:02Z</time>
      </trkpt>
      <trkpt lat="46.39129" lon="5.59088">
        <ele>622</ele>
        <time>2019-02-11T09:22:02Z</time>
      </trkpt>
      <trkpt lat="46.39116" lon="5.59095">
        <ele>622</ele>
        <time>2019-02-11T09:23:02Z</time>
      </trkpt>
      <trkpt lat="46.39106" lon="5.59101">
        <ele>623</ele>
        <time>2019-02-11T09:24:02Z</time>
      </trkpt>
      <trkpt lat="46.39093" lon="5.59115">
        <ele>624</ele>
        <time>2019-02-11T09:25:02Z</time>
      </trkpt>
      <trkpt lat="46.39085" lon="5.59124">
        <ele>625</ele>
        <time>2019-02-11T09:26:02Z</time>
      </trkpt>
      <trkpt lat="46.39081" lon="5.59128">
        <ele>625</ele>
        <time>2019-02-11T09:27:02Z</time>
      </trkpt>
      <trkpt lat="46.39078" lon="5.59136">
        <ele>626</ele>
        <time>2019-02-11T09:28:02Z</time>
      </trkpt>
      <trkpt lat="46.39077" lon="5.59143">
        <ele>626</ele>
        <time>2019-02-11T09:29:02Z</time>
      </trkpt>
      <trkpt lat="46.39075" lon="5.59152">
        <ele>627</ele>
        <time>2019-02-11T09:30:02Z</time>
      </trkpt>
      <trkpt lat="46.39076" lon="5.59159">
        <ele>627</ele>
        <time>2019-02-11T09:31:02Z</time>
      </trkpt>
      <trkpt lat="46.39078" lon="5.59166">
        <ele>627</ele>
        <time>2019-02-11T09:32:02Z</time>
      </trkpt>
      <trkpt lat="46.3908" lon="5.59173">
        <ele>627</ele>
        <time>2019-02-11T09:33:02Z</time>
      </trkpt>
      <trkpt lat="46.39087" lon="5.59181">
        <ele>627</ele>
        <time>2019-02-11T09:34:02Z</time>
      </trkpt>
      <trkpt lat="46.39095" lon="5.59187">
        <ele>628</ele>
        <time>2019-02-11T09:35:02Z</time>
      </trkpt>
      <trkpt lat="46.39104" lon="5.59192">
        <ele>628</ele>
        <time>2019-02-11T09:36:02Z</time>
      </trkpt>
      <trkpt lat="46.39115" lon="5.59197">
        <ele>628</ele>
        <time>2019-02-11T09:37:02Z</time>
      </trkpt>
      <trkpt lat="46.39127" lon="5.59202">
        <ele>628</ele>
        <time>2019-02-11T09:38:02Z</time>
      </trkpt>
      <trkpt lat="46.39138" lon="5.59207">
        <ele>628</ele>
        <time>2019-02-11T09:39:02Z</time>
      </trkpt>
      <trkpt lat="46.39153" lon="5.59214">
        <ele>628</ele>
        <time>2019-02-11T09:40:02Z</time>
      </trkpt>
      <trkpt lat="46.39161" lon="5.59218">
        <ele>628</ele>
        <time>2019-02-11T09:41:02Z</time>
      </trkpt>
      <trkpt lat="46.39174" lon="5.59227">
        <ele>630</ele>
        <time>2019-02-11T09:42:02Z</time>
      </trkpt>
      <trkpt lat="46.39188" lon="5.59239">
        <ele>631</ele>
        <time>2019-02-11T09:43:02Z</time>
      </trkpt>
      <trkpt lat="46.3921" lon="5.59256">
        <ele>634</ele>
        <time>2019-02-11T09:44:02Z</time>
      </trkpt>
      <trkpt lat="46.39237" lon="5.59277">
        <ele>636</ele>
        <time>2019-02-11T09:45:02Z</time>
      </trkpt>
      <trkpt lat="46.39267" lon="5.59301">
        <ele>637</ele>
        <time>2019-02-11T09:46:02Z</time>
      </trkpt>
      <trkpt lat="46.39302" lon="5.59328">
        <ele>637</ele>
        <time>2019-02-11T09:47:02Z</time>
      </trkpt>
      <trkpt lat="46.39356" lon="5.59372">
        <ele>636</ele>
        <time>2019-02-11T09:48:02Z</time>
      </trkpt>
      <trkpt lat="46.39365" lon="5.59382">
        <ele>635</ele>
        <time>2019-02-11T09:49:02Z</time>
      </trkpt>
      <trkpt lat="46.3937" lon="5.59389">
        <ele>634</ele>
        <time>2019-02-11T09:50:02Z</time>
      </trkpt>
      <trkpt lat="46.39373" lon="5.59397">
        <ele>634</ele>
        <time>2019-02-11T09:51:02Z</time>
      </trkpt>
      <trkpt lat="46.39375" lon="5.59404">
        <ele>634</ele>
        <time>2019-02-11T09:54:02Z</time>
      </trkpt>
      <trkpt lat="46.39375" lon="5.59409">
        <ele>634</ele>
        <time>2019-02-11T09:55:02Z</time>
      </trkpt>
      <trkpt lat="46.39375" lon="5.59417">
        <ele>634</ele>
        <time>2019-02-11T09:56:02Z</time>
      </trkpt>
      <trkpt lat="46.39373" lon="5.59424">
        <ele>634</ele>
        <time>2019-02-11T09:57:02Z</time>
      </trkpt>
      <trkpt lat="46.3937" lon="5.59434">
        <ele>635</ele>
        <time>2019-02-11T09:58:02Z</time>
      </trkpt>
      <trkpt lat="46.39363" lon="5.59444">
        <ele>636</ele>
        <time>2019-02-11T09:59:02Z</time>
      </trkpt>
      <trkpt lat="46.3936" lon="5.59447">
        <ele>636</ele>
        <time>2019-02-11T10:00:02Z</time>
      </trkpt>
      <trkpt lat="46.39352" lon="5.59454">
        <ele>637</ele>
        <time>2019-02-11T10:01:02Z</time>
      </trkpt>
      <trkpt lat="46.39334" lon="5.59461">
        <ele>639</ele>
        <time>2019-02-11T10:02:02Z</time>
      </trkpt>
      <trkpt lat="46.39321" lon="5.59463">
        <ele>640</ele>
        <time>2019-02-11T10:03:02Z</time>
      </trkpt>
      <trkpt lat="46.39307" lon="5.59463">
        <ele>641</ele>
        <time>2019-02-11T10:04:02Z</time>
      </trkpt>
      <trkpt lat="46.3929" lon="5.59458">
        <ele>642</ele>
        <time>2019-02-11T10:05:02Z</time>
      </trkpt>
      <trkpt lat="46.39278" lon="5.59452">
        <ele>643</ele>
        <time>2019-02-11T10:06:02Z</time>
      </trkpt>
      <trkpt lat="46.39262" lon="5.59437">
        <ele>642</ele>
        <time>2019-02-11T10:07:02Z</time>
      </trkpt>
      <trkpt lat="46.39247" lon="5.59428">
        <ele>642</ele>
        <time>2019-02-11T10:08:02Z</time>
      </trkpt>
      <trkpt lat="46.39237" lon="5.59428">
        <ele>642</ele>
        <time>2019-02-11T10:09:02Z</time>
      </trkpt>
      <trkpt lat="46.3923" lon="5.59428">
        <ele>642</ele>
        <time>2019-02-11T10:15:02Z</time>
      </trkpt>
      <trkpt lat="46.39224" lon="5.59429">
        <ele>642</ele>
        <time>2019-02-11T10:16:02Z</time>
      </trkpt>
      <trkpt lat="46.3921" lon="5.59438">
        <ele>643</ele>
        <time>2019-02-11T10:17:02Z</time>
      </trkpt>
      <trkpt lat="46.39201" lon="5.59445">
        <ele>643</ele>
        <time>2019-02-11T10:18:02Z</time>
      </trkpt>
      <trkpt lat="46.39194" lon="5.59454">
        <ele>644</ele>
        <time>2019-02-11T10:19:02Z</time>
      </trkpt>
      <trkpt lat="46.3919" lon="5.59461">
        <ele>645</ele>
        <time>2019-02-11T10:20:02Z</time>
      </trkpt>
      <trkpt lat="46.39187" lon="5.59473">
        <ele>647</ele>
        <time>2019-02-11T10:21:02Z</time>
      </trkpt>
      <trkpt lat="46.39184" lon="5.59484">
        <ele>648</ele>
        <time>2019-02-11T10:22:02Z</time>
      </trkpt>
      <trkpt lat="46.39179" lon="5.59492">
        <ele>649</ele>
        <time>2019-02-11T10:23:02Z</time>
      </trkpt>
      <trkpt lat="46.39175" lon="5.59498">
        <ele>650</ele>
        <time>2019-02-11T10:24:02Z</time>
      </trkpt>
      <trkpt lat="46.39169" lon="5.59504">
        <ele>651</ele>
        <time>2019-02-11T10:25:02Z</time>
      </trkpt>
      <trkpt lat="46.39157" lon="5.59512">
        <ele>651</ele>
        <time>2019-02-11T10:26:02Z</time>
      </trkpt>
      <trkpt lat="46.39141" lon="5.5952">
        <ele>652</ele>
        <time>2019-02-11T10:27:02Z</time>
      </trkpt>
      <trkpt lat="46.39123" lon="5.59529">
        <ele>653</ele>
        <time>2019-02-11T10:28:02Z</time>
      </trkpt>
      <trkpt lat="46.39116" lon="5.59534">
        <ele>653</ele>
        <time>2019-02-11T10:29:02Z</time>
      </trkpt>
      <trkpt lat="46.3911" lon="5.59543">
        <ele>655</ele>
        <time>2019-02-11T10:30:02Z</time>
      </trkpt>
      <trkpt lat="46.39106" lon="5.59551">
        <ele>656</ele>
        <time>2019-02-11T10:31:02Z</time>
      </trkpt>
      <trkpt lat="46.39102" lon="5.59567">
        <ele>658</ele>
        <time>2019-02-11T10:32:02Z</time>
      </trkpt>
      <trkpt lat="46.39099" lon="5.59585">
        <ele>661</ele>
        <time>2019-02-11T10:33:02Z</time>
      </trkpt>
      <trkpt lat="46.39098" lon="5.59603">
        <ele>662</ele>
        <time>2019-02-11T10:34:02Z</time>
      </trkpt>
      <trkpt lat="46.39096" lon="5.5962">
        <ele>664</ele>
        <time>2019-02-11T10:35:02Z</time>
      </trkpt>
      <trkpt lat="46.39096" lon="5.59626">
        <ele>664</ele>
        <time>2019-02-11T10:36:02Z</time>
      </trkpt>
      <trkpt lat="46.39094" lon="5.59642">
        <ele>665</ele>
        <time>2019-02-11T10:37:02Z</time>
      </trkpt>
      <trkpt lat="46.39094" lon="5.59656">
        <ele>666</ele>
        <time>2019-02-11T10:38:02Z</time>
      </trkpt>
      <trkpt lat="46.39094" lon="5.59665">
        <ele>667</ele>
        <time>2019-02-11T10:39:02Z</time>
      </trkpt>
      <trkpt lat="46.39094" lon="5.59671">
        <ele>667</ele>
        <time>2019-02-11T10:40:02Z</time>
      </trkpt>
      <trkpt lat="46.39095" lon="5.59677">
        <ele>667</ele>
        <time>2019-02-11T10:41:02Z</time>
      </trkpt>
      <trkpt lat="46.39097" lon="5.59687">
        <ele>667</ele>
        <time>2019-02-11T10:42:02Z</time>
      </trkpt>
      <trkpt lat="46.39103" lon="5.59716">
        <ele>667</ele>
        <time>2019-02-11T10:43:02Z</time>
      </trkpt>
      <trkpt lat="46.39108" lon="5.59749">
        <ele>667</ele>
        <time>2019-02-11T10:44:02Z</time>
      </trkpt>
      <trkpt lat="46.39112" lon="5.59776">
        <ele>666</ele>
        <time>2019-02-11T10:45:02Z</time>
      </trkpt>
      <trkpt lat="46.39116" lon="5.59793">
        <ele>665</ele>
        <time>2019-02-11T10:46:02Z</time>
      </trkpt>
      <trkpt lat="46.39124" lon="5.59823">
        <ele>663</ele>
        <time>2019-02-11T10:47:02Z</time>
      </trkpt>
      <trkpt lat="46.39127" lon="5.59836">
        <ele>663</ele>
        <time>2019-02-11T10:48:02Z</time>
      </trkpt>
      <trkpt lat="46.39131" lon="5.5986">
        <ele>662</ele>
        <time>2019-02-11T10:49:02Z</time>
      </trkpt>
      <trkpt lat="46.39132" lon="5.59872">
        <ele>662</ele>
        <time>2019-02-11T10:50:02Z</time>
      </trkpt>
      <trkpt lat="46.39132" lon="5.59884">
        <ele>662</ele>
        <time>2019-02-11T10:51:02Z</time>
      </trkpt>
      <trkpt lat="46.39133" lon="5.59952">
        <ele>662</ele>
        <time>2019-02-11T10:52:02Z</time>
      </trkpt>
      <trkpt lat="46.39133" lon="5.59993">
        <ele>661.9</ele>
        <time>2019-02-11T10:53:02Z</time>
      </trkpt>
      <trkpt lat="46.39134" lon="5.60019">
        <ele>663</ele>
        <time>2019-02-11T11:08:02Z</time>
      </trkpt>
      <trkpt lat="46.39137" lon="5.60034">
        <ele>664</ele>
        <time>2019-02-11T11:09:02Z</time>
      </trkpt>
      <trkpt lat="46.39141" lon="5.60058">
        <ele>665</ele>
        <time>2019-02-11T11:10:02Z</time>
      </trkpt>
      <trkpt lat="46.39147" lon="5.60078">
        <ele>667</ele>
        <time>2019-02-11T11:11:02Z</time>
      </trkpt>
      <trkpt lat="46.39152" lon="5.60092">
        <ele>668</ele>
        <time>2019-02-11T11:15:02Z</time>
      </trkpt>
      <trkpt lat="46.39161" lon="5.60112">
        <ele>668</ele>
        <time>2019-02-11T11:16:02Z</time>
      </trkpt>
      <trkpt lat="46.39165" lon="5.60123">
        <ele>668</ele>
        <time>2019-02-11T11:17:02Z</time>
      </trkpt>
      <trkpt lat="46.39175" lon="5.60144">
        <ele>669</ele>
        <time>2019-02-11T11:18:02Z</time>
      </trkpt>
      <trkpt lat="46.39181" lon="5.60155">
        <ele>669</ele>
        <time>2019-02-11T11:19:02Z</time>
      </trkpt>
      <trkpt lat="46.39194" lon="5.60176">
        <ele>671</ele>
        <time>2019-02-11T11:20:02Z</time>
      </trkpt>
      <trkpt lat="46.39205" lon="5.60191">
        <ele>671</ele>
        <time>2019-02-11T11:21:02Z</time>
      </trkpt>
      <trkpt lat="46.39218" lon="5.60204">
        <ele>673</ele>
        <time>2019-02-11T11:22:02Z</time>
      </trkpt>
      <trkpt lat="46.39227" lon="5.60211">
        <ele>674</ele>
        <time>2019-02-11T11:23:02Z</time>
      </trkpt>
      <trkpt lat="46.39238" lon="5.60221">
        <ele>676</ele>
        <time>2019-02-11T11:24:02Z</time>
      </trkpt>
      <trkpt lat="46.3925" lon="5.60233">
        <ele>677</ele>
        <time>2019-02-11T11:25:02Z</time>
      </trkpt>
      <trkpt lat="46.39259" lon="5.60244">
        <ele>678</ele>
        <time>2019-02-11T11:26:02Z</time>
      </trkpt>
      <trkpt lat="46.39267" lon="5.60253">
        <ele>679</ele>
        <time>2019-02-11T11:27:02Z</time>
      </trkpt>
      <trkpt lat="46.39284" lon="5.60272">
        <ele>680</ele>
        <time>2019-02-11T11:28:02Z</time>
      </trkpt>
      <trkpt lat="46.39292" lon="5.60283">
        <ele>680.3</ele>
        <time>2019-02-11T11:29:02Z</time>
      </trkpt>
      <trkpt lat="46.39301" lon="5.60302">
        <ele>680.1</ele>
        <time>2019-02-11T11:30:02Z</time>
      </trkpt>
      <trkpt lat="46.39312" lon="5.6032">
        <ele>680.5</ele>
        <time>2019-02-11T11:31:02Z</time>
      </trkpt>
      <trkpt lat="46.3932" lon="5.60333">
        <ele>681.4</ele>
        <time>2019-02-11T11:32:02Z</time>
      </trkpt>
      <trkpt lat="46.39327" lon="5.60338">
        <ele>681</ele>
        <time>2019-02-11T11:33:02Z</time>
      </trkpt>
      <trkpt lat="46.39332" lon="5.60341">
        <ele>682</ele>
        <time>2019-02-11T11:34:02Z</time>
      </trkpt>
      <trkpt lat="46.39347" lon="5.60343">
        <ele>685</ele>
        <time>2019-02-11T11:35:02Z</time>
      </trkpt>
      <trkpt lat="46.39362" lon="5.60346">
        <ele>688</ele>
        <time>2019-02-11T11:36:02Z</time>
      </trkpt>
      <trkpt lat="46.39365" lon="5.60346">
        <ele>689</ele>
        <time>2019-02-11T11:37:02Z</time>
      </trkpt>
      <trkpt lat="46.39367" lon="5.60347">
        <ele>689</ele>
        <time>2019-02-11T11:38:02Z</time>
      </trkpt>
      <trkpt lat="46.39374" lon="5.60352">
        <ele>690</ele>
        <time>2019-02-11T11:39:02Z</time>
      </trkpt>
      <trkpt lat="46.39384" lon="5.60362">
        <ele>691</ele>
        <time>2019-02-11T11:40:02Z</time>
      </trkpt>
      <trkpt lat="46.39401" lon="5.60381">
        <ele>693</ele>
        <time>2019-02-11T11:41:02Z</time>
      </trkpt>
      <trkpt lat="46.39417" lon="5.60398">
        <ele>695</ele>
        <time>2019-02-11T11:42:02Z</time>
      </trkpt>
      <trkpt lat="46.39439" lon="5.60416">
        <ele>697</ele>
        <time>2019-02-11T11:43:02Z</time>
      </trkpt>
      <trkpt lat="46.39451" lon="5.60426">
        <ele>698</ele>
        <time>2019-02-11T11:44:02Z</time>
      </trkpt>
      <trkpt lat="46.39461" lon="5.60431">
        <ele>699</ele>
        <time>2019-02-11T11:45:02Z</time>
      </trkpt>
      <trkpt lat="46.39478" lon="5.60444">
        <ele>700</ele>
        <time>2019-02-11T11:46:02Z</time>
      </trkpt>
      <trkpt lat="46.39491" lon="5.60458">
        <ele>701</ele>
        <time>2019-02-11T11:47:02Z</time>
      </trkpt>
      <trkpt lat="46.39509" lon="5.60479">
        <ele>702</ele>
        <time>2019-02-11T11:48:02Z</time>
      </trkpt>
      <trkpt lat="46.39531" lon="5.60503">
        <ele>705</ele>
        <time>2019-02-11T11:49:02Z</time>
      </trkpt>
      <trkpt lat="46.39537" lon="5.60509">
        <ele>706</ele>
        <time>2019-02-11T11:50:02Z</time>
      </trkpt>
      <trkpt lat="46.39558" lon="5.60533">
        <ele>709</ele>
        <time>2019-02-11T11:51:02Z</time>
      </trkpt>
      <trkpt lat="46.39587" lon="5.6057">
        <ele>711</ele>
        <time>2019-02-11T11:53:02Z</time>
      </trkpt>
      <trkpt lat="46.39592" lon="5.60578">
        <ele>711</ele>
        <time>2019-02-11T11:54:02Z</time>
      </trkpt>
      <trkpt lat="46.39597" lon="5.60586">
        <ele>711</ele>
        <time>2019-02-11T11:55:02Z</time>
      </trkpt>
      <trkpt lat="46.39604" lon="5.60602">
        <ele>713</ele>
        <time>2019-02-11T11:56:02Z</time>
      </trkpt>
      <trkpt lat="46.39611" lon="5.60617">
        <ele>714</ele>
        <time>2019-02-11T11:57:02Z</time>
      </trkpt>
      <trkpt lat="46.39618" lon="5.60633">
        <ele>715</ele>
        <time>2019-02-11T11:58:02Z</time>
      </trkpt>
      <trkpt lat="46.39626" lon="5.6065">
        <ele>715</ele>
        <time>2019-02-11T11:59:02Z</time>
      </trkpt>
      <trkpt lat="46.39639" lon="5.6068">
        <ele>714</ele>
        <time>2019-02-11T12:00:02Z</time>
      </trkpt>
      <trkpt lat="46.3965" lon="5.60702">
        <ele>714</ele>
        <time>2019-02-11T12:01:02Z</time>
      </trkpt>
      <trkpt lat="46.39661" lon="5.60722">
        <ele>714</ele>
        <time>2019-02-11T12:02:02Z</time>
      </trkpt>
      <trkpt lat="46.39669" lon="5.60737">
        <ele>713</ele>
        <time>2019-02-11T12:03:02Z</time>
      </trkpt>
      <trkpt lat="46.39675" lon="5.60752">
        <ele>713</ele>
        <time>2019-02-11T12:04:02Z</time>
      </trkpt>
      <trkpt lat="46.39679" lon="5.60761">
        <ele>713</ele>
        <time>2019-02-11T12:05:02Z</time>
      </trkpt>
      <trkpt lat="46.39686" lon="5.60789">
        <ele>714</ele>
        <time>2019-02-11T12:06:02Z</time>
      </trkpt>
      <trkpt lat="46.39691" lon="5.60816">
        <ele>714</ele>
        <time>2019-02-11T12:07:02Z</time>
      </trkpt>
      <trkpt lat="46.39693" lon="5.60834">
        <ele>714</ele>
        <time>2019-02-11T12:08:02Z</time>
      </trkpt>
      <trkpt lat="46.39694" lon="5.60849">
        <ele>716</ele>
        <time>2019-02-11T12:09:02Z</time>
      </trkpt>
      <trkpt lat="46.39694" lon="5.60851">
        <ele>716</ele>
        <time>2019-02-11T12:10:02Z</time>
      </trkpt>
      <trkpt lat="46.39692" lon="5.60857">
        <ele>717</ele>
        <time>2019-02-11T12:11:02Z</time>
      </trkpt>
      <trkpt lat="46.39691" lon="5.60859">
        <ele>717</ele>
        <time>2019-02-11T12:12:02Z</time>
      </trkpt>
      <trkpt lat="46.39689" lon="5.60867">
        <ele>717.9</ele>
        <time>2019-02-11T12:13:02Z</time>
      </trkpt>
      <trkpt lat="46.39681" lon="5.60866">
        <ele>718.1</ele>
        <time>2019-02-11T12:14:02Z</time>
      </trkpt>
      <trkpt lat="46.39675" lon="5.6086">
        <ele>717.9</ele>
        <time>2019-02-11T12:15:02Z</time>
      </trkpt>
      <trkpt lat="46.39664" lon="5.60847">
        <ele>720.7</ele>
        <time>2019-02-11T12:16:02Z</time>
      </trkpt>
      <trkpt lat="46.39654" lon="5.60837">
        <ele>720.5</ele>
        <time>2019-02-11T12:17:02Z</time>
      </trkpt>
      <trkpt lat="46.3964" lon="5.60832">
        <ele>719</ele>
        <time>2019-02-11T12:18:02Z</time>
      </trkpt>
      <trkpt lat="46.39627" lon="5.60828">
        <ele>719.9</ele>
        <time>2019-02-11T12:19:02Z</time>
      </trkpt>
      <trkpt lat="46.39617" lon="5.60826">
        <ele>720.6</ele>
        <time>2019-02-11T12:20:02Z</time>
      </trkpt>
      <trkpt lat="46.39606" lon="5.60829">
        <ele>721.6</ele>
        <time>2019-02-11T12:21:02Z</time>
      </trkpt>
      <trkpt lat="46.39591" lon="5.60832">
        <ele>723.5</ele>
        <time>2019-02-11T12:22:02Z</time>
      </trkpt>
      <trkpt lat="46.39586" lon="5.60833">
        <ele>725</ele>
        <time>2019-02-11T12:23:02Z</time>
      </trkpt>
      <trkpt lat="46.39579" lon="5.60835">
        <ele>725</ele>
        <time>2019-02-11T12:24:02Z</time>
      </trkpt>
      <trkpt lat="46.39574" lon="5.60836">
        <ele>725</ele>
        <time>2019-02-11T12:25:02Z</time>
      </trkpt>
      <trkpt lat="46.39569" lon="5.60836">
        <ele>726</ele>
        <time>2019-02-11T12:26:02Z</time>
      </trkpt>
      <trkpt lat="46.39561" lon="5.60839">
        <ele>728.6</ele>
        <time>2019-02-11T12:27:02Z</time>
      </trkpt>
      <trkpt lat="46.39548" lon="5.60837">
        <ele>729.2</ele>
        <time>2019-02-11T12:28:02Z</time>
      </trkpt>
      <trkpt lat="46.39539" lon="5.60827">
        <ele>724.9</ele>
        <time>2019-02-11T12:29:02Z</time>
      </trkpt>
      <trkpt lat="46.39528" lon="5.60812">
        <ele>725</ele>
        <time>2019-02-11T12:30:02Z</time>
      </trkpt>
      <trkpt lat="46.39513" lon="5.60799">
        <ele>725</ele>
        <time>2019-02-11T12:31:02Z</time>
      </trkpt>
      <trkpt lat="46.39503" lon="5.6079">
        <ele>725</ele>
        <time>2019-02-11T12:33:02Z</time>
      </trkpt>
      <trkpt lat="46.39497" lon="5.60785">
        <ele>725</ele>
        <time>2019-02-11T12:34:02Z</time>
      </trkpt>
      <trkpt lat="46.39484" lon="5.60776">
        <ele>725</ele>
        <time>2019-02-11T12:42:02Z</time>
      </trkpt>
      <trkpt lat="46.39471" lon="5.6077">
        <ele>725</ele>
        <time>2019-02-11T12:46:02Z</time>
      </trkpt>
      <trkpt lat="46.39463" lon="5.60768">
        <ele>725</ele>
        <time>2019-02-11T12:47:02Z</time>
      </trkpt>
      <trkpt lat="46.39449" lon="5.60763">
        <ele>725</ele>
        <time>2019-02-11T12:48:02Z</time>
      </trkpt>
      <trkpt lat="46.3944" lon="5.60762">
        <ele>725</ele>
        <time>2019-02-11T12:49:02Z</time>
      </trkpt>
      <trkpt lat="46.39434" lon="5.60763">
        <ele>725</ele>
        <time>2019-02-11T12:50:02Z</time>
      </trkpt>
      <trkpt lat="46.39429" lon="5.60766">
        <ele>725</ele>
        <time>2019-02-11T12:51:02Z</time>
      </trkpt>
      <trkpt lat="46.39427" lon="5.60768">
        <ele>725</ele>
        <time>2019-02-11T12:52:02Z</time>
      </trkpt>
      <trkpt lat="46.39424" lon="5.60773">
        <ele>726</ele>
        <time>2019-02-11T12:53:02Z</time>
      </trkpt>
      <trkpt lat="46.39423" lon="5.60778">
        <ele>726</ele>
        <time>2019-02-11T12:54:02Z</time>
      </trkpt>
      <trkpt lat="46.39422" lon="5.60783">
        <ele>726</ele>
        <time>2019-02-11T12:55:02Z</time>
      </trkpt>
      <trkpt lat="46.39422" lon="5.60788">
        <ele>727</ele>
        <time>2019-02-11T12:56:02Z</time>
      </trkpt>
      <trkpt lat="46.39423" lon="5.60794">
        <ele>727</ele>
        <time>2019-02-11T12:57:02Z</time>
      </trkpt>
      <trkpt lat="46.39427" lon="5.60801">
        <ele>727</ele>
        <time>2019-02-11T12:58:02Z</time>
      </trkpt>
      <trkpt lat="46.39432" lon="5.60806">
        <ele>728</ele>
        <time>2019-02-11T12:59:02Z</time>
      </trkpt>
      <trkpt lat="46.39438" lon="5.60811">
        <ele>728</ele>
        <time>2019-02-11T13:00:02Z</time>
      </trkpt>
      <trkpt lat="46.39446" lon="5.60815">
        <ele>728</ele>
        <time>2019-02-11T13:01:02Z</time>
      </trkpt>
      <trkpt lat="46.3946" lon="5.6082">
        <ele>727</ele>
        <time>2019-02-11T13:04:02Z</time>
      </trkpt>
      <trkpt lat="46.3948" lon="5.60828">
        <ele>727</ele>
        <time>2019-02-11T13:05:02Z</time>
      </trkpt>
      <trkpt lat="46.39493" lon="5.60834">
        <ele>726</ele>
        <time>2019-02-11T13:06:02Z</time>
      </trkpt>
      <trkpt lat="46.39501" lon="5.6084">
        <ele>727</ele>
        <time>2019-02-11T13:07:02Z</time>
      </trkpt>
      <trkpt lat="46.39507" lon="5.60847">
        <ele>728</ele>
        <time>2019-02-11T13:08:02Z</time>
      </trkpt>
      <trkpt lat="46.39511" lon="5.60853">
        <ele>729</ele>
        <time>2019-02-11T13:09:02Z</time>
      </trkpt>
      <trkpt lat="46.39516" lon="5.60867">
        <ele>731</ele>
        <time>2019-02-11T13:10:02Z</time>
      </trkpt>
      <trkpt lat="46.39521" lon="5.60887">
        <ele>734</ele>
        <time>2019-02-11T13:11:02Z</time>
      </trkpt>
      <trkpt lat="46.39524" lon="5.60902">
        <ele>736</ele>
        <time>2019-02-11T13:12:02Z</time>
      </trkpt>
      <trkpt lat="46.39524" lon="5.6091">
        <ele>738</ele>
        <time>2019-02-11T13:13:02Z</time>
      </trkpt>
      <trkpt lat="46.39522" lon="5.60919">
        <ele>739</ele>
        <time>2019-02-11T13:14:02Z</time>
      </trkpt>
      <trkpt lat="46.39519" lon="5.60925">
        <ele>740</ele>
        <time>2019-02-11T13:15:02Z</time>
      </trkpt>
      <trkpt lat="46.39514" lon="5.60928">
        <ele>741</ele>
        <time>2019-02-11T13:16:02Z</time>
      </trkpt>
      <trkpt lat="46.39507" lon="5.60929">
        <ele>742</ele>
        <time>2019-02-11T13:17:02Z</time>
      </trkpt>
      <trkpt lat="46.39494" lon="5.60928">
        <ele>742</ele>
        <time>2019-02-11T13:18:02Z</time>
      </trkpt>
      <trkpt lat="46.39481" lon="5.60925">
        <ele>741</ele>
        <time>2019-02-11T13:19:02Z</time>
      </trkpt>
      <trkpt lat="46.3946" lon="5.60917">
        <ele>736</ele>
        <time>2019-02-11T13:20:02Z</time>
      </trkpt>
      <trkpt lat="46.39443" lon="5.60914">
        <ele>736.6</ele>
        <time>2019-02-11T13:21:02Z</time>
      </trkpt>
      <trkpt lat="46.39436" lon="5.60917">
        <ele>740</ele>
        <time>2019-02-11T13:22:02Z</time>
      </trkpt>
      <trkpt lat="46.39427" lon="5.6092">
        <ele>740</ele>
        <time>2019-02-11T13:23:02Z</time>
      </trkpt>
      <trkpt lat="46.39418" lon="5.60925">
        <ele>741</ele>
        <time>2019-02-11T13:24:02Z</time>
      </trkpt>
      <trkpt lat="46.39413" lon="5.6093">
        <ele>742</ele>
        <time>2019-02-11T13:25:02Z</time>
      </trkpt>
      <trkpt lat="46.39409" lon="5.60939">
        <ele>743</ele>
        <time>2019-02-11T13:26:02Z</time>
      </trkpt>
      <trkpt lat="46.39404" lon="5.6095">
        <ele>744</ele>
        <time>2019-02-11T13:27:02Z</time>
      </trkpt>
      <trkpt lat="46.394" lon="5.60959">
        <ele>745</ele>
        <time>2019-02-11T13:28:02Z</time>
      </trkpt>
      <trkpt lat="46.39394" lon="5.60966">
        <ele>746</ele>
        <time>2019-02-11T13:29:02Z</time>
      </trkpt>
      <trkpt lat="46.39389" lon="5.6097">
        <ele>746</ele>
        <time>2019-02-11T13:30:02Z</time>
      </trkpt>
      <trkpt lat="46.39384" lon="5.60971">
        <ele>746</ele>
        <time>2019-02-11T13:31:02Z</time>
      </trkpt>
      <trkpt lat="46.3937" lon="5.60972">
        <ele>746</ele>
        <time>2019-02-11T13:32:02Z</time>
      </trkpt>
      <trkpt lat="46.3936" lon="5.60973">
        <ele>746</ele>
        <time>2019-02-11T13:33:02Z</time>
      </trkpt>
      <trkpt lat="46.39353" lon="5.60976">
        <ele>746</ele>
        <time>2019-02-11T13:34:02Z</time>
      </trkpt>
      <trkpt lat="46.39347" lon="5.60979">
        <ele>746</ele>
        <time>2019-02-11T13:35:02Z</time>
      </trkpt>
      <trkpt lat="46.3934" lon="5.60984">
        <ele>746</ele>
        <time>2019-02-11T13:36:02Z</time>
      </trkpt>
      <trkpt lat="46.39333" lon="5.60992">
        <ele>746</ele>
        <time>2019-02-11T13:37:02Z</time>
      </trkpt>
      <trkpt lat="46.39326" lon="5.61005">
        <ele>745</ele>
        <time>2019-02-11T13:40:02Z</time>
      </trkpt>
      <trkpt lat="46.39322" lon="5.61016">
        <ele>745</ele>
        <time>2019-02-11T13:41:02Z</time>
      </trkpt>
      <trkpt lat="46.39318" lon="5.61028">
        <ele>744</ele>
        <time>2019-02-11T13:42:02Z</time>
      </trkpt>
      <trkpt lat="46.39317" lon="5.61034">
        <ele>743</ele>
        <time>2019-02-11T13:43:02Z</time>
      </trkpt>
      <trkpt lat="46.39316" lon="5.61045">
        <ele>743</ele>
        <time>2019-02-11T13:44:02Z</time>
      </trkpt>
      <trkpt lat="46.39316" lon="5.61056">
        <ele>742</ele>
        <time>2019-02-11T13:45:02Z</time>
      </trkpt>
      <trkpt lat="46.39317" lon="5.61072">
        <ele>742</ele>
        <time>2019-02-11T13:46:02Z</time>
      </trkpt>
      <trkpt lat="46.39321" lon="5.61086">
        <ele>741</ele>
        <time>2019-02-11T13:47:02Z</time>
      </trkpt>
      <trkpt lat="46.39329" lon="5.61104">
        <ele>741</ele>
        <time>2019-02-11T13:48:02Z</time>
      </trkpt>
      <trkpt lat="46.39338" lon="5.61122">
        <ele>741</ele>
        <time>2019-02-11T13:49:02Z</time>
      </trkpt>
      <trkpt lat="46.39349" lon="5.61144">
        <ele>741</ele>
        <time>2019-02-11T13:50:02Z</time>
      </trkpt>
      <trkpt lat="46.3936" lon="5.61163">
        <ele>741</ele>
        <time>2019-02-11T13:51:02Z</time>
      </trkpt>
      <trkpt lat="46.39379" lon="5.61202">
        <ele>740</ele>
        <time>2019-02-11T13:52:02Z</time>
      </trkpt>
      <trkpt lat="46.39394" lon="5.61232">
        <ele>739</ele>
        <time>2019-02-11T13:53:02Z</time>
      </trkpt>
      <trkpt lat="46.39402" lon="5.61249">
        <ele>738</ele>
        <time>2019-02-11T13:54:02Z</time>
      </trkpt>
      <trkpt lat="46.39407" lon="5.61258">
        <ele>738</ele>
        <time>2019-02-11T13:55:02Z</time>
      </trkpt>
      <trkpt lat="46.39417" lon="5.61277">
        <ele>737</ele>
        <time>2019-02-11T13:56:02Z</time>
      </trkpt>
      <trkpt lat="46.39424" lon="5.61288">
        <ele>736</ele>
        <time>2019-02-11T13:57:02Z</time>
      </trkpt>
      <trkpt lat="46.39431" lon="5.61298">
        <ele>736</ele>
        <time>2019-02-11T13:58:02Z</time>
      </trkpt>
      <trkpt lat="46.39442" lon="5.61314">
        <ele>735</ele>
        <time>2019-02-11T13:59:02Z</time>
      </trkpt>
      <trkpt lat="46.39455" lon="5.61331">
        <ele>734</ele>
        <time>2019-02-11T14:00:02Z</time>
      </trkpt>
      <trkpt lat="46.39466" lon="5.61346">
        <ele>734</ele>
        <time>2019-02-11T14:01:02Z</time>
      </trkpt>
      <trkpt lat="46.39476" lon="5.61367">
        <ele>732</ele>
        <time>2019-02-11T14:02:02Z</time>
      </trkpt>
      <trkpt lat="46.39484" lon="5.61398">
        <ele>728.8</ele>
        <time>2019-02-11T14:03:02Z</time>
      </trkpt>
      <trkpt lat="46.39494" lon="5.61417">
        <ele>729.5</ele>
        <time>2019-02-11T14:06:02Z</time>
      </trkpt>
      <trkpt lat="46.39504" lon="5.61423">
        <ele>730</ele>
        <time>2019-02-11T14:07:02Z</time>
      </trkpt>
      <trkpt lat="46.39516" lon="5.61431">
        <ele>730.1</ele>
        <time>2019-02-11T14:08:02Z</time>
      </trkpt>
      <trkpt lat="46.39529" lon="5.61445">
        <ele>730</ele>
        <time>2019-02-11T14:09:02Z</time>
      </trkpt>
      <trkpt lat="46.39551" lon="5.6147">
        <ele>729.8</ele>
        <time>2019-02-11T14:10:02Z</time>
      </trkpt>
      <trkpt lat="46.3957" lon="5.61494">
        <ele>729.8</ele>
        <time>2019-02-11T14:11:02Z</time>
      </trkpt>
      <trkpt lat="46.39587" lon="5.61516">
        <ele>730.2</ele>
        <time>2019-02-11T14:12:02Z</time>
      </trkpt>
      <trkpt lat="46.39621" lon="5.61561">
        <ele>729.2</ele>
        <time>2019-02-11T14:13:02Z</time>
      </trkpt>
      <trkpt lat="46.39633" lon="5.61575">
        <ele>727</ele>
        <time>2019-02-11T14:14:02Z</time>
      </trkpt>
      <trkpt lat="46.39649" lon="5.61598">
        <ele>723.5</ele>
        <time>2019-02-11T14:15:02Z</time>
      </trkpt>
      <trkpt lat="46.39658" lon="5.61613">
        <ele>722.1</ele>
        <time>2019-02-11T14:16:02Z</time>
      </trkpt>
      <trkpt lat="46.39674" lon="5.61634">
        <ele>726</ele>
        <time>2019-02-11T14:17:02Z</time>
      </trkpt>
      <trkpt lat="46.39684" lon="5.61642">
        <ele>726</ele>
        <time>2019-02-11T14:18:02Z</time>
      </trkpt>
      <trkpt lat="46.39691" lon="5.61647">
        <ele>727</ele>
        <time>2019-02-11T14:19:02Z</time>
      </trkpt>
      <trkpt lat="46.39701" lon="5.61656">
        <ele>727</ele>
        <time>2019-02-11T14:20:02Z</time>
      </trkpt>
      <trkpt lat="46.3971" lon="5.61665">
        <ele>727</ele>
        <time>2019-02-11T14:21:02Z</time>
      </trkpt>
      <trkpt lat="46.39721" lon="5.61682">
        <ele>726</ele>
        <time>2019-02-11T14:22:02Z</time>
      </trkpt>
      <trkpt lat="46.3974" lon="5.61718">
        <ele>724</ele>
        <time>2019-02-11T14:23:02Z</time>
      </trkpt>
      <trkpt lat="46.39759" lon="5.61753">
        <ele>721</ele>
        <time>2019-02-11T14:24:02Z</time>
      </trkpt>
      <trkpt lat="46.39776" lon="5.61784">
        <ele>720</ele>
        <time>2019-02-11T14:25:02Z</time>
      </trkpt>
      <trkpt lat="46.39789" lon="5.61809">
        <ele>720</ele>
        <time>2019-02-11T14:26:02Z</time>
      </trkpt>
      <trkpt lat="46.39797" lon="5.61824">
        <ele>719</ele>
        <time>2019-02-11T14:27:02Z</time>
      </trkpt>
      <trkpt lat="46.39803" lon="5.61836">
        <ele>718</ele>
        <time>2019-02-11T14:28:02Z</time>
      </trkpt>
      <trkpt lat="46.39812" lon="5.6185">
        <ele>717</ele>
        <time>2019-02-11T14:29:02Z</time>
      </trkpt>
      <trkpt lat="46.39826" lon="5.61867">
        <ele>716</ele>
        <time>2019-02-11T14:32:02Z</time>
      </trkpt>
      <trkpt lat="46.39844" lon="5.61881">
        <ele>715</ele>
        <time>2019-02-11T14:33:02Z</time>
      </trkpt>
      <trkpt lat="46.39857" lon="5.6189">
        <ele>714</ele>
        <time>2019-02-11T14:34:02Z</time>
      </trkpt>
      <trkpt lat="46.3987" lon="5.61894">
        <ele>715.8</ele>
        <time>2019-02-11T14:35:02Z</time>
      </trkpt>
      <trkpt lat="46.39886" lon="5.61898">
        <ele>715.9</ele>
        <time>2019-02-11T14:36:02Z</time>
      </trkpt>
      <trkpt lat="46.39899" lon="5.61902">
        <ele>714</ele>
        <time>2019-02-11T14:37:02Z</time>
      </trkpt>
      <trkpt lat="46.39909" lon="5.61904">
        <ele>714</ele>
        <time>2019-02-11T14:38:02Z</time>
      </trkpt>
      <trkpt lat="46.39924" lon="5.61906">
        <ele>715</ele>
        <time>2019-02-11T14:39:02Z</time>
      </trkpt>
      <trkpt lat="46.39939" lon="5.61918">
        <ele>714</ele>
        <time>2019-02-11T14:40:02Z</time>
      </trkpt>
      <trkpt lat="46.3997" lon="5.61942">
        <ele>712</ele>
        <time>2019-02-11T14:43:02Z</time>
      </trkpt>
      <trkpt lat="46.39997" lon="5.61962">
        <ele>711</ele>
        <time>2019-02-11T14:44:02Z</time>
      </trkpt>
      <trkpt lat="46.40017" lon="5.61979">
        <ele>710</ele>
        <time>2019-02-11T14:45:02Z</time>
      </trkpt>
      <trkpt lat="46.40021" lon="5.61984">
        <ele>709</ele>
        <time>2019-02-11T14:46:02Z</time>
      </trkpt>
      <trkpt lat="46.40032" lon="5.61999">
        <ele>708</ele>
        <time>2019-02-11T14:47:02Z</time>
      </trkpt>
      <trkpt lat="46.40042" lon="5.62019">
        <ele>708</ele>
        <time>2019-02-11T14:51:02Z</time>
      </trkpt>
      <trkpt lat="46.40047" lon="5.62033">
        <ele>707</ele>
        <time>2019-02-11T14:52:02Z</time>
      </trkpt>
      <trkpt lat="46.40051" lon="5.62049">
        <ele>706</ele>
        <time>2019-02-11T14:53:02Z</time>
      </trkpt>
      <trkpt lat="46.40054" lon="5.6206">
        <ele>706</ele>
        <time>2019-02-11T14:54:02Z</time>
      </trkpt>
      <trkpt lat="46.40055" lon="5.62064">
        <ele>706</ele>
        <time>2019-02-11T14:55:02Z</time>
      </trkpt>
      <trkpt lat="46.40058" lon="5.62083">
        <ele>705</ele>
        <time>2019-02-11T14:56:02Z</time>
      </trkpt>
      <trkpt lat="46.40064" lon="5.62111">
        <ele>704</ele>
        <time>2019-02-11T14:57:02Z</time>
      </trkpt>
      <trkpt lat="46.40068" lon="5.62126">
        <ele>703</ele>
        <time>2019-02-11T14:58:02Z</time>
      </trkpt>
      <trkpt lat="46.40072" lon="5.62135">
        <ele>702</ele>
        <time>2019-02-11T14:59:02Z</time>
      </trkpt>
      <trkpt lat="46.40087" lon="5.62159">
        <ele>702</ele>
        <time>2019-02-11T15:00:02Z</time>
      </trkpt>
      <trkpt lat="46.4011" lon="5.62193">
        <ele>703</ele>
        <time>2019-02-11T15:01:02Z</time>
      </trkpt>
      <trkpt lat="46.40123" lon="5.62214">
        <ele>703</ele>
        <time>2019-02-11T15:02:02Z</time>
      </trkpt>
      <trkpt lat="46.40129" lon="5.62225">
        <ele>703</ele>
        <time>2019-02-11T15:03:02Z</time>
      </trkpt>
      <trkpt lat="46.40146" lon="5.62262">
        <ele>703</ele>
        <time>2019-02-11T15:04:02Z</time>
      </trkpt>
      <trkpt lat="46.40161" lon="5.62294">
        <ele>703</ele>
        <time>2019-02-11T15:05:02Z</time>
      </trkpt>
      <trkpt lat="46.40173" lon="5.62314">
        <ele>703</ele>
        <time>2019-02-11T15:06:02Z</time>
      </trkpt>
      <trkpt lat="46.40186" lon="5.6233">
        <ele>705</ele>
        <time>2019-02-11T15:07:02Z</time>
      </trkpt>
      <trkpt lat="46.402" lon="5.62345">
        <ele>706</ele>
        <time>2019-02-11T15:08:02Z</time>
      </trkpt>
      <trkpt lat="46.4021" lon="5.62356">
        <ele>707</ele>
        <time>2019-02-11T15:09:02Z</time>
      </trkpt>
      <trkpt lat="46.40216" lon="5.62362">
        <ele>707</ele>
        <time>2019-02-11T15:10:02Z</time>
      </trkpt>
      <trkpt lat="46.40229" lon="5.62378">
        <ele>707</ele>
        <time>2019-02-11T15:11:02Z</time>
      </trkpt>
      <trkpt lat="46.40238" lon="5.6239">
        <ele>706</ele>
        <time>2019-02-11T15:12:02Z</time>
      </trkpt>
      <trkpt lat="46.40246" lon="5.62401">
        <ele>705</ele>
        <time>2019-02-11T15:13:02Z</time>
      </trkpt>
      <trkpt lat="46.40258" lon="5.62414">
        <ele>705</ele>
        <time>2019-02-11T15:14:02Z</time>
      </trkpt>
      <trkpt lat="46.40267" lon="5.62422">
        <ele>705</ele>
        <time>2019-02-11T15:15:02Z</time>
      </trkpt>
      <trkpt lat="46.40275" lon="5.62427">
        <ele>705.9</ele>
        <time>2019-02-11T15:16:02Z</time>
      </trkpt>
      <trkpt lat="46.40287" lon="5.62435">
        <ele>706.9</ele>
        <time>2019-02-11T15:17:02Z</time>
      </trkpt>
      <trkpt lat="46.40316" lon="5.62459">
        <ele>710</ele>
        <time>2019-02-11T15:18:02Z</time>
      </trkpt>
      <trkpt lat="46.40332" lon="5.62471">
        <ele>712</ele>
        <time>2019-02-11T15:19:02Z</time>
      </trkpt>
      <trkpt lat="46.40352" lon="5.62485">
        <ele>711</ele>
        <time>2019-02-11T15:20:02Z</time>
      </trkpt>
      <trkpt lat="46.40382" lon="5.6251">
        <ele>712</ele>
        <time>2019-02-11T15:21:02Z</time>
      </trkpt>
      <trkpt lat="46.40408" lon="5.6253">
        <ele>713</ele>
        <time>2019-02-11T15:22:02Z</time>
      </trkpt>
      <trkpt lat="46.40419" lon="5.6254">
        <ele>713</ele>
        <time>2019-02-11T15:23:02Z</time>
      </trkpt>
      <trkpt lat="46.40428" lon="5.6255">
        <ele>713</ele>
        <time>2019-02-11T15:24:02Z</time>
      </trkpt>
      <trkpt lat="46.40437" lon="5.62564">
        <ele>712</ele>
        <time>2019-02-11T15:25:02Z</time>
      </trkpt>
      <trkpt lat="46.40443" lon="5.62579">
        <ele>712</ele>
        <time>2019-02-11T15:26:02Z</time>
      </trkpt>
      <trkpt lat="46.40446" lon="5.62593">
        <ele>711</ele>
        <time>2019-02-11T15:27:02Z</time>
      </trkpt>
      <trkpt lat="46.40449" lon="5.62612">
        <ele>710</ele>
        <time>2019-02-11T15:28:02Z</time>
      </trkpt>
      <trkpt lat="46.40452" lon="5.62632">
        <ele>709</ele>
        <time>2019-02-11T15:29:02Z</time>
      </trkpt>
      <trkpt lat="46.40458" lon="5.62649">
        <ele>708</ele>
        <time>2019-02-11T15:30:02Z</time>
      </trkpt>
      <trkpt lat="46.40466" lon="5.62662">
        <ele>708</ele>
        <time>2019-02-11T15:31:02Z</time>
      </trkpt>
      <trkpt lat="46.40475" lon="5.62675">
        <ele>706</ele>
        <time>2019-02-11T15:32:02Z</time>
      </trkpt>
      <trkpt lat="46.40489" lon="5.62693">
        <ele>705</ele>
        <time>2019-02-11T15:33:02Z</time>
      </trkpt>
      <trkpt lat="46.40504" lon="5.62709">
        <ele>705</ele>
        <time>2019-02-11T15:34:02Z</time>
      </trkpt>
      <trkpt lat="46.40523" lon="5.62722">
        <ele>706</ele>
        <time>2019-02-11T15:35:02Z</time>
      </trkpt>
      <trkpt lat="46.4054" lon="5.62732">
        <ele>707</ele>
        <time>2019-02-11T15:36:02Z</time>
      </trkpt>
      <trkpt lat="46.40558" lon="5.62738">
        <ele>709</ele>
        <time>2019-02-11T15:37:02Z</time>
      </trkpt>
      <trkpt lat="46.40568" lon="5.62742">
        <ele>710</ele>
        <time>2019-02-11T15:38:02Z</time>
      </trkpt>
      <trkpt lat="46.40584" lon="5.62749">
        <ele>711</ele>
        <time>2019-02-11T15:39:02Z</time>
      </trkpt>
      <trkpt lat="46.40597" lon="5.62754">
        <ele>711</ele>
        <time>2019-02-11T15:40:02Z</time>
      </trkpt>
      <trkpt lat="46.40608" lon="5.6276">
        <ele>711</ele>
        <time>2019-02-11T15:41:02Z</time>
      </trkpt>
      <trkpt lat="46.4062" lon="5.62767">
        <ele>711</ele>
        <time>2019-02-11T15:42:02Z</time>
      </trkpt>
      <trkpt lat="46.40635" lon="5.62779">
        <ele>712</ele>
        <time>2019-02-11T15:43:02Z</time>
      </trkpt>
      <trkpt lat="46.40647" lon="5.62791">
        <ele>712</ele>
        <time>2019-02-11T15:44:02Z</time>
      </trkpt>
      <trkpt lat="46.40655" lon="5.62798">
        <ele>713</ele>
        <time>2019-02-11T15:45:02Z</time>
      </trkpt>
      <trkpt lat="46.40661" lon="5.62806">
        <ele>713</ele>
        <time>2019-02-11T15:46:02Z</time>
      </trkpt>
      <trkpt lat="46.40667" lon="5.62814">
        <ele>713</ele>
        <time>2019-02-11T15:47:02Z</time>
      </trkpt>
      <trkpt lat="46.40675" lon="5.6283">
        <ele>714</ele>
        <time>2019-02-11T15:48:02Z</time>
      </trkpt>
      <trkpt lat="46.40681" lon="5.62845">
        <ele>714</ele>
        <time>2019-02-11T15:49:02Z</time>
      </trkpt>
      <trkpt lat="46.40693" lon="5.62872">
        <ele>713</ele>
        <time>2019-02-11T15:50:02Z</time>
      </trkpt>
      <trkpt lat="46.407" lon="5.62879">
        <ele>713</ele>
        <time>2019-02-11T15:51:02Z</time>
      </trkpt>
      <trkpt lat="46.40705" lon="5.62886">
        <ele>713</ele>
        <time>2019-02-11T15:52:02Z</time>
      </trkpt>
      <trkpt lat="46.4071" lon="5.62892">
        <ele>712</ele>
        <time>2019-02-11T15:53:02Z</time>
      </trkpt>
      <trkpt lat="46.40722" lon="5.629">
        <ele>712</ele>
        <time>2019-02-11T15:54:02Z</time>
      </trkpt>
      <trkpt lat="46.40735" lon="5.62907">
        <ele>711</ele>
        <time>2019-02-11T15:55:02Z</time>
      </trkpt>
      <trkpt lat="46.40741" lon="5.6291">
        <ele>711</ele>
        <time>2019-02-11T15:56:02Z</time>
      </trkpt>
      <trkpt lat="46.40748" lon="5.62911">
        <ele>710</ele>
        <time>2019-02-11T15:57:02Z</time>
      </trkpt>
      <trkpt lat="46.40764" lon="5.62915">
        <ele>709</ele>
        <time>2019-02-11T15:58:02Z</time>
      </trkpt>
      <trkpt lat="46.40787" lon="5.62919">
        <ele>708</ele>
        <time>2019-02-11T15:59:02Z</time>
      </trkpt>
      <trkpt lat="46.40815" lon="5.6292">
        <ele>707</ele>
        <time>2019-02-11T16:03:02Z</time>
      </trkpt>
      <trkpt lat="46.40835" lon="5.62923">
        <ele>706</ele>
        <time>2019-02-11T16:04:02Z</time>
      </trkpt>
      <trkpt lat="46.40848" lon="5.62927">
        <ele>707</ele>
        <time>2019-02-11T16:05:02Z</time>
      </trkpt>
      <trkpt lat="46.40856" lon="5.6293">
        <ele>708</ele>
        <time>2019-02-11T16:06:02Z</time>
      </trkpt>
      <trkpt lat="46.40872" lon="5.6294">
        <ele>708</ele>
        <time>2019-02-11T16:07:02Z</time>
      </trkpt>
      <trkpt lat="46.40906" lon="5.62968">
        <ele>707</ele>
        <time>2019-02-11T16:08:02Z</time>
      </trkpt>
      <trkpt lat="46.40918" lon="5.62976">
        <ele>706</ele>
        <time>2019-02-11T16:09:02Z</time>
      </trkpt>
      <trkpt lat="46.40935" lon="5.62985">
        <ele>706</ele>
        <time>2019-02-11T16:10:02Z</time>
      </trkpt>
      <trkpt lat="46.40964" lon="5.63003">
        <ele>702.4</ele>
        <time>2019-02-11T16:11:02Z</time>
      </trkpt>
      <trkpt lat="46.41001" lon="5.63035">
        <ele>706.9</ele>
        <time>2019-02-11T16:12:02Z</time>
      </trkpt>
      <trkpt lat="46.41022" lon="5.63061">
        <ele>702</ele>
        <time>2019-02-11T16:13:02Z</time>
      </trkpt>
      <trkpt lat="46.41027" lon="5.6307">
        <ele>701</ele>
        <time>2019-02-11T16:14:02Z</time>
      </trkpt>
      <trkpt lat="46.41035" lon="5.63087">
        <ele>700</ele>
        <time>2019-02-11T16:15:02Z</time>
      </trkpt>
      <trkpt lat="46.41041" lon="5.63101">
        <ele>699</ele>
        <time>2019-02-11T16:16:02Z</time>
      </trkpt>
      <trkpt lat="46.41046" lon="5.63111">
        <ele>699</ele>
        <time>2019-02-11T16:17:02Z</time>
      </trkpt>
      <trkpt lat="46.41051" lon="5.63118">
        <ele>699</ele>
        <time>2019-02-11T16:18:02Z</time>
      </trkpt>
      <trkpt lat="46.41056" lon="5.63123">
        <ele>699</ele>
        <time>2019-02-11T16:19:02Z</time>
      </trkpt>
      <trkpt lat="46.41067" lon="5.63132">
        <ele>699</ele>
        <time>2019-02-11T16:20:02Z</time>
      </trkpt>
      <trkpt lat="46.41088" lon="5.63144">
        <ele>699</ele>
        <time>2019-02-11T16:21:02Z</time>
      </trkpt>
      <trkpt lat="46.41117" lon="5.63161">
        <ele>704.7</ele>
        <time>2019-02-11T16:22:02Z</time>
      </trkpt>
      <trkpt lat="46.41166" lon="5.63187">
        <ele>699</ele>
        <time>2019-02-11T16:23:02Z</time>
      </trkpt>
      <trkpt lat="46.41196" lon="5.63202">
        <ele>701</ele>
        <time>2019-02-11T16:24:02Z</time>
      </trkpt>
      <trkpt lat="46.41251" lon="5.63231">
        <ele>698</ele>
        <time>2019-02-11T16:25:02Z</time>
      </trkpt>
      <trkpt lat="46.41282" lon="5.63247">
        <ele>698</ele>
        <time>2019-02-11T16:26:02Z</time>
      </trkpt>
      <trkpt lat="46.41342" lon="5.63281">
        <ele>699</ele>
        <time>2019-02-11T16:27:02Z</time>
      </trkpt>
      <trkpt lat="46.414" lon="5.6331">
        <ele>697</ele>
        <time>2019-02-11T16:28:02Z</time>
      </trkpt>
      <trkpt lat="46.41453" lon="5.63339">
        <ele>694.6</ele>
        <time>2019-02-11T16:29:02Z</time>
      </trkpt>
      <trkpt lat="46.41477" lon="5.63351">
        <ele>695.9</ele>
        <time>2019-02-11T16:35:02Z</time>
      </trkpt>
      <trkpt lat="46.41522" lon="5.6337">
        <ele>698.2</ele>
        <time>2019-02-11T16:36:02Z</time>
      </trkpt>
      <trkpt lat="46.41553" lon="5.63382">
        <ele>697.8</ele>
        <time>2019-02-11T16:37:02Z</time>
      </trkpt>
      <trkpt lat="46.41572" lon="5.63391">
        <ele>696.8</ele>
        <time>2019-02-11T16:38:02Z</time>
      </trkpt>
      <trkpt lat="46.41596" lon="5.63404">
        <ele>698.5</ele>
        <time>2019-02-11T16:39:02Z</time>
      </trkpt>
      <trkpt lat="46.41618" lon="5.63415">
        <ele>701</ele>
        <time>2019-02-11T16:40:02Z</time>
      </trkpt>
      <trkpt lat="46.41641" lon="5.63426">
        <ele>695.5</ele>
        <time>2019-02-11T16:41:02Z</time>
      </trkpt>
      <trkpt lat="46.41648" lon="5.63427">
        <ele>697</ele>
        <time>2019-02-11T16:42:02Z</time>
      </trkpt>
      <trkpt lat="46.41653" lon="5.63432">
        <ele>698</ele>
        <time>2019-02-11T16:43:02Z</time>
      </trkpt>
      <trkpt lat="46.41658" lon="5.63442">
        <ele>697</ele>
        <time>2019-02-11T16:44:02Z</time>
      </trkpt>
      <trkpt lat="46.41659" lon="5.63443">
        <ele>697</ele>
        <time>2019-02-11T16:46:02Z</time>
      </trkpt>
      <trkpt lat="46.4166" lon="5.63445">
        <ele>697</ele>
        <time>2019-02-11T16:47:02Z</time>
      </trkpt>
      <trkpt lat="46.41663" lon="5.63457">
        <ele>696</ele>
        <time>2019-02-11T16:48:02Z</time>
      </trkpt>
      <trkpt lat="46.41661" lon="5.6347">
        <ele>695</ele>
        <time>2019-02-11T16:49:02Z</time>
      </trkpt>
      <trkpt lat="46.41656" lon="5.63496">
        <ele>693</ele>
        <time>2019-02-11T16:50:02Z</time>
      </trkpt>
      <trkpt lat="46.41655" lon="5.63507">
        <ele>693</ele>
        <time>2019-02-11T16:51:02Z</time>
      </trkpt>
      <trkpt lat="46.41655" lon="5.6352">
        <ele>693</ele>
        <time>2019-02-11T16:52:02Z</time>
      </trkpt>
      <trkpt lat="46.41658" lon="5.63533">
        <ele>694</ele>
        <time>2019-02-11T16:53:02Z</time>
      </trkpt>
      <trkpt lat="46.4167" lon="5.63546">
        <ele>695</ele>
        <time>2019-02-11T16:54:02Z</time>
      </trkpt>
      <trkpt lat="46.41707" lon="5.63577">
        <ele>693</ele>
        <time>2019-02-11T16:55:02Z</time>
      </trkpt>
      <trkpt lat="46.41784" lon="5.63639">
        <ele>687</ele>
        <time>2019-02-11T16:56:02Z</time>
      </trkpt>
      <trkpt lat="46.41824" lon="5.63669">
        <ele>682</ele>
        <time>2019-02-11T16:57:02Z</time>
      </trkpt>
      <trkpt lat="46.41852" lon="5.63692">
        <ele>679</ele>
        <time>2019-02-11T16:58:02Z</time>
      </trkpt>
      <trkpt lat="46.41884" lon="5.63716">
        <ele>676</ele>
        <time>2019-02-11T16:59:02Z</time>
      </trkpt>
      <trkpt lat="46.41901" lon="5.63729">
        <ele>673</ele>
        <time>2019-02-11T17:00:02Z</time>
      </trkpt>
      <trkpt lat="46.41909" lon="5.63735">
        <ele>672</ele>
        <time>2019-02-11T17:01:02Z</time>
      </trkpt>
      <trkpt lat="46.41941" lon="5.63758">
        <ele>669</ele>
        <time>2019-02-11T17:02:02Z</time>
      </trkpt>
      <trkpt lat="46.41966" lon="5.63775">
        <ele>669</ele>
        <time>2019-02-11T17:03:02Z</time>
      </trkpt>
      <trkpt lat="46.41989" lon="5.63792">
        <ele>668</ele>
        <time>2019-02-11T17:04:02Z</time>
      </trkpt>
      <trkpt lat="46.42022" lon="5.63815">
        <ele>666</ele>
        <time>2019-02-11T17:05:02Z</time>
      </trkpt>
      <trkpt lat="46.4206" lon="5.63842">
        <ele>663</ele>
        <time>2019-02-11T17:06:02Z</time>
      </trkpt>
      <trkpt lat="46.42096" lon="5.63866">
        <ele>660</ele>
        <time>2019-02-11T17:07:02Z</time>
      </trkpt>
      <trkpt lat="46.42112" lon="5.63878">
        <ele>659</ele>
        <time>2019-02-11T17:08:02Z</time>
      </trkpt>
      <trkpt lat="46.42134" lon="5.63897">
        <ele>657</ele>
        <time>2019-02-11T17:09:02Z</time>
      </trkpt>
      <trkpt lat="46.42146" lon="5.6391">
        <ele>657</ele>
        <time>2019-02-11T17:10:02Z</time>
      </trkpt>
      <trkpt lat="46.42152" lon="5.63919">
        <ele>656</ele>
        <time>2019-02-11T17:11:02Z</time>
      </trkpt>
      <trkpt lat="46.42157" lon="5.63931">
        <ele>655</ele>
        <time>2019-02-11T17:12:02Z</time>
      </trkpt>
      <trkpt lat="46.42159" lon="5.63939">
        <ele>655</ele>
        <time>2019-02-11T17:13:02Z</time>
      </trkpt>
      <trkpt lat="46.4216" lon="5.63947">
        <ele>654</ele>
        <time>2019-02-11T17:14:02Z</time>
      </trkpt>
      <trkpt lat="46.4216" lon="5.63961">
        <ele>654</ele>
        <time>2019-02-11T17:15:02Z</time>
      </trkpt>
      <trkpt lat="46.42158" lon="5.64015">
        <ele>651</ele>
        <time>2019-02-11T17:16:02Z</time>
      </trkpt>
      <trkpt lat="46.42155" lon="5.64036">
        <ele>651</ele>
        <time>2019-02-11T17:17:02Z</time>
      </trkpt>
      <trkpt lat="46.42152" lon="5.64055">
        <ele>650</ele>
        <time>2019-02-11T17:18:02Z</time>
      </trkpt>
      <trkpt lat="46.42151" lon="5.64066">
        <ele>650</ele>
        <time>2019-02-11T17:19:02Z</time>
      </trkpt>
      <trkpt lat="46.42151" lon="5.64081">
        <ele>649</ele>
        <time>2019-02-11T17:20:02Z</time>
      </trkpt>
      <trkpt lat="46.42153" lon="5.64093">
        <ele>649</ele>
        <time>2019-02-11T17:21:02Z</time>
      </trkpt>
      <trkpt lat="46.42158" lon="5.6411">
        <ele>650</ele>
        <time>2019-02-11T17:22:02Z</time>
      </trkpt>
      <trkpt lat="46.42167" lon="5.64127">
        <ele>650</ele>
        <time>2019-02-11T17:23:02Z</time>
      </trkpt>
      <trkpt lat="46.42171" lon="5.64136">
        <ele>650</ele>
        <time>2019-02-11T17:24:02Z</time>
      </trkpt>
      <trkpt lat="46.42176" lon="5.64146">
        <ele>650</ele>
        <time>2019-02-11T17:25:02Z</time>
      </trkpt>
      <trkpt lat="46.42184" lon="5.64155">
        <ele>650</ele>
        <time>2019-02-11T17:26:02Z</time>
      </trkpt>
      <trkpt lat="46.42191" lon="5.64162">
        <ele>650</ele>
        <time>2019-02-11T17:27:02Z</time>
      </trkpt>
      <trkpt lat="46.422" lon="5.64169">
        <ele>650</ele>
        <time>2019-02-11T17:28:02Z</time>
      </trkpt>
      <trkpt lat="46.4221" lon="5.64173">
        <ele>651</ele>
        <time>2019-02-11T17:29:02Z</time>
      </trkpt>
      <trkpt lat="46.42227" lon="5.64175">
        <ele>650</ele>
        <time>2019-02-11T17:30:02Z</time>
      </trkpt>
      <trkpt lat="46.42244" lon="5.64179">
        <ele>650</ele>
        <time>2019-02-11T17:31:02Z</time>
      </trkpt>
      <trkpt lat="46.42258" lon="5.64184">
        <ele>649</ele>
        <time>2019-02-11T17:32:02Z</time>
      </trkpt>
      <trkpt lat="46.42272" lon="5.6419">
        <ele>648</ele>
        <time>2019-02-11T17:33:02Z</time>
      </trkpt>
      <trkpt lat="46.4228" lon="5.64195">
        <ele>647</ele>
        <time>2019-02-11T17:34:02Z</time>
      </trkpt>
      <trkpt lat="46.42293" lon="5.64201">
        <ele>646</ele>
        <time>2019-02-11T17:35:02Z</time>
      </trkpt>
      <trkpt lat="46.42305" lon="5.64208">
        <ele>644</ele>
        <time>2019-02-11T17:36:02Z</time>
      </trkpt>
      <trkpt lat="46.42317" lon="5.64218">
        <ele>642</ele>
        <time>2019-02-11T17:37:02Z</time>
      </trkpt>
      <trkpt lat="46.42325" lon="5.64226">
        <ele>641</ele>
        <time>2019-02-11T17:38:02Z</time>
      </trkpt>
      <trkpt lat="46.42333" lon="5.6424">
        <ele>640</ele>
        <time>2019-02-11T17:39:02Z</time>
      </trkpt>
      <trkpt lat="46.4234" lon="5.64255">
        <ele>639</ele>
        <time>2019-02-11T17:40:02Z</time>
      </trkpt>
      <trkpt lat="46.42346" lon="5.64269">
        <ele>639</ele>
        <time>2019-02-11T17:41:02Z</time>
      </trkpt>
      <trkpt lat="46.42353" lon="5.64294">
        <ele>639</ele>
        <time>2019-02-11T17:42:02Z</time>
      </trkpt>
      <trkpt lat="46.42359" lon="5.64319">
        <ele>639</ele>
        <time>2019-02-11T17:43:02Z</time>
      </trkpt>
      <trkpt lat="46.42364" lon="5.64337">
        <ele>637</ele>
        <time>2019-02-11T17:44:02Z</time>
      </trkpt>
      <trkpt lat="46.42366" lon="5.6435">
        <ele>635</ele>
        <time>2019-02-11T17:45:02Z</time>
      </trkpt>
      <trkpt lat="46.42365" lon="5.64368">
        <ele>630.2</ele>
        <time>2019-02-11T17:46:02Z</time>
      </trkpt>
      <trkpt lat="46.42365" lon="5.64387">
        <ele>629.4</ele>
        <time>2019-02-11T17:47:02Z</time>
      </trkpt>
      <trkpt lat="46.42362" lon="5.64411">
        <ele>630.8</ele>
        <time>2019-02-11T17:48:02Z</time>
      </trkpt>
      <trkpt lat="46.42356" lon="5.64435">
        <ele>630</ele>
        <time>2019-02-11T17:49:02Z</time>
      </trkpt>
      <trkpt lat="46.42346" lon="5.64464">
        <ele>629</ele>
        <time>2019-02-11T17:50:02Z</time>
      </trkpt>
      <trkpt lat="46.42338" lon="5.6449">
        <ele>627</ele>
        <time>2019-02-11T17:51:02Z</time>
      </trkpt>
      <trkpt lat="46.42331" lon="5.64515">
        <ele>625</ele>
        <time>2019-02-11T17:52:02Z</time>
      </trkpt>
      <trkpt lat="46.42324" lon="5.6454">
        <ele>625</ele>
        <time>2019-02-11T17:53:02Z</time>
      </trkpt>
      <trkpt lat="46.42319" lon="5.64552">
        <ele>625</ele>
        <time>2019-02-11T17:54:02Z</time>
      </trkpt>
      <trkpt lat="46.42311" lon="5.64566">
        <ele>625</ele>
        <time>2019-02-11T17:55:02Z</time>
      </trkpt>
      <trkpt lat="46.42302" lon="5.64581">
        <ele>624</ele>
        <time>2019-02-11T17:56:02Z</time>
      </trkpt>
      <trkpt lat="46.423" lon="5.64586">
        <ele>624</ele>
        <time>2019-02-11T17:57:02Z</time>
      </trkpt>
      <trkpt lat="46.42298" lon="5.64594">
        <ele>623</ele>
        <time>2019-02-11T17:58:02Z</time>
      </trkpt>
      <trkpt lat="46.42298" lon="5.646">
        <ele>622</ele>
        <time>2019-02-11T17:59:02Z</time>
      </trkpt>
      <trkpt lat="46.42297" lon="5.64607">
        <ele>622</ele>
        <time>2019-02-11T18:00:02Z</time>
      </trkpt>
      <trkpt lat="46.42299" lon="5.64614">
        <ele>620</ele>
        <time>2019-02-11T18:01:02Z</time>
      </trkpt>
      <trkpt lat="46.423" lon="5.64621">
        <ele>619</ele>
        <time>2019-02-11T18:02:02Z</time>
      </trkpt>
      <trkpt lat="46.42305" lon="5.64631">
        <ele>616</ele>
        <time>2019-02-11T18:03:02Z</time>
      </trkpt>
      <trkpt lat="46.4231" lon="5.64636">
        <ele>615</ele>
        <time>2019-02-11T18:04:02Z</time>
      </trkpt>
      <trkpt lat="46.42315" lon="5.64642">
        <ele>613</ele>
        <time>2019-02-11T18:05:02Z</time>
      </trkpt>
      <trkpt lat="46.42328" lon="5.64652">
        <ele>610</ele>
        <time>2019-02-11T18:06:02Z</time>
      </trkpt>
      <trkpt lat="46.42335" lon="5.6466">
        <ele>608</ele>
        <time>2019-02-11T18:07:02Z</time>
      </trkpt>
      <trkpt lat="46.42338" lon="5.64663">
        <ele>607</ele>
        <time>2019-02-11T18:08:02Z</time>
      </trkpt>
      <trkpt lat="46.4234" lon="5.64668">
        <ele>606</ele>
        <time>2019-02-11T18:09:02Z</time>
      </trkpt>
      <trkpt lat="46.42341" lon="5.64674">
        <ele>606</ele>
        <time>2019-02-11T18:10:02Z</time>
      </trkpt>
      <trkpt lat="46.42341" lon="5.6468">
        <ele>605</ele>
        <time>2019-02-11T18:11:02Z</time>
      </trkpt>
      <trkpt lat="46.4234" lon="5.64685">
        <ele>605</ele>
        <time>2019-02-11T18:12:02Z</time>
      </trkpt>
      <trkpt lat="46.42338" lon="5.6469">
        <ele>605</ele>
        <time>2019-02-11T18:13:02Z</time>
      </trkpt>
      <trkpt lat="46.42332" lon="5.647">
        <ele>606</ele>
        <time>2019-02-11T18:14:02Z</time>
      </trkpt>
      <trkpt lat="46.42324" lon="5.64714">
        <ele>606</ele>
        <time>2019-02-11T18:15:02Z</time>
      </trkpt>
      <trkpt lat="46.42314" lon="5.6473">
        <ele>606</ele>
        <time>2019-02-11T18:16:02Z</time>
      </trkpt>
      <trkpt lat="46.42304" lon="5.64747">
        <ele>606</ele>
        <time>2019-02-11T18:17:02Z</time>
      </trkpt>
      <trkpt lat="46.42286" lon="5.6478">
        <ele>607</ele>
        <time>2019-02-11T18:18:02Z</time>
      </trkpt>
      <trkpt lat="46.4227" lon="5.64807">
        <ele>608</ele>
        <time>2019-02-11T18:19:02Z</time>
      </trkpt>
      <trkpt lat="46.42267" lon="5.64814">
        <ele>608</ele>
        <time>2019-02-11T18:20:02Z</time>
      </trkpt>
      <trkpt lat="46.42266" lon="5.64816">
        <ele>608</ele>
        <time>2019-02-11T18:21:02Z</time>
      </trkpt>
      <trkpt lat="46.42265" lon="5.64822">
        <ele>608</ele>
        <time>2019-02-11T18:22:02Z</time>
      </trkpt>
      <trkpt lat="46.42264" lon="5.64831">
        <ele>608</ele>
        <time>2019-02-11T18:23:02Z</time>
      </trkpt>
      <trkpt lat="46.42265" lon="5.64839">
        <ele>607</ele>
        <time>2019-02-11T18:24:02Z</time>
      </trkpt>
      <trkpt lat="46.42268" lon="5.64847">
        <ele>607</ele>
        <time>2019-02-11T18:25:02Z</time>
      </trkpt>
      <trkpt lat="46.42271" lon="5.64854">
        <ele>606</ele>
        <time>2019-02-11T18:26:02Z</time>
      </trkpt>
      <trkpt lat="46.42284" lon="5.64869">
        <ele>604</ele>
        <time>2019-02-11T18:27:02Z</time>
      </trkpt>
      <trkpt lat="46.42295" lon="5.64881">
        <ele>603</ele>
        <time>2019-02-11T18:28:02Z</time>
      </trkpt>
      <trkpt lat="46.42314" lon="5.64896">
        <ele>600</ele>
        <time>2019-02-11T18:32:02Z</time>
      </trkpt>
      <trkpt lat="46.42329" lon="5.6491">
        <ele>597</ele>
        <time>2019-02-11T18:33:02Z</time>
      </trkpt>
      <trkpt lat="46.42333" lon="5.64916">
        <ele>596</ele>
        <time>2019-02-11T18:34:02Z</time>
      </trkpt>
      <trkpt lat="46.42336" lon="5.64922">
        <ele>596</ele>
        <time>2019-02-11T18:35:02Z</time>
      </trkpt>
      <trkpt lat="46.42338" lon="5.64928">
        <ele>595</ele>
        <time>2019-02-11T18:36:02Z</time>
      </trkpt>
      <trkpt lat="46.42341" lon="5.6494">
        <ele>595</ele>
        <time>2019-02-11T18:37:02Z</time>
      </trkpt>
      <trkpt lat="46.42341" lon="5.6494">
        <ele>595</ele>
        <time>2019-02-11T18:38:02Z</time>
      </trkpt>
      <trkpt lat="46.42318" lon="5.64957">
        <ele>594</ele>
        <time>2019-02-11T18:39:02Z</time>
      </trkpt>
      <trkpt lat="46.42307" lon="5.64965">
        <ele>594</ele>
        <time>2019-02-11T18:40:02Z</time>
      </trkpt>
      <trkpt lat="46.42296" lon="5.64971">
        <ele>593</ele>
        <time>2019-02-11T18:41:02Z</time>
      </trkpt>
      <trkpt lat="46.42286" lon="5.64974">
        <ele>593</ele>
        <time>2019-02-11T18:42:02Z</time>
      </trkpt>
      <trkpt lat="46.42273" lon="5.64978">
        <ele>592</ele>
        <time>2019-02-11T18:43:02Z</time>
      </trkpt>
      <trkpt lat="46.42258" lon="5.64982">
        <ele>591</ele>
        <time>2019-02-11T18:44:02Z</time>
      </trkpt>
      <trkpt lat="46.42242" lon="5.64985">
        <ele>589</ele>
        <time>2019-02-11T18:45:02Z</time>
      </trkpt>
      <trkpt lat="46.42228" lon="5.64987">
        <ele>588</ele>
        <time>2019-02-11T18:46:02Z</time>
      </trkpt>
      <trkpt lat="46.42214" lon="5.64988">
        <ele>587</ele>
        <time>2019-02-11T18:47:02Z</time>
      </trkpt>
      <trkpt lat="46.42204" lon="5.64988">
        <ele>587</ele>
        <time>2019-02-11T18:48:02Z</time>
      </trkpt>
      <trkpt lat="46.42189" lon="5.64986">
        <ele>586</ele>
        <time>2019-02-11T18:49:02Z</time>
      </trkpt>
      <trkpt lat="46.42174" lon="5.64985">
        <ele>586</ele>
        <time>2019-02-11T18:50:02Z</time>
      </trkpt>
      <trkpt lat="46.42157" lon="5.64983">
        <ele>585</ele>
        <time>2019-02-11T18:51:02Z</time>
      </trkpt>
      <trkpt lat="46.42146" lon="5.64982">
        <ele>584</ele>
        <time>2019-02-11T18:52:02Z</time>
      </trkpt>
      <trkpt lat="46.4213" lon="5.64981">
        <ele>583</ele>
        <time>2019-02-11T18:53:02Z</time>
      </trkpt>
      <trkpt lat="46.42114" lon="5.6498">
        <ele>581</ele>
        <time>2019-02-11T18:54:02Z</time>
      </trkpt>
      <trkpt lat="46.42098" lon="5.64978">
        <ele>580</ele>
        <time>2019-02-11T18:55:02Z</time>
      </trkpt>
      <trkpt lat="46.42083" lon="5.64977">
        <ele>578</ele>
        <time>2019-02-11T18:56:02Z</time>
      </trkpt>
      <trkpt lat="46.4207" lon="5.64974">
        <ele>578</ele>
        <time>2019-02-11T18:57:02Z</time>
      </trkpt>
      <trkpt lat="46.42057" lon="5.64971">
        <ele>577</ele>
        <time>2019-02-11T18:58:02Z</time>
      </trkpt>
      <trkpt lat="46.42043" lon="5.64967">
        <ele>576</ele>
        <time>2019-02-11T18:59:02Z</time>
      </trkpt>
      <trkpt lat="46.42027" lon="5.64963">
        <ele>575</ele>
        <time>2019-02-11T19:00:02Z</time>
      </trkpt>
      <trkpt lat="46.42011" lon="5.64958">
        <ele>575</ele>
        <time>2019-02-11T19:01:02Z</time>
      </trkpt>
      <trkpt lat="46.41995" lon="5.64954">
        <ele>574</ele>
        <time>2019-02-11T19:02:02Z</time>
      </trkpt>
      <trkpt lat="46.41984" lon="5.64949">
        <ele>574</ele>
        <time>2019-02-11T19:03:02Z</time>
      </trkpt>
      <trkpt lat="46.4197" lon="5.64942">
        <ele>574</ele>
        <time>2019-02-11T19:04:02Z</time>
      </trkpt>
      <trkpt lat="46.41959" lon="5.64936">
        <ele>574</ele>
        <time>2019-02-11T19:05:02Z</time>
      </trkpt>
      <trkpt lat="46.41949" lon="5.64934">
        <ele>574</ele>
        <time>2019-02-11T19:06:02Z</time>
      </trkpt>
      <trkpt lat="46.41939" lon="5.64933">
        <ele>573</ele>
        <time>2019-02-11T19:07:02Z</time>
      </trkpt>
      <trkpt lat="46.41927" lon="5.64932">
        <ele>572</ele>
        <time>2019-02-11T19:08:02Z</time>
      </trkpt>
      <trkpt lat="46.41896" lon="5.64932">
        <ele>569</ele>
        <time>2019-02-11T19:09:02Z</time>
      </trkpt>
      <trkpt lat="46.4188" lon="5.64932">
        <ele>568</ele>
        <time>2019-02-11T19:10:02Z</time>
      </trkpt>
      <trkpt lat="46.41868" lon="5.64932">
        <ele>567</ele>
        <time>2019-02-11T19:11:02Z</time>
      </trkpt>
      <trkpt lat="46.41854" lon="5.64932">
        <ele>566</ele>
        <time>2019-02-11T19:12:02Z</time>
      </trkpt>
      <trkpt lat="46.41841" lon="5.64931">
        <ele>565</ele>
        <time>2019-02-11T19:13:02Z</time>
      </trkpt>
      <trkpt lat="46.41828" lon="5.64929">
        <ele>564</ele>
        <time>2019-02-11T19:14:02Z</time>
      </trkpt>
      <trkpt lat="46.41816" lon="5.64927">
        <ele>563</ele>
        <time>2019-02-11T19:15:02Z</time>
      </trkpt>
      <trkpt lat="46.41803" lon="5.64925">
        <ele>562</ele>
        <time>2019-02-11T19:16:02Z</time>
      </trkpt>
      <trkpt lat="46.4179" lon="5.64922">
        <ele>561</ele>
        <time>2019-02-11T19:17:02Z</time>
      </trkpt>
      <trkpt lat="46.41779" lon="5.64918">
        <ele>560</ele>
        <time>2019-02-11T19:18:02Z</time>
      </trkpt>
      <trkpt lat="46.4177" lon="5.64913">
        <ele>560</ele>
        <time>2019-02-11T19:19:02Z</time>
      </trkpt>
      <trkpt lat="46.4176" lon="5.64908">
        <ele>560</ele>
        <time>2019-02-11T19:20:02Z</time>
      </trkpt>
      <trkpt lat="46.41748" lon="5.64902">
        <ele>560</ele>
        <time>2019-02-11T19:21:02Z</time>
      </trkpt>
      <trkpt lat="46.41738" lon="5.64898">
        <ele>559</ele>
        <time>2019-02-11T19:22:02Z</time>
      </trkpt>
      <trkpt lat="46.41726" lon="5.64896">
        <ele>559</ele>
        <time>2019-02-11T19:23:02Z</time>
      </trkpt>
      <trkpt lat="46.41715" lon="5.64894">
        <ele>558</ele>
        <time>2019-02-11T19:24:02Z</time>
      </trkpt>
      <trkpt lat="46.41702" lon="5.64893">
        <ele>557</ele>
        <time>2019-02-11T19:25:02Z</time>
      </trkpt>
      <trkpt lat="46.41689" lon="5.64891">
        <ele>556</ele>
        <time>2019-02-11T19:26:02Z</time>
      </trkpt>
      <trkpt lat="46.41674" lon="5.6489">
        <ele>554</ele>
        <time>2019-02-11T19:27:02Z</time>
      </trkpt>
      <trkpt lat="46.4166" lon="5.64889">
        <ele>554</ele>
        <time>2019-02-11T19:28:02Z</time>
      </trkpt>
      <trkpt lat="46.41629" lon="5.64888">
        <ele>553</ele>
        <time>2019-02-11T19:29:02Z</time>
      </trkpt>
      <trkpt lat="46.41614" lon="5.64888">
        <ele>552</ele>
        <time>2019-02-11T19:30:02Z</time>
      </trkpt>
      <trkpt lat="46.41602" lon="5.64891">
        <ele>551</ele>
        <time>2019-02-11T19:31:02Z</time>
      </trkpt>
      <trkpt lat="46.4159" lon="5.64897">
        <ele>549</ele>
        <time>2019-02-11T19:32:02Z</time>
      </trkpt>
      <trkpt lat="46.41578" lon="5.64901">
        <ele>548</ele>
        <time>2019-02-11T19:33:02Z</time>
      </trkpt>
      <trkpt lat="46.41568" lon="5.64902">
        <ele>548</ele>
        <time>2019-02-11T19:34:02Z</time>
      </trkpt>
      <trkpt lat="46.41557" lon="5.649">
        <ele>547</ele>
        <time>2019-02-11T19:35:02Z</time>
      </trkpt>
      <trkpt lat="46.41547" lon="5.649">
        <ele>547</ele>
        <time>2019-02-11T19:36:02Z</time>
      </trkpt>
      <trkpt lat="46.41518" lon="5.64895">
        <ele>546</ele>
        <time>2019-02-11T19:37:02Z</time>
      </trkpt>
      <trkpt lat="46.41504" lon="5.64893">
        <ele>546</ele>
        <time>2019-02-11T19:38:02Z</time>
      </trkpt>
      <trkpt lat="46.41491" lon="5.64893">
        <ele>546</ele>
        <time>2019-02-11T19:39:02Z</time>
      </trkpt>
      <trkpt lat="46.41464" lon="5.64893">
        <ele>544</ele>
        <time>2019-02-11T19:40:02Z</time>
      </trkpt>
      <trkpt lat="46.41455" lon="5.64894">
        <ele>544</ele>
        <time>2019-02-11T19:41:02Z</time>
      </trkpt>
      <trkpt lat="46.4144" lon="5.64897">
        <ele>543</ele>
        <time>2019-02-11T19:42:02Z</time>
      </trkpt>
      <trkpt lat="46.41429" lon="5.64901">
        <ele>542</ele>
        <time>2019-02-11T19:43:02Z</time>
      </trkpt>
      <trkpt lat="46.41417" lon="5.64907">
        <ele>541</ele>
        <time>2019-02-11T19:44:02Z</time>
      </trkpt>
      <trkpt lat="46.41405" lon="5.64913">
        <ele>539</ele>
        <time>2019-02-11T19:45:02Z</time>
      </trkpt>
      <trkpt lat="46.41394" lon="5.64916">
        <ele>538</ele>
        <time>2019-02-11T19:46:02Z</time>
      </trkpt>
      <trkpt lat="46.41385" lon="5.64918">
        <ele>537</ele>
        <time>2019-02-11T19:47:02Z</time>
      </trkpt>
      <trkpt lat="46.41373" lon="5.64917">
        <ele>536</ele>
        <time>2019-02-11T19:48:02Z</time>
      </trkpt>
      <trkpt lat="46.41361" lon="5.64915">
        <ele>536</ele>
        <time>2019-02-11T19:49:02Z</time>
      </trkpt>
      <trkpt lat="46.41349" lon="5.64913">
        <ele>536</ele>
        <time>2019-02-11T19:50:02Z</time>
      </trkpt>
      <trkpt lat="46.41333" lon="5.64909">
        <ele>535</ele>
        <time>2019-02-11T19:51:02Z</time>
      </trkpt>
      <trkpt lat="46.4132" lon="5.64907">
        <ele>536</ele>
        <time>2019-02-11T19:52:02Z</time>
      </trkpt>
      <trkpt lat="46.41306" lon="5.64904">
        <ele>536</ele>
        <time>2019-02-11T19:53:02Z</time>
      </trkpt>
      <trkpt lat="46.41293" lon="5.64904">
        <ele>536</ele>
        <time>2019-02-11T19:54:02Z</time>
      </trkpt>
      <trkpt lat="46.41274" lon="5.64904">
        <ele>535</ele>
        <time>2019-02-11T19:55:02Z</time>
      </trkpt>
      <trkpt lat="46.41255" lon="5.64903">
        <ele>535</ele>
        <time>2019-02-11T19:56:02Z</time>
      </trkpt>
      <trkpt lat="46.41237" lon="5.64901">
        <ele>535</ele>
        <time>2019-02-11T19:57:02Z</time>
      </trkpt>
      <trkpt lat="46.41216" lon="5.64898">
        <ele>535</ele>
        <time>2019-02-11T19:58:02Z</time>
      </trkpt>
      <trkpt lat="46.41198" lon="5.64896">
        <ele>535</ele>
        <time>2019-02-11T19:59:02Z</time>
      </trkpt>
      <trkpt lat="46.41177" lon="5.64893">
        <ele>535</ele>
        <time>2019-02-11T20:00:02Z</time>
      </trkpt>
      <trkpt lat="46.41163" lon="5.64891">
        <ele>535</ele>
        <time>2019-02-11T20:01:02Z</time>
      </trkpt>
      <trkpt lat="46.41156" lon="5.6489">
        <ele>535</ele>
        <time>2019-02-11T20:02:02Z</time>
      </trkpt>
      <trkpt lat="46.41148" lon="5.64887">
        <ele>535</ele>
        <time>2019-02-11T20:03:02Z</time>
      </trkpt>
      <trkpt lat="46.41137" lon="5.64883">
        <ele>535</ele>
        <time>2019-02-11T20:04:02Z</time>
      </trkpt>
      <trkpt lat="46.41123" lon="5.64878">
        <ele>535</ele>
        <time>2019-02-11T20:05:02Z</time>
      </trkpt>
      <trkpt lat="46.4111" lon="5.64874">
        <ele>535</ele>
        <time>2019-02-11T20:06:02Z</time>
      </trkpt>
      <trkpt lat="46.41093" lon="5.64871">
        <ele>535</ele>
        <time>2019-02-11T20:07:02Z</time>
      </trkpt>
      <trkpt lat="46.41074" lon="5.64868">
        <ele>534</ele>
        <time>2019-02-11T20:08:02Z</time>
      </trkpt>
      <trkpt lat="46.41054" lon="5.64863">
        <ele>533</ele>
        <time>2019-02-11T20:09:02Z</time>
      </trkpt>
      <trkpt lat="46.41031" lon="5.64858">
        <ele>532</ele>
        <time>2019-02-11T20:10:02Z</time>
      </trkpt>
      <trkpt lat="46.40986" lon="5.64849">
        <ele>528</ele>
        <time>2019-02-11T20:11:02Z</time>
      </trkpt>
      <trkpt lat="46.40965" lon="5.64845">
        <ele>527</ele>
        <time>2019-02-11T20:12:02Z</time>
      </trkpt>
      <trkpt lat="46.40939" lon="5.6484">
        <ele>525</ele>
        <time>2019-02-11T20:13:02Z</time>
      </trkpt>
      <trkpt lat="46.40923" lon="5.64838">
        <ele>524</ele>
        <time>2019-02-11T20:14:02Z</time>
      </trkpt>
      <trkpt lat="46.40906" lon="5.64837">
        <ele>522</ele>
        <time>2019-02-11T20:15:02Z</time>
      </trkpt>
      <trkpt lat="46.40892" lon="5.64838">
        <ele>521</ele>
        <time>2019-02-11T20:16:02Z</time>
      </trkpt>
      <trkpt lat="46.40872" lon="5.64841">
        <ele>519</ele>
        <time>2019-02-11T20:17:02Z</time>
      </trkpt>
      <trkpt lat="46.40855" lon="5.64841">
        <ele>518.6</ele>
        <time>2019-02-11T20:18:02Z</time>
      </trkpt>
      <trkpt lat="46.40835" lon="5.64841">
        <ele>516.5</ele>
        <time>2019-02-11T20:19:02Z</time>
      </trkpt>
      <trkpt lat="46.40818" lon="5.64838">
        <ele>514.9</ele>
        <time>2019-02-11T20:20:02Z</time>
      </trkpt>
      <trkpt lat="46.40803" lon="5.64839">
        <ele>514</ele>
        <time>2019-02-11T20:23:02Z</time>
      </trkpt>
      <trkpt lat="46.40786" lon="5.64837">
        <ele>513</ele>
        <time>2019-02-11T20:24:02Z</time>
      </trkpt>
      <trkpt lat="46.40768" lon="5.64836">
        <ele>513</ele>
        <time>2019-02-11T20:25:02Z</time>
      </trkpt>
      <trkpt lat="46.40745" lon="5.64836">
        <ele>512</ele>
        <time>2019-02-11T20:26:02Z</time>
      </trkpt>
      <trkpt lat="46.40723" lon="5.64836">
        <ele>512</ele>
        <time>2019-02-11T20:27:02Z</time>
      </trkpt>
      <trkpt lat="46.40699" lon="5.64836">
        <ele>512</ele>
        <time>2019-02-11T20:28:02Z</time>
      </trkpt>
      <trkpt lat="46.40688" lon="5.64837">
        <ele>512</ele>
        <time>2019-02-11T20:29:02Z</time>
      </trkpt>
      <trkpt lat="46.40665" lon="5.64837">
        <ele>512.2</ele>
        <time>2019-02-11T20:30:02Z</time>
      </trkpt>
      <trkpt lat="46.40623" lon="5.64845">
        <ele>512.9</ele>
        <time>2019-02-11T20:31:02Z</time>
      </trkpt>
      <trkpt lat="46.40602" lon="5.64853">
        <ele>513</ele>
        <time>2019-02-11T20:32:02Z</time>
      </trkpt>
      <trkpt lat="46.40579" lon="5.64856">
        <ele>513</ele>
        <time>2019-02-11T20:33:02Z</time>
      </trkpt>
      <trkpt lat="46.40571" lon="5.64858">
        <ele>513</ele>
        <time>2019-02-11T20:34:02Z</time>
      </trkpt>
      <trkpt lat="46.40559" lon="5.6486">
        <ele>513</ele>
        <time>2019-02-11T20:35:02Z</time>
      </trkpt>
      <trkpt lat="46.40536" lon="5.64864">
        <ele>512</ele>
        <time>2019-02-11T20:36:02Z</time>
      </trkpt>
      <trkpt lat="46.40524" lon="5.64863">
        <ele>512</ele>
        <time>2019-02-11T20:37:02Z</time>
      </trkpt>
      <trkpt lat="46.40505" lon="5.64861">
        <ele>512</ele>
        <time>2019-02-11T20:38:02Z</time>
      </trkpt>
      <trkpt lat="46.40485" lon="5.64858">
        <ele>512</ele>
        <time>2019-02-11T20:39:02Z</time>
      </trkpt>
      <trkpt lat="46.40464" lon="5.64854">
        <ele>513</ele>
        <time>2019-02-11T20:40:02Z</time>
      </trkpt>
      <trkpt lat="46.4042" lon="5.64847">
        <ele>515</ele>
        <time>2019-02-11T20:41:02Z</time>
      </trkpt>
      <trkpt lat="46.40399" lon="5.64846">
        <ele>516</ele>
        <time>2019-02-11T20:42:02Z</time>
      </trkpt>
      <trkpt lat="46.40384" lon="5.64849">
        <ele>516</ele>
        <time>2019-02-11T20:43:02Z</time>
      </trkpt>
      <trkpt lat="46.4037" lon="5.64856">
        <ele>515</ele>
        <time>2019-02-11T20:44:02Z</time>
      </trkpt>
      <trkpt lat="46.40358" lon="5.64868">
        <ele>515</ele>
        <time>2019-02-11T20:45:02Z</time>
      </trkpt>
      <trkpt lat="46.40352" lon="5.64875">
        <ele>515</ele>
        <time>2019-02-11T20:46:02Z</time>
      </trkpt>
      <trkpt lat="46.40346" lon="5.64888">
        <ele>515</ele>
        <time>2019-02-11T20:47:02Z</time>
      </trkpt>
      <trkpt lat="46.4034" lon="5.64906">
        <ele>515</ele>
        <time>2019-02-11T20:48:02Z</time>
      </trkpt>
      <trkpt lat="46.40337" lon="5.64921">
        <ele>515</ele>
        <time>2019-02-11T20:49:02Z</time>
      </trkpt>
      <trkpt lat="46.40334" lon="5.64931">
        <ele>515</ele>
        <time>2019-02-11T20:50:02Z</time>
      </trkpt>
      <trkpt lat="46.40324" lon="5.64958">
        <ele>516</ele>
        <time>2019-02-11T20:51:02Z</time>
      </trkpt>
      <trkpt lat="46.40313" lon="5.64988">
        <ele>516</ele>
        <time>2019-02-11T20:52:02Z</time>
      </trkpt>
      <trkpt lat="46.40302" lon="5.65012">
        <ele>516</ele>
        <time>2019-02-11T20:53:02Z</time>
      </trkpt>
      <trkpt lat="46.40297" lon="5.65025">
        <ele>516</ele>
        <time>2019-02-11T20:54:02Z</time>
      </trkpt>
      <trkpt lat="46.40292" lon="5.65045">
        <ele>515</ele>
        <time>2019-02-11T20:55:02Z</time>
      </trkpt>
      <trkpt lat="46.40288" lon="5.65063">
        <ele>515</ele>
        <time>2019-02-11T20:56:02Z</time>
      </trkpt>
      <trkpt lat="46.40283" lon="5.65089">
        <ele>514</ele>
        <time>2019-02-11T20:57:02Z</time>
      </trkpt>
      <trkpt lat="46.4028" lon="5.65104">
        <ele>514</ele>
        <time>2019-02-11T20:58:02Z</time>
      </trkpt>
      <trkpt lat="46.40273" lon="5.65139">
        <ele>513</ele>
        <time>2019-02-11T20:59:02Z</time>
      </trkpt>
      <trkpt lat="46.4027" lon="5.65156">
        <ele>513</ele>
        <time>2019-02-11T21:00:02Z</time>
      </trkpt>
      <trkpt lat="46.40265" lon="5.65172">
        <ele>512</ele>
        <time>2019-02-11T21:01:02Z</time>
      </trkpt>
      <trkpt lat="46.40263" lon="5.65188">
        <ele>512</ele>
        <time>2019-02-11T21:02:02Z</time>
      </trkpt>
      <trkpt lat="46.40263" lon="5.65209">
        <ele>512</ele>
        <time>2019-02-11T21:03:02Z</time>
      </trkpt>
      <trkpt lat="46.40263" lon="5.65235">
        <ele>512</ele>
        <time>2019-02-11T21:04:02Z</time>
      </trkpt>
      <trkpt lat="46.40262" lon="5.65248">
        <ele>512</ele>
        <time>2019-02-11T21:05:02Z</time>
      </trkpt>
      <trkpt lat="46.4026" lon="5.65261">
        <ele>511</ele>
        <time>2019-02-11T21:06:02Z</time>
      </trkpt>
      <trkpt lat="46.40255" lon="5.65281">
        <ele>511</ele>
        <time>2019-02-11T21:07:02Z</time>
      </trkpt>
      <trkpt lat="46.40251" lon="5.65295">
        <ele>511</ele>
        <time>2019-02-11T21:08:02Z</time>
      </trkpt>
      <trkpt lat="46.40246" lon="5.65313">
        <ele>511</ele>
        <time>2019-02-11T21:09:02Z</time>
      </trkpt>
      <trkpt lat="46.40241" lon="5.65328">
        <ele>511</ele>
        <time>2019-02-11T21:10:02Z</time>
      </trkpt>
      <trkpt lat="46.40236" lon="5.65337">
        <ele>511</ele>
        <time>2019-02-11T21:11:02Z</time>
      </trkpt>
      <trkpt lat="46.40233" lon="5.65343">
        <ele>511</ele>
        <time>2019-02-11T21:12:02Z</time>
      </trkpt>
      <trkpt lat="46.40225" lon="5.65355">
        <ele>511</ele>
        <time>2019-02-11T21:13:02Z</time>
      </trkpt>
      <trkpt lat="46.40215" lon="5.65371">
        <ele>510</ele>
        <time>2019-02-11T21:14:02Z</time>
      </trkpt>
      <trkpt lat="46.40201" lon="5.65395">
        <ele>509</ele>
        <time>2019-02-11T21:15:02Z</time>
      </trkpt>
      <trkpt lat="46.4019" lon="5.65413">
        <ele>508</ele>
        <time>2019-02-11T21:16:02Z</time>
      </trkpt>
      <trkpt lat="46.40181" lon="5.65428">
        <ele>508</ele>
        <time>2019-02-11T21:17:02Z</time>
      </trkpt>
      <trkpt lat="46.40172" lon="5.65441">
        <ele>508</ele>
        <time>2019-02-11T21:18:02Z</time>
      </trkpt>
      <trkpt lat="46.40161" lon="5.65457">
        <ele>508</ele>
        <time>2019-02-11T21:19:02Z</time>
      </trkpt>
      <trkpt lat="46.40147" lon="5.65472">
        <ele>508</ele>
        <time>2019-02-11T21:20:02Z</time>
      </trkpt>
      <trkpt lat="46.40134" lon="5.65487">
        <ele>507</ele>
        <time>2019-02-11T21:21:02Z</time>
      </trkpt>
      <trkpt lat="46.40119" lon="5.65503">
        <ele>507</ele>
        <time>2019-02-11T21:22:02Z</time>
      </trkpt>
      <trkpt lat="46.40106" lon="5.65518">
        <ele>507</ele>
        <time>2019-02-11T21:23:02Z</time>
      </trkpt>
      <trkpt lat="46.40093" lon="5.65534">
        <ele>507</ele>
        <time>2019-02-11T21:24:02Z</time>
      </trkpt>
      <trkpt lat="46.40078" lon="5.65555">
        <ele>507</ele>
        <time>2019-02-11T21:25:02Z</time>
      </trkpt>
      <trkpt lat="46.40044" lon="5.65603">
        <ele>509</ele>
        <time>2019-02-11T21:26:02Z</time>
      </trkpt>
      <trkpt lat="46.40027" lon="5.65626">
        <ele>510</ele>
        <time>2019-02-11T21:27:02Z</time>
      </trkpt>
      <trkpt lat="46.40013" lon="5.65645">
        <ele>509</ele>
        <time>2019-02-11T21:28:02Z</time>
      </trkpt>
      <trkpt lat="46.40006" lon="5.65659">
        <ele>509</ele>
        <time>2019-02-11T21:29:02Z</time>
      </trkpt>
      <trkpt lat="46.4" lon="5.65675">
        <ele>509</ele>
        <time>2019-02-11T21:30:02Z</time>
      </trkpt>
      <trkpt lat="46.39994" lon="5.65694">
        <ele>509</ele>
        <time>2019-02-11T21:31:02Z</time>
      </trkpt>
      <trkpt lat="46.39988" lon="5.65717">
        <ele>509</ele>
        <time>2019-02-11T21:32:02Z</time>
      </trkpt>
      <trkpt lat="46.39983" lon="5.65741">
        <ele>508</ele>
        <time>2019-02-11T21:33:02Z</time>
      </trkpt>
      <trkpt lat="46.39978" lon="5.65759">
        <ele>508</ele>
        <time>2019-02-11T21:34:02Z</time>
      </trkpt>
      <trkpt lat="46.3997" lon="5.65776">
        <ele>507</ele>
        <time>2019-02-11T21:35:02Z</time>
      </trkpt>
      <trkpt lat="46.39962" lon="5.65789">
        <ele>506</ele>
        <time>2019-02-11T21:36:02Z</time>
      </trkpt>
      <trkpt lat="46.39952" lon="5.65803">
        <ele>505</ele>
        <time>2019-02-11T21:37:02Z</time>
      </trkpt>
      <trkpt lat="46.39942" lon="5.65816">
        <ele>505</ele>
        <time>2019-02-11T21:38:02Z</time>
      </trkpt>
      <trkpt lat="46.3993" lon="5.65829">
        <ele>504</ele>
        <time>2019-02-11T21:39:02Z</time>
      </trkpt>
      <trkpt lat="46.39919" lon="5.6584">
        <ele>503</ele>
        <time>2019-02-11T21:40:02Z</time>
      </trkpt>
      <trkpt lat="46.39909" lon="5.65849">
        <ele>501</ele>
        <time>2019-02-11T21:41:02Z</time>
      </trkpt>
      <trkpt lat="46.39894" lon="5.65863">
        <ele>499</ele>
        <time>2019-02-11T21:42:02Z</time>
      </trkpt>
      <trkpt lat="46.39882" lon="5.65877">
        <ele>497</ele>
        <time>2019-02-11T21:43:02Z</time>
      </trkpt>
      <trkpt lat="46.39871" lon="5.65898">
        <ele>495</ele>
        <time>2019-02-11T21:44:02Z</time>
      </trkpt>
      <trkpt lat="46.39867" lon="5.65914">
        <ele>493</ele>
        <time>2019-02-11T21:45:02Z</time>
      </trkpt>
      <trkpt lat="46.39863" lon="5.65937">
        <ele>492</ele>
        <time>2019-02-11T21:46:02Z</time>
      </trkpt>
      <trkpt lat="46.3986" lon="5.6596">
        <ele>491</ele>
        <time>2019-02-11T21:47:02Z</time>
      </trkpt>
      <trkpt lat="46.39859" lon="5.65972">
        <ele>490</ele>
        <time>2019-02-11T21:48:02Z</time>
      </trkpt>
      <trkpt lat="46.39857" lon="5.65995">
        <ele>489</ele>
        <time>2019-02-11T21:49:02Z</time>
      </trkpt>
      <trkpt lat="46.39855" lon="5.66023">
        <ele>489</ele>
        <time>2019-02-11T21:50:02Z</time>
      </trkpt>
      <trkpt lat="46.39853" lon="5.66048">
        <ele>488</ele>
        <time>2019-02-11T21:51:02Z</time>
      </trkpt>
      <trkpt lat="46.39853" lon="5.66066">
        <ele>488</ele>
        <time>2019-02-11T21:52:02Z</time>
      </trkpt>
      <trkpt lat="46.39853" lon="5.66092">
        <ele>488</ele>
        <time>2019-02-11T21:53:02Z</time>
      </trkpt>
      <trkpt lat="46.39855" lon="5.66111">
        <ele>489</ele>
        <time>2019-02-11T21:54:02Z</time>
      </trkpt>
      <trkpt lat="46.39858" lon="5.66132">
        <ele>491</ele>
        <time>2019-02-11T21:55:02Z</time>
      </trkpt>
      <trkpt lat="46.39864" lon="5.66152">
        <ele>493</ele>
        <time>2019-02-11T21:56:02Z</time>
      </trkpt>
      <trkpt lat="46.39871" lon="5.66173">
        <ele>494</ele>
        <time>2019-02-11T21:57:02Z</time>
      </trkpt>
      <trkpt lat="46.39879" lon="5.66191">
        <ele>495</ele>
        <time>2019-02-11T21:58:02Z</time>
      </trkpt>
      <trkpt lat="46.39889" lon="5.66209">
        <ele>495</ele>
        <time>2019-02-11T21:59:02Z</time>
      </trkpt>
      <trkpt lat="46.39898" lon="5.66226">
        <ele>496</ele>
        <time>2019-02-11T22:00:02Z</time>
      </trkpt>
      <trkpt lat="46.39906" lon="5.66243">
        <ele>496</ele>
        <time>2019-02-11T22:01:02Z</time>
      </trkpt>
      <trkpt lat="46.39915" lon="5.66268">
        <ele>495</ele>
        <time>2019-02-11T22:02:02Z</time>
      </trkpt>
      <trkpt lat="46.39925" lon="5.66292">
        <ele>494</ele>
        <time>2019-02-11T22:03:02Z</time>
      </trkpt>
      <trkpt lat="46.39925" lon="5.66293">
        <ele>494</ele>
        <time>2019-02-11T22:04:02Z</time>
      </trkpt>
      <trkpt lat="46.39933" lon="5.66311">
        <ele>494</ele>
        <time>2019-02-11T22:05:02Z</time>
      </trkpt>
      <trkpt lat="46.39958" lon="5.66368">
        <ele>490</ele>
        <time>2019-02-11T22:06:02Z</time>
      </trkpt>
      <trkpt lat="46.39977" lon="5.66407">
        <ele>489</ele>
        <time>2019-02-11T22:07:02Z</time>
      </trkpt>
      <trkpt lat="46.39985" lon="5.66424">
        <ele>488</ele>
        <time>2019-02-11T22:08:02Z</time>
      </trkpt>
      <trkpt lat="46.39992" lon="5.66437">
        <ele>488</ele>
        <time>2019-02-11T22:09:02Z</time>
      </trkpt>
      <trkpt lat="46.40014" lon="5.66472">
        <ele>488</ele>
        <time>2019-02-11T22:10:02Z</time>
      </trkpt>
      <trkpt lat="46.40025" lon="5.66489">
        <ele>488</ele>
        <time>2019-02-11T22:11:02Z</time>
      </trkpt>
      <trkpt lat="46.40039" lon="5.66509">
        <ele>489</ele>
        <time>2019-02-11T22:12:02Z</time>
      </trkpt>
      <trkpt lat="46.40052" lon="5.66528">
        <ele>489</ele>
        <time>2019-02-11T22:13:02Z</time>
      </trkpt>
      <trkpt lat="46.40064" lon="5.66546">
        <ele>491</ele>
        <time>2019-02-11T22:14:02Z</time>
      </trkpt>
      <trkpt lat="46.40074" lon="5.66561">
        <ele>492</ele>
        <time>2019-02-11T22:15:02Z</time>
      </trkpt>
      <trkpt lat="46.40133" lon="5.66648">
        <ele>485</ele>
        <time>2019-02-11T22:16:02Z</time>
      </trkpt>
      <trkpt lat="46.40149" lon="5.66673">
        <ele>483</ele>
        <time>2019-02-11T22:17:02Z</time>
      </trkpt>
      <trkpt lat="46.40178" lon="5.66716">
        <ele>482</ele>
        <time>2019-02-11T22:18:02Z</time>
      </trkpt>
      <trkpt lat="46.40204" lon="5.66753">
        <ele>483</ele>
        <time>2019-02-11T22:19:02Z</time>
      </trkpt>
      <trkpt lat="46.40216" lon="5.66768">
        <ele>483</ele>
        <time>2019-02-11T22:20:02Z</time>
      </trkpt>
      <trkpt lat="46.40228" lon="5.66778">
        <ele>484</ele>
        <time>2019-02-11T22:21:02Z</time>
      </trkpt>
      <trkpt lat="46.40241" lon="5.66786">
        <ele>485</ele>
        <time>2019-02-11T22:22:02Z</time>
      </trkpt>
      <trkpt lat="46.40253" lon="5.66793">
        <ele>487</ele>
        <time>2019-02-11T22:23:02Z</time>
      </trkpt>
      <trkpt lat="46.40264" lon="5.66796">
        <ele>487</ele>
        <time>2019-02-11T22:24:02Z</time>
      </trkpt>
      <trkpt lat="46.40265" lon="5.66797">
        <ele>487</ele>
        <time>2019-02-11T22:25:02Z</time>
      </trkpt>
      <trkpt lat="46.40266" lon="5.66797">
        <ele>487</ele>
        <time>2019-02-11T22:26:02Z</time>
      </trkpt>
      <trkpt lat="46.40279" lon="5.66797">
        <ele>488</ele>
        <time>2019-02-11T22:27:02Z</time>
      </trkpt>
      <trkpt lat="46.40293" lon="5.66798">
        <ele>489</ele>
        <time>2019-02-11T22:28:02Z</time>
      </trkpt>
      <trkpt lat="46.40304" lon="5.668">
        <ele>490</ele>
        <time>2019-02-11T22:29:02Z</time>
      </trkpt>
      <trkpt lat="46.40306" lon="5.66801">
        <ele>490</ele>
        <time>2019-02-11T22:30:02Z</time>
      </trkpt>
      <trkpt lat="46.40314" lon="5.66806">
        <ele>490</ele>
        <time>2019-02-11T22:31:02Z</time>
      </trkpt>
      <trkpt lat="46.40323" lon="5.66818">
        <ele>490</ele>
        <time>2019-02-11T22:32:02Z</time>
      </trkpt>
      <trkpt lat="46.40326" lon="5.66826">
        <ele>490</ele>
        <time>2019-02-11T22:33:02Z</time>
      </trkpt>
      <trkpt lat="46.40329" lon="5.66835">
        <ele>489</ele>
        <time>2019-02-11T22:34:02Z</time>
      </trkpt>
      <trkpt lat="46.4033" lon="5.66843">
        <ele>488</ele>
        <time>2019-02-11T22:35:02Z</time>
      </trkpt>
      <trkpt lat="46.40329" lon="5.66851">
        <ele>487</ele>
        <time>2019-02-11T22:36:02Z</time>
      </trkpt>
      <trkpt lat="46.40328" lon="5.6686">
        <ele>486</ele>
        <time>2019-02-11T22:37:02Z</time>
      </trkpt>
      <trkpt lat="46.40326" lon="5.66867">
        <ele>485</ele>
        <time>2019-02-11T22:38:02Z</time>
      </trkpt>
      <trkpt lat="46.40323" lon="5.66875">
        <ele>483</ele>
        <time>2019-02-11T22:39:02Z</time>
      </trkpt>
      <trkpt lat="46.4032" lon="5.66881">
        <ele>482</ele>
        <time>2019-02-11T22:40:02Z</time>
      </trkpt>
      <trkpt lat="46.40317" lon="5.66886">
        <ele>481</ele>
        <time>2019-02-11T22:41:02Z</time>
      </trkpt>
      <trkpt lat="46.40309" lon="5.66892">
        <ele>478</ele>
        <time>2019-02-11T22:42:02Z</time>
      </trkpt>
      <trkpt lat="46.40304" lon="5.66894">
        <ele>477</ele>
        <time>2019-02-11T22:43:02Z</time>
      </trkpt>
      <trkpt lat="46.40299" lon="5.66896">
        <ele>476</ele>
        <time>2019-02-11T22:44:02Z</time>
      </trkpt>
      <trkpt lat="46.40285" lon="5.66893">
        <ele>474</ele>
        <time>2019-02-11T22:45:02Z</time>
      </trkpt>
      <trkpt lat="46.40272" lon="5.66885">
        <ele>473</ele>
        <time>2019-02-11T22:46:02Z</time>
      </trkpt>
      <trkpt lat="46.40261" lon="5.66875">
        <ele>473</ele>
        <time>2019-02-11T22:47:02Z</time>
      </trkpt>
      <trkpt lat="46.4025" lon="5.66863">
        <ele>474</ele>
        <time>2019-02-11T22:48:02Z</time>
      </trkpt>
      <trkpt lat="46.40235" lon="5.6685">
        <ele>473</ele>
        <time>2019-02-11T22:49:02Z</time>
      </trkpt>
      <trkpt lat="46.40221" lon="5.66835">
        <ele>472</ele>
        <time>2019-02-11T22:50:02Z</time>
      </trkpt>
      <trkpt lat="46.40134" lon="5.6674">
        <ele>467</ele>
        <time>2019-02-11T22:51:02Z</time>
      </trkpt>
      <trkpt lat="46.40119" lon="5.66724">
        <ele>466</ele>
        <time>2019-02-11T22:52:02Z</time>
      </trkpt>
      <trkpt lat="46.40092" lon="5.66695">
        <ele>467</ele>
        <time>2019-02-11T22:53:02Z</time>
      </trkpt>
      <trkpt lat="46.40062" lon="5.66663">
        <ele>466</ele>
        <time>2019-02-11T22:54:02Z</time>
      </trkpt>
      <trkpt lat="46.40043" lon="5.66644">
        <ele>464</ele>
        <time>2019-02-11T22:55:02Z</time>
      </trkpt>
      <trkpt lat="46.40027" lon="5.66627">
        <ele>463</ele>
        <time>2019-02-11T23:04:02Z</time>
      </trkpt>
      <trkpt lat="46.40015" lon="5.66615">
        <ele>461</ele>
        <time>2019-02-11T23:05:02Z</time>
      </trkpt>
      <trkpt lat="46.39998" lon="5.66601">
        <ele>458</ele>
        <time>2019-02-11T23:06:02Z</time>
      </trkpt>
      <trkpt lat="46.39984" lon="5.66589">
        <ele>456</ele>
        <time>2019-02-11T23:07:02Z</time>
      </trkpt>
      <trkpt lat="46.39971" lon="5.66574">
        <ele>454</ele>
        <time>2019-02-11T23:08:02Z</time>
      </trkpt>
      <trkpt lat="46.39961" lon="5.66559">
        <ele>454</ele>
        <time>2019-02-11T23:09:02Z</time>
      </trkpt>
      <trkpt lat="46.39949" lon="5.6654">
        <ele>453</ele>
        <time>2019-02-11T23:10:02Z</time>
      </trkpt>
      <trkpt lat="46.39939" lon="5.66524">
        <ele>452</ele>
        <time>2019-02-11T23:11:02Z</time>
      </trkpt>
      <trkpt lat="46.39928" lon="5.66504">
        <ele>450</ele>
        <time>2019-02-11T23:12:02Z</time>
      </trkpt>
      <trkpt lat="46.39918" lon="5.66487">
        <ele>450</ele>
        <time>2019-02-11T23:13:02Z</time>
      </trkpt>
      <trkpt lat="46.39907" lon="5.66471">
        <ele>451</ele>
        <time>2019-02-11T23:14:02Z</time>
      </trkpt>
      <trkpt lat="46.39896" lon="5.66454">
        <ele>452</ele>
        <time>2019-02-11T23:15:02Z</time>
      </trkpt>
      <trkpt lat="46.39883" lon="5.66435">
        <ele>451</ele>
        <time>2019-02-11T23:16:02Z</time>
      </trkpt>
      <trkpt lat="46.39868" lon="5.66414">
        <ele>449</ele>
        <time>2019-02-11T23:17:02Z</time>
      </trkpt>
      <trkpt lat="46.39854" lon="5.66395">
        <ele>448</ele>
        <time>2019-02-11T23:18:02Z</time>
      </trkpt>
      <trkpt lat="46.39838" lon="5.66377">
        <ele>446</ele>
        <time>2019-02-11T23:19:02Z</time>
      </trkpt>
      <trkpt lat="46.39822" lon="5.66359">
        <ele>445</ele>
        <time>2019-02-11T23:20:02Z</time>
      </trkpt>
      <trkpt lat="46.39803" lon="5.66338">
        <ele>442</ele>
        <time>2019-02-11T23:21:02Z</time>
      </trkpt>
      <trkpt lat="46.39772" lon="5.66305">
        <ele>441</ele>
        <time>2019-02-11T23:22:02Z</time>
      </trkpt>
      <trkpt lat="46.39739" lon="5.66272">
        <ele>438</ele>
        <time>2019-02-11T23:23:02Z</time>
      </trkpt>
      <trkpt lat="46.39717" lon="5.6625">
        <ele>435</ele>
        <time>2019-02-11T23:24:02Z</time>
      </trkpt>
      <trkpt lat="46.39704" lon="5.66239">
        <ele>429</ele>
        <time>2019-02-11T23:25:02Z</time>
      </trkpt>
      <trkpt lat="46.39692" lon="5.66229">
        <ele>424</ele>
        <time>2019-02-11T23:26:02Z</time>
      </trkpt>
      <trkpt lat="46.39688" lon="5.66224">
        <ele>422</ele>
        <time>2019-02-11T23:27:02Z</time>
      </trkpt>
      <trkpt lat="46.39682" lon="5.66215">
        <ele>421</ele>
        <time>2019-02-11T23:28:02Z</time>
      </trkpt>
      <trkpt lat="46.39675" lon="5.66199">
        <ele>420</ele>
        <time>2019-02-11T23:29:02Z</time>
      </trkpt>
      <trkpt lat="46.39671" lon="5.66183">
        <ele>421</ele>
        <time>2019-02-11T23:30:02Z</time>
      </trkpt>
      <trkpt lat="46.39669" lon="5.66164">
        <ele>423</ele>
        <time>2019-02-11T23:31:02Z</time>
      </trkpt>
      <trkpt lat="46.39669" lon="5.66118">
        <ele>424</ele>
        <time>2019-02-11T23:32:02Z</time>
      </trkpt>
      <trkpt lat="46.39667" lon="5.66098">
        <ele>423</ele>
        <time>2019-02-11T23:33:02Z</time>
      </trkpt>
      <trkpt lat="46.39661" lon="5.66079">
        <ele>422</ele>
        <time>2019-02-11T23:34:02Z</time>
      </trkpt>
      <trkpt lat="46.39657" lon="5.66068">
        <ele>422</ele>
        <time>2019-02-11T23:35:02Z</time>
      </trkpt>
      <trkpt lat="46.39652" lon="5.66059">
        <ele>422</ele>
        <time>2019-02-11T23:36:02Z</time>
      </trkpt>
      <trkpt lat="46.39639" lon="5.66038">
        <ele>421</ele>
        <time>2019-02-11T23:37:02Z</time>
      </trkpt>
      <trkpt lat="46.39598" lon="5.65978">
        <ele>416</ele>
        <time>2019-02-11T23:38:02Z</time>
      </trkpt>
      <trkpt lat="46.39583" lon="5.65957">
        <ele>415</ele>
        <time>2019-02-11T23:39:02Z</time>
      </trkpt>
      <trkpt lat="46.39571" lon="5.65939">
        <ele>414</ele>
        <time>2019-02-11T23:40:02Z</time>
      </trkpt>
      <trkpt lat="46.39558" lon="5.65919">
        <ele>413</ele>
        <time>2019-02-11T23:41:02Z</time>
      </trkpt>
      <trkpt lat="46.39546" lon="5.659">
        <ele>411</ele>
        <time>2019-02-11T23:42:02Z</time>
      </trkpt>
      <trkpt lat="46.39538" lon="5.65884">
        <ele>409</ele>
        <time>2019-02-11T23:43:02Z</time>
      </trkpt>
      <trkpt lat="46.39532" lon="5.65869">
        <ele>408</ele>
        <time>2019-02-11T23:44:02Z</time>
      </trkpt>
      <trkpt lat="46.39527" lon="5.65852">
        <ele>408</ele>
        <time>2019-02-11T23:45:02Z</time>
      </trkpt>
      <trkpt lat="46.39522" lon="5.65831">
        <ele>408</ele>
        <time>2019-02-11T23:46:02Z</time>
      </trkpt>
      <trkpt lat="46.3951" lon="5.6578">
        <ele>405</ele>
        <time>2019-02-11T23:47:02Z</time>
      </trkpt>
      <trkpt lat="46.39504" lon="5.65756">
        <ele>404</ele>
        <time>2019-02-11T23:48:02Z</time>
      </trkpt>
      <trkpt lat="46.39498" lon="5.65732">
        <ele>402</ele>
        <time>2019-02-11T23:49:02Z</time>
      </trkpt>
      <trkpt lat="46.39494" lon="5.6571">
        <ele>401</ele>
        <time>2019-02-11T23:50:02Z</time>
      </trkpt>
      <trkpt lat="46.39492" lon="5.6569">
        <ele>400</ele>
        <time>2019-02-11T23:51:02Z</time>
      </trkpt>
      <trkpt lat="46.39492" lon="5.65671">
        <ele>400</ele>
        <time>2019-02-11T23:52:02Z</time>
      </trkpt>
      <trkpt lat="46.39494" lon="5.65647">
        <ele>401</ele>
        <time>2019-02-11T23:53:02Z</time>
      </trkpt>
      <trkpt lat="46.39496" lon="5.65619">
        <ele>401</ele>
        <time>2019-02-11T23:54:02Z</time>
      </trkpt>
      <trkpt lat="46.39497" lon="5.65591">
        <ele>401</ele>
        <time>2019-02-11T23:55:02Z</time>
      </trkpt>
      <trkpt lat="46.39497" lon="5.65567">
        <ele>401</ele>
        <time>2019-02-11T23:56:02Z</time>
      </trkpt>
      <trkpt lat="46.39495" lon="5.65547">
        <ele>400</ele>
        <time>2019-02-11T23:57:02Z</time>
      </trkpt>
      <trkpt lat="46.39491" lon="5.65514">
        <ele>398</ele>
        <time>2019-02-11T23:58:02Z</time>
      </trkpt>
      <trkpt lat="46.39487" lon="5.65476">
        <ele>397</ele>
        <time>2019-02-11T23:59:02Z</time>
      </trkpt>
      <trkpt lat="46.39483" lon="5.65443">
        <ele>397</ele>
        <time>2019-02-12T00:00:02Z</time>
      </trkpt>
      <trkpt lat="46.3948" lon="5.65407">
        <ele>397</ele>
        <time>2019-02-12T00:08:02Z</time>
      </trkpt>
      <trkpt lat="46.39476" lon="5.65375">
        <ele>395</ele>
        <time>2019-02-12T00:48:02Z</time>
      </trkpt>
      <trkpt lat="46.39472" lon="5.65343">
        <ele>394</ele>
        <time>2019-02-12T00:49:02Z</time>
      </trkpt>
      <trkpt lat="46.39469" lon="5.65314">
        <ele>393</ele>
        <time>2019-02-12T00:50:02Z</time>
      </trkpt>
      <trkpt lat="46.39466" lon="5.65287">
        <ele>392</ele>
        <time>2019-02-12T00:51:02Z</time>
      </trkpt>
      <trkpt lat="46.39461" lon="5.65253">
        <ele>390</ele>
        <time>2019-02-12T00:52:02Z</time>
      </trkpt>
      <trkpt lat="46.39456" lon="5.65224">
        <ele>389</ele>
        <time>2019-02-12T00:53:02Z</time>
      </trkpt>
      <trkpt lat="46.39451" lon="5.65203">
        <ele>389</ele>
        <time>2019-02-12T00:54:02Z</time>
      </trkpt>
      <trkpt lat="46.39444" lon="5.65182">
        <ele>387</ele>
        <time>2019-02-12T00:55:02Z</time>
      </trkpt>
      <trkpt lat="46.39438" lon="5.65163">
        <ele>385</ele>
        <time>2019-02-12T00:56:02Z</time>
      </trkpt>
      <trkpt lat="46.39431" lon="5.65146">
        <ele>383</ele>
        <time>2019-02-12T00:57:02Z</time>
      </trkpt>
      <trkpt lat="46.39424" lon="5.6513">
        <ele>381</ele>
        <time>2019-02-12T00:58:02Z</time>
      </trkpt>
      <trkpt lat="46.39423" lon="5.65127">
        <ele>381</ele>
        <time>2019-02-12T00:59:02Z</time>
      </trkpt>
      <trkpt lat="46.39416" lon="5.65114">
        <ele>379</ele>
        <time>2019-02-12T01:02:02Z</time>
      </trkpt>
      <trkpt lat="46.39403" lon="5.65086">
        <ele>378</ele>
        <time>2019-02-12T01:03:02Z</time>
      </trkpt>
      <trkpt lat="46.39391" lon="5.65062">
        <ele>376</ele>
        <time>2019-02-12T01:04:02Z</time>
      </trkpt>
      <trkpt lat="46.39378" lon="5.65036">
        <ele>375</ele>
        <time>2019-02-12T01:05:02Z</time>
      </trkpt>
      <trkpt lat="46.39352" lon="5.64982">
        <ele>371</ele>
        <time>2019-02-12T01:06:02Z</time>
      </trkpt>
      <trkpt lat="46.39318" lon="5.6491">
        <ele>368</ele>
        <time>2019-02-12T01:07:02Z</time>
      </trkpt>
      <trkpt lat="46.39295" lon="5.64864">
        <ele>368</ele>
        <time>2019-02-12T01:08:02Z</time>
      </trkpt>
      <trkpt lat="46.39262" lon="5.64795">
        <ele>365</ele>
        <time>2019-02-12T01:09:02Z</time>
      </trkpt>
      <trkpt lat="46.39252" lon="5.64775">
        <ele>364</ele>
        <time>2019-02-12T01:10:02Z</time>
      </trkpt>
      <trkpt lat="46.39246" lon="5.64761">
        <ele>365</ele>
        <time>2019-02-12T01:11:02Z</time>
      </trkpt>
      <trkpt lat="46.39239" lon="5.64741">
        <ele>365</ele>
        <time>2019-02-12T01:12:02Z</time>
      </trkpt>
      <trkpt lat="46.39235" lon="5.64729">
        <ele>365</ele>
        <time>2019-02-12T01:13:02Z</time>
      </trkpt>
      <trkpt lat="46.3923" lon="5.6471">
        <ele>365</ele>
        <time>2019-02-12T01:14:02Z</time>
      </trkpt>
      <trkpt lat="46.39223" lon="5.64681">
        <ele>365</ele>
        <time>2019-02-12T01:15:02Z</time>
      </trkpt>
      <trkpt lat="46.39215" lon="5.64655">
        <ele>365</ele>
        <time>2019-02-12T01:16:02Z</time>
      </trkpt>
      <trkpt lat="46.39207" lon="5.64636">
        <ele>365</ele>
        <time>2019-02-12T01:17:02Z</time>
      </trkpt>
      <trkpt lat="46.39197" lon="5.64618">
        <ele>365</ele>
        <time>2019-02-12T01:19:02Z</time>
      </trkpt>
      <trkpt lat="46.39183" lon="5.64601">
        <ele>364</ele>
        <time>2019-02-12T01:20:02Z</time>
      </trkpt>
      <trkpt lat="46.3917" lon="5.64589">
        <ele>363</ele>
        <time>2019-02-12T01:21:02Z</time>
      </trkpt>
      <trkpt lat="46.39149" lon="5.64576">
        <ele>362</ele>
        <time>2019-02-12T01:22:02Z</time>
      </trkpt>
      <trkpt lat="46.3913" lon="5.64568">
        <ele>361</ele>
        <time>2019-02-12T01:23:02Z</time>
      </trkpt>
      <trkpt lat="46.39057" lon="5.64535">
        <ele>359</ele>
        <time>2019-02-12T01:24:02Z</time>
      </trkpt>
      <trkpt lat="46.39035" lon="5.64526">
        <ele>359</ele>
        <time>2019-02-12T01:25:02Z</time>
      </trkpt>
      <trkpt lat="46.39015" lon="5.64517">
        <ele>359</ele>
        <time>2019-02-12T01:26:02Z</time>
      </trkpt>
      <trkpt lat="46.39008" lon="5.64514">
        <ele>359</ele>
        <time>2019-02-12T01:27:02Z</time>
      </trkpt>
      <trkpt lat="46.38999" lon="5.64511">
        <ele>359</ele>
        <time>2019-02-12T01:28:02Z</time>
      </trkpt>
      <trkpt lat="46.38981" lon="5.64506">
        <ele>359</ele>
        <time>2019-02-12T01:29:02Z</time>
      </trkpt>
      <trkpt lat="46.38967" lon="5.64503">
        <ele>359</ele>
        <time>2019-02-12T01:30:02Z</time>
      </trkpt>
      <trkpt lat="46.38955" lon="5.64501">
        <ele>358</ele>
        <time>2019-02-12T01:31:02Z</time>
      </trkpt>
      <trkpt lat="46.38857" lon="5.64489">
        <ele>357</ele>
        <time>2019-02-12T01:32:02Z</time>
      </trkpt>
      <trkpt lat="46.38857" lon="5.64489">
        <ele>357</ele>
        <time>2019-02-12T01:33:02Z</time>
      </trkpt>
      <trkpt lat="46.38858" lon="5.64505">
        <ele>356</ele>
        <time>2019-02-12T01:34:02Z</time>
      </trkpt>
      <trkpt lat="46.38861" lon="5.64521">
        <ele>356</ele>
        <time>2019-02-12T01:35:02Z</time>
      </trkpt>
      <trkpt lat="46.38862" lon="5.64533">
        <ele>356</ele>
        <time>2019-02-12T01:36:02Z</time>
      </trkpt>
      <trkpt lat="46.38864" lon="5.64557">
        <ele>355</ele>
        <time>2019-02-12T01:37:02Z</time>
      </trkpt>
      <trkpt lat="46.38866" lon="5.64569">
        <ele>355</ele>
        <time>2019-02-12T01:38:02Z</time>
      </trkpt>
      <trkpt lat="46.38868" lon="5.64577">
        <ele>355</ele>
        <time>2019-02-12T01:39:02Z</time>
      </trkpt>
      <trkpt lat="46.38873" lon="5.64593">
        <ele>355</ele>
        <time>2019-02-12T01:40:02Z</time>
      </trkpt>
      <trkpt lat="46.38877" lon="5.64612">
        <ele>356</ele>
        <time>2019-02-12T01:41:02Z</time>
      </trkpt>
      <trkpt lat="46.3888" lon="5.64628">
        <ele>356</ele>
        <time>2019-02-12T01:42:02Z</time>
      </trkpt>
      <trkpt lat="46.38883" lon="5.64645">
        <ele>356</ele>
        <time>2019-02-12T01:43:02Z</time>
      </trkpt>
      <trkpt lat="46.38884" lon="5.64665">
        <ele>356.2</ele>
        <time>2019-02-12T01:44:02Z</time>
      </trkpt>
      <trkpt lat="46.38887" lon="5.6469">
        <ele>356.3</ele>
        <time>2019-02-12T01:45:02Z</time>
      </trkpt>
      <trkpt lat="46.38887" lon="5.64714">
        <ele>356.3</ele>
        <time>2019-02-12T01:46:02Z</time>
      </trkpt>
      <trkpt lat="46.38887" lon="5.6473">
        <ele>356.3</ele>
        <time>2019-02-12T01:47:02Z</time>
      </trkpt>
      <trkpt lat="46.3888" lon="5.64748">
        <ele>356.2</ele>
        <time>2019-02-12T01:48:02Z</time>
      </trkpt>
      <trkpt lat="46.38869" lon="5.64774">
        <ele>356</ele>
        <time>2019-02-12T01:49:02Z</time>
      </trkpt>
      <trkpt lat="46.38861" lon="5.64786">
        <ele>355</ele>
        <time>2019-02-12T01:50:02Z</time>
      </trkpt>
      <trkpt lat="46.38854" lon="5.64795">
        <ele>355</ele>
        <time>2019-02-12T01:51:02Z</time>
      </trkpt>
      <trkpt lat="46.3885" lon="5.64802">
        <ele>355</ele>
        <time>2019-02-12T01:52:02Z</time>
      </trkpt>
      <trkpt lat="46.38842" lon="5.64819">
        <ele>354</ele>
        <time>2019-02-12T01:53:02Z</time>
      </trkpt>
      <trkpt lat="46.38835" lon="5.64835">
        <ele>353</ele>
        <time>2019-02-12T01:54:02Z</time>
      </trkpt>
      <trkpt lat="46.38829" lon="5.64845">
        <ele>352</ele>
        <time>2019-02-12T01:55:02Z</time>
      </trkpt>
      <trkpt lat="46.38822" lon="5.64854">
        <ele>352</ele>
        <time>2019-02-12T02:03:02Z</time>
      </trkpt>
      <trkpt lat="46.38815" lon="5.64859">
        <ele>351</ele>
        <time>2019-02-12T02:04:02Z</time>
      </trkpt>
      <trkpt lat="46.38807" lon="5.64863">
        <ele>350</ele>
        <time>2019-02-12T02:05:02Z</time>
      </trkpt>
      <trkpt lat="46.38798" lon="5.64866">
        <ele>349</ele>
        <time>2019-02-12T02:06:02Z</time>
      </trkpt>
      <trkpt lat="46.38791" lon="5.6487">
        <ele>349</ele>
        <time>2019-02-12T02:07:02Z</time>
      </trkpt>
      <trkpt lat="46.38784" lon="5.64874">
        <ele>348</ele>
        <time>2019-02-12T02:08:02Z</time>
      </trkpt>
      <trkpt lat="46.38778" lon="5.6488">
        <ele>347</ele>
        <time>2019-02-12T02:09:02Z</time>
      </trkpt>
      <trkpt lat="46.38772" lon="5.64887">
        <ele>347</ele>
        <time>2019-02-12T02:10:02Z</time>
      </trkpt>
      <trkpt lat="46.38767" lon="5.64897">
        <ele>346</ele>
        <time>2019-02-12T02:21:02Z</time>
      </trkpt>
      <trkpt lat="46.38762" lon="5.64909">
        <ele>345</ele>
        <time>2019-02-12T02:22:02Z</time>
      </trkpt>
      <trkpt lat="46.38758" lon="5.64925">
        <ele>344</ele>
        <time>2019-02-12T02:23:02Z</time>
      </trkpt>
      <trkpt lat="46.38755" lon="5.64943">
        <ele>343</ele>
        <time>2019-02-12T02:24:02Z</time>
      </trkpt>
      <trkpt lat="46.38753" lon="5.64975">
        <ele>342</ele>
        <time>2019-02-12T02:25:02Z</time>
      </trkpt>
      <trkpt lat="46.38752" lon="5.64988">
        <ele>341</ele>
        <time>2019-02-12T02:26:02Z</time>
      </trkpt>
      <trkpt lat="46.38754" lon="5.65">
        <ele>340</ele>
        <time>2019-02-12T02:27:02Z</time>
      </trkpt>
      <trkpt lat="46.38755" lon="5.65015">
        <ele>340</ele>
        <time>2019-02-12T02:28:02Z</time>
      </trkpt>
      <trkpt lat="46.38758" lon="5.65023">
        <ele>339</ele>
        <time>2019-02-12T02:29:02Z</time>
      </trkpt>
      <trkpt lat="46.38764" lon="5.65031">
        <ele>339</ele>
        <time>2019-02-12T02:30:02Z</time>
      </trkpt>
      <trkpt lat="46.3877" lon="5.65036">
        <ele>339</ele>
        <time>2019-02-12T02:31:02Z</time>
      </trkpt>
      <trkpt lat="46.38778" lon="5.65041">
        <ele>340</ele>
        <time>2019-02-12T02:32:02Z</time>
      </trkpt>
      <trkpt lat="46.38795" lon="5.65047">
        <ele>340</ele>
        <time>2019-02-12T02:33:02Z</time>
      </trkpt>
      <trkpt lat="46.38816" lon="5.65055">
        <ele>341</ele>
        <time>2019-02-12T02:34:02Z</time>
      </trkpt>
      <trkpt lat="46.38835" lon="5.65064">
        <ele>341</ele>
        <time>2019-02-12T02:35:02Z</time>
      </trkpt>
      <trkpt lat="46.38853" lon="5.65074">
        <ele>342</ele>
        <time>2019-02-12T02:36:02Z</time>
      </trkpt>
      <trkpt lat="46.38865" lon="5.65082">
        <ele>342</ele>
        <time>2019-02-12T02:37:02Z</time>
      </trkpt>
      <trkpt lat="46.38875" lon="5.65089">
        <ele>343</ele>
        <time>2019-02-12T02:38:02Z</time>
      </trkpt>
      <trkpt lat="46.3888" lon="5.65095">
        <ele>343</ele>
        <time>2019-02-12T02:39:02Z</time>
      </trkpt>
      <trkpt lat="46.38886" lon="5.65107">
        <ele>343</ele>
        <time>2019-02-12T02:40:02Z</time>
      </trkpt>
      <trkpt lat="46.38889" lon="5.65115">
        <ele>343</ele>
        <time>2019-02-12T02:41:02Z</time>
      </trkpt>
      <trkpt lat="46.38893" lon="5.65125">
        <ele>342</ele>
        <time>2019-02-12T02:42:02Z</time>
      </trkpt>
      <trkpt lat="46.38901" lon="5.65146">
        <ele>342</ele>
        <time>2019-02-12T02:43:02Z</time>
      </trkpt>
      <trkpt lat="46.38912" lon="5.65171">
        <ele>341</ele>
        <time>2019-02-12T02:44:02Z</time>
      </trkpt>
      <trkpt lat="46.3893" lon="5.65203">
        <ele>342</ele>
        <time>2019-02-12T02:45:02Z</time>
      </trkpt>
      <trkpt lat="46.38941" lon="5.65218">
        <ele>342</ele>
        <time>2019-02-12T02:46:02Z</time>
      </trkpt>
      <trkpt lat="46.38951" lon="5.65233">
        <ele>343</ele>
        <time>2019-02-12T02:47:02Z</time>
      </trkpt>
      <trkpt lat="46.38957" lon="5.65247">
        <ele>343</ele>
        <time>2019-02-12T02:48:02Z</time>
      </trkpt>
      <trkpt lat="46.38959" lon="5.65254">
        <ele>343</ele>
        <time>2019-02-12T02:49:02Z</time>
      </trkpt>
      <trkpt lat="46.38961" lon="5.65262">
        <ele>343</ele>
        <time>2019-02-12T02:50:02Z</time>
      </trkpt>
      <trkpt lat="46.38962" lon="5.65273">
        <ele>343</ele>
        <time>2019-02-12T02:51:02Z</time>
      </trkpt>
      <trkpt lat="46.38961" lon="5.65279">
        <ele>343</ele>
        <time>2019-02-12T02:52:02Z</time>
      </trkpt>
      <trkpt lat="46.3896" lon="5.65284">
        <ele>343</ele>
        <time>2019-02-12T02:53:02Z</time>
      </trkpt>
      <trkpt lat="46.38957" lon="5.6529">
        <ele>342</ele>
        <time>2019-02-12T02:54:02Z</time>
      </trkpt>
      <trkpt lat="46.38953" lon="5.65294">
        <ele>342</ele>
        <time>2019-02-12T02:55:02Z</time>
      </trkpt>
      <trkpt lat="46.38928" lon="5.65323">
        <ele>338</ele>
        <time>2019-02-12T02:56:02Z</time>
      </trkpt>
      <trkpt lat="46.38904" lon="5.65353">
        <ele>340</ele>
        <time>2019-02-12T02:57:02Z</time>
      </trkpt>
      <trkpt lat="46.38898" lon="5.65364">
        <ele>341</ele>
        <time>2019-02-12T02:58:02Z</time>
      </trkpt>
      <trkpt lat="46.38895" lon="5.65375">
        <ele>342</ele>
        <time>2019-02-12T02:59:02Z</time>
      </trkpt>
      <trkpt lat="46.38894" lon="5.65378">
        <ele>343</ele>
        <time>2019-02-12T03:00:02Z</time>
      </trkpt>
      <trkpt lat="46.38894" lon="5.65391">
        <ele>344</ele>
        <time>2019-02-12T03:01:02Z</time>
      </trkpt>
      <trkpt lat="46.38895" lon="5.654">
        <ele>344</ele>
        <time>2019-02-12T03:02:02Z</time>
      </trkpt>
      <trkpt lat="46.38898" lon="5.65409">
        <ele>344</ele>
        <time>2019-02-12T03:03:02Z</time>
      </trkpt>
      <trkpt lat="46.38905" lon="5.65445">
        <ele>349.3</ele>
        <time>2019-02-12T03:04:02Z</time>
      </trkpt>
      <trkpt lat="46.3891" lon="5.65463">
        <ele>350.7</ele>
        <time>2019-02-12T03:05:02Z</time>
      </trkpt>
      <trkpt lat="46.38918" lon="5.65495">
        <ele>349.6</ele>
        <time>2019-02-12T03:06:02Z</time>
      </trkpt>
      <trkpt lat="46.38925" lon="5.65516">
        <ele>350</ele>
        <time>2019-02-12T03:07:02Z</time>
      </trkpt>
      <trkpt lat="46.38933" lon="5.65542">
        <ele>350.5</ele>
        <time>2019-02-12T03:08:02Z</time>
      </trkpt>
      <trkpt lat="46.38938" lon="5.6556">
        <ele>354</ele>
        <time>2019-02-12T03:09:02Z</time>
      </trkpt>
      <trkpt lat="46.38943" lon="5.65582">
        <ele>352.2</ele>
        <time>2019-02-12T03:10:02Z</time>
      </trkpt>
      <trkpt lat="46.38952" lon="5.65614">
        <ele>354.5</ele>
        <time>2019-02-12T03:11:02Z</time>
      </trkpt>
      <trkpt lat="46.38956" lon="5.65639">
        <ele>354.9</ele>
        <time>2019-02-12T03:12:02Z</time>
      </trkpt>
      <trkpt lat="46.38963" lon="5.65673">
        <ele>357</ele>
        <time>2019-02-12T03:13:02Z</time>
      </trkpt>
      <trkpt lat="46.38966" lon="5.65695">
        <ele>357</ele>
        <time>2019-02-12T03:14:02Z</time>
      </trkpt>
      <trkpt lat="46.3897" lon="5.65714">
        <ele>357</ele>
        <time>2019-02-12T03:15:02Z</time>
      </trkpt>
      <trkpt lat="46.38966" lon="5.6575">
        <ele>357.3</ele>
        <time>2019-02-12T03:16:02Z</time>
      </trkpt>
      <trkpt lat="46.38963" lon="5.65777">
        <ele>359.8</ele>
        <time>2019-02-12T03:17:02Z</time>
      </trkpt>
      <trkpt lat="46.38962" lon="5.65812">
        <ele>360.8</ele>
        <time>2019-02-12T03:18:02Z</time>
      </trkpt>
      <trkpt lat="46.38959" lon="5.6584">
        <ele>363.8</ele>
        <time>2019-02-12T03:19:02Z</time>
      </trkpt>
      <trkpt lat="46.38966" lon="5.65867">
        <ele>364.1</ele>
        <time>2019-02-12T03:20:02Z</time>
      </trkpt>
      <trkpt lat="46.38975" lon="5.65895">
        <ele>364.8</ele>
        <time>2019-02-12T03:21:02Z</time>
      </trkpt>
      <trkpt lat="46.3898" lon="5.65924">
        <ele>366.4</ele>
        <time>2019-02-12T03:22:02Z</time>
      </trkpt>
      <trkpt lat="46.38983" lon="5.65949">
        <ele>366.6</ele>
        <time>2019-02-12T03:23:02Z</time>
      </trkpt>
      <trkpt lat="46.38983" lon="5.65968">
        <ele>366.7</ele>
        <time>2019-02-12T03:24:02Z</time>
      </trkpt>
      <trkpt lat="46.3898" lon="5.65992">
        <ele>366.8</ele>
        <time>2019-02-12T03:25:02Z</time>
      </trkpt>
      <trkpt lat="46.38975" lon="5.66047">
        <ele>367.4</ele>
        <time>2019-02-12T03:26:02Z</time>
      </trkpt>
      <trkpt lat="46.38971" lon="5.66074">
        <ele>367.6</ele>
        <time>2019-02-12T03:27:02Z</time>
      </trkpt>
      <trkpt lat="46.3897" lon="5.66112">
        <ele>370.2</ele>
        <time>2019-02-12T03:28:02Z</time>
      </trkpt>
      <trkpt lat="46.3897" lon="5.66141">
        <ele>371.4</ele>
        <time>2019-02-12T03:29:02Z</time>
      </trkpt>
      <trkpt lat="46.38968" lon="5.66162">
        <ele>371.9</ele>
        <time>2019-02-12T03:30:02Z</time>
      </trkpt>
      <trkpt lat="46.38963" lon="5.66175">
        <ele>377</ele>
        <time>2019-02-12T03:31:02Z</time>
      </trkpt>
      <trkpt lat="46.3895" lon="5.66188">
        <ele>376</ele>
        <time>2019-02-12T03:32:02Z</time>
      </trkpt>
      <trkpt lat="46.3894" lon="5.66194">
        <ele>377</ele>
        <time>2019-02-12T03:33:02Z</time>
      </trkpt>
      <trkpt lat="46.38932" lon="5.66199">
        <ele>377</ele>
        <time>2019-02-12T03:34:02Z</time>
      </trkpt>
      <trkpt lat="46.38924" lon="5.66204">
        <ele>378</ele>
        <time>2019-02-12T03:35:02Z</time>
      </trkpt>
      <trkpt lat="46.38914" lon="5.66212">
        <ele>378</ele>
        <time>2019-02-12T03:36:02Z</time>
      </trkpt>
      <trkpt lat="46.38907" lon="5.66222">
        <ele>379</ele>
        <time>2019-02-12T03:37:02Z</time>
      </trkpt>
      <trkpt lat="46.38901" lon="5.66232">
        <ele>380</ele>
        <time>2019-02-12T03:38:02Z</time>
      </trkpt>
      <trkpt lat="46.38894" lon="5.66248">
        <ele>382</ele>
        <time>2019-02-12T03:39:02Z</time>
      </trkpt>
      <trkpt lat="46.3889" lon="5.66259">
        <ele>384</ele>
        <time>2019-02-12T03:40:02Z</time>
      </trkpt>
      <trkpt lat="46.38884" lon="5.66268">
        <ele>385</ele>
        <time>2019-02-12T03:41:02Z</time>
      </trkpt>
      <trkpt lat="46.3888" lon="5.66273">
        <ele>385</ele>
        <time>2019-02-12T03:42:02Z</time>
      </trkpt>
      <trkpt lat="46.38865" lon="5.6628">
        <ele>385</ele>
        <time>2019-02-12T03:43:02Z</time>
      </trkpt>
      <trkpt lat="46.38854" lon="5.66288">
        <ele>386.7</ele>
        <time>2019-02-12T03:44:02Z</time>
      </trkpt>
      <trkpt lat="46.38836" lon="5.66298">
        <ele>387.2</ele>
        <time>2019-02-12T03:45:02Z</time>
      </trkpt>
      <trkpt lat="46.38819" lon="5.66305">
        <ele>385</ele>
        <time>2019-02-12T03:46:02Z</time>
      </trkpt>
      <trkpt lat="46.38813" lon="5.6631">
        <ele>385</ele>
        <time>2019-02-12T03:47:02Z</time>
      </trkpt>
      <trkpt lat="46.38809" lon="5.66317">
        <ele>386</ele>
        <time>2019-02-12T03:48:02Z</time>
      </trkpt>
      <trkpt lat="46.38804" lon="5.66329">
        <ele>388</ele>
        <time>2019-02-12T03:49:02Z</time>
      </trkpt>
      <trkpt lat="46.38799" lon="5.66341">
        <ele>389</ele>
        <time>2019-02-12T03:50:02Z</time>
      </trkpt>
      <trkpt lat="46.38793" lon="5.6635">
        <ele>390</ele>
        <time>2019-02-12T03:51:02Z</time>
      </trkpt>
      <trkpt lat="46.38791" lon="5.66351">
        <ele>391</ele>
        <time>2019-02-12T03:52:02Z</time>
      </trkpt>
      <trkpt lat="46.38782" lon="5.66357">
        <ele>391</ele>
        <time>2019-02-12T03:53:02Z</time>
      </trkpt>
      <trkpt lat="46.38775" lon="5.66361">
        <ele>391</ele>
        <time>2019-02-12T03:54:02Z</time>
      </trkpt>
      <trkpt lat="46.38771" lon="5.66366">
        <ele>391</ele>
        <time>2019-02-12T03:55:02Z</time>
      </trkpt>
      <trkpt lat="46.38767" lon="5.66373">
        <ele>392</ele>
        <time>2019-02-12T03:56:02Z</time>
      </trkpt>
      <trkpt lat="46.38765" lon="5.66375">
        <ele>392</ele>
        <time>2019-02-12T03:57:02Z</time>
      </trkpt>
      <trkpt lat="46.38759" lon="5.66381">
        <ele>392</ele>
        <time>2019-02-12T03:58:02Z</time>
      </trkpt>
      <trkpt lat="46.38758" lon="5.66382">
        <ele>392</ele>
        <time>2019-02-12T03:59:02Z</time>
      </trkpt>
      <trkpt lat="46.38756" lon="5.66383">
        <ele>392</ele>
        <time>2019-02-12T04:00:02Z</time>
      </trkpt>
      <trkpt lat="46.3875" lon="5.66386">
        <ele>392</ele>
        <time>2019-02-12T04:01:02Z</time>
      </trkpt>
      <trkpt lat="46.38735" lon="5.66397">
        <ele>390</ele>
        <time>2019-02-12T04:02:02Z</time>
      </trkpt>
      <trkpt lat="46.3871" lon="5.66414">
        <ele>392</ele>
        <time>2019-02-12T04:03:02Z</time>
      </trkpt>
      <trkpt lat="46.3869" lon="5.66427">
        <ele>393</ele>
        <time>2019-02-12T04:04:02Z</time>
      </trkpt>
      <trkpt lat="46.38687" lon="5.66429">
        <ele>393</ele>
        <time>2019-02-12T04:05:02Z</time>
      </trkpt>
      <trkpt lat="46.38674" lon="5.66439">
        <ele>395</ele>
        <time>2019-02-12T04:06:02Z</time>
      </trkpt>
      <trkpt lat="46.38658" lon="5.66452">
        <ele>397</ele>
        <time>2019-02-12T04:07:02Z</time>
      </trkpt>
      <trkpt lat="46.38635" lon="5.66469">
        <ele>401</ele>
        <time>2019-02-12T04:08:02Z</time>
      </trkpt>
      <trkpt lat="46.38626" lon="5.66475">
        <ele>403</ele>
        <time>2019-02-12T04:09:02Z</time>
      </trkpt>
      <trkpt lat="46.38615" lon="5.66482">
        <ele>404</ele>
        <time>2019-02-12T04:10:02Z</time>
      </trkpt>
      <trkpt lat="46.38605" lon="5.66486">
        <ele>405</ele>
        <time>2019-02-12T04:11:02Z</time>
      </trkpt>
      <trkpt lat="46.38596" lon="5.66489">
        <ele>406</ele>
        <time>2019-02-12T04:12:02Z</time>
      </trkpt>
      <trkpt lat="46.38573" lon="5.66493">
        <ele>406</ele>
        <time>2019-02-12T04:13:02Z</time>
      </trkpt>
      <trkpt lat="46.3856" lon="5.66496">
        <ele>405</ele>
        <time>2019-02-12T04:14:02Z</time>
      </trkpt>
      <trkpt lat="46.38538" lon="5.66504">
        <ele>406</ele>
        <time>2019-02-12T04:15:02Z</time>
      </trkpt>
      <trkpt lat="46.38527" lon="5.66508">
        <ele>407</ele>
        <time>2019-02-12T04:16:02Z</time>
      </trkpt>
      <trkpt lat="46.38512" lon="5.66515">
        <ele>408</ele>
        <time>2019-02-12T04:17:02Z</time>
      </trkpt>
      <trkpt lat="46.38486" lon="5.66527">
        <ele>411</ele>
        <time>2019-02-12T04:18:02Z</time>
      </trkpt>
      <trkpt lat="46.38473" lon="5.66533">
        <ele>413</ele>
        <time>2019-02-12T04:19:02Z</time>
      </trkpt>
      <trkpt lat="46.38459" lon="5.66538">
        <ele>414</ele>
        <time>2019-02-12T04:20:02Z</time>
      </trkpt>
      <trkpt lat="46.38447" lon="5.66542">
        <ele>414</ele>
        <time>2019-02-12T04:21:02Z</time>
      </trkpt>
      <trkpt lat="46.38433" lon="5.66548">
        <ele>415</ele>
        <time>2019-02-12T04:22:02Z</time>
      </trkpt>
      <trkpt lat="46.38417" lon="5.66554">
        <ele>416</ele>
        <time>2019-02-12T04:23:02Z</time>
      </trkpt>
      <trkpt lat="46.38402" lon="5.6656">
        <ele>416</ele>
        <time>2019-02-12T04:24:02Z</time>
      </trkpt>
      <trkpt lat="46.38386" lon="5.66565">
        <ele>415</ele>
        <time>2019-02-12T04:25:02Z</time>
      </trkpt>
      <trkpt lat="46.38375" lon="5.66571">
        <ele>416</ele>
        <time>2019-02-12T04:26:02Z</time>
      </trkpt>
      <trkpt lat="46.38362" lon="5.66577">
        <ele>416</ele>
        <time>2019-02-12T04:27:02Z</time>
      </trkpt>
      <trkpt lat="46.38347" lon="5.66586">
        <ele>417</ele>
        <time>2019-02-12T04:28:02Z</time>
      </trkpt>
      <trkpt lat="46.38336" lon="5.66593">
        <ele>417</ele>
        <time>2019-02-12T04:29:02Z</time>
      </trkpt>
      <trkpt lat="46.38321" lon="5.66603">
        <ele>418</ele>
        <time>2019-02-12T04:30:02Z</time>
      </trkpt>
      <trkpt lat="46.38308" lon="5.66611">
        <ele>418</ele>
        <time>2019-02-12T04:31:02Z</time>
      </trkpt>
      <trkpt lat="46.38284" lon="5.66626">
        <ele>418</ele>
        <time>2019-02-12T04:32:02Z</time>
      </trkpt>
      <trkpt lat="46.38273" lon="5.66634">
        <ele>419</ele>
        <time>2019-02-12T04:33:02Z</time>
      </trkpt>
      <trkpt lat="46.38264" lon="5.6664">
        <ele>419</ele>
        <time>2019-02-12T04:34:02Z</time>
      </trkpt>
      <trkpt lat="46.38255" lon="5.66649">
        <ele>420</ele>
        <time>2019-02-12T04:35:02Z</time>
      </trkpt>
      <trkpt lat="46.38249" lon="5.66657">
        <ele>422</ele>
        <time>2019-02-12T04:36:02Z</time>
      </trkpt>
      <trkpt lat="46.38228" lon="5.66695">
        <ele>427</ele>
        <time>2019-02-12T04:37:02Z</time>
      </trkpt>
      <trkpt lat="46.38223" lon="5.66705">
        <ele>428</ele>
        <time>2019-02-12T04:43:02Z</time>
      </trkpt>
      <trkpt lat="46.38218" lon="5.66714">
        <ele>429</ele>
        <time>2019-02-12T04:44:02Z</time>
      </trkpt>
      <trkpt lat="46.38215" lon="5.66727">
        <ele>429</ele>
        <time>2019-02-12T04:45:02Z</time>
      </trkpt>
      <trkpt lat="46.38213" lon="5.66741">
        <ele>429.7</ele>
        <time>2019-02-12T04:46:02Z</time>
      </trkpt>
      <trkpt lat="46.38214" lon="5.66754">
        <ele>436.1</ele>
        <time>2019-02-12T04:47:02Z</time>
      </trkpt>
      <trkpt lat="46.3822" lon="5.66772">
        <ele>436.6</ele>
        <time>2019-02-12T04:53:02Z</time>
      </trkpt>
      <trkpt lat="46.38224" lon="5.66781">
        <ele>437</ele>
        <time>2019-02-12T04:54:02Z</time>
      </trkpt>
      <trkpt lat="46.38242" lon="5.66794">
        <ele>438</ele>
        <time>2019-02-12T04:55:02Z</time>
      </trkpt>
      <trkpt lat="46.38257" lon="5.66804">
        <ele>440</ele>
        <time>2019-02-12T04:56:02Z</time>
      </trkpt>
      <trkpt lat="46.38307" lon="5.66843">
        <ele>446.2</ele>
        <time>2019-02-12T04:57:02Z</time>
      </trkpt>
      <trkpt lat="46.38318" lon="5.66865">
        <ele>446.8</ele>
        <time>2019-02-12T04:58:02Z</time>
      </trkpt>
      <trkpt lat="46.38317" lon="5.66887">
        <ele>447.7</ele>
        <time>2019-02-12T04:59:02Z</time>
      </trkpt>
      <trkpt lat="46.38312" lon="5.66901">
        <ele>448.2</ele>
        <time>2019-02-12T05:00:02Z</time>
      </trkpt>
      <trkpt lat="46.38299" lon="5.66924">
        <ele>450.6</ele>
        <time>2019-02-12T05:01:02Z</time>
      </trkpt>
      <trkpt lat="46.38292" lon="5.66939">
        <ele>450.4</ele>
        <time>2019-02-12T05:02:02Z</time>
      </trkpt>
      <trkpt lat="46.38282" lon="5.66964">
        <ele>450.7</ele>
        <time>2019-02-12T05:03:02Z</time>
      </trkpt>
      <trkpt lat="46.38273" lon="5.66991">
        <ele>450.6</ele>
        <time>2019-02-12T05:04:02Z</time>
      </trkpt>
      <trkpt lat="46.38271" lon="5.67019">
        <ele>452.9</ele>
        <time>2019-02-12T05:05:02Z</time>
      </trkpt>
      <trkpt lat="46.3827" lon="5.67055">
        <ele>453.7</ele>
        <time>2019-02-12T05:06:02Z</time>
      </trkpt>
      <trkpt lat="46.38275" lon="5.6706">
        <ele>453</ele>
        <time>2019-02-12T05:07:02Z</time>
      </trkpt>
      <trkpt lat="46.38277" lon="5.67066">
        <ele>454</ele>
        <time>2019-02-12T05:08:02Z</time>
      </trkpt>
      <trkpt lat="46.38281" lon="5.67075">
        <ele>454</ele>
        <time>2019-02-12T05:09:02Z</time>
      </trkpt>
      <trkpt lat="46.38286" lon="5.67082">
        <ele>455</ele>
        <time>2019-02-12T05:10:02Z</time>
      </trkpt>
      <trkpt lat="46.38291" lon="5.6709">
        <ele>456</ele>
        <time>2019-02-12T05:11:02Z</time>
      </trkpt>
      <trkpt lat="46.38295" lon="5.67099">
        <ele>457</ele>
        <time>2019-02-12T05:12:02Z</time>
      </trkpt>
      <trkpt lat="46.38296" lon="5.67105">
        <ele>457</ele>
        <time>2019-02-12T05:13:02Z</time>
      </trkpt>
      <trkpt lat="46.38299" lon="5.67118">
        <ele>457</ele>
        <time>2019-02-12T05:14:02Z</time>
      </trkpt>
      <trkpt lat="46.383" lon="5.67128">
        <ele>457</ele>
        <time>2019-02-12T05:15:02Z</time>
      </trkpt>
      <trkpt lat="46.38302" lon="5.67145">
        <ele>458</ele>
        <time>2019-02-12T05:16:02Z</time>
      </trkpt>
      <trkpt lat="46.38304" lon="5.67164">
        <ele>458</ele>
        <time>2019-02-12T05:17:02Z</time>
      </trkpt>
      <trkpt lat="46.38306" lon="5.67181">
        <ele>458</ele>
        <time>2019-02-12T05:18:02Z</time>
      </trkpt>
      <trkpt lat="46.38307" lon="5.67195">
        <ele>459</ele>
        <time>2019-02-12T05:19:02Z</time>
      </trkpt>
      <trkpt lat="46.38308" lon="5.6721">
        <ele>459</ele>
        <time>2019-02-12T05:20:02Z</time>
      </trkpt>
      <trkpt lat="46.38309" lon="5.67223">
        <ele>459</ele>
        <time>2019-02-12T05:21:02Z</time>
      </trkpt>
      <trkpt lat="46.38311" lon="5.67233">
        <ele>459</ele>
        <time>2019-02-12T05:22:02Z</time>
      </trkpt>
      <trkpt lat="46.38314" lon="5.67246">
        <ele>459</ele>
        <time>2019-02-12T05:23:02Z</time>
      </trkpt>
      <trkpt lat="46.38319" lon="5.6726">
        <ele>459</ele>
        <time>2019-02-12T05:24:02Z</time>
      </trkpt>
      <trkpt lat="46.3833" lon="5.67285">
        <ele>460</ele>
        <time>2019-02-12T05:25:02Z</time>
      </trkpt>
      <trkpt lat="46.38335" lon="5.67299">
        <ele>460</ele>
        <time>2019-02-12T05:26:02Z</time>
      </trkpt>
      <trkpt lat="46.38344" lon="5.67319">
        <ele>461</ele>
        <time>2019-02-12T05:27:02Z</time>
      </trkpt>
      <trkpt lat="46.38349" lon="5.67329">
        <ele>462</ele>
        <time>2019-02-12T05:28:02Z</time>
      </trkpt>
      <trkpt lat="46.38357" lon="5.67342">
        <ele>463</ele>
        <time>2019-02-12T05:29:02Z</time>
      </trkpt>
      <trkpt lat="46.38377" lon="5.67369">
        <ele>466</ele>
        <time>2019-02-12T05:30:02Z</time>
      </trkpt>
      <trkpt lat="46.3839" lon="5.67388">
        <ele>468</ele>
        <time>2019-02-12T05:31:02Z</time>
      </trkpt>
      <trkpt lat="46.38397" lon="5.67396">
        <ele>468</ele>
        <time>2019-02-12T05:32:02Z</time>
      </trkpt>
      <trkpt lat="46.38406" lon="5.67405">
        <ele>469</ele>
        <time>2019-02-12T05:33:02Z</time>
      </trkpt>
      <trkpt lat="46.38414" lon="5.67412">
        <ele>470</ele>
        <time>2019-02-12T05:34:02Z</time>
      </trkpt>
      <trkpt lat="46.38423" lon="5.67419">
        <ele>471</ele>
        <time>2019-02-12T05:35:02Z</time>
      </trkpt>
      <trkpt lat="46.3843" lon="5.67425">
        <ele>472</ele>
        <time>2019-02-12T05:36:02Z</time>
      </trkpt>
      <trkpt lat="46.38435" lon="5.67431">
        <ele>473</ele>
        <time>2019-02-12T05:37:02Z</time>
      </trkpt>
      <trkpt lat="46.38438" lon="5.67434">
        <ele>473</ele>
        <time>2019-02-12T05:38:02Z</time>
      </trkpt>
      <trkpt lat="46.38443" lon="5.67444">
        <ele>474</ele>
        <time>2019-02-12T05:39:02Z</time>
      </trkpt>
      <trkpt lat="46.38448" lon="5.67453">
        <ele>475</ele>
        <time>2019-02-12T05:40:02Z</time>
      </trkpt>
      <trkpt lat="46.38459" lon="5.67484">
        <ele>477</ele>
        <time>2019-02-12T05:41:02Z</time>
      </trkpt>
      <trkpt lat="46.38464" lon="5.67495">
        <ele>478</ele>
        <time>2019-02-12T05:42:02Z</time>
      </trkpt>
      <trkpt lat="46.3847" lon="5.67505">
        <ele>479</ele>
        <time>2019-02-12T05:43:02Z</time>
      </trkpt>
      <trkpt lat="46.38477" lon="5.67517">
        <ele>481</ele>
        <time>2019-02-12T05:44:02Z</time>
      </trkpt>
      <trkpt lat="46.38482" lon="5.67527">
        <ele>481</ele>
        <time>2019-02-12T05:45:02Z</time>
      </trkpt>
      <trkpt lat="46.38486" lon="5.67538">
        <ele>482</ele>
        <time>2019-02-12T05:46:02Z</time>
      </trkpt>
      <trkpt lat="46.38488" lon="5.67546">
        <ele>483</ele>
        <time>2019-02-12T05:47:02Z</time>
      </trkpt>
      <trkpt lat="46.3849" lon="5.67555">
        <ele>483</ele>
        <time>2019-02-12T05:48:02Z</time>
      </trkpt>
      <trkpt lat="46.3849" lon="5.67564">
        <ele>484</ele>
        <time>2019-02-12T05:49:02Z</time>
      </trkpt>
      <trkpt lat="46.38489" lon="5.67571">
        <ele>484</ele>
        <time>2019-02-12T05:50:02Z</time>
      </trkpt>
      <trkpt lat="46.38487" lon="5.67584">
        <ele>484</ele>
        <time>2019-02-12T05:51:02Z</time>
      </trkpt>
      <trkpt lat="46.38486" lon="5.67592">
        <ele>484</ele>
        <time>2019-02-12T05:52:02Z</time>
      </trkpt>
      <trkpt lat="46.38486" lon="5.676">
        <ele>485</ele>
        <time>2019-02-12T05:53:02Z</time>
      </trkpt>
      <trkpt lat="46.38488" lon="5.6761">
        <ele>485</ele>
        <time>2019-02-12T05:54:02Z</time>
      </trkpt>
      <trkpt lat="46.38492" lon="5.67617">
        <ele>486</ele>
        <time>2019-02-12T05:55:02Z</time>
      </trkpt>
      <trkpt lat="46.38495" lon="5.67622">
        <ele>487</ele>
        <time>2019-02-12T05:56:02Z</time>
      </trkpt>
      <trkpt lat="46.38499" lon="5.67624">
        <ele>487</ele>
        <time>2019-02-12T05:57:02Z</time>
      </trkpt>
      <trkpt lat="46.38506" lon="5.67623">
        <ele>488</ele>
        <time>2019-02-12T05:58:02Z</time>
      </trkpt>
      <trkpt lat="46.38512" lon="5.6762">
        <ele>488</ele>
        <time>2019-02-12T05:59:02Z</time>
      </trkpt>
      <trkpt lat="46.38516" lon="5.67615">
        <ele>488</ele>
        <time>2019-02-12T06:00:02Z</time>
      </trkpt>
      <trkpt lat="46.38521" lon="5.6761">
        <ele>488</ele>
        <time>2019-02-12T06:01:02Z</time>
      </trkpt>
      <trkpt lat="46.38528" lon="5.67604">
        <ele>489</ele>
        <time>2019-02-12T06:02:02Z</time>
      </trkpt>
      <trkpt lat="46.38536" lon="5.67599">
        <ele>490</ele>
        <time>2019-02-12T06:03:02Z</time>
      </trkpt>
      <trkpt lat="46.38545" lon="5.67596">
        <ele>490</ele>
        <time>2019-02-12T06:04:02Z</time>
      </trkpt>
      <trkpt lat="46.38556" lon="5.67593">
        <ele>491</ele>
        <time>2019-02-12T06:05:02Z</time>
      </trkpt>
      <trkpt lat="46.38568" lon="5.67589">
        <ele>493</ele>
        <time>2019-02-12T06:06:02Z</time>
      </trkpt>
      <trkpt lat="46.3858" lon="5.67586">
        <ele>494</ele>
        <time>2019-02-12T06:07:02Z</time>
      </trkpt>
      <trkpt lat="46.38594" lon="5.67582">
        <ele>495</ele>
        <time>2019-02-12T06:08:02Z</time>
      </trkpt>
      <trkpt lat="46.38604" lon="5.6758">
        <ele>496</ele>
        <time>2019-02-12T06:09:02Z</time>
      </trkpt>
      <trkpt lat="46.38615" lon="5.67578">
        <ele>497</ele>
        <time>2019-02-12T06:10:02Z</time>
      </trkpt>
      <trkpt lat="46.3863" lon="5.67576">
        <ele>498</ele>
        <time>2019-02-12T06:11:02Z</time>
      </trkpt>
      <trkpt lat="46.38639" lon="5.67576">
        <ele>499</ele>
        <time>2019-02-12T06:12:02Z</time>
      </trkpt>
      <trkpt lat="46.3865" lon="5.67574">
        <ele>500</ele>
        <time>2019-02-12T06:13:02Z</time>
      </trkpt>
      <trkpt lat="46.38655" lon="5.67574">
        <ele>501</ele>
        <time>2019-02-12T06:14:02Z</time>
      </trkpt>
      <trkpt lat="46.38659" lon="5.67572">
        <ele>501</ele>
        <time>2019-02-12T06:15:02Z</time>
      </trkpt>
      <trkpt lat="46.38668" lon="5.67568">
        <ele>502</ele>
        <time>2019-02-12T06:16:02Z</time>
      </trkpt>
      <trkpt lat="46.38674" lon="5.67565">
        <ele>503</ele>
        <time>2019-02-12T06:17:02Z</time>
      </trkpt>
      <trkpt lat="46.38683" lon="5.6756">
        <ele>504</ele>
        <time>2019-02-12T06:18:02Z</time>
      </trkpt>
      <trkpt lat="46.38689" lon="5.67557">
        <ele>504</ele>
        <time>2019-02-12T06:19:02Z</time>
      </trkpt>
      <trkpt lat="46.38694" lon="5.67556">
        <ele>505</ele>
        <time>2019-02-12T06:20:02Z</time>
      </trkpt>
      <trkpt lat="46.38705" lon="5.67555">
        <ele>506</ele>
        <time>2019-02-12T06:21:02Z</time>
      </trkpt>
      <trkpt lat="46.38725" lon="5.67556">
        <ele>508</ele>
        <time>2019-02-12T06:22:02Z</time>
      </trkpt>
      <trkpt lat="46.38736" lon="5.67557">
        <ele>509</ele>
        <time>2019-02-12T06:23:02Z</time>
      </trkpt>
      <trkpt lat="46.38744" lon="5.67557">
        <ele>510</ele>
        <time>2019-02-12T06:24:02Z</time>
      </trkpt>
      <trkpt lat="46.38753" lon="5.67556">
        <ele>511</ele>
        <time>2019-02-12T06:25:02Z</time>
      </trkpt>
      <trkpt lat="46.38766" lon="5.67557">
        <ele>512</ele>
        <time>2019-02-12T06:26:02Z</time>
      </trkpt>
      <trkpt lat="46.38774" lon="5.6756">
        <ele>513</ele>
        <time>2019-02-12T06:27:02Z</time>
      </trkpt>
      <trkpt lat="46.38783" lon="5.67563">
        <ele>514</ele>
        <time>2019-02-12T06:28:02Z</time>
      </trkpt>
      <trkpt lat="46.38789" lon="5.67567">
        <ele>515</ele>
        <time>2019-02-12T06:29:02Z</time>
      </trkpt>
      <trkpt lat="46.38795" lon="5.67572">
        <ele>515</ele>
        <time>2019-02-12T06:30:02Z</time>
      </trkpt>
      <trkpt lat="46.38801" lon="5.67579">
        <ele>516</ele>
        <time>2019-02-12T06:31:02Z</time>
      </trkpt>
      <trkpt lat="46.38811" lon="5.67589">
        <ele>518</ele>
        <time>2019-02-12T06:32:02Z</time>
      </trkpt>
      <trkpt lat="46.3882" lon="5.67599">
        <ele>519</ele>
        <time>2019-02-12T06:33:02Z</time>
      </trkpt>
      <trkpt lat="46.38822" lon="5.67602">
        <ele>520</ele>
        <time>2019-02-12T06:34:02Z</time>
      </trkpt>
      <trkpt lat="46.38824" lon="5.67602">
        <ele>520</ele>
        <time>2019-02-12T06:35:02Z</time>
      </trkpt>
      <trkpt lat="46.38825" lon="5.67603">
        <ele>520</ele>
        <time>2019-02-12T06:36:02Z</time>
      </trkpt>
      <trkpt lat="46.38826" lon="5.67602">
        <ele>520</ele>
        <time>2019-02-12T06:37:02Z</time>
      </trkpt>
      <trkpt lat="46.38828" lon="5.67601">
        <ele>520</ele>
        <time>2019-02-12T06:38:02Z</time>
      </trkpt>
      <trkpt lat="46.38831" lon="5.67598">
        <ele>520</ele>
        <time>2019-02-12T06:39:02Z</time>
      </trkpt>
      <trkpt lat="46.38839" lon="5.67589">
        <ele>520</ele>
        <time>2019-02-12T06:40:02Z</time>
      </trkpt>
      <trkpt lat="46.38843" lon="5.67585">
        <ele>520</ele>
        <time>2019-02-12T06:41:02Z</time>
      </trkpt>
      <trkpt lat="46.38848" lon="5.67579">
        <ele>520</ele>
        <time>2019-02-12T06:42:02Z</time>
      </trkpt>
      <trkpt lat="46.38854" lon="5.67577">
        <ele>521</ele>
        <time>2019-02-12T06:43:02Z</time>
      </trkpt>
      <trkpt lat="46.38857" lon="5.67575">
        <ele>521</ele>
        <time>2019-02-12T06:44:02Z</time>
      </trkpt>
      <trkpt lat="46.38865" lon="5.67569">
        <ele>522</ele>
        <time>2019-02-12T06:45:02Z</time>
      </trkpt>
      <trkpt lat="46.38871" lon="5.67563">
        <ele>523</ele>
        <time>2019-02-12T06:46:02Z</time>
      </trkpt>
      <trkpt lat="46.38878" lon="5.67557">
        <ele>523</ele>
        <time>2019-02-12T06:47:02Z</time>
      </trkpt>
      <trkpt lat="46.38885" lon="5.67551">
        <ele>524</ele>
        <time>2019-02-12T06:48:02Z</time>
      </trkpt>
      <trkpt lat="46.3889" lon="5.67548">
        <ele>524</ele>
        <time>2019-02-12T06:49:02Z</time>
      </trkpt>
      <trkpt lat="46.38894" lon="5.67547">
        <ele>525</ele>
        <time>2019-02-12T06:50:02Z</time>
      </trkpt>
      <trkpt lat="46.38898" lon="5.67546">
        <ele>525</ele>
        <time>2019-02-12T06:51:02Z</time>
      </trkpt>
      <trkpt lat="46.38899" lon="5.67546">
        <ele>525</ele>
        <time>2019-02-12T06:52:02Z</time>
      </trkpt>
      <trkpt lat="46.38901" lon="5.67546">
        <ele>525</ele>
        <time>2019-02-12T06:53:02Z</time>
      </trkpt>
      <trkpt lat="46.38906" lon="5.67549">
        <ele>526</ele>
        <time>2019-02-12T06:54:02Z</time>
      </trkpt>
      <trkpt lat="46.38909" lon="5.67552">
        <ele>526</ele>
        <time>2019-02-12T06:55:02Z</time>
      </trkpt>
      <trkpt lat="46.38911" lon="5.67554">
        <ele>527</ele>
        <time>2019-02-12T06:56:02Z</time>
      </trkpt>
      <trkpt lat="46.38916" lon="5.67559">
        <ele>527</ele>
        <time>2019-02-12T06:57:02Z</time>
      </trkpt>
      <trkpt lat="46.38923" lon="5.67571">
        <ele>528</ele>
        <time>2019-02-12T06:58:02Z</time>
      </trkpt>
      <trkpt lat="46.38932" lon="5.67586">
        <ele>529</ele>
        <time>2019-02-12T06:59:02Z</time>
      </trkpt>
      <trkpt lat="46.3894" lon="5.67604">
        <ele>530</ele>
        <time>2019-02-12T07:00:02Z</time>
      </trkpt>
      <trkpt lat="46.38946" lon="5.67617">
        <ele>531</ele>
        <time>2019-02-12T07:01:02Z</time>
      </trkpt>
      <trkpt lat="46.3895" lon="5.67625">
        <ele>531</ele>
        <time>2019-02-12T07:02:02Z</time>
      </trkpt>
      <trkpt lat="46.38952" lon="5.67629">
        <ele>532</ele>
        <time>2019-02-12T07:03:02Z</time>
      </trkpt>
      <trkpt lat="46.38958" lon="5.67635">
        <ele>532</ele>
        <time>2019-02-12T07:04:02Z</time>
      </trkpt>
      <trkpt lat="46.38964" lon="5.67643">
        <ele>533</ele>
        <time>2019-02-12T07:05:02Z</time>
      </trkpt>
      <trkpt lat="46.38975" lon="5.67652">
        <ele>534</ele>
        <time>2019-02-12T07:06:02Z</time>
      </trkpt>
      <trkpt lat="46.38982" lon="5.67657">
        <ele>534</ele>
        <time>2019-02-12T07:07:02Z</time>
      </trkpt>
      <trkpt lat="46.38988" lon="5.6766">
        <ele>534</ele>
        <time>2019-02-12T07:08:02Z</time>
      </trkpt>
      <trkpt lat="46.38993" lon="5.67663">
        <ele>535</ele>
        <time>2019-02-12T07:09:02Z</time>
      </trkpt>
      <trkpt lat="46.39009" lon="5.6767">
        <ele>536</ele>
        <time>2019-02-12T07:10:02Z</time>
      </trkpt>
      <trkpt lat="46.3904" lon="5.67685">
        <ele>538</ele>
        <time>2019-02-12T07:11:02Z</time>
      </trkpt>
      <trkpt lat="46.3907" lon="5.67701">
        <ele>541</ele>
        <time>2019-02-12T07:12:02Z</time>
      </trkpt>
      <trkpt lat="46.39074" lon="5.67703">
        <ele>541</ele>
        <time>2019-02-12T07:13:02Z</time>
      </trkpt>
      <trkpt lat="46.39077" lon="5.67705">
        <ele>541</ele>
        <time>2019-02-12T07:14:02Z</time>
      </trkpt>
      <trkpt lat="46.39086" lon="5.67712">
        <ele>542</ele>
        <time>2019-02-12T07:15:02Z</time>
      </trkpt>
      <trkpt lat="46.39097" lon="5.67722">
        <ele>542</ele>
        <time>2019-02-12T07:16:02Z</time>
      </trkpt>
      <trkpt lat="46.39109" lon="5.67732">
        <ele>543</ele>
        <time>2019-02-12T07:17:02Z</time>
      </trkpt>
      <trkpt lat="46.39125" lon="5.67744">
        <ele>544</ele>
        <time>2019-02-12T07:18:02Z</time>
      </trkpt>
      <trkpt lat="46.39139" lon="5.67753">
        <ele>545</ele>
        <time>2019-02-12T07:19:02Z</time>
      </trkpt>
      <trkpt lat="46.39159" lon="5.67763">
        <ele>547</ele>
        <time>2019-02-12T07:20:02Z</time>
      </trkpt>
      <trkpt lat="46.39177" lon="5.67772">
        <ele>548</ele>
        <time>2019-02-12T07:21:02Z</time>
      </trkpt>
      <trkpt lat="46.39193" lon="5.67779">
        <ele>549</ele>
        <time>2019-02-12T07:22:02Z</time>
      </trkpt>
      <trkpt lat="46.3921" lon="5.67788">
        <ele>551</ele>
        <time>2019-02-12T07:23:02Z</time>
      </trkpt>
      <trkpt lat="46.39231" lon="5.67798">
        <ele>553</ele>
        <time>2019-02-12T07:24:02Z</time>
      </trkpt>
      <trkpt lat="46.39252" lon="5.67806">
        <ele>555</ele>
        <time>2019-02-12T07:25:02Z</time>
      </trkpt>
      <trkpt lat="46.39265" lon="5.6781">
        <ele>556</ele>
        <time>2019-02-12T07:26:02Z</time>
      </trkpt>
      <trkpt lat="46.39277" lon="5.67811">
        <ele>557</ele>
        <time>2019-02-12T07:27:02Z</time>
      </trkpt>
      <trkpt lat="46.39302" lon="5.6781">
        <ele>558</ele>
        <time>2019-02-12T07:28:02Z</time>
      </trkpt>
      <trkpt lat="46.39314" lon="5.67811">
        <ele>559</ele>
        <time>2019-02-12T07:29:02Z</time>
      </trkpt>
      <trkpt lat="46.39324" lon="5.67812">
        <ele>559</ele>
        <time>2019-02-12T07:30:02Z</time>
      </trkpt>
      <trkpt lat="46.39332" lon="5.67815">
        <ele>560</ele>
        <time>2019-02-12T07:31:02Z</time>
      </trkpt>
      <trkpt lat="46.3934" lon="5.67821">
        <ele>561</ele>
        <time>2019-02-12T07:32:02Z</time>
      </trkpt>
      <trkpt lat="46.39347" lon="5.67828">
        <ele>561</ele>
        <time>2019-02-12T07:33:02Z</time>
      </trkpt>
      <trkpt lat="46.39353" lon="5.67836">
        <ele>562</ele>
        <time>2019-02-12T07:34:02Z</time>
      </trkpt>
      <trkpt lat="46.3936" lon="5.67848">
        <ele>562</ele>
        <time>2019-02-12T07:35:02Z</time>
      </trkpt>
      <trkpt lat="46.39367" lon="5.67864">
        <ele>563</ele>
        <time>2019-02-12T07:36:02Z</time>
      </trkpt>
      <trkpt lat="46.39376" lon="5.67883">
        <ele>564</ele>
        <time>2019-02-12T07:37:02Z</time>
      </trkpt>
      <trkpt lat="46.39386" lon="5.67906">
        <ele>565</ele>
        <time>2019-02-12T07:38:02Z</time>
      </trkpt>
      <trkpt lat="46.39396" lon="5.67929">
        <ele>567</ele>
        <time>2019-02-12T07:39:02Z</time>
      </trkpt>
      <trkpt lat="46.39405" lon="5.67949">
        <ele>567</ele>
        <time>2019-02-12T07:40:02Z</time>
      </trkpt>
      <trkpt lat="46.3941" lon="5.67959">
        <ele>568</ele>
        <time>2019-02-12T07:41:02Z</time>
      </trkpt>
      <trkpt lat="46.39416" lon="5.67967">
        <ele>568</ele>
        <time>2019-02-12T07:42:02Z</time>
      </trkpt>
      <trkpt lat="46.39424" lon="5.67976">
        <ele>569</ele>
        <time>2019-02-12T07:43:02Z</time>
      </trkpt>
      <trkpt lat="46.39432" lon="5.67985">
        <ele>569</ele>
        <time>2019-02-12T07:44:02Z</time>
      </trkpt>
      <trkpt lat="46.39447" lon="5.68001">
        <ele>570</ele>
        <time>2019-02-12T07:45:02Z</time>
      </trkpt>
      <trkpt lat="46.39467" lon="5.68024">
        <ele>572</ele>
        <time>2019-02-12T07:46:02Z</time>
      </trkpt>
      <trkpt lat="46.39477" lon="5.68035">
        <ele>572</ele>
        <time>2019-02-12T07:47:02Z</time>
      </trkpt>
      <trkpt lat="46.39486" lon="5.68049">
        <ele>572</ele>
        <time>2019-02-12T07:48:02Z</time>
      </trkpt>
      <trkpt lat="46.39496" lon="5.68065">
        <ele>573</ele>
        <time>2019-02-12T07:49:02Z</time>
      </trkpt>
      <trkpt lat="46.39506" lon="5.68078">
        <ele>573</ele>
        <time>2019-02-12T07:50:02Z</time>
      </trkpt>
      <trkpt lat="46.39514" lon="5.68089">
        <ele>574</ele>
        <time>2019-02-12T07:51:02Z</time>
      </trkpt>
      <trkpt lat="46.39523" lon="5.68098">
        <ele>575</ele>
        <time>2019-02-12T07:52:02Z</time>
      </trkpt>
      <trkpt lat="46.39535" lon="5.68109">
        <ele>576</ele>
        <time>2019-02-12T07:53:02Z</time>
      </trkpt>
      <trkpt lat="46.39547" lon="5.6812">
        <ele>577</ele>
        <time>2019-02-12T07:54:02Z</time>
      </trkpt>
      <trkpt lat="46.39573" lon="5.68142">
        <ele>580</ele>
        <time>2019-02-12T07:55:02Z</time>
      </trkpt>
      <trkpt lat="46.39589" lon="5.68158">
        <ele>581</ele>
        <time>2019-02-12T07:56:02Z</time>
      </trkpt>
      <trkpt lat="46.39597" lon="5.68167">
        <ele>581</ele>
        <time>2019-02-12T07:57:02Z</time>
      </trkpt>
      <trkpt lat="46.39604" lon="5.68176">
        <ele>582</ele>
        <time>2019-02-12T07:58:02Z</time>
      </trkpt>
      <trkpt lat="46.39611" lon="5.68188">
        <ele>583</ele>
        <time>2019-02-12T07:59:02Z</time>
      </trkpt>
      <trkpt lat="46.39618" lon="5.68201">
        <ele>584</ele>
        <time>2019-02-12T08:00:02Z</time>
      </trkpt>
      <trkpt lat="46.39625" lon="5.68218">
        <ele>585</ele>
        <time>2019-02-12T08:01:02Z</time>
      </trkpt>
      <trkpt lat="46.39631" lon="5.68233">
        <ele>586</ele>
        <time>2019-02-12T08:02:02Z</time>
      </trkpt>
      <trkpt lat="46.39637" lon="5.68246">
        <ele>587</ele>
        <time>2019-02-12T08:03:02Z</time>
      </trkpt>
      <trkpt lat="46.39646" lon="5.68261">
        <ele>590</ele>
        <time>2019-02-12T08:04:02Z</time>
      </trkpt>
      <trkpt lat="46.39652" lon="5.68269">
        <ele>591</ele>
        <time>2019-02-12T08:05:02Z</time>
      </trkpt>
      <trkpt lat="46.39661" lon="5.68277">
        <ele>593</ele>
        <time>2019-02-12T08:06:02Z</time>
      </trkpt>
      <trkpt lat="46.39671" lon="5.68284">
        <ele>594</ele>
        <time>2019-02-12T08:07:02Z</time>
      </trkpt>
      <trkpt lat="46.397" lon="5.68293">
        <ele>596</ele>
        <time>2019-02-12T08:08:02Z</time>
      </trkpt>
      <trkpt lat="46.39716" lon="5.68298">
        <ele>597</ele>
        <time>2019-02-12T08:09:02Z</time>
      </trkpt>
      <trkpt lat="46.39733" lon="5.68303">
        <ele>598</ele>
        <time>2019-02-12T08:10:02Z</time>
      </trkpt>
      <trkpt lat="46.39748" lon="5.68307">
        <ele>599</ele>
        <time>2019-02-12T08:11:02Z</time>
      </trkpt>
      <trkpt lat="46.39765" lon="5.68312">
        <ele>600</ele>
        <time>2019-02-12T08:12:02Z</time>
      </trkpt>
      <trkpt lat="46.39779" lon="5.68314">
        <ele>600</ele>
        <time>2019-02-12T08:13:02Z</time>
      </trkpt>
      <trkpt lat="46.39802" lon="5.6832">
        <ele>601</ele>
        <time>2019-02-12T08:14:02Z</time>
      </trkpt>
      <trkpt lat="46.39827" lon="5.68326">
        <ele>602</ele>
        <time>2019-02-12T08:15:02Z</time>
      </trkpt>
      <trkpt lat="46.39841" lon="5.68329">
        <ele>603</ele>
        <time>2019-02-12T08:16:02Z</time>
      </trkpt>
      <trkpt lat="46.3986" lon="5.6833">
        <ele>604</ele>
        <time>2019-02-12T08:17:02Z</time>
      </trkpt>
      <trkpt lat="46.39877" lon="5.68332">
        <ele>604</ele>
        <time>2019-02-12T08:18:02Z</time>
      </trkpt>
      <trkpt lat="46.39896" lon="5.68335">
        <ele>606</ele>
        <time>2019-02-12T08:19:02Z</time>
      </trkpt>
      <trkpt lat="46.3991" lon="5.68336">
        <ele>606</ele>
        <time>2019-02-12T08:20:02Z</time>
      </trkpt>
      <trkpt lat="46.39923" lon="5.68338">
        <ele>607</ele>
        <time>2019-02-12T08:21:02Z</time>
      </trkpt>
      <trkpt lat="46.39935" lon="5.68342">
        <ele>608</ele>
        <time>2019-02-12T08:22:02Z</time>
      </trkpt>
      <trkpt lat="46.39947" lon="5.68349">
        <ele>609</ele>
        <time>2019-02-12T08:23:02Z</time>
      </trkpt>
      <trkpt lat="46.39962" lon="5.68357">
        <ele>610</ele>
        <time>2019-02-12T08:24:02Z</time>
      </trkpt>
      <trkpt lat="46.39975" lon="5.68364">
        <ele>612</ele>
        <time>2019-02-12T08:25:02Z</time>
      </trkpt>
      <trkpt lat="46.39986" lon="5.68369">
        <ele>613</ele>
        <time>2019-02-12T08:26:02Z</time>
      </trkpt>
      <trkpt lat="46.39999" lon="5.68377">
        <ele>614</ele>
        <time>2019-02-12T08:27:02Z</time>
      </trkpt>
      <trkpt lat="46.40011" lon="5.68387">
        <ele>615</ele>
        <time>2019-02-12T08:28:02Z</time>
      </trkpt>
      <trkpt lat="46.40023" lon="5.68395">
        <ele>615</ele>
        <time>2019-02-12T08:29:02Z</time>
      </trkpt>
      <trkpt lat="46.40036" lon="5.68403">
        <ele>616</ele>
        <time>2019-02-12T08:30:02Z</time>
      </trkpt>
      <trkpt lat="46.4005" lon="5.6841">
        <ele>615</ele>
        <time>2019-02-12T08:31:02Z</time>
      </trkpt>
      <trkpt lat="46.40061" lon="5.68418">
        <ele>616</ele>
        <time>2019-02-12T08:32:02Z</time>
      </trkpt>
      <trkpt lat="46.4007" lon="5.68428">
        <ele>616</ele>
        <time>2019-02-12T08:33:02Z</time>
      </trkpt>
      <trkpt lat="46.40077" lon="5.68438">
        <ele>617</ele>
        <time>2019-02-12T08:34:02Z</time>
      </trkpt>
      <trkpt lat="46.40085" lon="5.6845">
        <ele>618</ele>
        <time>2019-02-12T08:35:02Z</time>
      </trkpt>
      <trkpt lat="46.40095" lon="5.68463">
        <ele>620</ele>
        <time>2019-02-12T08:36:02Z</time>
      </trkpt>
      <trkpt lat="46.40105" lon="5.68474">
        <ele>621</ele>
        <time>2019-02-12T08:37:02Z</time>
      </trkpt>
      <trkpt lat="46.40114" lon="5.68484">
        <ele>623</ele>
        <time>2019-02-12T08:38:02Z</time>
      </trkpt>
      <trkpt lat="46.40129" lon="5.68495">
        <ele>624</ele>
        <time>2019-02-12T08:39:02Z</time>
      </trkpt>
      <trkpt lat="46.4014" lon="5.68505">
        <ele>625</ele>
        <time>2019-02-12T08:40:02Z</time>
      </trkpt>
      <trkpt lat="46.40146" lon="5.68514">
        <ele>626</ele>
        <time>2019-02-12T08:41:02Z</time>
      </trkpt>
      <trkpt lat="46.40149" lon="5.68522">
        <ele>626</ele>
        <time>2019-02-12T08:42:02Z</time>
      </trkpt>
      <trkpt lat="46.40153" lon="5.68538">
        <ele>628</ele>
        <time>2019-02-12T08:43:02Z</time>
      </trkpt>
      <trkpt lat="46.40157" lon="5.68555">
        <ele>630</ele>
        <time>2019-02-12T08:44:02Z</time>
      </trkpt>
      <trkpt lat="46.40159" lon="5.68565">
        <ele>631</ele>
        <time>2019-02-12T08:45:02Z</time>
      </trkpt>
      <trkpt lat="46.40166" lon="5.68582">
        <ele>632</ele>
        <time>2019-02-12T08:46:02Z</time>
      </trkpt>
      <trkpt lat="46.4017" lon="5.6859">
        <ele>633</ele>
        <time>2019-02-12T08:47:02Z</time>
      </trkpt>
      <trkpt lat="46.40174" lon="5.68595">
        <ele>633</ele>
        <time>2019-02-12T08:48:02Z</time>
      </trkpt>
      <trkpt lat="46.40183" lon="5.68606">
        <ele>634</ele>
        <time>2019-02-12T08:49:02Z</time>
      </trkpt>
      <trkpt lat="46.40192" lon="5.68611">
        <ele>634</ele>
        <time>2019-02-12T08:50:02Z</time>
      </trkpt>
      <trkpt lat="46.402" lon="5.68615">
        <ele>634</ele>
        <time>2019-02-12T08:51:02Z</time>
      </trkpt>
      <trkpt lat="46.40212" lon="5.68617">
        <ele>634</ele>
        <time>2019-02-12T08:52:02Z</time>
      </trkpt>
      <trkpt lat="46.4022" lon="5.68621">
        <ele>634</ele>
        <time>2019-02-12T08:53:02Z</time>
      </trkpt>
      <trkpt lat="46.40232" lon="5.68627">
        <ele>634</ele>
        <time>2019-02-12T08:54:02Z</time>
      </trkpt>
      <trkpt lat="46.4024" lon="5.68633">
        <ele>634</ele>
        <time>2019-02-12T08:55:02Z</time>
      </trkpt>
      <trkpt lat="46.40253" lon="5.68643">
        <ele>635</ele>
        <time>2019-02-12T08:56:02Z</time>
      </trkpt>
      <trkpt lat="46.40268" lon="5.68655">
        <ele>635</ele>
        <time>2019-02-12T08:57:02Z</time>
      </trkpt>
      <trkpt lat="46.40303" lon="5.68686">
        <ele>637</ele>
        <time>2019-02-12T08:58:02Z</time>
      </trkpt>
      <trkpt lat="46.40313" lon="5.68696">
        <ele>637</ele>
        <time>2019-02-12T08:59:02Z</time>
      </trkpt>
      <trkpt lat="46.40336" lon="5.68718">
        <ele>638</ele>
        <time>2019-02-12T09:00:02Z</time>
      </trkpt>
      <trkpt lat="46.40354" lon="5.68735">
        <ele>640</ele>
        <time>2019-02-12T09:01:02Z</time>
      </trkpt>
      <trkpt lat="46.40378" lon="5.68758">
        <ele>642</ele>
        <time>2019-02-12T09:02:02Z</time>
      </trkpt>
      <trkpt lat="46.40382" lon="5.68762">
        <ele>643</ele>
        <time>2019-02-12T09:03:02Z</time>
      </trkpt>
      <trkpt lat="46.404" lon="5.68786">
        <ele>646</ele>
        <time>2019-02-12T09:04:02Z</time>
      </trkpt>
      <trkpt lat="46.40408" lon="5.68795">
        <ele>647</ele>
        <time>2019-02-12T09:05:02Z</time>
      </trkpt>
      <trkpt lat="46.40417" lon="5.68803">
        <ele>648</ele>
        <time>2019-02-12T09:06:02Z</time>
      </trkpt>
      <trkpt lat="46.40426" lon="5.6881">
        <ele>649</ele>
        <time>2019-02-12T09:07:02Z</time>
      </trkpt>
      <trkpt lat="46.40437" lon="5.68816">
        <ele>649</ele>
        <time>2019-02-12T09:08:02Z</time>
      </trkpt>
      <trkpt lat="46.40445" lon="5.6882">
        <ele>649</ele>
        <time>2019-02-12T09:09:02Z</time>
      </trkpt>
      <trkpt lat="46.40457" lon="5.68824">
        <ele>649</ele>
        <time>2019-02-12T09:10:02Z</time>
      </trkpt>
      <trkpt lat="46.40468" lon="5.68826">
        <ele>649</ele>
        <time>2019-02-12T09:11:02Z</time>
      </trkpt>
      <trkpt lat="46.40486" lon="5.68829">
        <ele>648</ele>
        <time>2019-02-12T09:12:02Z</time>
      </trkpt>
      <trkpt lat="46.40506" lon="5.68833">
        <ele>648</ele>
        <time>2019-02-12T09:13:02Z</time>
      </trkpt>
      <trkpt lat="46.40524" lon="5.68837">
        <ele>648</ele>
        <time>2019-02-12T09:14:02Z</time>
      </trkpt>
      <trkpt lat="46.4054" lon="5.68843">
        <ele>648</ele>
        <time>2019-02-12T09:15:02Z</time>
      </trkpt>
      <trkpt lat="46.40553" lon="5.6885">
        <ele>649</ele>
        <time>2019-02-12T09:16:02Z</time>
      </trkpt>
      <trkpt lat="46.40564" lon="5.68859">
        <ele>650</ele>
        <time>2019-02-12T09:17:02Z</time>
      </trkpt>
      <trkpt lat="46.40573" lon="5.68876">
        <ele>652</ele>
        <time>2019-02-12T09:18:02Z</time>
      </trkpt>
      <trkpt lat="46.40582" lon="5.68894">
        <ele>654</ele>
        <time>2019-02-12T09:19:02Z</time>
      </trkpt>
      <trkpt lat="46.40593" lon="5.68914">
        <ele>656</ele>
        <time>2019-02-12T09:20:02Z</time>
      </trkpt>
      <trkpt lat="46.40604" lon="5.68935">
        <ele>659</ele>
        <time>2019-02-12T09:21:02Z</time>
      </trkpt>
      <trkpt lat="46.40613" lon="5.6895">
        <ele>661</ele>
        <time>2019-02-12T09:22:02Z</time>
      </trkpt>
      <trkpt lat="46.40621" lon="5.68964">
        <ele>663</ele>
        <time>2019-02-12T09:23:02Z</time>
      </trkpt>
      <trkpt lat="46.4063" lon="5.68978">
        <ele>665</ele>
        <time>2019-02-12T09:24:02Z</time>
      </trkpt>
      <trkpt lat="46.40638" lon="5.68988">
        <ele>666</ele>
        <time>2019-02-12T09:25:02Z</time>
      </trkpt>
      <trkpt lat="46.40646" lon="5.68994">
        <ele>666</ele>
        <time>2019-02-12T09:26:02Z</time>
      </trkpt>
      <trkpt lat="46.40657" lon="5.69001">
        <ele>666</ele>
        <time>2019-02-12T09:27:02Z</time>
      </trkpt>
      <trkpt lat="46.40672" lon="5.69004">
        <ele>665</ele>
        <time>2019-02-12T09:28:02Z</time>
      </trkpt>
      <trkpt lat="46.40683" lon="5.69003">
        <ele>664</ele>
        <time>2019-02-12T09:29:02Z</time>
      </trkpt>
      <trkpt lat="46.40697" lon="5.69002">
        <ele>664</ele>
        <time>2019-02-12T09:30:02Z</time>
      </trkpt>
      <trkpt lat="46.40704" lon="5.69003">
        <ele>664</ele>
        <time>2019-02-12T09:31:02Z</time>
      </trkpt>
      <trkpt lat="46.40711" lon="5.69004">
        <ele>664</ele>
        <time>2019-02-12T09:32:02Z</time>
      </trkpt>
      <trkpt lat="46.40724" lon="5.69008">
        <ele>664</ele>
        <time>2019-02-12T09:33:02Z</time>
      </trkpt>
      <trkpt lat="46.40738" lon="5.69014">
        <ele>665</ele>
        <time>2019-02-12T09:34:02Z</time>
      </trkpt>
      <trkpt lat="46.40751" lon="5.69019">
        <ele>665</ele>
        <time>2019-02-12T09:35:02Z</time>
      </trkpt>
      <trkpt lat="46.40759" lon="5.69021">
        <ele>666</ele>
        <time>2019-02-12T09:36:02Z</time>
      </trkpt>
      <trkpt lat="46.40767" lon="5.69022">
        <ele>666</ele>
        <time>2019-02-12T09:37:02Z</time>
      </trkpt>
      <trkpt lat="46.40778" lon="5.6902">
        <ele>667</ele>
        <time>2019-02-12T09:38:02Z</time>
      </trkpt>
      <trkpt lat="46.40792" lon="5.69016">
        <ele>666</ele>
        <time>2019-02-12T09:39:02Z</time>
      </trkpt>
      <trkpt lat="46.40804" lon="5.69013">
        <ele>666</ele>
        <time>2019-02-12T09:40:02Z</time>
      </trkpt>
      <trkpt lat="46.40818" lon="5.69013">
        <ele>667</ele>
        <time>2019-02-12T09:41:02Z</time>
      </trkpt>
      <trkpt lat="46.40828" lon="5.69017">
        <ele>668</ele>
        <time>2019-02-12T09:42:02Z</time>
      </trkpt>
      <trkpt lat="46.40834" lon="5.69021">
        <ele>669</ele>
        <time>2019-02-12T09:43:02Z</time>
      </trkpt>
      <trkpt lat="46.4084" lon="5.69028">
        <ele>669</ele>
        <time>2019-02-12T09:44:02Z</time>
      </trkpt>
      <trkpt lat="46.40851" lon="5.69044">
        <ele>670</ele>
        <time>2019-02-12T09:45:02Z</time>
      </trkpt>
      <trkpt lat="46.40863" lon="5.69061">
        <ele>671</ele>
        <time>2019-02-12T09:46:02Z</time>
      </trkpt>
      <trkpt lat="46.40873" lon="5.69076">
        <ele>672</ele>
        <time>2019-02-12T09:47:02Z</time>
      </trkpt>
      <trkpt lat="46.40876" lon="5.69083">
        <ele>672</ele>
        <time>2019-02-12T09:48:02Z</time>
      </trkpt>
      <trkpt lat="46.40879" lon="5.69089">
        <ele>672</ele>
        <time>2019-02-12T09:49:02Z</time>
      </trkpt>
      <trkpt lat="46.40881" lon="5.69096">
        <ele>673</ele>
        <time>2019-02-12T09:50:02Z</time>
      </trkpt>
      <trkpt lat="46.40883" lon="5.69102">
        <ele>673</ele>
        <time>2019-02-12T09:51:02Z</time>
      </trkpt>
      <trkpt lat="46.40884" lon="5.69118">
        <ele>674</ele>
        <time>2019-02-12T09:52:02Z</time>
      </trkpt>
      <trkpt lat="46.40885" lon="5.69153">
        <ele>678</ele>
        <time>2019-02-12T09:53:02Z</time>
      </trkpt>
      <trkpt lat="46.40887" lon="5.69176">
        <ele>679</ele>
        <time>2019-02-12T09:54:02Z</time>
      </trkpt>
      <trkpt lat="46.40887" lon="5.69189">
        <ele>680</ele>
        <time>2019-02-12T09:55:02Z</time>
      </trkpt>
      <trkpt lat="46.40887" lon="5.69206">
        <ele>681</ele>
        <time>2019-02-12T09:56:02Z</time>
      </trkpt>
      <trkpt lat="46.40885" lon="5.6922">
        <ele>682</ele>
        <time>2019-02-12T09:57:02Z</time>
      </trkpt>
      <trkpt lat="46.40881" lon="5.69238">
        <ele>683</ele>
        <time>2019-02-12T09:58:02Z</time>
      </trkpt>
      <trkpt lat="46.40875" lon="5.69263">
        <ele>685</ele>
        <time>2019-02-12T09:59:02Z</time>
      </trkpt>
      <trkpt lat="46.40869" lon="5.69295">
        <ele>687</ele>
        <time>2019-02-12T10:00:02Z</time>
      </trkpt>
      <trkpt lat="46.40864" lon="5.6933">
        <ele>689</ele>
        <time>2019-02-12T10:01:02Z</time>
      </trkpt>
      <trkpt lat="46.40863" lon="5.69362">
        <ele>691</ele>
        <time>2019-02-12T10:02:02Z</time>
      </trkpt>
      <trkpt lat="46.40866" lon="5.69378">
        <ele>691</ele>
        <time>2019-02-12T10:03:02Z</time>
      </trkpt>
      <trkpt lat="46.40869" lon="5.69385">
        <ele>691</ele>
        <time>2019-02-12T10:04:02Z</time>
      </trkpt>
      <trkpt lat="46.40876" lon="5.69397">
        <ele>691</ele>
        <time>2019-02-12T10:05:02Z</time>
      </trkpt>
      <trkpt lat="46.40886" lon="5.6941">
        <ele>690</ele>
        <time>2019-02-12T10:06:02Z</time>
      </trkpt>
      <trkpt lat="46.40897" lon="5.69421">
        <ele>690</ele>
        <time>2019-02-12T10:07:02Z</time>
      </trkpt>
      <trkpt lat="46.40903" lon="5.69432">
        <ele>690</ele>
        <time>2019-02-12T10:08:02Z</time>
      </trkpt>
      <trkpt lat="46.40907" lon="5.69451">
        <ele>691</ele>
        <time>2019-02-12T10:09:02Z</time>
      </trkpt>
      <trkpt lat="46.40908" lon="5.69465">
        <ele>692</ele>
        <time>2019-02-12T10:10:02Z</time>
      </trkpt>
      <trkpt lat="46.40907" lon="5.69497">
        <ele>695</ele>
        <time>2019-02-12T10:11:02Z</time>
      </trkpt>
      <trkpt lat="46.40907" lon="5.69529">
        <ele>697</ele>
        <time>2019-02-12T10:12:02Z</time>
      </trkpt>
      <trkpt lat="46.40907" lon="5.6954">
        <ele>697</ele>
        <time>2019-02-12T10:13:02Z</time>
      </trkpt>
      <trkpt lat="46.40909" lon="5.69556">
        <ele>698</ele>
        <time>2019-02-12T10:14:02Z</time>
      </trkpt>
      <trkpt lat="46.40915" lon="5.69572">
        <ele>698</ele>
        <time>2019-02-12T10:15:02Z</time>
      </trkpt>
      <trkpt lat="46.40925" lon="5.6959">
        <ele>698</ele>
        <time>2019-02-12T10:16:02Z</time>
      </trkpt>
      <trkpt lat="46.40929" lon="5.696">
        <ele>698</ele>
        <time>2019-02-12T10:17:02Z</time>
      </trkpt>
      <trkpt lat="46.40931" lon="5.69615">
        <ele>699</ele>
        <time>2019-02-12T10:18:02Z</time>
      </trkpt>
      <trkpt lat="46.40935" lon="5.69636">
        <ele>700</ele>
        <time>2019-02-12T10:19:02Z</time>
      </trkpt>
      <trkpt lat="46.40938" lon="5.69649">
        <ele>701</ele>
        <time>2019-02-12T10:20:02Z</time>
      </trkpt>
      <trkpt lat="46.40943" lon="5.69665">
        <ele>702</ele>
        <time>2019-02-12T10:21:02Z</time>
      </trkpt>
      <trkpt lat="46.40948" lon="5.69674">
        <ele>702</ele>
        <time>2019-02-12T10:22:02Z</time>
      </trkpt>
      <trkpt lat="46.40956" lon="5.69683">
        <ele>703</ele>
        <time>2019-02-12T10:23:02Z</time>
      </trkpt>
      <trkpt lat="46.40967" lon="5.69692">
        <ele>703</ele>
        <time>2019-02-12T10:24:02Z</time>
      </trkpt>
      <trkpt lat="46.40976" lon="5.69702">
        <ele>703</ele>
        <time>2019-02-12T10:25:02Z</time>
      </trkpt>
      <trkpt lat="46.40985" lon="5.69718">
        <ele>704</ele>
        <time>2019-02-12T10:26:02Z</time>
      </trkpt>
      <trkpt lat="46.40995" lon="5.69739">
        <ele>706</ele>
        <time>2019-02-12T10:27:02Z</time>
      </trkpt>
      <trkpt lat="46.41001" lon="5.69755">
        <ele>708</ele>
        <time>2019-02-12T10:28:02Z</time>
      </trkpt>
      <trkpt lat="46.41009" lon="5.69775">
        <ele>711</ele>
        <time>2019-02-12T10:29:02Z</time>
      </trkpt>
      <trkpt lat="46.41023" lon="5.69808">
        <ele>716</ele>
        <time>2019-02-12T10:30:02Z</time>
      </trkpt>
      <trkpt lat="46.41033" lon="5.69831">
        <ele>718</ele>
        <time>2019-02-12T10:31:02Z</time>
      </trkpt>
      <trkpt lat="46.41042" lon="5.69845">
        <ele>718</ele>
        <time>2019-02-12T10:32:02Z</time>
      </trkpt>
      <trkpt lat="46.41052" lon="5.69857">
        <ele>719</ele>
        <time>2019-02-12T10:33:02Z</time>
      </trkpt>
      <trkpt lat="46.41073" lon="5.6987">
        <ele>718</ele>
        <time>2019-02-12T10:34:02Z</time>
      </trkpt>
      <trkpt lat="46.41084" lon="5.69872">
        <ele>717</ele>
        <time>2019-02-12T10:35:02Z</time>
      </trkpt>
      <trkpt lat="46.41095" lon="5.69873">
        <ele>715</ele>
        <time>2019-02-12T10:36:02Z</time>
      </trkpt>
      <trkpt lat="46.41112" lon="5.69876">
        <ele>714</ele>
        <time>2019-02-12T10:37:02Z</time>
      </trkpt>
      <trkpt lat="46.4112" lon="5.69882">
        <ele>713</ele>
        <time>2019-02-12T10:38:02Z</time>
      </trkpt>
      <trkpt lat="46.41126" lon="5.69891">
        <ele>713</ele>
        <time>2019-02-12T10:39:02Z</time>
      </trkpt>
      <trkpt lat="46.41133" lon="5.69919">
        <ele>714</ele>
        <time>2019-02-12T10:40:02Z</time>
      </trkpt>
      <trkpt lat="46.41134" lon="5.69933">
        <ele>715</ele>
        <time>2019-02-12T10:41:02Z</time>
      </trkpt>
      <trkpt lat="46.41134" lon="5.69951">
        <ele>717</ele>
        <time>2019-02-12T10:42:02Z</time>
      </trkpt>
      <trkpt lat="46.41134" lon="5.69979">
        <ele>719</ele>
        <time>2019-02-12T10:43:02Z</time>
      </trkpt>
      <trkpt lat="46.41134" lon="5.69999">
        <ele>721</ele>
        <time>2019-02-12T10:44:02Z</time>
      </trkpt>
      <trkpt lat="46.41136" lon="5.70017">
        <ele>721</ele>
        <time>2019-02-12T10:45:02Z</time>
      </trkpt>
      <trkpt lat="46.41139" lon="5.70042">
        <ele>721</ele>
        <time>2019-02-12T10:46:02Z</time>
      </trkpt>
      <trkpt lat="46.41142" lon="5.7006">
        <ele>720</ele>
        <time>2019-02-12T10:47:02Z</time>
      </trkpt>
      <trkpt lat="46.41148" lon="5.70095">
        <ele>720</ele>
        <time>2019-02-12T10:48:02Z</time>
      </trkpt>
      <trkpt lat="46.41152" lon="5.70117">
        <ele>720</ele>
        <time>2019-02-12T10:49:02Z</time>
      </trkpt>
      <trkpt lat="46.41154" lon="5.7014">
        <ele>720</ele>
        <time>2019-02-12T10:50:02Z</time>
      </trkpt>
      <trkpt lat="46.41155" lon="5.70174">
        <ele>720</ele>
        <time>2019-02-12T10:51:02Z</time>
      </trkpt>
      <trkpt lat="46.41155" lon="5.70195">
        <ele>720</ele>
        <time>2019-02-12T10:52:02Z</time>
      </trkpt>
      <trkpt lat="46.41154" lon="5.70213">
        <ele>720</ele>
        <time>2019-02-12T10:53:02Z</time>
      </trkpt>
      <trkpt lat="46.41156" lon="5.70237">
        <ele>720</ele>
        <time>2019-02-12T10:54:02Z</time>
      </trkpt>
      <trkpt lat="46.41159" lon="5.70245">
        <ele>719</ele>
        <time>2019-02-12T10:55:02Z</time>
      </trkpt>
      <trkpt lat="46.41162" lon="5.70254">
        <ele>718</ele>
        <time>2019-02-12T10:56:02Z</time>
      </trkpt>
      <trkpt lat="46.41171" lon="5.70264">
        <ele>718</ele>
        <time>2019-02-12T10:57:02Z</time>
      </trkpt>
      <trkpt lat="46.4118" lon="5.70276">
        <ele>719</ele>
        <time>2019-02-12T10:58:02Z</time>
      </trkpt>
      <trkpt lat="46.41186" lon="5.70287">
        <ele>720</ele>
        <time>2019-02-12T10:59:02Z</time>
      </trkpt>
      <trkpt lat="46.41188" lon="5.70298">
        <ele>720</ele>
        <time>2019-02-12T11:00:02Z</time>
      </trkpt>
      <trkpt lat="46.41191" lon="5.7031">
        <ele>721</ele>
        <time>2019-02-12T11:01:02Z</time>
      </trkpt>
      <trkpt lat="46.41193" lon="5.7032">
        <ele>721</ele>
        <time>2019-02-12T11:02:02Z</time>
      </trkpt>
      <trkpt lat="46.41197" lon="5.70344">
        <ele>721</ele>
        <time>2019-02-12T11:03:02Z</time>
      </trkpt>
      <trkpt lat="46.41201" lon="5.70363">
        <ele>721</ele>
        <time>2019-02-12T11:04:02Z</time>
      </trkpt>
      <trkpt lat="46.41203" lon="5.70373">
        <ele>721</ele>
        <time>2019-02-12T11:05:02Z</time>
      </trkpt>
      <trkpt lat="46.41211" lon="5.70405">
        <ele>722</ele>
        <time>2019-02-12T11:06:02Z</time>
      </trkpt>
      <trkpt lat="46.41222" lon="5.70449">
        <ele>722</ele>
        <time>2019-02-12T11:07:02Z</time>
      </trkpt>
      <trkpt lat="46.41224" lon="5.70458">
        <ele>722</ele>
        <time>2019-02-12T11:08:02Z</time>
      </trkpt>
      <trkpt lat="46.41226" lon="5.70474">
        <ele>722</ele>
        <time>2019-02-12T11:09:02Z</time>
      </trkpt>
      <trkpt lat="46.41227" lon="5.70497">
        <ele>722</ele>
        <time>2019-02-12T11:10:02Z</time>
      </trkpt>
      <trkpt lat="46.41227" lon="5.70516">
        <ele>722</ele>
        <time>2019-02-12T11:11:02Z</time>
      </trkpt>
      <trkpt lat="46.41227" lon="5.70532">
        <ele>722</ele>
        <time>2019-02-12T11:12:02Z</time>
      </trkpt>
      <trkpt lat="46.41227" lon="5.70546">
        <ele>722</ele>
        <time>2019-02-12T11:13:02Z</time>
      </trkpt>
      <trkpt lat="46.41226" lon="5.70569">
        <ele>722</ele>
        <time>2019-02-12T11:14:02Z</time>
      </trkpt>
      <trkpt lat="46.41226" lon="5.70585">
        <ele>722</ele>
        <time>2019-02-12T11:15:02Z</time>
      </trkpt>
      <trkpt lat="46.41225" lon="5.70604">
        <ele>722</ele>
        <time>2019-02-12T11:16:02Z</time>
      </trkpt>
      <trkpt lat="46.41224" lon="5.7063">
        <ele>722</ele>
        <time>2019-02-12T11:17:02Z</time>
      </trkpt>
      <trkpt lat="46.41222" lon="5.7065">
        <ele>723</ele>
        <time>2019-02-12T11:18:02Z</time>
      </trkpt>
      <trkpt lat="46.4122" lon="5.70669">
        <ele>723</ele>
        <time>2019-02-12T11:19:02Z</time>
      </trkpt>
      <trkpt lat="46.41216" lon="5.70693">
        <ele>723</ele>
        <time>2019-02-12T11:20:02Z</time>
      </trkpt>
      <trkpt lat="46.41211" lon="5.70713">
        <ele>723</ele>
        <time>2019-02-12T11:21:02Z</time>
      </trkpt>
      <trkpt lat="46.41204" lon="5.70731">
        <ele>723</ele>
        <time>2019-02-12T11:22:02Z</time>
      </trkpt>
      <trkpt lat="46.41195" lon="5.70751">
        <ele>724</ele>
        <time>2019-02-12T11:23:02Z</time>
      </trkpt>
      <trkpt lat="46.41186" lon="5.7077">
        <ele>724</ele>
        <time>2019-02-12T11:24:02Z</time>
      </trkpt>
      <trkpt lat="46.41168" lon="5.70811">
        <ele>726</ele>
        <time>2019-02-12T11:25:02Z</time>
      </trkpt>
      <trkpt lat="46.41163" lon="5.70828">
        <ele>725</ele>
        <time>2019-02-12T11:26:02Z</time>
      </trkpt>
      <trkpt lat="46.4116" lon="5.70839">
        <ele>725</ele>
        <time>2019-02-12T11:27:02Z</time>
      </trkpt>
      <trkpt lat="46.41157" lon="5.70853">
        <ele>725</ele>
        <time>2019-02-12T11:28:02Z</time>
      </trkpt>
      <trkpt lat="46.41155" lon="5.7087">
        <ele>725</ele>
        <time>2019-02-12T11:29:02Z</time>
      </trkpt>
      <trkpt lat="46.41153" lon="5.70884">
        <ele>725</ele>
        <time>2019-02-12T11:30:02Z</time>
      </trkpt>
      <trkpt lat="46.41148" lon="5.70899">
        <ele>725</ele>
        <time>2019-02-12T11:31:02Z</time>
      </trkpt>
      <trkpt lat="46.41144" lon="5.70908">
        <ele>725</ele>
        <time>2019-02-12T11:32:02Z</time>
      </trkpt>
      <trkpt lat="46.41135" lon="5.70925">
        <ele>726</ele>
        <time>2019-02-12T11:33:02Z</time>
      </trkpt>
      <trkpt lat="46.41127" lon="5.70939">
        <ele>726</ele>
        <time>2019-02-12T11:34:02Z</time>
      </trkpt>
      <trkpt lat="46.41122" lon="5.70952">
        <ele>726</ele>
        <time>2019-02-12T11:35:02Z</time>
      </trkpt>
      <trkpt lat="46.41116" lon="5.70967">
        <ele>727</ele>
        <time>2019-02-12T11:36:02Z</time>
      </trkpt>
      <trkpt lat="46.41109" lon="5.70988">
        <ele>727</ele>
        <time>2019-02-12T11:37:02Z</time>
      </trkpt>
      <trkpt lat="46.41102" lon="5.71008">
        <ele>727</ele>
        <time>2019-02-12T11:38:02Z</time>
      </trkpt>
      <trkpt lat="46.41094" lon="5.71029">
        <ele>726</ele>
        <time>2019-02-12T11:39:02Z</time>
      </trkpt>
      <trkpt lat="46.41081" lon="5.71067">
        <ele>725</ele>
        <time>2019-02-12T11:40:02Z</time>
      </trkpt>
      <trkpt lat="46.41076" lon="5.71081">
        <ele>725</ele>
        <time>2019-02-12T11:41:02Z</time>
      </trkpt>
      <trkpt lat="46.41074" lon="5.71092">
        <ele>724</ele>
        <time>2019-02-12T11:42:02Z</time>
      </trkpt>
      <trkpt lat="46.41071" lon="5.71103">
        <ele>723</ele>
        <time>2019-02-12T11:43:02Z</time>
      </trkpt>
      <trkpt lat="46.41069" lon="5.71113">
        <ele>722</ele>
        <time>2019-02-12T11:44:02Z</time>
      </trkpt>
      <trkpt lat="46.41066" lon="5.71124">
        <ele>721</ele>
        <time>2019-02-12T11:45:02Z</time>
      </trkpt>
      <trkpt lat="46.4106" lon="5.7114">
        <ele>720</ele>
        <time>2019-02-12T11:46:02Z</time>
      </trkpt>
      <trkpt lat="46.41053" lon="5.71154">
        <ele>718</ele>
        <time>2019-02-12T11:47:02Z</time>
      </trkpt>
      <trkpt lat="46.41046" lon="5.71167">
        <ele>718</ele>
        <time>2019-02-12T11:48:02Z</time>
      </trkpt>
      <trkpt lat="46.41039" lon="5.71178">
        <ele>716</ele>
        <time>2019-02-12T11:49:02Z</time>
      </trkpt>
      <trkpt lat="46.41022" lon="5.71204">
        <ele>712</ele>
        <time>2019-02-12T11:50:02Z</time>
      </trkpt>
      <trkpt lat="46.41012" lon="5.71217">
        <ele>711</ele>
        <time>2019-02-12T11:51:02Z</time>
      </trkpt>
      <trkpt lat="46.41002" lon="5.71227">
        <ele>709</ele>
        <time>2019-02-12T11:52:02Z</time>
      </trkpt>
      <trkpt lat="46.40986" lon="5.71238">
        <ele>708</ele>
        <time>2019-02-12T11:53:02Z</time>
      </trkpt>
      <trkpt lat="46.40974" lon="5.71247">
        <ele>706</ele>
        <time>2019-02-12T11:54:02Z</time>
      </trkpt>
      <trkpt lat="46.40957" lon="5.71258">
        <ele>705</ele>
        <time>2019-02-12T11:55:02Z</time>
      </trkpt>
      <trkpt lat="46.40948" lon="5.71263">
        <ele>704</ele>
        <time>2019-02-12T11:56:02Z</time>
      </trkpt>
      <trkpt lat="46.40938" lon="5.71265">
        <ele>704</ele>
        <time>2019-02-12T11:57:02Z</time>
      </trkpt>
      <trkpt lat="46.40928" lon="5.71264">
        <ele>705</ele>
        <time>2019-02-12T11:58:02Z</time>
      </trkpt>
      <trkpt lat="46.4092" lon="5.71262">
        <ele>705</ele>
        <time>2019-02-12T11:59:02Z</time>
      </trkpt>
      <trkpt lat="46.40909" lon="5.71257">
        <ele>706</ele>
        <time>2019-02-12T12:00:02Z</time>
      </trkpt>
      <trkpt lat="46.40897" lon="5.71252">
        <ele>707</ele>
        <time>2019-02-12T12:01:02Z</time>
      </trkpt>
      <trkpt lat="46.40894" lon="5.71251">
        <ele>707</ele>
        <time>2019-02-12T12:02:02Z</time>
      </trkpt>
      <trkpt lat="46.40888" lon="5.71248">
        <ele>707</ele>
        <time>2019-02-12T12:03:02Z</time>
      </trkpt>
      <trkpt lat="46.40886" lon="5.71248">
        <ele>707</ele>
        <time>2019-02-12T12:04:02Z</time>
      </trkpt>
      <trkpt lat="46.40876" lon="5.71255">
        <ele>706</ele>
        <time>2019-02-12T12:05:02Z</time>
      </trkpt>
      <trkpt lat="46.4087" lon="5.71263">
        <ele>706</ele>
        <time>2019-02-12T12:06:02Z</time>
      </trkpt>
      <trkpt lat="46.40868" lon="5.71271">
        <ele>705</ele>
        <time>2019-02-12T12:07:02Z</time>
      </trkpt>
      <trkpt lat="46.40868" lon="5.71275">
        <ele>705</ele>
        <time>2019-02-12T12:08:02Z</time>
      </trkpt>
      <trkpt lat="46.4087" lon="5.71283">
        <ele>704</ele>
        <time>2019-02-12T12:09:02Z</time>
      </trkpt>
      <trkpt lat="46.40872" lon="5.71288">
        <ele>704</ele>
        <time>2019-02-12T12:10:02Z</time>
      </trkpt>
      <trkpt lat="46.40874" lon="5.71292">
        <ele>703</ele>
        <time>2019-02-12T12:11:02Z</time>
      </trkpt>
      <trkpt lat="46.40879" lon="5.71297">
        <ele>703</ele>
        <time>2019-02-12T12:12:02Z</time>
      </trkpt>
      <trkpt lat="46.40883" lon="5.71299">
        <ele>702</ele>
        <time>2019-02-12T12:13:02Z</time>
      </trkpt>
      <trkpt lat="46.40889" lon="5.713">
        <ele>702</ele>
        <time>2019-02-12T12:14:02Z</time>
      </trkpt>
      <trkpt lat="46.40901" lon="5.71301">
        <ele>701</ele>
        <time>2019-02-12T12:15:02Z</time>
      </trkpt>
      <trkpt lat="46.40914" lon="5.71301">
        <ele>700</ele>
        <time>2019-02-12T12:16:02Z</time>
      </trkpt>
      <trkpt lat="46.40922" lon="5.71301">
        <ele>700</ele>
        <time>2019-02-12T12:17:02Z</time>
      </trkpt>
      <trkpt lat="46.4093" lon="5.71301">
        <ele>700</ele>
        <time>2019-02-12T12:18:02Z</time>
      </trkpt>
      <trkpt lat="46.40942" lon="5.71303">
        <ele>699</ele>
        <time>2019-02-12T12:19:02Z</time>
      </trkpt>
      <trkpt lat="46.40949" lon="5.71305">
        <ele>698</ele>
        <time>2019-02-12T12:20:02Z</time>
      </trkpt>
      <trkpt lat="46.40958" lon="5.71304">
        <ele>698</ele>
        <time>2019-02-12T12:21:02Z</time>
      </trkpt>
      <trkpt lat="46.40969" lon="5.71308">
        <ele>697</ele>
        <time>2019-02-12T12:22:02Z</time>
      </trkpt>
      <trkpt lat="46.40985" lon="5.71314">
        <ele>696</ele>
        <time>2019-02-12T12:23:02Z</time>
      </trkpt>
      <trkpt lat="46.41001" lon="5.7132">
        <ele>694</ele>
        <time>2019-02-12T12:24:02Z</time>
      </trkpt>
      <trkpt lat="46.41016" lon="5.71325">
        <ele>692</ele>
        <time>2019-02-12T12:25:02Z</time>
      </trkpt>
      <trkpt lat="46.41035" lon="5.71332">
        <ele>690</ele>
        <time>2019-02-12T12:26:02Z</time>
      </trkpt>
      <trkpt lat="46.41048" lon="5.71337">
        <ele>689</ele>
        <time>2019-02-12T12:27:02Z</time>
      </trkpt>
      <trkpt lat="46.41062" lon="5.71343">
        <ele>688</ele>
        <time>2019-02-12T12:28:02Z</time>
      </trkpt>
      <trkpt lat="46.41081" lon="5.71349">
        <ele>687</ele>
        <time>2019-02-12T12:29:02Z</time>
      </trkpt>
      <trkpt lat="46.41095" lon="5.71355">
        <ele>687</ele>
        <time>2019-02-12T12:30:02Z</time>
      </trkpt>
      <trkpt lat="46.41111" lon="5.71359">
        <ele>686</ele>
        <time>2019-02-12T12:31:02Z</time>
      </trkpt>
      <trkpt lat="46.41126" lon="5.71363">
        <ele>685</ele>
        <time>2019-02-12T12:32:02Z</time>
      </trkpt>
      <trkpt lat="46.4114" lon="5.71366">
        <ele>684</ele>
        <time>2019-02-12T12:33:02Z</time>
      </trkpt>
      <trkpt lat="46.41155" lon="5.71368">
        <ele>683</ele>
        <time>2019-02-12T12:34:02Z</time>
      </trkpt>
      <trkpt lat="46.41171" lon="5.71367">
        <ele>683</ele>
        <time>2019-02-12T12:35:02Z</time>
      </trkpt>
      <trkpt lat="46.41184" lon="5.71367">
        <ele>682</ele>
        <time>2019-02-12T12:36:02Z</time>
      </trkpt>
      <trkpt lat="46.41193" lon="5.71369">
        <ele>681</ele>
        <time>2019-02-12T12:37:02Z</time>
      </trkpt>
      <trkpt lat="46.41201" lon="5.71373">
        <ele>680</ele>
        <time>2019-02-12T12:38:02Z</time>
      </trkpt>
      <trkpt lat="46.41206" lon="5.71378">
        <ele>679</ele>
        <time>2019-02-12T12:39:02Z</time>
      </trkpt>
      <trkpt lat="46.41213" lon="5.71387">
        <ele>678</ele>
        <time>2019-02-12T12:40:02Z</time>
      </trkpt>
      <trkpt lat="46.41218" lon="5.71396">
        <ele>676</ele>
        <time>2019-02-12T12:41:02Z</time>
      </trkpt>
      <trkpt lat="46.41223" lon="5.71409">
        <ele>675</ele>
        <time>2019-02-12T12:42:02Z</time>
      </trkpt>
      <trkpt lat="46.41226" lon="5.71422">
        <ele>674</ele>
        <time>2019-02-12T12:43:02Z</time>
      </trkpt>
      <trkpt lat="46.41231" lon="5.71438">
        <ele>673</ele>
        <time>2019-02-12T12:44:02Z</time>
      </trkpt>
      <trkpt lat="46.41235" lon="5.71457">
        <ele>673</ele>
        <time>2019-02-12T12:45:02Z</time>
      </trkpt>
      <trkpt lat="46.4124" lon="5.71474">
        <ele>672</ele>
        <time>2019-02-12T12:46:02Z</time>
      </trkpt>
      <trkpt lat="46.41242" lon="5.71487">
        <ele>672</ele>
        <time>2019-02-12T12:47:02Z</time>
      </trkpt>
      <trkpt lat="46.41246" lon="5.71502">
        <ele>671</ele>
        <time>2019-02-12T12:48:02Z</time>
      </trkpt>
      <trkpt lat="46.41251" lon="5.7152">
        <ele>672</ele>
        <time>2019-02-12T12:49:02Z</time>
      </trkpt>
      <trkpt lat="46.41256" lon="5.71537">
        <ele>671</ele>
        <time>2019-02-12T12:50:02Z</time>
      </trkpt>
      <trkpt lat="46.41261" lon="5.71555">
        <ele>671</ele>
        <time>2019-02-12T12:51:02Z</time>
      </trkpt>
      <trkpt lat="46.41264" lon="5.71571">
        <ele>671</ele>
        <time>2019-02-12T12:52:02Z</time>
      </trkpt>
      <trkpt lat="46.41269" lon="5.71596">
        <ele>672</ele>
        <time>2019-02-12T12:53:02Z</time>
      </trkpt>
      <trkpt lat="46.4127" lon="5.71616">
        <ele>673</ele>
        <time>2019-02-12T12:54:02Z</time>
      </trkpt>
      <trkpt lat="46.41268" lon="5.71631">
        <ele>675</ele>
        <time>2019-02-12T12:55:02Z</time>
      </trkpt>
      <trkpt lat="46.41267" lon="5.71646">
        <ele>677</ele>
        <time>2019-02-12T12:56:02Z</time>
      </trkpt>
      <trkpt lat="46.41267" lon="5.71661">
        <ele>678</ele>
        <time>2019-02-12T12:57:02Z</time>
      </trkpt>
      <trkpt lat="46.41268" lon="5.71675">
        <ele>679</ele>
        <time>2019-02-12T12:58:02Z</time>
      </trkpt>
      <trkpt lat="46.4127" lon="5.71681">
        <ele>679</ele>
        <time>2019-02-12T12:59:02Z</time>
      </trkpt>
      <trkpt lat="46.41274" lon="5.71693">
        <ele>679</ele>
        <time>2019-02-12T13:00:02Z</time>
      </trkpt>
      <trkpt lat="46.4128" lon="5.71705">
        <ele>679</ele>
        <time>2019-02-12T13:01:02Z</time>
      </trkpt>
      <trkpt lat="46.41289" lon="5.71716">
        <ele>678</ele>
        <time>2019-02-12T13:02:02Z</time>
      </trkpt>
      <trkpt lat="46.41299" lon="5.71727">
        <ele>676</ele>
        <time>2019-02-12T13:03:02Z</time>
      </trkpt>
      <trkpt lat="46.41307" lon="5.71734">
        <ele>674</ele>
        <time>2019-02-12T13:04:02Z</time>
      </trkpt>
      <trkpt lat="46.41316" lon="5.71743">
        <ele>672</ele>
        <time>2019-02-12T13:05:02Z</time>
      </trkpt>
      <trkpt lat="46.41325" lon="5.71753">
        <ele>671</ele>
        <time>2019-02-12T13:06:02Z</time>
      </trkpt>
      <trkpt lat="46.41337" lon="5.71765">
        <ele>669</ele>
        <time>2019-02-12T13:07:02Z</time>
      </trkpt>
      <trkpt lat="46.41346" lon="5.71776">
        <ele>669</ele>
        <time>2019-02-12T13:08:02Z</time>
      </trkpt>
      <trkpt lat="46.41352" lon="5.71786">
        <ele>669</ele>
        <time>2019-02-12T13:09:02Z</time>
      </trkpt>
      <trkpt lat="46.41359" lon="5.718">
        <ele>668</ele>
        <time>2019-02-12T13:10:02Z</time>
      </trkpt>
      <trkpt lat="46.41366" lon="5.7182">
        <ele>669</ele>
        <time>2019-02-12T13:11:02Z</time>
      </trkpt>
      <trkpt lat="46.41371" lon="5.71838">
        <ele>669</ele>
        <time>2019-02-12T13:12:02Z</time>
      </trkpt>
      <trkpt lat="46.41376" lon="5.71858">
        <ele>669</ele>
        <time>2019-02-12T13:13:02Z</time>
      </trkpt>
      <trkpt lat="46.41379" lon="5.71871">
        <ele>668</ele>
        <time>2019-02-12T13:14:02Z</time>
      </trkpt>
      <trkpt lat="46.41381" lon="5.71882">
        <ele>668</ele>
        <time>2019-02-12T13:15:02Z</time>
      </trkpt>
      <trkpt lat="46.4138" lon="5.71901">
        <ele>669</ele>
        <time>2019-02-12T13:16:02Z</time>
      </trkpt>
      <trkpt lat="46.41377" lon="5.71915">
        <ele>670</ele>
        <time>2019-02-12T13:17:02Z</time>
      </trkpt>
      <trkpt lat="46.41374" lon="5.71926">
        <ele>671</ele>
        <time>2019-02-12T13:18:02Z</time>
      </trkpt>
      <trkpt lat="46.41366" lon="5.71944">
        <ele>673</ele>
        <time>2019-02-12T13:19:02Z</time>
      </trkpt>
      <trkpt lat="46.4136" lon="5.7196">
        <ele>674</ele>
        <time>2019-02-12T13:20:02Z</time>
      </trkpt>
      <trkpt lat="46.41353" lon="5.7198">
        <ele>674</ele>
        <time>2019-02-12T13:21:02Z</time>
      </trkpt>
      <trkpt lat="46.41344" lon="5.72005">
        <ele>673</ele>
        <time>2019-02-12T13:22:02Z</time>
      </trkpt>
      <trkpt lat="46.41338" lon="5.72026">
        <ele>669</ele>
        <time>2019-02-12T13:23:02Z</time>
      </trkpt>
      <trkpt lat="46.41333" lon="5.72044">
        <ele>666</ele>
        <time>2019-02-12T13:24:02Z</time>
      </trkpt>
      <trkpt lat="46.4133" lon="5.7206">
        <ele>664</ele>
        <time>2019-02-12T13:25:02Z</time>
      </trkpt>
      <trkpt lat="46.41327" lon="5.72074">
        <ele>662</ele>
        <time>2019-02-12T13:26:02Z</time>
      </trkpt>
      <trkpt lat="46.41324" lon="5.72091">
        <ele>660</ele>
        <time>2019-02-12T13:27:02Z</time>
      </trkpt>
      <trkpt lat="46.41324" lon="5.72095">
        <ele>660</ele>
        <time>2019-02-12T13:28:02Z</time>
      </trkpt>
      <trkpt lat="46.41322" lon="5.72106">
        <ele>659</ele>
        <time>2019-02-12T13:29:02Z</time>
      </trkpt>
      <trkpt lat="46.41319" lon="5.72128">
        <ele>658</ele>
        <time>2019-02-12T13:30:02Z</time>
      </trkpt>
      <trkpt lat="46.41315" lon="5.72153">
        <ele>655</ele>
        <time>2019-02-12T13:31:02Z</time>
      </trkpt>
      <trkpt lat="46.4131" lon="5.72177">
        <ele>654</ele>
        <time>2019-02-12T13:32:02Z</time>
      </trkpt>
      <trkpt lat="46.41305" lon="5.72187">
        <ele>654</ele>
        <time>2019-02-12T13:33:02Z</time>
      </trkpt>
      <trkpt lat="46.41301" lon="5.72199">
        <ele>653</ele>
        <time>2019-02-12T13:34:02Z</time>
      </trkpt>
      <trkpt lat="46.41295" lon="5.72217">
        <ele>653</ele>
        <time>2019-02-12T13:35:02Z</time>
      </trkpt>
      <trkpt lat="46.4129" lon="5.72229">
        <ele>653</ele>
        <time>2019-02-12T13:36:02Z</time>
      </trkpt>
      <trkpt lat="46.41285" lon="5.72244">
        <ele>652</ele>
        <time>2019-02-12T13:37:02Z</time>
      </trkpt>
      <trkpt lat="46.41283" lon="5.72256">
        <ele>651</ele>
        <time>2019-02-12T13:38:02Z</time>
      </trkpt>
      <trkpt lat="46.41282" lon="5.72267">
        <ele>652</ele>
        <time>2019-02-12T13:39:02Z</time>
      </trkpt>
      <trkpt lat="46.41283" lon="5.72277">
        <ele>652</ele>
        <time>2019-02-12T13:40:02Z</time>
      </trkpt>
      <trkpt lat="46.41286" lon="5.72292">
        <ele>652</ele>
        <time>2019-02-12T13:41:02Z</time>
      </trkpt>
      <trkpt lat="46.41287" lon="5.72293">
        <ele>652</ele>
        <time>2019-02-12T13:42:02Z</time>
      </trkpt>
      <trkpt lat="46.41294" lon="5.72307">
        <ele>652</ele>
        <time>2019-02-12T13:43:02Z</time>
      </trkpt>
      <trkpt lat="46.41299" lon="5.72316">
        <ele>651</ele>
        <time>2019-02-12T13:44:02Z</time>
      </trkpt>
      <trkpt lat="46.41305" lon="5.72331">
        <ele>651</ele>
        <time>2019-02-12T13:45:02Z</time>
      </trkpt>
      <trkpt lat="46.41308" lon="5.72339">
        <ele>651</ele>
        <time>2019-02-12T13:46:02Z</time>
      </trkpt>
      <trkpt lat="46.41308" lon="5.72339">
        <ele>651</ele>
        <time>2019-02-12T13:47:02Z</time>
      </trkpt>
      <trkpt lat="46.41307" lon="5.72341">
        <ele>652</ele>
        <time>2019-02-12T13:48:02Z</time>
      </trkpt>
      <trkpt lat="46.41307" lon="5.72342">
        <ele>652</ele>
        <time>2019-02-12T13:49:02Z</time>
      </trkpt>
      <trkpt lat="46.41307" lon="5.72344">
        <ele>652</ele>
        <time>2019-02-12T13:50:02Z</time>
      </trkpt>
      <trkpt lat="46.41307" lon="5.72346">
        <ele>652</ele>
        <time>2019-02-12T13:51:02Z</time>
      </trkpt>
      <trkpt lat="46.41307" lon="5.72348">
        <ele>652</ele>
        <time>2019-02-12T13:52:02Z</time>
      </trkpt>
      <trkpt lat="46.41307" lon="5.7235">
        <ele>652</ele>
        <time>2019-02-12T13:53:02Z</time>
      </trkpt>
      <trkpt lat="46.41307" lon="5.72351">
        <ele>652</ele>
        <time>2019-02-12T13:54:02Z</time>
      </trkpt>
      <trkpt lat="46.41307" lon="5.72353">
        <ele>652</ele>
        <time>2019-02-12T13:55:02Z</time>
      </trkpt>
      <trkpt lat="46.41307" lon="5.72358">
        <ele>652</ele>
        <time>2019-02-12T13:56:02Z</time>
      </trkpt>
      <trkpt lat="46.41308" lon="5.72362">
        <ele>652</ele>
        <time>2019-02-12T13:57:02Z</time>
      </trkpt>
      <trkpt lat="46.41309" lon="5.72367">
        <ele>652</ele>
        <time>2019-02-12T13:58:02Z</time>
      </trkpt>
      <trkpt lat="46.41311" lon="5.72371">
        <ele>653</ele>
        <time>2019-02-12T13:59:02Z</time>
      </trkpt>
      <trkpt lat="46.41313" lon="5.72375">
        <ele>653</ele>
        <time>2019-02-12T14:00:02Z</time>
      </trkpt>
      <trkpt lat="46.41315" lon="5.72379">
        <ele>653</ele>
        <time>2019-02-12T14:01:02Z</time>
      </trkpt>
      <trkpt lat="46.41317" lon="5.72382">
        <ele>653</ele>
        <time>2019-02-12T14:02:02Z</time>
      </trkpt>
      <trkpt lat="46.41319" lon="5.72385">
        <ele>653</ele>
        <time>2019-02-12T14:03:02Z</time>
      </trkpt>
      <trkpt lat="46.41321" lon="5.72386">
        <ele>653</ele>
        <time>2019-02-12T14:04:02Z</time>
      </trkpt>
      <trkpt lat="46.41322" lon="5.72387">
        <ele>653</ele>
        <time>2019-02-12T14:05:02Z</time>
      </trkpt>
      <trkpt lat="46.41323" lon="5.72388">
        <ele>653</ele>
        <time>2019-02-12T14:06:02Z</time>
      </trkpt>
      <trkpt lat="46.41324" lon="5.72389">
        <ele>653</ele>
        <time>2019-02-12T14:07:02Z</time>
      </trkpt>
      <trkpt lat="46.41325" lon="5.7239">
        <ele>653</ele>
        <time>2019-02-12T14:08:02Z</time>
      </trkpt>
      <trkpt lat="46.41326" lon="5.72391">
        <ele>653</ele>
        <time>2019-02-12T14:09:02Z</time>
      </trkpt>
      <trkpt lat="46.41327" lon="5.72391">
        <ele>653</ele>
        <time>2019-02-12T14:10:02Z</time>
      </trkpt>
      <trkpt lat="46.41329" lon="5.72392">
        <ele>653</ele>
        <time>2019-02-12T14:11:02Z</time>
      </trkpt>
      <trkpt lat="46.41332" lon="5.72393">
        <ele>653</ele>
        <time>2019-02-12T14:12:02Z</time>
      </trkpt>
      <trkpt lat="46.41336" lon="5.72394">
        <ele>653</ele>
        <time>2019-02-12T14:13:02Z</time>
      </trkpt>
      <trkpt lat="46.4134" lon="5.72394">
        <ele>653</ele>
        <time>2019-02-12T14:14:02Z</time>
      </trkpt>
      <trkpt lat="46.41343" lon="5.72393">
        <ele>654</ele>
        <time>2019-02-12T14:15:02Z</time>
      </trkpt>
      <trkpt lat="46.41347" lon="5.72392">
        <ele>654</ele>
        <time>2019-02-12T14:16:02Z</time>
      </trkpt>
      <trkpt lat="46.4135" lon="5.7239">
        <ele>654</ele>
        <time>2019-02-12T14:17:02Z</time>
      </trkpt>
      <trkpt lat="46.41354" lon="5.72387">
        <ele>654</ele>
        <time>2019-02-12T14:18:02Z</time>
      </trkpt>
      <trkpt lat="46.41356" lon="5.72385">
        <ele>654</ele>
        <time>2019-02-12T14:19:02Z</time>
      </trkpt>
      <trkpt lat="46.41358" lon="5.72383">
        <ele>654</ele>
        <time>2019-02-12T14:20:02Z</time>
      </trkpt>
      <trkpt lat="46.41359" lon="5.72382">
        <ele>654</ele>
        <time>2019-02-12T14:21:02Z</time>
      </trkpt>
      <trkpt lat="46.4136" lon="5.7238">
        <ele>654</ele>
        <time>2019-02-12T14:22:02Z</time>
      </trkpt>
      <trkpt lat="46.41361" lon="5.72379">
        <ele>654</ele>
        <time>2019-02-12T14:23:02Z</time>
      </trkpt>
      <trkpt lat="46.41362" lon="5.72378">
        <ele>654</ele>
        <time>2019-02-12T14:24:02Z</time>
      </trkpt>
      <trkpt lat="46.41362" lon="5.72376">
        <ele>654</ele>
        <time>2019-02-12T14:25:02Z</time>
      </trkpt>
      <trkpt lat="46.41363" lon="5.72374">
        <ele>654</ele>
        <time>2019-02-12T14:26:02Z</time>
      </trkpt>
      <trkpt lat="46.41364" lon="5.72372">
        <ele>654</ele>
        <time>2019-02-12T14:27:02Z</time>
      </trkpt>
      <trkpt lat="46.4137" lon="5.72366">
        <ele>654</ele>
        <time>2019-02-12T14:28:02Z</time>
      </trkpt>
      <trkpt lat="46.41379" lon="5.72361">
        <ele>654</ele>
        <time>2019-02-12T14:29:02Z</time>
      </trkpt>
      <trkpt lat="46.41389" lon="5.72359">
        <ele>654</ele>
        <time>2019-02-12T14:30:02Z</time>
      </trkpt>
      <trkpt lat="46.414" lon="5.72359">
        <ele>655</ele>
        <time>2019-02-12T14:31:02Z</time>
      </trkpt>
      <trkpt lat="46.41413" lon="5.72358">
        <ele>655</ele>
        <time>2019-02-12T14:32:02Z</time>
      </trkpt>
      <trkpt lat="46.41426" lon="5.72356">
        <ele>656</ele>
        <time>2019-02-12T14:33:02Z</time>
      </trkpt>
      <trkpt lat="46.4144" lon="5.72351">
        <ele>655</ele>
        <time>2019-02-12T14:34:02Z</time>
      </trkpt>
      <trkpt lat="46.41453" lon="5.72345">
        <ele>655</ele>
        <time>2019-02-12T14:35:02Z</time>
      </trkpt>
      <trkpt lat="46.41464" lon="5.72338">
        <ele>654</ele>
        <time>2019-02-12T14:36:02Z</time>
      </trkpt>
      <trkpt lat="46.41469" lon="5.72336">
        <ele>654</ele>
        <time>2019-02-12T14:37:02Z</time>
      </trkpt>
      <trkpt lat="46.41483" lon="5.72329">
        <ele>653</ele>
        <time>2019-02-12T14:38:02Z</time>
      </trkpt>
      <trkpt lat="46.41494" lon="5.72323">
        <ele>653</ele>
        <time>2019-02-12T14:39:02Z</time>
      </trkpt>
      <trkpt lat="46.41504" lon="5.72316">
        <ele>652</ele>
        <time>2019-02-12T14:40:02Z</time>
      </trkpt>
      <trkpt lat="46.41511" lon="5.72313">
        <ele>651</ele>
        <time>2019-02-12T14:41:02Z</time>
      </trkpt>
      <trkpt lat="46.41527" lon="5.72306">
        <ele>649</ele>
        <time>2019-02-12T14:42:02Z</time>
      </trkpt>
      <trkpt lat="46.4156" lon="5.72301">
        <ele>646</ele>
        <time>2019-02-12T14:43:02Z</time>
      </trkpt>
      <trkpt lat="46.41572" lon="5.723">
        <ele>645</ele>
        <time>2019-02-12T14:44:02Z</time>
      </trkpt>
      <trkpt lat="46.41587" lon="5.72301">
        <ele>644</ele>
        <time>2019-02-12T14:45:02Z</time>
      </trkpt>
      <trkpt lat="46.41597" lon="5.72303">
        <ele>643</ele>
        <time>2019-02-12T14:46:02Z</time>
      </trkpt>
      <trkpt lat="46.41611" lon="5.72306">
        <ele>642</ele>
        <time>2019-02-12T14:47:02Z</time>
      </trkpt>
      <trkpt lat="46.41658" lon="5.72319">
        <ele>638</ele>
        <time>2019-02-12T14:48:02Z</time>
      </trkpt>
      <trkpt lat="46.41686" lon="5.72326">
        <ele>637</ele>
        <time>2019-02-12T14:49:02Z</time>
      </trkpt>
      <trkpt lat="46.41716" lon="5.72334">
        <ele>637</ele>
        <time>2019-02-12T14:50:02Z</time>
      </trkpt>
      <trkpt lat="46.41767" lon="5.72347">
        <ele>637</ele>
        <time>2019-02-12T14:51:02Z</time>
      </trkpt>
      <trkpt lat="46.41793" lon="5.72354">
        <ele>636</ele>
        <time>2019-02-12T14:52:02Z</time>
      </trkpt>
      <trkpt lat="46.41817" lon="5.72359">
        <ele>636</ele>
        <time>2019-02-12T14:53:02Z</time>
      </trkpt>
      <trkpt lat="46.41838" lon="5.72364">
        <ele>636</ele>
        <time>2019-02-12T14:54:02Z</time>
      </trkpt>
      <trkpt lat="46.4186" lon="5.7237">
        <ele>636</ele>
        <time>2019-02-12T14:55:02Z</time>
      </trkpt>
      <trkpt lat="46.41884" lon="5.72376">
        <ele>637</ele>
        <time>2019-02-12T14:56:02Z</time>
      </trkpt>
      <trkpt lat="46.41896" lon="5.72378">
        <ele>637</ele>
        <time>2019-02-12T14:57:02Z</time>
      </trkpt>
      <trkpt lat="46.41909" lon="5.72382">
        <ele>637</ele>
        <time>2019-02-12T14:58:02Z</time>
      </trkpt>
      <trkpt lat="46.41927" lon="5.72387">
        <ele>637</ele>
        <time>2019-02-12T14:59:02Z</time>
      </trkpt>
      <trkpt lat="46.41954" lon="5.72394">
        <ele>636</ele>
        <time>2019-02-12T15:00:02Z</time>
      </trkpt>
      <trkpt lat="46.41974" lon="5.724">
        <ele>636</ele>
        <time>2019-02-12T15:01:02Z</time>
      </trkpt>
      <trkpt lat="46.41977" lon="5.72401">
        <ele>635</ele>
        <time>2019-02-12T15:02:02Z</time>
      </trkpt>
      <trkpt lat="46.41985" lon="5.72404">
        <ele>635</ele>
        <time>2019-02-12T15:03:02Z</time>
      </trkpt>
      <trkpt lat="46.42023" lon="5.72414">
        <ele>635</ele>
        <time>2019-02-12T15:04:02Z</time>
      </trkpt>
      <trkpt lat="46.4204" lon="5.72419">
        <ele>635</ele>
        <time>2019-02-12T15:05:02Z</time>
      </trkpt>
      <trkpt lat="46.42058" lon="5.72424">
        <ele>635</ele>
        <time>2019-02-12T15:07:02Z</time>
      </trkpt>
      <trkpt lat="46.42072" lon="5.72428">
        <ele>636</ele>
        <time>2019-02-12T15:08:02Z</time>
      </trkpt>
      <trkpt lat="46.42112" lon="5.7244">
        <ele>636</ele>
        <time>2019-02-12T15:09:02Z</time>
      </trkpt>
      <trkpt lat="46.42149" lon="5.7245">
        <ele>637</ele>
        <time>2019-02-12T15:10:02Z</time>
      </trkpt>
      <trkpt lat="46.42159" lon="5.72453">
        <ele>637</ele>
        <time>2019-02-12T15:11:02Z</time>
      </trkpt>
      <trkpt lat="46.42212" lon="5.72464">
        <ele>635</ele>
        <time>2019-02-12T15:12:02Z</time>
      </trkpt>
      <trkpt lat="46.42272" lon="5.72477">
        <ele>632</ele>
        <time>2019-02-12T15:13:02Z</time>
      </trkpt>
      <trkpt lat="46.42322" lon="5.72487">
        <ele>631</ele>
        <time>2019-02-12T15:14:02Z</time>
      </trkpt>
      <trkpt lat="46.42371" lon="5.72497">
        <ele>629</ele>
        <time>2019-02-12T15:15:02Z</time>
      </trkpt>
      <trkpt lat="46.42397" lon="5.72503">
        <ele>629</ele>
        <time>2019-02-12T15:16:02Z</time>
      </trkpt>
      <trkpt lat="46.4242" lon="5.72508">
        <ele>629</ele>
        <time>2019-02-12T15:17:02Z</time>
      </trkpt>
      <trkpt lat="46.42465" lon="5.72519">
        <ele>628</ele>
        <time>2019-02-12T15:18:02Z</time>
      </trkpt>
      <trkpt lat="46.42493" lon="5.72525">
        <ele>628</ele>
        <time>2019-02-12T15:19:02Z</time>
      </trkpt>
      <trkpt lat="46.4251" lon="5.72529">
        <ele>628</ele>
        <time>2019-02-12T15:20:02Z</time>
      </trkpt>
      <trkpt lat="46.42545" lon="5.72533">
        <ele>628</ele>
        <time>2019-02-12T15:21:02Z</time>
      </trkpt>
      <trkpt lat="46.42559" lon="5.72535">
        <ele>627</ele>
        <time>2019-02-12T15:22:02Z</time>
      </trkpt>
      <trkpt lat="46.42593" lon="5.72543">
        <ele>627</ele>
        <time>2019-02-12T15:23:02Z</time>
      </trkpt>
      <trkpt lat="46.4263" lon="5.7255">
        <ele>627</ele>
        <time>2019-02-12T15:24:02Z</time>
      </trkpt>
      <trkpt lat="46.4264" lon="5.72552">
        <ele>628</ele>
        <time>2019-02-12T15:25:02Z</time>
      </trkpt>
      <trkpt lat="46.42678" lon="5.7256">
        <ele>628</ele>
        <time>2019-02-12T15:26:02Z</time>
      </trkpt>
      <trkpt lat="46.42715" lon="5.72568">
        <ele>627</ele>
        <time>2019-02-12T15:27:02Z</time>
      </trkpt>
      <trkpt lat="46.42724" lon="5.7257">
        <ele>626</ele>
        <time>2019-02-12T15:28:02Z</time>
      </trkpt>
      <trkpt lat="46.42767" lon="5.72579">
        <ele>625</ele>
        <time>2019-02-12T15:29:02Z</time>
      </trkpt>
      <trkpt lat="46.42782" lon="5.72582">
        <ele>625</ele>
        <time>2019-02-12T15:30:02Z</time>
      </trkpt>
      <trkpt lat="46.42819" lon="5.7259">
        <ele>626</ele>
        <time>2019-02-12T15:31:02Z</time>
      </trkpt>
      <trkpt lat="46.42856" lon="5.72598">
        <ele>627</ele>
        <time>2019-02-12T15:32:02Z</time>
      </trkpt>
      <trkpt lat="46.42881" lon="5.72603">
        <ele>629</ele>
        <time>2019-02-12T15:33:02Z</time>
      </trkpt>
      <trkpt lat="46.42881" lon="5.72603">
        <ele>629</ele>
        <time>2019-02-12T15:34:02Z</time>
      </trkpt>
      <trkpt lat="46.42909" lon="5.7261">
        <ele>632</ele>
        <time>2019-02-12T15:35:02Z</time>
      </trkpt>
      <trkpt lat="46.42926" lon="5.72612">
        <ele>633</ele>
        <time>2019-02-12T15:36:02Z</time>
      </trkpt>
      <trkpt lat="46.42936" lon="5.72611">
        <ele>632</ele>
        <time>2019-02-12T15:37:02Z</time>
      </trkpt>
      <trkpt lat="46.42945" lon="5.72608">
        <ele>632</ele>
        <time>2019-02-12T15:38:02Z</time>
      </trkpt>
      <trkpt lat="46.42956" lon="5.72601">
        <ele>631</ele>
        <time>2019-02-12T15:39:02Z</time>
      </trkpt>
      <trkpt lat="46.42963" lon="5.72594">
        <ele>630</ele>
        <time>2019-02-12T15:40:02Z</time>
      </trkpt>
      <trkpt lat="46.42971" lon="5.72583">
        <ele>628</ele>
        <time>2019-02-12T15:41:02Z</time>
      </trkpt>
      <trkpt lat="46.42978" lon="5.72572">
        <ele>628</ele>
        <time>2019-02-12T15:42:02Z</time>
      </trkpt>
      <trkpt lat="46.42983" lon="5.72566">
        <ele>628</ele>
        <time>2019-02-12T15:43:02Z</time>
      </trkpt>
      <trkpt lat="46.42986" lon="5.72564">
        <ele>628</ele>
        <time>2019-02-12T15:44:02Z</time>
      </trkpt>
      <trkpt lat="46.42989" lon="5.72563">
        <ele>629</ele>
        <time>2019-02-12T15:45:02Z</time>
      </trkpt>
      <trkpt lat="46.43002" lon="5.72562">
        <ele>629</ele>
        <time>2019-02-12T15:46:02Z</time>
      </trkpt>
      <trkpt lat="46.43036" lon="5.72565">
        <ele>627</ele>
        <time>2019-02-12T15:47:02Z</time>
      </trkpt>
      <trkpt lat="46.43051" lon="5.72565">
        <ele>627</ele>
        <time>2019-02-12T15:48:02Z</time>
      </trkpt>
      <trkpt lat="46.4306" lon="5.72565">
        <ele>626</ele>
        <time>2019-02-12T15:49:02Z</time>
      </trkpt>
      <trkpt lat="46.43113" lon="5.72573">
        <ele>625</ele>
        <time>2019-02-12T15:50:02Z</time>
      </trkpt>
      <trkpt lat="46.43119" lon="5.72573">
        <ele>625</ele>
        <time>2019-02-12T15:51:02Z</time>
      </trkpt>
      <trkpt lat="46.43119" lon="5.72573">
        <ele>625</ele>
        <time>2019-02-12T15:52:02Z</time>
      </trkpt>
      <trkpt lat="46.43126" lon="5.72572">
        <ele>626</ele>
        <time>2019-02-12T15:53:02Z</time>
      </trkpt>
      <trkpt lat="46.43221" lon="5.72568">
        <ele>623</ele>
        <time>2019-02-12T15:54:02Z</time>
      </trkpt>
      <trkpt lat="46.43228" lon="5.72569">
        <ele>623</ele>
        <time>2019-02-12T15:55:02Z</time>
      </trkpt>
      <trkpt lat="46.43254" lon="5.7257">
        <ele>622</ele>
        <time>2019-02-12T15:56:02Z</time>
      </trkpt>
      <trkpt lat="46.43262" lon="5.7257">
        <ele>622</ele>
        <time>2019-02-12T15:57:02Z</time>
      </trkpt>
      <trkpt lat="46.43359" lon="5.72576">
        <ele>619</ele>
        <time>2019-02-12T15:58:02Z</time>
      </trkpt>
      <trkpt lat="46.43359" lon="5.72576">
        <ele>619</ele>
        <time>2019-02-12T15:59:02Z</time>
      </trkpt>
      <trkpt lat="46.43364" lon="5.72575">
        <ele>619</ele>
        <time>2019-02-12T16:00:02Z</time>
      </trkpt>
      <trkpt lat="46.43373" lon="5.72572">
        <ele>619</ele>
        <time>2019-02-12T16:01:02Z</time>
      </trkpt>
      <trkpt lat="46.43387" lon="5.72565">
        <ele>618</ele>
        <time>2019-02-12T16:02:02Z</time>
      </trkpt>
      <trkpt lat="46.43414" lon="5.72552">
        <ele>618</ele>
        <time>2019-02-12T16:03:02Z</time>
      </trkpt>
      <trkpt lat="46.43438" lon="5.72541">
        <ele>617</ele>
        <time>2019-02-12T16:04:02Z</time>
      </trkpt>
      <trkpt lat="46.43455" lon="5.72532">
        <ele>617</ele>
        <time>2019-02-12T16:05:02Z</time>
      </trkpt>
      <trkpt lat="46.43457" lon="5.72531">
        <ele>617</ele>
        <time>2019-02-12T16:06:02Z</time>
      </trkpt>
      <trkpt lat="46.43469" lon="5.72526">
        <ele>617</ele>
        <time>2019-02-12T16:07:02Z</time>
      </trkpt>
      <trkpt lat="46.43492" lon="5.72514">
        <ele>616</ele>
        <time>2019-02-12T16:08:02Z</time>
      </trkpt>
      <trkpt lat="46.43513" lon="5.72503">
        <ele>616</ele>
        <time>2019-02-12T16:09:02Z</time>
      </trkpt>
      <trkpt lat="46.43539" lon="5.7249">
        <ele>617</ele>
        <time>2019-02-12T16:10:02Z</time>
      </trkpt>
      <trkpt lat="46.43561" lon="5.72479">
        <ele>617</ele>
        <time>2019-02-12T16:11:02Z</time>
      </trkpt>
      <trkpt lat="46.43575" lon="5.72472">
        <ele>616</ele>
        <time>2019-02-12T16:12:02Z</time>
      </trkpt>
      <trkpt lat="46.43595" lon="5.72462">
        <ele>616</ele>
        <time>2019-02-12T16:13:02Z</time>
      </trkpt>
      <trkpt lat="46.4362" lon="5.72449">
        <ele>615</ele>
        <time>2019-02-12T16:14:02Z</time>
      </trkpt>
      <trkpt lat="46.43644" lon="5.72437">
        <ele>614</ele>
        <time>2019-02-12T16:15:02Z</time>
      </trkpt>
      <trkpt lat="46.43661" lon="5.72429">
        <ele>613</ele>
        <time>2019-02-12T16:16:02Z</time>
      </trkpt>
      <trkpt lat="46.43683" lon="5.72418">
        <ele>613</ele>
        <time>2019-02-12T16:17:02Z</time>
      </trkpt>
      <trkpt lat="46.437" lon="5.7241">
        <ele>613</ele>
        <time>2019-02-12T16:18:02Z</time>
      </trkpt>
      <trkpt lat="46.43701" lon="5.72409">
        <ele>613</ele>
        <time>2019-02-12T16:19:02Z</time>
      </trkpt>
      <trkpt lat="46.43724" lon="5.72396">
        <ele>613</ele>
        <time>2019-02-12T16:20:02Z</time>
      </trkpt>
      <trkpt lat="46.43746" lon="5.72384">
        <ele>614</ele>
        <time>2019-02-12T16:21:02Z</time>
      </trkpt>
      <trkpt lat="46.43758" lon="5.72374">
        <ele>614</ele>
        <time>2019-02-12T16:22:02Z</time>
      </trkpt>
      <trkpt lat="46.43764" lon="5.72367">
        <ele>614</ele>
        <time>2019-02-12T16:23:02Z</time>
      </trkpt>
      <trkpt lat="46.43769" lon="5.72361">
        <ele>615</ele>
        <time>2019-02-12T16:24:02Z</time>
      </trkpt>
      <trkpt lat="46.43772" lon="5.72357">
        <ele>615</ele>
        <time>2019-02-12T16:25:02Z</time>
      </trkpt>
      <trkpt lat="46.43788" lon="5.72335">
        <ele>615</ele>
        <time>2019-02-12T16:26:02Z</time>
      </trkpt>
      <trkpt lat="46.43806" lon="5.72309">
        <ele>615</ele>
        <time>2019-02-12T16:27:02Z</time>
      </trkpt>
      <trkpt lat="46.43817" lon="5.72289">
        <ele>616</ele>
        <time>2019-02-12T16:28:02Z</time>
      </trkpt>
      <trkpt lat="46.43827" lon="5.72272">
        <ele>616</ele>
        <time>2019-02-12T16:29:02Z</time>
      </trkpt>
      <trkpt lat="46.43838" lon="5.72252">
        <ele>618</ele>
        <time>2019-02-12T16:30:02Z</time>
      </trkpt>
      <trkpt lat="46.4385" lon="5.72231">
        <ele>621</ele>
        <time>2019-02-12T16:31:02Z</time>
      </trkpt>
      <trkpt lat="46.43857" lon="5.72216">
        <ele>623</ele>
        <time>2019-02-12T16:32:02Z</time>
      </trkpt>
      <trkpt lat="46.43865" lon="5.72198">
        <ele>623</ele>
        <time>2019-02-12T16:33:02Z</time>
      </trkpt>
      <trkpt lat="46.43875" lon="5.72179">
        <ele>624</ele>
        <time>2019-02-12T16:34:02Z</time>
      </trkpt>
      <trkpt lat="46.43875" lon="5.72179">
        <ele>624</ele>
        <time>2019-02-12T16:35:02Z</time>
      </trkpt>
      <trkpt lat="46.43879" lon="5.72175">
        <ele>624</ele>
        <time>2019-02-12T16:36:02Z</time>
      </trkpt>
      <trkpt lat="46.43882" lon="5.72169">
        <ele>624</ele>
        <time>2019-02-12T16:37:02Z</time>
      </trkpt>
      <trkpt lat="46.439" lon="5.72136">
        <ele>623</ele>
        <time>2019-02-12T16:38:02Z</time>
      </trkpt>
      <trkpt lat="46.43913" lon="5.72111">
        <ele>621</ele>
        <time>2019-02-12T16:39:02Z</time>
      </trkpt>
      <trkpt lat="46.43916" lon="5.72105">
        <ele>620</ele>
        <time>2019-02-12T16:40:02Z</time>
      </trkpt>
      <trkpt lat="46.43918" lon="5.72102">
        <ele>620</ele>
        <time>2019-02-12T16:41:02Z</time>
      </trkpt>
      <trkpt lat="46.4393" lon="5.72083">
        <ele>620</ele>
        <time>2019-02-12T16:42:02Z</time>
      </trkpt>
      <trkpt lat="46.43953" lon="5.72047">
        <ele>621</ele>
        <time>2019-02-12T16:43:02Z</time>
      </trkpt>
      <trkpt lat="46.43969" lon="5.72018">
        <ele>619</ele>
        <time>2019-02-12T16:44:02Z</time>
      </trkpt>
      <trkpt lat="46.43984" lon="5.71994">
        <ele>617</ele>
        <time>2019-02-12T16:45:02Z</time>
      </trkpt>
      <trkpt lat="46.43996" lon="5.71974">
        <ele>617</ele>
        <time>2019-02-12T16:46:02Z</time>
      </trkpt>
      <trkpt lat="46.44008" lon="5.71953">
        <ele>617</ele>
        <time>2019-02-12T16:47:02Z</time>
      </trkpt>
      <trkpt lat="46.44028" lon="5.71921">
        <ele>618</ele>
        <time>2019-02-12T16:48:02Z</time>
      </trkpt>
      <trkpt lat="46.44037" lon="5.71909">
        <ele>618</ele>
        <time>2019-02-12T16:49:02Z</time>
      </trkpt>
      <trkpt lat="46.44049" lon="5.71898">
        <ele>618</ele>
        <time>2019-02-12T16:50:02Z</time>
      </trkpt>
      <trkpt lat="46.44064" lon="5.71888">
        <ele>619</ele>
        <time>2019-02-12T16:51:02Z</time>
      </trkpt>
      <trkpt lat="46.44087" lon="5.71875">
        <ele>620</ele>
        <time>2019-02-12T16:52:02Z</time>
      </trkpt>
      <trkpt lat="46.44104" lon="5.71866">
        <ele>622</ele>
        <time>2019-02-12T16:53:02Z</time>
      </trkpt>
      <trkpt lat="46.44121" lon="5.71855">
        <ele>623</ele>
        <time>2019-02-12T16:54:02Z</time>
      </trkpt>
      <trkpt lat="46.44145" lon="5.71838">
        <ele>625</ele>
        <time>2019-02-12T16:55:02Z</time>
      </trkpt>
      <trkpt lat="46.44175" lon="5.71816">
        <ele>626</ele>
        <time>2019-02-12T16:56:02Z</time>
      </trkpt>
      <trkpt lat="46.44205" lon="5.71795">
        <ele>627</ele>
        <time>2019-02-12T16:57:02Z</time>
      </trkpt>
      <trkpt lat="46.4423" lon="5.71777">
        <ele>627</ele>
        <time>2019-02-12T16:58:02Z</time>
      </trkpt>
      <trkpt lat="46.44247" lon="5.71766">
        <ele>627</ele>
        <time>2019-02-12T16:59:02Z</time>
      </trkpt>
      <trkpt lat="46.44265" lon="5.71756">
        <ele>627</ele>
        <time>2019-02-12T17:00:02Z</time>
      </trkpt>
      <trkpt lat="46.44277" lon="5.71751">
        <ele>628</ele>
        <time>2019-02-12T17:01:02Z</time>
      </trkpt>
      <trkpt lat="46.44293" lon="5.71748">
        <ele>629</ele>
        <time>2019-02-12T17:02:02Z</time>
      </trkpt>
      <trkpt lat="46.44302" lon="5.71746">
        <ele>630</ele>
        <time>2019-02-12T17:03:02Z</time>
      </trkpt>
      <trkpt lat="46.44327" lon="5.7174">
        <ele>633</ele>
        <time>2019-02-12T17:04:02Z</time>
      </trkpt>
      <trkpt lat="46.44348" lon="5.71736">
        <ele>634</ele>
        <time>2019-02-12T17:05:02Z</time>
      </trkpt>
      <trkpt lat="46.44367" lon="5.71734">
        <ele>635</ele>
        <time>2019-02-12T17:06:02Z</time>
      </trkpt>
      <trkpt lat="46.44386" lon="5.71734">
        <ele>636</ele>
        <time>2019-02-12T17:07:02Z</time>
      </trkpt>
      <trkpt lat="46.44403" lon="5.71738">
        <ele>637</ele>
        <time>2019-02-12T17:08:02Z</time>
      </trkpt>
      <trkpt lat="46.44413" lon="5.7174">
        <ele>638</ele>
        <time>2019-02-12T17:09:02Z</time>
      </trkpt>
      <trkpt lat="46.44424" lon="5.71743">
        <ele>639</ele>
        <time>2019-02-12T17:10:02Z</time>
      </trkpt>
      <trkpt lat="46.44451" lon="5.7175">
        <ele>641</ele>
        <time>2019-02-12T17:11:02Z</time>
      </trkpt>
      <trkpt lat="46.4448" lon="5.71757">
        <ele>643</ele>
        <time>2019-02-12T17:12:02Z</time>
      </trkpt>
      <trkpt lat="46.44506" lon="5.71764">
        <ele>646</ele>
        <time>2019-02-12T17:13:02Z</time>
      </trkpt>
      <trkpt lat="46.44526" lon="5.7177">
        <ele>647</ele>
        <time>2019-02-12T17:14:02Z</time>
      </trkpt>
      <trkpt lat="46.44549" lon="5.71776">
        <ele>648</ele>
        <time>2019-02-12T17:15:02Z</time>
      </trkpt>
      <trkpt lat="46.44568" lon="5.71786">
        <ele>649</ele>
        <time>2019-02-12T17:16:02Z</time>
      </trkpt>
      <trkpt lat="46.44582" lon="5.71797">
        <ele>650</ele>
        <time>2019-02-12T17:17:02Z</time>
      </trkpt>
      <trkpt lat="46.44598" lon="5.71811">
        <ele>652</ele>
        <time>2019-02-12T17:18:02Z</time>
      </trkpt>
      <trkpt lat="46.44613" lon="5.71825">
        <ele>653</ele>
        <time>2019-02-12T17:19:02Z</time>
      </trkpt>
      <trkpt lat="46.44627" lon="5.71837">
        <ele>654</ele>
        <time>2019-02-12T17:20:02Z</time>
      </trkpt>
      <trkpt lat="46.44639" lon="5.71845">
        <ele>655</ele>
        <time>2019-02-12T17:21:02Z</time>
      </trkpt>
      <trkpt lat="46.44659" lon="5.71853">
        <ele>655</ele>
        <time>2019-02-12T17:22:02Z</time>
      </trkpt>
      <trkpt lat="46.44676" lon="5.71856">
        <ele>656</ele>
        <time>2019-02-12T17:23:02Z</time>
      </trkpt>
      <trkpt lat="46.44692" lon="5.71858">
        <ele>656</ele>
        <time>2019-02-12T17:24:02Z</time>
      </trkpt>
      <trkpt lat="46.44704" lon="5.71858">
        <ele>656</ele>
        <time>2019-02-12T17:25:02Z</time>
      </trkpt>
      <trkpt lat="46.4472" lon="5.71859">
        <ele>656</ele>
        <time>2019-02-12T17:26:02Z</time>
      </trkpt>
      <trkpt lat="46.44734" lon="5.71861">
        <ele>656</ele>
        <time>2019-02-12T17:27:02Z</time>
      </trkpt>
      <trkpt lat="46.44747" lon="5.71864">
        <ele>657</ele>
        <time>2019-02-12T17:28:02Z</time>
      </trkpt>
      <trkpt lat="46.44764" lon="5.71873">
        <ele>658</ele>
        <time>2019-02-12T17:29:02Z</time>
      </trkpt>
      <trkpt lat="46.44781" lon="5.71883">
        <ele>659</ele>
        <time>2019-02-12T17:30:02Z</time>
      </trkpt>
      <trkpt lat="46.44801" lon="5.71898">
        <ele>660</ele>
        <time>2019-02-12T17:31:02Z</time>
      </trkpt>
      <trkpt lat="46.44817" lon="5.71911">
        <ele>660</ele>
        <time>2019-02-12T17:32:02Z</time>
      </trkpt>
      <trkpt lat="46.44834" lon="5.71923">
        <ele>660</ele>
        <time>2019-02-12T17:33:02Z</time>
      </trkpt>
      <trkpt lat="46.44847" lon="5.71932">
        <ele>661</ele>
        <time>2019-02-12T17:34:02Z</time>
      </trkpt>
      <trkpt lat="46.4487" lon="5.71945">
        <ele>662</ele>
        <time>2019-02-12T17:35:02Z</time>
      </trkpt>
      <trkpt lat="46.44889" lon="5.71956">
        <ele>661</ele>
        <time>2019-02-12T17:36:02Z</time>
      </trkpt>
      <trkpt lat="46.44908" lon="5.71967">
        <ele>659</ele>
        <time>2019-02-12T17:37:02Z</time>
      </trkpt>
      <trkpt lat="46.44928" lon="5.71977">
        <ele>659</ele>
        <time>2019-02-12T17:38:02Z</time>
      </trkpt>
      <trkpt lat="46.44945" lon="5.71987">
        <ele>660</ele>
        <time>2019-02-12T17:39:02Z</time>
      </trkpt>
      <trkpt lat="46.44954" lon="5.71996">
        <ele>660</ele>
        <time>2019-02-12T17:40:02Z</time>
      </trkpt>
      <trkpt lat="46.44971" lon="5.72017">
        <ele>661</ele>
        <time>2019-02-12T17:41:02Z</time>
      </trkpt>
      <trkpt lat="46.4498" lon="5.72033">
        <ele>660</ele>
        <time>2019-02-12T17:42:02Z</time>
      </trkpt>
      <trkpt lat="46.44987" lon="5.7205">
        <ele>659</ele>
        <time>2019-02-12T17:43:02Z</time>
      </trkpt>
      <trkpt lat="46.44994" lon="5.72069">
        <ele>657</ele>
        <time>2019-02-12T17:44:02Z</time>
      </trkpt>
      <trkpt lat="46.45001" lon="5.7209">
        <ele>656</ele>
        <time>2019-02-12T17:45:02Z</time>
      </trkpt>
      <trkpt lat="46.45007" lon="5.72111">
        <ele>654</ele>
        <time>2019-02-12T17:46:02Z</time>
      </trkpt>
      <trkpt lat="46.45012" lon="5.72129">
        <ele>653</ele>
        <time>2019-02-12T17:47:02Z</time>
      </trkpt>
      <trkpt lat="46.45018" lon="5.72142">
        <ele>653</ele>
        <time>2019-02-12T17:48:02Z</time>
      </trkpt>
      <trkpt lat="46.45024" lon="5.72154">
        <ele>652</ele>
        <time>2019-02-12T17:49:02Z</time>
      </trkpt>
      <trkpt lat="46.45032" lon="5.72172">
        <ele>651</ele>
        <time>2019-02-12T17:50:02Z</time>
      </trkpt>
      <trkpt lat="46.45041" lon="5.72191">
        <ele>650</ele>
        <time>2019-02-12T17:51:02Z</time>
      </trkpt>
      <trkpt lat="46.45047" lon="5.72206">
        <ele>650</ele>
        <time>2019-02-12T17:52:02Z</time>
      </trkpt>
      <trkpt lat="46.45058" lon="5.72228">
        <ele>649</ele>
        <time>2019-02-12T17:53:02Z</time>
      </trkpt>
      <trkpt lat="46.45064" lon="5.72242">
        <ele>648</ele>
        <time>2019-02-12T17:54:02Z</time>
      </trkpt>
      <trkpt lat="46.4507" lon="5.72258">
        <ele>648</ele>
        <time>2019-02-12T17:55:02Z</time>
      </trkpt>
      <trkpt lat="46.45075" lon="5.72278">
        <ele>647</ele>
        <time>2019-02-12T17:56:02Z</time>
      </trkpt>
      <trkpt lat="46.4508" lon="5.723">
        <ele>647</ele>
        <time>2019-02-12T17:57:02Z</time>
      </trkpt>
      <trkpt lat="46.45085" lon="5.72323">
        <ele>646</ele>
        <time>2019-02-12T17:58:02Z</time>
      </trkpt>
      <trkpt lat="46.45089" lon="5.7234">
        <ele>646</ele>
        <time>2019-02-12T17:59:02Z</time>
      </trkpt>
      <trkpt lat="46.45091" lon="5.72355">
        <ele>646</ele>
        <time>2019-02-12T18:00:02Z</time>
      </trkpt>
      <trkpt lat="46.45091" lon="5.72371">
        <ele>646</ele>
        <time>2019-02-12T18:01:02Z</time>
      </trkpt>
      <trkpt lat="46.45091" lon="5.72373">
        <ele>646</ele>
        <time>2019-02-12T18:02:02Z</time>
      </trkpt>
      <trkpt lat="46.45091" lon="5.72396">
        <ele>645</ele>
        <time>2019-02-12T18:03:02Z</time>
      </trkpt>
      <trkpt lat="46.4509" lon="5.72418">
        <ele>645</ele>
        <time>2019-02-12T18:04:02Z</time>
      </trkpt>
      <trkpt lat="46.4509" lon="5.72434">
        <ele>644</ele>
        <time>2019-02-12T18:05:02Z</time>
      </trkpt>
      <trkpt lat="46.45091" lon="5.72446">
        <ele>644</ele>
        <time>2019-02-12T18:06:02Z</time>
      </trkpt>
      <trkpt lat="46.45093" lon="5.72455">
        <ele>644</ele>
        <time>2019-02-12T18:07:02Z</time>
      </trkpt>
      <trkpt lat="46.45097" lon="5.72468">
        <ele>643</ele>
        <time>2019-02-12T18:08:02Z</time>
      </trkpt>
      <trkpt lat="46.45106" lon="5.72485">
        <ele>643</ele>
        <time>2019-02-12T18:09:02Z</time>
      </trkpt>
      <trkpt lat="46.45113" lon="5.72499">
        <ele>643</ele>
        <time>2019-02-12T18:10:02Z</time>
      </trkpt>
      <trkpt lat="46.45123" lon="5.72516">
        <ele>642</ele>
        <time>2019-02-12T18:11:02Z</time>
      </trkpt>
      <trkpt lat="46.45132" lon="5.72533">
        <ele>642</ele>
        <time>2019-02-12T18:12:02Z</time>
      </trkpt>
      <trkpt lat="46.45139" lon="5.72548">
        <ele>642</ele>
        <time>2019-02-12T18:13:02Z</time>
      </trkpt>
      <trkpt lat="46.45145" lon="5.72562">
        <ele>641</ele>
        <time>2019-02-12T18:14:02Z</time>
      </trkpt>
      <trkpt lat="46.45151" lon="5.72577">
        <ele>641</ele>
        <time>2019-02-12T18:15:02Z</time>
      </trkpt>
      <trkpt lat="46.45155" lon="5.72593">
        <ele>641</ele>
        <time>2019-02-12T18:16:02Z</time>
      </trkpt>
      <trkpt lat="46.4516" lon="5.72617">
        <ele>640</ele>
        <time>2019-02-12T18:17:02Z</time>
      </trkpt>
      <trkpt lat="46.45164" lon="5.72637">
        <ele>639</ele>
        <time>2019-02-12T18:18:02Z</time>
      </trkpt>
      <trkpt lat="46.45168" lon="5.72655">
        <ele>639</ele>
        <time>2019-02-12T18:19:02Z</time>
      </trkpt>
      <trkpt lat="46.45173" lon="5.72673">
        <ele>638</ele>
        <time>2019-02-12T18:20:02Z</time>
      </trkpt>
      <trkpt lat="46.45177" lon="5.72687">
        <ele>638</ele>
        <time>2019-02-12T18:21:02Z</time>
      </trkpt>
      <trkpt lat="46.45181" lon="5.72701">
        <ele>638</ele>
        <time>2019-02-12T18:22:02Z</time>
      </trkpt>
      <trkpt lat="46.45187" lon="5.72719">
        <ele>638</ele>
        <time>2019-02-12T18:23:02Z</time>
      </trkpt>
      <trkpt lat="46.45193" lon="5.72736">
        <ele>638</ele>
        <time>2019-02-12T18:24:02Z</time>
      </trkpt>
      <trkpt lat="46.45199" lon="5.72751">
        <ele>637</ele>
        <time>2019-02-12T18:25:02Z</time>
      </trkpt>
      <trkpt lat="46.45205" lon="5.72762">
        <ele>637</ele>
        <time>2019-02-12T18:26:02Z</time>
      </trkpt>
      <trkpt lat="46.45214" lon="5.72778">
        <ele>637</ele>
        <time>2019-02-12T18:27:02Z</time>
      </trkpt>
      <trkpt lat="46.45223" lon="5.72792">
        <ele>637</ele>
        <time>2019-02-12T18:28:02Z</time>
      </trkpt>
      <trkpt lat="46.45238" lon="5.72812">
        <ele>637</ele>
        <time>2019-02-12T18:29:02Z</time>
      </trkpt>
      <trkpt lat="46.4525" lon="5.72826">
        <ele>637</ele>
        <time>2019-02-12T18:30:02Z</time>
      </trkpt>
      <trkpt lat="46.45266" lon="5.72845">
        <ele>637</ele>
        <time>2019-02-12T18:31:02Z</time>
      </trkpt>
      <trkpt lat="46.45279" lon="5.7286">
        <ele>636</ele>
        <time>2019-02-12T18:32:02Z</time>
      </trkpt>
      <trkpt lat="46.45295" lon="5.72878">
        <ele>635</ele>
        <time>2019-02-12T18:33:02Z</time>
      </trkpt>
      <trkpt lat="46.45307" lon="5.72888">
        <ele>635</ele>
        <time>2019-02-12T18:34:02Z</time>
      </trkpt>
      <trkpt lat="46.45321" lon="5.72893">
        <ele>634</ele>
        <time>2019-02-12T18:35:02Z</time>
      </trkpt>
      <trkpt lat="46.45333" lon="5.7289">
        <ele>635</ele>
        <time>2019-02-12T18:36:02Z</time>
      </trkpt>
      <trkpt lat="46.45342" lon="5.72883">
        <ele>635</ele>
        <time>2019-02-12T18:37:02Z</time>
      </trkpt>
      <trkpt lat="46.45353" lon="5.72873">
        <ele>636</ele>
        <time>2019-02-12T18:38:02Z</time>
      </trkpt>
      <trkpt lat="46.45364" lon="5.72859">
        <ele>637</ele>
        <time>2019-02-12T18:39:02Z</time>
      </trkpt>
      <trkpt lat="46.45375" lon="5.72847">
        <ele>637</ele>
        <time>2019-02-12T18:40:02Z</time>
      </trkpt>
      <trkpt lat="46.45387" lon="5.72838">
        <ele>638</ele>
        <time>2019-02-12T18:41:02Z</time>
      </trkpt>
      <trkpt lat="46.454" lon="5.72835">
        <ele>638</ele>
        <time>2019-02-12T18:42:02Z</time>
      </trkpt>
      <trkpt lat="46.4541" lon="5.72836">
        <ele>638</ele>
        <time>2019-02-12T18:43:02Z</time>
      </trkpt>
      <trkpt lat="46.45423" lon="5.72843">
        <ele>638</ele>
        <time>2019-02-12T18:44:02Z</time>
      </trkpt>
      <trkpt lat="46.45435" lon="5.72857">
        <ele>638</ele>
        <time>2019-02-12T18:45:02Z</time>
      </trkpt>
      <trkpt lat="46.4545" lon="5.72878">
        <ele>638</ele>
        <time>2019-02-12T18:46:02Z</time>
      </trkpt>
      <trkpt lat="46.45465" lon="5.72899">
        <ele>638</ele>
        <time>2019-02-12T18:47:02Z</time>
      </trkpt>
      <trkpt lat="46.45478" lon="5.72916">
        <ele>638</ele>
        <time>2019-02-12T18:48:02Z</time>
      </trkpt>
      <trkpt lat="46.45495" lon="5.72941">
        <ele>638</ele>
        <time>2019-02-12T18:49:02Z</time>
      </trkpt>
      <trkpt lat="46.45505" lon="5.72956">
        <ele>638</ele>
        <time>2019-02-12T18:50:02Z</time>
      </trkpt>
      <trkpt lat="46.45516" lon="5.72974">
        <ele>639</ele>
        <time>2019-02-12T18:51:02Z</time>
      </trkpt>
      <trkpt lat="46.45535" lon="5.73008">
        <ele>640</ele>
        <time>2019-02-12T18:52:02Z</time>
      </trkpt>
      <trkpt lat="46.45542" lon="5.7302">
        <ele>641</ele>
        <time>2019-02-12T18:53:02Z</time>
      </trkpt>
      <trkpt lat="46.45548" lon="5.73032">
        <ele>641</ele>
        <time>2019-02-12T18:54:02Z</time>
      </trkpt>
      <trkpt lat="46.45558" lon="5.73052">
        <ele>642</ele>
        <time>2019-02-12T18:55:02Z</time>
      </trkpt>
      <trkpt lat="46.45564" lon="5.7307">
        <ele>643</ele>
        <time>2019-02-12T18:56:02Z</time>
      </trkpt>
      <trkpt lat="46.45571" lon="5.73086">
        <ele>644</ele>
        <time>2019-02-12T18:57:02Z</time>
      </trkpt>
      <trkpt lat="46.45586" lon="5.73105">
        <ele>645</ele>
        <time>2019-02-12T18:58:02Z</time>
      </trkpt>
      <trkpt lat="46.45593" lon="5.73122">
        <ele>646</ele>
        <time>2019-02-12T18:59:02Z</time>
      </trkpt>
      <trkpt lat="46.45599" lon="5.7314">
        <ele>646</ele>
        <time>2019-02-12T19:00:02Z</time>
      </trkpt>
      <trkpt lat="46.45601" lon="5.7316">
        <ele>646</ele>
        <time>2019-02-12T19:01:02Z</time>
      </trkpt>
      <trkpt lat="46.45604" lon="5.73193">
        <ele>647</ele>
        <time>2019-02-12T19:02:02Z</time>
      </trkpt>
      <trkpt lat="46.45606" lon="5.73211">
        <ele>647</ele>
        <time>2019-02-12T19:03:02Z</time>
      </trkpt>
      <trkpt lat="46.45611" lon="5.73227">
        <ele>647</ele>
        <time>2019-02-12T19:04:02Z</time>
      </trkpt>
      <trkpt lat="46.45617" lon="5.73244">
        <ele>648</ele>
        <time>2019-02-12T19:05:02Z</time>
      </trkpt>
      <trkpt lat="46.45623" lon="5.73253">
        <ele>648</ele>
        <time>2019-02-12T19:06:02Z</time>
      </trkpt>
      <trkpt lat="46.45635" lon="5.73271">
        <ele>649</ele>
        <time>2019-02-12T19:07:02Z</time>
      </trkpt>
      <trkpt lat="46.45659" lon="5.73303">
        <ele>650</ele>
        <time>2019-02-12T19:08:02Z</time>
      </trkpt>
      <trkpt lat="46.45678" lon="5.7333">
        <ele>652</ele>
        <time>2019-02-12T19:09:02Z</time>
      </trkpt>
      <trkpt lat="46.45692" lon="5.7335">
        <ele>652</ele>
        <time>2019-02-12T19:10:02Z</time>
      </trkpt>
      <trkpt lat="46.45701" lon="5.73363">
        <ele>652</ele>
        <time>2019-02-12T19:11:02Z</time>
      </trkpt>
      <trkpt lat="46.45709" lon="5.73375">
        <ele>653</ele>
        <time>2019-02-12T19:12:02Z</time>
      </trkpt>
      <trkpt lat="46.45722" lon="5.73394">
        <ele>653</ele>
        <time>2019-02-12T19:13:02Z</time>
      </trkpt>
      <trkpt lat="46.45744" lon="5.73427">
        <ele>655</ele>
        <time>2019-02-12T19:14:02Z</time>
      </trkpt>
      <trkpt lat="46.45757" lon="5.73448">
        <ele>656</ele>
        <time>2019-02-12T19:15:02Z</time>
      </trkpt>
      <trkpt lat="46.45767" lon="5.7346">
        <ele>656</ele>
        <time>2019-02-12T19:16:02Z</time>
      </trkpt>
      <trkpt lat="46.45775" lon="5.73466">
        <ele>657</ele>
        <time>2019-02-12T19:17:02Z</time>
      </trkpt>
      <trkpt lat="46.45784" lon="5.73466">
        <ele>657</ele>
        <time>2019-02-12T19:18:02Z</time>
      </trkpt>
      <trkpt lat="46.45796" lon="5.73462">
        <ele>658</ele>
        <time>2019-02-12T19:19:02Z</time>
      </trkpt>
      <trkpt lat="46.45807" lon="5.73455">
        <ele>658</ele>
        <time>2019-02-12T19:20:02Z</time>
      </trkpt>
      <trkpt lat="46.4582" lon="5.7345">
        <ele>658</ele>
        <time>2019-02-12T19:21:02Z</time>
      </trkpt>
      <trkpt lat="46.4582" lon="5.7345">
        <ele>658</ele>
        <time>2019-02-12T19:22:02Z</time>
      </trkpt>
      <trkpt lat="46.45821" lon="5.7344">
        <ele>658</ele>
        <time>2019-02-12T19:23:02Z</time>
      </trkpt>
      <trkpt lat="46.45827" lon="5.73426">
        <ele>658</ele>
        <time>2019-02-12T19:24:02Z</time>
      </trkpt>
      <trkpt lat="46.45839" lon="5.73407">
        <ele>658</ele>
        <time>2019-02-12T19:25:02Z</time>
      </trkpt>
      <trkpt lat="46.4585" lon="5.73391">
        <ele>658</ele>
        <time>2019-02-12T19:26:02Z</time>
      </trkpt>
      <trkpt lat="46.45863" lon="5.73375">
        <ele>658</ele>
        <time>2019-02-12T19:27:02Z</time>
      </trkpt>
      <trkpt lat="46.45874" lon="5.73362">
        <ele>657</ele>
        <time>2019-02-12T19:28:02Z</time>
      </trkpt>
      <trkpt lat="46.45882" lon="5.73348">
        <ele>657</ele>
        <time>2019-02-12T19:29:02Z</time>
      </trkpt>
      <trkpt lat="46.4589" lon="5.73332">
        <ele>656</ele>
        <time>2019-02-12T19:30:02Z</time>
      </trkpt>
      <trkpt lat="46.45897" lon="5.73316">
        <ele>655</ele>
        <time>2019-02-12T19:31:02Z</time>
      </trkpt>
      <trkpt lat="46.45905" lon="5.73297">
        <ele>654</ele>
        <time>2019-02-12T19:32:02Z</time>
      </trkpt>
      <trkpt lat="46.45914" lon="5.73277">
        <ele>652</ele>
        <time>2019-02-12T19:33:02Z</time>
      </trkpt>
      <trkpt lat="46.45917" lon="5.7327">
        <ele>652</ele>
        <time>2019-02-12T19:34:02Z</time>
      </trkpt>
      <trkpt lat="46.45923" lon="5.73261">
        <ele>651</ele>
        <time>2019-02-12T19:35:02Z</time>
      </trkpt>
      <trkpt lat="46.45928" lon="5.73256">
        <ele>651</ele>
        <time>2019-02-12T19:36:02Z</time>
      </trkpt>
      <trkpt lat="46.45936" lon="5.7325">
        <ele>651</ele>
        <time>2019-02-12T19:37:02Z</time>
      </trkpt>
      <trkpt lat="46.45958" lon="5.73239">
        <ele>651</ele>
        <time>2019-02-12T19:38:02Z</time>
      </trkpt>
      <trkpt lat="46.4597" lon="5.73233">
        <ele>650</ele>
        <time>2019-02-12T19:39:02Z</time>
      </trkpt>
      <trkpt lat="46.45982" lon="5.73222">
        <ele>649</ele>
        <time>2019-02-12T19:40:02Z</time>
      </trkpt>
      <trkpt lat="46.45987" lon="5.73215">
        <ele>649</ele>
        <time>2019-02-12T19:41:02Z</time>
      </trkpt>
      <trkpt lat="46.45994" lon="5.73204">
        <ele>647</ele>
        <time>2019-02-12T19:42:02Z</time>
      </trkpt>
      <trkpt lat="46.46005" lon="5.73179">
        <ele>644</ele>
        <time>2019-02-12T19:43:02Z</time>
      </trkpt>
      <trkpt lat="46.46018" lon="5.73152">
        <ele>642</ele>
        <time>2019-02-12T19:44:02Z</time>
      </trkpt>
      <trkpt lat="46.46028" lon="5.73128">
        <ele>641</ele>
        <time>2019-02-12T19:45:02Z</time>
      </trkpt>
      <trkpt lat="46.46051" lon="5.73075">
        <ele>638</ele>
        <time>2019-02-12T19:46:02Z</time>
      </trkpt>
      <trkpt lat="46.4606" lon="5.73056">
        <ele>638</ele>
        <time>2019-02-12T19:47:02Z</time>
      </trkpt>
      <trkpt lat="46.46065" lon="5.73043">
        <ele>637</ele>
        <time>2019-02-12T19:48:02Z</time>
      </trkpt>
      <trkpt lat="46.46067" lon="5.73032">
        <ele>637</ele>
        <time>2019-02-12T19:49:02Z</time>
      </trkpt>
      <trkpt lat="46.46068" lon="5.73022">
        <ele>637</ele>
        <time>2019-02-12T19:50:02Z</time>
      </trkpt>
      <trkpt lat="46.46068" lon="5.73008">
        <ele>636</ele>
        <time>2019-02-12T19:51:02Z</time>
      </trkpt>
      <trkpt lat="46.46068" lon="5.72987">
        <ele>635</ele>
        <time>2019-02-12T19:52:02Z</time>
      </trkpt>
      <trkpt lat="46.46068" lon="5.72963">
        <ele>634</ele>
        <time>2019-02-12T19:53:02Z</time>
      </trkpt>
      <trkpt lat="46.46066" lon="5.7293">
        <ele>633</ele>
        <time>2019-02-12T19:54:02Z</time>
      </trkpt>
      <trkpt lat="46.46064" lon="5.72904">
        <ele>631</ele>
        <time>2019-02-12T19:55:02Z</time>
      </trkpt>
      <trkpt lat="46.46063" lon="5.7289">
        <ele>630</ele>
        <time>2019-02-12T19:56:02Z</time>
      </trkpt>
      <trkpt lat="46.46064" lon="5.72871">
        <ele>628</ele>
        <time>2019-02-12T19:57:02Z</time>
      </trkpt>
      <trkpt lat="46.46065" lon="5.72842">
        <ele>626</ele>
        <time>2019-02-12T19:58:02Z</time>
      </trkpt>
      <trkpt lat="46.46066" lon="5.7282">
        <ele>624</ele>
        <time>2019-02-12T19:59:02Z</time>
      </trkpt>
      <trkpt lat="46.46069" lon="5.72793">
        <ele>623</ele>
        <time>2019-02-12T20:00:02Z</time>
      </trkpt>
      <trkpt lat="46.4607" lon="5.72773">
        <ele>623</ele>
        <time>2019-02-12T20:01:02Z</time>
      </trkpt>
      <trkpt lat="46.46071" lon="5.72753">
        <ele>622</ele>
        <time>2019-02-12T20:02:02Z</time>
      </trkpt>
      <trkpt lat="46.46073" lon="5.72736">
        <ele>621</ele>
        <time>2019-02-12T20:03:02Z</time>
      </trkpt>
      <trkpt lat="46.46075" lon="5.72725">
        <ele>620</ele>
        <time>2019-02-12T20:04:02Z</time>
      </trkpt>
      <trkpt lat="46.46082" lon="5.72705">
        <ele>619</ele>
        <time>2019-02-12T20:05:02Z</time>
      </trkpt>
      <trkpt lat="46.46088" lon="5.7269">
        <ele>618</ele>
        <time>2019-02-12T20:06:02Z</time>
      </trkpt>
      <trkpt lat="46.46097" lon="5.72671">
        <ele>617</ele>
        <time>2019-02-12T20:07:02Z</time>
      </trkpt>
      <trkpt lat="46.46104" lon="5.72658">
        <ele>616</ele>
        <time>2019-02-12T20:08:02Z</time>
      </trkpt>
      <trkpt lat="46.46111" lon="5.72647">
        <ele>616</ele>
        <time>2019-02-12T20:09:02Z</time>
      </trkpt>
      <trkpt lat="46.46118" lon="5.72634">
        <ele>615</ele>
        <time>2019-02-12T20:10:02Z</time>
      </trkpt>
      <trkpt lat="46.46121" lon="5.72623">
        <ele>614</ele>
        <time>2019-02-12T20:19:02Z</time>
      </trkpt>
      <trkpt lat="46.46125" lon="5.72608">
        <ele>613</ele>
        <time>2019-02-12T20:20:02Z</time>
      </trkpt>
      <trkpt lat="46.46128" lon="5.72596">
        <ele>612</ele>
        <time>2019-02-12T20:21:02Z</time>
      </trkpt>
      <trkpt lat="46.46132" lon="5.7259">
        <ele>612</ele>
        <time>2019-02-12T20:22:02Z</time>
      </trkpt>
      <trkpt lat="46.46137" lon="5.72585">
        <ele>611</ele>
        <time>2019-02-12T20:23:02Z</time>
      </trkpt>
      <trkpt lat="46.46152" lon="5.72575">
        <ele>611</ele>
        <time>2019-02-12T20:24:02Z</time>
      </trkpt>
      <trkpt lat="46.46165" lon="5.72565">
        <ele>610</ele>
        <time>2019-02-12T20:25:02Z</time>
      </trkpt>
      <trkpt lat="46.46174" lon="5.72559">
        <ele>609</ele>
        <time>2019-02-12T20:26:02Z</time>
      </trkpt>
      <trkpt lat="46.46187" lon="5.72549">
        <ele>608</ele>
        <time>2019-02-12T20:27:02Z</time>
      </trkpt>
      <trkpt lat="46.46196" lon="5.72544">
        <ele>607</ele>
        <time>2019-02-12T20:28:02Z</time>
      </trkpt>
      <trkpt lat="46.46204" lon="5.72541">
        <ele>606</ele>
        <time>2019-02-12T20:29:02Z</time>
      </trkpt>
      <trkpt lat="46.46211" lon="5.72541">
        <ele>606</ele>
        <time>2019-02-12T20:30:02Z</time>
      </trkpt>
      <trkpt lat="46.46217" lon="5.72544">
        <ele>606</ele>
        <time>2019-02-12T20:31:02Z</time>
      </trkpt>
      <trkpt lat="46.46223" lon="5.72548">
        <ele>605</ele>
        <time>2019-02-12T20:32:02Z</time>
      </trkpt>
      <trkpt lat="46.46239" lon="5.72553">
        <ele>605.7</ele>
        <time>2019-02-12T20:33:02Z</time>
      </trkpt>
      <trkpt lat="46.46258" lon="5.72555">
        <ele>602.3</ele>
        <time>2019-02-12T20:34:02Z</time>
      </trkpt>
      <trkpt lat="46.46272" lon="5.72554">
        <ele>601.8</ele>
        <time>2019-02-12T20:35:02Z</time>
      </trkpt>
      <trkpt lat="46.46287" lon="5.72554">
        <ele>602</ele>
        <time>2019-02-12T20:36:02Z</time>
      </trkpt>
      <trkpt lat="46.46296" lon="5.72546">
        <ele>601</ele>
        <time>2019-02-12T20:37:02Z</time>
      </trkpt>
      <trkpt lat="46.46304" lon="5.72543">
        <ele>600</ele>
        <time>2019-02-12T20:38:02Z</time>
      </trkpt>
      <trkpt lat="46.46311" lon="5.72542">
        <ele>599</ele>
        <time>2019-02-12T20:39:02Z</time>
      </trkpt>
      <trkpt lat="46.46319" lon="5.72544">
        <ele>599</ele>
        <time>2019-02-12T20:40:02Z</time>
      </trkpt>
      <trkpt lat="46.46327" lon="5.72548">
        <ele>599</ele>
        <time>2019-02-12T20:41:02Z</time>
      </trkpt>
      <trkpt lat="46.46329" lon="5.72548">
        <ele>599</ele>
        <time>2019-02-12T20:42:02Z</time>
      </trkpt>
      <trkpt lat="46.46354" lon="5.72564">
        <ele>599</ele>
        <time>2019-02-12T20:43:02Z</time>
      </trkpt>
      <trkpt lat="46.46359" lon="5.72566">
        <ele>599</ele>
        <time>2019-02-12T20:44:02Z</time>
      </trkpt>
      <trkpt lat="46.4637" lon="5.72571">
        <ele>599</ele>
        <time>2019-02-12T20:45:02Z</time>
      </trkpt>
      <trkpt lat="46.46379" lon="5.72573">
        <ele>599</ele>
        <time>2019-02-12T20:46:02Z</time>
      </trkpt>
      <trkpt lat="46.46388" lon="5.72574">
        <ele>599</ele>
        <time>2019-02-12T20:47:02Z</time>
      </trkpt>
      <trkpt lat="46.46396" lon="5.72573">
        <ele>598</ele>
        <time>2019-02-12T20:48:02Z</time>
      </trkpt>
      <trkpt lat="46.46413" lon="5.72567">
        <ele>598</ele>
        <time>2019-02-12T20:49:02Z</time>
      </trkpt>
      <trkpt lat="46.46429" lon="5.72559">
        <ele>597</ele>
        <time>2019-02-12T20:50:02Z</time>
      </trkpt>
      <trkpt lat="46.46443" lon="5.72549">
        <ele>597</ele>
        <time>2019-02-12T20:51:02Z</time>
      </trkpt>
      <trkpt lat="46.46452" lon="5.72542">
        <ele>597</ele>
        <time>2019-02-12T20:52:02Z</time>
      </trkpt>
      <trkpt lat="46.46458" lon="5.72531">
        <ele>596</ele>
        <time>2019-02-12T20:53:02Z</time>
      </trkpt>
      <trkpt lat="46.46462" lon="5.7252">
        <ele>596</ele>
        <time>2019-02-12T20:54:02Z</time>
      </trkpt>
      <trkpt lat="46.46465" lon="5.72508">
        <ele>595</ele>
        <time>2019-02-12T20:55:02Z</time>
      </trkpt>
      <trkpt lat="46.46468" lon="5.72495">
        <ele>595</ele>
        <time>2019-02-12T20:56:02Z</time>
      </trkpt>
      <trkpt lat="46.46475" lon="5.72458">
        <ele>594</ele>
        <time>2019-02-12T20:57:02Z</time>
      </trkpt>
      <trkpt lat="46.46479" lon="5.72435">
        <ele>594</ele>
        <time>2019-02-12T20:58:02Z</time>
      </trkpt>
      <trkpt lat="46.46484" lon="5.72422">
        <ele>594</ele>
        <time>2019-02-12T20:59:02Z</time>
      </trkpt>
      <trkpt lat="46.46488" lon="5.72412">
        <ele>594</ele>
        <time>2019-02-12T21:00:02Z</time>
      </trkpt>
      <trkpt lat="46.46495" lon="5.72402">
        <ele>593</ele>
        <time>2019-02-12T21:01:02Z</time>
      </trkpt>
      <trkpt lat="46.46504" lon="5.7239">
        <ele>593</ele>
        <time>2019-02-12T21:02:02Z</time>
      </trkpt>
      <trkpt lat="46.46517" lon="5.72376">
        <ele>593</ele>
        <time>2019-02-12T21:03:02Z</time>
      </trkpt>
      <trkpt lat="46.46538" lon="5.72353">
        <ele>593</ele>
        <time>2019-02-12T21:04:02Z</time>
      </trkpt>
      <trkpt lat="46.4655" lon="5.72338">
        <ele>592</ele>
        <time>2019-02-12T21:05:02Z</time>
      </trkpt>
      <trkpt lat="46.46564" lon="5.72322">
        <ele>592</ele>
        <time>2019-02-12T21:06:02Z</time>
      </trkpt>
      <trkpt lat="46.46575" lon="5.7231">
        <ele>592</ele>
        <time>2019-02-12T21:07:02Z</time>
      </trkpt>
      <trkpt lat="46.46589" lon="5.72295">
        <ele>593</ele>
        <time>2019-02-12T21:08:02Z</time>
      </trkpt>
      <trkpt lat="46.46602" lon="5.72282">
        <ele>593</ele>
        <time>2019-02-12T21:09:02Z</time>
      </trkpt>
      <trkpt lat="46.4661" lon="5.72272">
        <ele>593</ele>
        <time>2019-02-12T21:10:02Z</time>
      </trkpt>
      <trkpt lat="46.46615" lon="5.72262">
        <ele>593</ele>
        <time>2019-02-12T21:11:02Z</time>
      </trkpt>
      <trkpt lat="46.46619" lon="5.72252">
        <ele>594</ele>
        <time>2019-02-12T21:12:02Z</time>
      </trkpt>
      <trkpt lat="46.46626" lon="5.72221">
        <ele>594</ele>
        <time>2019-02-12T21:13:02Z</time>
      </trkpt>
      <trkpt lat="46.4663" lon="5.72208">
        <ele>593</ele>
        <time>2019-02-12T21:14:02Z</time>
      </trkpt>
      <trkpt lat="46.46634" lon="5.72194">
        <ele>593</ele>
        <time>2019-02-12T21:15:02Z</time>
      </trkpt>
      <trkpt lat="46.46638" lon="5.72184">
        <ele>593</ele>
        <time>2019-02-12T21:16:02Z</time>
      </trkpt>
      <trkpt lat="46.46644" lon="5.72172">
        <ele>593</ele>
        <time>2019-02-12T21:17:02Z</time>
      </trkpt>
      <trkpt lat="46.46653" lon="5.72153">
        <ele>593</ele>
        <time>2019-02-12T21:18:02Z</time>
      </trkpt>
      <trkpt lat="46.46663" lon="5.7213">
        <ele>592</ele>
        <time>2019-02-12T21:19:02Z</time>
      </trkpt>
      <trkpt lat="46.46675" lon="5.72106">
        <ele>590</ele>
        <time>2019-02-12T21:20:02Z</time>
      </trkpt>
      <trkpt lat="46.46683" lon="5.72088">
        <ele>589</ele>
        <time>2019-02-12T21:21:02Z</time>
      </trkpt>
      <trkpt lat="46.46692" lon="5.72071">
        <ele>588</ele>
        <time>2019-02-12T21:22:02Z</time>
      </trkpt>
      <trkpt lat="46.46701" lon="5.72053">
        <ele>587</ele>
        <time>2019-02-12T21:23:02Z</time>
      </trkpt>
      <trkpt lat="46.4671" lon="5.72034">
        <ele>586</ele>
        <time>2019-02-12T21:24:02Z</time>
      </trkpt>
      <trkpt lat="46.46716" lon="5.72022">
        <ele>586</ele>
        <time>2019-02-12T21:25:02Z</time>
      </trkpt>
      <trkpt lat="46.46721" lon="5.72009">
        <ele>585</ele>
        <time>2019-02-12T21:26:02Z</time>
      </trkpt>
      <trkpt lat="46.46724" lon="5.71994">
        <ele>585</ele>
        <time>2019-02-12T21:27:02Z</time>
      </trkpt>
      <trkpt lat="46.46726" lon="5.71975">
        <ele>584</ele>
        <time>2019-02-12T21:28:02Z</time>
      </trkpt>
      <trkpt lat="46.46726" lon="5.71956">
        <ele>584</ele>
        <time>2019-02-12T21:29:02Z</time>
      </trkpt>
      <trkpt lat="46.46726" lon="5.71925">
        <ele>583</ele>
        <time>2019-02-12T21:30:02Z</time>
      </trkpt>
      <trkpt lat="46.46726" lon="5.7191">
        <ele>582</ele>
        <time>2019-02-12T21:31:02Z</time>
      </trkpt>
      <trkpt lat="46.46724" lon="5.71896">
        <ele>582</ele>
        <time>2019-02-12T21:32:02Z</time>
      </trkpt>
      <trkpt lat="46.46721" lon="5.71883">
        <ele>582</ele>
        <time>2019-02-12T21:33:02Z</time>
      </trkpt>
      <trkpt lat="46.46716" lon="5.71864">
        <ele>582</ele>
        <time>2019-02-12T21:34:02Z</time>
      </trkpt>
      <trkpt lat="46.46708" lon="5.71843">
        <ele>582</ele>
        <time>2019-02-12T21:35:02Z</time>
      </trkpt>
      <trkpt lat="46.46694" lon="5.7181">
        <ele>581</ele>
        <time>2019-02-12T21:36:02Z</time>
      </trkpt>
      <trkpt lat="46.46686" lon="5.7179">
        <ele>581</ele>
        <time>2019-02-12T21:37:02Z</time>
      </trkpt>
      <trkpt lat="46.46679" lon="5.71769">
        <ele>580</ele>
        <time>2019-02-12T21:38:02Z</time>
      </trkpt>
      <trkpt lat="46.4667" lon="5.71738">
        <ele>579</ele>
        <time>2019-02-12T21:39:02Z</time>
      </trkpt>
      <trkpt lat="46.46665" lon="5.71718">
        <ele>579</ele>
        <time>2019-02-12T21:40:02Z</time>
      </trkpt>
      <trkpt lat="46.4666" lon="5.71695">
        <ele>579</ele>
        <time>2019-02-12T21:41:02Z</time>
      </trkpt>
      <trkpt lat="46.46659" lon="5.71682">
        <ele>579</ele>
        <time>2019-02-12T21:42:02Z</time>
      </trkpt>
      <trkpt lat="46.46658" lon="5.71667">
        <ele>578</ele>
        <time>2019-02-12T21:43:02Z</time>
      </trkpt>
      <trkpt lat="46.46657" lon="5.71664">
        <ele>578</ele>
        <time>2019-02-12T21:44:02Z</time>
      </trkpt>
      <trkpt lat="46.46656" lon="5.7165">
        <ele>578</ele>
        <time>2019-02-12T21:45:02Z</time>
      </trkpt>
      <trkpt lat="46.46654" lon="5.71635">
        <ele>579</ele>
        <time>2019-02-12T21:46:02Z</time>
      </trkpt>
      <trkpt lat="46.46652" lon="5.71622">
        <ele>579</ele>
        <time>2019-02-12T21:47:02Z</time>
      </trkpt>
      <trkpt lat="46.46648" lon="5.71612">
        <ele>579</ele>
        <time>2019-02-12T21:48:02Z</time>
      </trkpt>
      <trkpt lat="46.4664" lon="5.71604">
        <ele>579</ele>
        <time>2019-02-12T21:49:02Z</time>
      </trkpt>
      <trkpt lat="46.4663" lon="5.71595">
        <ele>579</ele>
        <time>2019-02-12T21:50:02Z</time>
      </trkpt>
      <trkpt lat="46.46623" lon="5.71586">
        <ele>580</ele>
        <time>2019-02-12T21:51:02Z</time>
      </trkpt>
      <trkpt lat="46.4662" lon="5.7158">
        <ele>580</ele>
        <time>2019-02-12T21:52:02Z</time>
      </trkpt>
      <trkpt lat="46.46622" lon="5.71565">
        <ele>579</ele>
        <time>2019-02-12T21:53:02Z</time>
      </trkpt>
      <trkpt lat="46.46622" lon="5.71558">
        <ele>579</ele>
        <time>2019-02-12T21:54:02Z</time>
      </trkpt>
      <trkpt lat="46.46625" lon="5.71541">
        <ele>579</ele>
        <time>2019-02-12T21:55:02Z</time>
      </trkpt>
      <trkpt lat="46.46619" lon="5.71525">
        <ele>579</ele>
        <time>2019-02-12T21:56:02Z</time>
      </trkpt>
      <trkpt lat="46.46613" lon="5.71509">
        <ele>579</ele>
        <time>2019-02-12T21:57:02Z</time>
      </trkpt>
      <trkpt lat="46.46607" lon="5.71498">
        <ele>579</ele>
        <time>2019-02-12T21:58:02Z</time>
      </trkpt>
      <trkpt lat="46.466" lon="5.71493">
        <ele>579</ele>
        <time>2019-02-12T21:59:02Z</time>
      </trkpt>
      <trkpt lat="46.46592" lon="5.7149">
        <ele>579</ele>
        <time>2019-02-12T22:00:02Z</time>
      </trkpt>
      <trkpt lat="46.46581" lon="5.71486">
        <ele>580</ele>
        <time>2019-02-12T22:01:02Z</time>
      </trkpt>
      <trkpt lat="46.46574" lon="5.71481">
        <ele>580</ele>
        <time>2019-02-12T22:02:02Z</time>
      </trkpt>
      <trkpt lat="46.4657" lon="5.71474">
        <ele>579</ele>
        <time>2019-02-12T22:03:02Z</time>
      </trkpt>
      <trkpt lat="46.46568" lon="5.71465">
        <ele>579</ele>
        <time>2019-02-12T22:04:02Z</time>
      </trkpt>
      <trkpt lat="46.46568" lon="5.71459">
        <ele>579</ele>
        <time>2019-02-12T22:05:02Z</time>
      </trkpt>
      <trkpt lat="46.46568" lon="5.71459">
        <ele>579</ele>
        <time>2019-02-12T22:06:02Z</time>
      </trkpt>
      <trkpt lat="46.46584" lon="5.7146">
        <ele>579</ele>
        <time>2019-02-12T22:07:02Z</time>
      </trkpt>
      <trkpt lat="46.46601" lon="5.71461">
        <ele>578</ele>
        <time>2019-02-12T22:08:02Z</time>
      </trkpt>
      <trkpt lat="46.46609" lon="5.71461">
        <ele>578</ele>
        <time>2019-02-12T22:09:02Z</time>
      </trkpt>
      <trkpt lat="46.46609" lon="5.71461">
        <ele>578</ele>
        <time>2019-02-12T22:10:02Z</time>
      </trkpt>
      <trkpt lat="46.46608" lon="5.71451">
        <ele>577</ele>
        <time>2019-02-12T22:11:02Z</time>
      </trkpt>
      <trkpt lat="46.46606" lon="5.7144">
        <ele>577</ele>
        <time>2019-02-12T22:12:02Z</time>
      </trkpt>
      <trkpt lat="46.466" lon="5.71428">
        <ele>577</ele>
        <time>2019-02-12T22:13:02Z</time>
      </trkpt>
      <trkpt lat="46.46594" lon="5.71412">
        <ele>576</ele>
        <time>2019-02-12T22:14:02Z</time>
      </trkpt>
      <trkpt lat="46.46591" lon="5.71403">
        <ele>576</ele>
        <time>2019-02-12T22:15:02Z</time>
      </trkpt>
      <trkpt lat="46.46588" lon="5.71389">
        <ele>576</ele>
        <time>2019-02-12T22:16:02Z</time>
      </trkpt>
      <trkpt lat="46.46586" lon="5.71373">
        <ele>575</ele>
        <time>2019-02-12T22:17:02Z</time>
      </trkpt>
      <trkpt lat="46.46584" lon="5.71357">
        <ele>575</ele>
        <time>2019-02-12T22:18:02Z</time>
      </trkpt>
      <trkpt lat="46.46581" lon="5.71339">
        <ele>574</ele>
        <time>2019-02-12T22:19:02Z</time>
      </trkpt>
      <trkpt lat="46.46578" lon="5.71326">
        <ele>574</ele>
        <time>2019-02-12T22:20:02Z</time>
      </trkpt>
      <trkpt lat="46.46576" lon="5.71317">
        <ele>575</ele>
        <time>2019-02-12T22:21:02Z</time>
      </trkpt>
      <trkpt lat="46.46578" lon="5.71305">
        <ele>575</ele>
        <time>2019-02-12T22:22:02Z</time>
      </trkpt>
      <trkpt lat="46.46579" lon="5.71292">
        <ele>575</ele>
        <time>2019-02-12T22:23:02Z</time>
      </trkpt>
      <trkpt lat="46.46578" lon="5.71278">
        <ele>575</ele>
        <time>2019-02-12T22:24:02Z</time>
      </trkpt>
      <trkpt lat="46.46578" lon="5.71278">
        <ele>575</ele>
        <time>2019-02-12T22:25:02Z</time>
      </trkpt>
      <trkpt lat="46.46599" lon="5.71269">
        <ele>574</ele>
        <time>2019-02-12T22:26:02Z</time>
      </trkpt>
      <trkpt lat="46.46617" lon="5.71264">
        <ele>573</ele>
        <time>2019-02-12T22:27:02Z</time>
      </trkpt>
      <trkpt lat="46.46639" lon="5.7126">
        <ele>571</ele>
        <time>2019-02-12T22:28:02Z</time>
      </trkpt>
      <trkpt lat="46.46656" lon="5.71258">
        <ele>570</ele>
        <time>2019-02-12T22:29:02Z</time>
      </trkpt>
      <trkpt lat="46.46668" lon="5.71257">
        <ele>569</ele>
        <time>2019-02-12T22:30:02Z</time>
      </trkpt>
      <trkpt lat="46.46684" lon="5.71258">
        <ele>569</ele>
        <time>2019-02-12T22:31:02Z</time>
      </trkpt>
      <trkpt lat="46.46703" lon="5.71262">
        <ele>568</ele>
        <time>2019-02-12T22:32:02Z</time>
      </trkpt>
      <trkpt lat="46.46714" lon="5.71267">
        <ele>568</ele>
        <time>2019-02-12T22:33:02Z</time>
      </trkpt>
      <trkpt lat="46.46714" lon="5.71267">
        <ele>568</ele>
        <time>2019-02-12T22:34:02Z</time>
      </trkpt>
      <trkpt lat="46.46716" lon="5.71262">
        <ele>568</ele>
        <time>2019-02-12T22:35:02Z</time>
      </trkpt>
      <trkpt lat="46.46722" lon="5.7124">
        <ele>567</ele>
        <time>2019-02-12T22:36:02Z</time>
      </trkpt>
      <trkpt lat="46.46725" lon="5.71223">
        <ele>566</ele>
        <time>2019-02-12T22:37:02Z</time>
      </trkpt>
      <trkpt lat="46.46725" lon="5.712">
        <ele>565</ele>
        <time>2019-02-12T22:38:02Z</time>
      </trkpt>
      <trkpt lat="46.46723" lon="5.7118">
        <ele>565</ele>
        <time>2019-02-12T22:39:02Z</time>
      </trkpt>
      <trkpt lat="46.46719" lon="5.7115">
        <ele>563</ele>
        <time>2019-02-12T22:40:02Z</time>
      </trkpt>
      <trkpt lat="46.46715" lon="5.7113">
        <ele>562</ele>
        <time>2019-02-12T22:41:02Z</time>
      </trkpt>
      <trkpt lat="46.46711" lon="5.71111">
        <ele>562</ele>
        <time>2019-02-12T22:42:02Z</time>
      </trkpt>
      <trkpt lat="46.4671" lon="5.71097">
        <ele>561</ele>
        <time>2019-02-12T22:43:02Z</time>
      </trkpt>
      <trkpt lat="46.46709" lon="5.71083">
        <ele>561</ele>
        <time>2019-02-12T22:44:02Z</time>
      </trkpt>
      <trkpt lat="46.4671" lon="5.71068">
        <ele>560</ele>
        <time>2019-02-12T22:45:02Z</time>
      </trkpt>
      <trkpt lat="46.46714" lon="5.71047">
        <ele>559</ele>
        <time>2019-02-12T22:46:02Z</time>
      </trkpt>
      <trkpt lat="46.46716" lon="5.71028">
        <ele>559</ele>
        <time>2019-02-12T22:47:02Z</time>
      </trkpt>
      <trkpt lat="46.46717" lon="5.71016">
        <ele>558</ele>
        <time>2019-02-12T22:48:02Z</time>
      </trkpt>
      <trkpt lat="46.46716" lon="5.70999">
        <ele>558</ele>
        <time>2019-02-12T22:49:02Z</time>
      </trkpt>
      <trkpt lat="46.46713" lon="5.7098">
        <ele>557</ele>
        <time>2019-02-12T22:50:02Z</time>
      </trkpt>
      <trkpt lat="46.46712" lon="5.70964">
        <ele>557</ele>
        <time>2019-02-12T22:51:02Z</time>
      </trkpt>
      <trkpt lat="46.46712" lon="5.70947">
        <ele>556</ele>
        <time>2019-02-12T22:52:02Z</time>
      </trkpt>
      <trkpt lat="46.46715" lon="5.70927">
        <ele>554</ele>
        <time>2019-02-12T22:53:02Z</time>
      </trkpt>
      <trkpt lat="46.4672" lon="5.7091">
        <ele>553</ele>
        <time>2019-02-12T22:54:02Z</time>
      </trkpt>
      <trkpt lat="46.4673" lon="5.70886">
        <ele>551</ele>
        <time>2019-02-12T22:55:02Z</time>
      </trkpt>
      <trkpt lat="46.46748" lon="5.70855">
        <ele>549</ele>
        <time>2019-02-12T22:56:02Z</time>
      </trkpt>
      <trkpt lat="46.46772" lon="5.70813">
        <ele>547</ele>
        <time>2019-02-12T22:57:02Z</time>
      </trkpt>
      <trkpt lat="46.46796" lon="5.70772">
        <ele>545</ele>
        <time>2019-02-12T22:58:02Z</time>
      </trkpt>
      <trkpt lat="46.46816" lon="5.70737">
        <ele>545</ele>
        <time>2019-02-12T22:59:02Z</time>
      </trkpt>
      <trkpt lat="46.46838" lon="5.70698">
        <ele>546</ele>
        <time>2019-02-12T23:00:02Z</time>
      </trkpt>
      <trkpt lat="46.46856" lon="5.70668">
        <ele>545</ele>
        <time>2019-02-12T23:01:02Z</time>
      </trkpt>
      <trkpt lat="46.46876" lon="5.70634">
        <ele>543</ele>
        <time>2019-02-12T23:02:02Z</time>
      </trkpt>
      <trkpt lat="46.46888" lon="5.70614">
        <ele>541</ele>
        <time>2019-02-12T23:03:02Z</time>
      </trkpt>
      <trkpt lat="46.46905" lon="5.70588">
        <ele>539</ele>
        <time>2019-02-12T23:04:02Z</time>
      </trkpt>
      <trkpt lat="46.46918" lon="5.7057">
        <ele>536</ele>
        <time>2019-02-12T23:05:02Z</time>
      </trkpt>
      <trkpt lat="46.46926" lon="5.70561">
        <ele>535</ele>
        <time>2019-02-12T23:06:02Z</time>
      </trkpt>
      <trkpt lat="46.46931" lon="5.70555">
        <ele>534</ele>
        <time>2019-02-12T23:07:02Z</time>
      </trkpt>
      <trkpt lat="46.46941" lon="5.70543">
        <ele>533</ele>
        <time>2019-02-12T23:08:02Z</time>
      </trkpt>
      <trkpt lat="46.46957" lon="5.70518">
        <ele>532</ele>
        <time>2019-02-12T23:09:02Z</time>
      </trkpt>
      <trkpt lat="46.46978" lon="5.70485">
        <ele>530</ele>
        <time>2019-02-12T23:10:02Z</time>
      </trkpt>
      <trkpt lat="46.46996" lon="5.70454">
        <ele>529</ele>
        <time>2019-02-12T23:11:02Z</time>
      </trkpt>
      <trkpt lat="46.47006" lon="5.70438">
        <ele>528</ele>
        <time>2019-02-12T23:12:02Z</time>
      </trkpt>
      <trkpt lat="46.47021" lon="5.70405">
        <ele>527</ele>
        <time>2019-02-12T23:13:02Z</time>
      </trkpt>
      <trkpt lat="46.47036" lon="5.70372">
        <ele>525</ele>
        <time>2019-02-12T23:14:02Z</time>
      </trkpt>
      <trkpt lat="46.4705" lon="5.70344">
        <ele>524</ele>
        <time>2019-02-12T23:15:02Z</time>
      </trkpt>
      <trkpt lat="46.47055" lon="5.70334">
        <ele>523</ele>
        <time>2019-02-12T23:16:02Z</time>
      </trkpt>
      <trkpt lat="46.47063" lon="5.70319">
        <ele>522</ele>
        <time>2019-02-12T23:17:02Z</time>
      </trkpt>
      <trkpt lat="46.47075" lon="5.70296">
        <ele>521</ele>
        <time>2019-02-12T23:18:02Z</time>
      </trkpt>
      <trkpt lat="46.47084" lon="5.7028">
        <ele>520</ele>
        <time>2019-02-12T23:19:02Z</time>
      </trkpt>
      <trkpt lat="46.47092" lon="5.70266">
        <ele>519</ele>
        <time>2019-02-12T23:20:02Z</time>
      </trkpt>
      <trkpt lat="46.47103" lon="5.7025">
        <ele>518</ele>
        <time>2019-02-12T23:21:02Z</time>
      </trkpt>
      <trkpt lat="46.47116" lon="5.70232">
        <ele>518</ele>
        <time>2019-02-12T23:22:02Z</time>
      </trkpt>
      <trkpt lat="46.47127" lon="5.70214">
        <ele>517</ele>
        <time>2019-02-12T23:23:02Z</time>
      </trkpt>
      <trkpt lat="46.47132" lon="5.70197">
        <ele>517</ele>
        <time>2019-02-12T23:24:02Z</time>
      </trkpt>
      <trkpt lat="46.47134" lon="5.70185">
        <ele>517</ele>
        <time>2019-02-12T23:25:02Z</time>
      </trkpt>
      <trkpt lat="46.47135" lon="5.70167">
        <ele>517</ele>
        <time>2019-02-12T23:26:02Z</time>
      </trkpt>
      <trkpt lat="46.47137" lon="5.70145">
        <ele>517</ele>
        <time>2019-02-12T23:27:02Z</time>
      </trkpt>
      <trkpt lat="46.47137" lon="5.70117">
        <ele>517</ele>
        <time>2019-02-12T23:28:02Z</time>
      </trkpt>
      <trkpt lat="46.47137" lon="5.70098">
        <ele>516</ele>
        <time>2019-02-12T23:29:02Z</time>
      </trkpt>
      <trkpt lat="46.47139" lon="5.70075">
        <ele>516</ele>
        <time>2019-02-12T23:30:02Z</time>
      </trkpt>
      <trkpt lat="46.47142" lon="5.70055">
        <ele>516</ele>
        <time>2019-02-12T23:31:02Z</time>
      </trkpt>
      <trkpt lat="46.47149" lon="5.70038">
        <ele>516</ele>
        <time>2019-02-12T23:32:02Z</time>
      </trkpt>
      <trkpt lat="46.47157" lon="5.70021">
        <ele>516</ele>
        <time>2019-02-12T23:33:02Z</time>
      </trkpt>
      <trkpt lat="46.47172" lon="5.69998">
        <ele>517</ele>
        <time>2019-02-12T23:34:02Z</time>
      </trkpt>
      <trkpt lat="46.47193" lon="5.69962">
        <ele>517</ele>
        <time>2019-02-12T23:35:02Z</time>
      </trkpt>
      <trkpt lat="46.47211" lon="5.6993">
        <ele>517</ele>
        <time>2019-02-12T23:36:02Z</time>
      </trkpt>
      <trkpt lat="46.47239" lon="5.69881">
        <ele>517</ele>
        <time>2019-02-12T23:37:02Z</time>
      </trkpt>
      <trkpt lat="46.47264" lon="5.69837">
        <ele>517</ele>
        <time>2019-02-12T23:38:02Z</time>
      </trkpt>
      <trkpt lat="46.47281" lon="5.69806">
        <ele>516</ele>
        <time>2019-02-12T23:39:02Z</time>
      </trkpt>
      <trkpt lat="46.47297" lon="5.69781">
        <ele>516</ele>
        <time>2019-02-12T23:40:02Z</time>
      </trkpt>
      <trkpt lat="46.4731" lon="5.69761">
        <ele>515</ele>
        <time>2019-02-12T23:41:02Z</time>
      </trkpt>
      <trkpt lat="46.47326" lon="5.6974">
        <ele>514</ele>
        <time>2019-02-12T23:42:02Z</time>
      </trkpt>
      <trkpt lat="46.47344" lon="5.69716">
        <ele>515</ele>
        <time>2019-02-12T23:43:02Z</time>
      </trkpt>
      <trkpt lat="46.47355" lon="5.69698">
        <ele>516</ele>
        <time>2019-02-12T23:44:02Z</time>
      </trkpt>
      <trkpt lat="46.47362" lon="5.69686">
        <ele>516</ele>
        <time>2019-02-12T23:45:02Z</time>
      </trkpt>
      <trkpt lat="46.47367" lon="5.69676">
        <ele>516</ele>
        <time>2019-02-12T23:46:02Z</time>
      </trkpt>
      <trkpt lat="46.47374" lon="5.69661">
        <ele>517</ele>
        <time>2019-02-12T23:47:02Z</time>
      </trkpt>
      <trkpt lat="46.47383" lon="5.69636">
        <ele>518</ele>
        <time>2019-02-12T23:48:02Z</time>
      </trkpt>
      <trkpt lat="46.47393" lon="5.69607">
        <ele>518</ele>
        <time>2019-02-12T23:49:02Z</time>
      </trkpt>
      <trkpt lat="46.47398" lon="5.69589">
        <ele>519</ele>
        <time>2019-02-12T23:50:02Z</time>
      </trkpt>
      <trkpt lat="46.47405" lon="5.69575">
        <ele>518</ele>
        <time>2019-02-12T23:51:02Z</time>
      </trkpt>
      <trkpt lat="46.47414" lon="5.6956">
        <ele>518</ele>
        <time>2019-02-12T23:52:02Z</time>
      </trkpt>
      <trkpt lat="46.47428" lon="5.69535">
        <ele>518</ele>
        <time>2019-02-12T23:53:02Z</time>
      </trkpt>
      <trkpt lat="46.47442" lon="5.69511">
        <ele>517</ele>
        <time>2019-02-12T23:54:02Z</time>
      </trkpt>
      <trkpt lat="46.47452" lon="5.69492">
        <ele>517</ele>
        <time>2019-02-12T23:55:02Z</time>
      </trkpt>
      <trkpt lat="46.47461" lon="5.69472">
        <ele>517</ele>
        <time>2019-02-12T23:56:02Z</time>
      </trkpt>
      <trkpt lat="46.47468" lon="5.69455">
        <ele>517</ele>
        <time>2019-02-12T23:57:02Z</time>
      </trkpt>
      <trkpt lat="46.47478" lon="5.69427">
        <ele>516</ele>
        <time>2019-02-12T23:58:02Z</time>
      </trkpt>
      <trkpt lat="46.47488" lon="5.69401">
        <ele>516</ele>
        <time>2019-02-12T23:59:02Z</time>
      </trkpt>
      <trkpt lat="46.47488" lon="5.69401">
        <ele>516</ele>
        <time>2019-02-13T00:00:02Z</time>
      </trkpt>
      <trkpt lat="46.47491" lon="5.69393">
        <ele>516</ele>
        <time>2019-02-13T00:01:02Z</time>
      </trkpt>
      <trkpt lat="46.475" lon="5.69367">
        <ele>516</ele>
        <time>2019-02-13T00:02:02Z</time>
      </trkpt>
      <trkpt lat="46.47512" lon="5.6934">
        <ele>516</ele>
        <time>2019-02-13T00:03:02Z</time>
      </trkpt>
      <trkpt lat="46.47522" lon="5.69316">
        <ele>516</ele>
        <time>2019-02-13T00:04:02Z</time>
      </trkpt>
      <trkpt lat="46.47529" lon="5.69297">
        <ele>517</ele>
        <time>2019-02-13T00:05:02Z</time>
      </trkpt>
      <trkpt lat="46.47535" lon="5.69283">
        <ele>518</ele>
        <time>2019-02-13T00:06:02Z</time>
      </trkpt>
      <trkpt lat="46.47544" lon="5.69261">
        <ele>518</ele>
        <time>2019-02-13T00:07:02Z</time>
      </trkpt>
      <trkpt lat="46.47555" lon="5.69243">
        <ele>519</ele>
        <time>2019-02-13T00:08:02Z</time>
      </trkpt>
      <trkpt lat="46.47564" lon="5.6923">
        <ele>519</ele>
        <time>2019-02-13T00:09:02Z</time>
      </trkpt>
      <trkpt lat="46.4758" lon="5.69208">
        <ele>520</ele>
        <time>2019-02-13T00:10:02Z</time>
      </trkpt>
      <trkpt lat="46.4758" lon="5.69208">
        <ele>520</ele>
        <time>2019-02-13T00:11:02Z</time>
      </trkpt>
      <trkpt lat="46.47594" lon="5.69191">
        <ele>520</ele>
        <time>2019-02-13T00:12:02Z</time>
      </trkpt>
      <trkpt lat="46.47608" lon="5.69175">
        <ele>521</ele>
        <time>2019-02-13T00:13:02Z</time>
      </trkpt>
      <trkpt lat="46.47618" lon="5.69163">
        <ele>522</ele>
        <time>2019-02-13T00:14:02Z</time>
      </trkpt>
      <trkpt lat="46.47629" lon="5.6915">
        <ele>522</ele>
        <time>2019-02-13T00:15:02Z</time>
      </trkpt>
      <trkpt lat="46.47639" lon="5.69141">
        <ele>522</ele>
        <time>2019-02-13T00:16:02Z</time>
      </trkpt>
      <trkpt lat="46.47654" lon="5.69132">
        <ele>523</ele>
        <time>2019-02-13T00:17:02Z</time>
      </trkpt>
      <trkpt lat="46.47675" lon="5.69121">
        <ele>523</ele>
        <time>2019-02-13T00:18:02Z</time>
      </trkpt>
      <trkpt lat="46.47709" lon="5.69104">
        <ele>523</ele>
        <time>2019-02-13T00:19:02Z</time>
      </trkpt>
      <trkpt lat="46.47733" lon="5.69091">
        <ele>524</ele>
        <time>2019-02-13T00:20:02Z</time>
      </trkpt>
      <trkpt lat="46.47752" lon="5.69076">
        <ele>524</ele>
        <time>2019-02-13T00:21:02Z</time>
      </trkpt>
      <trkpt lat="46.47769" lon="5.69063">
        <ele>524</ele>
        <time>2019-02-13T00:22:02Z</time>
      </trkpt>
      <trkpt lat="46.47781" lon="5.69052">
        <ele>524</ele>
        <time>2019-02-13T00:23:02Z</time>
      </trkpt>
      <trkpt lat="46.47788" lon="5.69041">
        <ele>524</ele>
        <time>2019-02-13T00:24:02Z</time>
      </trkpt>
      <trkpt lat="46.47793" lon="5.6903">
        <ele>525</ele>
        <time>2019-02-13T00:25:02Z</time>
      </trkpt>
      <trkpt lat="46.47796" lon="5.69014">
        <ele>525</ele>
        <time>2019-02-13T00:26:02Z</time>
      </trkpt>
      <trkpt lat="46.478" lon="5.68997">
        <ele>525</ele>
        <time>2019-02-13T00:27:02Z</time>
      </trkpt>
      <trkpt lat="46.47806" lon="5.68978">
        <ele>524</ele>
        <time>2019-02-13T00:28:02Z</time>
      </trkpt>
      <trkpt lat="46.47811" lon="5.68962">
        <ele>524</ele>
        <time>2019-02-13T00:29:02Z</time>
      </trkpt>
      <trkpt lat="46.47819" lon="5.68933">
        <ele>523</ele>
        <time>2019-02-13T00:30:02Z</time>
      </trkpt>
      <trkpt lat="46.47822" lon="5.68913">
        <ele>523</ele>
        <time>2019-02-13T00:31:02Z</time>
      </trkpt>
      <trkpt lat="46.47824" lon="5.68896">
        <ele>523</ele>
        <time>2019-02-13T00:32:02Z</time>
      </trkpt>
      <trkpt lat="46.47825" lon="5.68882">
        <ele>523</ele>
        <time>2019-02-13T00:33:02Z</time>
      </trkpt>
      <trkpt lat="46.47826" lon="5.68871">
        <ele>523</ele>
        <time>2019-02-13T00:34:02Z</time>
      </trkpt>
      <trkpt lat="46.47826" lon="5.68863">
        <ele>523</ele>
        <time>2019-02-13T00:35:02Z</time>
      </trkpt>
      <trkpt lat="46.47825" lon="5.68852">
        <ele>522</ele>
        <time>2019-02-13T00:36:02Z</time>
      </trkpt>
      <trkpt lat="46.47827" lon="5.68841">
        <ele>522</ele>
        <time>2019-02-13T00:37:02Z</time>
      </trkpt>
      <trkpt lat="46.47834" lon="5.68824">
        <ele>522</ele>
        <time>2019-02-13T00:38:02Z</time>
      </trkpt>
      <trkpt lat="46.47841" lon="5.68812">
        <ele>522</ele>
        <time>2019-02-13T00:39:02Z</time>
      </trkpt>
      <trkpt lat="46.47851" lon="5.68796">
        <ele>522</ele>
        <time>2019-02-13T00:40:02Z</time>
      </trkpt>
      <trkpt lat="46.4786" lon="5.68783">
        <ele>523</ele>
        <time>2019-02-13T00:41:02Z</time>
      </trkpt>
      <trkpt lat="46.47863" lon="5.6878">
        <ele>523</ele>
        <time>2019-02-13T00:42:02Z</time>
      </trkpt>
      <trkpt lat="46.47867" lon="5.68778">
        <ele>523</ele>
        <time>2019-02-13T00:43:02Z</time>
      </trkpt>
      <trkpt lat="46.47874" lon="5.68778">
        <ele>522</ele>
        <time>2019-02-13T00:44:02Z</time>
      </trkpt>
      <trkpt lat="46.47879" lon="5.68778">
        <ele>522</ele>
        <time>2019-02-13T00:45:02Z</time>
      </trkpt>
      <trkpt lat="46.47898" lon="5.68778">
        <ele>522</ele>
        <time>2019-02-13T00:46:02Z</time>
      </trkpt>
      <trkpt lat="46.4792" lon="5.68777">
        <ele>521</ele>
        <time>2019-02-13T00:47:02Z</time>
      </trkpt>
      <trkpt lat="46.47928" lon="5.68775">
        <ele>521</ele>
        <time>2019-02-13T00:48:02Z</time>
      </trkpt>
      <trkpt lat="46.47937" lon="5.6877">
        <ele>521</ele>
        <time>2019-02-13T00:49:02Z</time>
      </trkpt>
      <trkpt lat="46.47951" lon="5.68761">
        <ele>521</ele>
        <time>2019-02-13T00:50:02Z</time>
      </trkpt>
      <trkpt lat="46.47955" lon="5.68758">
        <ele>521</ele>
        <time>2019-02-13T00:51:02Z</time>
      </trkpt>
      <trkpt lat="46.47961" lon="5.68755">
        <ele>520</ele>
        <time>2019-02-13T00:52:02Z</time>
      </trkpt>
      <trkpt lat="46.47971" lon="5.68751">
        <ele>520</ele>
        <time>2019-02-13T00:53:02Z</time>
      </trkpt>
      <trkpt lat="46.47983" lon="5.68751">
        <ele>520</ele>
        <time>2019-02-13T00:54:02Z</time>
      </trkpt>
      <trkpt lat="46.47991" lon="5.68754">
        <ele>519</ele>
        <time>2019-02-13T00:55:02Z</time>
      </trkpt>
      <trkpt lat="46.48" lon="5.68758">
        <ele>519</ele>
        <time>2019-02-13T00:56:02Z</time>
      </trkpt>
      <trkpt lat="46.48009" lon="5.68765">
        <ele>518</ele>
        <time>2019-02-13T00:57:02Z</time>
      </trkpt>
      <trkpt lat="46.48018" lon="5.68772">
        <ele>517</ele>
        <time>2019-02-13T00:58:02Z</time>
      </trkpt>
      <trkpt lat="46.48026" lon="5.6878">
        <ele>516</ele>
        <time>2019-02-13T00:59:02Z</time>
      </trkpt>
      <trkpt lat="46.4805" lon="5.68802">
        <ele>514</ele>
        <time>2019-02-13T01:00:02Z</time>
      </trkpt>
      <trkpt lat="46.48066" lon="5.68818">
        <ele>514</ele>
        <time>2019-02-13T01:01:02Z</time>
      </trkpt>
      <trkpt lat="46.48083" lon="5.68833">
        <ele>513</ele>
        <time>2019-02-13T01:02:02Z</time>
      </trkpt>
      <trkpt lat="46.48098" lon="5.68851">
        <ele>511</ele>
        <time>2019-02-13T01:03:02Z</time>
      </trkpt>
      <trkpt lat="46.48107" lon="5.68863">
        <ele>510</ele>
        <time>2019-02-13T01:04:02Z</time>
      </trkpt>
      <trkpt lat="46.48113" lon="5.68877">
        <ele>510</ele>
        <time>2019-02-13T01:05:02Z</time>
      </trkpt>
      <trkpt lat="46.4812" lon="5.68898">
        <ele>511</ele>
        <time>2019-02-13T01:06:02Z</time>
      </trkpt>
      <trkpt lat="46.48124" lon="5.68914">
        <ele>511</ele>
        <time>2019-02-13T01:07:02Z</time>
      </trkpt>
      <trkpt lat="46.48126" lon="5.68923">
        <ele>511</ele>
        <time>2019-02-13T01:08:02Z</time>
      </trkpt>
      <trkpt lat="46.48126" lon="5.68932">
        <ele>511</ele>
        <time>2019-02-13T01:09:02Z</time>
      </trkpt>
      <trkpt lat="46.48126" lon="5.6894">
        <ele>511</ele>
        <time>2019-02-13T01:10:02Z</time>
      </trkpt>
      <trkpt lat="46.48125" lon="5.6895">
        <ele>511</ele>
        <time>2019-02-13T01:11:02Z</time>
      </trkpt>
      <trkpt lat="46.48124" lon="5.6896">
        <ele>511</ele>
        <time>2019-02-13T01:12:02Z</time>
      </trkpt>
      <trkpt lat="46.48123" lon="5.68968">
        <ele>511</ele>
        <time>2019-02-13T01:13:02Z</time>
      </trkpt>
      <trkpt lat="46.48123" lon="5.68976">
        <ele>511</ele>
        <time>2019-02-13T01:14:02Z</time>
      </trkpt>
      <trkpt lat="46.48124" lon="5.68985">
        <ele>510</ele>
        <time>2019-02-13T01:15:02Z</time>
      </trkpt>
      <trkpt lat="46.48127" lon="5.68995">
        <ele>510</ele>
        <time>2019-02-13T01:16:02Z</time>
      </trkpt>
      <trkpt lat="46.48133" lon="5.69005">
        <ele>508</ele>
        <time>2019-02-13T01:17:02Z</time>
      </trkpt>
      <trkpt lat="46.48147" lon="5.69017">
        <ele>505</ele>
        <time>2019-02-13T01:18:02Z</time>
      </trkpt>
      <trkpt lat="46.48162" lon="5.69027">
        <ele>503</ele>
        <time>2019-02-13T01:19:02Z</time>
      </trkpt>
      <trkpt lat="46.48171" lon="5.69034">
        <ele>502</ele>
        <time>2019-02-13T01:20:02Z</time>
      </trkpt>
      <trkpt lat="46.48186" lon="5.69043">
        <ele>502</ele>
        <time>2019-02-13T01:21:02Z</time>
      </trkpt>
      <trkpt lat="46.48197" lon="5.69047">
        <ele>502</ele>
        <time>2019-02-13T01:22:02Z</time>
      </trkpt>
      <trkpt lat="46.4821" lon="5.69049">
        <ele>502</ele>
        <time>2019-02-13T01:23:02Z</time>
      </trkpt>
      <trkpt lat="46.48229" lon="5.69049">
        <ele>502</ele>
        <time>2019-02-13T01:24:02Z</time>
      </trkpt>
      <trkpt lat="46.48247" lon="5.69053">
        <ele>501</ele>
        <time>2019-02-13T01:25:02Z</time>
      </trkpt>
      <trkpt lat="46.48265" lon="5.69057">
        <ele>501</ele>
        <time>2019-02-13T01:26:02Z</time>
      </trkpt>
      <trkpt lat="46.48281" lon="5.69064">
        <ele>500</ele>
        <time>2019-02-13T01:27:02Z</time>
      </trkpt>
      <trkpt lat="46.48306" lon="5.69074">
        <ele>499</ele>
        <time>2019-02-13T01:28:02Z</time>
      </trkpt>
      <trkpt lat="46.48319" lon="5.69076">
        <ele>499</ele>
        <time>2019-02-13T01:29:02Z</time>
      </trkpt>
      <trkpt lat="46.48335" lon="5.69075">
        <ele>498</ele>
        <time>2019-02-13T01:30:02Z</time>
      </trkpt>
      <trkpt lat="46.48361" lon="5.69068">
        <ele>496</ele>
        <time>2019-02-13T01:31:02Z</time>
      </trkpt>
      <trkpt lat="46.48368" lon="5.69068">
        <ele>496</ele>
        <time>2019-02-13T01:32:02Z</time>
      </trkpt>
      <trkpt lat="46.48373" lon="5.69068">
        <ele>495</ele>
        <time>2019-02-13T01:33:02Z</time>
      </trkpt>
      <trkpt lat="46.48387" lon="5.69071">
        <ele>494</ele>
        <time>2019-02-13T01:34:02Z</time>
      </trkpt>
      <trkpt lat="46.48407" lon="5.69083">
        <ele>493</ele>
        <time>2019-02-13T01:35:02Z</time>
      </trkpt>
      <trkpt lat="46.48424" lon="5.69093">
        <ele>493</ele>
        <time>2019-02-13T01:36:02Z</time>
      </trkpt>
      <trkpt lat="46.48435" lon="5.69098">
        <ele>493</ele>
        <time>2019-02-13T01:37:02Z</time>
      </trkpt>
      <trkpt lat="46.48444" lon="5.69098">
        <ele>494</ele>
        <time>2019-02-13T01:38:02Z</time>
      </trkpt>
      <trkpt lat="46.48452" lon="5.69096">
        <ele>494</ele>
        <time>2019-02-13T01:39:02Z</time>
      </trkpt>
      <trkpt lat="46.48461" lon="5.69093">
        <ele>494</ele>
        <time>2019-02-13T01:40:02Z</time>
      </trkpt>
      <trkpt lat="46.48467" lon="5.6909">
        <ele>494</ele>
        <time>2019-02-13T01:41:02Z</time>
      </trkpt>
      <trkpt lat="46.48475" lon="5.69084">
        <ele>493</ele>
        <time>2019-02-13T01:42:02Z</time>
      </trkpt>
      <trkpt lat="46.48486" lon="5.69072">
        <ele>492</ele>
        <time>2019-02-13T01:43:02Z</time>
      </trkpt>
      <trkpt lat="46.485" lon="5.69058">
        <ele>490</ele>
        <time>2019-02-13T01:44:02Z</time>
      </trkpt>
      <trkpt lat="46.48512" lon="5.69051">
        <ele>488</ele>
        <time>2019-02-13T01:45:02Z</time>
      </trkpt>
      <trkpt lat="46.48526" lon="5.69048">
        <ele>486</ele>
        <time>2019-02-13T01:46:02Z</time>
      </trkpt>
      <trkpt lat="46.48544" lon="5.6905">
        <ele>486</ele>
        <time>2019-02-13T01:47:02Z</time>
      </trkpt>
      <trkpt lat="46.48554" lon="5.69052">
        <ele>485</ele>
        <time>2019-02-13T01:48:02Z</time>
      </trkpt>
      <trkpt lat="46.48563" lon="5.69054">
        <ele>485</ele>
        <time>2019-02-13T01:49:02Z</time>
      </trkpt>
      <trkpt lat="46.48572" lon="5.69054">
        <ele>485</ele>
        <time>2019-02-13T01:50:02Z</time>
      </trkpt>
      <trkpt lat="46.4858" lon="5.69054">
        <ele>484</ele>
        <time>2019-02-13T01:51:02Z</time>
      </trkpt>
      <trkpt lat="46.48589" lon="5.69055">
        <ele>484</ele>
        <time>2019-02-13T01:52:02Z</time>
      </trkpt>
      <trkpt lat="46.48597" lon="5.69057">
        <ele>484</ele>
        <time>2019-02-13T01:53:02Z</time>
      </trkpt>
      <trkpt lat="46.48603" lon="5.69061">
        <ele>485</ele>
        <time>2019-02-13T01:54:02Z</time>
      </trkpt>
      <trkpt lat="46.4861" lon="5.69065">
        <ele>485</ele>
        <time>2019-02-13T01:55:02Z</time>
      </trkpt>
      <trkpt lat="46.4862" lon="5.6907">
        <ele>486</ele>
        <time>2019-02-13T01:56:02Z</time>
      </trkpt>
      <trkpt lat="46.4863" lon="5.69072">
        <ele>485</ele>
        <time>2019-02-13T01:57:02Z</time>
      </trkpt>
      <trkpt lat="46.48655" lon="5.69077">
        <ele>485</ele>
        <time>2019-02-13T01:58:02Z</time>
      </trkpt>
      <trkpt lat="46.48673" lon="5.69078">
        <ele>484</ele>
        <time>2019-02-13T01:59:02Z</time>
      </trkpt>
      <trkpt lat="46.48689" lon="5.69077">
        <ele>485</ele>
        <time>2019-02-13T02:00:02Z</time>
      </trkpt>
      <trkpt lat="46.48722" lon="5.69071">
        <ele>484</ele>
        <time>2019-02-13T02:01:02Z</time>
      </trkpt>
      <trkpt lat="46.48735" lon="5.69069">
        <ele>484</ele>
        <time>2019-02-13T02:02:02Z</time>
      </trkpt>
      <trkpt lat="46.4876" lon="5.69064">
        <ele>484</ele>
        <time>2019-02-13T02:03:02Z</time>
      </trkpt>
      <trkpt lat="46.48771" lon="5.6906">
        <ele>484</ele>
        <time>2019-02-13T02:04:02Z</time>
      </trkpt>
      <trkpt lat="46.48778" lon="5.69055">
        <ele>484</ele>
        <time>2019-02-13T02:05:02Z</time>
      </trkpt>
      <trkpt lat="46.48784" lon="5.69047">
        <ele>482</ele>
        <time>2019-02-13T02:06:02Z</time>
      </trkpt>
      <trkpt lat="46.48791" lon="5.69037">
        <ele>481</ele>
        <time>2019-02-13T02:07:02Z</time>
      </trkpt>
      <trkpt lat="46.48802" lon="5.69017">
        <ele>477</ele>
        <time>2019-02-13T02:08:02Z</time>
      </trkpt>
      <trkpt lat="46.4881" lon="5.69006">
        <ele>475</ele>
        <time>2019-02-13T02:09:02Z</time>
      </trkpt>
      <trkpt lat="46.48817" lon="5.69">
        <ele>474</ele>
        <time>2019-02-13T02:10:02Z</time>
      </trkpt>
      <trkpt lat="46.48829" lon="5.6899">
        <ele>474</ele>
        <time>2019-02-13T02:11:02Z</time>
      </trkpt>
      <trkpt lat="46.48857" lon="5.68972">
        <ele>474</ele>
        <time>2019-02-13T02:12:02Z</time>
      </trkpt>
      <trkpt lat="46.48898" lon="5.68945">
        <ele>474</ele>
        <time>2019-02-13T02:13:02Z</time>
      </trkpt>
      <trkpt lat="46.48916" lon="5.68934">
        <ele>473</ele>
        <time>2019-02-13T02:14:02Z</time>
      </trkpt>
      <trkpt lat="46.4893" lon="5.68927">
        <ele>474</ele>
        <time>2019-02-13T02:15:02Z</time>
      </trkpt>
      <trkpt lat="46.48949" lon="5.68916">
        <ele>473</ele>
        <time>2019-02-13T02:16:02Z</time>
      </trkpt>
      <trkpt lat="46.48971" lon="5.68903">
        <ele>473</ele>
        <time>2019-02-13T02:17:02Z</time>
      </trkpt>
      <trkpt lat="46.48994" lon="5.68885">
        <ele>472</ele>
        <time>2019-02-13T02:18:02Z</time>
      </trkpt>
      <trkpt lat="46.49014" lon="5.68866">
        <ele>470</ele>
        <time>2019-02-13T02:19:02Z</time>
      </trkpt>
      <trkpt lat="46.4903" lon="5.68852">
        <ele>469</ele>
        <time>2019-02-13T02:20:02Z</time>
      </trkpt>
      <trkpt lat="46.49042" lon="5.68841">
        <ele>468</ele>
        <time>2019-02-13T02:21:02Z</time>
      </trkpt>
      <trkpt lat="46.49062" lon="5.6883">
        <ele>468</ele>
        <time>2019-02-13T02:22:02Z</time>
      </trkpt>
      <trkpt lat="46.49081" lon="5.6882">
        <ele>468</ele>
        <time>2019-02-13T02:23:02Z</time>
      </trkpt>
      <trkpt lat="46.49102" lon="5.6881">
        <ele>468</ele>
        <time>2019-02-13T02:24:02Z</time>
      </trkpt>
      <trkpt lat="46.49119" lon="5.68803">
        <ele>469</ele>
        <time>2019-02-13T02:25:02Z</time>
      </trkpt>
      <trkpt lat="46.49133" lon="5.68796">
        <ele>470</ele>
        <time>2019-02-13T02:26:02Z</time>
      </trkpt>
      <trkpt lat="46.49147" lon="5.68786">
        <ele>469</ele>
        <time>2019-02-13T02:27:02Z</time>
      </trkpt>
      <trkpt lat="46.49162" lon="5.68775">
        <ele>469</ele>
        <time>2019-02-13T02:28:02Z</time>
      </trkpt>
      <trkpt lat="46.49175" lon="5.68767">
        <ele>468</ele>
        <time>2019-02-13T02:29:02Z</time>
      </trkpt>
      <trkpt lat="46.49185" lon="5.68762">
        <ele>468</ele>
        <time>2019-02-13T02:30:02Z</time>
      </trkpt>
      <trkpt lat="46.49195" lon="5.68759">
        <ele>469</ele>
        <time>2019-02-13T02:31:02Z</time>
      </trkpt>
      <trkpt lat="46.49206" lon="5.68757">
        <ele>470</ele>
        <time>2019-02-13T02:32:02Z</time>
      </trkpt>
      <trkpt lat="46.49219" lon="5.68753">
        <ele>470</ele>
        <time>2019-02-13T02:33:02Z</time>
      </trkpt>
      <trkpt lat="46.49229" lon="5.68748">
        <ele>470</ele>
        <time>2019-02-13T02:34:02Z</time>
      </trkpt>
      <trkpt lat="46.49241" lon="5.6874">
        <ele>469</ele>
        <time>2019-02-13T02:35:02Z</time>
      </trkpt>
      <trkpt lat="46.49254" lon="5.68728">
        <ele>468</ele>
        <time>2019-02-13T02:36:02Z</time>
      </trkpt>
      <trkpt lat="46.49266" lon="5.68719">
        <ele>468</ele>
        <time>2019-02-13T02:37:02Z</time>
      </trkpt>
      <trkpt lat="46.49282" lon="5.6871">
        <ele>468</ele>
        <time>2019-02-13T02:38:02Z</time>
      </trkpt>
      <trkpt lat="46.49296" lon="5.68702">
        <ele>469</ele>
        <time>2019-02-13T02:39:02Z</time>
      </trkpt>
      <trkpt lat="46.4931" lon="5.68694">
        <ele>469</ele>
        <time>2019-02-13T02:40:02Z</time>
      </trkpt>
      <trkpt lat="46.49324" lon="5.68685">
        <ele>469</ele>
        <time>2019-02-13T02:41:02Z</time>
      </trkpt>
      <trkpt lat="46.49339" lon="5.68678">
        <ele>470</ele>
        <time>2019-02-13T02:42:02Z</time>
      </trkpt>
      <trkpt lat="46.49357" lon="5.68669">
        <ele>472</ele>
        <time>2019-02-13T02:43:02Z</time>
      </trkpt>
      <trkpt lat="46.49368" lon="5.68661">
        <ele>472</ele>
        <time>2019-02-13T02:44:02Z</time>
      </trkpt>
      <trkpt lat="46.4938" lon="5.68651">
        <ele>472</ele>
        <time>2019-02-13T02:45:02Z</time>
      </trkpt>
      <trkpt lat="46.49389" lon="5.68643">
        <ele>472</ele>
        <time>2019-02-13T02:46:02Z</time>
      </trkpt>
      <trkpt lat="46.49402" lon="5.68633">
        <ele>472</ele>
        <time>2019-02-13T02:47:02Z</time>
      </trkpt>
      <trkpt lat="46.49415" lon="5.68623">
        <ele>471</ele>
        <time>2019-02-13T02:48:02Z</time>
      </trkpt>
      <trkpt lat="46.49429" lon="5.68614">
        <ele>471</ele>
        <time>2019-02-13T02:49:02Z</time>
      </trkpt>
      <trkpt lat="46.4945" lon="5.68602">
        <ele>472</ele>
        <time>2019-02-13T02:50:02Z</time>
      </trkpt>
      <trkpt lat="46.49472" lon="5.6859">
        <ele>473</ele>
        <time>2019-02-13T02:51:02Z</time>
      </trkpt>
      <trkpt lat="46.49492" lon="5.68578">
        <ele>474</ele>
        <time>2019-02-13T02:52:02Z</time>
      </trkpt>
      <trkpt lat="46.49504" lon="5.68571">
        <ele>475</ele>
        <time>2019-02-13T02:53:02Z</time>
      </trkpt>
      <trkpt lat="46.49515" lon="5.68562">
        <ele>475</ele>
        <time>2019-02-13T02:54:02Z</time>
      </trkpt>
      <trkpt lat="46.49536" lon="5.68544">
        <ele>474</ele>
        <time>2019-02-13T02:55:02Z</time>
      </trkpt>
      <trkpt lat="46.49561" lon="5.68522">
        <ele>473</ele>
        <time>2019-02-13T02:56:02Z</time>
      </trkpt>
      <trkpt lat="46.49591" lon="5.68499">
        <ele>473</ele>
        <time>2019-02-13T02:57:02Z</time>
      </trkpt>
      <trkpt lat="46.49617" lon="5.68479">
        <ele>473</ele>
        <time>2019-02-13T02:58:02Z</time>
      </trkpt>
      <trkpt lat="46.49638" lon="5.68464">
        <ele>473</ele>
        <time>2019-02-13T02:59:02Z</time>
      </trkpt>
      <trkpt lat="46.49663" lon="5.68445">
        <ele>473</ele>
        <time>2019-02-13T03:00:02Z</time>
      </trkpt>
      <trkpt lat="46.49681" lon="5.68433">
        <ele>472</ele>
        <time>2019-02-13T03:01:02Z</time>
      </trkpt>
      <trkpt lat="46.49696" lon="5.68426">
        <ele>472</ele>
        <time>2019-02-13T03:02:02Z</time>
      </trkpt>
      <trkpt lat="46.49705" lon="5.68423">
        <ele>472</ele>
        <time>2019-02-13T03:03:02Z</time>
      </trkpt>
      <trkpt lat="46.49714" lon="5.68422">
        <ele>473</ele>
        <time>2019-02-13T03:04:02Z</time>
      </trkpt>
      <trkpt lat="46.49726" lon="5.68422">
        <ele>475</ele>
        <time>2019-02-13T03:05:02Z</time>
      </trkpt>
      <trkpt lat="46.49743" lon="5.68426">
        <ele>478</ele>
        <time>2019-02-13T03:06:02Z</time>
      </trkpt>
      <trkpt lat="46.49756" lon="5.6843">
        <ele>479</ele>
        <time>2019-02-13T03:07:02Z</time>
      </trkpt>
      <trkpt lat="46.49768" lon="5.68433">
        <ele>479</ele>
        <time>2019-02-13T03:08:02Z</time>
      </trkpt>
      <trkpt lat="46.49789" lon="5.68435">
        <ele>477</ele>
        <time>2019-02-13T03:09:02Z</time>
      </trkpt>
      <trkpt lat="46.49814" lon="5.68436">
        <ele>474</ele>
        <time>2019-02-13T03:10:02Z</time>
      </trkpt>
      <trkpt lat="46.49828" lon="5.68437">
        <ele>473</ele>
        <time>2019-02-13T03:11:02Z</time>
      </trkpt>
      <trkpt lat="46.49862" lon="5.68445">
        <ele>470</ele>
        <time>2019-02-13T03:12:02Z</time>
      </trkpt>
      <trkpt lat="46.49892" lon="5.68452">
        <ele>467</ele>
        <time>2019-02-13T03:13:02Z</time>
      </trkpt>
      <trkpt lat="46.49916" lon="5.68457">
        <ele>465</ele>
        <time>2019-02-13T03:14:02Z</time>
      </trkpt>
      <trkpt lat="46.49929" lon="5.68461">
        <ele>464</ele>
        <time>2019-02-13T03:15:02Z</time>
      </trkpt>
      <trkpt lat="46.49941" lon="5.68468">
        <ele>464</ele>
        <time>2019-02-13T03:16:02Z</time>
      </trkpt>
      <trkpt lat="46.49966" lon="5.6849">
        <ele>463</ele>
        <time>2019-02-13T03:17:02Z</time>
      </trkpt>
      <trkpt lat="46.49987" lon="5.68512">
        <ele>463</ele>
        <time>2019-02-13T03:18:02Z</time>
      </trkpt>
      <trkpt lat="46.50001" lon="5.68528">
        <ele>462</ele>
        <time>2019-02-13T03:19:02Z</time>
      </trkpt>
      <trkpt lat="46.50021" lon="5.68559">
        <ele>463</ele>
        <time>2019-02-13T03:20:02Z</time>
      </trkpt>
      <trkpt lat="46.50043" lon="5.68586">
        <ele>463</ele>
        <time>2019-02-13T03:21:02Z</time>
      </trkpt>
      <trkpt lat="46.50063" lon="5.68614">
        <ele>464</ele>
        <time>2019-02-13T03:22:02Z</time>
      </trkpt>
      <trkpt lat="46.50083" lon="5.68644">
        <ele>465</ele>
        <time>2019-02-13T03:23:02Z</time>
      </trkpt>
      <trkpt lat="46.50093" lon="5.68658">
        <ele>465</ele>
        <time>2019-02-13T03:24:02Z</time>
      </trkpt>
      <trkpt lat="46.50104" lon="5.68682">
        <ele>465</ele>
        <time>2019-02-13T03:25:02Z</time>
      </trkpt>
      <trkpt lat="46.50122" lon="5.68733">
        <ele>465</ele>
        <time>2019-02-13T03:26:02Z</time>
      </trkpt>
      <trkpt lat="46.50129" lon="5.68756">
        <ele>465</ele>
        <time>2019-02-13T03:27:02Z</time>
      </trkpt>
      <trkpt lat="46.50134" lon="5.68774">
        <ele>463</ele>
        <time>2019-02-13T03:28:02Z</time>
      </trkpt>
      <trkpt lat="46.50134" lon="5.68786">
        <ele>464</ele>
        <time>2019-02-13T03:29:02Z</time>
      </trkpt>
      <trkpt lat="46.50131" lon="5.68799">
        <ele>465</ele>
        <time>2019-02-13T03:30:02Z</time>
      </trkpt>
      <trkpt lat="46.50123" lon="5.68815">
        <ele>468</ele>
        <time>2019-02-13T03:31:02Z</time>
      </trkpt>
      <trkpt lat="46.50118" lon="5.68828">
        <ele>470</ele>
        <time>2019-02-13T03:32:02Z</time>
      </trkpt>
      <trkpt lat="46.50113" lon="5.68844">
        <ele>473</ele>
        <time>2019-02-13T03:33:02Z</time>
      </trkpt>
      <trkpt lat="46.50113" lon="5.68856">
        <ele>474</ele>
        <time>2019-02-13T03:34:02Z</time>
      </trkpt>
      <trkpt lat="46.50114" lon="5.68871">
        <ele>476</ele>
        <time>2019-02-13T03:35:02Z</time>
      </trkpt>
      <trkpt lat="46.50122" lon="5.68893">
        <ele>475</ele>
        <time>2019-02-13T03:36:02Z</time>
      </trkpt>
      <trkpt lat="46.50134" lon="5.68918">
        <ele>475</ele>
        <time>2019-02-13T03:37:02Z</time>
      </trkpt>
      <trkpt lat="46.50141" lon="5.68933">
        <ele>475</ele>
        <time>2019-02-13T03:38:02Z</time>
      </trkpt>
      <trkpt lat="46.5015" lon="5.68952">
        <ele>476</ele>
        <time>2019-02-13T03:39:02Z</time>
      </trkpt>
      <trkpt lat="46.50165" lon="5.68976">
        <ele>475</ele>
        <time>2019-02-13T03:40:02Z</time>
      </trkpt>
      <trkpt lat="46.50204" lon="5.69038">
        <ele>476</ele>
        <time>2019-02-13T03:41:02Z</time>
      </trkpt>
      <trkpt lat="46.50214" lon="5.69056">
        <ele>476</ele>
        <time>2019-02-13T03:42:02Z</time>
      </trkpt>
      <trkpt lat="46.50246" lon="5.69091">
        <ele>471</ele>
        <time>2019-02-13T03:43:02Z</time>
      </trkpt>
      <trkpt lat="46.50298" lon="5.69141">
        <ele>471</ele>
        <time>2019-02-13T03:44:02Z</time>
      </trkpt>
      <trkpt lat="46.50316" lon="5.6916">
        <ele>469</ele>
        <time>2019-02-13T03:45:02Z</time>
      </trkpt>
      <trkpt lat="46.50327" lon="5.69175">
        <ele>468</ele>
        <time>2019-02-13T03:46:02Z</time>
      </trkpt>
      <trkpt lat="46.50331" lon="5.69187">
        <ele>468</ele>
        <time>2019-02-13T03:47:02Z</time>
      </trkpt>
      <trkpt lat="46.50335" lon="5.69205">
        <ele>469</ele>
        <time>2019-02-13T03:48:02Z</time>
      </trkpt>
      <trkpt lat="46.50339" lon="5.69228">
        <ele>472</ele>
        <time>2019-02-13T03:49:02Z</time>
      </trkpt>
      <trkpt lat="46.50344" lon="5.69255">
        <ele>475</ele>
        <time>2019-02-13T03:50:02Z</time>
      </trkpt>
      <trkpt lat="46.50349" lon="5.69264">
        <ele>475</ele>
        <time>2019-02-13T03:51:02Z</time>
      </trkpt>
      <trkpt lat="46.50356" lon="5.69271">
        <ele>476</ele>
        <time>2019-02-13T03:52:02Z</time>
      </trkpt>
      <trkpt lat="46.50367" lon="5.69276">
        <ele>475</ele>
        <time>2019-02-13T03:53:02Z</time>
      </trkpt>
      <trkpt lat="46.50383" lon="5.69279">
        <ele>474</ele>
        <time>2019-02-13T03:54:02Z</time>
      </trkpt>
      <trkpt lat="46.50397" lon="5.69283">
        <ele>473</ele>
        <time>2019-02-13T03:55:02Z</time>
      </trkpt>
      <trkpt lat="46.50408" lon="5.6929">
        <ele>473</ele>
        <time>2019-02-13T03:56:02Z</time>
      </trkpt>
      <trkpt lat="46.50414" lon="5.69296">
        <ele>473</ele>
        <time>2019-02-13T03:57:02Z</time>
      </trkpt>
      <trkpt lat="46.50421" lon="5.69305">
        <ele>474</ele>
        <time>2019-02-13T03:58:02Z</time>
      </trkpt>
      <trkpt lat="46.5043" lon="5.69321">
        <ele>477</ele>
        <time>2019-02-13T03:59:02Z</time>
      </trkpt>
      <trkpt lat="46.50441" lon="5.69337">
        <ele>481</ele>
        <time>2019-02-13T04:00:02Z</time>
      </trkpt>
      <trkpt lat="46.50449" lon="5.69344">
        <ele>483</ele>
        <time>2019-02-13T04:01:02Z</time>
      </trkpt>
      <trkpt lat="46.5046" lon="5.69346">
        <ele>484</ele>
        <time>2019-02-13T04:02:02Z</time>
      </trkpt>
      <trkpt lat="46.5047" lon="5.69345">
        <ele>484</ele>
        <time>2019-02-13T04:03:02Z</time>
      </trkpt>
      <trkpt lat="46.50486" lon="5.6934">
        <ele>483</ele>
        <time>2019-02-13T04:04:02Z</time>
      </trkpt>
      <trkpt lat="46.50502" lon="5.69332">
        <ele>481</ele>
        <time>2019-02-13T04:05:02Z</time>
      </trkpt>
      <trkpt lat="46.5052" lon="5.69318">
        <ele>479</ele>
        <time>2019-02-13T04:06:02Z</time>
      </trkpt>
      <trkpt lat="46.5054" lon="5.693">
        <ele>476</ele>
        <time>2019-02-13T04:07:02Z</time>
      </trkpt>
      <trkpt lat="46.50553" lon="5.6929">
        <ele>475</ele>
        <time>2019-02-13T04:08:02Z</time>
      </trkpt>
      <trkpt lat="46.50562" lon="5.69282">
        <ele>474</ele>
        <time>2019-02-13T04:09:02Z</time>
      </trkpt>
      <trkpt lat="46.50572" lon="5.69275">
        <ele>473</ele>
        <time>2019-02-13T04:10:02Z</time>
      </trkpt>
      <trkpt lat="46.5059" lon="5.69267">
        <ele>473</ele>
        <time>2019-02-13T04:11:02Z</time>
      </trkpt>
      <trkpt lat="46.5061" lon="5.69261">
        <ele>475</ele>
        <time>2019-02-13T04:12:02Z</time>
      </trkpt>
      <trkpt lat="46.50631" lon="5.69251">
        <ele>475</ele>
        <time>2019-02-13T04:13:02Z</time>
      </trkpt>
      <trkpt lat="46.50656" lon="5.69239">
        <ele>477</ele>
        <time>2019-02-13T04:14:02Z</time>
      </trkpt>
      <trkpt lat="46.50671" lon="5.69229">
        <ele>477</ele>
        <time>2019-02-13T04:15:02Z</time>
      </trkpt>
      <trkpt lat="46.50692" lon="5.69214">
        <ele>476</ele>
        <time>2019-02-13T04:16:02Z</time>
      </trkpt>
      <trkpt lat="46.5071" lon="5.69203">
        <ele>476</ele>
        <time>2019-02-13T04:17:02Z</time>
      </trkpt>
      <trkpt lat="46.50729" lon="5.69193">
        <ele>476</ele>
        <time>2019-02-13T04:18:02Z</time>
      </trkpt>
      <trkpt lat="46.50749" lon="5.69184">
        <ele>476</ele>
        <time>2019-02-13T04:19:02Z</time>
      </trkpt>
      <trkpt lat="46.50764" lon="5.69176">
        <ele>476</ele>
        <time>2019-02-13T04:20:02Z</time>
      </trkpt>
      <trkpt lat="46.50776" lon="5.6917">
        <ele>476</ele>
        <time>2019-02-13T04:21:02Z</time>
      </trkpt>
      <trkpt lat="46.50788" lon="5.6916">
        <ele>476</ele>
        <time>2019-02-13T04:22:02Z</time>
      </trkpt>
      <trkpt lat="46.50813" lon="5.69139">
        <ele>475</ele>
        <time>2019-02-13T04:23:02Z</time>
      </trkpt>
      <trkpt lat="46.50843" lon="5.69116">
        <ele>474</ele>
        <time>2019-02-13T04:24:02Z</time>
      </trkpt>
      <trkpt lat="46.50861" lon="5.691">
        <ele>473</ele>
        <time>2019-02-13T04:25:02Z</time>
      </trkpt>
      <trkpt lat="46.50882" lon="5.6908">
        <ele>472</ele>
        <time>2019-02-13T04:26:02Z</time>
      </trkpt>
      <trkpt lat="46.50896" lon="5.69066">
        <ele>472</ele>
        <time>2019-02-13T04:27:02Z</time>
      </trkpt>
      <trkpt lat="46.50917" lon="5.6905">
        <ele>472</ele>
        <time>2019-02-13T04:28:02Z</time>
      </trkpt>
      <trkpt lat="46.50945" lon="5.69031">
        <ele>474</ele>
        <time>2019-02-13T04:29:02Z</time>
      </trkpt>
      <trkpt lat="46.50958" lon="5.69021">
        <ele>475</ele>
        <time>2019-02-13T04:30:02Z</time>
      </trkpt>
      <trkpt lat="46.50972" lon="5.69011">
        <ele>476</ele>
        <time>2019-02-13T04:31:02Z</time>
      </trkpt>
      <trkpt lat="46.50986" lon="5.69001">
        <ele>477</ele>
        <time>2019-02-13T04:32:02Z</time>
      </trkpt>
      <trkpt lat="46.50998" lon="5.68996">
        <ele>479</ele>
        <time>2019-02-13T04:33:02Z</time>
      </trkpt>
      <trkpt lat="46.51013" lon="5.68992">
        <ele>481</ele>
        <time>2019-02-13T04:34:02Z</time>
      </trkpt>
      <trkpt lat="46.51021" lon="5.68991">
        <ele>482</ele>
        <time>2019-02-13T04:35:02Z</time>
      </trkpt>
      <trkpt lat="46.51031" lon="5.68989">
        <ele>483</ele>
        <time>2019-02-13T04:36:02Z</time>
      </trkpt>
      <trkpt lat="46.51041" lon="5.68984">
        <ele>484</ele>
        <time>2019-02-13T04:37:02Z</time>
      </trkpt>
      <trkpt lat="46.51053" lon="5.68977">
        <ele>485</ele>
        <time>2019-02-13T04:38:02Z</time>
      </trkpt>
      <trkpt lat="46.5107" lon="5.68962">
        <ele>484</ele>
        <time>2019-02-13T04:39:02Z</time>
      </trkpt>
      <trkpt lat="46.51092" lon="5.68945">
        <ele>484</ele>
        <time>2019-02-13T04:40:02Z</time>
      </trkpt>
      <trkpt lat="46.51112" lon="5.68927">
        <ele>481</ele>
        <time>2019-02-13T04:41:02Z</time>
      </trkpt>
      <trkpt lat="46.51119" lon="5.68922">
        <ele>481</ele>
        <time>2019-02-13T04:42:02Z</time>
      </trkpt>
      <trkpt lat="46.51125" lon="5.6892">
        <ele>481</ele>
        <time>2019-02-13T04:43:02Z</time>
      </trkpt>
      <trkpt lat="46.51134" lon="5.6892">
        <ele>482</ele>
        <time>2019-02-13T04:44:02Z</time>
      </trkpt>
      <trkpt lat="46.51144" lon="5.6892">
        <ele>483</ele>
        <time>2019-02-13T04:45:02Z</time>
      </trkpt>
      <trkpt lat="46.51153" lon="5.68922">
        <ele>484</ele>
        <time>2019-02-13T04:46:02Z</time>
      </trkpt>
      <trkpt lat="46.51163" lon="5.68925">
        <ele>485</ele>
        <time>2019-02-13T04:47:02Z</time>
      </trkpt>
      <trkpt lat="46.51172" lon="5.68928">
        <ele>487</ele>
        <time>2019-02-13T04:48:02Z</time>
      </trkpt>
      <trkpt lat="46.51179" lon="5.68929">
        <ele>488</ele>
        <time>2019-02-13T04:49:02Z</time>
      </trkpt>
      <trkpt lat="46.51186" lon="5.68927">
        <ele>488</ele>
        <time>2019-02-13T04:50:02Z</time>
      </trkpt>
      <trkpt lat="46.51193" lon="5.68924">
        <ele>489</ele>
        <time>2019-02-13T04:51:02Z</time>
      </trkpt>
      <trkpt lat="46.51201" lon="5.68917">
        <ele>489</ele>
        <time>2019-02-13T04:52:02Z</time>
      </trkpt>
      <trkpt lat="46.51207" lon="5.68907">
        <ele>488</ele>
        <time>2019-02-13T04:53:02Z</time>
      </trkpt>
      <trkpt lat="46.51213" lon="5.68894">
        <ele>487</ele>
        <time>2019-02-13T04:54:02Z</time>
      </trkpt>
      <trkpt lat="46.51217" lon="5.68879">
        <ele>486</ele>
        <time>2019-02-13T04:55:02Z</time>
      </trkpt>
      <trkpt lat="46.51228" lon="5.68834">
        <ele>484</ele>
        <time>2019-02-13T04:56:02Z</time>
      </trkpt>
      <trkpt lat="46.51234" lon="5.68798">
        <ele>480</ele>
        <time>2019-02-13T04:57:02Z</time>
      </trkpt>
      <trkpt lat="46.51242" lon="5.6875">
        <ele>476</ele>
        <time>2019-02-13T04:58:02Z</time>
      </trkpt>
      <trkpt lat="46.51248" lon="5.68712">
        <ele>472</ele>
        <time>2019-02-13T04:59:02Z</time>
      </trkpt>
      <trkpt lat="46.51252" lon="5.68692">
        <ele>471</ele>
        <time>2019-02-13T05:00:02Z</time>
      </trkpt>
      <trkpt lat="46.51258" lon="5.68669">
        <ele>470</ele>
        <time>2019-02-13T05:01:02Z</time>
      </trkpt>
      <trkpt lat="46.51266" lon="5.68641">
        <ele>470</ele>
        <time>2019-02-13T05:02:02Z</time>
      </trkpt>
      <trkpt lat="46.51272" lon="5.68622">
        <ele>471</ele>
        <time>2019-02-13T05:03:02Z</time>
      </trkpt>
      <trkpt lat="46.51276" lon="5.686">
        <ele>470</ele>
        <time>2019-02-13T05:04:02Z</time>
      </trkpt>
      <trkpt lat="46.51279" lon="5.68584">
        <ele>469</ele>
        <time>2019-02-13T05:05:02Z</time>
      </trkpt>
      <trkpt lat="46.51281" lon="5.6855">
        <ele>465</ele>
        <time>2019-02-13T05:06:02Z</time>
      </trkpt>
      <trkpt lat="46.51285" lon="5.68523">
        <ele>463</ele>
        <time>2019-02-13T05:07:02Z</time>
      </trkpt>
      <trkpt lat="46.5129" lon="5.68488">
        <ele>461</ele>
        <time>2019-02-13T05:08:02Z</time>
      </trkpt>
      <trkpt lat="46.51296" lon="5.68446">
        <ele>461</ele>
        <time>2019-02-13T05:09:02Z</time>
      </trkpt>
      <trkpt lat="46.513" lon="5.68412">
        <ele>460</ele>
        <time>2019-02-13T05:10:02Z</time>
      </trkpt>
      <trkpt lat="46.51304" lon="5.68377">
        <ele>458</ele>
        <time>2019-02-13T05:11:02Z</time>
      </trkpt>
      <trkpt lat="46.51309" lon="5.68334">
        <ele>455</ele>
        <time>2019-02-13T05:12:02Z</time>
      </trkpt>
      <trkpt lat="46.51314" lon="5.68296">
        <ele>455</ele>
        <time>2019-02-13T05:13:02Z</time>
      </trkpt>
      <trkpt lat="46.5132" lon="5.68241">
        <ele>454</ele>
        <time>2019-02-13T05:14:02Z</time>
      </trkpt>
      <trkpt lat="46.51326" lon="5.68189">
        <ele>453</ele>
        <time>2019-02-13T05:15:02Z</time>
      </trkpt>
      <trkpt lat="46.51329" lon="5.68159">
        <ele>452</ele>
        <time>2019-02-13T05:16:02Z</time>
      </trkpt>
      <trkpt lat="46.5133" lon="5.68145">
        <ele>451</ele>
        <time>2019-02-13T05:17:02Z</time>
      </trkpt>
      <trkpt lat="46.51332" lon="5.68128">
        <ele>451</ele>
        <time>2019-02-13T05:18:02Z</time>
      </trkpt>
      <trkpt lat="46.51336" lon="5.6811">
        <ele>452</ele>
        <time>2019-02-13T05:19:02Z</time>
      </trkpt>
      <trkpt lat="46.51341" lon="5.68098">
        <ele>452</ele>
        <time>2019-02-13T05:21:02Z</time>
      </trkpt>
      <trkpt lat="46.51347" lon="5.6809">
        <ele>454</ele>
        <time>2019-02-13T05:22:02Z</time>
      </trkpt>
      <trkpt lat="46.51353" lon="5.68083">
        <ele>455</ele>
        <time>2019-02-13T05:23:02Z</time>
      </trkpt>
      <trkpt lat="46.51362" lon="5.68076">
        <ele>457</ele>
        <time>2019-02-13T05:24:02Z</time>
      </trkpt>
      <trkpt lat="46.51371" lon="5.68071">
        <ele>459</ele>
        <time>2019-02-13T05:25:02Z</time>
      </trkpt>
      <trkpt lat="46.51382" lon="5.6807">
        <ele>461</ele>
        <time>2019-02-13T05:26:02Z</time>
      </trkpt>
      <trkpt lat="46.51392" lon="5.6807">
        <ele>464</ele>
        <time>2019-02-13T05:27:02Z</time>
      </trkpt>
      <trkpt lat="46.514" lon="5.6807">
        <ele>466</ele>
        <time>2019-02-13T05:28:02Z</time>
      </trkpt>
      <trkpt lat="46.514" lon="5.6807">
        <ele>466</ele>
        <time>2019-02-13T05:29:02Z</time>
      </trkpt>
      <trkpt lat="46.51407" lon="5.6807">
        <ele>467</ele>
        <time>2019-02-13T05:30:02Z</time>
      </trkpt>
      <trkpt lat="46.51415" lon="5.67989">
        <ele>466</ele>
        <time>2019-02-13T05:31:02Z</time>
      </trkpt>
      <trkpt lat="46.51418" lon="5.67963">
        <ele>465</ele>
        <time>2019-02-13T05:32:02Z</time>
      </trkpt>
      <trkpt lat="46.51422" lon="5.67939">
        <ele>465</ele>
        <time>2019-02-13T05:33:02Z</time>
      </trkpt>
      <trkpt lat="46.51427" lon="5.67916">
        <ele>464</ele>
        <time>2019-02-13T05:34:02Z</time>
      </trkpt>
      <trkpt lat="46.51432" lon="5.67896">
        <ele>463</ele>
        <time>2019-02-13T05:39:02Z</time>
      </trkpt>
      <trkpt lat="46.51435" lon="5.67885">
        <ele>463</ele>
        <time>2019-02-13T05:40:02Z</time>
      </trkpt>
      <trkpt lat="46.51438" lon="5.67874">
        <ele>462</ele>
        <time>2019-02-13T05:41:02Z</time>
      </trkpt>
      <trkpt lat="46.51488" lon="5.67765">
        <ele>445.7</ele>
        <time>2019-02-13T05:42:02Z</time>
      </trkpt>
      <trkpt lat="46.51566" lon="5.67589">
        <ele>428</ele>
        <time>2019-02-13T05:43:02Z</time>
      </trkpt>
      <trkpt lat="46.5166" lon="5.67376">
        <ele>446</ele>
        <time>2019-02-13T05:44:02Z</time>
      </trkpt>
      <trkpt lat="46.51664" lon="5.67371">
        <ele>448</ele>
        <time>2019-02-13T05:45:02Z</time>
      </trkpt>
      <trkpt lat="46.51668" lon="5.67362">
        <ele>452</ele>
        <time>2019-02-13T05:46:02Z</time>
      </trkpt>
      <trkpt lat="46.51676" lon="5.67352">
        <ele>455</ele>
        <time>2019-02-13T05:47:02Z</time>
      </trkpt>
      <trkpt lat="46.51684" lon="5.67343">
        <ele>458</ele>
        <time>2019-02-13T05:48:02Z</time>
      </trkpt>
      <trkpt lat="46.51685" lon="5.67342">
        <ele>458</ele>
        <time>2019-02-13T05:49:02Z</time>
      </trkpt>
      <trkpt lat="46.51686" lon="5.67341">
        <ele>458</ele>
        <time>2019-02-13T05:50:02Z</time>
      </trkpt>
      <trkpt lat="46.5169" lon="5.67338">
        <ele>459</ele>
        <time>2019-02-13T05:51:02Z</time>
      </trkpt>
      <trkpt lat="46.51699" lon="5.67333">
        <ele>459</ele>
        <time>2019-02-13T05:52:02Z</time>
      </trkpt>
      <trkpt lat="46.5171" lon="5.67327">
        <ele>460</ele>
        <time>2019-02-13T05:53:02Z</time>
      </trkpt>
      <trkpt lat="46.51722" lon="5.67318">
        <ele>461</ele>
        <time>2019-02-13T05:54:02Z</time>
      </trkpt>
      <trkpt lat="46.51752" lon="5.67294">
        <ele>463</ele>
        <time>2019-02-13T05:55:02Z</time>
      </trkpt>
      <trkpt lat="46.51757" lon="5.6729">
        <ele>463</ele>
        <time>2019-02-13T05:56:02Z</time>
      </trkpt>
      <trkpt lat="46.51794" lon="5.6726">
        <ele>455.6</ele>
        <time>2019-02-13T05:57:02Z</time>
      </trkpt>
      <trkpt lat="46.51814" lon="5.67242">
        <ele>466.6</ele>
        <time>2019-02-13T05:58:02Z</time>
      </trkpt>
      <trkpt lat="46.5183" lon="5.6723">
        <ele>459</ele>
        <time>2019-02-13T05:59:02Z</time>
      </trkpt>
      <trkpt lat="46.51845" lon="5.67215">
        <ele>461</ele>
        <time>2019-02-13T06:00:02Z</time>
      </trkpt>
      <trkpt lat="46.51892" lon="5.67169">
        <ele>460</ele>
        <time>2019-02-13T06:01:02Z</time>
      </trkpt>
      <trkpt lat="46.51904" lon="5.67156">
        <ele>461</ele>
        <time>2019-02-13T06:02:02Z</time>
      </trkpt>
      <trkpt lat="46.51911" lon="5.67146">
        <ele>463</ele>
        <time>2019-02-13T06:03:02Z</time>
      </trkpt>
      <trkpt lat="46.51925" lon="5.6713">
        <ele>466</ele>
        <time>2019-02-13T06:04:02Z</time>
      </trkpt>
      <trkpt lat="46.51933" lon="5.67118">
        <ele>469</ele>
        <time>2019-02-13T06:05:02Z</time>
      </trkpt>
      <trkpt lat="46.51937" lon="5.67114">
        <ele>470</ele>
        <time>2019-02-13T06:06:02Z</time>
      </trkpt>
      <trkpt lat="46.51941" lon="5.67109">
        <ele>471</ele>
        <time>2019-02-13T06:07:02Z</time>
      </trkpt>
      <trkpt lat="46.51954" lon="5.67085">
        <ele>477</ele>
        <time>2019-02-13T06:08:02Z</time>
      </trkpt>
      <trkpt lat="46.51959" lon="5.67074">
        <ele>479</ele>
        <time>2019-02-13T06:09:02Z</time>
      </trkpt>
      <trkpt lat="46.51961" lon="5.67066">
        <ele>481</ele>
        <time>2019-02-13T06:10:02Z</time>
      </trkpt>
      <trkpt lat="46.51963" lon="5.67058">
        <ele>483</ele>
        <time>2019-02-13T06:11:02Z</time>
      </trkpt>
      <trkpt lat="46.51965" lon="5.67048">
        <ele>486</ele>
        <time>2019-02-13T06:12:02Z</time>
      </trkpt>
      <trkpt lat="46.51968" lon="5.67035">
        <ele>489</ele>
        <time>2019-02-13T06:13:02Z</time>
      </trkpt>
      <trkpt lat="46.51971" lon="5.67024">
        <ele>492</ele>
        <time>2019-02-13T06:14:02Z</time>
      </trkpt>
      <trkpt lat="46.51972" lon="5.67019">
        <ele>493</ele>
        <time>2019-02-13T06:15:02Z</time>
      </trkpt>
      <trkpt lat="46.51975" lon="5.67009">
        <ele>495</ele>
        <time>2019-02-13T06:16:02Z</time>
      </trkpt>
      <trkpt lat="46.51976" lon="5.67002">
        <ele>497</ele>
        <time>2019-02-13T06:17:02Z</time>
      </trkpt>
      <trkpt lat="46.5198" lon="5.66975">
        <ele>499</ele>
        <time>2019-02-13T06:18:02Z</time>
      </trkpt>
      <trkpt lat="46.51985" lon="5.66947">
        <ele>501</ele>
        <time>2019-02-13T06:19:02Z</time>
      </trkpt>
      <trkpt lat="46.51989" lon="5.66924">
        <ele>503</ele>
        <time>2019-02-13T06:20:02Z</time>
      </trkpt>
      <trkpt lat="46.51994" lon="5.66909">
        <ele>503</ele>
        <time>2019-02-13T06:21:02Z</time>
      </trkpt>
      <trkpt lat="46.51994" lon="5.66906">
        <ele>503</ele>
        <time>2019-02-13T06:22:02Z</time>
      </trkpt>
      <trkpt lat="46.51995" lon="5.66898">
        <ele>503</ele>
        <time>2019-02-13T06:23:02Z</time>
      </trkpt>
      <trkpt lat="46.52001" lon="5.66879">
        <ele>503</ele>
        <time>2019-02-13T06:24:02Z</time>
      </trkpt>
      <trkpt lat="46.52009" lon="5.66855">
        <ele>506</ele>
        <time>2019-02-13T06:25:02Z</time>
      </trkpt>
      <trkpt lat="46.52017" lon="5.66835">
        <ele>507</ele>
        <time>2019-02-13T06:26:02Z</time>
      </trkpt>
      <trkpt lat="46.52022" lon="5.66825">
        <ele>506</ele>
        <time>2019-02-13T06:27:02Z</time>
      </trkpt>
      <trkpt lat="46.52029" lon="5.66814">
        <ele>504</ele>
        <time>2019-02-13T06:28:02Z</time>
      </trkpt>
      <trkpt lat="46.5204" lon="5.66799">
        <ele>500</ele>
        <time>2019-02-13T06:29:02Z</time>
      </trkpt>
      <trkpt lat="46.52052" lon="5.66784">
        <ele>494</ele>
        <time>2019-02-13T06:30:02Z</time>
      </trkpt>
      <trkpt lat="46.52086" lon="5.66751">
        <ele>476</ele>
        <time>2019-02-13T06:31:02Z</time>
      </trkpt>
      <trkpt lat="46.521" lon="5.66737">
        <ele>477</ele>
        <time>2019-02-13T06:32:02Z</time>
      </trkpt>
      <trkpt lat="46.52115" lon="5.66719">
        <ele>476</ele>
        <time>2019-02-13T06:33:02Z</time>
      </trkpt>
      <trkpt lat="46.52139" lon="5.66686">
        <ele>472</ele>
        <time>2019-02-13T06:34:02Z</time>
      </trkpt>
      <trkpt lat="46.52156" lon="5.66664">
        <ele>468</ele>
        <time>2019-02-13T06:35:02Z</time>
      </trkpt>
      <trkpt lat="46.52176" lon="5.66636">
        <ele>467</ele>
        <time>2019-02-13T06:36:02Z</time>
      </trkpt>
      <trkpt lat="46.52203" lon="5.66598">
        <ele>467</ele>
        <time>2019-02-13T06:37:02Z</time>
      </trkpt>
      <trkpt lat="46.5225" lon="5.66534">
        <ele>468</ele>
        <time>2019-02-13T06:38:02Z</time>
      </trkpt>
      <trkpt lat="46.52264" lon="5.66515">
        <ele>469</ele>
        <time>2019-02-13T06:39:02Z</time>
      </trkpt>
      <trkpt lat="46.5228" lon="5.66496">
        <ele>470</ele>
        <time>2019-02-13T06:40:02Z</time>
      </trkpt>
      <trkpt lat="46.52309" lon="5.66459">
        <ele>472</ele>
        <time>2019-02-13T06:41:02Z</time>
      </trkpt>
      <trkpt lat="46.5233" lon="5.6643">
        <ele>474</ele>
        <time>2019-02-13T06:42:02Z</time>
      </trkpt>
      <trkpt lat="46.52345" lon="5.66409">
        <ele>474</ele>
        <time>2019-02-13T06:43:02Z</time>
      </trkpt>
      <trkpt lat="46.52369" lon="5.66369">
        <ele>474</ele>
        <time>2019-02-13T06:44:02Z</time>
      </trkpt>
      <trkpt lat="46.52381" lon="5.66348">
        <ele>473</ele>
        <time>2019-02-13T06:45:02Z</time>
      </trkpt>
      <trkpt lat="46.52398" lon="5.66312">
        <ele>473</ele>
        <time>2019-02-13T06:46:02Z</time>
      </trkpt>
      <trkpt lat="46.52432" lon="5.66236">
        <ele>473</ele>
        <time>2019-02-13T06:47:02Z</time>
      </trkpt>
      <trkpt lat="46.52456" lon="5.66182">
        <ele>476</ele>
        <time>2019-02-13T06:48:02Z</time>
      </trkpt>
      <trkpt lat="46.52474" lon="5.66139">
        <ele>477</ele>
        <time>2019-02-13T06:49:02Z</time>
      </trkpt>
      <trkpt lat="46.52476" lon="5.66135">
        <ele>477</ele>
        <time>2019-02-13T06:50:02Z</time>
      </trkpt>
      <trkpt lat="46.52516" lon="5.66047">
        <ele>478</ele>
        <time>2019-02-13T06:51:02Z</time>
      </trkpt>
      <trkpt lat="46.52539" lon="5.65997">
        <ele>478</ele>
        <time>2019-02-13T06:52:02Z</time>
      </trkpt>
      <trkpt lat="46.5254" lon="5.65995">
        <ele>478</ele>
        <time>2019-02-13T06:53:02Z</time>
      </trkpt>
      <trkpt lat="46.52552" lon="5.6597">
        <ele>479</ele>
        <time>2019-02-13T06:54:02Z</time>
      </trkpt>
      <trkpt lat="46.52563" lon="5.65946">
        <ele>480</ele>
        <time>2019-02-13T06:55:02Z</time>
      </trkpt>
      <trkpt lat="46.52572" lon="5.65933">
        <ele>480</ele>
        <time>2019-02-13T06:56:02Z</time>
      </trkpt>
      <trkpt lat="46.52578" lon="5.65922">
        <ele>481</ele>
        <time>2019-02-13T06:57:02Z</time>
      </trkpt>
      <trkpt lat="46.52606" lon="5.65868">
        <ele>481</ele>
        <time>2019-02-13T06:58:02Z</time>
      </trkpt>
      <trkpt lat="46.52618" lon="5.65841">
        <ele>482</ele>
        <time>2019-02-13T06:59:02Z</time>
      </trkpt>
      <trkpt lat="46.52628" lon="5.65821">
        <ele>482</ele>
        <time>2019-02-13T07:00:02Z</time>
      </trkpt>
      <trkpt lat="46.52638" lon="5.65794">
        <ele>483</ele>
        <time>2019-02-13T07:01:02Z</time>
      </trkpt>
      <trkpt lat="46.52641" lon="5.65785">
        <ele>483</ele>
        <time>2019-02-13T07:02:02Z</time>
      </trkpt>
      <trkpt lat="46.52645" lon="5.65775">
        <ele>484</ele>
        <time>2019-02-13T07:03:02Z</time>
      </trkpt>
      <trkpt lat="46.52651" lon="5.65758">
        <ele>484</ele>
        <time>2019-02-13T07:04:02Z</time>
      </trkpt>
      <trkpt lat="46.52662" lon="5.6572">
        <ele>484</ele>
        <time>2019-02-13T07:05:02Z</time>
      </trkpt>
      <trkpt lat="46.52664" lon="5.65712">
        <ele>484</ele>
        <time>2019-02-13T07:06:02Z</time>
      </trkpt>
      <trkpt lat="46.52666" lon="5.65704">
        <ele>484</ele>
        <time>2019-02-13T07:07:02Z</time>
      </trkpt>
      <trkpt lat="46.52669" lon="5.65691">
        <ele>484</ele>
        <time>2019-02-13T07:08:02Z</time>
      </trkpt>
      <trkpt lat="46.52675" lon="5.65663">
        <ele>484</ele>
        <time>2019-02-13T07:09:02Z</time>
      </trkpt>
      <trkpt lat="46.52681" lon="5.65632">
        <ele>485</ele>
        <time>2019-02-13T07:10:02Z</time>
      </trkpt>
      <trkpt lat="46.52686" lon="5.65585">
        <ele>486</ele>
        <time>2019-02-13T07:11:02Z</time>
      </trkpt>
      <trkpt lat="46.5269" lon="5.65537">
        <ele>488</ele>
        <time>2019-02-13T07:12:02Z</time>
      </trkpt>
      <trkpt lat="46.52693" lon="5.655">
        <ele>489</ele>
        <time>2019-02-13T07:13:02Z</time>
      </trkpt>
      <trkpt lat="46.52693" lon="5.65484">
        <ele>490</ele>
        <time>2019-02-13T07:14:02Z</time>
      </trkpt>
      <trkpt lat="46.52699" lon="5.65395">
        <ele>493</ele>
        <time>2019-02-13T07:15:02Z</time>
      </trkpt>
      <trkpt lat="46.52714" lon="5.65203">
        <ele>500</ele>
        <time>2019-02-13T07:16:02Z</time>
      </trkpt>
      <trkpt lat="46.52728" lon="5.65018">
        <ele>505</ele>
        <time>2019-02-13T07:17:02Z</time>
      </trkpt>
      <trkpt lat="46.52738" lon="5.64896">
        <ele>508</ele>
        <time>2019-02-13T07:18:02Z</time>
      </trkpt>
      <trkpt lat="46.52745" lon="5.64806">
        <ele>510</ele>
        <time>2019-02-13T07:19:02Z</time>
      </trkpt>
      <trkpt lat="46.52754" lon="5.64692">
        <ele>514</ele>
        <time>2019-02-13T07:20:02Z</time>
      </trkpt>
      <trkpt lat="46.52763" lon="5.64567">
        <ele>518</ele>
        <time>2019-02-13T07:21:02Z</time>
      </trkpt>
      <trkpt lat="46.52775" lon="5.64421">
        <ele>520</ele>
        <time>2019-02-13T07:22:02Z</time>
      </trkpt>
      <trkpt lat="46.52783" lon="5.64306">
        <ele>521</ele>
        <time>2019-02-13T07:23:02Z</time>
      </trkpt>
      <trkpt lat="46.52786" lon="5.6425">
        <ele>522</ele>
        <time>2019-02-13T07:24:02Z</time>
      </trkpt>
      <trkpt lat="46.52787" lon="5.64236">
        <ele>522</ele>
        <time>2019-02-13T07:25:02Z</time>
      </trkpt>
      <trkpt lat="46.52787" lon="5.6422">
        <ele>522</ele>
        <time>2019-02-13T07:26:02Z</time>
      </trkpt>
      <trkpt lat="46.52787" lon="5.64206">
        <ele>523</ele>
        <time>2019-02-13T07:27:02Z</time>
      </trkpt>
      <trkpt lat="46.52786" lon="5.64194">
        <ele>523</ele>
        <time>2019-02-13T07:28:02Z</time>
      </trkpt>
      <trkpt lat="46.52785" lon="5.64187">
        <ele>523</ele>
        <time>2019-02-13T07:29:02Z</time>
      </trkpt>
      <trkpt lat="46.52784" lon="5.64172">
        <ele>523</ele>
        <time>2019-02-13T07:30:02Z</time>
      </trkpt>
      <trkpt lat="46.52785" lon="5.64166">
        <ele>523</ele>
        <time>2019-02-13T07:31:02Z</time>
      </trkpt>
      <trkpt lat="46.52784" lon="5.64157">
        <ele>523</ele>
        <time>2019-02-13T07:32:02Z</time>
      </trkpt>
      <trkpt lat="46.52781" lon="5.64139">
        <ele>524</ele>
        <time>2019-02-13T07:33:02Z</time>
      </trkpt>
      <trkpt lat="46.52776" lon="5.64117">
        <ele>524</ele>
        <time>2019-02-13T07:34:02Z</time>
      </trkpt>
      <trkpt lat="46.5277" lon="5.6409">
        <ele>524</ele>
        <time>2019-02-13T07:35:02Z</time>
      </trkpt>
      <trkpt lat="46.52762" lon="5.64068">
        <ele>524</ele>
        <time>2019-02-13T07:36:02Z</time>
      </trkpt>
      <trkpt lat="46.52754" lon="5.64047">
        <ele>524</ele>
        <time>2019-02-13T07:37:02Z</time>
      </trkpt>
      <trkpt lat="46.52749" lon="5.64035">
        <ele>523</ele>
        <time>2019-02-13T07:38:02Z</time>
      </trkpt>
      <trkpt lat="46.52735" lon="5.64011">
        <ele>523</ele>
        <time>2019-02-13T07:39:02Z</time>
      </trkpt>
      <trkpt lat="46.5272" lon="5.63987">
        <ele>524</ele>
        <time>2019-02-13T07:40:02Z</time>
      </trkpt>
      <trkpt lat="46.52703" lon="5.63965">
        <ele>526</ele>
        <time>2019-02-13T07:41:02Z</time>
      </trkpt>
      <trkpt lat="46.52688" lon="5.63945">
        <ele>528</ele>
        <time>2019-02-13T07:42:02Z</time>
      </trkpt>
      <trkpt lat="46.52684" lon="5.63938">
        <ele>529</ele>
        <time>2019-02-13T07:43:02Z</time>
      </trkpt>
      <trkpt lat="46.5268" lon="5.63932">
        <ele>530</ele>
        <time>2019-02-13T07:44:02Z</time>
      </trkpt>
      <trkpt lat="46.52676" lon="5.63929">
        <ele>530</ele>
        <time>2019-02-13T07:45:02Z</time>
      </trkpt>
      <trkpt lat="46.52672" lon="5.63922">
        <ele>531</ele>
        <time>2019-02-13T07:46:02Z</time>
      </trkpt>
      <trkpt lat="46.52668" lon="5.63912">
        <ele>532</ele>
        <time>2019-02-13T07:47:02Z</time>
      </trkpt>
      <trkpt lat="46.52665" lon="5.63901">
        <ele>534</ele>
        <time>2019-02-13T07:48:02Z</time>
      </trkpt>
      <trkpt lat="46.5266" lon="5.6389">
        <ele>535</ele>
        <time>2019-02-13T07:49:02Z</time>
      </trkpt>
      <trkpt lat="46.52655" lon="5.63875">
        <ele>538</ele>
        <time>2019-02-13T07:50:02Z</time>
      </trkpt>
      <trkpt lat="46.5265" lon="5.63859">
        <ele>540</ele>
        <time>2019-02-13T07:51:02Z</time>
      </trkpt>
      <trkpt lat="46.52647" lon="5.63846">
        <ele>542</ele>
        <time>2019-02-13T07:52:02Z</time>
      </trkpt>
      <trkpt lat="46.52645" lon="5.63832">
        <ele>544</ele>
        <time>2019-02-13T07:53:02Z</time>
      </trkpt>
      <trkpt lat="46.52643" lon="5.63818">
        <ele>543</ele>
        <time>2019-02-13T07:54:02Z</time>
      </trkpt>
      <trkpt lat="46.52642" lon="5.63798">
        <ele>542</ele>
        <time>2019-02-13T07:55:02Z</time>
      </trkpt>
      <trkpt lat="46.52642" lon="5.63777">
        <ele>540</ele>
        <time>2019-02-13T07:56:02Z</time>
      </trkpt>
      <trkpt lat="46.52642" lon="5.63766">
        <ele>539</ele>
        <time>2019-02-13T07:57:02Z</time>
      </trkpt>
      <trkpt lat="46.52642" lon="5.63756">
        <ele>538</ele>
        <time>2019-02-13T07:58:02Z</time>
      </trkpt>
      <trkpt lat="46.52644" lon="5.63734">
        <ele>535</ele>
        <time>2019-02-13T07:59:02Z</time>
      </trkpt>
      <trkpt lat="46.52646" lon="5.63722">
        <ele>533</ele>
        <time>2019-02-13T08:00:02Z</time>
      </trkpt>
      <trkpt lat="46.5265" lon="5.63704">
        <ele>530</ele>
        <time>2019-02-13T08:01:02Z</time>
      </trkpt>
      <trkpt lat="46.52655" lon="5.63686">
        <ele>527</ele>
        <time>2019-02-13T08:02:02Z</time>
      </trkpt>
      <trkpt lat="46.52661" lon="5.63664">
        <ele>524</ele>
        <time>2019-02-13T08:03:02Z</time>
      </trkpt>
      <trkpt lat="46.52666" lon="5.63648">
        <ele>523</ele>
        <time>2019-02-13T08:04:02Z</time>
      </trkpt>
      <trkpt lat="46.52672" lon="5.63624">
        <ele>522</ele>
        <time>2019-02-13T08:05:02Z</time>
      </trkpt>
      <trkpt lat="46.52678" lon="5.63598">
        <ele>521</ele>
        <time>2019-02-13T08:06:02Z</time>
      </trkpt>
      <trkpt lat="46.52681" lon="5.63581">
        <ele>520</ele>
        <time>2019-02-13T08:07:02Z</time>
      </trkpt>
      <trkpt lat="46.52684" lon="5.6355">
        <ele>519</ele>
        <time>2019-02-13T08:08:02Z</time>
      </trkpt>
      <trkpt lat="46.52686" lon="5.63532">
        <ele>518</ele>
        <time>2019-02-13T08:09:02Z</time>
      </trkpt>
      <trkpt lat="46.52688" lon="5.63508">
        <ele>517</ele>
        <time>2019-02-13T08:10:02Z</time>
      </trkpt>
      <trkpt lat="46.52687" lon="5.63479">
        <ele>516</ele>
        <time>2019-02-13T08:11:02Z</time>
      </trkpt>
      <trkpt lat="46.52687" lon="5.63463">
        <ele>515</ele>
        <time>2019-02-13T08:12:02Z</time>
      </trkpt>
      <trkpt lat="46.52685" lon="5.6344">
        <ele>514</ele>
        <time>2019-02-13T08:13:02Z</time>
      </trkpt>
      <trkpt lat="46.52681" lon="5.63411">
        <ele>513</ele>
        <time>2019-02-13T08:14:02Z</time>
      </trkpt>
      <trkpt lat="46.52675" lon="5.63368">
        <ele>512</ele>
        <time>2019-02-13T08:15:02Z</time>
      </trkpt>
      <trkpt lat="46.52672" lon="5.63341">
        <ele>511</ele>
        <time>2019-02-13T08:16:02Z</time>
      </trkpt>
      <trkpt lat="46.52669" lon="5.63327">
        <ele>511</ele>
        <time>2019-02-13T08:17:02Z</time>
      </trkpt>
      <trkpt lat="46.52668" lon="5.63319">
        <ele>511</ele>
        <time>2019-02-13T08:18:02Z</time>
      </trkpt>
      <trkpt lat="46.52667" lon="5.6331">
        <ele>511</ele>
        <time>2019-02-13T08:19:02Z</time>
      </trkpt>
      <trkpt lat="46.52663" lon="5.63283">
        <ele>511</ele>
        <time>2019-02-13T08:20:02Z</time>
      </trkpt>
      <trkpt lat="46.52661" lon="5.63268">
        <ele>512</ele>
        <time>2019-02-13T08:21:02Z</time>
      </trkpt>
      <trkpt lat="46.52657" lon="5.63247">
        <ele>512</ele>
        <time>2019-02-13T08:22:02Z</time>
      </trkpt>
      <trkpt lat="46.52654" lon="5.6323">
        <ele>512</ele>
        <time>2019-02-13T08:23:02Z</time>
      </trkpt>
      <trkpt lat="46.5265" lon="5.63214">
        <ele>512</ele>
        <time>2019-02-13T08:24:02Z</time>
      </trkpt>
      <trkpt lat="46.52645" lon="5.63191">
        <ele>512</ele>
        <time>2019-02-13T08:25:02Z</time>
      </trkpt>
      <trkpt lat="46.52636" lon="5.63156">
        <ele>513</ele>
        <time>2019-02-13T08:26:02Z</time>
      </trkpt>
      <trkpt lat="46.52627" lon="5.63117">
        <ele>513</ele>
        <time>2019-02-13T08:27:02Z</time>
      </trkpt>
      <trkpt lat="46.52625" lon="5.63108">
        <ele>513</ele>
        <time>2019-02-13T08:28:02Z</time>
      </trkpt>
      <trkpt lat="46.52619" lon="5.63085">
        <ele>513</ele>
        <time>2019-02-13T08:29:02Z</time>
      </trkpt>
      <trkpt lat="46.52588" lon="5.62961">
        <ele>512</ele>
        <time>2019-02-13T08:30:02Z</time>
      </trkpt>
      <trkpt lat="46.52576" lon="5.62912">
        <ele>511</ele>
        <time>2019-02-13T08:31:02Z</time>
      </trkpt>
      <trkpt lat="46.52564" lon="5.62867">
        <ele>510</ele>
        <time>2019-02-13T08:32:02Z</time>
      </trkpt>
      <trkpt lat="46.52557" lon="5.62843">
        <ele>510</ele>
        <time>2019-02-13T08:33:02Z</time>
      </trkpt>
      <trkpt lat="46.52508" lon="5.62678">
        <ele>505</ele>
        <time>2019-02-13T08:34:02Z</time>
      </trkpt>
      <trkpt lat="46.52498" lon="5.62648">
        <ele>504</ele>
        <time>2019-02-13T08:35:02Z</time>
      </trkpt>
      <trkpt lat="46.52488" lon="5.62614">
        <ele>503</ele>
        <time>2019-02-13T08:36:02Z</time>
      </trkpt>
      <trkpt lat="46.52483" lon="5.626">
        <ele>502</ele>
        <time>2019-02-13T08:37:02Z</time>
      </trkpt>
      <trkpt lat="46.5248" lon="5.62593">
        <ele>502</ele>
        <time>2019-02-13T08:38:02Z</time>
      </trkpt>
      <trkpt lat="46.52471" lon="5.62573">
        <ele>500</ele>
        <time>2019-02-13T08:39:02Z</time>
      </trkpt>
      <trkpt lat="46.52464" lon="5.62561">
        <ele>499</ele>
        <time>2019-02-13T08:40:02Z</time>
      </trkpt>
      <trkpt lat="46.52451" lon="5.6254">
        <ele>497</ele>
        <time>2019-02-13T08:41:02Z</time>
      </trkpt>
      <trkpt lat="46.52438" lon="5.6252">
        <ele>495</ele>
        <time>2019-02-13T08:42:02Z</time>
      </trkpt>
      <trkpt lat="46.52422" lon="5.62497">
        <ele>493</ele>
        <time>2019-02-13T08:43:02Z</time>
      </trkpt>
      <trkpt lat="46.52414" lon="5.62483">
        <ele>493</ele>
        <time>2019-02-13T08:44:02Z</time>
      </trkpt>
      <trkpt lat="46.52405" lon="5.62467">
        <ele>493</ele>
        <time>2019-02-13T08:45:02Z</time>
      </trkpt>
      <trkpt lat="46.52395" lon="5.62443">
        <ele>492</ele>
        <time>2019-02-13T08:46:02Z</time>
      </trkpt>
      <trkpt lat="46.52388" lon="5.62424">
        <ele>492</ele>
        <time>2019-02-13T08:47:02Z</time>
      </trkpt>
      <trkpt lat="46.52385" lon="5.62414">
        <ele>492</ele>
        <time>2019-02-13T08:48:02Z</time>
      </trkpt>
      <trkpt lat="46.52382" lon="5.62402">
        <ele>491</ele>
        <time>2019-02-13T08:49:02Z</time>
      </trkpt>
      <trkpt lat="46.52378" lon="5.62383">
        <ele>490</ele>
        <time>2019-02-13T08:50:02Z</time>
      </trkpt>
      <trkpt lat="46.52374" lon="5.62365">
        <ele>490</ele>
        <time>2019-02-13T08:51:02Z</time>
      </trkpt>
      <trkpt lat="46.52372" lon="5.62347">
        <ele>489</ele>
        <time>2019-02-13T08:52:02Z</time>
      </trkpt>
      <trkpt lat="46.5237" lon="5.62328">
        <ele>488</ele>
        <time>2019-02-13T08:53:02Z</time>
      </trkpt>
      <trkpt lat="46.5237" lon="5.6231">
        <ele>488</ele>
        <time>2019-02-13T08:54:02Z</time>
      </trkpt>
      <trkpt lat="46.5237" lon="5.62289">
        <ele>487</ele>
        <time>2019-02-13T08:55:02Z</time>
      </trkpt>
      <trkpt lat="46.52371" lon="5.6226">
        <ele>487</ele>
        <time>2019-02-13T08:56:02Z</time>
      </trkpt>
      <trkpt lat="46.52373" lon="5.62223">
        <ele>486</ele>
        <time>2019-02-13T08:57:02Z</time>
      </trkpt>
      <trkpt lat="46.52375" lon="5.62186">
        <ele>486</ele>
        <time>2019-02-13T08:58:02Z</time>
      </trkpt>
      <trkpt lat="46.52378" lon="5.62144">
        <ele>486</ele>
        <time>2019-02-13T08:59:02Z</time>
      </trkpt>
      <trkpt lat="46.52381" lon="5.62093">
        <ele>487</ele>
        <time>2019-02-13T09:00:02Z</time>
      </trkpt>
      <trkpt lat="46.52389" lon="5.61962">
        <ele>486</ele>
        <time>2019-02-13T09:01:02Z</time>
      </trkpt>
      <trkpt lat="46.52391" lon="5.6194">
        <ele>486</ele>
        <time>2019-02-13T09:02:02Z</time>
      </trkpt>
      <trkpt lat="46.52392" lon="5.61911">
        <ele>486</ele>
        <time>2019-02-13T09:03:02Z</time>
      </trkpt>
      <trkpt lat="46.52393" lon="5.61902">
        <ele>486</ele>
        <time>2019-02-13T09:04:02Z</time>
      </trkpt>
      <trkpt lat="46.52394" lon="5.6188">
        <ele>487</ele>
        <time>2019-02-13T09:05:02Z</time>
      </trkpt>
      <trkpt lat="46.52393" lon="5.61856">
        <ele>487</ele>
        <time>2019-02-13T09:06:02Z</time>
      </trkpt>
      <trkpt lat="46.52389" lon="5.61832">
        <ele>488</ele>
        <time>2019-02-13T09:07:02Z</time>
      </trkpt>
      <trkpt lat="46.52382" lon="5.61797">
        <ele>489</ele>
        <time>2019-02-13T09:08:02Z</time>
      </trkpt>
      <trkpt lat="46.52377" lon="5.61765">
        <ele>491</ele>
        <time>2019-02-13T09:09:02Z</time>
      </trkpt>
      <trkpt lat="46.52373" lon="5.61748">
        <ele>492</ele>
        <time>2019-02-13T09:10:02Z</time>
      </trkpt>
      <trkpt lat="46.52362" lon="5.61693">
        <ele>496</ele>
        <time>2019-02-13T09:11:02Z</time>
      </trkpt>
      <trkpt lat="46.52355" lon="5.61659">
        <ele>498</ele>
        <time>2019-02-13T09:12:02Z</time>
      </trkpt>
      <trkpt lat="46.52352" lon="5.61648">
        <ele>499</ele>
        <time>2019-02-13T09:13:02Z</time>
      </trkpt>
      <trkpt lat="46.52349" lon="5.61639">
        <ele>500</ele>
        <time>2019-02-13T09:17:02Z</time>
      </trkpt>
      <trkpt lat="46.52348" lon="5.61636">
        <ele>500</ele>
        <time>2019-02-13T09:18:02Z</time>
      </trkpt>
      <trkpt lat="46.52343" lon="5.61631">
        <ele>500</ele>
        <time>2019-02-13T09:19:02Z</time>
      </trkpt>
      <trkpt lat="46.52336" lon="5.61624">
        <ele>501</ele>
        <time>2019-02-13T09:20:02Z</time>
      </trkpt>
      <trkpt lat="46.52325" lon="5.61615">
        <ele>501</ele>
        <time>2019-02-13T09:21:02Z</time>
      </trkpt>
      <trkpt lat="46.52306" lon="5.61603">
        <ele>500</ele>
        <time>2019-02-13T09:22:02Z</time>
      </trkpt>
      <trkpt lat="46.52293" lon="5.61592">
        <ele>500</ele>
        <time>2019-02-13T09:23:02Z</time>
      </trkpt>
      <trkpt lat="46.52286" lon="5.61586">
        <ele>500</ele>
        <time>2019-02-13T09:24:02Z</time>
      </trkpt>
      <trkpt lat="46.52271" lon="5.61572">
        <ele>501</ele>
        <time>2019-02-13T09:25:02Z</time>
      </trkpt>
      <trkpt lat="46.5225" lon="5.61549">
        <ele>501</ele>
        <time>2019-02-13T09:26:02Z</time>
      </trkpt>
      <trkpt lat="46.52178" lon="5.6147">
        <ele>502</ele>
        <time>2019-02-13T09:27:02Z</time>
      </trkpt>
      <trkpt lat="46.5214" lon="5.61431">
        <ele>500</ele>
        <time>2019-02-13T09:28:02Z</time>
      </trkpt>
      <trkpt lat="46.52133" lon="5.61422">
        <ele>500</ele>
        <time>2019-02-13T09:29:02Z</time>
      </trkpt>
      <trkpt lat="46.52126" lon="5.61413">
        <ele>499</ele>
        <time>2019-02-13T09:30:02Z</time>
      </trkpt>
      <trkpt lat="46.52123" lon="5.61408">
        <ele>499</ele>
        <time>2019-02-13T09:31:02Z</time>
      </trkpt>
      <trkpt lat="46.52119" lon="5.614">
        <ele>499</ele>
        <time>2019-02-13T09:32:02Z</time>
      </trkpt>
      <trkpt lat="46.52116" lon="5.61393">
        <ele>499</ele>
        <time>2019-02-13T09:33:02Z</time>
      </trkpt>
      <trkpt lat="46.52113" lon="5.61384">
        <ele>499</ele>
        <time>2019-02-13T09:34:02Z</time>
      </trkpt>
      <trkpt lat="46.52109" lon="5.61364">
        <ele>500</ele>
        <time>2019-02-13T09:35:02Z</time>
      </trkpt>
      <trkpt lat="46.52103" lon="5.6133">
        <ele>502</ele>
        <time>2019-02-13T09:36:02Z</time>
      </trkpt>
      <trkpt lat="46.52095" lon="5.61302">
        <ele>504.3</ele>
        <time>2019-02-13T09:37:02Z</time>
      </trkpt>
      <trkpt lat="46.52097" lon="5.61222">
        <ele>508</ele>
        <time>2019-02-13T09:38:02Z</time>
      </trkpt>
      <trkpt lat="46.52094" lon="5.61179">
        <ele>508.3</ele>
        <time>2019-02-13T09:39:02Z</time>
      </trkpt>
      <trkpt lat="46.52092" lon="5.61155">
        <ele>508</ele>
        <time>2019-02-13T09:40:02Z</time>
      </trkpt>
      <trkpt lat="46.52092" lon="5.61133">
        <ele>508</ele>
        <time>2019-02-13T09:41:02Z</time>
      </trkpt>
      <trkpt lat="46.52092" lon="5.61118">
        <ele>508</ele>
        <time>2019-02-13T09:42:02Z</time>
      </trkpt>
      <trkpt lat="46.52094" lon="5.61108">
        <ele>508</ele>
        <time>2019-02-13T09:43:02Z</time>
      </trkpt>
      <trkpt lat="46.52098" lon="5.61086">
        <ele>508</ele>
        <time>2019-02-13T09:44:02Z</time>
      </trkpt>
      <trkpt lat="46.52099" lon="5.61078">
        <ele>508</ele>
        <time>2019-02-13T09:45:02Z</time>
      </trkpt>
      <trkpt lat="46.52099" lon="5.61078">
        <ele>508</ele>
        <time>2019-02-13T09:46:02Z</time>
      </trkpt>
      <trkpt lat="46.521" lon="5.61077">
        <ele>508</ele>
        <time>2019-02-13T09:47:02Z</time>
      </trkpt>
      <trkpt lat="46.521" lon="5.61076">
        <ele>508</ele>
        <time>2019-02-13T09:48:02Z</time>
      </trkpt>
      <trkpt lat="46.52101" lon="5.61076">
        <ele>508</ele>
        <time>2019-02-13T09:49:02Z</time>
      </trkpt>
      <trkpt lat="46.52101" lon="5.61075">
        <ele>508</ele>
        <time>2019-02-13T09:50:02Z</time>
      </trkpt>
      <trkpt lat="46.52102" lon="5.61074">
        <ele>508</ele>
        <time>2019-02-13T09:51:02Z</time>
      </trkpt>
      <trkpt lat="46.52103" lon="5.61073">
        <ele>508</ele>
        <time>2019-02-13T09:52:02Z</time>
      </trkpt>
      <trkpt lat="46.52103" lon="5.61072">
        <ele>508</ele>
        <time>2019-02-13T09:53:02Z</time>
      </trkpt>
      <trkpt lat="46.52103" lon="5.61071">
        <ele>508</ele>
        <time>2019-02-13T09:54:02Z</time>
      </trkpt>
      <trkpt lat="46.52103" lon="5.6107">
        <ele>508</ele>
        <time>2019-02-13T09:55:02Z</time>
      </trkpt>
      <trkpt lat="46.52104" lon="5.61069">
        <ele>508</ele>
        <time>2019-02-13T09:56:02Z</time>
      </trkpt>
      <trkpt lat="46.52104" lon="5.61068">
        <ele>508</ele>
        <time>2019-02-13T09:57:02Z</time>
      </trkpt>
      <trkpt lat="46.52104" lon="5.61067">
        <ele>508</ele>
        <time>2019-02-13T09:58:02Z</time>
      </trkpt>
      <trkpt lat="46.52104" lon="5.61065">
        <ele>508</ele>
        <time>2019-02-13T09:59:02Z</time>
      </trkpt>
      <trkpt lat="46.52104" lon="5.61064">
        <ele>508</ele>
        <time>2019-02-13T10:00:02Z</time>
      </trkpt>
      <trkpt lat="46.52104" lon="5.61063">
        <ele>508</ele>
        <time>2019-02-13T10:01:02Z</time>
      </trkpt>
      <trkpt lat="46.52104" lon="5.61062">
        <ele>508</ele>
        <time>2019-02-13T10:02:02Z</time>
      </trkpt>
      <trkpt lat="46.52104" lon="5.61061">
        <ele>508</ele>
        <time>2019-02-13T10:03:02Z</time>
      </trkpt>
      <trkpt lat="46.52104" lon="5.6106">
        <ele>508</ele>
        <time>2019-02-13T10:04:02Z</time>
      </trkpt>
      <trkpt lat="46.52104" lon="5.61059">
        <ele>508</ele>
        <time>2019-02-13T10:05:02Z</time>
      </trkpt>
      <trkpt lat="46.52104" lon="5.61058">
        <ele>508</ele>
        <time>2019-02-13T10:06:02Z</time>
      </trkpt>
      <trkpt lat="46.52104" lon="5.61057">
        <ele>508</ele>
        <time>2019-02-13T10:07:02Z</time>
      </trkpt>
      <trkpt lat="46.52104" lon="5.61056">
        <ele>508</ele>
        <time>2019-02-13T10:08:02Z</time>
      </trkpt>
      <trkpt lat="46.52103" lon="5.61054">
        <ele>507</ele>
        <time>2019-02-13T10:09:02Z</time>
      </trkpt>
      <trkpt lat="46.52103" lon="5.61053">
        <ele>507</ele>
        <time>2019-02-13T10:10:02Z</time>
      </trkpt>
      <trkpt lat="46.52102" lon="5.61052">
        <ele>507</ele>
        <time>2019-02-13T10:11:02Z</time>
      </trkpt>
      <trkpt lat="46.52102" lon="5.61051">
        <ele>507</ele>
        <time>2019-02-13T10:12:02Z</time>
      </trkpt>
      <trkpt lat="46.52101" lon="5.61051">
        <ele>507</ele>
        <time>2019-02-13T10:13:02Z</time>
      </trkpt>
      <trkpt lat="46.52101" lon="5.6105">
        <ele>507</ele>
        <time>2019-02-13T10:14:02Z</time>
      </trkpt>
      <trkpt lat="46.521" lon="5.61049">
        <ele>507</ele>
        <time>2019-02-13T10:15:02Z</time>
      </trkpt>
      <trkpt lat="46.52099" lon="5.61048">
        <ele>507</ele>
        <time>2019-02-13T10:16:02Z</time>
      </trkpt>
      <trkpt lat="46.52098" lon="5.61048">
        <ele>507</ele>
        <time>2019-02-13T10:17:02Z</time>
      </trkpt>
      <trkpt lat="46.52097" lon="5.61047">
        <ele>507</ele>
        <time>2019-02-13T10:18:02Z</time>
      </trkpt>
      <trkpt lat="46.52099" lon="5.61037">
        <ele>507</ele>
        <time>2019-02-13T10:19:02Z</time>
      </trkpt>
      <trkpt lat="46.52102" lon="5.61029">
        <ele>507</ele>
        <time>2019-02-13T10:20:02Z</time>
      </trkpt>
      <trkpt lat="46.52105" lon="5.61021">
        <ele>507</ele>
        <time>2019-02-13T10:21:02Z</time>
      </trkpt>
      <trkpt lat="46.52114" lon="5.61011">
        <ele>507</ele>
        <time>2019-02-13T10:22:02Z</time>
      </trkpt>
      <trkpt lat="46.5212" lon="5.61003">
        <ele>507</ele>
        <time>2019-02-13T10:23:02Z</time>
      </trkpt>
      <trkpt lat="46.52128" lon="5.60994">
        <ele>507</ele>
        <time>2019-02-13T10:24:02Z</time>
      </trkpt>
      <trkpt lat="46.52133" lon="5.60985">
        <ele>507</ele>
        <time>2019-02-13T10:25:02Z</time>
      </trkpt>
      <trkpt lat="46.52136" lon="5.60978">
        <ele>508</ele>
        <time>2019-02-13T10:26:02Z</time>
      </trkpt>
      <trkpt lat="46.52138" lon="5.60969">
        <ele>508</ele>
        <time>2019-02-13T10:27:02Z</time>
      </trkpt>
      <trkpt lat="46.5214" lon="5.60957">
        <ele>508</ele>
        <time>2019-02-13T10:28:02Z</time>
      </trkpt>
      <trkpt lat="46.52141" lon="5.60953">
        <ele>508</ele>
        <time>2019-02-13T10:29:02Z</time>
      </trkpt>
      <trkpt lat="46.52142" lon="5.60948">
        <ele>508</ele>
        <time>2019-02-13T10:30:02Z</time>
      </trkpt>
      <trkpt lat="46.52143" lon="5.60943">
        <ele>508</ele>
        <time>2019-02-13T10:31:02Z</time>
      </trkpt>
      <trkpt lat="46.5215" lon="5.60885">
        <ele>510</ele>
        <time>2019-02-13T10:32:02Z</time>
      </trkpt>
      <trkpt lat="46.52152" lon="5.60865">
        <ele>510</ele>
        <time>2019-02-13T10:33:02Z</time>
      </trkpt>
      <trkpt lat="46.52154" lon="5.60853">
        <ele>511</ele>
        <time>2019-02-13T10:34:02Z</time>
      </trkpt>
      <trkpt lat="46.52157" lon="5.60836">
        <ele>511</ele>
        <time>2019-02-13T10:35:02Z</time>
      </trkpt>
      <trkpt lat="46.5216" lon="5.60817">
        <ele>511</ele>
        <time>2019-02-13T10:36:02Z</time>
      </trkpt>
      <trkpt lat="46.52161" lon="5.60809">
        <ele>511</ele>
        <time>2019-02-13T10:37:02Z</time>
      </trkpt>
      <trkpt lat="46.5216" lon="5.60783">
        <ele>511</ele>
        <time>2019-02-13T10:38:02Z</time>
      </trkpt>
      <trkpt lat="46.52157" lon="5.60763">
        <ele>510</ele>
        <time>2019-02-13T10:39:02Z</time>
      </trkpt>
      <trkpt lat="46.52156" lon="5.60755">
        <ele>510</ele>
        <time>2019-02-13T10:40:02Z</time>
      </trkpt>
      <trkpt lat="46.52157" lon="5.60746">
        <ele>509</ele>
        <time>2019-02-13T10:41:02Z</time>
      </trkpt>
      <trkpt lat="46.52158" lon="5.6074">
        <ele>509</ele>
        <time>2019-02-13T10:42:02Z</time>
      </trkpt>
      <trkpt lat="46.5216" lon="5.60734">
        <ele>509</ele>
        <time>2019-02-13T10:43:02Z</time>
      </trkpt>
      <trkpt lat="46.52165" lon="5.60726">
        <ele>509</ele>
        <time>2019-02-13T10:44:02Z</time>
      </trkpt>
      <trkpt lat="46.52169" lon="5.60721">
        <ele>508</ele>
        <time>2019-02-13T10:45:02Z</time>
      </trkpt>
      <trkpt lat="46.52176" lon="5.60718">
        <ele>508</ele>
        <time>2019-02-13T10:46:02Z</time>
      </trkpt>
      <trkpt lat="46.52184" lon="5.60716">
        <ele>508</ele>
        <time>2019-02-13T10:47:02Z</time>
      </trkpt>
      <trkpt lat="46.52192" lon="5.60715">
        <ele>508</ele>
        <time>2019-02-13T10:48:02Z</time>
      </trkpt>
      <trkpt lat="46.52202" lon="5.60714">
        <ele>508</ele>
        <time>2019-02-13T10:49:02Z</time>
      </trkpt>
      <trkpt lat="46.52202" lon="5.60714">
        <ele>508</ele>
        <time>2019-02-13T10:50:02Z</time>
      </trkpt>
      <trkpt lat="46.52206" lon="5.60713">
        <ele>508</ele>
        <time>2019-02-13T10:51:02Z</time>
      </trkpt>
      <trkpt lat="46.52215" lon="5.60713">
        <ele>508</ele>
        <time>2019-02-13T10:52:02Z</time>
      </trkpt>
      <trkpt lat="46.52227" lon="5.60709">
        <ele>508</ele>
        <time>2019-02-13T10:53:02Z</time>
      </trkpt>
      <trkpt lat="46.52234" lon="5.60706">
        <ele>508</ele>
        <time>2019-02-13T10:54:02Z</time>
      </trkpt>
      <trkpt lat="46.52242" lon="5.60699">
        <ele>507</ele>
        <time>2019-02-13T10:55:02Z</time>
      </trkpt>
      <trkpt lat="46.5225" lon="5.60691">
        <ele>507</ele>
        <time>2019-02-13T10:56:02Z</time>
      </trkpt>
      <trkpt lat="46.52253" lon="5.60687">
        <ele>506</ele>
        <time>2019-02-13T10:57:02Z</time>
      </trkpt>
      <trkpt lat="46.52258" lon="5.60679">
        <ele>506</ele>
        <time>2019-02-13T10:58:02Z</time>
      </trkpt>
      <trkpt lat="46.52261" lon="5.60669">
        <ele>505</ele>
        <time>2019-02-13T10:59:02Z</time>
      </trkpt>
      <trkpt lat="46.52264" lon="5.60658">
        <ele>504</ele>
        <time>2019-02-13T11:00:02Z</time>
      </trkpt>
      <trkpt lat="46.52264" lon="5.60658">
        <ele>504</ele>
        <time>2019-02-13T11:01:02Z</time>
      </trkpt>
      <trkpt lat="46.52267" lon="5.60643">
        <ele>504</ele>
        <time>2019-02-13T11:02:02Z</time>
      </trkpt>
      <trkpt lat="46.52285" lon="5.60417">
        <ele>498</ele>
        <time>2019-02-13T11:03:02Z</time>
      </trkpt>
      <trkpt lat="46.52297" lon="5.60258">
        <ele>497</ele>
        <time>2019-02-13T11:04:02Z</time>
      </trkpt>
      <trkpt lat="46.52305" lon="5.60166">
        <ele>499</ele>
        <time>2019-02-13T11:05:02Z</time>
      </trkpt>
      <trkpt lat="46.52308" lon="5.60121">
        <ele>498</ele>
        <time>2019-02-13T11:06:02Z</time>
      </trkpt>
      <trkpt lat="46.52312" lon="5.60078">
        <ele>497</ele>
        <time>2019-02-13T11:07:02Z</time>
      </trkpt>
      <trkpt lat="46.52315" lon="5.60045">
        <ele>496</ele>
        <time>2019-02-13T11:08:02Z</time>
      </trkpt>
      <trkpt lat="46.52318" lon="5.59999">
        <ele>496</ele>
        <time>2019-02-13T11:09:02Z</time>
      </trkpt>
      <trkpt lat="46.52321" lon="5.59958">
        <ele>495</ele>
        <time>2019-02-13T11:10:02Z</time>
      </trkpt>
      <trkpt lat="46.52324" lon="5.59925">
        <ele>495</ele>
        <time>2019-02-13T11:11:02Z</time>
      </trkpt>
      <trkpt lat="46.52327" lon="5.59872">
        <ele>494</ele>
        <time>2019-02-13T11:12:02Z</time>
      </trkpt>
      <trkpt lat="46.52331" lon="5.59824">
        <ele>494</ele>
        <time>2019-02-13T11:13:02Z</time>
      </trkpt>
      <trkpt lat="46.52332" lon="5.59805">
        <ele>494</ele>
        <time>2019-02-13T11:14:02Z</time>
      </trkpt>
      <trkpt lat="46.52334" lon="5.59783">
        <ele>495</ele>
        <time>2019-02-13T11:15:02Z</time>
      </trkpt>
      <trkpt lat="46.52336" lon="5.59759">
        <ele>495</ele>
        <time>2019-02-13T11:16:02Z</time>
      </trkpt>
      <trkpt lat="46.52348" lon="5.59599">
        <ele>492</ele>
        <time>2019-02-13T11:17:02Z</time>
      </trkpt>
      <trkpt lat="46.52372" lon="5.59243">
        <ele>486</ele>
        <time>2019-02-13T11:18:02Z</time>
      </trkpt>
      <trkpt lat="46.52386" lon="5.59056">
        <ele>486</ele>
        <time>2019-02-13T11:19:02Z</time>
      </trkpt>
      <trkpt lat="46.52411" lon="5.58732">
        <ele>481</ele>
        <time>2019-02-13T11:20:02Z</time>
      </trkpt>
      <trkpt lat="46.52416" lon="5.58677">
        <ele>482</ele>
        <time>2019-02-13T11:21:02Z</time>
      </trkpt>
      <trkpt lat="46.5242" lon="5.58628">
        <ele>482</ele>
        <time>2019-02-13T11:22:02Z</time>
      </trkpt>
      <trkpt lat="46.52448" lon="5.58255">
        <ele>482</ele>
        <time>2019-02-13T11:23:02Z</time>
      </trkpt>
      <trkpt lat="46.5245" lon="5.58221">
        <ele>482</ele>
        <time>2019-02-13T11:24:02Z</time>
      </trkpt>
      <trkpt lat="46.52453" lon="5.58187">
        <ele>482</ele>
        <time>2019-02-13T11:25:02Z</time>
      </trkpt>
      <trkpt lat="46.52457" lon="5.5814">
        <ele>481</ele>
        <time>2019-02-13T11:26:02Z</time>
      </trkpt>
      <trkpt lat="46.52459" lon="5.58108">
        <ele>481</ele>
        <time>2019-02-13T11:27:02Z</time>
      </trkpt>
      <trkpt lat="46.52483" lon="5.57787">
        <ele>481</ele>
        <time>2019-02-13T11:28:02Z</time>
      </trkpt>
      <trkpt lat="46.52521" lon="5.57299">
        <ele>481</ele>
        <time>2019-02-13T11:29:02Z</time>
      </trkpt>
      <trkpt lat="46.52538" lon="5.57073">
        <ele>480</ele>
        <time>2019-02-13T11:30:02Z</time>
      </trkpt>
      <trkpt lat="46.52542" lon="5.57028">
        <ele>480</ele>
        <time>2019-02-13T11:31:02Z</time>
      </trkpt>
      <trkpt lat="46.52545" lon="5.56988">
        <ele>480</ele>
        <time>2019-02-13T11:32:02Z</time>
      </trkpt>
      <trkpt lat="46.52549" lon="5.56936">
        <ele>480</ele>
        <time>2019-02-13T11:33:02Z</time>
      </trkpt>
      <trkpt lat="46.52553" lon="5.56885">
        <ele>480</ele>
        <time>2019-02-13T11:34:02Z</time>
      </trkpt>
      <trkpt lat="46.52556" lon="5.56839">
        <ele>481</ele>
        <time>2019-02-13T11:35:02Z</time>
      </trkpt>
      <trkpt lat="46.52561" lon="5.56784">
        <ele>482</ele>
        <time>2019-02-13T11:36:02Z</time>
      </trkpt>
      <trkpt lat="46.52565" lon="5.56729">
        <ele>484</ele>
        <time>2019-02-13T11:37:02Z</time>
      </trkpt>
      <trkpt lat="46.52568" lon="5.56678">
        <ele>484</ele>
        <time>2019-02-13T11:38:02Z</time>
      </trkpt>
      <trkpt lat="46.52572" lon="5.56639">
        <ele>484</ele>
        <time>2019-02-13T11:39:02Z</time>
      </trkpt>
      <trkpt lat="46.52577" lon="5.56579">
        <ele>484</ele>
        <time>2019-02-13T11:40:02Z</time>
      </trkpt>
      <trkpt lat="46.5258" lon="5.56538">
        <ele>485</ele>
        <time>2019-02-13T11:41:02Z</time>
      </trkpt>
      <trkpt lat="46.52582" lon="5.56504">
        <ele>485</ele>
        <time>2019-02-13T11:42:02Z</time>
      </trkpt>
      <trkpt lat="46.52585" lon="5.56469">
        <ele>485</ele>
        <time>2019-02-13T11:43:02Z</time>
      </trkpt>
      <trkpt lat="46.52586" lon="5.56458">
        <ele>485</ele>
        <time>2019-02-13T11:44:02Z</time>
      </trkpt>
      <trkpt lat="46.52588" lon="5.56438">
        <ele>485</ele>
        <time>2019-02-13T11:45:02Z</time>
      </trkpt>
      <trkpt lat="46.52597" lon="5.56328">
        <ele>484</ele>
        <time>2019-02-13T11:46:02Z</time>
      </trkpt>
      <trkpt lat="46.52602" lon="5.56254">
        <ele>483</ele>
        <time>2019-02-13T11:47:02Z</time>
      </trkpt>
      <trkpt lat="46.52609" lon="5.56168">
        <ele>481</ele>
        <time>2019-02-13T11:48:02Z</time>
      </trkpt>
      <trkpt lat="46.52612" lon="5.56125">
        <ele>482</ele>
        <time>2019-02-13T11:49:02Z</time>
      </trkpt>
      <trkpt lat="46.52621" lon="5.56006">
        <ele>483</ele>
        <time>2019-02-13T11:50:02Z</time>
      </trkpt>
      <trkpt lat="46.52669" lon="5.55389">
        <ele>481</ele>
        <time>2019-02-13T11:51:02Z</time>
      </trkpt>
      <trkpt lat="46.52685" lon="5.55183">
        <ele>483</ele>
        <time>2019-02-13T11:52:02Z</time>
      </trkpt>
      <trkpt lat="46.52693" lon="5.55076">
        <ele>483</ele>
        <time>2019-02-13T11:53:02Z</time>
      </trkpt>
      <trkpt lat="46.52693" lon="5.55073">
        <ele>483</ele>
        <time>2019-02-13T11:54:02Z</time>
      </trkpt>
      <trkpt lat="46.52706" lon="5.54911">
        <ele>488</ele>
        <time>2019-02-13T11:55:02Z</time>
      </trkpt>
      <trkpt lat="46.52711" lon="5.54837">
        <ele>490</ele>
        <time>2019-02-13T11:56:02Z</time>
      </trkpt>
      <trkpt lat="46.52725" lon="5.5465">
        <ele>494</ele>
        <time>2019-02-13T11:57:02Z</time>
      </trkpt>
      <trkpt lat="46.52727" lon="5.54637">
        <ele>495</ele>
        <time>2019-02-13T11:58:02Z</time>
      </trkpt>
      <trkpt lat="46.52728" lon="5.54632">
        <ele>496</ele>
        <time>2019-02-13T11:59:02Z</time>
      </trkpt>
      <trkpt lat="46.5273" lon="5.54626">
        <ele>496</ele>
        <time>2019-02-13T12:00:02Z</time>
      </trkpt>
      <trkpt lat="46.52732" lon="5.5462">
        <ele>497</ele>
        <time>2019-02-13T12:01:02Z</time>
      </trkpt>
      <trkpt lat="46.52732" lon="5.5462">
        <ele>497</ele>
        <time>2019-02-13T12:02:02Z</time>
      </trkpt>
      <trkpt lat="46.52729" lon="5.54609">
        <ele>498</ele>
        <time>2019-02-13T12:03:02Z</time>
      </trkpt>
      <trkpt lat="46.52726" lon="5.54601">
        <ele>498</ele>
        <time>2019-02-13T12:04:02Z</time>
      </trkpt>
      <trkpt lat="46.52723" lon="5.54592">
        <ele>499</ele>
        <time>2019-02-13T12:05:02Z</time>
      </trkpt>
      <trkpt lat="46.52718" lon="5.54584">
        <ele>499</ele>
        <time>2019-02-13T12:06:02Z</time>
      </trkpt>
      <trkpt lat="46.52692" lon="5.54549">
        <ele>503</ele>
        <time>2019-02-13T12:07:02Z</time>
      </trkpt>
      <trkpt lat="46.52671" lon="5.54521">
        <ele>507</ele>
        <time>2019-02-13T12:08:02Z</time>
      </trkpt>
      <trkpt lat="46.52661" lon="5.54508">
        <ele>508</ele>
        <time>2019-02-13T12:09:02Z</time>
      </trkpt>
      <trkpt lat="46.52646" lon="5.54494">
        <ele>511</ele>
        <time>2019-02-13T12:10:02Z</time>
      </trkpt>
      <trkpt lat="46.52634" lon="5.54486">
        <ele>513</ele>
        <time>2019-02-13T12:11:02Z</time>
      </trkpt>
      <trkpt lat="46.52618" lon="5.5448">
        <ele>514</ele>
        <time>2019-02-13T12:12:02Z</time>
      </trkpt>
      <trkpt lat="46.52595" lon="5.54475">
        <ele>514</ele>
        <time>2019-02-13T12:13:02Z</time>
      </trkpt>
      <trkpt lat="46.52567" lon="5.54468">
        <ele>514</ele>
        <time>2019-02-13T12:14:02Z</time>
      </trkpt>
      <trkpt lat="46.52535" lon="5.54447">
        <ele>517</ele>
        <time>2019-02-13T12:15:02Z</time>
      </trkpt>
      <trkpt lat="46.52509" lon="5.54426">
        <ele>520</ele>
        <time>2019-02-13T12:16:02Z</time>
      </trkpt>
      <trkpt lat="46.5249" lon="5.5441">
        <ele>522</ele>
        <time>2019-02-13T12:17:02Z</time>
      </trkpt>
      <trkpt lat="46.52464" lon="5.54383">
        <ele>526</ele>
        <time>2019-02-13T12:18:02Z</time>
      </trkpt>
      <trkpt lat="46.52449" lon="5.54373">
        <ele>527</ele>
        <time>2019-02-13T12:19:02Z</time>
      </trkpt>
      <trkpt lat="46.52441" lon="5.5437">
        <ele>527</ele>
        <time>2019-02-13T12:20:02Z</time>
      </trkpt>
      <trkpt lat="46.52427" lon="5.54366">
        <ele>527</ele>
        <time>2019-02-13T12:21:02Z</time>
      </trkpt>
      <trkpt lat="46.52411" lon="5.54362">
        <ele>527</ele>
        <time>2019-02-13T12:22:02Z</time>
      </trkpt>
      <trkpt lat="46.52399" lon="5.54358">
        <ele>527</ele>
        <time>2019-02-13T12:23:02Z</time>
      </trkpt>
      <trkpt lat="46.52383" lon="5.54353">
        <ele>527</ele>
        <time>2019-02-13T12:24:02Z</time>
      </trkpt>
      <trkpt lat="46.52368" lon="5.54348">
        <ele>527</ele>
        <time>2019-02-13T12:25:02Z</time>
      </trkpt>
      <trkpt lat="46.52355" lon="5.54342">
        <ele>527</ele>
        <time>2019-02-13T12:26:02Z</time>
      </trkpt>
      <trkpt lat="46.52293" lon="5.54308">
        <ele>529</ele>
        <time>2019-02-13T12:27:02Z</time>
      </trkpt>
      <trkpt lat="46.52285" lon="5.54303">
        <ele>530</ele>
        <time>2019-02-13T12:28:02Z</time>
      </trkpt>
      <trkpt lat="46.52275" lon="5.54299">
        <ele>530</ele>
        <time>2019-02-13T12:29:02Z</time>
      </trkpt>
      <trkpt lat="46.52265" lon="5.54295">
        <ele>530</ele>
        <time>2019-02-13T12:30:02Z</time>
      </trkpt>
      <trkpt lat="46.52255" lon="5.54291">
        <ele>530</ele>
        <time>2019-02-13T12:31:02Z</time>
      </trkpt>
      <trkpt lat="46.52245" lon="5.54287">
        <ele>530</ele>
        <time>2019-02-13T12:32:02Z</time>
      </trkpt>
      <trkpt lat="46.52234" lon="5.54283">
        <ele>530</ele>
        <time>2019-02-13T12:33:02Z</time>
      </trkpt>
      <trkpt lat="46.52225" lon="5.54278">
        <ele>531</ele>
        <time>2019-02-13T12:34:02Z</time>
      </trkpt>
      <trkpt lat="46.52223" lon="5.54278">
        <ele>530</ele>
        <time>2019-02-13T12:35:02Z</time>
      </trkpt>
      <trkpt lat="46.52213" lon="5.54272">
        <ele>531</ele>
        <time>2019-02-13T12:36:02Z</time>
      </trkpt>
      <trkpt lat="46.52202" lon="5.54266">
        <ele>531</ele>
        <time>2019-02-13T12:37:02Z</time>
      </trkpt>
      <trkpt lat="46.52194" lon="5.5426">
        <ele>532</ele>
        <time>2019-02-13T12:38:02Z</time>
      </trkpt>
      <trkpt lat="46.52187" lon="5.54255">
        <ele>533</ele>
        <time>2019-02-13T12:39:02Z</time>
      </trkpt>
      <trkpt lat="46.52179" lon="5.54249">
        <ele>533</ele>
        <time>2019-02-13T12:40:02Z</time>
      </trkpt>
      <trkpt lat="46.52173" lon="5.54241">
        <ele>534</ele>
        <time>2019-02-13T12:41:02Z</time>
      </trkpt>
      <trkpt lat="46.52165" lon="5.54235">
        <ele>534</ele>
        <time>2019-02-13T12:42:02Z</time>
      </trkpt>
      <trkpt lat="46.52158" lon="5.54229">
        <ele>535</ele>
        <time>2019-02-13T12:43:02Z</time>
      </trkpt>
      <trkpt lat="46.52152" lon="5.54226">
        <ele>535</ele>
        <time>2019-02-13T12:44:02Z</time>
      </trkpt>
      <trkpt lat="46.52147" lon="5.54223">
        <ele>535</ele>
        <time>2019-02-13T12:45:02Z</time>
      </trkpt>
      <trkpt lat="46.52141" lon="5.54221">
        <ele>535</ele>
        <time>2019-02-13T12:46:02Z</time>
      </trkpt>
      <trkpt lat="46.52131" lon="5.54218">
        <ele>535</ele>
        <time>2019-02-13T12:47:02Z</time>
      </trkpt>
      <trkpt lat="46.5212" lon="5.54216">
        <ele>535</ele>
        <time>2019-02-13T12:48:02Z</time>
      </trkpt>
      <trkpt lat="46.52113" lon="5.54213">
        <ele>535</ele>
        <time>2019-02-13T12:49:02Z</time>
      </trkpt>
      <trkpt lat="46.52103" lon="5.5421">
        <ele>535</ele>
        <time>2019-02-13T12:50:02Z</time>
      </trkpt>
      <trkpt lat="46.52089" lon="5.54202">
        <ele>535</ele>
        <time>2019-02-13T12:51:02Z</time>
      </trkpt>
      <trkpt lat="46.52075" lon="5.54195">
        <ele>536</ele>
        <time>2019-02-13T12:52:02Z</time>
      </trkpt>
      <trkpt lat="46.52055" lon="5.54183">
        <ele>537</ele>
        <time>2019-02-13T12:53:02Z</time>
      </trkpt>
      <trkpt lat="46.52038" lon="5.54174">
        <ele>537</ele>
        <time>2019-02-13T12:54:02Z</time>
      </trkpt>
      <trkpt lat="46.52018" lon="5.54163">
        <ele>539</ele>
        <time>2019-02-13T12:55:02Z</time>
      </trkpt>
      <trkpt lat="46.51997" lon="5.54151">
        <ele>541</ele>
        <time>2019-02-13T12:56:02Z</time>
      </trkpt>
      <trkpt lat="46.51974" lon="5.5414">
        <ele>543</ele>
        <time>2019-02-13T12:57:02Z</time>
      </trkpt>
      <trkpt lat="46.51962" lon="5.54133">
        <ele>544</ele>
        <time>2019-02-13T12:58:02Z</time>
      </trkpt>
      <trkpt lat="46.51946" lon="5.54125">
        <ele>545</ele>
        <time>2019-02-13T12:59:02Z</time>
      </trkpt>
      <trkpt lat="46.51934" lon="5.54118">
        <ele>546</ele>
        <time>2019-02-13T13:00:02Z</time>
      </trkpt>
      <trkpt lat="46.51921" lon="5.54109">
        <ele>547</ele>
        <time>2019-02-13T13:01:02Z</time>
      </trkpt>
      <trkpt lat="46.51913" lon="5.54102">
        <ele>548</ele>
        <time>2019-02-13T13:02:02Z</time>
      </trkpt>
      <trkpt lat="46.51905" lon="5.54094">
        <ele>549</ele>
        <time>2019-02-13T13:03:02Z</time>
      </trkpt>
      <trkpt lat="46.51898" lon="5.54086">
        <ele>550</ele>
        <time>2019-02-13T13:04:02Z</time>
      </trkpt>
      <trkpt lat="46.51889" lon="5.54074">
        <ele>551</ele>
        <time>2019-02-13T13:05:02Z</time>
      </trkpt>
      <trkpt lat="46.51882" lon="5.54062">
        <ele>552</ele>
        <time>2019-02-13T13:06:02Z</time>
      </trkpt>
      <trkpt lat="46.51877" lon="5.54053">
        <ele>552</ele>
        <time>2019-02-13T13:07:02Z</time>
      </trkpt>
      <trkpt lat="46.51873" lon="5.5404">
        <ele>553</ele>
        <time>2019-02-13T13:08:02Z</time>
      </trkpt>
      <trkpt lat="46.51867" lon="5.54023">
        <ele>554</ele>
        <time>2019-02-13T13:09:02Z</time>
      </trkpt>
      <trkpt lat="46.51864" lon="5.54005">
        <ele>555</ele>
        <time>2019-02-13T13:10:02Z</time>
      </trkpt>
      <trkpt lat="46.51861" lon="5.53987">
        <ele>556</ele>
        <time>2019-02-13T13:11:02Z</time>
      </trkpt>
      <trkpt lat="46.51861" lon="5.53983">
        <ele>556</ele>
        <time>2019-02-13T13:12:02Z</time>
      </trkpt>
      <trkpt lat="46.51859" lon="5.5397">
        <ele>557</ele>
        <time>2019-02-13T13:13:02Z</time>
      </trkpt>
      <trkpt lat="46.51858" lon="5.53942">
        <ele>558</ele>
        <time>2019-02-13T13:14:02Z</time>
      </trkpt>
      <trkpt lat="46.51857" lon="5.53923">
        <ele>560</ele>
        <time>2019-02-13T13:15:02Z</time>
      </trkpt>
      <trkpt lat="46.51858" lon="5.53902">
        <ele>560</ele>
        <time>2019-02-13T13:16:02Z</time>
      </trkpt>
      <trkpt lat="46.51859" lon="5.53874">
        <ele>559</ele>
        <time>2019-02-13T13:17:02Z</time>
      </trkpt>
      <trkpt lat="46.5186" lon="5.53855">
        <ele>558</ele>
        <time>2019-02-13T13:18:02Z</time>
      </trkpt>
      <trkpt lat="46.51863" lon="5.53834">
        <ele>557</ele>
        <time>2019-02-13T13:19:02Z</time>
      </trkpt>
      <trkpt lat="46.51866" lon="5.53818">
        <ele>555</ele>
        <time>2019-02-13T13:20:02Z</time>
      </trkpt>
      <trkpt lat="46.5187" lon="5.53801">
        <ele>553</ele>
        <time>2019-02-13T13:21:02Z</time>
      </trkpt>
      <trkpt lat="46.51873" lon="5.53791">
        <ele>552</ele>
        <time>2019-02-13T13:22:02Z</time>
      </trkpt>
      <trkpt lat="46.51875" lon="5.53778">
        <ele>550</ele>
        <time>2019-02-13T13:23:02Z</time>
      </trkpt>
      <trkpt lat="46.51878" lon="5.53763">
        <ele>548</ele>
        <time>2019-02-13T13:24:02Z</time>
      </trkpt>
      <trkpt lat="46.51881" lon="5.53748">
        <ele>546</ele>
        <time>2019-02-13T13:25:02Z</time>
      </trkpt>
      <trkpt lat="46.51881" lon="5.53738">
        <ele>545</ele>
        <time>2019-02-13T13:26:02Z</time>
      </trkpt>
      <trkpt lat="46.5188" lon="5.53729">
        <ele>543</ele>
        <time>2019-02-13T13:27:02Z</time>
      </trkpt>
      <trkpt lat="46.51878" lon="5.53718">
        <ele>541</ele>
        <time>2019-02-13T13:28:02Z</time>
      </trkpt>
      <trkpt lat="46.51876" lon="5.5371">
        <ele>540</ele>
        <time>2019-02-13T13:29:02Z</time>
      </trkpt>
      <trkpt lat="46.51873" lon="5.537">
        <ele>538</ele>
        <time>2019-02-13T13:30:02Z</time>
      </trkpt>
      <trkpt lat="46.51868" lon="5.5369">
        <ele>537</ele>
        <time>2019-02-13T13:31:02Z</time>
      </trkpt>
      <trkpt lat="46.51862" lon="5.53682">
        <ele>535</ele>
        <time>2019-02-13T13:32:02Z</time>
      </trkpt>
      <trkpt lat="46.51854" lon="5.53673">
        <ele>534</ele>
        <time>2019-02-13T13:33:02Z</time>
      </trkpt>
      <trkpt lat="46.51846" lon="5.53666">
        <ele>533</ele>
        <time>2019-02-13T13:34:02Z</time>
      </trkpt>
      <trkpt lat="46.51837" lon="5.53661">
        <ele>531</ele>
        <time>2019-02-13T13:35:02Z</time>
      </trkpt>
      <trkpt lat="46.51826" lon="5.53656">
        <ele>530</ele>
        <time>2019-02-13T13:36:02Z</time>
      </trkpt>
      <trkpt lat="46.51816" lon="5.53652">
        <ele>529</ele>
        <time>2019-02-13T13:37:02Z</time>
      </trkpt>
      <trkpt lat="46.51804" lon="5.53648">
        <ele>528</ele>
        <time>2019-02-13T13:38:02Z</time>
      </trkpt>
      <trkpt lat="46.51792" lon="5.53644">
        <ele>527</ele>
        <time>2019-02-13T13:39:02Z</time>
      </trkpt>
      <trkpt lat="46.51776" lon="5.53641">
        <ele>527</ele>
        <time>2019-02-13T13:40:02Z</time>
      </trkpt>
      <trkpt lat="46.51765" lon="5.5364">
        <ele>526</ele>
        <time>2019-02-13T13:41:02Z</time>
      </trkpt>
      <trkpt lat="46.5175" lon="5.53637">
        <ele>526</ele>
        <time>2019-02-13T13:42:02Z</time>
      </trkpt>
      <trkpt lat="46.51737" lon="5.53635">
        <ele>525</ele>
        <time>2019-02-13T13:43:02Z</time>
      </trkpt>
      <trkpt lat="46.51721" lon="5.53633">
        <ele>524</ele>
        <time>2019-02-13T13:44:02Z</time>
      </trkpt>
      <trkpt lat="46.51709" lon="5.53631">
        <ele>524</ele>
        <time>2019-02-13T13:45:02Z</time>
      </trkpt>
      <trkpt lat="46.51693" lon="5.53629">
        <ele>523</ele>
        <time>2019-02-13T13:46:02Z</time>
      </trkpt>
      <trkpt lat="46.51681" lon="5.53627">
        <ele>523</ele>
        <time>2019-02-13T13:47:02Z</time>
      </trkpt>
      <trkpt lat="46.51667" lon="5.53626">
        <ele>522</ele>
        <time>2019-02-13T13:48:02Z</time>
      </trkpt>
      <trkpt lat="46.51651" lon="5.53623">
        <ele>521</ele>
        <time>2019-02-13T13:49:02Z</time>
      </trkpt>
      <trkpt lat="46.51633" lon="5.53621">
        <ele>521</ele>
        <time>2019-02-13T13:50:02Z</time>
      </trkpt>
      <trkpt lat="46.51613" lon="5.53618">
        <ele>520</ele>
        <time>2019-02-13T13:51:02Z</time>
      </trkpt>
      <trkpt lat="46.51597" lon="5.53616">
        <ele>519</ele>
        <time>2019-02-13T13:52:02Z</time>
      </trkpt>
      <trkpt lat="46.51582" lon="5.53613">
        <ele>518</ele>
        <time>2019-02-13T13:53:02Z</time>
      </trkpt>
      <trkpt lat="46.51568" lon="5.53611">
        <ele>517</ele>
        <time>2019-02-13T13:54:02Z</time>
      </trkpt>
      <trkpt lat="46.51552" lon="5.53609">
        <ele>517</ele>
        <time>2019-02-13T13:55:02Z</time>
      </trkpt>
      <trkpt lat="46.51536" lon="5.53606">
        <ele>516</ele>
        <time>2019-02-13T13:56:02Z</time>
      </trkpt>
      <trkpt lat="46.51509" lon="5.53604">
        <ele>515</ele>
        <time>2019-02-13T13:57:02Z</time>
      </trkpt>
      <trkpt lat="46.51492" lon="5.53603">
        <ele>514</ele>
        <time>2019-02-13T13:58:02Z</time>
      </trkpt>
      <trkpt lat="46.51473" lon="5.53602">
        <ele>512</ele>
        <time>2019-02-13T13:59:02Z</time>
      </trkpt>
      <trkpt lat="46.51446" lon="5.53602">
        <ele>510</ele>
        <time>2019-02-13T14:00:02Z</time>
      </trkpt>
      <trkpt lat="46.51422" lon="5.53603">
        <ele>508</ele>
        <time>2019-02-13T14:01:02Z</time>
      </trkpt>
      <trkpt lat="46.51401" lon="5.53605">
        <ele>506</ele>
        <time>2019-02-13T14:02:02Z</time>
      </trkpt>
      <trkpt lat="46.51385" lon="5.53608">
        <ele>506</ele>
        <time>2019-02-13T14:03:02Z</time>
      </trkpt>
      <trkpt lat="46.51371" lon="5.5361">
        <ele>505</ele>
        <time>2019-02-13T14:04:02Z</time>
      </trkpt>
      <trkpt lat="46.51358" lon="5.53615">
        <ele>505</ele>
        <time>2019-02-13T14:05:02Z</time>
      </trkpt>
      <trkpt lat="46.51336" lon="5.53624">
        <ele>506</ele>
        <time>2019-02-13T14:06:02Z</time>
      </trkpt>
      <trkpt lat="46.51318" lon="5.53629">
        <ele>506</ele>
        <time>2019-02-13T14:07:02Z</time>
      </trkpt>
      <trkpt lat="46.51297" lon="5.53635">
        <ele>506</ele>
        <time>2019-02-13T14:08:02Z</time>
      </trkpt>
      <trkpt lat="46.51282" lon="5.53639">
        <ele>505</ele>
        <time>2019-02-13T14:09:02Z</time>
      </trkpt>
      <trkpt lat="46.51269" lon="5.53642">
        <ele>505</ele>
        <time>2019-02-13T14:10:02Z</time>
      </trkpt>
      <trkpt lat="46.51236" lon="5.53644">
        <ele>503</ele>
        <time>2019-02-13T14:11:02Z</time>
      </trkpt>
      <trkpt lat="46.51192" lon="5.53642">
        <ele>500</ele>
        <time>2019-02-13T14:12:02Z</time>
      </trkpt>
      <trkpt lat="46.51165" lon="5.53643">
        <ele>500</ele>
        <time>2019-02-13T14:13:02Z</time>
      </trkpt>
      <trkpt lat="46.51138" lon="5.53641">
        <ele>499</ele>
        <time>2019-02-13T14:14:02Z</time>
      </trkpt>
      <trkpt lat="46.51113" lon="5.53637">
        <ele>498</ele>
        <time>2019-02-13T14:15:02Z</time>
      </trkpt>
      <trkpt lat="46.51094" lon="5.53635">
        <ele>498</ele>
        <time>2019-02-13T14:16:02Z</time>
      </trkpt>
      <trkpt lat="46.51076" lon="5.5363">
        <ele>497</ele>
        <time>2019-02-13T14:17:02Z</time>
      </trkpt>
      <trkpt lat="46.51044" lon="5.5362">
        <ele>496</ele>
        <time>2019-02-13T14:18:02Z</time>
      </trkpt>
      <trkpt lat="46.51016" lon="5.53611">
        <ele>495</ele>
        <time>2019-02-13T14:19:02Z</time>
      </trkpt>
      <trkpt lat="46.50982" lon="5.53596">
        <ele>492</ele>
        <time>2019-02-13T14:20:02Z</time>
      </trkpt>
      <trkpt lat="46.50949" lon="5.53579">
        <ele>487</ele>
        <time>2019-02-13T14:21:02Z</time>
      </trkpt>
      <trkpt lat="46.50923" lon="5.53564">
        <ele>484</ele>
        <time>2019-02-13T14:22:02Z</time>
      </trkpt>
      <trkpt lat="46.50919" lon="5.5356">
        <ele>483</ele>
        <time>2019-02-13T14:23:02Z</time>
      </trkpt>
      <trkpt lat="46.50906" lon="5.53552">
        <ele>481</ele>
        <time>2019-02-13T14:24:02Z</time>
      </trkpt>
      <trkpt lat="46.509" lon="5.53547">
        <ele>480</ele>
        <time>2019-02-13T14:25:02Z</time>
      </trkpt>
      <trkpt lat="46.50893" lon="5.53542">
        <ele>479</ele>
        <time>2019-02-13T14:26:02Z</time>
      </trkpt>
      <trkpt lat="46.50883" lon="5.53531">
        <ele>477</ele>
        <time>2019-02-13T14:27:02Z</time>
      </trkpt>
      <trkpt lat="46.50877" lon="5.53521">
        <ele>475</ele>
        <time>2019-02-13T14:28:02Z</time>
      </trkpt>
      <trkpt lat="46.50873" lon="5.53512">
        <ele>473</ele>
        <time>2019-02-13T14:29:02Z</time>
      </trkpt>
      <trkpt lat="46.5087" lon="5.535">
        <ele>470</ele>
        <time>2019-02-13T14:30:02Z</time>
      </trkpt>
      <trkpt lat="46.5087" lon="5.5349">
        <ele>470</ele>
        <time>2019-02-13T14:31:02Z</time>
      </trkpt>
      <trkpt lat="46.50869" lon="5.53481">
        <ele>470</ele>
        <time>2019-02-13T14:32:02Z</time>
      </trkpt>
      <trkpt lat="46.5087" lon="5.53476">
        <ele>469</ele>
        <time>2019-02-13T14:33:02Z</time>
      </trkpt>
      <trkpt lat="46.50872" lon="5.53462">
        <ele>469</ele>
        <time>2019-02-13T14:34:02Z</time>
      </trkpt>
      <trkpt lat="46.50876" lon="5.53441">
        <ele>468</ele>
        <time>2019-02-13T14:35:02Z</time>
      </trkpt>
      <trkpt lat="46.50881" lon="5.53418">
        <ele>467</ele>
        <time>2019-02-13T14:36:02Z</time>
      </trkpt>
      <trkpt lat="46.50887" lon="5.53388">
        <ele>467</ele>
        <time>2019-02-13T14:37:02Z</time>
      </trkpt>
      <trkpt lat="46.50896" lon="5.53349">
        <ele>466</ele>
        <time>2019-02-13T14:38:02Z</time>
      </trkpt>
      <trkpt lat="46.50915" lon="5.53265">
        <ele>465</ele>
        <time>2019-02-13T14:39:02Z</time>
      </trkpt>
      <trkpt lat="46.50945" lon="5.53145">
        <ele>464</ele>
        <time>2019-02-13T14:40:02Z</time>
      </trkpt>
      <trkpt lat="46.50957" lon="5.53098">
        <ele>466</ele>
        <time>2019-02-13T14:41:02Z</time>
      </trkpt>
      <trkpt lat="46.50958" lon="5.53087">
        <ele>466</ele>
        <time>2019-02-13T14:42:02Z</time>
      </trkpt>
      <trkpt lat="46.50959" lon="5.53081">
        <ele>467</ele>
        <time>2019-02-13T14:43:02Z</time>
      </trkpt>
      <trkpt lat="46.50959" lon="5.53072">
        <ele>468</ele>
        <time>2019-02-13T14:44:02Z</time>
      </trkpt>
      <trkpt lat="46.50956" lon="5.5306">
        <ele>470</ele>
        <time>2019-02-13T14:45:02Z</time>
      </trkpt>
      <trkpt lat="46.50953" lon="5.53051">
        <ele>471</ele>
        <time>2019-02-13T14:46:02Z</time>
      </trkpt>
      <trkpt lat="46.50949" lon="5.53044">
        <ele>472</ele>
        <time>2019-02-13T14:47:02Z</time>
      </trkpt>
      <trkpt lat="46.5094" lon="5.53036">
        <ele>472</ele>
        <time>2019-02-13T14:48:02Z</time>
      </trkpt>
      <trkpt lat="46.50935" lon="5.53032">
        <ele>473</ele>
        <time>2019-02-13T14:49:02Z</time>
      </trkpt>
      <trkpt lat="46.50923" lon="5.53024">
        <ele>474</ele>
        <time>2019-02-13T14:50:02Z</time>
      </trkpt>
      <trkpt lat="46.5091" lon="5.53017">
        <ele>474</ele>
        <time>2019-02-13T14:51:02Z</time>
      </trkpt>
      <trkpt lat="46.50891" lon="5.53008">
        <ele>475</ele>
        <time>2019-02-13T14:52:02Z</time>
      </trkpt>
      <trkpt lat="46.50878" lon="5.53002">
        <ele>476</ele>
        <time>2019-02-13T14:53:02Z</time>
      </trkpt>
      <trkpt lat="46.50857" lon="5.52993">
        <ele>477</ele>
        <time>2019-02-13T14:54:02Z</time>
      </trkpt>
      <trkpt lat="46.50829" lon="5.52982">
        <ele>479</ele>
        <time>2019-02-13T14:55:02Z</time>
      </trkpt>
      <trkpt lat="46.50815" lon="5.52975">
        <ele>480</ele>
        <time>2019-02-13T14:56:02Z</time>
      </trkpt>
      <trkpt lat="46.50807" lon="5.5297">
        <ele>481</ele>
        <time>2019-02-13T14:57:02Z</time>
      </trkpt>
      <trkpt lat="46.50794" lon="5.52959">
        <ele>483</ele>
        <time>2019-02-13T14:58:02Z</time>
      </trkpt>
      <trkpt lat="46.50776" lon="5.52942">
        <ele>487</ele>
        <time>2019-02-13T14:59:02Z</time>
      </trkpt>
      <trkpt lat="46.50764" lon="5.52933">
        <ele>489</ele>
        <time>2019-02-13T15:00:02Z</time>
      </trkpt>
      <trkpt lat="46.50757" lon="5.5293">
        <ele>489</ele>
        <time>2019-02-13T15:01:02Z</time>
      </trkpt>
      <trkpt lat="46.50751" lon="5.52928">
        <ele>489</ele>
        <time>2019-02-13T15:02:02Z</time>
      </trkpt>
      <trkpt lat="46.50745" lon="5.52926">
        <ele>490</ele>
        <time>2019-02-13T15:03:02Z</time>
      </trkpt>
      <trkpt lat="46.50737" lon="5.52925">
        <ele>490</ele>
        <time>2019-02-13T15:04:02Z</time>
      </trkpt>
      <trkpt lat="46.50716" lon="5.52924">
        <ele>490</ele>
        <time>2019-02-13T15:05:02Z</time>
      </trkpt>
      <trkpt lat="46.50703" lon="5.52923">
        <ele>489</ele>
        <time>2019-02-13T15:06:02Z</time>
      </trkpt>
      <trkpt lat="46.50689" lon="5.52922">
        <ele>489</ele>
        <time>2019-02-13T15:07:02Z</time>
      </trkpt>
      <trkpt lat="46.50674" lon="5.52918">
        <ele>490</ele>
        <time>2019-02-13T15:08:02Z</time>
      </trkpt>
      <trkpt lat="46.50661" lon="5.52913">
        <ele>490</ele>
        <time>2019-02-13T15:09:02Z</time>
      </trkpt>
      <trkpt lat="46.50635" lon="5.52899">
        <ele>492</ele>
        <time>2019-02-13T15:10:02Z</time>
      </trkpt>
      <trkpt lat="46.50601" lon="5.52879">
        <ele>494</ele>
        <time>2019-02-13T15:11:02Z</time>
      </trkpt>
      <trkpt lat="46.50567" lon="5.5286">
        <ele>497</ele>
        <time>2019-02-13T15:12:02Z</time>
      </trkpt>
      <trkpt lat="46.50508" lon="5.52827">
        <ele>501</ele>
        <time>2019-02-13T15:13:02Z</time>
      </trkpt>
      <trkpt lat="46.50493" lon="5.52817">
        <ele>502</ele>
        <time>2019-02-13T15:14:02Z</time>
      </trkpt>
      <trkpt lat="46.50477" lon="5.52803">
        <ele>503</ele>
        <time>2019-02-13T15:15:02Z</time>
      </trkpt>
      <trkpt lat="46.50467" lon="5.52793">
        <ele>503</ele>
        <time>2019-02-13T15:16:02Z</time>
      </trkpt>
      <trkpt lat="46.50463" lon="5.52788">
        <ele>504</ele>
        <time>2019-02-13T15:17:02Z</time>
      </trkpt>
      <trkpt lat="46.50457" lon="5.52779">
        <ele>505</ele>
        <time>2019-02-13T15:18:02Z</time>
      </trkpt>
      <trkpt lat="46.50455" lon="5.52775">
        <ele>505</ele>
        <time>2019-02-13T15:19:02Z</time>
      </trkpt>
      <trkpt lat="46.50453" lon="5.52769">
        <ele>506</ele>
        <time>2019-02-13T15:20:02Z</time>
      </trkpt>
      <trkpt lat="46.50452" lon="5.52761">
        <ele>507</ele>
        <time>2019-02-13T15:21:02Z</time>
      </trkpt>
      <trkpt lat="46.50453" lon="5.52752">
        <ele>509</ele>
        <time>2019-02-13T15:22:02Z</time>
      </trkpt>
      <trkpt lat="46.50456" lon="5.52747">
        <ele>509</ele>
        <time>2019-02-13T15:23:02Z</time>
      </trkpt>
      <trkpt lat="46.5046" lon="5.52741">
        <ele>510</ele>
        <time>2019-02-13T15:24:02Z</time>
      </trkpt>
      <trkpt lat="46.50466" lon="5.52738">
        <ele>510</ele>
        <time>2019-02-13T15:25:02Z</time>
      </trkpt>
      <trkpt lat="46.50479" lon="5.52733">
        <ele>511</ele>
        <time>2019-02-13T15:26:02Z</time>
      </trkpt>
      <trkpt lat="46.50494" lon="5.52728">
        <ele>511</ele>
        <time>2019-02-13T15:27:02Z</time>
      </trkpt>
      <trkpt lat="46.50511" lon="5.52721">
        <ele>512</ele>
        <time>2019-02-13T15:28:02Z</time>
      </trkpt>
      <trkpt lat="46.50517" lon="5.52715">
        <ele>512</ele>
        <time>2019-02-13T15:29:02Z</time>
      </trkpt>
      <trkpt lat="46.50525" lon="5.52708">
        <ele>512</ele>
        <time>2019-02-13T15:30:02Z</time>
      </trkpt>
      <trkpt lat="46.50534" lon="5.52695">
        <ele>513</ele>
        <time>2019-02-13T15:31:02Z</time>
      </trkpt>
      <trkpt lat="46.50541" lon="5.52684">
        <ele>514</ele>
        <time>2019-02-13T15:32:02Z</time>
      </trkpt>
      <trkpt lat="46.50549" lon="5.5267">
        <ele>514</ele>
        <time>2019-02-13T15:33:02Z</time>
      </trkpt>
      <trkpt lat="46.50557" lon="5.52652">
        <ele>515</ele>
        <time>2019-02-13T15:34:02Z</time>
      </trkpt>
      <trkpt lat="46.50567" lon="5.52627">
        <ele>516</ele>
        <time>2019-02-13T15:35:02Z</time>
      </trkpt>
      <trkpt lat="46.50579" lon="5.5259">
        <ele>518</ele>
        <time>2019-02-13T15:36:02Z</time>
      </trkpt>
      <trkpt lat="46.50588" lon="5.52556">
        <ele>518</ele>
        <time>2019-02-13T15:37:02Z</time>
      </trkpt>
      <trkpt lat="46.50596" lon="5.52531">
        <ele>517</ele>
        <time>2019-02-13T15:38:02Z</time>
      </trkpt>
      <trkpt lat="46.50608" lon="5.52489">
        <ele>517</ele>
        <time>2019-02-13T15:39:02Z</time>
      </trkpt>
      <trkpt lat="46.50619" lon="5.52449">
        <ele>518</ele>
        <time>2019-02-13T15:40:02Z</time>
      </trkpt>
      <trkpt lat="46.50631" lon="5.5241">
        <ele>519</ele>
        <time>2019-02-13T15:41:02Z</time>
      </trkpt>
      <trkpt lat="46.50644" lon="5.52364">
        <ele>520</ele>
        <time>2019-02-13T15:42:02Z</time>
      </trkpt>
      <trkpt lat="46.50654" lon="5.52324">
        <ele>520</ele>
        <time>2019-02-13T15:43:02Z</time>
      </trkpt>
      <trkpt lat="46.50657" lon="5.52311">
        <ele>519</ele>
        <time>2019-02-13T15:44:02Z</time>
      </trkpt>
      <trkpt lat="46.50658" lon="5.52303">
        <ele>519</ele>
        <time>2019-02-13T15:45:02Z</time>
      </trkpt>
      <trkpt lat="46.50657" lon="5.52298">
        <ele>519</ele>
        <time>2019-02-13T15:46:02Z</time>
      </trkpt>
      <trkpt lat="46.50656" lon="5.52291">
        <ele>518</ele>
        <time>2019-02-13T15:47:02Z</time>
      </trkpt>
      <trkpt lat="46.50654" lon="5.52283">
        <ele>518</ele>
        <time>2019-02-13T15:48:02Z</time>
      </trkpt>
      <trkpt lat="46.50647" lon="5.52264">
        <ele>518</ele>
        <time>2019-02-13T15:49:02Z</time>
      </trkpt>
      <trkpt lat="46.50634" lon="5.52232">
        <ele>517</ele>
        <time>2019-02-13T15:50:02Z</time>
      </trkpt>
      <trkpt lat="46.50624" lon="5.52207">
        <ele>516</ele>
        <time>2019-02-13T15:51:02Z</time>
      </trkpt>
      <trkpt lat="46.50588" lon="5.52109">
        <ele>510</ele>
        <time>2019-02-13T15:52:02Z</time>
      </trkpt>
      <trkpt lat="46.50569" lon="5.52051">
        <ele>510</ele>
        <time>2019-02-13T15:53:02Z</time>
      </trkpt>
      <trkpt lat="46.5055" lon="5.51997">
        <ele>512</ele>
        <time>2019-02-13T15:54:02Z</time>
      </trkpt>
      <trkpt lat="46.50546" lon="5.51986">
        <ele>514</ele>
        <time>2019-02-13T15:55:02Z</time>
      </trkpt>
      <trkpt lat="46.50538" lon="5.51968">
        <ele>516</ele>
        <time>2019-02-13T15:56:02Z</time>
      </trkpt>
      <trkpt lat="46.50528" lon="5.51952">
        <ele>518</ele>
        <time>2019-02-13T15:57:02Z</time>
      </trkpt>
      <trkpt lat="46.50517" lon="5.5194">
        <ele>518</ele>
        <time>2019-02-13T15:58:02Z</time>
      </trkpt>
      <trkpt lat="46.50505" lon="5.5193">
        <ele>519</ele>
        <time>2019-02-13T15:59:02Z</time>
      </trkpt>
      <trkpt lat="46.50498" lon="5.51924">
        <ele>519</ele>
        <time>2019-02-13T16:00:02Z</time>
      </trkpt>
      <trkpt lat="46.50486" lon="5.51916">
        <ele>519</ele>
        <time>2019-02-13T16:01:02Z</time>
      </trkpt>
      <trkpt lat="46.50443" lon="5.51889">
        <ele>522</ele>
        <time>2019-02-13T16:02:02Z</time>
      </trkpt>
      <trkpt lat="46.50404" lon="5.51862">
        <ele>524</ele>
        <time>2019-02-13T16:03:02Z</time>
      </trkpt>
      <trkpt lat="46.50365" lon="5.51831">
        <ele>527</ele>
        <time>2019-02-13T16:04:02Z</time>
      </trkpt>
      <trkpt lat="46.50325" lon="5.51796">
        <ele>530</ele>
        <time>2019-02-13T16:05:02Z</time>
      </trkpt>
      <trkpt lat="46.50288" lon="5.51764">
        <ele>532</ele>
        <time>2019-02-13T16:06:02Z</time>
      </trkpt>
      <trkpt lat="46.50217" lon="5.51706">
        <ele>534</ele>
        <time>2019-02-13T16:07:02Z</time>
      </trkpt>
      <trkpt lat="46.50176" lon="5.51671">
        <ele>537</ele>
        <time>2019-02-13T16:08:02Z</time>
      </trkpt>
      <trkpt lat="46.50158" lon="5.51655">
        <ele>538</ele>
        <time>2019-02-13T16:09:02Z</time>
      </trkpt>
      <trkpt lat="46.50145" lon="5.5164">
        <ele>539</ele>
        <time>2019-02-13T16:10:02Z</time>
      </trkpt>
      <trkpt lat="46.50134" lon="5.51626">
        <ele>541</ele>
        <time>2019-02-13T16:11:02Z</time>
      </trkpt>
      <trkpt lat="46.50111" lon="5.51592">
        <ele>544</ele>
        <time>2019-02-13T16:12:02Z</time>
      </trkpt>
      <trkpt lat="46.50096" lon="5.51569">
        <ele>545</ele>
        <time>2019-02-13T16:13:02Z</time>
      </trkpt>
      <trkpt lat="46.50076" lon="5.51536">
        <ele>547</ele>
        <time>2019-02-13T16:14:02Z</time>
      </trkpt>
      <trkpt lat="46.50005" lon="5.51423">
        <ele>552</ele>
        <time>2019-02-13T16:15:02Z</time>
      </trkpt>
      <trkpt lat="46.49926" lon="5.51295">
        <ele>553</ele>
        <time>2019-02-13T16:16:02Z</time>
      </trkpt>
      <trkpt lat="46.49918" lon="5.51283">
        <ele>553</ele>
        <time>2019-02-13T16:17:02Z</time>
      </trkpt>
      <trkpt lat="46.49911" lon="5.51271">
        <ele>554</ele>
        <time>2019-02-13T16:18:02Z</time>
      </trkpt>
      <trkpt lat="46.49904" lon="5.51259">
        <ele>555</ele>
        <time>2019-02-13T16:19:02Z</time>
      </trkpt>
      <trkpt lat="46.49898" lon="5.51249">
        <ele>555</ele>
        <time>2019-02-13T16:20:02Z</time>
      </trkpt>
      <trkpt lat="46.49895" lon="5.51239">
        <ele>555</ele>
        <time>2019-02-13T16:21:02Z</time>
      </trkpt>
      <trkpt lat="46.49891" lon="5.51225">
        <ele>556</ele>
        <time>2019-02-13T16:22:02Z</time>
      </trkpt>
      <trkpt lat="46.49888" lon="5.51211">
        <ele>557</ele>
        <time>2019-02-13T16:23:02Z</time>
      </trkpt>
      <trkpt lat="46.49886" lon="5.51193">
        <ele>558</ele>
        <time>2019-02-13T16:24:02Z</time>
      </trkpt>
      <trkpt lat="46.49884" lon="5.51169">
        <ele>559</ele>
        <time>2019-02-13T16:25:02Z</time>
      </trkpt>
      <trkpt lat="46.49882" lon="5.51145">
        <ele>560</ele>
        <time>2019-02-13T16:26:02Z</time>
      </trkpt>
      <trkpt lat="46.4988" lon="5.51127">
        <ele>561</ele>
        <time>2019-02-13T16:27:02Z</time>
      </trkpt>
      <trkpt lat="46.49877" lon="5.51101">
        <ele>562</ele>
        <time>2019-02-13T16:28:02Z</time>
      </trkpt>
      <trkpt lat="46.49874" lon="5.51082">
        <ele>563</ele>
        <time>2019-02-13T16:29:02Z</time>
      </trkpt>
      <trkpt lat="46.49871" lon="5.51067">
        <ele>562</ele>
        <time>2019-02-13T16:30:02Z</time>
      </trkpt>
      <trkpt lat="46.49868" lon="5.5106">
        <ele>563</ele>
        <time>2019-02-13T16:31:02Z</time>
      </trkpt>
      <trkpt lat="46.49865" lon="5.51051">
        <ele>562</ele>
        <time>2019-02-13T16:32:02Z</time>
      </trkpt>
      <trkpt lat="46.49859" lon="5.51041">
        <ele>562</ele>
        <time>2019-02-13T16:33:02Z</time>
      </trkpt>
      <trkpt lat="46.49852" lon="5.51033">
        <ele>562</ele>
        <time>2019-02-13T16:34:02Z</time>
      </trkpt>
      <trkpt lat="46.49843" lon="5.51024">
        <ele>562</ele>
        <time>2019-02-13T16:35:02Z</time>
      </trkpt>
      <trkpt lat="46.49837" lon="5.51019">
        <ele>562</ele>
        <time>2019-02-13T16:36:02Z</time>
      </trkpt>
      <trkpt lat="46.49836" lon="5.51019">
        <ele>562</ele>
        <time>2019-02-13T16:37:02Z</time>
      </trkpt>
      <trkpt lat="46.49829" lon="5.51013">
        <ele>562</ele>
        <time>2019-02-13T16:38:02Z</time>
      </trkpt>
      <trkpt lat="46.49824" lon="5.51009">
        <ele>562</ele>
        <time>2019-02-13T16:39:02Z</time>
      </trkpt>
      <trkpt lat="46.4982" lon="5.51005">
        <ele>562</ele>
        <time>2019-02-13T16:40:02Z</time>
      </trkpt>
      <trkpt lat="46.49817" lon="5.50999">
        <ele>561</ele>
        <time>2019-02-13T16:41:02Z</time>
      </trkpt>
      <trkpt lat="46.49816" lon="5.50992">
        <ele>560</ele>
        <time>2019-02-13T16:42:02Z</time>
      </trkpt>
      <trkpt lat="46.49816" lon="5.50986">
        <ele>560</ele>
        <time>2019-02-13T16:43:02Z</time>
      </trkpt>
      <trkpt lat="46.49817" lon="5.50983">
        <ele>559</ele>
        <time>2019-02-13T16:44:02Z</time>
      </trkpt>
      <trkpt lat="46.4982" lon="5.50976">
        <ele>558</ele>
        <time>2019-02-13T16:45:02Z</time>
      </trkpt>
      <trkpt lat="46.49823" lon="5.50972">
        <ele>558</ele>
        <time>2019-02-13T16:46:02Z</time>
      </trkpt>
      <trkpt lat="46.49829" lon="5.50966">
        <ele>557</ele>
        <time>2019-02-13T16:47:02Z</time>
      </trkpt>
      <trkpt lat="46.49843" lon="5.50958">
        <ele>556</ele>
        <time>2019-02-13T16:48:02Z</time>
      </trkpt>
      <trkpt lat="46.49862" lon="5.50949">
        <ele>556</ele>
        <time>2019-02-13T16:49:02Z</time>
      </trkpt>
      <trkpt lat="46.49876" lon="5.50942">
        <ele>557</ele>
        <time>2019-02-13T16:50:02Z</time>
      </trkpt>
      <trkpt lat="46.49883" lon="5.50938">
        <ele>557</ele>
        <time>2019-02-13T16:51:02Z</time>
      </trkpt>
      <trkpt lat="46.49895" lon="5.50929">
        <ele>557</ele>
        <time>2019-02-13T16:52:02Z</time>
      </trkpt>
      <trkpt lat="46.49903" lon="5.50922">
        <ele>558</ele>
        <time>2019-02-13T16:53:02Z</time>
      </trkpt>
      <trkpt lat="46.49909" lon="5.50915">
        <ele>558</ele>
        <time>2019-02-13T16:54:02Z</time>
      </trkpt>
      <trkpt lat="46.49914" lon="5.50904">
        <ele>556</ele>
        <time>2019-02-13T16:55:02Z</time>
      </trkpt>
      <trkpt lat="46.49918" lon="5.50895">
        <ele>555</ele>
        <time>2019-02-13T16:56:02Z</time>
      </trkpt>
      <trkpt lat="46.49922" lon="5.50884">
        <ele>553</ele>
        <time>2019-02-13T16:57:02Z</time>
      </trkpt>
      <trkpt lat="46.49926" lon="5.50871">
        <ele>551</ele>
        <time>2019-02-13T16:58:02Z</time>
      </trkpt>
      <trkpt lat="46.49928" lon="5.50856">
        <ele>548</ele>
        <time>2019-02-13T16:59:02Z</time>
      </trkpt>
      <trkpt lat="46.4993" lon="5.50838">
        <ele>545</ele>
        <time>2019-02-13T17:00:02Z</time>
      </trkpt>
      <trkpt lat="46.49931" lon="5.50824">
        <ele>544</ele>
        <time>2019-02-13T17:01:02Z</time>
      </trkpt>
      <trkpt lat="46.49932" lon="5.50808">
        <ele>542</ele>
        <time>2019-02-13T17:02:02Z</time>
      </trkpt>
      <trkpt lat="46.49932" lon="5.50793">
        <ele>540</ele>
        <time>2019-02-13T17:03:02Z</time>
      </trkpt>
      <trkpt lat="46.49935" lon="5.50782">
        <ele>539</ele>
        <time>2019-02-13T17:04:02Z</time>
      </trkpt>
      <trkpt lat="46.49938" lon="5.50774">
        <ele>538</ele>
        <time>2019-02-13T17:05:02Z</time>
      </trkpt>
      <trkpt lat="46.49942" lon="5.50768">
        <ele>538</ele>
        <time>2019-02-13T17:06:02Z</time>
      </trkpt>
      <trkpt lat="46.49946" lon="5.50764">
        <ele>538</ele>
        <time>2019-02-13T17:07:02Z</time>
      </trkpt>
      <trkpt lat="46.4996" lon="5.50755">
        <ele>539</ele>
        <time>2019-02-13T17:08:02Z</time>
      </trkpt>
      <trkpt lat="46.49966" lon="5.50752">
        <ele>540</ele>
        <time>2019-02-13T17:09:02Z</time>
      </trkpt>
      <trkpt lat="46.49985" lon="5.50744">
        <ele>541</ele>
        <time>2019-02-13T17:10:02Z</time>
      </trkpt>
      <trkpt lat="46.50011" lon="5.50737">
        <ele>541</ele>
        <time>2019-02-13T17:11:02Z</time>
      </trkpt>
      <trkpt lat="46.50033" lon="5.50731">
        <ele>540</ele>
        <time>2019-02-13T17:12:02Z</time>
      </trkpt>
      <trkpt lat="46.50055" lon="5.50726">
        <ele>539</ele>
        <time>2019-02-13T17:13:02Z</time>
      </trkpt>
      <trkpt lat="46.50067" lon="5.50724">
        <ele>538</ele>
        <time>2019-02-13T17:14:02Z</time>
      </trkpt>
      <trkpt lat="46.50076" lon="5.50723">
        <ele>538</ele>
        <time>2019-02-13T17:15:02Z</time>
      </trkpt>
      <trkpt lat="46.50083" lon="5.50723">
        <ele>538</ele>
        <time>2019-02-13T17:16:02Z</time>
      </trkpt>
      <trkpt lat="46.5009" lon="5.50724">
        <ele>538</ele>
        <time>2019-02-13T17:17:02Z</time>
      </trkpt>
      <trkpt lat="46.50103" lon="5.50726">
        <ele>537</ele>
        <time>2019-02-13T17:18:02Z</time>
      </trkpt>
      <trkpt lat="46.50109" lon="5.50729">
        <ele>538</ele>
        <time>2019-02-13T17:19:02Z</time>
      </trkpt>
      <trkpt lat="46.50121" lon="5.50734">
        <ele>538</ele>
        <time>2019-02-13T17:20:02Z</time>
      </trkpt>
      <trkpt lat="46.50133" lon="5.50738">
        <ele>538</ele>
        <time>2019-02-13T17:21:02Z</time>
      </trkpt>
      <trkpt lat="46.50145" lon="5.50739">
        <ele>538</ele>
        <time>2019-02-13T17:22:02Z</time>
      </trkpt>
      <trkpt lat="46.50157" lon="5.50737">
        <ele>536</ele>
        <time>2019-02-13T17:23:02Z</time>
      </trkpt>
      <trkpt lat="46.5017" lon="5.50731">
        <ele>534</ele>
        <time>2019-02-13T17:24:02Z</time>
      </trkpt>
      <trkpt lat="46.50198" lon="5.50722">
        <ele>532</ele>
        <time>2019-02-13T17:25:02Z</time>
      </trkpt>
      <trkpt lat="46.50212" lon="5.50718">
        <ele>530</ele>
        <time>2019-02-13T17:26:02Z</time>
      </trkpt>
      <trkpt lat="46.50219" lon="5.50717">
        <ele>530</ele>
        <time>2019-02-13T17:27:02Z</time>
      </trkpt>
      <trkpt lat="46.50245" lon="5.50716">
        <ele>529</ele>
        <time>2019-02-13T17:28:02Z</time>
      </trkpt>
      <trkpt lat="46.50258" lon="5.50717">
        <ele>529</ele>
        <time>2019-02-13T17:29:02Z</time>
      </trkpt>
      <trkpt lat="46.50272" lon="5.50719">
        <ele>529</ele>
        <time>2019-02-13T17:30:02Z</time>
      </trkpt>
      <trkpt lat="46.50286" lon="5.50722">
        <ele>529</ele>
        <time>2019-02-13T17:31:02Z</time>
      </trkpt>
      <trkpt lat="46.503" lon="5.50724">
        <ele>529</ele>
        <time>2019-02-13T17:32:02Z</time>
      </trkpt>
      <trkpt lat="46.50314" lon="5.50724">
        <ele>528</ele>
        <time>2019-02-13T17:33:02Z</time>
      </trkpt>
      <trkpt lat="46.50328" lon="5.50722">
        <ele>527</ele>
        <time>2019-02-13T17:34:02Z</time>
      </trkpt>
      <trkpt lat="46.50349" lon="5.50717">
        <ele>524</ele>
        <time>2019-02-13T17:35:02Z</time>
      </trkpt>
      <trkpt lat="46.5037" lon="5.50711">
        <ele>522</ele>
        <time>2019-02-13T17:36:02Z</time>
      </trkpt>
      <trkpt lat="46.50395" lon="5.50703">
        <ele>519</ele>
        <time>2019-02-13T17:37:02Z</time>
      </trkpt>
      <trkpt lat="46.50413" lon="5.50699">
        <ele>517</ele>
        <time>2019-02-13T17:38:02Z</time>
      </trkpt>
      <trkpt lat="46.50432" lon="5.50694">
        <ele>515</ele>
        <time>2019-02-13T17:42:02Z</time>
      </trkpt>
      <trkpt lat="46.50457" lon="5.50691">
        <ele>514</ele>
        <time>2019-02-13T17:43:02Z</time>
      </trkpt>
      <trkpt lat="46.50477" lon="5.5069">
        <ele>514</ele>
        <time>2019-02-13T17:44:02Z</time>
      </trkpt>
      <trkpt lat="46.50485" lon="5.50689">
        <ele>514</ele>
        <time>2019-02-13T17:45:02Z</time>
      </trkpt>
      <trkpt lat="46.50488" lon="5.50688">
        <ele>514</ele>
        <time>2019-02-13T17:46:02Z</time>
      </trkpt>
      <trkpt lat="46.50493" lon="5.50686">
        <ele>513</ele>
        <time>2019-02-13T17:47:02Z</time>
      </trkpt>
      <trkpt lat="46.50497" lon="5.50683">
        <ele>513</ele>
        <time>2019-02-13T17:48:02Z</time>
      </trkpt>
      <trkpt lat="46.50499" lon="5.50681">
        <ele>512</ele>
        <time>2019-02-13T17:49:02Z</time>
      </trkpt>
      <trkpt lat="46.50507" lon="5.50668">
        <ele>510</ele>
        <time>2019-02-13T17:50:02Z</time>
      </trkpt>
      <trkpt lat="46.50508" lon="5.50665">
        <ele>510</ele>
        <time>2019-02-13T17:51:02Z</time>
      </trkpt>
      <trkpt lat="46.50509" lon="5.50659">
        <ele>510</ele>
        <time>2019-02-13T17:52:02Z</time>
      </trkpt>
      <trkpt lat="46.50509" lon="5.50648">
        <ele>510</ele>
        <time>2019-02-13T17:53:02Z</time>
      </trkpt>
      <trkpt lat="46.50508" lon="5.50637">
        <ele>511</ele>
        <time>2019-02-13T17:54:02Z</time>
      </trkpt>
      <trkpt lat="46.50505" lon="5.5062">
        <ele>511</ele>
        <time>2019-02-13T17:55:02Z</time>
      </trkpt>
      <trkpt lat="46.50499" lon="5.50598">
        <ele>511</ele>
        <time>2019-02-13T17:56:02Z</time>
      </trkpt>
      <trkpt lat="46.50495" lon="5.50577">
        <ele>511</ele>
        <time>2019-02-13T17:57:02Z</time>
      </trkpt>
      <trkpt lat="46.50491" lon="5.50558">
        <ele>511</ele>
        <time>2019-02-13T17:58:02Z</time>
      </trkpt>
      <trkpt lat="46.50487" lon="5.50544">
        <ele>511</ele>
        <time>2019-02-13T17:59:02Z</time>
      </trkpt>
      <trkpt lat="46.50481" lon="5.50527">
        <ele>511</ele>
        <time>2019-02-13T18:00:02Z</time>
      </trkpt>
      <trkpt lat="46.50472" lon="5.50503">
        <ele>511</ele>
        <time>2019-02-13T18:01:02Z</time>
      </trkpt>
      <trkpt lat="46.50467" lon="5.50486">
        <ele>511</ele>
        <time>2019-02-13T18:02:02Z</time>
      </trkpt>
      <trkpt lat="46.50467" lon="5.50486">
        <ele>511</ele>
        <time>2019-02-13T18:03:02Z</time>
      </trkpt>
      <trkpt lat="46.50464" lon="5.5048">
        <ele>511</ele>
        <time>2019-02-13T18:04:02Z</time>
      </trkpt>
      <trkpt lat="46.50445" lon="5.50455">
        <ele>510</ele>
        <time>2019-02-13T18:05:02Z</time>
      </trkpt>
      <trkpt lat="46.50417" lon="5.50441">
        <ele>509</ele>
        <time>2019-02-13T18:06:02Z</time>
      </trkpt>
      <trkpt lat="46.50407" lon="5.50438">
        <ele>508</ele>
        <time>2019-02-13T18:07:02Z</time>
      </trkpt>
      <trkpt lat="46.50401" lon="5.50436">
        <ele>508</ele>
        <time>2019-02-13T18:08:02Z</time>
      </trkpt>
      <trkpt lat="46.50383" lon="5.50431">
        <ele>507</ele>
        <time>2019-02-13T18:09:02Z</time>
      </trkpt>
      <trkpt lat="46.50365" lon="5.50427">
        <ele>506</ele>
        <time>2019-02-13T18:10:02Z</time>
      </trkpt>
      <trkpt lat="46.5035" lon="5.50423">
        <ele>506</ele>
        <time>2019-02-13T18:11:02Z</time>
      </trkpt>
      <trkpt lat="46.50337" lon="5.50422">
        <ele>505</ele>
        <time>2019-02-13T18:12:02Z</time>
      </trkpt>
      <trkpt lat="46.50326" lon="5.50424">
        <ele>505</ele>
        <time>2019-02-13T18:13:02Z</time>
      </trkpt>
      <trkpt lat="46.50316" lon="5.50427">
        <ele>504</ele>
        <time>2019-02-13T18:14:02Z</time>
      </trkpt>
      <trkpt lat="46.50307" lon="5.50432">
        <ele>504</ele>
        <time>2019-02-13T18:15:02Z</time>
      </trkpt>
      <trkpt lat="46.50297" lon="5.5044">
        <ele>503</ele>
        <time>2019-02-13T18:16:02Z</time>
      </trkpt>
      <trkpt lat="46.50282" lon="5.50453">
        <ele>502</ele>
        <time>2019-02-13T18:17:02Z</time>
      </trkpt>
      <trkpt lat="46.50263" lon="5.50468">
        <ele>501</ele>
        <time>2019-02-13T18:18:02Z</time>
      </trkpt>
      <trkpt lat="46.50259" lon="5.50471">
        <ele>501</ele>
        <time>2019-02-13T18:19:02Z</time>
      </trkpt>
      <trkpt lat="46.50254" lon="5.50473">
        <ele>501</ele>
        <time>2019-02-13T18:20:02Z</time>
      </trkpt>
      <trkpt lat="46.50249" lon="5.50473">
        <ele>501</ele>
        <time>2019-02-13T18:21:02Z</time>
      </trkpt>
      <trkpt lat="46.50241" lon="5.50471">
        <ele>501</ele>
        <time>2019-02-13T18:22:02Z</time>
      </trkpt>
      <trkpt lat="46.50236" lon="5.50469">
        <ele>501</ele>
        <time>2019-02-13T18:23:02Z</time>
      </trkpt>
      <trkpt lat="46.50229" lon="5.50464">
        <ele>501</ele>
        <time>2019-02-13T18:24:02Z</time>
      </trkpt>
      <trkpt lat="46.50214" lon="5.50451">
        <ele>501</ele>
        <time>2019-02-13T18:25:02Z</time>
      </trkpt>
      <trkpt lat="46.50204" lon="5.50443">
        <ele>501</ele>
        <time>2019-02-13T18:26:02Z</time>
      </trkpt>
      <trkpt lat="46.50193" lon="5.50436">
        <ele>501</ele>
        <time>2019-02-13T18:27:02Z</time>
      </trkpt>
      <trkpt lat="46.50172" lon="5.50425">
        <ele>500</ele>
        <time>2019-02-13T18:28:02Z</time>
      </trkpt>
      <trkpt lat="46.50151" lon="5.50415">
        <ele>500</ele>
        <time>2019-02-13T18:29:02Z</time>
      </trkpt>
      <trkpt lat="46.50142" lon="5.50411">
        <ele>500</ele>
        <time>2019-02-13T18:30:02Z</time>
      </trkpt>
      <trkpt lat="46.5013" lon="5.50408">
        <ele>500</ele>
        <time>2019-02-13T18:31:02Z</time>
      </trkpt>
      <trkpt lat="46.50119" lon="5.50406">
        <ele>499</ele>
        <time>2019-02-13T18:32:02Z</time>
      </trkpt>
      <trkpt lat="46.50114" lon="5.50407">
        <ele>499</ele>
        <time>2019-02-13T18:33:02Z</time>
      </trkpt>
      <trkpt lat="46.5011" lon="5.50409">
        <ele>499</ele>
        <time>2019-02-13T18:34:02Z</time>
      </trkpt>
      <trkpt lat="46.50107" lon="5.50409">
        <ele>499</ele>
        <time>2019-02-13T18:35:02Z</time>
      </trkpt>
      <trkpt lat="46.50103" lon="5.50412">
        <ele>499</ele>
        <time>2019-02-13T18:36:02Z</time>
      </trkpt>
      <trkpt lat="46.50096" lon="5.50416">
        <ele>499</ele>
        <time>2019-02-13T18:37:02Z</time>
      </trkpt>
      <trkpt lat="46.50081" lon="5.50426">
        <ele>499</ele>
        <time>2019-02-13T18:38:02Z</time>
      </trkpt>
      <trkpt lat="46.50072" lon="5.50439">
        <ele>499</ele>
        <time>2019-02-13T18:39:02Z</time>
      </trkpt>
      <trkpt lat="46.50051" lon="5.50473">
        <ele>500</ele>
        <time>2019-02-13T18:40:02Z</time>
      </trkpt>
      <trkpt lat="46.50043" lon="5.50482">
        <ele>500</ele>
        <time>2019-02-13T18:41:02Z</time>
      </trkpt>
      <trkpt lat="46.50034" lon="5.50491">
        <ele>500</ele>
        <time>2019-02-13T18:42:02Z</time>
      </trkpt>
      <trkpt lat="46.50006" lon="5.50512">
        <ele>502</ele>
        <time>2019-02-13T18:43:02Z</time>
      </trkpt>
      <trkpt lat="46.49991" lon="5.50523">
        <ele>503</ele>
        <time>2019-02-13T18:44:02Z</time>
      </trkpt>
      <trkpt lat="46.49981" lon="5.50528">
        <ele>503</ele>
        <time>2019-02-13T18:45:02Z</time>
      </trkpt>
      <trkpt lat="46.49971" lon="5.50533">
        <ele>503</ele>
        <time>2019-02-13T18:46:02Z</time>
      </trkpt>
      <trkpt lat="46.49965" lon="5.50534">
        <ele>504</ele>
        <time>2019-02-13T18:47:02Z</time>
      </trkpt>
      <trkpt lat="46.49955" lon="5.50535">
        <ele>503</ele>
        <time>2019-02-13T18:48:02Z</time>
      </trkpt>
      <trkpt lat="46.49946" lon="5.50535">
        <ele>503</ele>
        <time>2019-02-13T18:49:02Z</time>
      </trkpt>
      <trkpt lat="46.49934" lon="5.5053">
        <ele>503</ele>
        <time>2019-02-13T18:50:02Z</time>
      </trkpt>
      <trkpt lat="46.49921" lon="5.50524">
        <ele>502</ele>
        <time>2019-02-13T18:51:02Z</time>
      </trkpt>
      <trkpt lat="46.49907" lon="5.50515">
        <ele>502</ele>
        <time>2019-02-13T18:52:02Z</time>
      </trkpt>
      <trkpt lat="46.49895" lon="5.50507">
        <ele>501</ele>
        <time>2019-02-13T18:53:02Z</time>
      </trkpt>
      <trkpt lat="46.4988" lon="5.50495">
        <ele>501</ele>
        <time>2019-02-13T18:54:02Z</time>
      </trkpt>
      <trkpt lat="46.4987" lon="5.50486">
        <ele>501</ele>
        <time>2019-02-13T18:55:02Z</time>
      </trkpt>
      <trkpt lat="46.49861" lon="5.5048">
        <ele>501</ele>
        <time>2019-02-13T18:56:02Z</time>
      </trkpt>
      <trkpt lat="46.49854" lon="5.50476">
        <ele>501</ele>
        <time>2019-02-13T18:57:02Z</time>
      </trkpt>
      <trkpt lat="46.49841" lon="5.50472">
        <ele>501</ele>
        <time>2019-02-13T18:58:02Z</time>
      </trkpt>
      <trkpt lat="46.49822" lon="5.50467">
        <ele>501</ele>
        <time>2019-02-13T18:59:02Z</time>
      </trkpt>
      <trkpt lat="46.49809" lon="5.50464">
        <ele>501</ele>
        <time>2019-02-13T19:00:02Z</time>
      </trkpt>
      <trkpt lat="46.49789" lon="5.50458">
        <ele>501</ele>
        <time>2019-02-13T19:01:02Z</time>
      </trkpt>
      <trkpt lat="46.49776" lon="5.50454">
        <ele>501</ele>
        <time>2019-02-13T19:02:02Z</time>
      </trkpt>
      <trkpt lat="46.49766" lon="5.50451">
        <ele>501</ele>
        <time>2019-02-13T19:03:02Z</time>
      </trkpt>
      <trkpt lat="46.49757" lon="5.50445">
        <ele>501</ele>
        <time>2019-02-13T19:04:02Z</time>
      </trkpt>
      <trkpt lat="46.49752" lon="5.50442">
        <ele>501</ele>
        <time>2019-02-13T19:05:02Z</time>
      </trkpt>
      <trkpt lat="46.49741" lon="5.5043">
        <ele>502</ele>
        <time>2019-02-13T19:06:02Z</time>
      </trkpt>
      <trkpt lat="46.49731" lon="5.50416">
        <ele>504</ele>
        <time>2019-02-13T19:07:02Z</time>
      </trkpt>
      <trkpt lat="46.49722" lon="5.504">
        <ele>504</ele>
        <time>2019-02-13T19:08:02Z</time>
      </trkpt>
      <trkpt lat="46.49714" lon="5.50389">
        <ele>504</ele>
        <time>2019-02-13T19:09:02Z</time>
      </trkpt>
      <trkpt lat="46.49707" lon="5.5038">
        <ele>505</ele>
        <time>2019-02-13T19:10:02Z</time>
      </trkpt>
      <trkpt lat="46.497" lon="5.50372">
        <ele>505</ele>
        <time>2019-02-13T19:11:02Z</time>
      </trkpt>
      <trkpt lat="46.49693" lon="5.50364">
        <ele>506</ele>
        <time>2019-02-13T19:12:02Z</time>
      </trkpt>
      <trkpt lat="46.49681" lon="5.50351">
        <ele>507</ele>
        <time>2019-02-13T19:13:02Z</time>
      </trkpt>
      <trkpt lat="46.49673" lon="5.50341">
        <ele>507</ele>
        <time>2019-02-13T19:14:02Z</time>
      </trkpt>
      <trkpt lat="46.49666" lon="5.5033">
        <ele>508</ele>
        <time>2019-02-13T19:15:02Z</time>
      </trkpt>
      <trkpt lat="46.4966" lon="5.5032">
        <ele>507</ele>
        <time>2019-02-13T19:16:02Z</time>
      </trkpt>
      <trkpt lat="46.49652" lon="5.50307">
        <ele>506</ele>
        <time>2019-02-13T19:17:02Z</time>
      </trkpt>
      <trkpt lat="46.49646" lon="5.50296">
        <ele>506</ele>
        <time>2019-02-13T19:18:02Z</time>
      </trkpt>
      <trkpt lat="46.4964" lon="5.50286">
        <ele>505</ele>
        <time>2019-02-13T19:19:02Z</time>
      </trkpt>
      <trkpt lat="46.49631" lon="5.50268">
        <ele>504</ele>
        <time>2019-02-13T19:20:02Z</time>
      </trkpt>
      <trkpt lat="46.49618" lon="5.50246">
        <ele>503</ele>
        <time>2019-02-13T19:21:02Z</time>
      </trkpt>
      <trkpt lat="46.49608" lon="5.5023">
        <ele>502</ele>
        <time>2019-02-13T19:22:02Z</time>
      </trkpt>
      <trkpt lat="46.49602" lon="5.50221">
        <ele>501</ele>
        <time>2019-02-13T19:23:02Z</time>
      </trkpt>
      <trkpt lat="46.49597" lon="5.50212">
        <ele>501</ele>
        <time>2019-02-13T19:24:02Z</time>
      </trkpt>
      <trkpt lat="46.49587" lon="5.50196">
        <ele>500</ele>
        <time>2019-02-13T19:25:02Z</time>
      </trkpt>
      <trkpt lat="46.49579" lon="5.5018">
        <ele>499</ele>
        <time>2019-02-13T19:26:02Z</time>
      </trkpt>
      <trkpt lat="46.4957" lon="5.50163">
        <ele>498</ele>
        <time>2019-02-13T19:27:02Z</time>
      </trkpt>
      <trkpt lat="46.49564" lon="5.50151">
        <ele>498</ele>
        <time>2019-02-13T19:28:02Z</time>
      </trkpt>
      <trkpt lat="46.49556" lon="5.50134">
        <ele>497</ele>
        <time>2019-02-13T19:29:02Z</time>
      </trkpt>
      <trkpt lat="46.4955" lon="5.50121">
        <ele>497</ele>
        <time>2019-02-13T19:30:02Z</time>
      </trkpt>
      <trkpt lat="46.49547" lon="5.50111">
        <ele>497</ele>
        <time>2019-02-13T19:31:02Z</time>
      </trkpt>
      <trkpt lat="46.49545" lon="5.50101">
        <ele>496</ele>
        <time>2019-02-13T19:32:02Z</time>
      </trkpt>
      <trkpt lat="46.49542" lon="5.50087">
        <ele>495</ele>
        <time>2019-02-13T19:33:02Z</time>
      </trkpt>
      <trkpt lat="46.49539" lon="5.50072">
        <ele>495</ele>
        <time>2019-02-13T19:34:02Z</time>
      </trkpt>
      <trkpt lat="46.49537" lon="5.5006">
        <ele>495</ele>
        <time>2019-02-13T19:35:02Z</time>
      </trkpt>
      <trkpt lat="46.49534" lon="5.50047">
        <ele>495</ele>
        <time>2019-02-13T19:36:02Z</time>
      </trkpt>
      <trkpt lat="46.4953" lon="5.50037">
        <ele>495</ele>
        <time>2019-02-13T19:37:02Z</time>
      </trkpt>
      <trkpt lat="46.49526" lon="5.50026">
        <ele>495</ele>
        <time>2019-02-13T19:38:02Z</time>
      </trkpt>
      <trkpt lat="46.49517" lon="5.50008">
        <ele>495</ele>
        <time>2019-02-13T19:39:02Z</time>
      </trkpt>
      <trkpt lat="46.4951" lon="5.49992">
        <ele>495</ele>
        <time>2019-02-13T19:40:02Z</time>
      </trkpt>
      <trkpt lat="46.49501" lon="5.49974">
        <ele>494</ele>
        <time>2019-02-13T19:41:02Z</time>
      </trkpt>
      <trkpt lat="46.49494" lon="5.4996">
        <ele>494</ele>
        <time>2019-02-13T19:42:02Z</time>
      </trkpt>
      <trkpt lat="46.49487" lon="5.49944">
        <ele>493</ele>
        <time>2019-02-13T19:43:02Z</time>
      </trkpt>
      <trkpt lat="46.49477" lon="5.49925">
        <ele>493</ele>
        <time>2019-02-13T19:44:02Z</time>
      </trkpt>
      <trkpt lat="46.49469" lon="5.49908">
        <ele>492</ele>
        <time>2019-02-13T19:45:02Z</time>
      </trkpt>
      <trkpt lat="46.49466" lon="5.49901">
        <ele>492</ele>
        <time>2019-02-13T19:46:02Z</time>
      </trkpt>
      <trkpt lat="46.49459" lon="5.49888">
        <ele>492</ele>
        <time>2019-02-13T19:47:02Z</time>
      </trkpt>
      <trkpt lat="46.49451" lon="5.49873">
        <ele>492</ele>
        <time>2019-02-13T19:48:02Z</time>
      </trkpt>
      <trkpt lat="46.49442" lon="5.49854">
        <ele>491</ele>
        <time>2019-02-13T19:49:02Z</time>
      </trkpt>
      <trkpt lat="46.49433" lon="5.49837">
        <ele>491</ele>
        <time>2019-02-13T19:50:02Z</time>
      </trkpt>
      <trkpt lat="46.49425" lon="5.49822">
        <ele>491</ele>
        <time>2019-02-13T19:51:02Z</time>
      </trkpt>
      <trkpt lat="46.49417" lon="5.49807">
        <ele>492</ele>
        <time>2019-02-13T19:52:02Z</time>
      </trkpt>
      <trkpt lat="46.49409" lon="5.49791">
        <ele>493</ele>
        <time>2019-02-13T19:53:02Z</time>
      </trkpt>
      <trkpt lat="46.49403" lon="5.49779">
        <ele>494</ele>
        <time>2019-02-13T19:54:02Z</time>
      </trkpt>
      <trkpt lat="46.49399" lon="5.49769">
        <ele>495</ele>
        <time>2019-02-13T19:55:02Z</time>
      </trkpt>
      <trkpt lat="46.49395" lon="5.49758">
        <ele>496</ele>
        <time>2019-02-13T19:56:02Z</time>
      </trkpt>
      <trkpt lat="46.49391" lon="5.49745">
        <ele>496</ele>
        <time>2019-02-13T19:57:02Z</time>
      </trkpt>
      <trkpt lat="46.49386" lon="5.49728">
        <ele>496</ele>
        <time>2019-02-13T19:58:02Z</time>
      </trkpt>
      <trkpt lat="46.49383" lon="5.49715">
        <ele>496</ele>
        <time>2019-02-13T19:59:02Z</time>
      </trkpt>
      <trkpt lat="46.49379" lon="5.497">
        <ele>496</ele>
        <time>2019-02-13T20:00:02Z</time>
      </trkpt>
      <trkpt lat="46.49375" lon="5.49689">
        <ele>496</ele>
        <time>2019-02-13T20:01:02Z</time>
      </trkpt>
      <trkpt lat="46.4937" lon="5.49681">
        <ele>497</ele>
        <time>2019-02-13T20:02:02Z</time>
      </trkpt>
      <trkpt lat="46.49364" lon="5.49673">
        <ele>497</ele>
        <time>2019-02-13T20:03:02Z</time>
      </trkpt>
      <trkpt lat="46.49355" lon="5.49666">
        <ele>498</ele>
        <time>2019-02-13T20:04:02Z</time>
      </trkpt>
      <trkpt lat="46.49338" lon="5.49657">
        <ele>498</ele>
        <time>2019-02-13T20:05:02Z</time>
      </trkpt>
      <trkpt lat="46.49321" lon="5.49649">
        <ele>498</ele>
        <time>2019-02-13T20:06:02Z</time>
      </trkpt>
      <trkpt lat="46.49308" lon="5.49643">
        <ele>499</ele>
        <time>2019-02-13T20:07:02Z</time>
      </trkpt>
      <trkpt lat="46.49298" lon="5.49638">
        <ele>499</ele>
        <time>2019-02-13T20:08:02Z</time>
      </trkpt>
      <trkpt lat="46.49289" lon="5.49632">
        <ele>499</ele>
        <time>2019-02-13T20:09:02Z</time>
      </trkpt>
      <trkpt lat="46.49275" lon="5.49619">
        <ele>498</ele>
        <time>2019-02-13T20:10:02Z</time>
      </trkpt>
      <trkpt lat="46.49262" lon="5.49601">
        <ele>498</ele>
        <time>2019-02-13T20:11:02Z</time>
      </trkpt>
      <trkpt lat="46.49248" lon="5.49581">
        <ele>498</ele>
        <time>2019-02-13T20:12:02Z</time>
      </trkpt>
      <trkpt lat="46.49242" lon="5.4957">
        <ele>497</ele>
        <time>2019-02-13T20:13:02Z</time>
      </trkpt>
      <trkpt lat="46.49238" lon="5.49562">
        <ele>497</ele>
        <time>2019-02-13T20:14:02Z</time>
      </trkpt>
      <trkpt lat="46.49236" lon="5.49556">
        <ele>497</ele>
        <time>2019-02-13T20:15:02Z</time>
      </trkpt>
      <trkpt lat="46.49235" lon="5.4955">
        <ele>497</ele>
        <time>2019-02-13T20:16:02Z</time>
      </trkpt>
      <trkpt lat="46.49235" lon="5.49541">
        <ele>496</ele>
        <time>2019-02-13T20:17:02Z</time>
      </trkpt>
      <trkpt lat="46.49235" lon="5.49537">
        <ele>496</ele>
        <time>2019-02-13T20:18:02Z</time>
      </trkpt>
      <trkpt lat="46.49235" lon="5.49534">
        <ele>496</ele>
        <time>2019-02-13T20:19:02Z</time>
      </trkpt>
      <trkpt lat="46.49245" lon="5.49503">
        <ele>494</ele>
        <time>2019-02-13T20:20:02Z</time>
      </trkpt>
      <trkpt lat="46.49251" lon="5.49488">
        <ele>494</ele>
        <time>2019-02-13T20:21:02Z</time>
      </trkpt>
      <trkpt lat="46.49255" lon="5.49478">
        <ele>494</ele>
        <time>2019-02-13T20:22:02Z</time>
      </trkpt>
      <trkpt lat="46.49264" lon="5.49456">
        <ele>495</ele>
        <time>2019-02-13T20:23:02Z</time>
      </trkpt>
      <trkpt lat="46.49268" lon="5.49443">
        <ele>495</ele>
        <time>2019-02-13T20:24:02Z</time>
      </trkpt>
      <trkpt lat="46.49271" lon="5.49432">
        <ele>495</ele>
        <time>2019-02-13T20:25:02Z</time>
      </trkpt>
      <trkpt lat="46.49275" lon="5.49418">
        <ele>495</ele>
        <time>2019-02-13T20:26:02Z</time>
      </trkpt>
      <trkpt lat="46.49278" lon="5.49404">
        <ele>494</ele>
        <time>2019-02-13T20:27:02Z</time>
      </trkpt>
      <trkpt lat="46.49281" lon="5.49386">
        <ele>493</ele>
        <time>2019-02-13T20:28:02Z</time>
      </trkpt>
      <trkpt lat="46.49285" lon="5.49359">
        <ele>492</ele>
        <time>2019-02-13T20:29:02Z</time>
      </trkpt>
      <trkpt lat="46.49289" lon="5.49338">
        <ele>491</ele>
        <time>2019-02-13T20:30:02Z</time>
      </trkpt>
      <trkpt lat="46.49289" lon="5.49336">
        <ele>491</ele>
        <time>2019-02-13T20:31:02Z</time>
      </trkpt>
      <trkpt lat="46.49292" lon="5.4932">
        <ele>490</ele>
        <time>2019-02-13T20:32:02Z</time>
      </trkpt>
      <trkpt lat="46.49294" lon="5.49308">
        <ele>490</ele>
        <time>2019-02-13T20:33:02Z</time>
      </trkpt>
      <trkpt lat="46.49295" lon="5.49297">
        <ele>489</ele>
        <time>2019-02-13T20:34:02Z</time>
      </trkpt>
      <trkpt lat="46.49294" lon="5.49282">
        <ele>489</ele>
        <time>2019-02-13T20:35:02Z</time>
      </trkpt>
      <trkpt lat="46.49293" lon="5.49271">
        <ele>488</ele>
        <time>2019-02-13T20:36:02Z</time>
      </trkpt>
      <trkpt lat="46.4929" lon="5.49257">
        <ele>488</ele>
        <time>2019-02-13T20:37:02Z</time>
      </trkpt>
      <trkpt lat="46.49288" lon="5.49244">
        <ele>487</ele>
        <time>2019-02-13T20:38:02Z</time>
      </trkpt>
      <trkpt lat="46.49284" lon="5.4923">
        <ele>487</ele>
        <time>2019-02-13T20:39:02Z</time>
      </trkpt>
      <trkpt lat="46.49276" lon="5.49203">
        <ele>486</ele>
        <time>2019-02-13T20:40:02Z</time>
      </trkpt>
      <trkpt lat="46.49263" lon="5.49161">
        <ele>485</ele>
        <time>2019-02-13T20:41:02Z</time>
      </trkpt>
      <trkpt lat="46.49252" lon="5.49123">
        <ele>484</ele>
        <time>2019-02-13T20:42:02Z</time>
      </trkpt>
      <trkpt lat="46.4924" lon="5.49082">
        <ele>483</ele>
        <time>2019-02-13T20:43:02Z</time>
      </trkpt>
      <trkpt lat="46.4923" lon="5.49048">
        <ele>482</ele>
        <time>2019-02-13T20:44:02Z</time>
      </trkpt>
      <trkpt lat="46.49219" lon="5.49014">
        <ele>481</ele>
        <time>2019-02-13T20:45:02Z</time>
      </trkpt>
      <trkpt lat="46.49217" lon="5.49007">
        <ele>481</ele>
        <time>2019-02-13T20:46:02Z</time>
      </trkpt>
      <trkpt lat="46.49211" lon="5.48989">
        <ele>481</ele>
        <time>2019-02-13T20:47:02Z</time>
      </trkpt>
      <trkpt lat="46.492" lon="5.48956">
        <ele>482</ele>
        <time>2019-02-13T20:48:02Z</time>
      </trkpt>
      <trkpt lat="46.49187" lon="5.48916">
        <ele>482</ele>
        <time>2019-02-13T20:49:02Z</time>
      </trkpt>
      <trkpt lat="46.49178" lon="5.48893">
        <ele>483</ele>
        <time>2019-02-13T20:50:02Z</time>
      </trkpt>
      <trkpt lat="46.49171" lon="5.48874">
        <ele>483</ele>
        <time>2019-02-13T20:51:02Z</time>
      </trkpt>
      <trkpt lat="46.49162" lon="5.4885">
        <ele>484</ele>
        <time>2019-02-13T20:52:02Z</time>
      </trkpt>
      <trkpt lat="46.49153" lon="5.48828">
        <ele>484</ele>
        <time>2019-02-13T20:53:02Z</time>
      </trkpt>
      <trkpt lat="46.49149" lon="5.48817">
        <ele>483</ele>
        <time>2019-02-13T20:54:02Z</time>
      </trkpt>
      <trkpt lat="46.49142" lon="5.48802">
        <ele>483</ele>
        <time>2019-02-13T20:55:02Z</time>
      </trkpt>
      <trkpt lat="46.49137" lon="5.4879">
        <ele>482</ele>
        <time>2019-02-13T20:56:02Z</time>
      </trkpt>
      <trkpt lat="46.49133" lon="5.48781">
        <ele>482</ele>
        <time>2019-02-13T20:57:02Z</time>
      </trkpt>
      <trkpt lat="46.49124" lon="5.48763">
        <ele>482</ele>
        <time>2019-02-13T20:58:02Z</time>
      </trkpt>
      <trkpt lat="46.49115" lon="5.48747">
        <ele>482</ele>
        <time>2019-02-13T20:59:02Z</time>
      </trkpt>
      <trkpt lat="46.49109" lon="5.48737">
        <ele>482</ele>
        <time>2019-02-13T21:00:02Z</time>
      </trkpt>
      <trkpt lat="46.49103" lon="5.48729">
        <ele>483</ele>
        <time>2019-02-13T21:01:02Z</time>
      </trkpt>
      <trkpt lat="46.49095" lon="5.48719">
        <ele>484</ele>
        <time>2019-02-13T21:02:02Z</time>
      </trkpt>
      <trkpt lat="46.49086" lon="5.48712">
        <ele>485</ele>
        <time>2019-02-13T21:03:02Z</time>
      </trkpt>
      <trkpt lat="46.4908" lon="5.48707">
        <ele>486</ele>
        <time>2019-02-13T21:04:02Z</time>
      </trkpt>
      <trkpt lat="46.49073" lon="5.48702">
        <ele>486</ele>
        <time>2019-02-13T21:05:02Z</time>
      </trkpt>
      <trkpt lat="46.49069" lon="5.48698">
        <ele>487</ele>
        <time>2019-02-13T21:06:02Z</time>
      </trkpt>
      <trkpt lat="46.49058" lon="5.48688">
        <ele>487</ele>
        <time>2019-02-13T21:07:02Z</time>
      </trkpt>
      <trkpt lat="46.4905" lon="5.48677">
        <ele>488</ele>
        <time>2019-02-13T21:08:02Z</time>
      </trkpt>
      <trkpt lat="46.49033" lon="5.48654">
        <ele>488</ele>
        <time>2019-02-13T21:09:02Z</time>
      </trkpt>
      <trkpt lat="46.4902" lon="5.48635">
        <ele>488</ele>
        <time>2019-02-13T21:10:02Z</time>
      </trkpt>
      <trkpt lat="46.49013" lon="5.48625">
        <ele>488</ele>
        <time>2019-02-13T21:11:02Z</time>
      </trkpt>
      <trkpt lat="46.49008" lon="5.48618">
        <ele>488</ele>
        <time>2019-02-13T21:13:02Z</time>
      </trkpt>
      <trkpt lat="46.49002" lon="5.48609">
        <ele>488</ele>
        <time>2019-02-13T21:14:02Z</time>
      </trkpt>
      <trkpt lat="46.48997" lon="5.486">
        <ele>487</ele>
        <time>2019-02-13T21:15:02Z</time>
      </trkpt>
      <trkpt lat="46.48992" lon="5.48591">
        <ele>487</ele>
        <time>2019-02-13T21:16:02Z</time>
      </trkpt>
      <trkpt lat="46.48988" lon="5.48582">
        <ele>487</ele>
        <time>2019-02-13T21:17:02Z</time>
      </trkpt>
      <trkpt lat="46.48983" lon="5.4857">
        <ele>486</ele>
        <time>2019-02-13T21:18:02Z</time>
      </trkpt>
      <trkpt lat="46.48977" lon="5.48557">
        <ele>485</ele>
        <time>2019-02-13T21:19:02Z</time>
      </trkpt>
      <trkpt lat="46.48973" lon="5.48547">
        <ele>485</ele>
        <time>2019-02-13T21:20:02Z</time>
      </trkpt>
      <trkpt lat="46.48968" lon="5.48539">
        <ele>484</ele>
        <time>2019-02-13T21:21:02Z</time>
      </trkpt>
      <trkpt lat="46.48962" lon="5.4853">
        <ele>484</ele>
        <time>2019-02-13T21:22:02Z</time>
      </trkpt>
      <trkpt lat="46.48955" lon="5.48521">
        <ele>484</ele>
        <time>2019-02-13T21:23:02Z</time>
      </trkpt>
      <trkpt lat="46.48948" lon="5.48515">
        <ele>484</ele>
        <time>2019-02-13T21:24:02Z</time>
      </trkpt>
      <trkpt lat="46.48939" lon="5.48507">
        <ele>484</ele>
        <time>2019-02-13T21:25:02Z</time>
      </trkpt>
      <trkpt lat="46.48932" lon="5.485">
        <ele>484</ele>
        <time>2019-02-13T21:26:02Z</time>
      </trkpt>
      <trkpt lat="46.48924" lon="5.48491">
        <ele>483</ele>
        <time>2019-02-13T21:27:02Z</time>
      </trkpt>
      <trkpt lat="46.48909" lon="5.48475">
        <ele>481</ele>
        <time>2019-02-13T21:28:02Z</time>
      </trkpt>
      <trkpt lat="46.48896" lon="5.48462">
        <ele>480</ele>
        <time>2019-02-13T21:29:02Z</time>
      </trkpt>
      <trkpt lat="46.48881" lon="5.48447">
        <ele>479</ele>
        <time>2019-02-13T21:30:02Z</time>
      </trkpt>
      <trkpt lat="46.48872" lon="5.48439">
        <ele>478</ele>
        <time>2019-02-13T21:31:02Z</time>
      </trkpt>
      <trkpt lat="46.48864" lon="5.48432">
        <ele>478</ele>
        <time>2019-02-13T21:32:02Z</time>
      </trkpt>
      <trkpt lat="46.4885" lon="5.48419">
        <ele>478</ele>
        <time>2019-02-13T21:33:02Z</time>
      </trkpt>
      <trkpt lat="46.48839" lon="5.48408">
        <ele>477</ele>
        <time>2019-02-13T21:34:02Z</time>
      </trkpt>
      <trkpt lat="46.48829" lon="5.48399">
        <ele>477</ele>
        <time>2019-02-13T21:35:02Z</time>
      </trkpt>
      <trkpt lat="46.4879" lon="5.48367">
        <ele>477.5</ele>
        <time>2019-02-13T21:36:02Z</time>
      </trkpt>
      <trkpt lat="46.48718" lon="5.48287">
        <ele>474</ele>
        <time>2019-02-13T21:37:02Z</time>
      </trkpt>
      <trkpt lat="46.48694" lon="5.48268">
        <ele>473</ele>
        <time>2019-02-13T21:38:02Z</time>
      </trkpt>
      <trkpt lat="46.48682" lon="5.48259">
        <ele>473</ele>
        <time>2019-02-13T21:39:02Z</time>
      </trkpt>
      <trkpt lat="46.48674" lon="5.48252">
        <ele>472</ele>
        <time>2019-02-13T21:40:02Z</time>
      </trkpt>
      <trkpt lat="46.48663" lon="5.48244">
        <ele>472</ele>
        <time>2019-02-13T21:41:02Z</time>
      </trkpt>
      <trkpt lat="46.4865" lon="5.48235">
        <ele>472</ele>
        <time>2019-02-13T21:42:02Z</time>
      </trkpt>
      <trkpt lat="46.48632" lon="5.48221">
        <ele>470</ele>
        <time>2019-02-13T21:43:02Z</time>
      </trkpt>
      <trkpt lat="46.48619" lon="5.48211">
        <ele>469</ele>
        <time>2019-02-13T21:44:02Z</time>
      </trkpt>
      <trkpt lat="46.48601" lon="5.48196">
        <ele>466</ele>
        <time>2019-02-13T21:45:02Z</time>
      </trkpt>
      <trkpt lat="46.48583" lon="5.48179">
        <ele>461</ele>
        <time>2019-02-13T21:46:02Z</time>
      </trkpt>
      <trkpt lat="46.48574" lon="5.48172">
        <ele>461</ele>
        <time>2019-02-13T21:47:02Z</time>
      </trkpt>
      <trkpt lat="46.48557" lon="5.48157">
        <ele>458</ele>
        <time>2019-02-13T21:48:02Z</time>
      </trkpt>
      <trkpt lat="46.48545" lon="5.48145">
        <ele>456</ele>
        <time>2019-02-13T21:49:02Z</time>
      </trkpt>
      <trkpt lat="46.48537" lon="5.48137">
        <ele>455</ele>
        <time>2019-02-13T21:50:02Z</time>
      </trkpt>
      <trkpt lat="46.48526" lon="5.48127">
        <ele>453</ele>
        <time>2019-02-13T21:51:02Z</time>
      </trkpt>
      <trkpt lat="46.4851" lon="5.48115">
        <ele>451</ele>
        <time>2019-02-13T21:52:02Z</time>
      </trkpt>
      <trkpt lat="46.48496" lon="5.48103">
        <ele>448</ele>
        <time>2019-02-13T21:53:02Z</time>
      </trkpt>
      <trkpt lat="46.48485" lon="5.48095">
        <ele>446</ele>
        <time>2019-02-13T21:54:02Z</time>
      </trkpt>
      <trkpt lat="46.48472" lon="5.48086">
        <ele>443</ele>
        <time>2019-02-13T21:55:02Z</time>
      </trkpt>
      <trkpt lat="46.48462" lon="5.48079">
        <ele>442</ele>
        <time>2019-02-13T21:56:02Z</time>
      </trkpt>
      <trkpt lat="46.4845" lon="5.48071">
        <ele>441</ele>
        <time>2019-02-13T21:57:02Z</time>
      </trkpt>
      <trkpt lat="46.48438" lon="5.48065">
        <ele>440</ele>
        <time>2019-02-13T21:58:02Z</time>
      </trkpt>
      <trkpt lat="46.48424" lon="5.48058">
        <ele>439</ele>
        <time>2019-02-13T21:59:02Z</time>
      </trkpt>
      <trkpt lat="46.48405" lon="5.48048">
        <ele>437</ele>
        <time>2019-02-13T22:00:02Z</time>
      </trkpt>
      <trkpt lat="46.48394" lon="5.48042">
        <ele>436</ele>
        <time>2019-02-13T22:01:02Z</time>
      </trkpt>
      <trkpt lat="46.4838" lon="5.48036">
        <ele>435</ele>
        <time>2019-02-13T22:02:02Z</time>
      </trkpt>
      <trkpt lat="46.48365" lon="5.4803">
        <ele>433</ele>
        <time>2019-02-13T22:03:02Z</time>
      </trkpt>
      <trkpt lat="46.48353" lon="5.48025">
        <ele>432</ele>
        <time>2019-02-13T22:04:02Z</time>
      </trkpt>
      <trkpt lat="46.48292" lon="5.48">
        <ele>426</ele>
        <time>2019-02-13T22:05:02Z</time>
      </trkpt>
      <trkpt lat="46.48241" lon="5.47977">
        <ele>424</ele>
        <time>2019-02-13T22:06:02Z</time>
      </trkpt>
      <trkpt lat="46.48228" lon="5.4797">
        <ele>424</ele>
        <time>2019-02-13T22:07:02Z</time>
      </trkpt>
      <trkpt lat="46.48213" lon="5.47962">
        <ele>423</ele>
        <time>2019-02-13T22:08:02Z</time>
      </trkpt>
      <trkpt lat="46.48199" lon="5.47953">
        <ele>422</ele>
        <time>2019-02-13T22:09:02Z</time>
      </trkpt>
      <trkpt lat="46.48186" lon="5.47946">
        <ele>421</ele>
        <time>2019-02-13T22:10:02Z</time>
      </trkpt>
      <trkpt lat="46.4817" lon="5.47936">
        <ele>419</ele>
        <time>2019-02-13T22:11:02Z</time>
      </trkpt>
      <trkpt lat="46.48159" lon="5.47926">
        <ele>419</ele>
        <time>2019-02-13T22:12:02Z</time>
      </trkpt>
      <trkpt lat="46.4815" lon="5.47917">
        <ele>420</ele>
        <time>2019-02-13T22:13:02Z</time>
      </trkpt>
      <trkpt lat="46.48133" lon="5.47898">
        <ele>422</ele>
        <time>2019-02-13T22:14:02Z</time>
      </trkpt>
      <trkpt lat="46.4812" lon="5.47878">
        <ele>422</ele>
        <time>2019-02-13T22:15:02Z</time>
      </trkpt>
      <trkpt lat="46.4811" lon="5.47859">
        <ele>422</ele>
        <time>2019-02-13T22:16:02Z</time>
      </trkpt>
      <trkpt lat="46.48099" lon="5.47832">
        <ele>419</ele>
        <time>2019-02-13T22:17:02Z</time>
      </trkpt>
      <trkpt lat="46.48087" lon="5.47796">
        <ele>417</ele>
        <time>2019-02-13T22:18:02Z</time>
      </trkpt>
      <trkpt lat="46.4808" lon="5.47767">
        <ele>414</ele>
        <time>2019-02-13T22:19:02Z</time>
      </trkpt>
      <trkpt lat="46.48073" lon="5.47728">
        <ele>413</ele>
        <time>2019-02-13T22:20:02Z</time>
      </trkpt>
      <trkpt lat="46.48072" lon="5.47701">
        <ele>411</ele>
        <time>2019-02-13T22:21:02Z</time>
      </trkpt>
      <trkpt lat="46.48071" lon="5.4769">
        <ele>411</ele>
        <time>2019-02-13T22:22:02Z</time>
      </trkpt>
      <trkpt lat="46.48072" lon="5.47677">
        <ele>410</ele>
        <time>2019-02-13T22:23:02Z</time>
      </trkpt>
      <trkpt lat="46.48073" lon="5.47663">
        <ele>409</ele>
        <time>2019-02-13T22:24:02Z</time>
      </trkpt>
      <trkpt lat="46.48078" lon="5.47642">
        <ele>407</ele>
        <time>2019-02-13T22:25:02Z</time>
      </trkpt>
      <trkpt lat="46.48084" lon="5.47614">
        <ele>405</ele>
        <time>2019-02-13T22:26:02Z</time>
      </trkpt>
      <trkpt lat="46.4809" lon="5.47582">
        <ele>406</ele>
        <time>2019-02-13T22:27:02Z</time>
      </trkpt>
      <trkpt lat="46.48093" lon="5.47567">
        <ele>407</ele>
        <time>2019-02-13T22:28:02Z</time>
      </trkpt>
      <trkpt lat="46.48097" lon="5.47547">
        <ele>407</ele>
        <time>2019-02-13T22:29:02Z</time>
      </trkpt>
      <trkpt lat="46.48099" lon="5.47531">
        <ele>407</ele>
        <time>2019-02-13T22:30:02Z</time>
      </trkpt>
      <trkpt lat="46.48102" lon="5.47512">
        <ele>407</ele>
        <time>2019-02-13T22:31:02Z</time>
      </trkpt>
      <trkpt lat="46.48103" lon="5.47489">
        <ele>407</ele>
        <time>2019-02-13T22:32:02Z</time>
      </trkpt>
      <trkpt lat="46.48104" lon="5.47473">
        <ele>407</ele>
        <time>2019-02-13T22:33:02Z</time>
      </trkpt>
      <trkpt lat="46.48104" lon="5.47432">
        <ele>405</ele>
        <time>2019-02-13T22:34:02Z</time>
      </trkpt>
      <trkpt lat="46.48103" lon="5.47409">
        <ele>404</ele>
        <time>2019-02-13T22:35:02Z</time>
      </trkpt>
      <trkpt lat="46.481" lon="5.47389">
        <ele>402</ele>
        <time>2019-02-13T22:36:02Z</time>
      </trkpt>
      <trkpt lat="46.48093" lon="5.47358">
        <ele>399</ele>
        <time>2019-02-13T22:37:02Z</time>
      </trkpt>
      <trkpt lat="46.48086" lon="5.47337">
        <ele>396</ele>
        <time>2019-02-13T22:38:02Z</time>
      </trkpt>
      <trkpt lat="46.4808" lon="5.47318">
        <ele>395</ele>
        <time>2019-02-13T22:39:02Z</time>
      </trkpt>
      <trkpt lat="46.48077" lon="5.47303">
        <ele>395</ele>
        <time>2019-02-13T22:40:02Z</time>
      </trkpt>
      <trkpt lat="46.48076" lon="5.47294">
        <ele>394</ele>
        <time>2019-02-13T22:41:02Z</time>
      </trkpt>
      <trkpt lat="46.48076" lon="5.47284">
        <ele>394</ele>
        <time>2019-02-13T22:42:02Z</time>
      </trkpt>
      <trkpt lat="46.48077" lon="5.47271">
        <ele>394</ele>
        <time>2019-02-13T22:43:02Z</time>
      </trkpt>
      <trkpt lat="46.48078" lon="5.47263">
        <ele>394</ele>
        <time>2019-02-13T22:44:02Z</time>
      </trkpt>
      <trkpt lat="46.48082" lon="5.4725">
        <ele>394</ele>
        <time>2019-02-13T22:45:02Z</time>
      </trkpt>
      <trkpt lat="46.48088" lon="5.47224">
        <ele>394</ele>
        <time>2019-02-13T22:46:02Z</time>
      </trkpt>
      <trkpt lat="46.48094" lon="5.47193">
        <ele>393</ele>
        <time>2019-02-13T22:47:02Z</time>
      </trkpt>
      <trkpt lat="46.481" lon="5.4717">
        <ele>392</ele>
        <time>2019-02-13T22:48:02Z</time>
      </trkpt>
      <trkpt lat="46.48106" lon="5.47146">
        <ele>392</ele>
        <time>2019-02-13T22:49:02Z</time>
      </trkpt>
      <trkpt lat="46.48113" lon="5.47118">
        <ele>391</ele>
        <time>2019-02-13T22:50:02Z</time>
      </trkpt>
      <trkpt lat="46.4812" lon="5.47097">
        <ele>390</ele>
        <time>2019-02-13T22:51:02Z</time>
      </trkpt>
      <trkpt lat="46.48129" lon="5.47072">
        <ele>388</ele>
        <time>2019-02-13T22:52:02Z</time>
      </trkpt>
      <trkpt lat="46.48137" lon="5.47057">
        <ele>388</ele>
        <time>2019-02-13T22:53:02Z</time>
      </trkpt>
      <trkpt lat="46.48144" lon="5.47045">
        <ele>387</ele>
        <time>2019-02-13T22:54:02Z</time>
      </trkpt>
      <trkpt lat="46.48158" lon="5.47018">
        <ele>385</ele>
        <time>2019-02-13T22:55:02Z</time>
      </trkpt>
      <trkpt lat="46.48169" lon="5.47">
        <ele>383</ele>
        <time>2019-02-13T22:56:02Z</time>
      </trkpt>
      <trkpt lat="46.48174" lon="5.46992">
        <ele>383</ele>
        <time>2019-02-13T22:57:02Z</time>
      </trkpt>
      <trkpt lat="46.48199" lon="5.46955">
        <ele>381</ele>
        <time>2019-02-13T22:58:02Z</time>
      </trkpt>
      <trkpt lat="46.4821" lon="5.46937">
        <ele>380</ele>
        <time>2019-02-13T22:59:02Z</time>
      </trkpt>
      <trkpt lat="46.48218" lon="5.46919">
        <ele>379</ele>
        <time>2019-02-13T23:00:02Z</time>
      </trkpt>
      <trkpt lat="46.48227" lon="5.46898">
        <ele>379</ele>
        <time>2019-02-13T23:01:02Z</time>
      </trkpt>
      <trkpt lat="46.48238" lon="5.46868">
        <ele>378</ele>
        <time>2019-02-13T23:02:02Z</time>
      </trkpt>
      <trkpt lat="46.48255" lon="5.46828">
        <ele>376</ele>
        <time>2019-02-13T23:03:02Z</time>
      </trkpt>
      <trkpt lat="46.48272" lon="5.46784">
        <ele>376</ele>
        <time>2019-02-13T23:04:02Z</time>
      </trkpt>
      <trkpt lat="46.48289" lon="5.46741">
        <ele>376</ele>
        <time>2019-02-13T23:05:02Z</time>
      </trkpt>
      <trkpt lat="46.48305" lon="5.46701">
        <ele>376</ele>
        <time>2019-02-13T23:06:02Z</time>
      </trkpt>
      <trkpt lat="46.48325" lon="5.46649">
        <ele>377</ele>
        <time>2019-02-13T23:07:02Z</time>
      </trkpt>
      <trkpt lat="46.48349" lon="5.46607">
        <ele>377</ele>
        <time>2019-02-13T23:08:02Z</time>
      </trkpt>
      <trkpt lat="46.48365" lon="5.4656">
        <ele>377</ele>
        <time>2019-02-13T23:09:02Z</time>
      </trkpt>
      <trkpt lat="46.48365" lon="5.46553">
        <ele>377</ele>
        <time>2019-02-13T23:10:02Z</time>
      </trkpt>
      <trkpt lat="46.48369" lon="5.4654">
        <ele>377</ele>
        <time>2019-02-13T23:11:02Z</time>
      </trkpt>
      <trkpt lat="46.48379" lon="5.46514">
        <ele>377</ele>
        <time>2019-02-13T23:12:02Z</time>
      </trkpt>
      <trkpt lat="46.48381" lon="5.46508">
        <ele>377</ele>
        <time>2019-02-13T23:13:02Z</time>
      </trkpt>
      <trkpt lat="46.48384" lon="5.46501">
        <ele>378</ele>
        <time>2019-02-13T23:14:02Z</time>
      </trkpt>
      <trkpt lat="46.48387" lon="5.46493">
        <ele>378</ele>
        <time>2019-02-13T23:15:02Z</time>
      </trkpt>
      <trkpt lat="46.48388" lon="5.46489">
        <ele>378</ele>
        <time>2019-02-13T23:16:02Z</time>
      </trkpt>
      <trkpt lat="46.48388" lon="5.46483">
        <ele>378</ele>
        <time>2019-02-13T23:17:02Z</time>
      </trkpt>
      <trkpt lat="46.48388" lon="5.46464">
        <ele>378</ele>
        <time>2019-02-13T23:18:02Z</time>
      </trkpt>
      <trkpt lat="46.48388" lon="5.46447">
        <ele>378</ele>
        <time>2019-02-13T23:19:02Z</time>
      </trkpt>
      <trkpt lat="46.48388" lon="5.46431">
        <ele>378</ele>
        <time>2019-02-13T23:20:02Z</time>
      </trkpt>
      <trkpt lat="46.48389" lon="5.46421">
        <ele>378</ele>
        <time>2019-02-13T23:21:02Z</time>
      </trkpt>
      <trkpt lat="46.48391" lon="5.46412">
        <ele>378</ele>
        <time>2019-02-13T23:22:02Z</time>
      </trkpt>
      <trkpt lat="46.48393" lon="5.46399">
        <ele>378</ele>
        <time>2019-02-13T23:23:02Z</time>
      </trkpt>
      <trkpt lat="46.48395" lon="5.46391">
        <ele>378</ele>
        <time>2019-02-13T23:24:02Z</time>
      </trkpt>
      <trkpt lat="46.48399" lon="5.46382">
        <ele>378</ele>
        <time>2019-02-13T23:25:02Z</time>
      </trkpt>
      <trkpt lat="46.48403" lon="5.46373">
        <ele>378</ele>
        <time>2019-02-13T23:26:02Z</time>
      </trkpt>
      <trkpt lat="46.48406" lon="5.46364">
        <ele>378</ele>
        <time>2019-02-13T23:27:02Z</time>
      </trkpt>
      <trkpt lat="46.48411" lon="5.46353">
        <ele>378</ele>
        <time>2019-02-13T23:28:02Z</time>
      </trkpt>
      <trkpt lat="46.48415" lon="5.46344">
        <ele>378</ele>
        <time>2019-02-13T23:29:02Z</time>
      </trkpt>
      <trkpt lat="46.48421" lon="5.46331">
        <ele>378</ele>
        <time>2019-02-13T23:30:02Z</time>
      </trkpt>
      <trkpt lat="46.4843" lon="5.46314">
        <ele>379</ele>
        <time>2019-02-13T23:31:02Z</time>
      </trkpt>
      <trkpt lat="46.48437" lon="5.46297">
        <ele>380</ele>
        <time>2019-02-13T23:32:02Z</time>
      </trkpt>
      <trkpt lat="46.48441" lon="5.46288">
        <ele>381</ele>
        <time>2019-02-13T23:33:02Z</time>
      </trkpt>
      <trkpt lat="46.48443" lon="5.46279">
        <ele>381</ele>
        <time>2019-02-13T23:34:02Z</time>
      </trkpt>
      <trkpt lat="46.48445" lon="5.46273">
        <ele>382</ele>
        <time>2019-02-13T23:35:02Z</time>
      </trkpt>
      <trkpt lat="46.48445" lon="5.46268">
        <ele>382</ele>
        <time>2019-02-13T23:36:02Z</time>
      </trkpt>
      <trkpt lat="46.48443" lon="5.46263">
        <ele>382</ele>
        <time>2019-02-13T23:37:02Z</time>
      </trkpt>
      <trkpt lat="46.48436" lon="5.46251">
        <ele>383</ele>
        <time>2019-02-13T23:38:02Z</time>
      </trkpt>
      <trkpt lat="46.48434" lon="5.46245">
        <ele>383</ele>
        <time>2019-02-13T23:39:02Z</time>
      </trkpt>
      <trkpt lat="46.48432" lon="5.46238">
        <ele>383</ele>
        <time>2019-02-13T23:40:02Z</time>
      </trkpt>
      <trkpt lat="46.48431" lon="5.46233">
        <ele>383</ele>
        <time>2019-02-13T23:41:02Z</time>
      </trkpt>
      <trkpt lat="46.4843" lon="5.46227">
        <ele>383</ele>
        <time>2019-02-13T23:42:02Z</time>
      </trkpt>
      <trkpt lat="46.48425" lon="5.46202">
        <ele>384</ele>
        <time>2019-02-13T23:43:02Z</time>
      </trkpt>
      <trkpt lat="46.48425" lon="5.46199">
        <ele>384</ele>
        <time>2019-02-13T23:44:02Z</time>
      </trkpt>
      <trkpt lat="46.48423" lon="5.46191">
        <ele>385</ele>
        <time>2019-02-13T23:45:02Z</time>
      </trkpt>
      <trkpt lat="46.48419" lon="5.46178">
        <ele>385</ele>
        <time>2019-02-13T23:46:02Z</time>
      </trkpt>
      <trkpt lat="46.48416" lon="5.46167">
        <ele>385</ele>
        <time>2019-02-13T23:47:02Z</time>
      </trkpt>
      <trkpt lat="46.48404" lon="5.46143">
        <ele>385</ele>
        <time>2019-02-13T23:48:02Z</time>
      </trkpt>
      <trkpt lat="46.484" lon="5.46136">
        <ele>385</ele>
        <time>2019-02-13T23:49:02Z</time>
      </trkpt>
      <trkpt lat="46.48394" lon="5.46123">
        <ele>385</ele>
        <time>2019-02-13T23:50:02Z</time>
      </trkpt>
      <trkpt lat="46.48388" lon="5.4611">
        <ele>385</ele>
        <time>2019-02-13T23:51:02Z</time>
      </trkpt>
      <trkpt lat="46.48381" lon="5.46095">
        <ele>385</ele>
        <time>2019-02-13T23:52:02Z</time>
      </trkpt>
      <trkpt lat="46.48377" lon="5.46088">
        <ele>385</ele>
        <time>2019-02-13T23:53:02Z</time>
      </trkpt>
      <trkpt lat="46.48367" lon="5.46068">
        <ele>385</ele>
        <time>2019-02-13T23:54:02Z</time>
      </trkpt>
      <trkpt lat="46.4835" lon="5.46037">
        <ele>384</ele>
        <time>2019-02-13T23:55:02Z</time>
      </trkpt>
      <trkpt lat="46.4834" lon="5.46019">
        <ele>383</ele>
        <time>2019-02-13T23:56:02Z</time>
      </trkpt>
      <trkpt lat="46.48325" lon="5.45993">
        <ele>383</ele>
        <time>2019-02-13T23:57:02Z</time>
      </trkpt>
      <trkpt lat="46.4831" lon="5.45969">
        <ele>383</ele>
        <time>2019-02-13T23:58:02Z</time>
      </trkpt>
      <trkpt lat="46.48293" lon="5.45942">
        <ele>383</ele>
        <time>2019-02-13T23:59:02Z</time>
      </trkpt>
      <trkpt lat="46.48278" lon="5.45919">
        <ele>383</ele>
        <time>2019-02-14T00:00:02Z</time>
      </trkpt>
      <trkpt lat="46.48263" lon="5.45897">
        <ele>383</ele>
        <time>2019-02-14T00:01:02Z</time>
      </trkpt>
      <trkpt lat="46.4825" lon="5.4588">
        <ele>382</ele>
        <time>2019-02-14T00:02:02Z</time>
      </trkpt>
      <trkpt lat="46.48234" lon="5.45858">
        <ele>381</ele>
        <time>2019-02-14T00:03:02Z</time>
      </trkpt>
      <trkpt lat="46.48221" lon="5.45843">
        <ele>381</ele>
        <time>2019-02-14T00:04:02Z</time>
      </trkpt>
      <trkpt lat="46.48208" lon="5.45826">
        <ele>380</ele>
        <time>2019-02-14T00:05:02Z</time>
      </trkpt>
      <trkpt lat="46.48199" lon="5.45814">
        <ele>380</ele>
        <time>2019-02-14T00:06:02Z</time>
      </trkpt>
      <trkpt lat="46.48183" lon="5.45794">
        <ele>380</ele>
        <time>2019-02-14T00:07:02Z</time>
      </trkpt>
      <trkpt lat="46.48168" lon="5.45774">
        <ele>379</ele>
        <time>2019-02-14T00:08:02Z</time>
      </trkpt>
      <trkpt lat="46.48154" lon="5.45757">
        <ele>379</ele>
        <time>2019-02-14T00:09:02Z</time>
      </trkpt>
      <trkpt lat="46.48135" lon="5.45733">
        <ele>378</ele>
        <time>2019-02-14T00:10:02Z</time>
      </trkpt>
      <trkpt lat="46.4812" lon="5.45716">
        <ele>378</ele>
        <time>2019-02-14T00:11:02Z</time>
      </trkpt>
      <trkpt lat="46.48109" lon="5.45704">
        <ele>377</ele>
        <time>2019-02-14T00:12:02Z</time>
      </trkpt>
      <trkpt lat="46.48093" lon="5.45687">
        <ele>377</ele>
        <time>2019-02-14T00:13:02Z</time>
      </trkpt>
      <trkpt lat="46.48083" lon="5.45677">
        <ele>376</ele>
        <time>2019-02-14T00:14:02Z</time>
      </trkpt>
      <trkpt lat="46.48072" lon="5.45669">
        <ele>376</ele>
        <time>2019-02-14T00:15:02Z</time>
      </trkpt>
      <trkpt lat="46.48055" lon="5.45656">
        <ele>376</ele>
        <time>2019-02-14T00:16:02Z</time>
      </trkpt>
      <trkpt lat="46.48046" lon="5.45651">
        <ele>376</ele>
        <time>2019-02-14T00:17:02Z</time>
      </trkpt>
      <trkpt lat="46.48044" lon="5.4565">
        <ele>376</ele>
        <time>2019-02-14T00:18:02Z</time>
      </trkpt>
      <trkpt lat="46.48024" lon="5.45641">
        <ele>375</ele>
        <time>2019-02-14T00:19:02Z</time>
      </trkpt>
      <trkpt lat="46.48015" lon="5.45637">
        <ele>375</ele>
        <time>2019-02-14T00:20:02Z</time>
      </trkpt>
      <trkpt lat="46.47999" lon="5.45629">
        <ele>375</ele>
        <time>2019-02-14T00:21:02Z</time>
      </trkpt>
      <trkpt lat="46.47964" lon="5.45616">
        <ele>376</ele>
        <time>2019-02-14T00:22:02Z</time>
      </trkpt>
      <trkpt lat="46.47922" lon="5.45599">
        <ele>378</ele>
        <time>2019-02-14T00:23:02Z</time>
      </trkpt>
      <trkpt lat="46.47908" lon="5.45593">
        <ele>379</ele>
        <time>2019-02-14T00:24:02Z</time>
      </trkpt>
      <trkpt lat="46.47895" lon="5.45588">
        <ele>379</ele>
        <time>2019-02-14T00:25:02Z</time>
      </trkpt>
      <trkpt lat="46.47863" lon="5.45575">
        <ele>380</ele>
        <time>2019-02-14T00:26:02Z</time>
      </trkpt>
      <trkpt lat="46.47847" lon="5.45568">
        <ele>381</ele>
        <time>2019-02-14T00:27:02Z</time>
      </trkpt>
      <trkpt lat="46.47832" lon="5.45565">
        <ele>381</ele>
        <time>2019-02-14T00:28:02Z</time>
      </trkpt>
      <trkpt lat="46.47761" lon="5.45547">
        <ele>380</ele>
        <time>2019-02-14T00:29:02Z</time>
      </trkpt>
      <trkpt lat="46.47755" lon="5.45544">
        <ele>381</ele>
        <time>2019-02-14T00:30:02Z</time>
      </trkpt>
      <trkpt lat="46.47746" lon="5.45536">
        <ele>380</ele>
        <time>2019-02-14T00:31:02Z</time>
      </trkpt>
      <trkpt lat="46.4773" lon="5.4552">
        <ele>380</ele>
        <time>2019-02-14T00:32:02Z</time>
      </trkpt>
      <trkpt lat="46.47705" lon="5.45494">
        <ele>381</ele>
        <time>2019-02-14T00:33:02Z</time>
      </trkpt>
      <trkpt lat="46.47692" lon="5.45486">
        <ele>380</ele>
        <time>2019-02-14T00:34:02Z</time>
      </trkpt>
      <trkpt lat="46.47676" lon="5.45475">
        <ele>380</ele>
        <time>2019-02-14T00:35:02Z</time>
      </trkpt>
      <trkpt lat="46.47665" lon="5.45468">
        <ele>380</ele>
        <time>2019-02-14T00:36:02Z</time>
      </trkpt>
      <trkpt lat="46.47655" lon="5.45461">
        <ele>380</ele>
        <time>2019-02-14T00:37:02Z</time>
      </trkpt>
      <trkpt lat="46.47646" lon="5.45457">
        <ele>380</ele>
        <time>2019-02-14T00:38:02Z</time>
      </trkpt>
      <trkpt lat="46.47639" lon="5.45454">
        <ele>380</ele>
        <time>2019-02-14T00:39:02Z</time>
      </trkpt>
      <trkpt lat="46.4763" lon="5.4545">
        <ele>380</ele>
        <time>2019-02-14T00:40:02Z</time>
      </trkpt>
      <trkpt lat="46.47619" lon="5.45444">
        <ele>379</ele>
        <time>2019-02-14T00:41:02Z</time>
      </trkpt>
      <trkpt lat="46.47605" lon="5.45436">
        <ele>379</ele>
        <time>2019-02-14T00:42:02Z</time>
      </trkpt>
      <trkpt lat="46.47595" lon="5.45428">
        <ele>379</ele>
        <time>2019-02-14T00:43:02Z</time>
      </trkpt>
      <trkpt lat="46.47583" lon="5.45419">
        <ele>379</ele>
        <time>2019-02-14T00:44:02Z</time>
      </trkpt>
      <trkpt lat="46.4757" lon="5.45408">
        <ele>378</ele>
        <time>2019-02-14T00:45:02Z</time>
      </trkpt>
      <trkpt lat="46.47551" lon="5.45393">
        <ele>378</ele>
        <time>2019-02-14T00:46:02Z</time>
      </trkpt>
      <trkpt lat="46.47539" lon="5.45383">
        <ele>377</ele>
        <time>2019-02-14T00:47:02Z</time>
      </trkpt>
      <trkpt lat="46.47528" lon="5.45376">
        <ele>377</ele>
        <time>2019-02-14T00:48:02Z</time>
      </trkpt>
      <trkpt lat="46.47518" lon="5.4537">
        <ele>377</ele>
        <time>2019-02-14T00:49:02Z</time>
      </trkpt>
      <trkpt lat="46.47508" lon="5.45366">
        <ele>376</ele>
        <time>2019-02-14T00:50:02Z</time>
      </trkpt>
      <trkpt lat="46.47496" lon="5.45362">
        <ele>376</ele>
        <time>2019-02-14T00:51:02Z</time>
      </trkpt>
      <trkpt lat="46.47477" lon="5.45356">
        <ele>376</ele>
        <time>2019-02-14T00:52:02Z</time>
      </trkpt>
      <trkpt lat="46.4746" lon="5.45352">
        <ele>376</ele>
        <time>2019-02-14T00:53:02Z</time>
      </trkpt>
      <trkpt lat="46.47443" lon="5.45347">
        <ele>376</ele>
        <time>2019-02-14T00:54:02Z</time>
      </trkpt>
      <trkpt lat="46.47413" lon="5.45339">
        <ele>377</ele>
        <time>2019-02-14T00:55:02Z</time>
      </trkpt>
      <trkpt lat="46.47395" lon="5.45333">
        <ele>377</ele>
        <time>2019-02-14T00:56:02Z</time>
      </trkpt>
      <trkpt lat="46.47385" lon="5.4533">
        <ele>377</ele>
        <time>2019-02-14T00:57:02Z</time>
      </trkpt>
      <trkpt lat="46.4737" lon="5.45325">
        <ele>377</ele>
        <time>2019-02-14T00:58:02Z</time>
      </trkpt>
      <trkpt lat="46.47357" lon="5.4532">
        <ele>377</ele>
        <time>2019-02-14T00:59:02Z</time>
      </trkpt>
      <trkpt lat="46.47338" lon="5.45313">
        <ele>377</ele>
        <time>2019-02-14T01:00:02Z</time>
      </trkpt>
      <trkpt lat="46.47305" lon="5.453">
        <ele>376</ele>
        <time>2019-02-14T01:01:02Z</time>
      </trkpt>
      <trkpt lat="46.47287" lon="5.45292">
        <ele>375</ele>
        <time>2019-02-14T01:02:02Z</time>
      </trkpt>
      <trkpt lat="46.47268" lon="5.45283">
        <ele>375</ele>
        <time>2019-02-14T01:03:02Z</time>
      </trkpt>
      <trkpt lat="46.47247" lon="5.45272">
        <ele>374</ele>
        <time>2019-02-14T01:04:02Z</time>
      </trkpt>
      <trkpt lat="46.4723" lon="5.45264">
        <ele>374</ele>
        <time>2019-02-14T01:05:02Z</time>
      </trkpt>
      <trkpt lat="46.47208" lon="5.45253">
        <ele>375</ele>
        <time>2019-02-14T01:06:02Z</time>
      </trkpt>
      <trkpt lat="46.47191" lon="5.45246">
        <ele>375</ele>
        <time>2019-02-14T01:07:02Z</time>
      </trkpt>
      <trkpt lat="46.47179" lon="5.4524">
        <ele>375</ele>
        <time>2019-02-14T01:08:02Z</time>
      </trkpt>
      <trkpt lat="46.47166" lon="5.45235">
        <ele>375</ele>
        <time>2019-02-14T01:09:02Z</time>
      </trkpt>
      <trkpt lat="46.47152" lon="5.45228">
        <ele>375</ele>
        <time>2019-02-14T01:10:02Z</time>
      </trkpt>
      <trkpt lat="46.47132" lon="5.45217">
        <ele>374</ele>
        <time>2019-02-14T01:11:02Z</time>
      </trkpt>
      <trkpt lat="46.47108" lon="5.45204">
        <ele>374</ele>
        <time>2019-02-14T01:12:02Z</time>
      </trkpt>
      <trkpt lat="46.47088" lon="5.45192">
        <ele>374</ele>
        <time>2019-02-14T01:13:02Z</time>
      </trkpt>
      <trkpt lat="46.4708" lon="5.45187">
        <ele>374</ele>
        <time>2019-02-14T01:14:02Z</time>
      </trkpt>
      <trkpt lat="46.47072" lon="5.45182">
        <ele>374</ele>
        <time>2019-02-14T01:15:02Z</time>
      </trkpt>
      <trkpt lat="46.47064" lon="5.45175">
        <ele>374</ele>
        <time>2019-02-14T01:16:02Z</time>
      </trkpt>
      <trkpt lat="46.47053" lon="5.45165">
        <ele>375</ele>
        <time>2019-02-14T01:17:02Z</time>
      </trkpt>
      <trkpt lat="46.47044" lon="5.45157">
        <ele>375</ele>
        <time>2019-02-14T01:18:02Z</time>
      </trkpt>
      <trkpt lat="46.47035" lon="5.45149">
        <ele>375</ele>
        <time>2019-02-14T01:19:02Z</time>
      </trkpt>
      <trkpt lat="46.46954" lon="5.45083">
        <ele>373</ele>
        <time>2019-02-14T01:20:02Z</time>
      </trkpt>
      <trkpt lat="46.46914" lon="5.45049">
        <ele>373</ele>
        <time>2019-02-14T01:21:02Z</time>
      </trkpt>
      <trkpt lat="46.46891" lon="5.4503">
        <ele>374</ele>
        <time>2019-02-14T01:22:02Z</time>
      </trkpt>
      <trkpt lat="46.46876" lon="5.45019">
        <ele>375</ele>
        <time>2019-02-14T01:23:02Z</time>
      </trkpt>
      <trkpt lat="46.46856" lon="5.45003">
        <ele>376</ele>
        <time>2019-02-14T01:24:02Z</time>
      </trkpt>
      <trkpt lat="46.46842" lon="5.44991">
        <ele>376</ele>
        <time>2019-02-14T01:25:02Z</time>
      </trkpt>
      <trkpt lat="46.46827" lon="5.44979">
        <ele>376</ele>
        <time>2019-02-14T01:26:02Z</time>
      </trkpt>
      <trkpt lat="46.46817" lon="5.4497">
        <ele>376</ele>
        <time>2019-02-14T01:27:02Z</time>
      </trkpt>
      <trkpt lat="46.46803" lon="5.44957">
        <ele>376</ele>
        <time>2019-02-14T01:28:02Z</time>
      </trkpt>
      <trkpt lat="46.46789" lon="5.44945">
        <ele>376</ele>
        <time>2019-02-14T01:29:02Z</time>
      </trkpt>
      <trkpt lat="46.4677" lon="5.44931">
        <ele>375</ele>
        <time>2019-02-14T01:30:02Z</time>
      </trkpt>
      <trkpt lat="46.46752" lon="5.44921">
        <ele>375</ele>
        <time>2019-02-14T01:31:02Z</time>
      </trkpt>
      <trkpt lat="46.46721" lon="5.44904">
        <ele>373</ele>
        <time>2019-02-14T01:32:02Z</time>
      </trkpt>
      <trkpt lat="46.46683" lon="5.44886">
        <ele>372</ele>
        <time>2019-02-14T01:33:02Z</time>
      </trkpt>
      <trkpt lat="46.4668" lon="5.44884">
        <ele>372</ele>
        <time>2019-02-14T01:34:02Z</time>
      </trkpt>
      <trkpt lat="46.46676" lon="5.44882">
        <ele>372</ele>
        <time>2019-02-14T01:35:02Z</time>
      </trkpt>
      <trkpt lat="46.46657" lon="5.44871">
        <ele>372</ele>
        <time>2019-02-14T01:36:02Z</time>
      </trkpt>
      <trkpt lat="46.46645" lon="5.44865">
        <ele>372</ele>
        <time>2019-02-14T01:37:02Z</time>
      </trkpt>
      <trkpt lat="46.46624" lon="5.44854">
        <ele>372</ele>
        <time>2019-02-14T01:38:02Z</time>
      </trkpt>
      <trkpt lat="46.46603" lon="5.44844">
        <ele>373</ele>
        <time>2019-02-14T01:39:02Z</time>
      </trkpt>
      <trkpt lat="46.46573" lon="5.44829">
        <ele>373</ele>
        <time>2019-02-14T01:40:02Z</time>
      </trkpt>
      <trkpt lat="46.4655" lon="5.44817">
        <ele>374</ele>
        <time>2019-02-14T01:41:02Z</time>
      </trkpt>
      <trkpt lat="46.46522" lon="5.44804">
        <ele>374</ele>
        <time>2019-02-14T01:42:02Z</time>
      </trkpt>
      <trkpt lat="46.4649" lon="5.44787">
        <ele>374</ele>
        <time>2019-02-14T01:43:02Z</time>
      </trkpt>
      <trkpt lat="46.46458" lon="5.44771">
        <ele>375</ele>
        <time>2019-02-14T01:44:02Z</time>
      </trkpt>
      <trkpt lat="46.46437" lon="5.4476">
        <ele>375</ele>
        <time>2019-02-14T01:45:02Z</time>
      </trkpt>
      <trkpt lat="46.4641" lon="5.44746">
        <ele>377</ele>
        <time>2019-02-14T01:46:02Z</time>
      </trkpt>
      <trkpt lat="46.46385" lon="5.44734">
        <ele>378</ele>
        <time>2019-02-14T01:47:02Z</time>
      </trkpt>
      <trkpt lat="46.46363" lon="5.44723">
        <ele>380</ele>
        <time>2019-02-14T01:48:02Z</time>
      </trkpt>
      <trkpt lat="46.46357" lon="5.4472">
        <ele>380</ele>
        <time>2019-02-14T01:49:02Z</time>
      </trkpt>
      <trkpt lat="46.46351" lon="5.44717">
        <ele>381</ele>
        <time>2019-02-14T01:50:02Z</time>
      </trkpt>
      <trkpt lat="46.46343" lon="5.44711">
        <ele>382</ele>
        <time>2019-02-14T01:51:02Z</time>
      </trkpt>
      <trkpt lat="46.4633" lon="5.44704">
        <ele>383</ele>
        <time>2019-02-14T01:52:02Z</time>
      </trkpt>
      <trkpt lat="46.46312" lon="5.44695">
        <ele>384</ele>
        <time>2019-02-14T01:53:02Z</time>
      </trkpt>
      <trkpt lat="46.46289" lon="5.44684">
        <ele>385</ele>
        <time>2019-02-14T01:54:02Z</time>
      </trkpt>
      <trkpt lat="46.46267" lon="5.44673">
        <ele>386</ele>
        <time>2019-02-14T01:55:02Z</time>
      </trkpt>
      <trkpt lat="46.46255" lon="5.44667">
        <ele>387</ele>
        <time>2019-02-14T01:56:02Z</time>
      </trkpt>
      <trkpt lat="46.46246" lon="5.44662">
        <ele>387</ele>
        <time>2019-02-14T01:57:02Z</time>
      </trkpt>
      <trkpt lat="46.46234" lon="5.44654">
        <ele>388</ele>
        <time>2019-02-14T01:58:02Z</time>
      </trkpt>
      <trkpt lat="46.46224" lon="5.44645">
        <ele>388</ele>
        <time>2019-02-14T01:59:02Z</time>
      </trkpt>
      <trkpt lat="46.46214" lon="5.44634">
        <ele>388</ele>
        <time>2019-02-14T02:00:02Z</time>
      </trkpt>
      <trkpt lat="46.46208" lon="5.44621">
        <ele>389</ele>
        <time>2019-02-14T02:01:02Z</time>
      </trkpt>
      <trkpt lat="46.46201" lon="5.44607">
        <ele>390</ele>
        <time>2019-02-14T02:02:02Z</time>
      </trkpt>
      <trkpt lat="46.46197" lon="5.44585">
        <ele>391</ele>
        <time>2019-02-14T02:03:02Z</time>
      </trkpt>
      <trkpt lat="46.46194" lon="5.44562">
        <ele>393</ele>
        <time>2019-02-14T02:04:02Z</time>
      </trkpt>
      <trkpt lat="46.46193" lon="5.44545">
        <ele>394</ele>
        <time>2019-02-14T02:05:02Z</time>
      </trkpt>
      <trkpt lat="46.46192" lon="5.44524">
        <ele>395</ele>
        <time>2019-02-14T02:06:02Z</time>
      </trkpt>
      <trkpt lat="46.46191" lon="5.44484">
        <ele>398</ele>
        <time>2019-02-14T02:07:02Z</time>
      </trkpt>
      <trkpt lat="46.4619" lon="5.44451">
        <ele>399</ele>
        <time>2019-02-14T02:08:02Z</time>
      </trkpt>
      <trkpt lat="46.4619" lon="5.44405">
        <ele>401</ele>
        <time>2019-02-14T02:09:02Z</time>
      </trkpt>
      <trkpt lat="46.4619" lon="5.44365">
        <ele>403</ele>
        <time>2019-02-14T02:10:02Z</time>
      </trkpt>
      <trkpt lat="46.46192" lon="5.44337">
        <ele>405</ele>
        <time>2019-02-14T02:11:02Z</time>
      </trkpt>
      <trkpt lat="46.46193" lon="5.44317">
        <ele>405</ele>
        <time>2019-02-14T02:12:02Z</time>
      </trkpt>
      <trkpt lat="46.46192" lon="5.44297">
        <ele>406</ele>
        <time>2019-02-14T02:13:02Z</time>
      </trkpt>
      <trkpt lat="46.46189" lon="5.44272">
        <ele>407</ele>
        <time>2019-02-14T02:14:02Z</time>
      </trkpt>
      <trkpt lat="46.46188" lon="5.44266">
        <ele>408</ele>
        <time>2019-02-14T02:15:02Z</time>
      </trkpt>
      <trkpt lat="46.46183" lon="5.44248">
        <ele>409</ele>
        <time>2019-02-14T02:16:02Z</time>
      </trkpt>
      <trkpt lat="46.46176" lon="5.44222">
        <ele>409</ele>
        <time>2019-02-14T02:17:02Z</time>
      </trkpt>
      <trkpt lat="46.46169" lon="5.44198">
        <ele>410</ele>
        <time>2019-02-14T02:18:02Z</time>
      </trkpt>
      <trkpt lat="46.4616" lon="5.44174">
        <ele>411</ele>
        <time>2019-02-14T02:19:02Z</time>
      </trkpt>
      <trkpt lat="46.46151" lon="5.4415">
        <ele>412</ele>
        <time>2019-02-14T02:20:02Z</time>
      </trkpt>
      <trkpt lat="46.46145" lon="5.44131">
        <ele>413</ele>
        <time>2019-02-14T02:21:02Z</time>
      </trkpt>
      <trkpt lat="46.46141" lon="5.44116">
        <ele>413</ele>
        <time>2019-02-14T02:22:02Z</time>
      </trkpt>
      <trkpt lat="46.46138" lon="5.44102">
        <ele>413</ele>
        <time>2019-02-14T02:23:02Z</time>
      </trkpt>
      <trkpt lat="46.46135" lon="5.44081">
        <ele>414</ele>
        <time>2019-02-14T02:24:02Z</time>
      </trkpt>
      <trkpt lat="46.46131" lon="5.44064">
        <ele>415</ele>
        <time>2019-02-14T02:25:02Z</time>
      </trkpt>
      <trkpt lat="46.46128" lon="5.44044">
        <ele>415</ele>
        <time>2019-02-14T02:26:02Z</time>
      </trkpt>
      <trkpt lat="46.46126" lon="5.4403">
        <ele>416</ele>
        <time>2019-02-14T02:27:02Z</time>
      </trkpt>
      <trkpt lat="46.46125" lon="5.44014">
        <ele>416</ele>
        <time>2019-02-14T02:28:02Z</time>
      </trkpt>
      <trkpt lat="46.46126" lon="5.43998">
        <ele>416</ele>
        <time>2019-02-14T02:29:02Z</time>
      </trkpt>
      <trkpt lat="46.46129" lon="5.43982">
        <ele>417</ele>
        <time>2019-02-14T02:30:02Z</time>
      </trkpt>
      <trkpt lat="46.46134" lon="5.43961">
        <ele>418</ele>
        <time>2019-02-14T02:31:02Z</time>
      </trkpt>
      <trkpt lat="46.46134" lon="5.43958">
        <ele>418</ele>
        <time>2019-02-14T02:32:02Z</time>
      </trkpt>
      <trkpt lat="46.46143" lon="5.43926">
        <ele>420</ele>
        <time>2019-02-14T02:33:02Z</time>
      </trkpt>
      <trkpt lat="46.46151" lon="5.43893">
        <ele>421</ele>
        <time>2019-02-14T02:34:02Z</time>
      </trkpt>
      <trkpt lat="46.46159" lon="5.43866">
        <ele>422</ele>
        <time>2019-02-14T02:35:02Z</time>
      </trkpt>
      <trkpt lat="46.46163" lon="5.4385">
        <ele>423</ele>
        <time>2019-02-14T02:36:02Z</time>
      </trkpt>
      <trkpt lat="46.46169" lon="5.43825">
        <ele>423</ele>
        <time>2019-02-14T02:37:02Z</time>
      </trkpt>
      <trkpt lat="46.46176" lon="5.43803">
        <ele>424</ele>
        <time>2019-02-14T02:38:02Z</time>
      </trkpt>
      <trkpt lat="46.46176" lon="5.438">
        <ele>424</ele>
        <time>2019-02-14T02:39:02Z</time>
      </trkpt>
      <trkpt lat="46.46181" lon="5.43782">
        <ele>425</ele>
        <time>2019-02-14T02:40:02Z</time>
      </trkpt>
      <trkpt lat="46.46185" lon="5.43763">
        <ele>426</ele>
        <time>2019-02-14T02:41:02Z</time>
      </trkpt>
      <trkpt lat="46.46186" lon="5.43757">
        <ele>426</ele>
        <time>2019-02-14T02:42:02Z</time>
      </trkpt>
      <trkpt lat="46.46188" lon="5.43722">
        <ele>426</ele>
        <time>2019-02-14T02:43:02Z</time>
      </trkpt>
      <trkpt lat="46.46187" lon="5.43707">
        <ele>426</ele>
        <time>2019-02-14T02:44:02Z</time>
      </trkpt>
      <trkpt lat="46.46185" lon="5.43693">
        <ele>427</ele>
        <time>2019-02-14T02:45:02Z</time>
      </trkpt>
      <trkpt lat="46.46182" lon="5.43678">
        <ele>427</ele>
        <time>2019-02-14T02:46:02Z</time>
      </trkpt>
      <trkpt lat="46.46179" lon="5.43664">
        <ele>426</ele>
        <time>2019-02-14T02:47:02Z</time>
      </trkpt>
      <trkpt lat="46.46174" lon="5.43651">
        <ele>425</ele>
        <time>2019-02-14T02:48:02Z</time>
      </trkpt>
      <trkpt lat="46.46168" lon="5.43638">
        <ele>424</ele>
        <time>2019-02-14T02:49:02Z</time>
      </trkpt>
      <trkpt lat="46.46162" lon="5.43626">
        <ele>424</ele>
        <time>2019-02-14T02:50:02Z</time>
      </trkpt>
      <trkpt lat="46.46156" lon="5.43615">
        <ele>423</ele>
        <time>2019-02-14T02:51:02Z</time>
      </trkpt>
      <trkpt lat="46.46149" lon="5.43605">
        <ele>423</ele>
        <time>2019-02-14T02:52:02Z</time>
      </trkpt>
      <trkpt lat="46.46141" lon="5.43597">
        <ele>423</ele>
        <time>2019-02-14T02:53:02Z</time>
      </trkpt>
      <trkpt lat="46.46133" lon="5.4359">
        <ele>423</ele>
        <time>2019-02-14T02:54:02Z</time>
      </trkpt>
      <trkpt lat="46.46128" lon="5.43586">
        <ele>423</ele>
        <time>2019-02-14T02:55:02Z</time>
      </trkpt>
      <trkpt lat="46.46124" lon="5.43583">
        <ele>423</ele>
        <time>2019-02-14T02:56:02Z</time>
      </trkpt>
      <trkpt lat="46.46115" lon="5.43578">
        <ele>422</ele>
        <time>2019-02-14T02:57:02Z</time>
      </trkpt>
      <trkpt lat="46.46105" lon="5.43574">
        <ele>422</ele>
        <time>2019-02-14T02:58:02Z</time>
      </trkpt>
      <trkpt lat="46.46094" lon="5.43572">
        <ele>423</ele>
        <time>2019-02-14T02:59:02Z</time>
      </trkpt>
      <trkpt lat="46.46083" lon="5.4357">
        <ele>423</ele>
        <time>2019-02-14T03:00:02Z</time>
      </trkpt>
      <trkpt lat="46.46073" lon="5.4357">
        <ele>423</ele>
        <time>2019-02-14T03:01:02Z</time>
      </trkpt>
      <trkpt lat="46.46061" lon="5.43569">
        <ele>423</ele>
        <time>2019-02-14T03:02:02Z</time>
      </trkpt>
      <trkpt lat="46.4605" lon="5.43568">
        <ele>423</ele>
        <time>2019-02-14T03:03:02Z</time>
      </trkpt>
      <trkpt lat="46.46039" lon="5.43567">
        <ele>423</ele>
        <time>2019-02-14T03:04:02Z</time>
      </trkpt>
      <trkpt lat="46.46028" lon="5.43565">
        <ele>423</ele>
        <time>2019-02-14T03:05:02Z</time>
      </trkpt>
      <trkpt lat="46.46004" lon="5.43557">
        <ele>422</ele>
        <time>2019-02-14T03:06:02Z</time>
      </trkpt>
      <trkpt lat="46.45981" lon="5.43543">
        <ele>421</ele>
        <time>2019-02-14T03:07:02Z</time>
      </trkpt>
      <trkpt lat="46.45939" lon="5.43509">
        <ele>419</ele>
        <time>2019-02-14T03:08:02Z</time>
      </trkpt>
      <trkpt lat="46.45909" lon="5.43488">
        <ele>418</ele>
        <time>2019-02-14T03:09:02Z</time>
      </trkpt>
      <trkpt lat="46.45888" lon="5.4347">
        <ele>416</ele>
        <time>2019-02-14T03:10:02Z</time>
      </trkpt>
      <trkpt lat="46.45847" lon="5.43438">
        <ele>413</ele>
        <time>2019-02-14T03:11:02Z</time>
      </trkpt>
      <trkpt lat="46.45827" lon="5.43423">
        <ele>412</ele>
        <time>2019-02-14T03:12:02Z</time>
      </trkpt>
      <trkpt lat="46.45805" lon="5.43406">
        <ele>412</ele>
        <time>2019-02-14T03:13:02Z</time>
      </trkpt>
      <trkpt lat="46.45788" lon="5.43393">
        <ele>411</ele>
        <time>2019-02-14T03:14:02Z</time>
      </trkpt>
      <trkpt lat="46.45772" lon="5.4338">
        <ele>410</ele>
        <time>2019-02-14T03:15:02Z</time>
      </trkpt>
      <trkpt lat="46.4576" lon="5.43372">
        <ele>410</ele>
        <time>2019-02-14T03:16:02Z</time>
      </trkpt>
      <trkpt lat="46.4575" lon="5.43364">
        <ele>409</ele>
        <time>2019-02-14T03:17:02Z</time>
      </trkpt>
      <trkpt lat="46.45744" lon="5.4336">
        <ele>409</ele>
        <time>2019-02-14T03:18:02Z</time>
      </trkpt>
      <trkpt lat="46.45738" lon="5.43354">
        <ele>409</ele>
        <time>2019-02-14T03:19:02Z</time>
      </trkpt>
      <trkpt lat="46.45732" lon="5.43346">
        <ele>409</ele>
        <time>2019-02-14T03:20:02Z</time>
      </trkpt>
      <trkpt lat="46.45726" lon="5.43336">
        <ele>408</ele>
        <time>2019-02-14T03:21:02Z</time>
      </trkpt>
      <trkpt lat="46.45719" lon="5.43324">
        <ele>408</ele>
        <time>2019-02-14T03:22:02Z</time>
      </trkpt>
      <trkpt lat="46.45713" lon="5.4331">
        <ele>408</ele>
        <time>2019-02-14T03:23:02Z</time>
      </trkpt>
      <trkpt lat="46.45706" lon="5.43295">
        <ele>408</ele>
        <time>2019-02-14T03:24:02Z</time>
      </trkpt>
      <trkpt lat="46.45698" lon="5.43275">
        <ele>407</ele>
        <time>2019-02-14T03:25:02Z</time>
      </trkpt>
      <trkpt lat="46.45685" lon="5.43245">
        <ele>406</ele>
        <time>2019-02-14T03:26:02Z</time>
      </trkpt>
      <trkpt lat="46.45672" lon="5.43217">
        <ele>406</ele>
        <time>2019-02-14T03:27:02Z</time>
      </trkpt>
      <trkpt lat="46.4566" lon="5.43192">
        <ele>405</ele>
        <time>2019-02-14T03:28:02Z</time>
      </trkpt>
      <trkpt lat="46.45656" lon="5.43181">
        <ele>405</ele>
        <time>2019-02-14T03:29:02Z</time>
      </trkpt>
      <trkpt lat="46.4565" lon="5.43166">
        <ele>404</ele>
        <time>2019-02-14T03:30:02Z</time>
      </trkpt>
      <trkpt lat="46.45618" lon="5.43099">
        <ele>405</ele>
        <time>2019-02-14T03:31:02Z</time>
      </trkpt>
      <trkpt lat="46.45607" lon="5.43078">
        <ele>405</ele>
        <time>2019-02-14T03:32:02Z</time>
      </trkpt>
      <trkpt lat="46.45601" lon="5.43065">
        <ele>405</ele>
        <time>2019-02-14T03:33:02Z</time>
      </trkpt>
      <trkpt lat="46.45594" lon="5.43049">
        <ele>406</ele>
        <time>2019-02-14T03:34:02Z</time>
      </trkpt>
      <trkpt lat="46.45587" lon="5.43036">
        <ele>406</ele>
        <time>2019-02-14T03:35:02Z</time>
      </trkpt>
      <trkpt lat="46.45581" lon="5.43026">
        <ele>406</ele>
        <time>2019-02-14T03:36:02Z</time>
      </trkpt>
      <trkpt lat="46.45575" lon="5.43015">
        <ele>406</ele>
        <time>2019-02-14T03:37:02Z</time>
      </trkpt>
      <trkpt lat="46.4557" lon="5.43005">
        <ele>406</ele>
        <time>2019-02-14T03:38:02Z</time>
      </trkpt>
      <trkpt lat="46.45565" lon="5.42997">
        <ele>407</ele>
        <time>2019-02-14T03:39:02Z</time>
      </trkpt>
      <trkpt lat="46.45554" lon="5.42981">
        <ele>408</ele>
        <time>2019-02-14T03:40:02Z</time>
      </trkpt>
      <trkpt lat="46.45541" lon="5.42965">
        <ele>409</ele>
        <time>2019-02-14T03:41:02Z</time>
      </trkpt>
      <trkpt lat="46.4553" lon="5.42951">
        <ele>410</ele>
        <time>2019-02-14T03:42:02Z</time>
      </trkpt>
      <trkpt lat="46.45524" lon="5.42944">
        <ele>410</ele>
        <time>2019-02-14T03:43:02Z</time>
      </trkpt>
      <trkpt lat="46.45521" lon="5.42939">
        <ele>411</ele>
        <time>2019-02-14T03:44:02Z</time>
      </trkpt>
      <trkpt lat="46.4551" lon="5.42925">
        <ele>411</ele>
        <time>2019-02-14T03:45:02Z</time>
      </trkpt>
      <trkpt lat="46.45502" lon="5.42914">
        <ele>412</ele>
        <time>2019-02-14T03:46:02Z</time>
      </trkpt>
      <trkpt lat="46.45495" lon="5.42905">
        <ele>412</ele>
        <time>2019-02-14T03:47:02Z</time>
      </trkpt>
      <trkpt lat="46.45487" lon="5.42894">
        <ele>413</ele>
        <time>2019-02-14T03:48:02Z</time>
      </trkpt>
      <trkpt lat="46.4548" lon="5.42884">
        <ele>413</ele>
        <time>2019-02-14T03:49:02Z</time>
      </trkpt>
      <trkpt lat="46.45471" lon="5.42874">
        <ele>414</ele>
        <time>2019-02-14T03:50:02Z</time>
      </trkpt>
      <trkpt lat="46.45463" lon="5.42864">
        <ele>414</ele>
        <time>2019-02-14T03:51:02Z</time>
      </trkpt>
      <trkpt lat="46.45455" lon="5.42857">
        <ele>414</ele>
        <time>2019-02-14T03:52:02Z</time>
      </trkpt>
      <trkpt lat="46.45449" lon="5.42851">
        <ele>414</ele>
        <time>2019-02-14T03:53:02Z</time>
      </trkpt>
      <trkpt lat="46.45438" lon="5.42838">
        <ele>415</ele>
        <time>2019-02-14T03:54:02Z</time>
      </trkpt>
      <trkpt lat="46.45431" lon="5.42832">
        <ele>415</ele>
        <time>2019-02-14T03:55:02Z</time>
      </trkpt>
      <trkpt lat="46.45423" lon="5.42825">
        <ele>414</ele>
        <time>2019-02-14T03:56:02Z</time>
      </trkpt>
      <trkpt lat="46.45404" lon="5.42805">
        <ele>414</ele>
        <time>2019-02-14T03:57:02Z</time>
      </trkpt>
      <trkpt lat="46.45397" lon="5.42796">
        <ele>414</ele>
        <time>2019-02-14T03:58:02Z</time>
      </trkpt>
      <trkpt lat="46.45387" lon="5.42786">
        <ele>414</ele>
        <time>2019-02-14T03:59:02Z</time>
      </trkpt>
      <trkpt lat="46.45368" lon="5.42762">
        <ele>415</ele>
        <time>2019-02-14T04:00:02Z</time>
      </trkpt>
      <trkpt lat="46.45355" lon="5.42739">
        <ele>416</ele>
        <time>2019-02-14T04:01:02Z</time>
      </trkpt>
      <trkpt lat="46.45345" lon="5.42721">
        <ele>416</ele>
        <time>2019-02-14T04:02:02Z</time>
      </trkpt>
      <trkpt lat="46.45333" lon="5.427">
        <ele>415</ele>
        <time>2019-02-14T04:03:02Z</time>
      </trkpt>
      <trkpt lat="46.45323" lon="5.42683">
        <ele>415</ele>
        <time>2019-02-14T04:04:02Z</time>
      </trkpt>
      <trkpt lat="46.45315" lon="5.42668">
        <ele>415</ele>
        <time>2019-02-14T04:05:02Z</time>
      </trkpt>
      <trkpt lat="46.45302" lon="5.42645">
        <ele>416</ele>
        <time>2019-02-14T04:06:02Z</time>
      </trkpt>
      <trkpt lat="46.45286" lon="5.42616">
        <ele>417</ele>
        <time>2019-02-14T04:07:02Z</time>
      </trkpt>
      <trkpt lat="46.4526" lon="5.42569">
        <ele>418</ele>
        <time>2019-02-14T04:08:02Z</time>
      </trkpt>
      <trkpt lat="46.45251" lon="5.42552">
        <ele>419</ele>
        <time>2019-02-14T04:09:02Z</time>
      </trkpt>
      <trkpt lat="46.45243" lon="5.42536">
        <ele>419</ele>
        <time>2019-02-14T04:10:02Z</time>
      </trkpt>
      <trkpt lat="46.45236" lon="5.42524">
        <ele>419</ele>
        <time>2019-02-14T04:11:02Z</time>
      </trkpt>
      <trkpt lat="46.4522" lon="5.42498">
        <ele>420</ele>
        <time>2019-02-14T04:12:02Z</time>
      </trkpt>
      <trkpt lat="46.452" lon="5.42458">
        <ele>422</ele>
        <time>2019-02-14T04:13:02Z</time>
      </trkpt>
      <trkpt lat="46.45187" lon="5.42436">
        <ele>423</ele>
        <time>2019-02-14T04:14:02Z</time>
      </trkpt>
      <trkpt lat="46.45179" lon="5.42422">
        <ele>423</ele>
        <time>2019-02-14T04:15:02Z</time>
      </trkpt>
      <trkpt lat="46.45174" lon="5.42413">
        <ele>424</ele>
        <time>2019-02-14T04:16:02Z</time>
      </trkpt>
      <trkpt lat="46.45154" lon="5.4238">
        <ele>426</ele>
        <time>2019-02-14T04:17:02Z</time>
      </trkpt>
      <trkpt lat="46.4515" lon="5.42374">
        <ele>427</ele>
        <time>2019-02-14T04:18:02Z</time>
      </trkpt>
      <trkpt lat="46.45143" lon="5.42367">
        <ele>427</ele>
        <time>2019-02-14T04:19:02Z</time>
      </trkpt>
      <trkpt lat="46.45135" lon="5.42359">
        <ele>427</ele>
        <time>2019-02-14T04:20:02Z</time>
      </trkpt>
      <trkpt lat="46.45129" lon="5.42352">
        <ele>428</ele>
        <time>2019-02-14T04:21:02Z</time>
      </trkpt>
      <trkpt lat="46.45124" lon="5.42347">
        <ele>428</ele>
        <time>2019-02-14T04:22:02Z</time>
      </trkpt>
      <trkpt lat="46.45118" lon="5.42336">
        <ele>428</ele>
        <time>2019-02-14T04:23:02Z</time>
      </trkpt>
      <trkpt lat="46.45112" lon="5.42325">
        <ele>429</ele>
        <time>2019-02-14T04:24:02Z</time>
      </trkpt>
      <trkpt lat="46.45107" lon="5.42318">
        <ele>429</ele>
        <time>2019-02-14T04:25:02Z</time>
      </trkpt>
      <trkpt lat="46.45101" lon="5.42311">
        <ele>429</ele>
        <time>2019-02-14T04:26:02Z</time>
      </trkpt>
      <trkpt lat="46.45095" lon="5.42304">
        <ele>429</ele>
        <time>2019-02-14T04:27:02Z</time>
      </trkpt>
      <trkpt lat="46.4509" lon="5.42295">
        <ele>429</ele>
        <time>2019-02-14T04:28:02Z</time>
      </trkpt>
      <trkpt lat="46.45086" lon="5.42285">
        <ele>429</ele>
        <time>2019-02-14T04:29:02Z</time>
      </trkpt>
      <trkpt lat="46.45084" lon="5.42277">
        <ele>429</ele>
        <time>2019-02-14T04:30:02Z</time>
      </trkpt>
      <trkpt lat="46.45083" lon="5.42267">
        <ele>429</ele>
        <time>2019-02-14T04:31:02Z</time>
      </trkpt>
      <trkpt lat="46.45082" lon="5.42259">
        <ele>430</ele>
        <time>2019-02-14T04:32:02Z</time>
      </trkpt>
      <trkpt lat="46.45081" lon="5.42255">
        <ele>430</ele>
        <time>2019-02-14T04:33:02Z</time>
      </trkpt>
      <trkpt lat="46.45079" lon="5.42223">
        <ele>431</ele>
        <time>2019-02-14T04:34:02Z</time>
      </trkpt>
      <trkpt lat="46.45077" lon="5.42206">
        <ele>431</ele>
        <time>2019-02-14T04:35:02Z</time>
      </trkpt>
      <trkpt lat="46.45073" lon="5.42192">
        <ele>432</ele>
        <time>2019-02-14T04:36:02Z</time>
      </trkpt>
      <trkpt lat="46.4507" lon="5.42176">
        <ele>432</ele>
        <time>2019-02-14T04:37:02Z</time>
      </trkpt>
      <trkpt lat="46.45066" lon="5.42164">
        <ele>432</ele>
        <time>2019-02-14T04:38:02Z</time>
      </trkpt>
      <trkpt lat="46.45062" lon="5.42153">
        <ele>433</ele>
        <time>2019-02-14T04:39:02Z</time>
      </trkpt>
      <trkpt lat="46.45055" lon="5.42133">
        <ele>435</ele>
        <time>2019-02-14T04:40:02Z</time>
      </trkpt>
      <trkpt lat="46.45047" lon="5.42105">
        <ele>437</ele>
        <time>2019-02-14T04:41:02Z</time>
      </trkpt>
      <trkpt lat="46.45031" lon="5.4208">
        <ele>437</ele>
        <time>2019-02-14T04:42:02Z</time>
      </trkpt>
      <trkpt lat="46.45026" lon="5.42069">
        <ele>438</ele>
        <time>2019-02-14T04:43:02Z</time>
      </trkpt>
      <trkpt lat="46.45003" lon="5.42032">
        <ele>438</ele>
        <time>2019-02-14T04:44:02Z</time>
      </trkpt>
      <trkpt lat="46.44991" lon="5.42014">
        <ele>438</ele>
        <time>2019-02-14T04:45:02Z</time>
      </trkpt>
      <trkpt lat="46.44983" lon="5.42">
        <ele>439</ele>
        <time>2019-02-14T04:46:02Z</time>
      </trkpt>
      <trkpt lat="46.44973" lon="5.41985">
        <ele>438</ele>
        <time>2019-02-14T04:47:02Z</time>
      </trkpt>
      <trkpt lat="46.44966" lon="5.41973">
        <ele>437</ele>
        <time>2019-02-14T04:48:02Z</time>
      </trkpt>
      <trkpt lat="46.4496" lon="5.41962">
        <ele>436</ele>
        <time>2019-02-14T04:49:02Z</time>
      </trkpt>
      <trkpt lat="46.44956" lon="5.41948">
        <ele>436</ele>
        <time>2019-02-14T04:50:02Z</time>
      </trkpt>
      <trkpt lat="46.44954" lon="5.41934">
        <ele>436</ele>
        <time>2019-02-14T04:51:02Z</time>
      </trkpt>
      <trkpt lat="46.44954" lon="5.41922">
        <ele>436</ele>
        <time>2019-02-14T04:52:02Z</time>
      </trkpt>
      <trkpt lat="46.44955" lon="5.41907">
        <ele>436</ele>
        <time>2019-02-14T04:53:02Z</time>
      </trkpt>
      <trkpt lat="46.44958" lon="5.41892">
        <ele>437</ele>
        <time>2019-02-14T04:54:02Z</time>
      </trkpt>
      <trkpt lat="46.44961" lon="5.41876">
        <ele>437</ele>
        <time>2019-02-14T04:56:02Z</time>
      </trkpt>
      <trkpt lat="46.44966" lon="5.41862">
        <ele>438</ele>
        <time>2019-02-14T04:57:02Z</time>
      </trkpt>
      <trkpt lat="46.44973" lon="5.41845">
        <ele>439</ele>
        <time>2019-02-14T04:58:02Z</time>
      </trkpt>
      <trkpt lat="46.44979" lon="5.41833">
        <ele>439</ele>
        <time>2019-02-14T04:59:02Z</time>
      </trkpt>
      <trkpt lat="46.44985" lon="5.41823">
        <ele>439</ele>
        <time>2019-02-14T05:00:02Z</time>
      </trkpt>
      <trkpt lat="46.44994" lon="5.41814">
        <ele>439</ele>
        <time>2019-02-14T05:01:02Z</time>
      </trkpt>
      <trkpt lat="46.45003" lon="5.41808">
        <ele>439</ele>
        <time>2019-02-14T05:02:02Z</time>
      </trkpt>
      <trkpt lat="46.45013" lon="5.41803">
        <ele>439</ele>
        <time>2019-02-14T05:03:02Z</time>
      </trkpt>
      <trkpt lat="46.45024" lon="5.41801">
        <ele>439</ele>
        <time>2019-02-14T05:04:02Z</time>
      </trkpt>
      <trkpt lat="46.45035" lon="5.41803">
        <ele>440</ele>
        <time>2019-02-14T05:05:02Z</time>
      </trkpt>
      <trkpt lat="46.45049" lon="5.41807">
        <ele>442</ele>
        <time>2019-02-14T05:06:02Z</time>
      </trkpt>
      <trkpt lat="46.45062" lon="5.41811">
        <ele>443</ele>
        <time>2019-02-14T05:07:02Z</time>
      </trkpt>
      <trkpt lat="46.45077" lon="5.41812">
        <ele>445</ele>
        <time>2019-02-14T05:08:02Z</time>
      </trkpt>
      <trkpt lat="46.45094" lon="5.41811">
        <ele>446</ele>
        <time>2019-02-14T05:09:02Z</time>
      </trkpt>
      <trkpt lat="46.45111" lon="5.41809">
        <ele>448</ele>
        <time>2019-02-14T05:10:02Z</time>
      </trkpt>
      <trkpt lat="46.45126" lon="5.41804">
        <ele>449</ele>
        <time>2019-02-14T05:11:02Z</time>
      </trkpt>
      <trkpt lat="46.45137" lon="5.418">
        <ele>449</ele>
        <time>2019-02-14T05:12:02Z</time>
      </trkpt>
      <trkpt lat="46.45151" lon="5.41792">
        <ele>449</ele>
        <time>2019-02-14T05:13:02Z</time>
      </trkpt>
      <trkpt lat="46.45162" lon="5.41784">
        <ele>448</ele>
        <time>2019-02-14T05:14:02Z</time>
      </trkpt>
      <trkpt lat="46.45172" lon="5.41773">
        <ele>447</ele>
        <time>2019-02-14T05:15:02Z</time>
      </trkpt>
      <trkpt lat="46.45182" lon="5.41759">
        <ele>446</ele>
        <time>2019-02-14T05:16:02Z</time>
      </trkpt>
      <trkpt lat="46.4519" lon="5.41745">
        <ele>445</ele>
        <time>2019-02-14T05:17:02Z</time>
      </trkpt>
      <trkpt lat="46.45198" lon="5.41728">
        <ele>445</ele>
        <time>2019-02-14T05:18:02Z</time>
      </trkpt>
      <trkpt lat="46.45206" lon="5.41707">
        <ele>444</ele>
        <time>2019-02-14T05:19:02Z</time>
      </trkpt>
      <trkpt lat="46.45211" lon="5.41693">
        <ele>444</ele>
        <time>2019-02-14T05:20:02Z</time>
      </trkpt>
      <trkpt lat="46.45217" lon="5.41675">
        <ele>443</ele>
        <time>2019-02-14T05:21:02Z</time>
      </trkpt>
      <trkpt lat="46.45222" lon="5.41658">
        <ele>443</ele>
        <time>2019-02-14T05:22:02Z</time>
      </trkpt>
      <trkpt lat="46.45226" lon="5.41641">
        <ele>444</ele>
        <time>2019-02-14T05:23:02Z</time>
      </trkpt>
      <trkpt lat="46.45232" lon="5.41614">
        <ele>445</ele>
        <time>2019-02-14T05:24:02Z</time>
      </trkpt>
      <trkpt lat="46.45234" lon="5.41601">
        <ele>445</ele>
        <time>2019-02-14T05:25:02Z</time>
      </trkpt>
      <trkpt lat="46.45238" lon="5.41584">
        <ele>445</ele>
        <time>2019-02-14T05:26:02Z</time>
      </trkpt>
      <trkpt lat="46.45242" lon="5.41572">
        <ele>445</ele>
        <time>2019-02-14T05:27:02Z</time>
      </trkpt>
      <trkpt lat="46.45246" lon="5.41561">
        <ele>445</ele>
        <time>2019-02-14T05:28:02Z</time>
      </trkpt>
      <trkpt lat="46.45249" lon="5.41556">
        <ele>444</ele>
        <time>2019-02-14T05:29:02Z</time>
      </trkpt>
      <trkpt lat="46.45254" lon="5.4155">
        <ele>444</ele>
        <time>2019-02-14T05:30:02Z</time>
      </trkpt>
      <trkpt lat="46.45261" lon="5.41542">
        <ele>444</ele>
        <time>2019-02-14T05:31:02Z</time>
      </trkpt>
      <trkpt lat="46.4527" lon="5.41534">
        <ele>444</ele>
        <time>2019-02-14T05:32:02Z</time>
      </trkpt>
      <trkpt lat="46.45275" lon="5.41532">
        <ele>443</ele>
        <time>2019-02-14T05:33:02Z</time>
      </trkpt>
      <trkpt lat="46.45281" lon="5.41529">
        <ele>443</ele>
        <time>2019-02-14T05:34:02Z</time>
      </trkpt>
      <trkpt lat="46.45289" lon="5.41527">
        <ele>443</ele>
        <time>2019-02-14T05:35:02Z</time>
      </trkpt>
      <trkpt lat="46.453" lon="5.41526">
        <ele>443</ele>
        <time>2019-02-14T05:36:02Z</time>
      </trkpt>
      <trkpt lat="46.4531" lon="5.41527">
        <ele>444</ele>
        <time>2019-02-14T05:37:02Z</time>
      </trkpt>
      <trkpt lat="46.45319" lon="5.4153">
        <ele>444</ele>
        <time>2019-02-14T05:38:02Z</time>
      </trkpt>
      <trkpt lat="46.4533" lon="5.41533">
        <ele>445</ele>
        <time>2019-02-14T05:39:02Z</time>
      </trkpt>
      <trkpt lat="46.45342" lon="5.41534">
        <ele>446</ele>
        <time>2019-02-14T05:40:02Z</time>
      </trkpt>
      <trkpt lat="46.45353" lon="5.41535">
        <ele>446</ele>
        <time>2019-02-14T05:41:02Z</time>
      </trkpt>
      <trkpt lat="46.45367" lon="5.41535">
        <ele>447</ele>
        <time>2019-02-14T05:42:02Z</time>
      </trkpt>
      <trkpt lat="46.45382" lon="5.41533">
        <ele>448</ele>
        <time>2019-02-14T05:43:02Z</time>
      </trkpt>
      <trkpt lat="46.45398" lon="5.4153">
        <ele>448</ele>
        <time>2019-02-14T05:44:02Z</time>
      </trkpt>
      <trkpt lat="46.45415" lon="5.41523">
        <ele>448</ele>
        <time>2019-02-14T05:45:02Z</time>
      </trkpt>
      <trkpt lat="46.45435" lon="5.41514">
        <ele>449</ele>
        <time>2019-02-14T05:46:02Z</time>
      </trkpt>
      <trkpt lat="46.45461" lon="5.41504">
        <ele>450</ele>
        <time>2019-02-14T05:47:02Z</time>
      </trkpt>
      <trkpt lat="46.45481" lon="5.41496">
        <ele>452</ele>
        <time>2019-02-14T05:48:02Z</time>
      </trkpt>
      <trkpt lat="46.45499" lon="5.41488">
        <ele>453</ele>
        <time>2019-02-14T05:49:02Z</time>
      </trkpt>
      <trkpt lat="46.45518" lon="5.41479">
        <ele>454</ele>
        <time>2019-02-14T05:50:02Z</time>
      </trkpt>
      <trkpt lat="46.45534" lon="5.41469">
        <ele>455</ele>
        <time>2019-02-14T05:51:02Z</time>
      </trkpt>
      <trkpt lat="46.45545" lon="5.41461">
        <ele>455</ele>
        <time>2019-02-14T05:52:02Z</time>
      </trkpt>
      <trkpt lat="46.4556" lon="5.41451">
        <ele>456</ele>
        <time>2019-02-14T05:53:02Z</time>
      </trkpt>
      <trkpt lat="46.45573" lon="5.41443">
        <ele>456</ele>
        <time>2019-02-14T05:54:02Z</time>
      </trkpt>
      <trkpt lat="46.45578" lon="5.41436">
        <ele>455</ele>
        <time>2019-02-14T05:55:02Z</time>
      </trkpt>
      <trkpt lat="46.45587" lon="5.41425">
        <ele>455</ele>
        <time>2019-02-14T05:56:02Z</time>
      </trkpt>
      <trkpt lat="46.45598" lon="5.4141">
        <ele>456</ele>
        <time>2019-02-14T05:57:02Z</time>
      </trkpt>
      <trkpt lat="46.45602" lon="5.41402">
        <ele>456</ele>
        <time>2019-02-14T05:58:02Z</time>
      </trkpt>
      <trkpt lat="46.45611" lon="5.41386">
        <ele>457</ele>
        <time>2019-02-14T05:59:02Z</time>
      </trkpt>
      <trkpt lat="46.45617" lon="5.41373">
        <ele>457</ele>
        <time>2019-02-14T06:00:02Z</time>
      </trkpt>
      <trkpt lat="46.45622" lon="5.41359">
        <ele>456</ele>
        <time>2019-02-14T06:01:02Z</time>
      </trkpt>
      <trkpt lat="46.45628" lon="5.41348">
        <ele>456</ele>
        <time>2019-02-14T06:02:02Z</time>
      </trkpt>
      <trkpt lat="46.45634" lon="5.41336">
        <ele>456</ele>
        <time>2019-02-14T06:03:02Z</time>
      </trkpt>
      <trkpt lat="46.45641" lon="5.41324">
        <ele>456</ele>
        <time>2019-02-14T06:04:02Z</time>
      </trkpt>
      <trkpt lat="46.45649" lon="5.41313">
        <ele>456</ele>
        <time>2019-02-14T06:05:02Z</time>
      </trkpt>
      <trkpt lat="46.45659" lon="5.413">
        <ele>456</ele>
        <time>2019-02-14T06:06:02Z</time>
      </trkpt>
      <trkpt lat="46.45668" lon="5.41288">
        <ele>456</ele>
        <time>2019-02-14T06:07:02Z</time>
      </trkpt>
      <trkpt lat="46.45677" lon="5.41277">
        <ele>456</ele>
        <time>2019-02-14T06:08:02Z</time>
      </trkpt>
      <trkpt lat="46.45705" lon="5.41243">
        <ele>458</ele>
        <time>2019-02-14T06:09:02Z</time>
      </trkpt>
      <trkpt lat="46.45729" lon="5.41214">
        <ele>459</ele>
        <time>2019-02-14T06:10:02Z</time>
      </trkpt>
      <trkpt lat="46.45739" lon="5.41202">
        <ele>459</ele>
        <time>2019-02-14T06:11:02Z</time>
      </trkpt>
      <trkpt lat="46.45748" lon="5.41189">
        <ele>458</ele>
        <time>2019-02-14T06:12:02Z</time>
      </trkpt>
      <trkpt lat="46.45753" lon="5.4118">
        <ele>458</ele>
        <time>2019-02-14T06:13:02Z</time>
      </trkpt>
      <trkpt lat="46.4576" lon="5.41162">
        <ele>458</ele>
        <time>2019-02-14T06:14:02Z</time>
      </trkpt>
      <trkpt lat="46.45765" lon="5.41146">
        <ele>458</ele>
        <time>2019-02-14T06:15:02Z</time>
      </trkpt>
      <trkpt lat="46.45771" lon="5.41122">
        <ele>458</ele>
        <time>2019-02-14T06:16:02Z</time>
      </trkpt>
      <trkpt lat="46.45776" lon="5.41098">
        <ele>458</ele>
        <time>2019-02-14T06:17:02Z</time>
      </trkpt>
      <trkpt lat="46.4578" lon="5.41081">
        <ele>457</ele>
        <time>2019-02-14T06:18:02Z</time>
      </trkpt>
      <trkpt lat="46.45785" lon="5.41062">
        <ele>458</ele>
        <time>2019-02-14T06:19:02Z</time>
      </trkpt>
      <trkpt lat="46.45792" lon="5.41037">
        <ele>458</ele>
        <time>2019-02-14T06:20:02Z</time>
      </trkpt>
      <trkpt lat="46.458" lon="5.4101">
        <ele>457</ele>
        <time>2019-02-14T06:21:02Z</time>
      </trkpt>
      <trkpt lat="46.45808" lon="5.40983">
        <ele>457</ele>
        <time>2019-02-14T06:22:02Z</time>
      </trkpt>
      <trkpt lat="46.45813" lon="5.40965">
        <ele>457</ele>
        <time>2019-02-14T06:23:02Z</time>
      </trkpt>
      <trkpt lat="46.45817" lon="5.40948">
        <ele>458</ele>
        <time>2019-02-14T06:24:02Z</time>
      </trkpt>
      <trkpt lat="46.4582" lon="5.40931">
        <ele>458</ele>
        <time>2019-02-14T06:25:02Z</time>
      </trkpt>
      <trkpt lat="46.45825" lon="5.40908">
        <ele>458</ele>
        <time>2019-02-14T06:26:02Z</time>
      </trkpt>
      <trkpt lat="46.45829" lon="5.40888">
        <ele>458</ele>
        <time>2019-02-14T06:27:02Z</time>
      </trkpt>
      <trkpt lat="46.45833" lon="5.40863">
        <ele>458</ele>
        <time>2019-02-14T06:28:02Z</time>
      </trkpt>
      <trkpt lat="46.45838" lon="5.40839">
        <ele>459</ele>
        <time>2019-02-14T06:29:02Z</time>
      </trkpt>
      <trkpt lat="46.4584" lon="5.40821">
        <ele>459</ele>
        <time>2019-02-14T06:30:02Z</time>
      </trkpt>
      <trkpt lat="46.45841" lon="5.40807">
        <ele>460</ele>
        <time>2019-02-14T06:31:02Z</time>
      </trkpt>
      <trkpt lat="46.45843" lon="5.40789">
        <ele>461</ele>
        <time>2019-02-14T06:32:02Z</time>
      </trkpt>
      <trkpt lat="46.45845" lon="5.40771">
        <ele>461</ele>
        <time>2019-02-14T06:33:02Z</time>
      </trkpt>
      <trkpt lat="46.45846" lon="5.40755">
        <ele>462</ele>
        <time>2019-02-14T06:34:02Z</time>
      </trkpt>
      <trkpt lat="46.45848" lon="5.40739">
        <ele>462</ele>
        <time>2019-02-14T06:35:02Z</time>
      </trkpt>
      <trkpt lat="46.4585" lon="5.40725">
        <ele>463</ele>
        <time>2019-02-14T06:36:02Z</time>
      </trkpt>
      <trkpt lat="46.45854" lon="5.40708">
        <ele>463</ele>
        <time>2019-02-14T06:37:02Z</time>
      </trkpt>
      <trkpt lat="46.4586" lon="5.40692">
        <ele>463</ele>
        <time>2019-02-14T06:38:02Z</time>
      </trkpt>
      <trkpt lat="46.45866" lon="5.40675">
        <ele>463</ele>
        <time>2019-02-14T06:39:02Z</time>
      </trkpt>
      <trkpt lat="46.45878" lon="5.40647">
        <ele>464</ele>
        <time>2019-02-14T06:40:02Z</time>
      </trkpt>
      <trkpt lat="46.45892" lon="5.40613">
        <ele>467</ele>
        <time>2019-02-14T06:41:02Z</time>
      </trkpt>
      <trkpt lat="46.459" lon="5.4059">
        <ele>470</ele>
        <time>2019-02-14T06:42:02Z</time>
      </trkpt>
      <trkpt lat="46.45909" lon="5.4057">
        <ele>471</ele>
        <time>2019-02-14T06:43:02Z</time>
      </trkpt>
      <trkpt lat="46.45917" lon="5.40552">
        <ele>470</ele>
        <time>2019-02-14T06:44:02Z</time>
      </trkpt>
      <trkpt lat="46.45925" lon="5.40536">
        <ele>471</ele>
        <time>2019-02-14T06:45:02Z</time>
      </trkpt>
      <trkpt lat="46.45948" lon="5.40502">
        <ele>473</ele>
        <time>2019-02-14T06:46:02Z</time>
      </trkpt>
      <trkpt lat="46.45969" lon="5.40471">
        <ele>476</ele>
        <time>2019-02-14T06:47:02Z</time>
      </trkpt>
      <trkpt lat="46.45981" lon="5.4045">
        <ele>478</ele>
        <time>2019-02-14T06:48:02Z</time>
      </trkpt>
      <trkpt lat="46.4599" lon="5.40434">
        <ele>479</ele>
        <time>2019-02-14T06:49:02Z</time>
      </trkpt>
      <trkpt lat="46.45998" lon="5.40417">
        <ele>480</ele>
        <time>2019-02-14T06:50:02Z</time>
      </trkpt>
      <trkpt lat="46.46001" lon="5.40409">
        <ele>481</ele>
        <time>2019-02-14T06:51:02Z</time>
      </trkpt>
      <trkpt lat="46.46006" lon="5.404">
        <ele>482</ele>
        <time>2019-02-14T06:52:02Z</time>
      </trkpt>
      <trkpt lat="46.46009" lon="5.4039">
        <ele>484</ele>
        <time>2019-02-14T06:53:02Z</time>
      </trkpt>
      <trkpt lat="46.46013" lon="5.4038">
        <ele>485</ele>
        <time>2019-02-14T06:54:02Z</time>
      </trkpt>
      <trkpt lat="46.46016" lon="5.40371">
        <ele>486</ele>
        <time>2019-02-14T06:55:02Z</time>
      </trkpt>
      <trkpt lat="46.46022" lon="5.40358">
        <ele>487</ele>
        <time>2019-02-14T06:56:02Z</time>
      </trkpt>
      <trkpt lat="46.46026" lon="5.40352">
        <ele>488</ele>
        <time>2019-02-14T06:57:02Z</time>
      </trkpt>
      <trkpt lat="46.46032" lon="5.40342">
        <ele>489</ele>
        <time>2019-02-14T06:58:02Z</time>
      </trkpt>
      <trkpt lat="46.4604" lon="5.40334">
        <ele>489</ele>
        <time>2019-02-14T06:59:02Z</time>
      </trkpt>
      <trkpt lat="46.4605" lon="5.40326">
        <ele>490</ele>
        <time>2019-02-14T07:00:02Z</time>
      </trkpt>
      <trkpt lat="46.4606" lon="5.40321">
        <ele>491</ele>
        <time>2019-02-14T07:01:02Z</time>
      </trkpt>
      <trkpt lat="46.46071" lon="5.40315">
        <ele>492</ele>
        <time>2019-02-14T07:02:02Z</time>
      </trkpt>
      <trkpt lat="46.46083" lon="5.4031">
        <ele>492</ele>
        <time>2019-02-14T07:03:02Z</time>
      </trkpt>
      <trkpt lat="46.46095" lon="5.40306">
        <ele>492</ele>
        <time>2019-02-14T07:04:02Z</time>
      </trkpt>
      <trkpt lat="46.4611" lon="5.40298">
        <ele>492</ele>
        <time>2019-02-14T07:05:02Z</time>
      </trkpt>
      <trkpt lat="46.46117" lon="5.40292">
        <ele>492</ele>
        <time>2019-02-14T07:06:02Z</time>
      </trkpt>
      <trkpt lat="46.46123" lon="5.40285">
        <ele>492</ele>
        <time>2019-02-14T07:07:02Z</time>
      </trkpt>
      <trkpt lat="46.4613" lon="5.40274">
        <ele>492</ele>
        <time>2019-02-14T07:08:02Z</time>
      </trkpt>
      <trkpt lat="46.4614" lon="5.40258">
        <ele>492</ele>
        <time>2019-02-14T07:09:02Z</time>
      </trkpt>
      <trkpt lat="46.46152" lon="5.40236">
        <ele>492</ele>
        <time>2019-02-14T07:10:02Z</time>
      </trkpt>
      <trkpt lat="46.46168" lon="5.40206">
        <ele>493</ele>
        <time>2019-02-14T07:11:02Z</time>
      </trkpt>
      <trkpt lat="46.46181" lon="5.4018">
        <ele>494</ele>
        <time>2019-02-14T07:12:02Z</time>
      </trkpt>
      <trkpt lat="46.46186" lon="5.40166">
        <ele>495</ele>
        <time>2019-02-14T07:13:02Z</time>
      </trkpt>
      <trkpt lat="46.46189" lon="5.40153">
        <ele>494</ele>
        <time>2019-02-14T07:14:02Z</time>
      </trkpt>
      <trkpt lat="46.46192" lon="5.40137">
        <ele>494</ele>
        <time>2019-02-14T07:15:02Z</time>
      </trkpt>
      <trkpt lat="46.46192" lon="5.40137">
        <ele>494</ele>
        <time>2019-02-14T07:16:02Z</time>
      </trkpt>
      <trkpt lat="46.462" lon="5.40138">
        <ele>493</ele>
        <time>2019-02-14T07:17:02Z</time>
      </trkpt>
      <trkpt lat="46.46206" lon="5.40136">
        <ele>493</ele>
        <time>2019-02-14T07:18:02Z</time>
      </trkpt>
      <trkpt lat="46.46212" lon="5.40131">
        <ele>493</ele>
        <time>2019-02-14T07:19:02Z</time>
      </trkpt>
      <trkpt lat="46.46227" lon="5.40115">
        <ele>492</ele>
        <time>2019-02-14T07:20:02Z</time>
      </trkpt>
      <trkpt lat="46.46245" lon="5.40098">
        <ele>492</ele>
        <time>2019-02-14T07:21:02Z</time>
      </trkpt>
      <trkpt lat="46.46251" lon="5.40094">
        <ele>493</ele>
        <time>2019-02-14T07:22:02Z</time>
      </trkpt>
      <trkpt lat="46.46259" lon="5.4009">
        <ele>493</ele>
        <time>2019-02-14T07:23:02Z</time>
      </trkpt>
      <trkpt lat="46.46268" lon="5.40089">
        <ele>494</ele>
        <time>2019-02-14T07:24:02Z</time>
      </trkpt>
      <trkpt lat="46.46289" lon="5.4009">
        <ele>495</ele>
        <time>2019-02-14T07:25:02Z</time>
      </trkpt>
      <trkpt lat="46.46311" lon="5.40093">
        <ele>496</ele>
        <time>2019-02-14T07:26:02Z</time>
      </trkpt>
      <trkpt lat="46.46328" lon="5.40093">
        <ele>497</ele>
        <time>2019-02-14T07:27:02Z</time>
      </trkpt>
      <trkpt lat="46.46339" lon="5.40091">
        <ele>498</ele>
        <time>2019-02-14T07:28:02Z</time>
      </trkpt>
      <trkpt lat="46.46357" lon="5.40088">
        <ele>499</ele>
        <time>2019-02-14T07:29:02Z</time>
      </trkpt>
      <trkpt lat="46.46383" lon="5.40084">
        <ele>501</ele>
        <time>2019-02-14T07:30:02Z</time>
      </trkpt>
      <trkpt lat="46.46415" lon="5.40079">
        <ele>503</ele>
        <time>2019-02-14T07:31:02Z</time>
      </trkpt>
      <trkpt lat="46.46442" lon="5.40073">
        <ele>503</ele>
        <time>2019-02-14T07:32:02Z</time>
      </trkpt>
      <trkpt lat="46.4646" lon="5.4007">
        <ele>504</ele>
        <time>2019-02-14T07:33:02Z</time>
      </trkpt>
      <trkpt lat="46.4648" lon="5.40068">
        <ele>504</ele>
        <time>2019-02-14T07:34:02Z</time>
      </trkpt>
      <trkpt lat="46.46492" lon="5.40068">
        <ele>504</ele>
        <time>2019-02-14T07:35:02Z</time>
      </trkpt>
      <trkpt lat="46.46503" lon="5.40068">
        <ele>504</ele>
        <time>2019-02-14T07:36:02Z</time>
      </trkpt>
      <trkpt lat="46.46522" lon="5.40078">
        <ele>504</ele>
        <time>2019-02-14T07:42:02Z</time>
      </trkpt>
      <trkpt lat="46.46538" lon="5.40086">
        <ele>504</ele>
        <time>2019-02-14T07:43:02Z</time>
      </trkpt>
      <trkpt lat="46.46568" lon="5.40102">
        <ele>504</ele>
        <time>2019-02-14T07:44:02Z</time>
      </trkpt>
      <trkpt lat="46.46605" lon="5.40121">
        <ele>506</ele>
        <time>2019-02-14T07:45:02Z</time>
      </trkpt>
      <trkpt lat="46.4663" lon="5.40133">
        <ele>508</ele>
        <time>2019-02-14T07:46:02Z</time>
      </trkpt>
      <trkpt lat="46.46647" lon="5.40142">
        <ele>510</ele>
        <time>2019-02-14T07:47:02Z</time>
      </trkpt>
      <trkpt lat="46.46673" lon="5.40157">
        <ele>512</ele>
        <time>2019-02-14T07:48:02Z</time>
      </trkpt>
      <trkpt lat="46.46704" lon="5.40171">
        <ele>515</ele>
        <time>2019-02-14T07:49:02Z</time>
      </trkpt>
      <trkpt lat="46.46731" lon="5.40184">
        <ele>517</ele>
        <time>2019-02-14T07:50:02Z</time>
      </trkpt>
      <trkpt lat="46.46773" lon="5.40206">
        <ele>519</ele>
        <time>2019-02-14T07:51:02Z</time>
      </trkpt>
      <trkpt lat="46.46816" lon="5.40229">
        <ele>523</ele>
        <time>2019-02-14T07:52:02Z</time>
      </trkpt>
      <trkpt lat="46.4684" lon="5.4024">
        <ele>524.5</ele>
        <time>2019-02-14T07:53:02Z</time>
      </trkpt>
      <trkpt lat="46.46891" lon="5.40266">
        <ele>526</ele>
        <time>2019-02-14T07:54:02Z</time>
      </trkpt>
      <trkpt lat="46.46904" lon="5.40274">
        <ele>526</ele>
        <time>2019-02-14T07:55:02Z</time>
      </trkpt>
      <trkpt lat="46.46914" lon="5.40279">
        <ele>527</ele>
        <time>2019-02-14T07:56:02Z</time>
      </trkpt>
      <trkpt lat="46.46915" lon="5.40279">
        <ele>527</ele>
        <time>2019-02-14T07:57:02Z</time>
      </trkpt>
      <trkpt lat="46.46915" lon="5.40279">
        <ele>527</ele>
        <time>2019-02-14T07:58:02Z</time>
      </trkpt>
      <trkpt lat="46.46964" lon="5.40304">
        <ele>527</ele>
        <time>2019-02-14T07:59:02Z</time>
      </trkpt>
      <trkpt lat="46.46971" lon="5.40307">
        <ele>527</ele>
        <time>2019-02-14T08:00:02Z</time>
      </trkpt>
      <trkpt lat="46.46976" lon="5.40309">
        <ele>528</ele>
        <time>2019-02-14T08:01:02Z</time>
      </trkpt>
      <trkpt lat="46.46994" lon="5.40315">
        <ele>529</ele>
        <time>2019-02-14T08:02:02Z</time>
      </trkpt>
      <trkpt lat="46.47008" lon="5.40319">
        <ele>530</ele>
        <time>2019-02-14T08:03:02Z</time>
      </trkpt>
      <trkpt lat="46.47021" lon="5.40322">
        <ele>530</ele>
        <time>2019-02-14T08:04:02Z</time>
      </trkpt>
      <trkpt lat="46.47044" lon="5.40324">
        <ele>529</ele>
        <time>2019-02-14T08:05:02Z</time>
      </trkpt>
      <trkpt lat="46.47083" lon="5.40326">
        <ele>529</ele>
        <time>2019-02-14T08:06:02Z</time>
      </trkpt>
      <trkpt lat="46.47117" lon="5.4033">
        <ele>528</ele>
        <time>2019-02-14T08:07:02Z</time>
      </trkpt>
      <trkpt lat="46.47145" lon="5.40337">
        <ele>528</ele>
        <time>2019-02-14T08:08:02Z</time>
      </trkpt>
      <trkpt lat="46.4716" lon="5.40341">
        <ele>528</ele>
        <time>2019-02-14T08:09:02Z</time>
      </trkpt>
      <trkpt lat="46.47177" lon="5.40348">
        <ele>527</ele>
        <time>2019-02-14T08:10:02Z</time>
      </trkpt>
      <trkpt lat="46.4719" lon="5.40354">
        <ele>526</ele>
        <time>2019-02-14T08:11:02Z</time>
      </trkpt>
      <trkpt lat="46.47194" lon="5.40358">
        <ele>527</ele>
        <time>2019-02-14T08:12:02Z</time>
      </trkpt>
      <trkpt lat="46.47205" lon="5.40367">
        <ele>526</ele>
        <time>2019-02-14T08:13:02Z</time>
      </trkpt>
      <trkpt lat="46.4721" lon="5.40374">
        <ele>527</ele>
        <time>2019-02-14T08:14:02Z</time>
      </trkpt>
      <trkpt lat="46.47219" lon="5.40387">
        <ele>527</ele>
        <time>2019-02-14T08:15:02Z</time>
      </trkpt>
      <trkpt lat="46.47224" lon="5.40394">
        <ele>528</ele>
        <time>2019-02-14T08:16:02Z</time>
      </trkpt>
      <trkpt lat="46.47232" lon="5.40404">
        <ele>528</ele>
        <time>2019-02-14T08:17:02Z</time>
      </trkpt>
      <trkpt lat="46.47243" lon="5.40414">
        <ele>527</ele>
        <time>2019-02-14T08:18:02Z</time>
      </trkpt>
      <trkpt lat="46.47256" lon="5.40423">
        <ele>526</ele>
        <time>2019-02-14T08:19:02Z</time>
      </trkpt>
      <trkpt lat="46.4727" lon="5.4043">
        <ele>525</ele>
        <time>2019-02-14T08:20:02Z</time>
      </trkpt>
      <trkpt lat="46.47282" lon="5.40434">
        <ele>524</ele>
        <time>2019-02-14T08:21:02Z</time>
      </trkpt>
      <trkpt lat="46.47293" lon="5.40439">
        <ele>523</ele>
        <time>2019-02-14T08:22:02Z</time>
      </trkpt>
      <trkpt lat="46.47296" lon="5.4044">
        <ele>523</ele>
        <time>2019-02-14T08:23:02Z</time>
      </trkpt>
      <trkpt lat="46.4733" lon="5.40446">
        <ele>518</ele>
        <time>2019-02-14T08:24:02Z</time>
      </trkpt>
      <trkpt lat="46.47371" lon="5.4045">
        <ele>517</ele>
        <time>2019-02-14T08:25:02Z</time>
      </trkpt>
      <trkpt lat="46.47385" lon="5.40451">
        <ele>517</ele>
        <time>2019-02-14T08:26:02Z</time>
      </trkpt>
      <trkpt lat="46.47414" lon="5.40449">
        <ele>515</ele>
        <time>2019-02-14T08:27:02Z</time>
      </trkpt>
      <trkpt lat="46.47433" lon="5.40448">
        <ele>514</ele>
        <time>2019-02-14T08:28:02Z</time>
      </trkpt>
      <trkpt lat="46.47449" lon="5.40448">
        <ele>512</ele>
        <time>2019-02-14T08:29:02Z</time>
      </trkpt>
      <trkpt lat="46.47462" lon="5.40449">
        <ele>511</ele>
        <time>2019-02-14T08:30:02Z</time>
      </trkpt>
      <trkpt lat="46.47472" lon="5.40449">
        <ele>510</ele>
        <time>2019-02-14T08:31:02Z</time>
      </trkpt>
      <trkpt lat="46.47476" lon="5.4045">
        <ele>510</ele>
        <time>2019-02-14T08:32:02Z</time>
      </trkpt>
      <trkpt lat="46.47483" lon="5.40453">
        <ele>510</ele>
        <time>2019-02-14T08:33:02Z</time>
      </trkpt>
      <trkpt lat="46.47492" lon="5.40457">
        <ele>510</ele>
        <time>2019-02-14T08:34:02Z</time>
      </trkpt>
      <trkpt lat="46.47498" lon="5.40462">
        <ele>510</ele>
        <time>2019-02-14T08:35:02Z</time>
      </trkpt>
      <trkpt lat="46.47504" lon="5.40469">
        <ele>510</ele>
        <time>2019-02-14T08:36:02Z</time>
      </trkpt>
      <trkpt lat="46.4751" lon="5.40477">
        <ele>512</ele>
        <time>2019-02-14T08:37:02Z</time>
      </trkpt>
      <trkpt lat="46.47517" lon="5.40484">
        <ele>513</ele>
        <time>2019-02-14T08:38:02Z</time>
      </trkpt>
      <trkpt lat="46.47522" lon="5.40485">
        <ele>513</ele>
        <time>2019-02-14T08:39:02Z</time>
      </trkpt>
      <trkpt lat="46.47527" lon="5.40483">
        <ele>513</ele>
        <time>2019-02-14T08:40:02Z</time>
      </trkpt>
      <trkpt lat="46.4753" lon="5.40481">
        <ele>513</ele>
        <time>2019-02-14T08:41:02Z</time>
      </trkpt>
      <trkpt lat="46.47533" lon="5.40477">
        <ele>513</ele>
        <time>2019-02-14T08:42:02Z</time>
      </trkpt>
      <trkpt lat="46.47537" lon="5.40467">
        <ele>513</ele>
        <time>2019-02-14T08:43:02Z</time>
      </trkpt>
      <trkpt lat="46.47541" lon="5.40443">
        <ele>512</ele>
        <time>2019-02-14T08:44:02Z</time>
      </trkpt>
      <trkpt lat="46.47541" lon="5.40426">
        <ele>511</ele>
        <time>2019-02-14T08:45:02Z</time>
      </trkpt>
      <trkpt lat="46.4754" lon="5.40414">
        <ele>510</ele>
        <time>2019-02-14T08:46:02Z</time>
      </trkpt>
      <trkpt lat="46.47537" lon="5.40399">
        <ele>508</ele>
        <time>2019-02-14T08:47:02Z</time>
      </trkpt>
      <trkpt lat="46.47523" lon="5.40363">
        <ele>503</ele>
        <time>2019-02-14T08:48:02Z</time>
      </trkpt>
      <trkpt lat="46.47521" lon="5.40354">
        <ele>502</ele>
        <time>2019-02-14T08:49:02Z</time>
      </trkpt>
      <trkpt lat="46.47521" lon="5.40344">
        <ele>501</ele>
        <time>2019-02-14T08:50:02Z</time>
      </trkpt>
      <trkpt lat="46.47521" lon="5.40335">
        <ele>501</ele>
        <time>2019-02-14T08:51:02Z</time>
      </trkpt>
      <trkpt lat="46.47525" lon="5.40321">
        <ele>499</ele>
        <time>2019-02-14T08:52:02Z</time>
      </trkpt>
      <trkpt lat="46.47533" lon="5.40303">
        <ele>498</ele>
        <time>2019-02-14T08:53:02Z</time>
      </trkpt>
      <trkpt lat="46.47545" lon="5.40284">
        <ele>496</ele>
        <time>2019-02-14T08:54:02Z</time>
      </trkpt>
      <trkpt lat="46.47558" lon="5.40269">
        <ele>495</ele>
        <time>2019-02-14T08:55:02Z</time>
      </trkpt>
      <trkpt lat="46.47564" lon="5.40264">
        <ele>494</ele>
        <time>2019-02-14T08:56:02Z</time>
      </trkpt>
      <trkpt lat="46.4757" lon="5.40261">
        <ele>494</ele>
        <time>2019-02-14T08:57:02Z</time>
      </trkpt>
      <trkpt lat="46.47608" lon="5.40251">
        <ele>493</ele>
        <time>2019-02-14T08:58:02Z</time>
      </trkpt>
      <trkpt lat="46.4762" lon="5.40248">
        <ele>493</ele>
        <time>2019-02-14T09:00:02Z</time>
      </trkpt>
      <trkpt lat="46.47634" lon="5.40245">
        <ele>492</ele>
        <time>2019-02-14T09:01:02Z</time>
      </trkpt>
      <trkpt lat="46.47647" lon="5.40244">
        <ele>492</ele>
        <time>2019-02-14T09:02:02Z</time>
      </trkpt>
      <trkpt lat="46.47654" lon="5.40244">
        <ele>492</ele>
        <time>2019-02-14T09:03:02Z</time>
      </trkpt>
      <trkpt lat="46.47661" lon="5.40245">
        <ele>492</ele>
        <time>2019-02-14T09:04:02Z</time>
      </trkpt>
      <trkpt lat="46.47666" lon="5.40245">
        <ele>492</ele>
        <time>2019-02-14T09:05:02Z</time>
      </trkpt>
      <trkpt lat="46.47673" lon="5.40245">
        <ele>493</ele>
        <time>2019-02-14T09:06:02Z</time>
      </trkpt>
      <trkpt lat="46.47678" lon="5.40245">
        <ele>493</ele>
        <time>2019-02-14T09:07:02Z</time>
      </trkpt>
      <trkpt lat="46.47684" lon="5.40242">
        <ele>493</ele>
        <time>2019-02-14T09:08:02Z</time>
      </trkpt>
      <trkpt lat="46.47691" lon="5.40238">
        <ele>493</ele>
        <time>2019-02-14T09:09:02Z</time>
      </trkpt>
      <trkpt lat="46.47695" lon="5.40233">
        <ele>493</ele>
        <time>2019-02-14T09:10:02Z</time>
      </trkpt>
      <trkpt lat="46.477" lon="5.40227">
        <ele>492</ele>
        <time>2019-02-14T09:11:02Z</time>
      </trkpt>
      <trkpt lat="46.47704" lon="5.4022">
        <ele>492</ele>
        <time>2019-02-14T09:12:02Z</time>
      </trkpt>
      <trkpt lat="46.47707" lon="5.4021">
        <ele>490</ele>
        <time>2019-02-14T09:13:02Z</time>
      </trkpt>
      <trkpt lat="46.47711" lon="5.40195">
        <ele>488</ele>
        <time>2019-02-14T09:14:02Z</time>
      </trkpt>
      <trkpt lat="46.47714" lon="5.40185">
        <ele>487</ele>
        <time>2019-02-14T09:15:02Z</time>
      </trkpt>
      <trkpt lat="46.47717" lon="5.40176">
        <ele>486</ele>
        <time>2019-02-14T09:16:02Z</time>
      </trkpt>
      <trkpt lat="46.47721" lon="5.40168">
        <ele>486</ele>
        <time>2019-02-14T09:17:02Z</time>
      </trkpt>
      <trkpt lat="46.47722" lon="5.40166">
        <ele>486</ele>
        <time>2019-02-14T09:18:02Z</time>
      </trkpt>
      <trkpt lat="46.47727" lon="5.40161">
        <ele>486</ele>
        <time>2019-02-14T09:19:02Z</time>
      </trkpt>
      <trkpt lat="46.47732" lon="5.40156">
        <ele>486</ele>
        <time>2019-02-14T09:20:02Z</time>
      </trkpt>
      <trkpt lat="46.47739" lon="5.40151">
        <ele>487</ele>
        <time>2019-02-14T09:21:02Z</time>
      </trkpt>
      <trkpt lat="46.47742" lon="5.40148">
        <ele>487</ele>
        <time>2019-02-14T09:22:02Z</time>
      </trkpt>
      <trkpt lat="46.47746" lon="5.40141">
        <ele>487</ele>
      </trkpt>
      <trkpt lat="46.47751" lon="5.4013">
        <ele>486</ele>
      </trkpt>
      <trkpt lat="46.47757" lon="5.40113">
        <ele>485</ele>
      </trkpt>
      <trkpt lat="46.47761" lon="5.40095">
        <ele>483</ele>
      </trkpt>
      <trkpt lat="46.47763" lon="5.40084">
        <ele>482</ele>
      </trkpt>
      <trkpt lat="46.47763" lon="5.40073">
        <ele>481</ele>
      </trkpt>
      <trkpt lat="46.47763" lon="5.40068">
        <ele>480</ele>
      </trkpt>
      <trkpt lat="46.47762" lon="5.40058">
        <ele>479</ele>
      </trkpt>
      <trkpt lat="46.47761" lon="5.40051">
        <ele>478</ele>
      </trkpt>
      <trkpt lat="46.47761" lon="5.40044">
        <ele>478</ele>
      </trkpt>
      <trkpt lat="46.47761" lon="5.40036">
        <ele>477</ele>
      </trkpt>
      <trkpt lat="46.47762" lon="5.40022">
        <ele>475</ele>
      </trkpt>
      <trkpt lat="46.47765" lon="5.40013">
        <ele>475</ele>
      </trkpt>
      <trkpt lat="46.47769" lon="5.40007">
        <ele>474</ele>
      </trkpt>
      <trkpt lat="46.47777" lon="5.4">
        <ele>474</ele>
      </trkpt>
      <trkpt lat="46.47834" lon="5.39972">
        <ele>471</ele>
      </trkpt>
      <trkpt lat="46.47942" lon="5.39913">
        <ele>466</ele>
      </trkpt>
      <trkpt lat="46.47981" lon="5.39892">
        <ele>465</ele>
      </trkpt>
      <trkpt lat="46.47988" lon="5.39889">
        <ele>465</ele>
      </trkpt>
      <trkpt lat="46.47997" lon="5.39885">
        <ele>465</ele>
      </trkpt>
      <trkpt lat="46.48007" lon="5.39883">
        <ele>465</ele>
      </trkpt>
      <trkpt lat="46.48021" lon="5.39881">
        <ele>464</ele>
      </trkpt>
      <trkpt lat="46.4804" lon="5.39893">
        <ele>465</ele>
      </trkpt>
      <trkpt lat="46.48055" lon="5.39902">
        <ele>466</ele>
      </trkpt>
      <trkpt lat="46.48062" lon="5.39906">
        <ele>466</ele>
      </trkpt>
      <trkpt lat="46.48069" lon="5.39908">
        <ele>466</ele>
      </trkpt>
      <trkpt lat="46.48078" lon="5.39909">
        <ele>466</ele>
      </trkpt>
      <trkpt lat="46.48093" lon="5.39909">
        <ele>467</ele>
      </trkpt>
      <trkpt lat="46.48102" lon="5.39908">
        <ele>467</ele>
      </trkpt>
      <trkpt lat="46.48121" lon="5.39905">
        <ele>468</ele>
      </trkpt>
      <trkpt lat="46.48134" lon="5.39898">
        <ele>468</ele>
      </trkpt>
      <trkpt lat="46.48145" lon="5.39893">
        <ele>468</ele>
      </trkpt>
      <trkpt lat="46.48155" lon="5.39887">
        <ele>468</ele>
      </trkpt>
      <trkpt lat="46.48164" lon="5.39882">
        <ele>468</ele>
      </trkpt>
      <trkpt lat="46.4818" lon="5.3987">
        <ele>468</ele>
      </trkpt>
      <trkpt lat="46.48186" lon="5.39865">
        <ele>468</ele>
      </trkpt>
      <trkpt lat="46.48191" lon="5.39859">
        <ele>468</ele>
      </trkpt>
      <trkpt lat="46.48194" lon="5.39852">
        <ele>468</ele>
      </trkpt>
      <trkpt lat="46.48196" lon="5.39848">
        <ele>468</ele>
      </trkpt>
      <trkpt lat="46.48196" lon="5.3984">
        <ele>467</ele>
      </trkpt>
      <trkpt lat="46.48196" lon="5.39831">
        <ele>466</ele>
      </trkpt>
      <trkpt lat="46.48188" lon="5.39787">
        <ele>465</ele>
      </trkpt>
      <trkpt lat="46.48178" lon="5.39724">
        <ele>463</ele>
      </trkpt>
      <trkpt lat="46.48175" lon="5.39693">
        <ele>462</ele>
      </trkpt>
      <trkpt lat="46.48175" lon="5.39672">
        <ele>462</ele>
      </trkpt>
      <trkpt lat="46.48178" lon="5.39653">
        <ele>461</ele>
      </trkpt>
      <trkpt lat="46.48184" lon="5.39631">
        <ele>459</ele>
      </trkpt>
      <trkpt lat="46.48197" lon="5.39604">
        <ele>458</ele>
      </trkpt>
      <trkpt lat="46.48206" lon="5.39581">
        <ele>457</ele>
      </trkpt>
      <trkpt lat="46.48212" lon="5.39555">
        <ele>455</ele>
      </trkpt>
      <trkpt lat="46.48217" lon="5.39521">
        <ele>452</ele>
      </trkpt>
      <trkpt lat="46.48223" lon="5.39503">
        <ele>451</ele>
      </trkpt>
      <trkpt lat="46.48229" lon="5.39488">
        <ele>449</ele>
      </trkpt>
      <trkpt lat="46.48233" lon="5.39484">
        <ele>449</ele>
      </trkpt>
      <trkpt lat="46.4824" lon="5.39475">
        <ele>448</ele>
      </trkpt>
      <trkpt lat="46.48249" lon="5.39466">
        <ele>448</ele>
      </trkpt>
      <trkpt lat="46.48252" lon="5.39465">
        <ele>448</ele>
      </trkpt>
      <trkpt lat="46.48254" lon="5.39463">
        <ele>448</ele>
      </trkpt>
      <trkpt lat="46.48261" lon="5.39462">
        <ele>449</ele>
      </trkpt>
      <trkpt lat="46.48268" lon="5.39463">
        <ele>450</ele>
      </trkpt>
      <trkpt lat="46.48275" lon="5.39463">
        <ele>451</ele>
      </trkpt>
      <trkpt lat="46.48283" lon="5.39463">
        <ele>451</ele>
      </trkpt>
      <trkpt lat="46.48285" lon="5.39462">
        <ele>452</ele>
      </trkpt>
      <trkpt lat="46.48289" lon="5.39457">
        <ele>451</ele>
      </trkpt>
      <trkpt lat="46.48292" lon="5.39451">
        <ele>451</ele>
      </trkpt>
      <trkpt lat="46.48299" lon="5.39429">
        <ele>448</ele>
      </trkpt>
      <trkpt lat="46.48311" lon="5.39382">
        <ele>440</ele>
      </trkpt>
      <trkpt lat="46.48329" lon="5.39351">
        <ele>438</ele>
      </trkpt>
      <trkpt lat="46.4833" lon="5.39349">
        <ele>438</ele>
      </trkpt>
      <trkpt lat="46.4835" lon="5.39323">
        <ele>434</ele>
      </trkpt>
      <trkpt lat="46.48361" lon="5.39316">
        <ele>433</ele>
      </trkpt>
      <trkpt lat="46.48368" lon="5.39315">
        <ele>433</ele>
      </trkpt>
      <trkpt lat="46.48375" lon="5.39315">
        <ele>433</ele>
      </trkpt>
      <trkpt lat="46.484" lon="5.39321">
        <ele>432.7</ele>
      </trkpt>
      <trkpt lat="46.48412" lon="5.39323">
        <ele>434.8</ele>
      </trkpt>
      <trkpt lat="46.48428" lon="5.39323">
        <ele>433.7</ele>
      </trkpt>
      <trkpt lat="46.48442" lon="5.39317">
        <ele>431.2</ele>
      </trkpt>
      <trkpt lat="46.48473" lon="5.39307">
        <ele>431</ele>
      </trkpt>
      <trkpt lat="46.48526" lon="5.39295">
        <ele>426</ele>
      </trkpt>
      <trkpt lat="46.48557" lon="5.39288">
        <ele>422</ele>
      </trkpt>
      <trkpt lat="46.48588" lon="5.39282">
        <ele>418</ele>
      </trkpt>
      <trkpt lat="46.48617" lon="5.39276">
        <ele>414</ele>
      </trkpt>
      <trkpt lat="46.4864" lon="5.39274">
        <ele>412</ele>
      </trkpt>
      <trkpt lat="46.48656" lon="5.39275">
        <ele>410</ele>
      </trkpt>
      <trkpt lat="46.48671" lon="5.39279">
        <ele>410</ele>
      </trkpt>
      <trkpt lat="46.48685" lon="5.39284">
        <ele>409</ele>
      </trkpt>
      <trkpt lat="46.487" lon="5.39295">
        <ele>408</ele>
      </trkpt>
      <trkpt lat="46.48712" lon="5.39303">
        <ele>407</ele>
      </trkpt>
      <trkpt lat="46.48719" lon="5.39306">
        <ele>406</ele>
      </trkpt>
      <trkpt lat="46.48725" lon="5.39305">
        <ele>405</ele>
      </trkpt>
      <trkpt lat="46.4873" lon="5.393">
        <ele>404</ele>
      </trkpt>
      <trkpt lat="46.48732" lon="5.39293">
        <ele>403</ele>
      </trkpt>
      <trkpt lat="46.48732" lon="5.39284">
        <ele>402</ele>
      </trkpt>
      <trkpt lat="46.48729" lon="5.39276">
        <ele>401</ele>
      </trkpt>
      <trkpt lat="46.48723" lon="5.39264">
        <ele>401</ele>
      </trkpt>
      <trkpt lat="46.48708" lon="5.39244">
        <ele>400</ele>
      </trkpt>
      <trkpt lat="46.48677" lon="5.392">
        <ele>397</ele>
      </trkpt>
      <trkpt lat="46.48644" lon="5.3915">
        <ele>391</ele>
      </trkpt>
      <trkpt lat="46.48629" lon="5.39134">
        <ele>389</ele>
      </trkpt>
      <trkpt lat="46.486" lon="5.39112">
        <ele>387</ele>
      </trkpt>
      <trkpt lat="46.48571" lon="5.39092">
        <ele>384</ele>
      </trkpt>
      <trkpt lat="46.48539" lon="5.39072">
        <ele>382</ele>
      </trkpt>
      <trkpt lat="46.48513" lon="5.39055">
        <ele>380</ele>
      </trkpt>
      <trkpt lat="46.48505" lon="5.39044">
        <ele>379</ele>
      </trkpt>
      <trkpt lat="46.48502" lon="5.39037">
        <ele>378</ele>
      </trkpt>
      <trkpt lat="46.485" lon="5.39032">
        <ele>377</ele>
      </trkpt>
      <trkpt lat="46.48495" lon="5.39013">
        <ele>375</ele>
      </trkpt>
      <trkpt lat="46.48491" lon="5.38994">
        <ele>372</ele>
      </trkpt>
      <trkpt lat="46.48487" lon="5.3898">
        <ele>371</ele>
      </trkpt>
      <trkpt lat="46.48485" lon="5.38974">
        <ele>371</ele>
      </trkpt>
      <trkpt lat="46.48484" lon="5.38971">
        <ele>370</ele>
      </trkpt>
      <trkpt lat="46.48478" lon="5.38955">
        <ele>369</ele>
      </trkpt>
      <trkpt lat="46.48468" lon="5.3894">
        <ele>368</ele>
      </trkpt>
      <trkpt lat="46.48457" lon="5.38918">
        <ele>366</ele>
      </trkpt>
      <trkpt lat="46.48453" lon="5.38907">
        <ele>366</ele>
      </trkpt>
      <trkpt lat="46.48452" lon="5.38897">
        <ele>365</ele>
      </trkpt>
      <trkpt lat="46.48452" lon="5.38891">
        <ele>365</ele>
      </trkpt>
      <trkpt lat="46.48453" lon="5.38883">
        <ele>365</ele>
      </trkpt>
      <trkpt lat="46.48455" lon="5.38874">
        <ele>365</ele>
      </trkpt>
      <trkpt lat="46.4846" lon="5.38862">
        <ele>364</ele>
      </trkpt>
      <trkpt lat="46.48471" lon="5.38851">
        <ele>364</ele>
      </trkpt>
      <trkpt lat="46.48486" lon="5.3884">
        <ele>363</ele>
      </trkpt>
      <trkpt lat="46.48531" lon="5.3881">
        <ele>359</ele>
      </trkpt>
      <trkpt lat="46.48562" lon="5.38788">
        <ele>357</ele>
      </trkpt>
      <trkpt lat="46.48582" lon="5.38776">
        <ele>355</ele>
      </trkpt>
      <trkpt lat="46.4859" lon="5.38774">
        <ele>355</ele>
      </trkpt>
      <trkpt lat="46.48599" lon="5.38776">
        <ele>354</ele>
      </trkpt>
      <trkpt lat="46.48602" lon="5.3878">
        <ele>353</ele>
      </trkpt>
      <trkpt lat="46.48606" lon="5.38787">
        <ele>353</ele>
      </trkpt>
      <trkpt lat="46.48609" lon="5.388">
        <ele>353</ele>
      </trkpt>
      <trkpt lat="46.48613" lon="5.3882">
        <ele>353</ele>
      </trkpt>
      <trkpt lat="46.48618" lon="5.38835">
        <ele>353</ele>
      </trkpt>
      <trkpt lat="46.48621" lon="5.38841">
        <ele>353</ele>
      </trkpt>
      <trkpt lat="46.48626" lon="5.38846">
        <ele>353</ele>
      </trkpt>
      <trkpt lat="46.48636" lon="5.38849">
        <ele>352</ele>
      </trkpt>
      <trkpt lat="46.48655" lon="5.38851">
        <ele>351</ele>
      </trkpt>
      <trkpt lat="46.48665" lon="5.38853">
        <ele>350</ele>
      </trkpt>
      <trkpt lat="46.48675" lon="5.38858">
        <ele>349</ele>
      </trkpt>
      <trkpt lat="46.48702" lon="5.38879">
        <ele>347</ele>
      </trkpt>
      <trkpt lat="46.48729" lon="5.389">
        <ele>345</ele>
      </trkpt>
      <trkpt lat="46.48756" lon="5.38915">
        <ele>343</ele>
      </trkpt>
      <trkpt lat="46.48776" lon="5.38924">
        <ele>341</ele>
      </trkpt>
      <trkpt lat="46.48792" lon="5.38936">
        <ele>339</ele>
      </trkpt>
      <trkpt lat="46.48799" lon="5.38944">
        <ele>339</ele>
      </trkpt>
      <trkpt lat="46.48811" lon="5.38955">
        <ele>339</ele>
      </trkpt>
      <trkpt lat="46.48826" lon="5.38975">
        <ele>338</ele>
      </trkpt>
      <trkpt lat="46.48842" lon="5.39001">
        <ele>338</ele>
      </trkpt>
      <trkpt lat="46.48865" lon="5.39035">
        <ele>336</ele>
      </trkpt>
      <trkpt lat="46.4888" lon="5.39055">
        <ele>335</ele>
      </trkpt>
      <trkpt lat="46.48893" lon="5.39083">
        <ele>335</ele>
      </trkpt>
      <trkpt lat="46.489" lon="5.39094">
        <ele>335</ele>
      </trkpt>
      <trkpt lat="46.48911" lon="5.39095">
        <ele>332</ele>
      </trkpt>
      <trkpt lat="46.4892" lon="5.3909">
        <ele>328</ele>
      </trkpt>
      <trkpt lat="46.48931" lon="5.39079">
        <ele>324</ele>
      </trkpt>
      <trkpt lat="46.48939" lon="5.39075">
        <ele>317.9</ele>
      </trkpt>
      <trkpt lat="46.48948" lon="5.3908">
        <ele>320</ele>
      </trkpt>
      <trkpt lat="46.4897" lon="5.39098">
        <ele>318</ele>
      </trkpt>
      <trkpt lat="46.49006" lon="5.39122">
        <ele>315</ele>
      </trkpt>
      <trkpt lat="46.49038" lon="5.39139">
        <ele>314</ele>
      </trkpt>
      <trkpt lat="46.49071" lon="5.39148">
        <ele>310</ele>
      </trkpt>
      <trkpt lat="46.49114" lon="5.3915">
        <ele>303</ele>
      </trkpt>
      <trkpt lat="46.49145" lon="5.39153">
        <ele>298</ele>
      </trkpt>
      <trkpt lat="46.49162" lon="5.39155">
        <ele>296</ele>
      </trkpt>
      <trkpt lat="46.49168" lon="5.39155">
        <ele>295</ele>
      </trkpt>
      <trkpt lat="46.49176" lon="5.3915">
        <ele>294</ele>
      </trkpt>
      <trkpt lat="46.49187" lon="5.3914">
        <ele>292</ele>
      </trkpt>
      <trkpt lat="46.49193" lon="5.39134">
        <ele>291</ele>
      </trkpt>
      <trkpt lat="46.49197" lon="5.39127">
        <ele>291</ele>
      </trkpt>
      <trkpt lat="46.49205" lon="5.39105">
        <ele>289</ele>
      </trkpt>
      <trkpt lat="46.49209" lon="5.39088">
        <ele>288</ele>
      </trkpt>
      <trkpt lat="46.49213" lon="5.3908">
        <ele>288</ele>
      </trkpt>
      <trkpt lat="46.4922" lon="5.39069">
        <ele>287</ele>
      </trkpt>
      <trkpt lat="46.49224" lon="5.39065">
        <ele>287</ele>
      </trkpt>
      <trkpt lat="46.49229" lon="5.39059">
        <ele>287</ele>
      </trkpt>
      <trkpt lat="46.49239" lon="5.39053">
        <ele>287</ele>
      </trkpt>
      <trkpt lat="46.49252" lon="5.39048">
        <ele>287</ele>
      </trkpt>
      <trkpt lat="46.49262" lon="5.39045">
        <ele>287</ele>
      </trkpt>
      <trkpt lat="46.49262" lon="5.39045">
        <ele>287</ele>
      </trkpt>
      <trkpt lat="46.49271" lon="5.39038">
        <ele>287.2</ele>
      </trkpt>
      <trkpt lat="46.49276" lon="5.39029">
        <ele>287</ele>
      </trkpt>
      <trkpt lat="46.49281" lon="5.39019">
        <ele>287</ele>
      </trkpt>
      <trkpt lat="46.49284" lon="5.39008">
        <ele>287</ele>
      </trkpt>
      <trkpt lat="46.49285" lon="5.38997">
        <ele>286</ele>
      </trkpt>
      <trkpt lat="46.49283" lon="5.38979">
        <ele>285</ele>
      </trkpt>
      <trkpt lat="46.49275" lon="5.38961">
        <ele>284.8</ele>
      </trkpt>
      <trkpt lat="46.4923" lon="5.3889">
        <ele>281</ele>
      </trkpt>
      <trkpt lat="46.49207" lon="5.38849">
        <ele>281</ele>
      </trkpt>
      <trkpt lat="46.492" lon="5.38829">
        <ele>279.4</ele>
      </trkpt>
      <trkpt lat="46.49196" lon="5.38808">
        <ele>279</ele>
      </trkpt>
      <trkpt lat="46.49194" lon="5.38732">
        <ele>277</ele>
      </trkpt>
      <trkpt lat="46.49194" lon="5.38698">
        <ele>276</ele>
      </trkpt>
      <trkpt lat="46.49201" lon="5.38673">
        <ele>276</ele>
      </trkpt>
      <trkpt lat="46.49211" lon="5.38663">
        <ele>274.8</ele>
      </trkpt>
      <trkpt lat="46.49218" lon="5.38684">
        <ele>277</ele>
      </trkpt>
      <trkpt lat="46.49228" lon="5.38697">
        <ele>277</ele>
      </trkpt>
      <trkpt lat="46.49261" lon="5.38718">
        <ele>279</ele>
      </trkpt>
      <trkpt lat="46.49313" lon="5.38737">
        <ele>280</ele>
      </trkpt>
      <trkpt lat="46.49391" lon="5.38762">
        <ele>280.7</ele>
      </trkpt>
      <trkpt lat="46.49476" lon="5.38779">
        <ele>280.2</ele>
      </trkpt>
      <trkpt lat="46.49561" lon="5.38796">
        <ele>278.5</ele>
      </trkpt>
    </trkseg>
  </trk>
</gpx>